﻿<?xml version="1.0" encoding="utf-8"?><gpx creator="Garmin Desktop App" version="1.1" xsi:schemaLocation="http://www.topografix.com/GPX/1/1 http://www.topografix.com/GPX/1/1/gpx.xsd http://www.garmin.com/xmlschemas/WaypointExtension/v1 http://www8.garmin.com/xmlschemas/WaypointExtensionv1.xsd http://www.garmin.com/xmlschemas/TrackPointExtension/v1 http://www.garmin.com/xmlschemas/TrackPointExtensionv1.xsd http://www.garmin.com/xmlschemas/GpxExtensions/v3 http://www8.garmin.com/xmlschemas/GpxExtensionsv3.xsd http://www.garmin.com/xmlschemas/ActivityExtension/v1 http://www8.garmin.com/xmlschemas/ActivityExtensionv1.xsd http://www.garmin.com/xmlschemas/AdventuresExtensions/v1 http://www8.garmin.com/xmlschemas/AdventuresExtensionv1.xsd http://www.garmin.com/xmlschemas/PressureExtension/v1 http://www.garmin.com/xmlschemas/PressureExtensionv1.xsd http://www.garmin.com/xmlschemas/TripExtensions/v1 http://www.garmin.com/xmlschemas/TripExtensionsv1.xsd http://www.garmin.com/xmlschemas/TripMetaDataExtensions/v1 http://www.garmin.com/xmlschemas/TripMetaDataExtensionsv1.xsd http://www.garmin.com/xmlschemas/ViaPointTransportationModeExtensions/v1 http://www.garmin.com/xmlschemas/ViaPointTransportationModeExtensionsv1.xsd http://www.garmin.com/xmlschemas/CreationTimeExtension/v1 http://www.garmin.com/xmlschemas/CreationTimeExtensionsv1.xsd http://www.garmin.com/xmlschemas/AccelerationExtension/v1 http://www.garmin.com/xmlschemas/AccelerationExtensionv1.xsd http://www.garmin.com/xmlschemas/PowerExtension/v1 http://www.garmin.com/xmlschemas/PowerExtensionv1.xsd http://www.garmin.com/xmlschemas/VideoExtension/v1 http://www.garmin.com/xmlschemas/VideoExtensionv1.xsd" xmlns="http://www.topografix.com/GPX/1/1" xmlns:xsi="http://www.w3.org/2001/XMLSchema-instance" xmlns:wptx1="http://www.garmin.com/xmlschemas/WaypointExtension/v1" xmlns:gpxtrx="http://www.garmin.com/xmlschemas/GpxExtensions/v3" xmlns:gpxtpx="http://www.garmin.com/xmlschemas/TrackPointExtension/v1" xmlns:gpxx="http://www.garmin.com/xmlschemas/GpxExtensions/v3" xmlns:trp="http://www.garmin.com/xmlschemas/TripExtensions/v1" xmlns:adv="http://www.garmin.com/xmlschemas/AdventuresExtensions/v1" xmlns:prs="http://www.garmin.com/xmlschemas/PressureExtension/v1" xmlns:tmd="http://www.garmin.com/xmlschemas/TripMetaDataExtensions/v1" xmlns:vptm="http://www.garmin.com/xmlschemas/ViaPointTransportationModeExtensions/v1" xmlns:ctx="http://www.garmin.com/xmlschemas/CreationTimeExtension/v1" xmlns:gpxacc="http://www.garmin.com/xmlschemas/AccelerationExtension/v1" xmlns:gpxpx="http://www.garmin.com/xmlschemas/PowerExtension/v1" xmlns:vidx1="http://www.garmin.com/xmlschemas/VideoExtension/v1">

  <metadata>
    <link href="http://www.garmin.com">
      <text>Garmin International</text>
    </link>
    <time>2018-10-05T12:36:39Z</time>
    <bounds maxlat="40.765633340924978" maxlon="14.243133282288909" minlat="40.544770946726203" minlon="13.860839121043682" />
  </metadata>

  <trk>
    <name>2018-09-23 09:37:25</name>
    <extensions>
      <gpxx:TrackExtension>
        <gpxx:DisplayColor>Yellow</gpxx:DisplayColor>
      </gpxx:TrackExtension>
      <gpxtrkx:TrackStatsExtension xmlns:gpxtrkx="http://www.garmin.com/xmlschemas/TrackStatsExtension/v1">
        <gpxtrkx:Distance>15079</gpxtrkx:Distance>
        <gpxtrkx:TotalElapsedTime>2321</gpxtrkx:TotalElapsedTime>
        <gpxtrkx:MovingTime>2169</gpxtrkx:MovingTime>
        <gpxtrkx:StoppedTime>96</gpxtrkx:StoppedTime>
        <gpxtrkx:MovingSpeed>7</gpxtrkx:MovingSpeed>
        <gpxtrkx:MaxSpeed>16</gpxtrkx:MaxSpeed>
        <gpxtrkx:MaxElevation>446</gpxtrkx:MaxElevation>
        <gpxtrkx:MinElevation>40</gpxtrkx:MinElevation>
        <gpxtrkx:Ascent>445</gpxtrkx:Ascent>
        <gpxtrkx:Descent>330</gpxtrkx:Descent>
        <gpxtrkx:AvgAscentRate>0</gpxtrkx:AvgAscentRate>
        <gpxtrkx:MaxAscentRate>1</gpxtrkx:MaxAscentRate>
        <gpxtrkx:AvgDescentRate>0</gpxtrkx:AvgDescentRate>
        <gpxtrkx:MaxDescentRate>-1</gpxtrkx:MaxDescentRate>
      </gpxtrkx:TrackStatsExtension>
    </extensions>
    <trkseg>
      <trkpt lat="40.734187792986631" lon="13.948663361370564">
        <ele>41.469999999999999</ele>
        <time>2018-09-23T06:58:46Z</time>
      </trkpt>
      <trkpt lat="40.734208831563592" lon="13.948674676939845">
        <ele>41.469999999999999</ele>
        <time>2018-09-23T06:58:47Z</time>
      </trkpt>
      <trkpt lat="40.734238252043724" lon="13.948691356927156">
        <ele>41.469999999999999</ele>
        <time>2018-09-23T06:58:48Z</time>
      </trkpt>
      <trkpt lat="40.734498593956232" lon="13.948885900899768">
        <ele>40.990000000000002</ele>
        <time>2018-09-23T06:58:55Z</time>
      </trkpt>
      <trkpt lat="40.734551483765244" lon="13.948915740475059">
        <ele>40.990000000000002</ele>
        <time>2018-09-23T06:58:56Z</time>
      </trkpt>
      <trkpt lat="40.734589034691453" lon="13.948924206197262">
        <ele>40.990000000000002</ele>
        <time>2018-09-23T06:58:57Z</time>
      </trkpt>
      <trkpt lat="40.734625160694122" lon="13.948926972225308">
        <ele>40.990000000000002</ele>
        <time>2018-09-23T06:58:58Z</time>
      </trkpt>
      <trkpt lat="40.734660029411316" lon="13.948910878971219">
        <ele>40.990000000000002</ele>
        <time>2018-09-23T06:58:59Z</time>
      </trkpt>
      <trkpt lat="40.734693640843034" lon="13.948886319994926">
        <ele>40.990000000000002</ele>
        <time>2018-09-23T06:59:00Z</time>
      </trkpt>
      <trkpt lat="40.735003184527159" lon="13.94843889400363">
        <ele>40.990000000000002</ele>
        <time>2018-09-23T06:59:08Z</time>
      </trkpt>
      <trkpt lat="40.735540213063359" lon="13.947441363707185">
        <ele>42.439999999999998</ele>
        <time>2018-09-23T06:59:18Z</time>
      </trkpt>
      <trkpt lat="40.735825449228287" lon="13.947051269933581">
        <ele>41.469999999999999</ele>
        <time>2018-09-23T06:59:24Z</time>
      </trkpt>
      <trkpt lat="40.735874986276031" lon="13.946973904967308">
        <ele>40.990000000000002</ele>
        <time>2018-09-23T06:59:28Z</time>
      </trkpt>
      <trkpt lat="40.735870460048318" lon="13.946957811713219">
        <ele>40.990000000000002</ele>
        <time>2018-09-23T06:59:29Z</time>
      </trkpt>
      <trkpt lat="40.735854199156165" lon="13.946930821985006">
        <ele>40.990000000000002</ele>
        <time>2018-09-23T06:59:30Z</time>
      </trkpt>
      <trkpt lat="40.735828718170524" lon="13.946906849741936">
        <ele>41.469999999999999</ele>
        <time>2018-09-23T06:59:31Z</time>
      </trkpt>
      <trkpt lat="40.735803991556168" lon="13.946871478110552">
        <ele>41.469999999999999</ele>
        <time>2018-09-23T06:59:32Z</time>
      </trkpt>
      <trkpt lat="40.735492520034313" lon="13.946594204753637">
        <ele>44.840000000000003</ele>
        <time>2018-09-23T06:59:40Z</time>
      </trkpt>
      <trkpt lat="40.734807550907135" lon="13.946256749331951">
        <ele>46.280000000000001</ele>
        <time>2018-09-23T06:59:48Z</time>
      </trkpt>
      <trkpt lat="40.733824102208018" lon="13.94590831361711">
        <ele>47.240000000000002</ele>
        <time>2018-09-23T06:59:59Z</time>
      </trkpt>
      <trkpt lat="40.732902344316244" lon="13.945414116606116">
        <ele>49.649999999999999</ele>
        <time>2018-09-23T07:00:08Z</time>
      </trkpt>
      <trkpt lat="40.732031632214785" lon="13.944940539076924">
        <ele>51.57</ele>
        <time>2018-09-23T07:00:16Z</time>
      </trkpt>
      <trkpt lat="40.731292264536023" lon="13.944494370371103">
        <ele>53.009999999999998</ele>
        <time>2018-09-23T07:00:25Z</time>
      </trkpt>
      <trkpt lat="40.730991689488292" lon="13.944352297112346">
        <ele>53.490000000000002</ele>
        <time>2018-09-23T07:00:31Z</time>
      </trkpt>
      <trkpt lat="40.730790188536048" lon="13.94418683834374">
        <ele>54.93</ele>
        <time>2018-09-23T07:00:36Z</time>
      </trkpt>
      <trkpt lat="40.730133717879653" lon="13.943776125088334">
        <ele>54.93</ele>
        <time>2018-09-23T07:00:47Z</time>
      </trkpt>
      <trkpt lat="40.729966582730412" lon="13.943679062649608">
        <ele>59.259999999999998</ele>
        <time>2018-09-23T07:00:50Z</time>
      </trkpt>
      <trkpt lat="40.729873878881335" lon="13.943627346307039">
        <ele>60.219999999999999</ele>
        <time>2018-09-23T07:00:52Z</time>
      </trkpt>
      <trkpt lat="40.729486886411905" lon="13.943414781242609">
        <ele>63.579999999999998</ele>
        <time>2018-09-23T07:00:59Z</time>
      </trkpt>
      <trkpt lat="40.729210702702403" lon="13.943253345787525">
        <ele>66.950000000000003</ele>
        <time>2018-09-23T07:01:03Z</time>
      </trkpt>
      <trkpt lat="40.728600332513452" lon="13.943017981946468">
        <ele>70.310000000000002</ele>
        <time>2018-09-23T07:01:12Z</time>
      </trkpt>
      <trkpt lat="40.727775888517499" lon="13.942828634753823">
        <ele>72.239999999999995</ele>
        <time>2018-09-23T07:01:24Z</time>
      </trkpt>
      <trkpt lat="40.726761342957616" lon="13.942574579268694">
        <ele>72.719999999999999</ele>
        <time>2018-09-23T07:01:37Z</time>
      </trkpt>
      <trkpt lat="40.725869005545974" lon="13.9422289095819">
        <ele>74.640000000000001</ele>
        <time>2018-09-23T07:01:49Z</time>
      </trkpt>
      <trkpt lat="40.72539291344583" lon="13.941905368119478">
        <ele>76.079999999999998</ele>
        <time>2018-09-23T07:01:57Z</time>
      </trkpt>
      <trkpt lat="40.725339269265532" lon="13.941887682303786">
        <ele>76.079999999999998</ele>
        <time>2018-09-23T07:02:03Z</time>
      </trkpt>
      <trkpt lat="40.725296689197421" lon="13.941853400319815">
        <ele>76.079999999999998</ele>
        <time>2018-09-23T07:02:09Z</time>
      </trkpt>
      <trkpt lat="40.725281769409776" lon="13.941840156912804">
        <ele>76.560000000000002</ele>
        <time>2018-09-23T07:02:10Z</time>
      </trkpt>
      <trkpt lat="40.725256791338325" lon="13.941823225468397">
        <ele>76.079999999999998</ele>
        <time>2018-09-23T07:02:11Z</time>
      </trkpt>
      <trkpt lat="40.72521697729826" lon="13.941806880757213">
        <ele>76.560000000000002</ele>
        <time>2018-09-23T07:02:12Z</time>
      </trkpt>
      <trkpt lat="40.725166518241167" lon="13.941797995939851">
        <ele>76.560000000000002</ele>
        <time>2018-09-23T07:02:13Z</time>
      </trkpt>
      <trkpt lat="40.725111616775393" lon="13.941793721169233">
        <ele>76.560000000000002</ele>
        <time>2018-09-23T07:02:14Z</time>
      </trkpt>
      <trkpt lat="40.724919671192765" lon="13.941768324002624">
        <ele>76.560000000000002</ele>
        <time>2018-09-23T07:02:17Z</time>
      </trkpt>
      <trkpt lat="40.72422506287694" lon="13.94172708503902">
        <ele>78</ele>
        <time>2018-09-23T07:02:24Z</time>
      </trkpt>
      <trkpt lat="40.723276482895017" lon="13.941551148891449">
        <ele>79.450000000000003</ele>
        <time>2018-09-23T07:02:34Z</time>
      </trkpt>
      <trkpt lat="40.722489086911082" lon="13.941219728440046">
        <ele>81.370000000000005</ele>
        <time>2018-09-23T07:02:44Z</time>
      </trkpt>
      <trkpt lat="40.722228074446321" lon="13.941194750368595">
        <ele>82.810000000000002</ele>
        <time>2018-09-23T07:02:47Z</time>
      </trkpt>
      <trkpt lat="40.722146183252335" lon="13.941203132271767">
        <ele>82.810000000000002</ele>
        <time>2018-09-23T07:02:48Z</time>
      </trkpt>
      <trkpt lat="40.722067477181554" lon="13.941221572458744">
        <ele>82.810000000000002</ele>
        <time>2018-09-23T07:02:49Z</time>
      </trkpt>
      <trkpt lat="40.721991034224629" lon="13.94125409424305">
        <ele>83.290000000000006</ele>
        <time>2018-09-23T07:02:50Z</time>
      </trkpt>
      <trkpt lat="40.721911322325468" lon="13.941300194710493">
        <ele>82.810000000000002</ele>
        <time>2018-09-23T07:02:51Z</time>
      </trkpt>
      <trkpt lat="40.721844770014286" lon="13.941345037892461">
        <ele>83.290000000000006</ele>
        <time>2018-09-23T07:02:52Z</time>
      </trkpt>
      <trkpt lat="40.721222497522831" lon="13.9418023545295">
        <ele>84.25</ele>
        <time>2018-09-23T07:03:02Z</time>
      </trkpt>
      <trkpt lat="40.721145970746875" lon="13.941849460825324">
        <ele>84.25</ele>
        <time>2018-09-23T07:03:10Z</time>
      </trkpt>
      <trkpt lat="40.721143875271082" lon="13.941842839121819">
        <ele>84.25</ele>
        <time>2018-09-23T07:03:13Z</time>
      </trkpt>
      <trkpt lat="40.721037425100803" lon="13.941824482753873">
        <ele>84.730000000000004</ele>
        <time>2018-09-23T07:03:17Z</time>
      </trkpt>
      <trkpt lat="40.720986630767584" lon="13.941805539652705">
        <ele>84.730000000000004</ele>
        <time>2018-09-23T07:03:18Z</time>
      </trkpt>
      <trkpt lat="40.720929633826017" lon="13.941777041181922">
        <ele>84.730000000000004</ele>
        <time>2018-09-23T07:03:19Z</time>
      </trkpt>
      <trkpt lat="40.720405010506511" lon="13.941367417573929">
        <ele>87.620000000000005</ele>
        <time>2018-09-23T07:03:26Z</time>
      </trkpt>
      <trkpt lat="40.719902599230409" lon="13.940895516425371">
        <ele>90.019999999999996</ele>
        <time>2018-09-23T07:03:32Z</time>
      </trkpt>
      <trkpt lat="40.7192537561059" lon="13.940363600850105">
        <ele>92.420000000000002</ele>
        <time>2018-09-23T07:03:39Z</time>
      </trkpt>
      <trkpt lat="40.718966173008084" lon="13.940065205097198">
        <ele>93.870000000000005</ele>
        <time>2018-09-23T07:03:42Z</time>
      </trkpt>
      <trkpt lat="40.718615055084229" lon="13.939736383035779">
        <ele>94.829999999999998</ele>
        <time>2018-09-23T07:03:46Z</time>
      </trkpt>
      <trkpt lat="40.718521177768707" lon="13.939673099666834">
        <ele>95.310000000000002</ele>
        <time>2018-09-23T07:03:47Z</time>
      </trkpt>
      <trkpt lat="40.718105519190431" lon="13.93943203613162">
        <ele>96.75</ele>
        <time>2018-09-23T07:03:51Z</time>
      </trkpt>
      <trkpt lat="40.717406719923019" lon="13.938985364511609">
        <ele>100.11</ele>
        <time>2018-09-23T07:03:57Z</time>
      </trkpt>
      <trkpt lat="40.716744298115373" lon="13.938558055087924">
        <ele>102.52</ele>
        <time>2018-09-23T07:04:03Z</time>
      </trkpt>
      <trkpt lat="40.716658886522055" lon="13.938470715656877">
        <ele>103</ele>
        <time>2018-09-23T07:04:04Z</time>
      </trkpt>
      <trkpt lat="40.716511616483331" lon="13.938299054279923">
        <ele>103.95999999999999</ele>
        <time>2018-09-23T07:04:06Z</time>
      </trkpt>
      <trkpt lat="40.716462498530746" lon="13.938191179186106">
        <ele>105.40000000000001</ele>
        <time>2018-09-23T07:04:07Z</time>
      </trkpt>
      <trkpt lat="40.716431820765138" lon="13.938064193353057">
        <ele>105.88</ele>
        <time>2018-09-23T07:04:08Z</time>
      </trkpt>
      <trkpt lat="40.716417822986841" lon="13.937919354066253">
        <ele>106.84</ele>
        <time>2018-09-23T07:04:09Z</time>
      </trkpt>
      <trkpt lat="40.716409357264638" lon="13.937768647447228">
        <ele>107.31999999999999</ele>
        <time>2018-09-23T07:04:10Z</time>
      </trkpt>
      <trkpt lat="40.716412458568811" lon="13.937228182330728">
        <ele>110.69</ele>
        <time>2018-09-23T07:04:14Z</time>
      </trkpt>
      <trkpt lat="40.716341882944107" lon="13.936695093289018">
        <ele>114.05</ele>
        <time>2018-09-23T07:04:18Z</time>
      </trkpt>
      <trkpt lat="40.716233504936099" lon="13.936246074736118">
        <ele>116.94</ele>
        <time>2018-09-23T07:04:22Z</time>
      </trkpt>
      <trkpt lat="40.716057568788528" lon="13.935656659305096">
        <ele>120.3</ele>
        <time>2018-09-23T07:04:28Z</time>
      </trkpt>
      <trkpt lat="40.71590862236917" lon="13.93524007871747">
        <ele>123.19</ele>
        <time>2018-09-23T07:04:32Z</time>
      </trkpt>
      <trkpt lat="40.715849194675684" lon="13.935142764821649">
        <ele>123.67</ele>
        <time>2018-09-23T07:04:33Z</time>
      </trkpt>
      <trkpt lat="40.715781133621931" lon="13.935061041265726">
        <ele>124.15000000000001</ele>
        <time>2018-09-23T07:04:34Z</time>
      </trkpt>
      <trkpt lat="40.715703265741467" lon="13.934989627450705">
        <ele>124.15000000000001</ele>
        <time>2018-09-23T07:04:35Z</time>
      </trkpt>
      <trkpt lat="40.715620284900069" lon="13.934926763176918">
        <ele>125.11</ele>
        <time>2018-09-23T07:04:36Z</time>
      </trkpt>
      <trkpt lat="40.715535208582878" lon="13.934868006035686">
        <ele>125.59</ele>
        <time>2018-09-23T07:04:37Z</time>
      </trkpt>
      <trkpt lat="40.715311579406261" lon="13.934701457619667">
        <ele>126.55</ele>
        <time>2018-09-23T07:04:40Z</time>
      </trkpt>
      <trkpt lat="40.715258521959186" lon="13.934628954157233">
        <ele>127.03</ele>
        <time>2018-09-23T07:04:41Z</time>
      </trkpt>
      <trkpt lat="40.715224072337151" lon="13.934543374925852">
        <ele>127.51000000000001</ele>
        <time>2018-09-23T07:04:42Z</time>
      </trkpt>
      <trkpt lat="40.715204793959856" lon="13.934443462640047">
        <ele>127.51000000000001</ele>
        <time>2018-09-23T07:04:43Z</time>
      </trkpt>
      <trkpt lat="40.715194400399923" lon="13.9343336597085">
        <ele>127.98999999999999</ele>
        <time>2018-09-23T07:04:44Z</time>
      </trkpt>
      <trkpt lat="40.715191131457686" lon="13.934199884533882">
        <ele>127.98999999999999</ele>
        <time>2018-09-23T07:04:45Z</time>
      </trkpt>
      <trkpt lat="40.715187778696418" lon="13.934106091037393">
        <ele>128.47</ele>
        <time>2018-09-23T07:04:46Z</time>
      </trkpt>
      <trkpt lat="40.715193143114448" lon="13.933879695832729">
        <ele>129.43000000000001</ele>
        <time>2018-09-23T07:04:48Z</time>
      </trkpt>
      <trkpt lat="40.715253911912441" lon="13.933561099693179">
        <ele>130.40000000000001</ele>
        <time>2018-09-23T07:04:51Z</time>
      </trkpt>
      <trkpt lat="40.7153026945889" lon="13.933475269004703">
        <ele>130.40000000000001</ele>
        <time>2018-09-23T07:04:52Z</time>
      </trkpt>
      <trkpt lat="40.715373018756509" lon="13.933404106646776">
        <ele>130.88</ele>
        <time>2018-09-23T07:04:53Z</time>
      </trkpt>
      <trkpt lat="40.715447701513767" lon="13.933348786085844">
        <ele>131.84</ele>
        <time>2018-09-23T07:04:54Z</time>
      </trkpt>
      <trkpt lat="40.71552112698555" lon="13.933306373655796">
        <ele>132.31999999999999</ele>
        <time>2018-09-23T07:04:55Z</time>
      </trkpt>
      <trkpt lat="40.715597150847316" lon="13.933271085843444">
        <ele>132.80000000000001</ele>
        <time>2018-09-23T07:04:56Z</time>
      </trkpt>
      <trkpt lat="40.715677365660667" lon="13.933242922648787">
        <ele>133.75999999999999</ele>
        <time>2018-09-23T07:04:57Z</time>
      </trkpt>
      <trkpt lat="40.715771494433284" lon="13.933215346187353">
        <ele>134.24000000000001</ele>
        <time>2018-09-23T07:04:58Z</time>
      </trkpt>
      <trkpt lat="40.716123450547457" lon="13.933116104453802">
        <ele>137.61000000000001</ele>
        <time>2018-09-23T07:05:02Z</time>
      </trkpt>
      <trkpt lat="40.716464761644602" lon="13.93301728181541">
        <ele>140.97</ele>
        <time>2018-09-23T07:05:06Z</time>
      </trkpt>
      <trkpt lat="40.716802049428225" lon="13.932827934622765">
        <ele>144.34</ele>
        <time>2018-09-23T07:05:11Z</time>
      </trkpt>
      <trkpt lat="40.716844042763114" lon="13.932785941287875">
        <ele>144.81999999999999</ele>
        <time>2018-09-23T07:05:12Z</time>
      </trkpt>
      <trkpt lat="40.716877654194832" lon="13.932745875790715">
        <ele>145.30000000000001</ele>
        <time>2018-09-23T07:05:13Z</time>
      </trkpt>
      <trkpt lat="40.716885449364781" lon="13.932701703161001">
        <ele>145.78</ele>
        <time>2018-09-23T07:05:14Z</time>
      </trkpt>
      <trkpt lat="40.716863656416535" lon="13.932646969333291">
        <ele>146.74000000000001</ele>
        <time>2018-09-23T07:05:15Z</time>
      </trkpt>
      <trkpt lat="40.716824512928724" lon="13.932587122544646">
        <ele>146.74000000000001</ele>
        <time>2018-09-23T07:05:16Z</time>
      </trkpt>
      <trkpt lat="40.716771706938744" lon="13.932525347918272">
        <ele>147.22</ele>
        <time>2018-09-23T07:05:17Z</time>
      </trkpt>
      <trkpt lat="40.716711860150099" lon="13.932461896911263">
        <ele>147.22</ele>
        <time>2018-09-23T07:05:18Z</time>
      </trkpt>
      <trkpt lat="40.716597698628902" lon="13.932319572195411">
        <ele>148.18000000000001</ele>
        <time>2018-09-23T07:05:20Z</time>
      </trkpt>
      <trkpt lat="40.716537432745099" lon="13.932224186137319">
        <ele>149.13999999999999</ele>
        <time>2018-09-23T07:05:21Z</time>
      </trkpt>
      <trkpt lat="40.716485884040594" lon="13.932123184204102">
        <ele>149.62</ele>
        <time>2018-09-23T07:05:22Z</time>
      </trkpt>
      <trkpt lat="40.716447746381164" lon="13.932015392929316">
        <ele>149.62</ele>
        <time>2018-09-23T07:05:23Z</time>
      </trkpt>
      <trkpt lat="40.716418577358127" lon="13.931902656331658">
        <ele>149.62</ele>
        <time>2018-09-23T07:05:24Z</time>
      </trkpt>
      <trkpt lat="40.716398293152452" lon="13.931768126785755">
        <ele>149.62</ele>
        <time>2018-09-23T07:05:25Z</time>
      </trkpt>
      <trkpt lat="40.716396616771817" lon="13.931608451530337">
        <ele>149.62</ele>
        <time>2018-09-23T07:05:26Z</time>
      </trkpt>
      <trkpt lat="40.716405836865306" lon="13.931449698284268">
        <ele>149.62</ele>
        <time>2018-09-23T07:05:27Z</time>
      </trkpt>
      <trkpt lat="40.716415559872985" lon="13.931289352476597">
        <ele>149.13999999999999</ele>
        <time>2018-09-23T07:05:28Z</time>
      </trkpt>
      <trkpt lat="40.716426037251949" lon="13.931128503754735">
        <ele>149.13999999999999</ele>
        <time>2018-09-23T07:05:29Z</time>
      </trkpt>
      <trkpt lat="40.716441376134753" lon="13.930971594527364">
        <ele>148.66</ele>
        <time>2018-09-23T07:05:30Z</time>
      </trkpt>
      <trkpt lat="40.71659903973341" lon="13.929573828354478">
        <ele>149.62</ele>
        <time>2018-09-23T07:05:39Z</time>
      </trkpt>
      <trkpt lat="40.71661077439785" lon="13.929271325469017">
        <ele>150.09999999999999</ele>
        <time>2018-09-23T07:05:41Z</time>
      </trkpt>
      <trkpt lat="40.716601805761456" lon="13.92912975512445">
        <ele>150.58000000000001</ele>
        <time>2018-09-23T07:05:42Z</time>
      </trkpt>
      <trkpt lat="40.716532487422228" lon="13.928726334124804">
        <ele>151.53999999999999</ele>
        <time>2018-09-23T07:05:45Z</time>
      </trkpt>
      <trkpt lat="40.716491248458624" lon="13.928604377433658">
        <ele>151.53999999999999</ele>
        <time>2018-09-23T07:05:46Z</time>
      </trkpt>
      <trkpt lat="40.716440957039595" lon="13.928493736311793">
        <ele>152.03</ele>
        <time>2018-09-23T07:05:47Z</time>
      </trkpt>
      <trkpt lat="40.716383708640933" lon="13.928386364132166">
        <ele>152.03</ele>
        <time>2018-09-23T07:05:48Z</time>
      </trkpt>
      <trkpt lat="40.716323694214225" lon="13.928285194560885">
        <ele>152.50999999999999</ele>
        <time>2018-09-23T07:05:49Z</time>
      </trkpt>
      <trkpt lat="40.716260243207216" lon="13.928189389407635">
        <ele>152.50999999999999</ele>
        <time>2018-09-23T07:05:50Z</time>
      </trkpt>
      <trkpt lat="40.716190254315734" lon="13.92809827812016">
        <ele>152.99000000000001</ele>
        <time>2018-09-23T07:05:51Z</time>
      </trkpt>
      <trkpt lat="40.716105345636606" lon="13.928012028336525">
        <ele>152.99000000000001</ele>
        <time>2018-09-23T07:05:52Z</time>
      </trkpt>
      <trkpt lat="40.716013396158814" lon="13.927934411913157">
        <ele>153.47</ele>
        <time>2018-09-23T07:05:53Z</time>
      </trkpt>
      <trkpt lat="40.715182162821293" lon="13.927209880203009">
        <ele>153.94999999999999</ele>
        <time>2018-09-23T07:06:01Z</time>
      </trkpt>
      <trkpt lat="40.715009244158864" lon="13.926980886608362">
        <ele>153.94999999999999</ele>
        <time>2018-09-23T07:06:03Z</time>
      </trkpt>
      <trkpt lat="40.714935483410954" lon="13.926844680681825">
        <ele>153.94999999999999</ele>
        <time>2018-09-23T07:06:04Z</time>
      </trkpt>
      <trkpt lat="40.714880162850022" lon="13.926715515553951">
        <ele>153.94999999999999</ele>
        <time>2018-09-23T07:06:05Z</time>
      </trkpt>
      <trkpt lat="40.714826518669724" lon="13.926571346819401">
        <ele>153.47</ele>
        <time>2018-09-23T07:06:06Z</time>
      </trkpt>
      <trkpt lat="40.714777233079076" lon="13.926425417885184">
        <ele>153.47</ele>
        <time>2018-09-23T07:06:07Z</time>
      </trkpt>
      <trkpt lat="40.714597189798951" lon="13.92580364830792">
        <ele>153.47</ele>
        <time>2018-09-23T07:06:12Z</time>
      </trkpt>
      <trkpt lat="40.714554274454713" lon="13.925701892003417">
        <ele>153.47</ele>
        <time>2018-09-23T07:06:13Z</time>
      </trkpt>
      <trkpt lat="40.714499037712812" lon="13.925602650269866">
        <ele>153.47</ele>
        <time>2018-09-23T07:06:14Z</time>
      </trkpt>
      <trkpt lat="40.714441705495119" lon="13.925517909228802">
        <ele>159.72</ele>
        <time>2018-09-23T07:06:15Z</time>
      </trkpt>
      <trkpt lat="40.714372638612986" lon="13.925424199551344">
        <ele>159.72</ele>
        <time>2018-09-23T07:06:16Z</time>
      </trkpt>
      <trkpt lat="40.71395555511117" lon="13.924931427463889">
        <ele>163.08000000000001</ele>
        <time>2018-09-23T07:06:22Z</time>
      </trkpt>
      <trkpt lat="40.713861929252744" lon="13.924917597323656">
        <ele>164.03999999999999</ele>
        <time>2018-09-23T07:06:23Z</time>
      </trkpt>
      <trkpt lat="40.713397404178977" lon="13.924779128283262">
        <ele>167.88999999999999</ele>
        <time>2018-09-23T07:06:28Z</time>
      </trkpt>
      <trkpt lat="40.712997922673821" lon="13.924699081107974">
        <ele>171.25</ele>
        <time>2018-09-23T07:06:32Z</time>
      </trkpt>
      <trkpt lat="40.712477071210742" lon="13.924698829650879">
        <ele>174.62</ele>
        <time>2018-09-23T07:06:37Z</time>
      </trkpt>
      <trkpt lat="40.712268697097898" lon="13.924644850194454">
        <ele>176.53999999999999</ele>
        <time>2018-09-23T07:06:39Z</time>
      </trkpt>
      <trkpt lat="40.712170293554664" lon="13.924596402794123">
        <ele>177.02000000000001</ele>
        <time>2018-09-23T07:06:40Z</time>
      </trkpt>
      <trkpt lat="40.71207826025784" lon="13.924544015899301">
        <ele>178.46000000000001</ele>
        <time>2018-09-23T07:06:41Z</time>
      </trkpt>
      <trkpt lat="40.711995111778378" lon="13.924480061978102">
        <ele>178.94</ele>
        <time>2018-09-23T07:06:42Z</time>
      </trkpt>
      <trkpt lat="40.711914477869868" lon="13.924405882135034">
        <ele>180.38</ele>
        <time>2018-09-23T07:06:43Z</time>
      </trkpt>
      <trkpt lat="40.711609963327646" lon="13.924096086993814">
        <ele>184.22999999999999</ele>
        <time>2018-09-23T07:06:47Z</time>
      </trkpt>
      <trkpt lat="40.71153880096972" lon="13.924018973484635">
        <ele>184.22999999999999</ele>
        <time>2018-09-23T07:06:48Z</time>
      </trkpt>
      <trkpt lat="40.711127500981092" lon="13.923534583300352">
        <ele>187.59</ele>
        <time>2018-09-23T07:06:55Z</time>
      </trkpt>
      <trkpt lat="40.710681499913335" lon="13.923017252236605">
        <ele>190.96000000000001</ele>
        <time>2018-09-23T07:07:03Z</time>
      </trkpt>
      <trkpt lat="40.710172634571791" lon="13.922420963644981">
        <ele>192.40000000000001</ele>
        <time>2018-09-23T07:07:09Z</time>
      </trkpt>
      <trkpt lat="40.709772566333413" lon="13.921820987015963">
        <ele>195.77000000000001</ele>
        <time>2018-09-23T07:07:14Z</time>
      </trkpt>
      <trkpt lat="40.709501663222909" lon="13.921359563246369">
        <ele>199.13</ele>
        <time>2018-09-23T07:07:18Z</time>
      </trkpt>
      <trkpt lat="40.709444666281343" lon="13.921281443908811">
        <ele>199.61000000000001</ele>
        <time>2018-09-23T07:07:19Z</time>
      </trkpt>
      <trkpt lat="40.709196981042624" lon="13.92101070843637">
        <ele>202.97999999999999</ele>
        <time>2018-09-23T07:07:23Z</time>
      </trkpt>
      <trkpt lat="40.708920545876026" lon="13.920841813087463">
        <ele>204.90000000000001</ele>
        <time>2018-09-23T07:07:27Z</time>
      </trkpt>
      <trkpt lat="40.708851478993893" lon="13.920829324051738">
        <ele>205.38</ele>
        <time>2018-09-23T07:07:28Z</time>
      </trkpt>
      <trkpt lat="40.708785345777869" lon="13.920829743146896">
        <ele>206.34</ele>
        <time>2018-09-23T07:07:29Z</time>
      </trkpt>
      <trkpt lat="40.70874385535717" lon="13.920871568843722">
        <ele>206.34</ele>
        <time>2018-09-23T07:07:30Z</time>
      </trkpt>
      <trkpt lat="40.708693061023951" lon="13.920897385105491">
        <ele>206.34</ele>
        <time>2018-09-23T07:07:31Z</time>
      </trkpt>
      <trkpt lat="40.708638243377209" lon="13.920900402590632">
        <ele>206.34</ele>
        <time>2018-09-23T07:07:32Z</time>
      </trkpt>
      <trkpt lat="40.708584263920784" lon="13.920899899676442">
        <ele>206.34</ele>
        <time>2018-09-23T07:07:33Z</time>
      </trkpt>
      <trkpt lat="40.708522154018283" lon="13.920882549136877">
        <ele>206.81999999999999</ele>
        <time>2018-09-23T07:07:34Z</time>
      </trkpt>
      <trkpt lat="40.708458703011274" lon="13.920853463932872">
        <ele>207.30000000000001</ele>
        <time>2018-09-23T07:07:35Z</time>
      </trkpt>
      <trkpt lat="40.708409165963531" lon="13.920822450891137">
        <ele>207.78</ele>
        <time>2018-09-23T07:07:36Z</time>
      </trkpt>
      <trkpt lat="40.708353761583567" lon="13.920780038461089">
        <ele>207.78</ele>
        <time>2018-09-23T07:07:37Z</time>
      </trkpt>
      <trkpt lat="40.708294920623302" lon="13.920730836689472">
        <ele>208.74000000000001</ele>
        <time>2018-09-23T07:07:38Z</time>
      </trkpt>
      <trkpt lat="40.708235073834658" lon="13.920665374025702">
        <ele>209.22</ele>
        <time>2018-09-23T07:07:39Z</time>
      </trkpt>
      <trkpt lat="40.70811839774251" lon="13.920513913035393">
        <ele>210.19</ele>
        <time>2018-09-23T07:07:41Z</time>
      </trkpt>
      <trkpt lat="40.707915807142854" lon="13.920202944427729">
        <ele>211.15000000000001</ele>
        <time>2018-09-23T07:07:45Z</time>
      </trkpt>
      <trkpt lat="40.707881692796946" lon="13.920120801776648">
        <ele>211.15000000000001</ele>
        <time>2018-09-23T07:07:46Z</time>
      </trkpt>
      <trkpt lat="40.707864006981254" lon="13.920029606670141">
        <ele>211.15000000000001</ele>
        <time>2018-09-23T07:07:47Z</time>
      </trkpt>
      <trkpt lat="40.707861911505461" lon="13.919931622222066">
        <ele>210.66999999999999</ele>
        <time>2018-09-23T07:07:48Z</time>
      </trkpt>
      <trkpt lat="40.707871383056045" lon="13.919838164001703">
        <ele>210.66999999999999</ele>
        <time>2018-09-23T07:07:49Z</time>
      </trkpt>
      <trkpt lat="40.707890912890434" lon="13.919745879247785">
        <ele>210.66999999999999</ele>
        <time>2018-09-23T07:07:50Z</time>
      </trkpt>
      <trkpt lat="40.707925027236342" lon="13.919643703848124">
        <ele>210.66999999999999</ele>
        <time>2018-09-23T07:07:51Z</time>
      </trkpt>
      <trkpt lat="40.707961991429329" lon="13.919549491256475">
        <ele>211.15000000000001</ele>
        <time>2018-09-23T07:07:52Z</time>
      </trkpt>
      <trkpt lat="40.708010690286756" lon="13.919451422989368">
        <ele>211.15000000000001</ele>
        <time>2018-09-23T07:07:53Z</time>
      </trkpt>
      <trkpt lat="40.70807196199894" lon="13.919365340843797">
        <ele>211.15000000000001</ele>
        <time>2018-09-23T07:07:54Z</time>
      </trkpt>
      <trkpt lat="40.70814723148942" lon="13.919303985312581">
        <ele>211.15000000000001</ele>
        <time>2018-09-23T07:07:55Z</time>
      </trkpt>
      <trkpt lat="40.70822543464601" lon="13.919260231778026">
        <ele>211.63</ele>
        <time>2018-09-23T07:07:56Z</time>
      </trkpt>
      <trkpt lat="40.708637489005923" lon="13.919073650613427">
        <ele>214.03</ele>
        <time>2018-09-23T07:08:01Z</time>
      </trkpt>
      <trkpt lat="40.708777131512761" lon="13.919016234576702">
        <ele>214.50999999999999</ele>
        <time>2018-09-23T07:08:03Z</time>
      </trkpt>
      <trkpt lat="40.708837984129786" lon="13.919002404436469">
        <ele>214.50999999999999</ele>
        <time>2018-09-23T07:08:04Z</time>
      </trkpt>
      <trkpt lat="40.709203267470002" lon="13.918954459950328">
        <ele>217.40000000000001</ele>
        <time>2018-09-23T07:08:10Z</time>
      </trkpt>
      <trkpt lat="40.709337797015905" lon="13.918947922065854">
        <ele>217.88</ele>
        <time>2018-09-23T07:08:12Z</time>
      </trkpt>
      <trkpt lat="40.709437038749456" lon="13.918931744992733">
        <ele>219.31999999999999</ele>
        <time>2018-09-23T07:08:14Z</time>
      </trkpt>
      <trkpt lat="40.709455227479339" lon="13.918910622596741">
        <ele>219.31999999999999</ele>
        <time>2018-09-23T07:08:15Z</time>
      </trkpt>
      <trkpt lat="40.7094572391361" lon="13.91887784935534">
        <ele>219.31999999999999</ele>
        <time>2018-09-23T07:08:16Z</time>
      </trkpt>
      <trkpt lat="40.709448270499706" lon="13.918837616220117">
        <ele>219.80000000000001</ele>
        <time>2018-09-23T07:08:17Z</time>
      </trkpt>
      <trkpt lat="40.709437541663647" lon="13.918791431933641">
        <ele>219.31999999999999</ele>
        <time>2018-09-23T07:08:18Z</time>
      </trkpt>
      <trkpt lat="40.709340898320079" lon="13.918434949591756">
        <ele>222.68000000000001</ele>
        <time>2018-09-23T07:08:24Z</time>
      </trkpt>
      <trkpt lat="40.709284236654639" lon="13.918125992640853">
        <ele>225.09</ele>
        <time>2018-09-23T07:08:27Z</time>
      </trkpt>
      <trkpt lat="40.709235789254308" lon="13.91801543533802">
        <ele>225.56999999999999</ele>
        <time>2018-09-23T07:08:28Z</time>
      </trkpt>
      <trkpt lat="40.709050381556153" lon="13.917577732354403">
        <ele>227.97</ele>
        <time>2018-09-23T07:08:32Z</time>
      </trkpt>
      <trkpt lat="40.708983577787876" lon="13.917379584163427">
        <ele>228.93000000000001</ele>
        <time>2018-09-23T07:08:34Z</time>
      </trkpt>
      <trkpt lat="40.708950133994222" lon="13.917308673262596">
        <ele>228.93000000000001</ele>
        <time>2018-09-23T07:08:35Z</time>
      </trkpt>
      <trkpt lat="40.708909397944808" lon="13.917239019647241">
        <ele>229.88999999999999</ele>
        <time>2018-09-23T07:08:36Z</time>
      </trkpt>
      <trkpt lat="40.708865560591221" lon="13.917182525619864">
        <ele>229.88999999999999</ele>
        <time>2018-09-23T07:08:37Z</time>
      </trkpt>
      <trkpt lat="40.708816861733794" lon="13.917135670781136">
        <ele>230.37</ele>
        <time>2018-09-23T07:08:38Z</time>
      </trkpt>
      <trkpt lat="40.708766486495733" lon="13.917094431817532">
        <ele>230.84999999999999</ele>
        <time>2018-09-23T07:08:39Z</time>
      </trkpt>
      <trkpt lat="40.70839642547071" lon="13.916775081306696">
        <ele>234.22</ele>
        <time>2018-09-23T07:08:45Z</time>
      </trkpt>
      <trkpt lat="40.708067519590259" lon="13.916425388306379">
        <ele>236.13999999999999</ele>
        <time>2018-09-23T07:08:51Z</time>
      </trkpt>
      <trkpt lat="40.708030639216304" lon="13.916361182928085">
        <ele>237.09999999999999</ele>
        <time>2018-09-23T07:08:52Z</time>
      </trkpt>
      <trkpt lat="40.708003900945187" lon="13.916289182379842">
        <ele>237.09999999999999</ele>
        <time>2018-09-23T07:08:53Z</time>
      </trkpt>
      <trkpt lat="40.707984957844019" lon="13.916212990880013">
        <ele>237.58000000000001</ele>
        <time>2018-09-23T07:08:54Z</time>
      </trkpt>
      <trkpt lat="40.707970624789596" lon="13.916139816865325">
        <ele>237.58000000000001</ele>
        <time>2018-09-23T07:08:55Z</time>
      </trkpt>
      <trkpt lat="40.707960398867726" lon="13.916072342544794">
        <ele>238.06</ele>
        <time>2018-09-23T07:08:56Z</time>
      </trkpt>
      <trkpt lat="40.707953777164221" lon="13.916007969528437">
        <ele>237.58000000000001</ele>
        <time>2018-09-23T07:08:57Z</time>
      </trkpt>
      <trkpt lat="40.70795176550746" lon="13.915948122739792">
        <ele>238.06</ele>
        <time>2018-09-23T07:08:58Z</time>
      </trkpt>
      <trkpt lat="40.70795277133584" lon="13.915890622884035">
        <ele>238.53999999999999</ele>
        <time>2018-09-23T07:08:59Z</time>
      </trkpt>
      <trkpt lat="40.707939527928829" lon="13.915580157190561">
        <ele>239.02000000000001</ele>
        <time>2018-09-23T07:09:08Z</time>
      </trkpt>
      <trkpt lat="40.707929721102118" lon="13.915664562955499">
        <ele>239.02000000000001</ele>
        <time>2018-09-23T07:09:22Z</time>
      </trkpt>
      <trkpt lat="40.708024688065052" lon="13.915859861299396">
        <ele>239.02000000000001</ele>
        <time>2018-09-23T07:09:46Z</time>
      </trkpt>
      <trkpt lat="40.708028711378574" lon="13.915797583758831">
        <ele>239.99000000000001</ele>
        <time>2018-09-23T07:10:00Z</time>
      </trkpt>
      <trkpt lat="40.708095012232661" lon="13.915680907666683">
        <ele>239.99000000000001</ele>
        <time>2018-09-23T07:10:05Z</time>
      </trkpt>
      <trkpt lat="40.708234235644341" lon="13.915080176666379">
        <ele>239.99000000000001</ele>
        <time>2018-09-23T07:10:13Z</time>
      </trkpt>
      <trkpt lat="40.708247646689415" lon="13.915014294907451">
        <ele>239.99000000000001</ele>
        <time>2018-09-23T07:10:14Z</time>
      </trkpt>
      <trkpt lat="40.708248065784574" lon="13.914954112842679">
        <ele>239.99000000000001</ele>
        <time>2018-09-23T07:10:15Z</time>
      </trkpt>
      <trkpt lat="40.708243874832988" lon="13.914913292974234">
        <ele>239.99000000000001</ele>
        <time>2018-09-23T07:10:16Z</time>
      </trkpt>
      <trkpt lat="40.70822392590344" lon="13.914878675714135">
        <ele>246.72</ele>
        <time>2018-09-23T07:10:17Z</time>
      </trkpt>
      <trkpt lat="40.708192158490419" lon="13.914839699864388">
        <ele>246.72</ele>
        <time>2018-09-23T07:10:18Z</time>
      </trkpt>
      <trkpt lat="40.708156200125813" lon="13.914786307141185">
        <ele>247.19999999999999</ele>
        <time>2018-09-23T07:10:19Z</time>
      </trkpt>
      <trkpt lat="40.708129880949855" lon="13.914718916639686">
        <ele>247.19999999999999</ele>
        <time>2018-09-23T07:10:20Z</time>
      </trkpt>
      <trkpt lat="40.708118146285415" lon="13.914639288559556">
        <ele>247.19999999999999</ele>
        <time>2018-09-23T07:10:21Z</time>
      </trkpt>
      <trkpt lat="40.708127953112125" lon="13.914561001583934">
        <ele>248.63999999999999</ele>
        <time>2018-09-23T07:10:22Z</time>
      </trkpt>
      <trkpt lat="40.708156619220972" lon="13.914491180330515">
        <ele>248.63999999999999</ele>
        <time>2018-09-23T07:10:23Z</time>
      </trkpt>
      <trkpt lat="40.70819852873683" lon="13.91443083062768">
        <ele>248.63999999999999</ele>
        <time>2018-09-23T07:10:24Z</time>
      </trkpt>
      <trkpt lat="40.708258207887411" lon="13.914394285529852">
        <ele>248.63999999999999</ele>
        <time>2018-09-23T07:10:25Z</time>
      </trkpt>
      <trkpt lat="40.708312941715121" lon="13.914396716281772">
        <ele>248.63999999999999</ele>
        <time>2018-09-23T07:10:26Z</time>
      </trkpt>
      <trkpt lat="40.708375722169876" lon="13.91440786421299">
        <ele>248.63999999999999</ele>
        <time>2018-09-23T07:10:27Z</time>
      </trkpt>
      <trkpt lat="40.708438251167536" lon="13.914424711838365">
        <ele>248.63999999999999</ele>
        <time>2018-09-23T07:10:28Z</time>
      </trkpt>
      <trkpt lat="40.708692306652665" lon="13.914499478414655">
        <ele>255.84999999999999</ele>
        <time>2018-09-23T07:10:32Z</time>
      </trkpt>
      <trkpt lat="40.708754835650325" lon="13.914512805640697">
        <ele>255.84999999999999</ele>
        <time>2018-09-23T07:10:33Z</time>
      </trkpt>
      <trkpt lat="40.709378030151129" lon="13.914474416524172">
        <ele>259.20999999999998</ele>
        <time>2018-09-23T07:10:43Z</time>
      </trkpt>
      <trkpt lat="40.709587326273322" lon="13.914437955245376">
        <ele>258.25</ele>
        <time>2018-09-23T07:10:47Z</time>
      </trkpt>
      <trkpt lat="40.710085965692997" lon="13.914227234199643">
        <ele>255.84999999999999</ele>
        <time>2018-09-23T07:11:00Z</time>
      </trkpt>
      <trkpt lat="40.71024002507329" lon="13.914189515635371">
        <ele>253.93000000000001</ele>
        <time>2018-09-23T07:11:03Z</time>
      </trkpt>
      <trkpt lat="40.7105762232095" lon="13.91417233273387">
        <ele>251.52000000000001</ele>
        <time>2018-09-23T07:11:09Z</time>
      </trkpt>
      <trkpt lat="40.710864141583443" lon="13.914271742105484">
        <ele>249.12</ele>
        <time>2018-09-23T07:11:13Z</time>
      </trkpt>
      <trkpt lat="40.711236633360386" lon="13.914128746837378">
        <ele>247.68000000000001</ele>
        <time>2018-09-23T07:11:19Z</time>
      </trkpt>
      <trkpt lat="40.71127594448626" lon="13.914089519530535">
        <ele>248.16</ele>
        <time>2018-09-23T07:11:20Z</time>
      </trkpt>
      <trkpt lat="40.711400499567389" lon="13.9139773696661">
        <ele>248.16</ele>
        <time>2018-09-23T07:11:22Z</time>
      </trkpt>
      <trkpt lat="40.71166729554534" lon="13.913772515952587">
        <ele>248.63999999999999</ele>
        <time>2018-09-23T07:11:26Z</time>
      </trkpt>
      <trkpt lat="40.711726807057858" lon="13.913624575361609">
        <ele>248.16</ele>
        <time>2018-09-23T07:11:28Z</time>
      </trkpt>
      <trkpt lat="40.711748516187072" lon="13.913427013903856">
        <ele>248.63999999999999</ele>
        <time>2018-09-23T07:11:30Z</time>
      </trkpt>
      <trkpt lat="40.711557911708951" lon="13.914285572245717">
        <ele>248.63999999999999</ele>
        <time>2018-09-23T07:11:32Z</time>
      </trkpt>
      <trkpt lat="40.71156126447022" lon="13.914290349930525">
        <ele>248.63999999999999</ele>
        <time>2018-09-23T07:11:33Z</time>
      </trkpt>
      <trkpt lat="40.711518181487918" lon="13.914289092645049">
        <ele>249.12</ele>
        <time>2018-09-23T07:11:43Z</time>
      </trkpt>
      <trkpt lat="40.711177792400122" lon="13.914188258349895">
        <ele>248.63999999999999</ele>
        <time>2018-09-23T07:11:51Z</time>
      </trkpt>
      <trkpt lat="40.71140494197607" lon="13.914197478443384">
        <ele>246.22999999999999</ele>
        <time>2018-09-23T07:11:59Z</time>
      </trkpt>
      <trkpt lat="40.711947418749332" lon="13.913917019963264">
        <ele>244.31</ele>
        <time>2018-09-23T07:12:08Z</time>
      </trkpt>
      <trkpt lat="40.712075075134635" lon="13.913525585085154">
        <ele>247.68000000000001</ele>
        <time>2018-09-23T07:12:16Z</time>
      </trkpt>
      <trkpt lat="40.712252520024776" lon="13.91335635446012">
        <ele>251.52000000000001</ele>
        <time>2018-09-23T07:12:20Z</time>
      </trkpt>
      <trkpt lat="40.712520489469171" lon="13.913209922611713">
        <ele>254.88999999999999</ele>
        <time>2018-09-23T07:12:25Z</time>
      </trkpt>
      <trkpt lat="40.712888203561306" lon="13.913082601502538">
        <ele>257.76999999999998</ele>
        <time>2018-09-23T07:12:31Z</time>
      </trkpt>
      <trkpt lat="40.713278213515878" lon="13.912954106926918">
        <ele>261.13999999999999</ele>
        <time>2018-09-23T07:12:38Z</time>
      </trkpt>
      <trkpt lat="40.713509302586317" lon="13.912797868251801">
        <ele>264.01999999999998</ele>
        <time>2018-09-23T07:12:43Z</time>
      </trkpt>
      <trkpt lat="40.713524138554931" lon="13.912737015634775">
        <ele>264.98000000000002</ele>
        <time>2018-09-23T07:12:44Z</time>
      </trkpt>
      <trkpt lat="40.713537968695164" lon="13.912672894075513">
        <ele>265.45999999999998</ele>
        <time>2018-09-23T07:12:45Z</time>
      </trkpt>
      <trkpt lat="40.713634695857763" lon="13.912435602396727">
        <ele>268.35000000000002</ele>
        <time>2018-09-23T07:12:49Z</time>
      </trkpt>
      <trkpt lat="40.713755898177624" lon="13.912156065925956">
        <ele>269.79000000000002</ele>
        <time>2018-09-23T07:12:53Z</time>
      </trkpt>
      <trkpt lat="40.713906018063426" lon="13.911739820614457">
        <ele>273.14999999999998</ele>
        <time>2018-09-23T07:12:59Z</time>
      </trkpt>
      <trkpt lat="40.714022777974606" lon="13.911434300243855">
        <ele>276.04000000000002</ele>
        <time>2018-09-23T07:13:05Z</time>
      </trkpt>
      <trkpt lat="40.714190667495131" lon="13.91130555421114">
        <ele>279.88</ele>
        <time>2018-09-23T07:13:10Z</time>
      </trkpt>
      <trkpt lat="40.714311450719833" lon="13.911218382418156">
        <ele>281.80000000000001</ele>
        <time>2018-09-23T07:13:13Z</time>
      </trkpt>
      <trkpt lat="40.714430222287774" lon="13.911133892834187">
        <ele>284.69</ele>
        <time>2018-09-23T07:13:16Z</time>
      </trkpt>
      <trkpt lat="40.714661981910467" lon="13.910946222022176">
        <ele>288.05000000000001</ele>
        <time>2018-09-23T07:13:20Z</time>
      </trkpt>
      <trkpt lat="40.714895082637668" lon="13.91075000166893">
        <ele>290.94</ele>
        <time>2018-09-23T07:13:25Z</time>
      </trkpt>
      <trkpt lat="40.715250056236982" lon="13.910685377195477">
        <ele>291.42000000000002</ele>
        <time>2018-09-23T07:13:32Z</time>
      </trkpt>
      <trkpt lat="40.715543758124113" lon="13.91069526784122">
        <ele>293.33999999999997</ele>
        <time>2018-09-23T07:13:38Z</time>
      </trkpt>
      <trkpt lat="40.715612238273025" lon="13.910704404115677">
        <ele>293.33999999999997</ele>
        <time>2018-09-23T07:13:39Z</time>
      </trkpt>
      <trkpt lat="40.715653812512755" lon="13.910682527348399">
        <ele>293.81999999999999</ele>
        <time>2018-09-23T07:13:40Z</time>
      </trkpt>
      <trkpt lat="40.715691111981869" lon="13.910651933401823">
        <ele>293.81999999999999</ele>
        <time>2018-09-23T07:13:41Z</time>
      </trkpt>
      <trkpt lat="40.715726399794221" lon="13.910621339455247">
        <ele>294.30000000000001</ele>
        <time>2018-09-23T07:13:42Z</time>
      </trkpt>
      <trkpt lat="40.715926978737116" lon="13.910555876791477">
        <ele>296.69999999999999</ele>
        <time>2018-09-23T07:13:49Z</time>
      </trkpt>
      <trkpt lat="40.715945586562157" lon="13.910585045814514">
        <ele>297.18000000000001</ele>
        <time>2018-09-23T07:13:50Z</time>
      </trkpt>
      <trkpt lat="40.715960003435612" lon="13.910624273121357">
        <ele>297.67000000000002</ele>
        <time>2018-09-23T07:13:51Z</time>
      </trkpt>
      <trkpt lat="40.715973163023591" lon="13.910671714693308">
        <ele>298.63</ele>
        <time>2018-09-23T07:13:52Z</time>
      </trkpt>
      <trkpt lat="40.716000068932772" lon="13.910776991397142">
        <ele>299.11000000000001</ele>
        <time>2018-09-23T07:13:53Z</time>
      </trkpt>
      <trkpt lat="40.716006690636277" lon="13.910835580900311">
        <ele>299.11000000000001</ele>
        <time>2018-09-23T07:13:54Z</time>
      </trkpt>
      <trkpt lat="40.716016329824924" lon="13.910927614197135">
        <ele>300.06999999999999</ele>
        <time>2018-09-23T07:13:55Z</time>
      </trkpt>
      <trkpt lat="40.716018341481686" lon="13.911421643570065">
        <ele>303.43000000000001</ele>
        <time>2018-09-23T07:14:00Z</time>
      </trkpt>
      <trkpt lat="40.716011300683022" lon="13.911556508392096">
        <ele>303.91000000000003</ele>
        <time>2018-09-23T07:14:01Z</time>
      </trkpt>
      <trkpt lat="40.7160366140306" lon="13.912116168066859">
        <ele>305.83999999999997</ele>
        <time>2018-09-23T07:14:05Z</time>
      </trkpt>
      <trkpt lat="40.71605714969337" lon="13.912201495841146">
        <ele>306.31999999999999</ele>
        <time>2018-09-23T07:14:06Z</time>
      </trkpt>
      <trkpt lat="40.716099059209228" lon="13.912306521087885">
        <ele>306.31999999999999</ele>
        <time>2018-09-23T07:14:07Z</time>
      </trkpt>
      <trkpt lat="40.716142142191529" lon="13.912383131682873">
        <ele>306.80000000000001</ele>
        <time>2018-09-23T07:14:08Z</time>
      </trkpt>
      <trkpt lat="40.716173574328423" lon="13.912424705922604">
        <ele>306.80000000000001</ele>
        <time>2018-09-23T07:14:09Z</time>
      </trkpt>
      <trkpt lat="40.716217998415232" lon="13.912442559376359">
        <ele>307.27999999999997</ele>
        <time>2018-09-23T07:14:10Z</time>
      </trkpt>
      <trkpt lat="40.716264769434929" lon="13.912434261292219">
        <ele>307.75999999999999</ele>
        <time>2018-09-23T07:14:11Z</time>
      </trkpt>
      <trkpt lat="40.716309947893023" lon="13.912408025935292">
        <ele>308.24000000000001</ele>
        <time>2018-09-23T07:14:12Z</time>
      </trkpt>
      <trkpt lat="40.716359317302704" lon="13.912370055913925">
        <ele>308.72000000000003</ele>
        <time>2018-09-23T07:14:13Z</time>
      </trkpt>
      <trkpt lat="40.716411955654621" lon="13.91231800429523">
        <ele>309.19999999999999</ele>
        <time>2018-09-23T07:14:14Z</time>
      </trkpt>
      <trkpt lat="40.716469455510378" lon="13.912256816402078">
        <ele>309.68000000000001</ele>
        <time>2018-09-23T07:14:15Z</time>
      </trkpt>
      <trkpt lat="40.7166513428092" lon="13.912056740373373">
        <ele>311.12</ele>
        <time>2018-09-23T07:14:18Z</time>
      </trkpt>
      <trkpt lat="40.716847227886319" lon="13.911837050691247">
        <ele>312.56999999999999</ele>
        <time>2018-09-23T07:14:21Z</time>
      </trkpt>
      <trkpt lat="40.717168170958757" lon="13.911472521722317">
        <ele>315.93000000000001</ele>
        <time>2018-09-23T07:14:26Z</time>
      </trkpt>
      <trkpt lat="40.717467069625854" lon="13.911084607243538">
        <ele>319.30000000000001</ele>
        <time>2018-09-23T07:14:31Z</time>
      </trkpt>
      <trkpt lat="40.717776445671916" lon="13.910671547055244">
        <ele>323.13999999999999</ele>
        <time>2018-09-23T07:14:36Z</time>
      </trkpt>
      <trkpt lat="40.718159498646855" lon="13.910151869058609">
        <ele>326.01999999999998</ele>
        <time>2018-09-23T07:14:42Z</time>
      </trkpt>
      <trkpt lat="40.718288160860538" lon="13.910009041428566">
        <ele>327.47000000000003</ele>
        <time>2018-09-23T07:14:44Z</time>
      </trkpt>
      <trkpt lat="40.718541210517287" lon="13.909777197986841">
        <ele>329.38999999999999</ele>
        <time>2018-09-23T07:14:48Z</time>
      </trkpt>
      <trkpt lat="40.718615390360355" lon="13.90949715860188">
        <ele>331.31</ele>
        <time>2018-09-23T07:14:55Z</time>
      </trkpt>
      <trkpt lat="40.718664927408099" lon="13.909438317641616">
        <ele>331.79000000000002</ele>
        <time>2018-09-23T07:14:56Z</time>
      </trkpt>
      <trkpt lat="40.71871236898005" lon="13.909376040101051">
        <ele>332.26999999999998</ele>
        <time>2018-09-23T07:14:57Z</time>
      </trkpt>
      <trkpt lat="40.718848323449492" lon="13.909182334318757">
        <ele>333.23000000000002</ele>
        <time>2018-09-23T07:15:00Z</time>
      </trkpt>
      <trkpt lat="40.718956114724278" lon="13.90913070179522">
        <ele>333.70999999999998</ele>
        <time>2018-09-23T07:15:02Z</time>
      </trkpt>
      <trkpt lat="40.719006573781371" lon="13.909161798655987">
        <ele>334.68000000000001</ele>
        <time>2018-09-23T07:15:03Z</time>
      </trkpt>
      <trkpt lat="40.719041107222438" lon="13.909217622131109">
        <ele>334.68000000000001</ele>
        <time>2018-09-23T07:15:04Z</time>
      </trkpt>
      <trkpt lat="40.71907052770257" lon="13.909278558567166">
        <ele>335.63999999999999</ele>
        <time>2018-09-23T07:15:05Z</time>
      </trkpt>
      <trkpt lat="40.719082430005074" lon="13.909348463639617">
        <ele>336.12</ele>
        <time>2018-09-23T07:15:06Z</time>
      </trkpt>
      <trkpt lat="40.719103300943971" lon="13.909431947395205">
        <ele>336.60000000000002</ele>
        <time>2018-09-23T07:15:07Z</time>
      </trkpt>
      <trkpt lat="40.718288077041507" lon="13.909741826355457">
        <ele>338.04000000000002</ele>
        <time>2018-09-23T07:15:17Z</time>
      </trkpt>
      <trkpt lat="40.718263098970056" lon="13.909785160794854">
        <ele>338.04000000000002</ele>
        <time>2018-09-23T07:15:18Z</time>
      </trkpt>
      <trkpt lat="40.718243820592761" lon="13.909830171614885">
        <ele>338.51999999999998</ele>
        <time>2018-09-23T07:15:19Z</time>
      </trkpt>
      <trkpt lat="40.718254214152694" lon="13.909831345081329">
        <ele>339</ele>
        <time>2018-09-23T07:15:20Z</time>
      </trkpt>
      <trkpt lat="40.718266535550356" lon="13.909823382273316">
        <ele>339</ele>
        <time>2018-09-23T07:15:21Z</time>
      </trkpt>
      <trkpt lat="40.718279527500272" lon="13.909805864095688">
        <ele>339.48000000000002</ele>
        <time>2018-09-23T07:15:22Z</time>
      </trkpt>
      <trkpt lat="40.718301320448518" lon="13.909789770841599">
        <ele>339.95999999999998</ele>
        <time>2018-09-23T07:15:23Z</time>
      </trkpt>
      <trkpt lat="40.718569289892912" lon="13.909654738381505">
        <ele>343.32999999999998</ele>
        <time>2018-09-23T07:15:29Z</time>
      </trkpt>
      <trkpt lat="40.718800043687224" lon="13.909469498321414">
        <ele>345.73000000000002</ele>
        <time>2018-09-23T07:15:33Z</time>
      </trkpt>
      <trkpt lat="40.718859555199742" lon="13.90941065736115">
        <ele>346.20999999999998</ele>
        <time>2018-09-23T07:15:34Z</time>
      </trkpt>
      <trkpt lat="40.719176223501563" lon="13.909093150869012">
        <ele>347.17000000000002</ele>
        <time>2018-09-23T07:15:40Z</time>
      </trkpt>
      <trkpt lat="40.71921905502677" lon="13.909073118120432">
        <ele>347.64999999999998</ele>
        <time>2018-09-23T07:15:41Z</time>
      </trkpt>
      <trkpt lat="40.71925668977201" lon="13.909063227474689">
        <ele>347.64999999999998</ele>
        <time>2018-09-23T07:15:42Z</time>
      </trkpt>
      <trkpt lat="40.719279572367668" lon="13.909059874713421">
        <ele>348.13</ele>
        <time>2018-09-23T07:15:43Z</time>
      </trkpt>
      <trkpt lat="40.719293486326933" lon="13.909079823642969">
        <ele>349.10000000000002</ele>
        <time>2018-09-23T07:15:44Z</time>
      </trkpt>
      <trkpt lat="40.719300610944629" lon="13.909106310456991">
        <ele>349.10000000000002</ele>
        <time>2018-09-23T07:15:45Z</time>
      </trkpt>
      <trkpt lat="40.719309244304895" lon="13.909135982394218">
        <ele>349.57999999999998</ele>
        <time>2018-09-23T07:15:46Z</time>
      </trkpt>
      <trkpt lat="40.719316368922591" lon="13.909191302955151">
        <ele>350.06</ele>
        <time>2018-09-23T07:15:47Z</time>
      </trkpt>
      <trkpt lat="40.719323577359319" lon="13.909239415079355">
        <ele>351.01999999999998</ele>
        <time>2018-09-23T07:15:48Z</time>
      </trkpt>
      <trkpt lat="40.71932265534997" lon="13.90934175811708">
        <ele>351.5</ele>
        <time>2018-09-23T07:15:49Z</time>
      </trkpt>
      <trkpt lat="40.719332629814744" lon="13.909407220780849">
        <ele>351.98000000000002</ele>
        <time>2018-09-23T07:15:50Z</time>
      </trkpt>
      <trkpt lat="40.719429776072502" lon="13.909837631508708">
        <ele>354.86000000000001</ele>
        <time>2018-09-23T07:15:56Z</time>
      </trkpt>
      <trkpt lat="40.719239255413413" lon="13.910078695043921">
        <ele>356.79000000000002</ele>
        <time>2018-09-23T07:15:59Z</time>
      </trkpt>
      <trkpt lat="40.719302371144295" lon="13.910416988655925">
        <ele>358.70999999999998</ele>
        <time>2018-09-23T07:16:04Z</time>
      </trkpt>
      <trkpt lat="40.719378981739283" lon="13.910485552623868">
        <ele>360.14999999999998</ele>
        <time>2018-09-23T07:16:06Z</time>
      </trkpt>
      <trkpt lat="40.719484090805054" lon="13.91048613935709">
        <ele>361.11000000000001</ele>
        <time>2018-09-23T07:16:08Z</time>
      </trkpt>
      <trkpt lat="40.719747617840767" lon="13.910421347245574">
        <ele>364.48000000000002</ele>
        <time>2018-09-23T07:16:13Z</time>
      </trkpt>
      <trkpt lat="40.719852140173316" lon="13.910371223464608">
        <ele>364.48000000000002</ele>
        <time>2018-09-23T07:16:15Z</time>
      </trkpt>
      <trkpt lat="40.719862701371312" lon="13.91030341386795">
        <ele>364.95999999999998</ele>
        <time>2018-09-23T07:16:16Z</time>
      </trkpt>
      <trkpt lat="40.719876196235418" lon="13.910235185176134">
        <ele>365.44</ele>
        <time>2018-09-23T07:16:17Z</time>
      </trkpt>
      <trkpt lat="40.719875358045101" lon="13.910103421658278">
        <ele>365.44</ele>
        <time>2018-09-23T07:16:19Z</time>
      </trkpt>
      <trkpt lat="40.719861695542932" lon="13.909963024780154">
        <ele>365.92000000000002</ele>
        <time>2018-09-23T07:16:21Z</time>
      </trkpt>
      <trkpt lat="40.722407111898065" lon="13.90768775716424">
        <ele>397.16000000000003</ele>
        <time>2018-09-23T07:17:20Z</time>
      </trkpt>
      <trkpt lat="40.722477603703737" lon="13.907653223723173">
        <ele>397.63999999999999</ele>
        <time>2018-09-23T07:17:21Z</time>
      </trkpt>
      <trkpt lat="40.722871720790863" lon="13.907399168238044">
        <ele>401.00999999999999</ele>
        <time>2018-09-23T07:17:25Z</time>
      </trkpt>
      <trkpt lat="40.723236752673984" lon="13.907207557931542">
        <ele>403.88999999999999</ele>
        <time>2018-09-23T07:17:29Z</time>
      </trkpt>
      <trkpt lat="40.723524084314704" lon="13.906781421974301">
        <ele>407.25999999999999</ele>
        <time>2018-09-23T07:17:33Z</time>
      </trkpt>
      <trkpt lat="40.723644699901342" lon="13.906671786680818">
        <ele>407.74000000000001</ele>
        <time>2018-09-23T07:17:35Z</time>
      </trkpt>
      <trkpt lat="40.724101094529033" lon="13.906469363719225">
        <ele>410.13999999999999</ele>
        <time>2018-09-23T07:17:43Z</time>
      </trkpt>
      <trkpt lat="40.724186841398478" lon="13.906413204967976">
        <ele>411.10000000000002</ele>
        <time>2018-09-23T07:17:45Z</time>
      </trkpt>
      <trkpt lat="40.724295722320676" lon="13.90636945143342">
        <ele>413.01999999999998</ele>
        <time>2018-09-23T07:17:49Z</time>
      </trkpt>
      <trkpt lat="40.72427686303854" lon="13.906329218298197">
        <ele>413.5</ele>
        <time>2018-09-23T07:17:50Z</time>
      </trkpt>
      <trkpt lat="40.72425146587193" lon="13.906297199428082">
        <ele>413.98000000000002</ele>
        <time>2018-09-23T07:17:51Z</time>
      </trkpt>
      <trkpt lat="40.723938653245568" lon="13.906181445345283">
        <ele>416.87</ele>
        <time>2018-09-23T07:17:56Z</time>
      </trkpt>
      <trkpt lat="40.723463818430901" lon="13.905791267752647">
        <ele>418.79000000000002</ele>
        <time>2018-09-23T07:18:02Z</time>
      </trkpt>
      <trkpt lat="40.722206197679043" lon="13.904804131016135">
        <ele>422.16000000000003</ele>
        <time>2018-09-23T07:18:15Z</time>
      </trkpt>
      <trkpt lat="40.72189087048173" lon="13.904368858784437">
        <ele>423.12</ele>
        <time>2018-09-23T07:18:18Z</time>
      </trkpt>
      <trkpt lat="40.721782660111785" lon="13.904171297326684">
        <ele>424.07999999999998</ele>
        <time>2018-09-23T07:18:19Z</time>
      </trkpt>
      <trkpt lat="40.721480408683419" lon="13.903435030952096">
        <ele>426.95999999999998</ele>
        <time>2018-09-23T07:18:25Z</time>
      </trkpt>
      <trkpt lat="40.721109425649047" lon="13.902341863140464">
        <ele>429.85000000000002</ele>
        <time>2018-09-23T07:18:32Z</time>
      </trkpt>
      <trkpt lat="40.721128704026341" lon="13.902159808203578">
        <ele>429.85000000000002</ele>
        <time>2018-09-23T07:18:34Z</time>
      </trkpt>
      <trkpt lat="40.721173295751214" lon="13.902005581185222">
        <ele>430.32999999999998</ele>
        <time>2018-09-23T07:18:36Z</time>
      </trkpt>
      <trkpt lat="40.721214031800628" lon="13.901936681941152">
        <ele>430.32999999999998</ele>
        <time>2018-09-23T07:18:37Z</time>
      </trkpt>
      <trkpt lat="40.721090817824006" lon="13.901708358898759">
        <ele>430.81</ele>
        <time>2018-09-23T07:18:38Z</time>
      </trkpt>
      <trkpt lat="40.721068438142538" lon="13.901628982275724">
        <ele>431.29000000000002</ele>
        <time>2018-09-23T07:18:39Z</time>
      </trkpt>
      <trkpt lat="40.721042957156897" lon="13.901551282033324">
        <ele>431.76999999999998</ele>
        <time>2018-09-23T07:18:40Z</time>
      </trkpt>
      <trkpt lat="40.721011105924845" lon="13.901479281485081">
        <ele>431.76999999999998</ele>
        <time>2018-09-23T07:18:41Z</time>
      </trkpt>
      <trkpt lat="40.720973806455731" lon="13.901413148269057">
        <ele>431.76999999999998</ele>
        <time>2018-09-23T07:18:42Z</time>
      </trkpt>
      <trkpt lat="40.720930304378271" lon="13.901352882385254">
        <ele>432.25</ele>
        <time>2018-09-23T07:18:43Z</time>
      </trkpt>
      <trkpt lat="40.72088286280632" lon="13.901295885443687">
        <ele>432.25</ele>
        <time>2018-09-23T07:18:44Z</time>
      </trkpt>
      <trkpt lat="40.720443734899163" lon="13.90077268704772">
        <ele>435.13</ele>
        <time>2018-09-23T07:18:51Z</time>
      </trkpt>
      <trkpt lat="40.719919027760625" lon="13.900120323523879">
        <ele>438.01999999999998</ele>
        <time>2018-09-23T07:19:00Z</time>
      </trkpt>
      <trkpt lat="40.719620129093528" lon="13.899630317464471">
        <ele>441.86000000000001</ele>
        <time>2018-09-23T07:19:06Z</time>
      </trkpt>
      <trkpt lat="40.719408486038446" lon="13.898477973416448">
        <ele>444.75</ele>
        <time>2018-09-23T07:19:16Z</time>
      </trkpt>
      <trkpt lat="40.719420220702887" lon="13.897843798622489">
        <ele>442.81999999999999</ele>
        <time>2018-09-23T07:19:24Z</time>
      </trkpt>
      <trkpt lat="40.719678718596697" lon="13.897359827533364">
        <ele>442.33999999999997</ele>
        <time>2018-09-23T07:19:31Z</time>
      </trkpt>
      <trkpt lat="40.719683831557631" lon="13.897265447303653">
        <ele>442.81999999999999</ele>
        <time>2018-09-23T07:19:32Z</time>
      </trkpt>
      <trkpt lat="40.719682490453124" lon="13.897181376814842">
        <ele>442.81999999999999</ele>
        <time>2018-09-23T07:19:33Z</time>
      </trkpt>
      <trkpt lat="40.719687854871154" lon="13.897166037932038">
        <ele>442.81999999999999</ele>
        <time>2018-09-23T07:19:34Z</time>
      </trkpt>
      <trkpt lat="40.719673857092857" lon="13.897144580259919">
        <ele>443.31</ele>
        <time>2018-09-23T07:19:35Z</time>
      </trkpt>
      <trkpt lat="40.719655836001039" lon="13.897135443985462">
        <ele>443.79000000000002</ele>
        <time>2018-09-23T07:19:36Z</time>
      </trkpt>
      <trkpt lat="40.719630857929587" lon="13.897107616066933">
        <ele>444.75</ele>
        <time>2018-09-23T07:19:37Z</time>
      </trkpt>
      <trkpt lat="40.719579895958304" lon="13.897029915824533">
        <ele>445.23000000000002</ele>
        <time>2018-09-23T07:19:38Z</time>
      </trkpt>
      <trkpt lat="40.719651896506548" lon="13.896698663011193">
        <ele>445.70999999999998</ele>
        <time>2018-09-23T07:19:43Z</time>
      </trkpt>
      <trkpt lat="40.719287535175681" lon="13.896706625819206">
        <ele>445.70999999999998</ele>
        <time>2018-09-23T07:19:45Z</time>
      </trkpt>
      <trkpt lat="40.718937758356333" lon="13.896519290283322">
        <ele>442.33999999999997</ele>
        <time>2018-09-23T07:19:52Z</time>
      </trkpt>
      <trkpt lat="40.718863075599074" lon="13.89645759947598">
        <ele>441.38</ele>
        <time>2018-09-23T07:19:54Z</time>
      </trkpt>
      <trkpt lat="40.719295917078853" lon="13.896172447130084">
        <ele>440.42000000000002</ele>
        <time>2018-09-23T07:19:56Z</time>
      </trkpt>
      <trkpt lat="40.718627208843827" lon="13.896384509280324">
        <ele>438.98000000000002</ele>
        <time>2018-09-23T07:19:58Z</time>
      </trkpt>
      <trkpt lat="40.718255303800106" lon="13.8963857665658">
        <ele>436.57999999999998</ele>
        <time>2018-09-23T07:20:06Z</time>
      </trkpt>
      <trkpt lat="40.718003259971738" lon="13.895995337516069">
        <ele>433.69</ele>
        <time>2018-09-23T07:20:14Z</time>
      </trkpt>
      <trkpt lat="40.717857498675585" lon="13.89562988653779">
        <ele>431.29000000000002</ele>
        <time>2018-09-23T07:20:19Z</time>
      </trkpt>
      <trkpt lat="40.717829670757055" lon="13.895597197115421">
        <ele>431.29000000000002</ele>
        <time>2018-09-23T07:20:20Z</time>
      </trkpt>
      <trkpt lat="40.717800334095955" lon="13.895577164366841">
        <ele>430.32999999999998</ele>
        <time>2018-09-23T07:20:21Z</time>
      </trkpt>
      <trkpt lat="40.717765549197793" lon="13.895562831312418">
        <ele>430.32999999999998</ele>
        <time>2018-09-23T07:20:22Z</time>
      </trkpt>
      <trkpt lat="40.717725148424506" lon="13.895551012828946">
        <ele>429.37</ele>
        <time>2018-09-23T07:20:23Z</time>
      </trkpt>
      <trkpt lat="40.717677203938365" lon="13.89553751796484">
        <ele>428.88999999999999</ele>
        <time>2018-09-23T07:20:24Z</time>
      </trkpt>
      <trkpt lat="40.717513840645552" lon="13.895489405840635">
        <ele>427.44</ele>
        <time>2018-09-23T07:20:27Z</time>
      </trkpt>
      <trkpt lat="40.717454245314002" lon="13.895482281222939">
        <ele>426.95999999999998</ele>
        <time>2018-09-23T07:20:28Z</time>
      </trkpt>
      <trkpt lat="40.717137577012181" lon="13.895499547943473">
        <ele>423.60000000000002</ele>
        <time>2018-09-23T07:20:33Z</time>
      </trkpt>
      <trkpt lat="40.716699119657278" lon="13.895612368360162">
        <ele>420.23000000000002</ele>
        <time>2018-09-23T07:20:39Z</time>
      </trkpt>
      <trkpt lat="40.716271139681339" lon="13.895841110497713">
        <ele>416.87</ele>
        <time>2018-09-23T07:20:45Z</time>
      </trkpt>
      <trkpt lat="40.716225123032928" lon="13.89593280851841">
        <ele>415.91000000000003</ele>
        <time>2018-09-23T07:20:46Z</time>
      </trkpt>
      <trkpt lat="40.715800076723099" lon="13.896239083260298">
        <ele>414.94999999999999</ele>
        <time>2018-09-23T07:20:52Z</time>
      </trkpt>
      <trkpt lat="40.715713324025273" lon="13.896245118230581">
        <ele>413.5</ele>
        <time>2018-09-23T07:20:53Z</time>
      </trkpt>
      <trkpt lat="40.715646939352155" lon="13.896225420758128">
        <ele>413.01999999999998</ele>
        <time>2018-09-23T07:20:54Z</time>
      </trkpt>
      <trkpt lat="40.71558466181159" lon="13.896181248128414">
        <ele>412.06</ele>
        <time>2018-09-23T07:20:55Z</time>
      </trkpt>
      <trkpt lat="40.71552749723196" lon="13.896126430481672">
        <ele>411.57999999999998</ele>
        <time>2018-09-23T07:20:56Z</time>
      </trkpt>
      <trkpt lat="40.715475780889392" lon="13.896052250638604">
        <ele>410.62</ele>
        <time>2018-09-23T07:20:57Z</time>
      </trkpt>
      <trkpt lat="40.715428339317441" lon="13.89596851542592">
        <ele>410.62</ele>
        <time>2018-09-23T07:20:58Z</time>
      </trkpt>
      <trkpt lat="40.715204961597919" lon="13.89548915438354">
        <ele>407.25999999999999</ele>
        <time>2018-09-23T07:21:03Z</time>
      </trkpt>
      <trkpt lat="40.714999604970217" lon="13.894972745329142">
        <ele>403.88999999999999</ele>
        <time>2018-09-23T07:21:08Z</time>
      </trkpt>
      <trkpt lat="40.71490497328341" lon="13.894667979329824">
        <ele>402.44999999999999</ele>
        <time>2018-09-23T07:21:11Z</time>
      </trkpt>
      <trkpt lat="40.714983427897096" lon="13.894036822021008">
        <ele>401.00999999999999</ele>
        <time>2018-09-23T07:21:17Z</time>
      </trkpt>
      <trkpt lat="40.714795421808958" lon="13.893590485677123">
        <ele>399.07999999999998</ele>
        <time>2018-09-23T07:21:23Z</time>
      </trkpt>
      <trkpt lat="40.714690312743187" lon="13.893470959737897">
        <ele>398.12</ele>
        <time>2018-09-23T07:21:25Z</time>
      </trkpt>
      <trkpt lat="40.71458050981164" lon="13.893381105735898">
        <ele>397.16000000000003</ele>
        <time>2018-09-23T07:21:27Z</time>
      </trkpt>
      <trkpt lat="40.714519573375583" lon="13.893350679427385">
        <ele>396.68000000000001</ele>
        <time>2018-09-23T07:21:28Z</time>
      </trkpt>
      <trkpt lat="40.71429175324738" lon="13.893212713301182">
        <ele>395.24000000000001</ele>
        <time>2018-09-23T07:21:32Z</time>
      </trkpt>
      <trkpt lat="40.714174322783947" lon="13.893144652247429">
        <ele>394.75999999999999</ele>
        <time>2018-09-23T07:21:34Z</time>
      </trkpt>
      <trkpt lat="40.71411045268178" lon="13.89315739274025">
        <ele>394.27999999999997</ele>
        <time>2018-09-23T07:21:35Z</time>
      </trkpt>
      <trkpt lat="40.714048678055406" lon="13.893183376640081">
        <ele>394.27999999999997</ele>
        <time>2018-09-23T07:21:36Z</time>
      </trkpt>
      <trkpt lat="40.713888751342893" lon="13.89331329613924">
        <ele>393.31999999999999</ele>
        <time>2018-09-23T07:21:39Z</time>
      </trkpt>
      <trkpt lat="40.708946278318763" lon="13.889488214626908">
        <ele>326.99000000000001</ele>
        <time>2018-09-23T07:24:28Z</time>
      </trkpt>
      <trkpt lat="40.709063289687037" lon="13.889525095000863">
        <ele>326.99000000000001</ele>
        <time>2018-09-23T07:24:47Z</time>
      </trkpt>
      <trkpt lat="40.709095224738121" lon="13.889582343399525">
        <ele>326.99000000000001</ele>
        <time>2018-09-23T07:25:04Z</time>
      </trkpt>
      <trkpt lat="40.709318183362484" lon="13.889701198786497">
        <ele>326.99000000000001</ele>
        <time>2018-09-23T07:25:28Z</time>
      </trkpt>
      <trkpt lat="40.713843572884798" lon="13.881696062162519">
        <ele>258.25</ele>
        <time>2018-09-23T07:29:16Z</time>
      </trkpt>
      <trkpt lat="40.713842986151576" lon="13.881781473755836">
        <ele>258.73000000000002</ele>
        <time>2018-09-23T07:29:37Z</time>
      </trkpt>
      <trkpt lat="40.713850278407335" lon="13.881852300837636">
        <ele>258.25</ele>
        <time>2018-09-23T07:30:01Z</time>
      </trkpt>
      <trkpt lat="40.71381876245141" lon="13.881851797923446">
        <ele>257.76999999999998</ele>
        <time>2018-09-23T07:30:19Z</time>
      </trkpt>
      <trkpt lat="40.713548865169287" lon="13.881992362439632">
        <ele>255.84999999999999</ele>
        <time>2018-09-23T07:30:28Z</time>
      </trkpt>
      <trkpt lat="40.713311322033405" lon="13.882041899487376">
        <ele>253.93000000000001</ele>
        <time>2018-09-23T07:30:33Z</time>
      </trkpt>
      <trkpt lat="40.713220546022058" lon="13.881995128467679">
        <ele>253.44</ele>
        <time>2018-09-23T07:30:34Z</time>
      </trkpt>
      <trkpt lat="40.712783681228757" lon="13.881886331364512">
        <ele>250.56</ele>
        <time>2018-09-23T07:30:40Z</time>
      </trkpt>
      <trkpt lat="40.712718637660146" lon="13.881900496780872">
        <ele>250.56</ele>
        <time>2018-09-23T07:30:41Z</time>
      </trkpt>
      <trkpt lat="40.712656527757645" lon="13.881923044100404">
        <ele>250.08000000000001</ele>
        <time>2018-09-23T07:30:42Z</time>
      </trkpt>
      <trkpt lat="40.71259768679738" lon="13.881951877847314">
        <ele>249.59999999999999</ele>
        <time>2018-09-23T07:30:43Z</time>
      </trkpt>
      <trkpt lat="40.71253951638937" lon="13.881983812898397">
        <ele>249.12</ele>
        <time>2018-09-23T07:30:44Z</time>
      </trkpt>
      <trkpt lat="40.712036769837141" lon="13.882387652993202">
        <ele>245.75</ele>
        <time>2018-09-23T07:30:53Z</time>
      </trkpt>
      <trkpt lat="40.711940797045827" lon="13.882629722356796">
        <ele>245.27000000000001</ele>
        <time>2018-09-23T07:30:59Z</time>
      </trkpt>
      <trkpt lat="40.712118074297905" lon="13.882878245785832">
        <ele>244.78999999999999</ele>
        <time>2018-09-23T07:31:07Z</time>
      </trkpt>
      <trkpt lat="40.712179429829121" lon="13.883230788633227">
        <ele>243.83000000000001</ele>
        <time>2018-09-23T07:31:18Z</time>
      </trkpt>
      <trkpt lat="40.712155038490891" lon="13.883412759751081">
        <ele>243.34999999999999</ele>
        <time>2018-09-23T07:31:21Z</time>
      </trkpt>
      <trkpt lat="40.712128635495901" lon="13.883467493578792">
        <ele>242.87</ele>
        <time>2018-09-23T07:31:22Z</time>
      </trkpt>
      <trkpt lat="40.712099131196737" lon="13.883522227406502">
        <ele>242.38999999999999</ele>
        <time>2018-09-23T07:31:23Z</time>
      </trkpt>
      <trkpt lat="40.71174742653966" lon="13.883909471333027">
        <ele>239.50999999999999</ele>
        <time>2018-09-23T07:31:31Z</time>
      </trkpt>
      <trkpt lat="40.711233867332339" lon="13.884149948135018">
        <ele>236.13999999999999</ele>
        <time>2018-09-23T07:31:38Z</time>
      </trkpt>
      <trkpt lat="40.71080002002418" lon="13.884335858747363">
        <ele>232.78</ele>
        <time>2018-09-23T07:31:43Z</time>
      </trkpt>
      <trkpt lat="40.710644954815507" lon="13.884418001398444">
        <ele>231.33000000000001</ele>
        <time>2018-09-23T07:31:45Z</time>
      </trkpt>
      <trkpt lat="40.710441442206502" lon="13.884512213990092">
        <ele>229.88999999999999</ele>
        <time>2018-09-23T07:31:48Z</time>
      </trkpt>
      <trkpt lat="40.710388971492648" lon="13.884509196504951">
        <ele>229.41</ele>
        <time>2018-09-23T07:31:49Z</time>
      </trkpt>
      <trkpt lat="40.710348905995488" lon="13.884479776024818">
        <ele>228.93000000000001</ele>
        <time>2018-09-23T07:31:50Z</time>
      </trkpt>
      <trkpt lat="40.710323927924037" lon="13.884433675557375">
        <ele>228.93000000000001</ele>
        <time>2018-09-23T07:31:51Z</time>
      </trkpt>
      <trkpt lat="40.710317976772785" lon="13.884381456300616">
        <ele>227.97</ele>
        <time>2018-09-23T07:31:52Z</time>
      </trkpt>
      <trkpt lat="40.710332561284304" lon="13.884301660582423">
        <ele>227.97</ele>
        <time>2018-09-23T07:31:53Z</time>
      </trkpt>
      <trkpt lat="40.71035435423255" lon="13.884221613407135">
        <ele>227.49000000000001</ele>
        <time>2018-09-23T07:31:54Z</time>
      </trkpt>
      <trkpt lat="40.710377739742398" lon="13.88414173386991">
        <ele>227.49000000000001</ele>
        <time>2018-09-23T07:31:55Z</time>
      </trkpt>
      <trkpt lat="40.710462061688304" lon="13.883862784132361">
        <ele>225.56999999999999</ele>
        <time>2018-09-23T07:32:00Z</time>
      </trkpt>
      <trkpt lat="40.710447560995817" lon="13.883836297318339">
        <ele>224.61000000000001</ele>
        <time>2018-09-23T07:32:01Z</time>
      </trkpt>
      <trkpt lat="40.710421744734049" lon="13.883815426379442">
        <ele>224.61000000000001</ele>
        <time>2018-09-23T07:32:02Z</time>
      </trkpt>
      <trkpt lat="40.710383020341396" lon="13.883803943172097">
        <ele>224.12</ele>
        <time>2018-09-23T07:32:03Z</time>
      </trkpt>
      <trkpt lat="40.710336668416858" lon="13.883791789412498">
        <ele>223.16</ele>
        <time>2018-09-23T07:32:04Z</time>
      </trkpt>
      <trkpt lat="40.710288304835558" lon="13.883766056969762">
        <ele>222.68000000000001</ele>
        <time>2018-09-23T07:32:05Z</time>
      </trkpt>
      <trkpt lat="40.710243713110685" lon="13.883729176595807">
        <ele>222.19999999999999</ele>
        <time>2018-09-23T07:32:06Z</time>
      </trkpt>
      <trkpt lat="40.710211023688316" lon="13.883678214624524">
        <ele>221.72</ele>
        <time>2018-09-23T07:32:07Z</time>
      </trkpt>
      <trkpt lat="40.710183698683977" lon="13.883609147742391">
        <ele>221.24000000000001</ele>
        <time>2018-09-23T07:32:08Z</time>
      </trkpt>
      <trkpt lat="40.710161319002509" lon="13.88352558016777">
        <ele>220.75999999999999</ele>
        <time>2018-09-23T07:32:09Z</time>
      </trkpt>
      <trkpt lat="40.710142543539405" lon="13.883431283757091">
        <ele>220.28</ele>
        <time>2018-09-23T07:32:10Z</time>
      </trkpt>
      <trkpt lat="40.710124606266618" lon="13.883328605443239">
        <ele>219.80000000000001</ele>
        <time>2018-09-23T07:32:11Z</time>
      </trkpt>
      <trkpt lat="40.710067860782146" lon="13.882677583023906">
        <ele>216.43000000000001</ele>
        <time>2018-09-23T07:32:17Z</time>
      </trkpt>
      <trkpt lat="40.7100167311728" lon="13.882492342963815">
        <ele>214.99000000000001</ele>
        <time>2018-09-23T07:32:19Z</time>
      </trkpt>
      <trkpt lat="40.709975827485323" lon="13.882399639114738">
        <ele>214.50999999999999</ele>
        <time>2018-09-23T07:32:20Z</time>
      </trkpt>
      <trkpt lat="40.709721772000194" lon="13.882031003013253">
        <ele>211.15000000000001</ele>
        <time>2018-09-23T07:32:25Z</time>
      </trkpt>
      <trkpt lat="40.709544578567147" lon="13.881756160408258">
        <ele>208.74000000000001</ele>
        <time>2018-09-23T07:32:29Z</time>
      </trkpt>
      <trkpt lat="40.709524294361472" lon="13.881682399660349">
        <ele>208.25999999999999</ele>
        <time>2018-09-23T07:32:30Z</time>
      </trkpt>
      <trkpt lat="40.709513481706381" lon="13.881608890369534">
        <ele>207.78</ele>
        <time>2018-09-23T07:32:31Z</time>
      </trkpt>
      <trkpt lat="40.709515158087015" lon="13.881537057459354">
        <ele>207.78</ele>
        <time>2018-09-23T07:32:32Z</time>
      </trkpt>
      <trkpt lat="40.709524881094694" lon="13.881466146558523">
        <ele>207.30000000000001</ele>
        <time>2018-09-23T07:32:33Z</time>
      </trkpt>
      <trkpt lat="40.709536280483007" lon="13.88138534501195">
        <ele>206.81999999999999</ele>
        <time>2018-09-23T07:32:34Z</time>
      </trkpt>
      <trkpt lat="40.709561593830585" lon="13.881318541243672">
        <ele>206.34</ele>
        <time>2018-09-23T07:32:35Z</time>
      </trkpt>
      <trkpt lat="40.709587577730417" lon="13.881253330036998">
        <ele>205.86000000000001</ele>
        <time>2018-09-23T07:32:36Z</time>
      </trkpt>
      <trkpt lat="40.709817744791508" lon="13.880789307877421">
        <ele>202.49000000000001</ele>
        <time>2018-09-23T07:32:42Z</time>
      </trkpt>
      <trkpt lat="40.709973061457276" lon="13.880424862727523">
        <ele>199.61000000000001</ele>
        <time>2018-09-23T07:32:46Z</time>
      </trkpt>
      <trkpt lat="40.710086887702346" lon="13.88021657243371">
        <ele>197.69</ele>
        <time>2018-09-23T07:32:48Z</time>
      </trkpt>
      <trkpt lat="40.710168359801173" lon="13.880101069808006">
        <ele>197.21000000000001</ele>
        <time>2018-09-23T07:32:49Z</time>
      </trkpt>
      <trkpt lat="40.710240695625544" lon="13.880013395100832">
        <ele>196.72999999999999</ele>
        <time>2018-09-23T07:32:50Z</time>
      </trkpt>
      <trkpt lat="40.710314624011517" lon="13.87994390912354">
        <ele>196.25</ele>
        <time>2018-09-23T07:32:51Z</time>
      </trkpt>
      <trkpt lat="40.710375728085637" lon="13.87990677729249">
        <ele>195.77000000000001</ele>
        <time>2018-09-23T07:32:52Z</time>
      </trkpt>
      <trkpt lat="40.710579324513674" lon="13.879810972139239">
        <ele>193.36000000000001</ele>
        <time>2018-09-23T07:32:55Z</time>
      </trkpt>
      <trkpt lat="40.710682673379779" lon="13.879697984084487">
        <ele>192.40000000000001</ele>
        <time>2018-09-23T07:32:57Z</time>
      </trkpt>
      <trkpt lat="40.710850562900305" lon="13.879439318552613">
        <ele>190</ele>
        <time>2018-09-23T07:33:00Z</time>
      </trkpt>
      <trkpt lat="40.710994563996792" lon="13.879232872277498">
        <ele>188.56</ele>
        <time>2018-09-23T07:33:02Z</time>
      </trkpt>
      <trkpt lat="40.711416257545352" lon="13.878850070759654">
        <ele>185.19</ele>
        <time>2018-09-23T07:33:07Z</time>
      </trkpt>
      <trkpt lat="40.71183099411428" lon="13.878666842356324">
        <ele>181.34999999999999</ele>
        <time>2018-09-23T07:33:11Z</time>
      </trkpt>
      <trkpt lat="40.71227808482945" lon="13.8784453086555">
        <ele>178.46000000000001</ele>
        <time>2018-09-23T07:33:15Z</time>
      </trkpt>
      <trkpt lat="40.712355868890882" lon="13.878428712487221">
        <ele>177.97999999999999</ele>
        <time>2018-09-23T07:33:16Z</time>
      </trkpt>
      <trkpt lat="40.71267681196332" lon="13.878275910392404">
        <ele>176.06</ele>
        <time>2018-09-23T07:33:19Z</time>
      </trkpt>
      <trkpt lat="40.713178804144263" lon="13.877965612336993">
        <ele>172.69</ele>
        <time>2018-09-23T07:33:24Z</time>
      </trkpt>
      <trkpt lat="40.71360619738698" lon="13.877623379230499">
        <ele>169.81</ele>
        <time>2018-09-23T07:33:28Z</time>
      </trkpt>
      <trkpt lat="40.713782636448741" lon="13.877430092543364">
        <ele>167.88999999999999</ele>
        <time>2018-09-23T07:33:30Z</time>
      </trkpt>
      <trkpt lat="40.71384659036994" lon="13.87732682749629">
        <ele>167.41</ele>
        <time>2018-09-23T07:33:31Z</time>
      </trkpt>
      <trkpt lat="40.713904844596982" lon="13.877213336527348">
        <ele>166.93000000000001</ele>
        <time>2018-09-23T07:33:32Z</time>
      </trkpt>
      <trkpt lat="40.713950358331203" lon="13.877093140035868">
        <ele>166.44999999999999</ele>
        <time>2018-09-23T07:33:33Z</time>
      </trkpt>
      <trkpt lat="40.713978102430701" lon="13.876969842240214">
        <ele>165.47999999999999</ele>
        <time>2018-09-23T07:33:34Z</time>
      </trkpt>
      <trkpt lat="40.713986484333873" lon="13.876841682940722">
        <ele>165.47999999999999</ele>
        <time>2018-09-23T07:33:35Z</time>
      </trkpt>
      <trkpt lat="40.713976761326194" lon="13.876724084839225">
        <ele>164.52000000000001</ele>
        <time>2018-09-23T07:33:36Z</time>
      </trkpt>
      <trkpt lat="40.713873915374279" lon="13.876595590263605">
        <ele>164.03999999999999</ele>
        <time>2018-09-23T07:33:37Z</time>
      </trkpt>
      <trkpt lat="40.713796215131879" lon="13.876461228355765">
        <ele>163.08000000000001</ele>
        <time>2018-09-23T07:33:38Z</time>
      </trkpt>
      <trkpt lat="40.713667050004005" lon="13.876380007714033">
        <ele>162.59999999999999</ele>
        <time>2018-09-23T07:33:39Z</time>
      </trkpt>
      <trkpt lat="40.713528161868453" lon="13.876290572807193">
        <ele>161.63999999999999</ele>
        <time>2018-09-23T07:33:40Z</time>
      </trkpt>
      <trkpt lat="40.713402181863785" lon="13.876216392964125">
        <ele>160.68000000000001</ele>
        <time>2018-09-23T07:33:41Z</time>
      </trkpt>
      <trkpt lat="40.712919132784009" lon="13.875952279195189">
        <ele>157.78999999999999</ele>
        <time>2018-09-23T07:33:45Z</time>
      </trkpt>
      <trkpt lat="40.712639093399048" lon="13.87580961920321">
        <ele>155.38999999999999</ele>
        <time>2018-09-23T07:33:48Z</time>
      </trkpt>
      <trkpt lat="40.712569439783692" lon="13.875727392733097">
        <ele>154.91</ele>
        <time>2018-09-23T07:33:49Z</time>
      </trkpt>
      <trkpt lat="40.712486626580358" lon="13.875601999461651">
        <ele>153.94999999999999</ele>
        <time>2018-09-23T07:33:50Z</time>
      </trkpt>
      <trkpt lat="40.712423846125603" lon="13.875469984486699">
        <ele>153.47</ele>
        <time>2018-09-23T07:33:51Z</time>
      </trkpt>
      <trkpt lat="40.712366430088878" lon="13.875327995046973">
        <ele>152.99000000000001</ele>
        <time>2018-09-23T07:33:52Z</time>
      </trkpt>
      <trkpt lat="40.71231571957469" lon="13.875176282599568">
        <ele>152.03</ele>
        <time>2018-09-23T07:33:53Z</time>
      </trkpt>
      <trkpt lat="40.712283533066511" lon="13.875016020610929">
        <ele>151.53999999999999</ele>
        <time>2018-09-23T07:33:54Z</time>
      </trkpt>
      <trkpt lat="40.712267439812422" lon="13.874839413911104">
        <ele>150.58000000000001</ele>
        <time>2018-09-23T07:33:55Z</time>
      </trkpt>
      <trkpt lat="40.712254280224442" lon="13.874662052839994">
        <ele>150.09999999999999</ele>
        <time>2018-09-23T07:33:56Z</time>
      </trkpt>
      <trkpt lat="40.712248245254159" lon="13.87448251247406">
        <ele>149.13999999999999</ele>
        <time>2018-09-23T07:33:57Z</time>
      </trkpt>
      <trkpt lat="40.712304739281535" lon="13.873730907216668">
        <ele>145.78</ele>
        <time>2018-09-23T07:34:01Z</time>
      </trkpt>
      <trkpt lat="40.712364166975021" lon="13.873429074883461">
        <ele>143.84999999999999</ele>
        <time>2018-09-23T07:34:03Z</time>
      </trkpt>
      <trkpt lat="40.712405992671847" lon="13.873292449861765">
        <ele>143.37</ele>
        <time>2018-09-23T07:34:04Z</time>
      </trkpt>
      <trkpt lat="40.712460391223431" lon="13.873165883123875">
        <ele>142.88999999999999</ele>
        <time>2018-09-23T07:34:05Z</time>
      </trkpt>
      <trkpt lat="40.712529458105564" lon="13.873054655268788">
        <ele>141.93000000000001</ele>
        <time>2018-09-23T07:34:06Z</time>
      </trkpt>
      <trkpt lat="40.712610175833106" lon="13.872946863994002">
        <ele>141.44999999999999</ele>
        <time>2018-09-23T07:34:07Z</time>
      </trkpt>
      <trkpt lat="40.712700448930264" lon="13.872851729393005">
        <ele>140.49000000000001</ele>
        <time>2018-09-23T07:34:08Z</time>
      </trkpt>
      <trkpt lat="40.71279751136899" lon="13.872766653075814">
        <ele>140.00999999999999</ele>
        <time>2018-09-23T07:34:09Z</time>
      </trkpt>
      <trkpt lat="40.712917624041438" lon="13.87266531586647">
        <ele>139.05000000000001</ele>
        <time>2018-09-23T07:34:10Z</time>
      </trkpt>
      <trkpt lat="40.713022314012051" lon="13.872606810182333">
        <ele>139.05000000000001</ele>
        <time>2018-09-23T07:34:11Z</time>
      </trkpt>
      <trkpt lat="40.713124657049775" lon="13.872556518763304">
        <ele>138.09</ele>
        <time>2018-09-23T07:34:12Z</time>
      </trkpt>
      <trkpt lat="40.713496897369623" lon="13.872412769123912">
        <ele>135.68000000000001</ele>
        <time>2018-09-23T07:34:16Z</time>
      </trkpt>
      <trkpt lat="40.713565293699503" lon="13.872391814365983">
        <ele>135.19999999999999</ele>
        <time>2018-09-23T07:34:17Z</time>
      </trkpt>
      <trkpt lat="40.713746594265103" lon="13.872306821867824">
        <ele>134.24000000000001</ele>
        <time>2018-09-23T07:34:24Z</time>
      </trkpt>
      <trkpt lat="40.713692028075457" lon="13.872062154114246">
        <ele>135.68000000000001</ele>
        <time>2018-09-23T07:34:33Z</time>
      </trkpt>
      <trkpt lat="40.713640814647079" lon="13.872008258476853">
        <ele>136.63999999999999</ele>
        <time>2018-09-23T07:34:34Z</time>
      </trkpt>
      <trkpt lat="40.713541153818369" lon="13.871940784156322">
        <ele>137.13</ele>
        <time>2018-09-23T07:34:35Z</time>
      </trkpt>
      <trkpt lat="40.713360356166959" lon="13.871815390884876">
        <ele>138.09</ele>
        <time>2018-09-23T07:34:37Z</time>
      </trkpt>
      <trkpt lat="40.713183581829071" lon="13.871711706742644">
        <ele>139.53</ele>
        <time>2018-09-23T07:34:39Z</time>
      </trkpt>
      <trkpt lat="40.712982499971986" lon="13.871626127511263">
        <ele>140.97</ele>
        <time>2018-09-23T07:34:41Z</time>
      </trkpt>
      <trkpt lat="40.712333573028445" lon="13.871396463364363">
        <ele>144.34</ele>
        <time>2018-09-23T07:34:48Z</time>
      </trkpt>
      <trkpt lat="40.711619351059198" lon="13.871460082009435">
        <ele>147.69999999999999</ele>
        <time>2018-09-23T07:34:56Z</time>
      </trkpt>
      <trkpt lat="40.711374431848526" lon="13.871584217995405">
        <ele>147.22</ele>
        <time>2018-09-23T07:35:02Z</time>
      </trkpt>
      <trkpt lat="40.711091458797455" lon="13.871748503297567">
        <ele>149.13999999999999</ele>
        <time>2018-09-23T07:35:12Z</time>
      </trkpt>
      <trkpt lat="40.710796248167753" lon="13.872101800516248">
        <ele>150.09999999999999</ele>
        <time>2018-09-23T07:35:17Z</time>
      </trkpt>
      <trkpt lat="40.710516627877951" lon="13.872312353923917">
        <ele>150.58000000000001</ele>
        <time>2018-09-23T07:35:21Z</time>
      </trkpt>
      <trkpt lat="40.710206078365445" lon="13.872454762458801">
        <ele>151.06</ele>
        <time>2018-09-23T07:35:27Z</time>
      </trkpt>
      <trkpt lat="40.709892427548766" lon="13.872511172667146">
        <ele>152.99000000000001</ele>
        <time>2018-09-23T07:35:33Z</time>
      </trkpt>
      <trkpt lat="40.709391692653298" lon="13.872732790187001">
        <ele>153.94999999999999</ele>
        <time>2018-09-23T07:35:43Z</time>
      </trkpt>
      <trkpt lat="40.709227072075009" lon="13.872811580076814">
        <ele>154.43000000000001</ele>
        <time>2018-09-23T07:35:52Z</time>
      </trkpt>
      <trkpt lat="40.70883622393012" lon="13.873275769874454">
        <ele>156.34999999999999</ele>
        <time>2018-09-23T07:36:04Z</time>
      </trkpt>
      <trkpt lat="40.708591304719448" lon="13.873695787042379">
        <ele>157.78999999999999</ele>
        <time>2018-09-23T07:36:15Z</time>
      </trkpt>
      <trkpt lat="40.708495667204261" lon="13.873812379315495">
        <ele>157.78999999999999</ele>
        <time>2018-09-23T07:36:25Z</time>
      </trkpt>
      <trkpt lat="40.708490051329136" lon="13.873833501711488">
        <ele>157.31</ele>
        <time>2018-09-23T07:36:26Z</time>
      </trkpt>
      <trkpt lat="40.708486111834645" lon="13.873856300488114">
        <ele>157.31</ele>
        <time>2018-09-23T07:36:27Z</time>
      </trkpt>
      <trkpt lat="40.708484267815948" lon="13.873884547501802">
        <ele>156.83000000000001</ele>
        <time>2018-09-23T07:36:28Z</time>
      </trkpt>
      <trkpt lat="40.708495751023293" lon="13.873941963538527">
        <ele>156.83000000000001</ele>
        <time>2018-09-23T07:36:29Z</time>
      </trkpt>
      <trkpt lat="40.70851419121027" lon="13.874003067612648">
        <ele>156.83000000000001</ele>
        <time>2018-09-23T07:36:30Z</time>
      </trkpt>
      <trkpt lat="40.708532966673374" lon="13.874061070382595">
        <ele>156.34999999999999</ele>
        <time>2018-09-23T07:36:31Z</time>
      </trkpt>
      <trkpt lat="40.708551574498415" lon="13.874113457277417">
        <ele>156.34999999999999</ele>
        <time>2018-09-23T07:36:32Z</time>
      </trkpt>
      <trkpt lat="40.708695910871029" lon="13.874460635706782">
        <ele>155.87</ele>
        <time>2018-09-23T07:36:42Z</time>
      </trkpt>
      <trkpt lat="40.708782915025949" lon="13.874506484717131">
        <ele>156.34999999999999</ele>
        <time>2018-09-23T07:36:58Z</time>
      </trkpt>
      <trkpt lat="40.708863129839301" lon="13.874534731730819">
        <ele>156.34999999999999</ele>
        <time>2018-09-23T07:37:18Z</time>
      </trkpt>
    </trkseg>
  </trk>

  <trk>
    <name>2018-09-23 16:05:09</name>
    <extensions>
      <gpxx:TrackExtension>
        <gpxx:DisplayColor>Yellow</gpxx:DisplayColor>
      </gpxx:TrackExtension>
      <gpxtrkx:TrackStatsExtension xmlns:gpxtrkx="http://www.garmin.com/xmlschemas/TrackStatsExtension/v1">
        <gpxtrkx:Distance>13208</gpxtrkx:Distance>
        <gpxtrkx:TotalElapsedTime>23240</gpxtrkx:TotalElapsedTime>
        <gpxtrkx:MovingTime>10534</gpxtrkx:MovingTime>
        <gpxtrkx:StoppedTime>12575</gpxtrkx:StoppedTime>
        <gpxtrkx:MovingSpeed>1</gpxtrkx:MovingSpeed>
        <gpxtrkx:MaxSpeed>10</gpxtrkx:MaxSpeed>
        <gpxtrkx:MaxElevation>168</gpxtrkx:MaxElevation>
        <gpxtrkx:MinElevation>2</gpxtrkx:MinElevation>
        <gpxtrkx:Ascent>395</gpxtrkx:Ascent>
        <gpxtrkx:Descent>382</gpxtrkx:Descent>
        <gpxtrkx:AvgAscentRate>0</gpxtrkx:AvgAscentRate>
        <gpxtrkx:MaxAscentRate>1</gpxtrkx:MaxAscentRate>
        <gpxtrkx:AvgDescentRate>0</gpxtrkx:AvgDescentRate>
        <gpxtrkx:MaxDescentRate>-0</gpxtrkx:MaxDescentRate>
      </gpxtrkx:TrackStatsExtension>
    </extensions>
    <trkseg>
      <trkpt lat="40.708680907264352" lon="13.874498773366213">
        <ele>150.58000000000001</ele>
        <time>2018-09-23T07:39:52Z</time>
      </trkpt>
      <trkpt lat="40.708677554503083" lon="13.874439764767885">
        <ele>152.50999999999999</ele>
        <time>2018-09-23T07:40:05Z</time>
      </trkpt>
      <trkpt lat="40.708629190921783" lon="13.874452672898769">
        <ele>153.94999999999999</ele>
        <time>2018-09-23T07:40:15Z</time>
      </trkpt>
      <trkpt lat="40.708580408245325" lon="13.874481841921806">
        <ele>154.91</ele>
        <time>2018-09-23T07:40:26Z</time>
      </trkpt>
      <trkpt lat="40.708559704944491" lon="13.87445711530745">
        <ele>156.83000000000001</ele>
        <time>2018-09-23T07:40:37Z</time>
      </trkpt>
      <trkpt lat="40.708594741299748" lon="13.874460970982909">
        <ele>158.27000000000001</ele>
        <time>2018-09-23T07:40:48Z</time>
      </trkpt>
      <trkpt lat="40.708592897281051" lon="13.874485865235329">
        <ele>159.24000000000001</ele>
        <time>2018-09-23T07:41:01Z</time>
      </trkpt>
      <trkpt lat="40.708586191758513" lon="13.874486535787582">
        <ele>160.68000000000001</ele>
        <time>2018-09-23T07:41:14Z</time>
      </trkpt>
      <trkpt lat="40.708615863695741" lon="13.874454852193594">
        <ele>161.63999999999999</ele>
        <time>2018-09-23T07:41:27Z</time>
      </trkpt>
      <trkpt lat="40.708618964999914" lon="13.874433310702443">
        <ele>162.12</ele>
        <time>2018-09-23T07:41:43Z</time>
      </trkpt>
      <trkpt lat="40.708656767383218" lon="13.87440288439393">
        <ele>162.59999999999999</ele>
        <time>2018-09-23T07:41:53Z</time>
      </trkpt>
      <trkpt lat="40.708635728806257" lon="13.874430544674397">
        <ele>162.59999999999999</ele>
        <time>2018-09-23T07:42:06Z</time>
      </trkpt>
      <trkpt lat="40.708642853423953" lon="13.87445661239326">
        <ele>162.12</ele>
        <time>2018-09-23T07:42:20Z</time>
      </trkpt>
      <trkpt lat="40.708640506491065" lon="13.874436495825648">
        <ele>162.59999999999999</ele>
        <time>2018-09-23T07:42:33Z</time>
      </trkpt>
      <trkpt lat="40.708650816231966" lon="13.874446721747518">
        <ele>162.12</ele>
        <time>2018-09-23T07:42:44Z</time>
      </trkpt>
      <trkpt lat="40.708654588088393" lon="13.874432807788253">
        <ele>162.59999999999999</ele>
        <time>2018-09-23T07:42:55Z</time>
      </trkpt>
      <trkpt lat="40.708608655259013" lon="13.874444626271725">
        <ele>162.59999999999999</ele>
        <time>2018-09-23T07:43:09Z</time>
      </trkpt>
      <trkpt lat="40.708612930029631" lon="13.874411266297102">
        <ele>162.12</ele>
        <time>2018-09-23T07:43:22Z</time>
      </trkpt>
      <trkpt lat="40.708613181486726" lon="13.874441273510456">
        <ele>162.12</ele>
        <time>2018-09-23T07:43:38Z</time>
      </trkpt>
      <trkpt lat="40.708629442378879" lon="13.874448984861374">
        <ele>162.59999999999999</ele>
        <time>2018-09-23T07:43:52Z</time>
      </trkpt>
      <trkpt lat="40.708623910322785" lon="13.874453343451023">
        <ele>162.59999999999999</ele>
        <time>2018-09-23T07:44:08Z</time>
      </trkpt>
      <trkpt lat="40.708645787090063" lon="13.874438758939505">
        <ele>162.59999999999999</ele>
        <time>2018-09-23T07:44:20Z</time>
      </trkpt>
      <trkpt lat="40.708624413236976" lon="13.87447027489543">
        <ele>162.59999999999999</ele>
        <time>2018-09-23T07:44:34Z</time>
      </trkpt>
      <trkpt lat="40.708586610853672" lon="13.874461809173226">
        <ele>162.59999999999999</ele>
        <time>2018-09-23T07:44:49Z</time>
      </trkpt>
      <trkpt lat="40.70855719037354" lon="13.874455774202943">
        <ele>162.12</ele>
        <time>2018-09-23T07:45:00Z</time>
      </trkpt>
      <trkpt lat="40.708549730479717" lon="13.874463904649019">
        <ele>162.12</ele>
        <time>2018-09-23T07:45:12Z</time>
      </trkpt>
      <trkpt lat="40.708540678024292" lon="13.874456193298101">
        <ele>162.12</ele>
        <time>2018-09-23T07:45:22Z</time>
      </trkpt>
      <trkpt lat="40.708461385220289" lon="13.874438004568219">
        <ele>161.16</ele>
        <time>2018-09-23T07:45:33Z</time>
      </trkpt>
      <trkpt lat="40.70843749679625" lon="13.874425766989589">
        <ele>161.16</ele>
        <time>2018-09-23T07:45:42Z</time>
      </trkpt>
      <trkpt lat="40.708369100466371" lon="13.874384528025985">
        <ele>160.68000000000001</ele>
        <time>2018-09-23T07:45:53Z</time>
      </trkpt>
      <trkpt lat="40.708303134888411" lon="13.874329878017306">
        <ele>160.19999999999999</ele>
        <time>2018-09-23T07:46:06Z</time>
      </trkpt>
      <trkpt lat="40.708233397454023" lon="13.874248070642352">
        <ele>159.72</ele>
        <time>2018-09-23T07:46:18Z</time>
      </trkpt>
      <trkpt lat="40.708150248974562" lon="13.874154612421989">
        <ele>159.24000000000001</ele>
        <time>2018-09-23T07:46:32Z</time>
      </trkpt>
      <trkpt lat="40.708121499046683" lon="13.874120162799954">
        <ele>158.75</ele>
        <time>2018-09-23T07:46:37Z</time>
      </trkpt>
      <trkpt lat="40.708020329475403" lon="13.874089904129505">
        <ele>158.27000000000001</ele>
        <time>2018-09-23T07:46:49Z</time>
      </trkpt>
      <trkpt lat="40.707989567890763" lon="13.874085042625666">
        <ele>158.27000000000001</ele>
        <time>2018-09-23T07:47:03Z</time>
      </trkpt>
      <trkpt lat="40.707996021956205" lon="13.874085880815983">
        <ele>158.27000000000001</ele>
        <time>2018-09-23T07:47:18Z</time>
      </trkpt>
      <trkpt lat="40.707982610911131" lon="13.874056208878756">
        <ele>158.27000000000001</ele>
        <time>2018-09-23T07:47:30Z</time>
      </trkpt>
      <trkpt lat="40.70796743966639" lon="13.874034080654383">
        <ele>158.27000000000001</ele>
        <time>2018-09-23T07:47:39Z</time>
      </trkpt>
      <trkpt lat="40.707969116047025" lon="13.873985717073083">
        <ele>158.27000000000001</ele>
        <time>2018-09-23T07:47:50Z</time>
      </trkpt>
      <trkpt lat="40.707968613132834" lon="13.87400415726006">
        <ele>158.27000000000001</ele>
        <time>2018-09-23T07:48:05Z</time>
      </trkpt>
      <trkpt lat="40.707982443273067" lon="13.874022178351879">
        <ele>158.27000000000001</ele>
        <time>2018-09-23T07:48:16Z</time>
      </trkpt>
      <trkpt lat="40.707975067198277" lon="13.874068949371576">
        <ele>157.78999999999999</ele>
        <time>2018-09-23T07:48:23Z</time>
      </trkpt>
      <trkpt lat="40.707954782992601" lon="13.87413608841598">
        <ele>157.78999999999999</ele>
        <time>2018-09-23T07:48:34Z</time>
      </trkpt>
      <trkpt lat="40.707937683910131" lon="13.874131478369236">
        <ele>157.78999999999999</ele>
        <time>2018-09-23T07:48:47Z</time>
      </trkpt>
      <trkpt lat="40.707910275086761" lon="13.874124521389604">
        <ele>157.78999999999999</ele>
        <time>2018-09-23T07:49:00Z</time>
      </trkpt>
      <trkpt lat="40.707874149084091" lon="13.87413801625371">
        <ele>157.31</ele>
        <time>2018-09-23T07:49:11Z</time>
      </trkpt>
      <trkpt lat="40.707859648391604" lon="13.874115720391273">
        <ele>157.31</ele>
        <time>2018-09-23T07:49:19Z</time>
      </trkpt>
      <trkpt lat="40.707840034738183" lon="13.874115971848369">
        <ele>156.83000000000001</ele>
        <time>2018-09-23T07:49:28Z</time>
      </trkpt>
      <trkpt lat="40.707861240953207" lon="13.874095436185598">
        <ele>157.31</ele>
        <time>2018-09-23T07:49:40Z</time>
      </trkpt>
      <trkpt lat="40.707867359742522" lon="13.874108763411641">
        <ele>157.31</ele>
        <time>2018-09-23T07:49:58Z</time>
      </trkpt>
      <trkpt lat="40.707852942869067" lon="13.874104572460055">
        <ele>157.31</ele>
        <time>2018-09-23T07:50:10Z</time>
      </trkpt>
      <trkpt lat="40.707854786887765" lon="13.874111948534846">
        <ele>156.83000000000001</ele>
        <time>2018-09-23T07:50:26Z</time>
      </trkpt>
      <trkpt lat="40.7077890727669" lon="13.874125527217984">
        <ele>156.34999999999999</ele>
        <time>2018-09-23T07:50:38Z</time>
      </trkpt>
      <trkpt lat="40.707729896530509" lon="13.874068697914481">
        <ele>156.34999999999999</ele>
        <time>2018-09-23T07:50:50Z</time>
      </trkpt>
      <trkpt lat="40.707637276500463" lon="13.874087724834681">
        <ele>155.38999999999999</ele>
        <time>2018-09-23T07:51:03Z</time>
      </trkpt>
      <trkpt lat="40.70753887295723" lon="13.874112032353878">
        <ele>154.91</ele>
        <time>2018-09-23T07:51:14Z</time>
      </trkpt>
      <trkpt lat="40.707507105544209" lon="13.874110691249371">
        <ele>154.43000000000001</ele>
        <time>2018-09-23T07:51:18Z</time>
      </trkpt>
      <trkpt lat="40.707438457757235" lon="13.874146481975913">
        <ele>154.91</ele>
        <time>2018-09-23T07:51:28Z</time>
      </trkpt>
      <trkpt lat="40.707430746406317" lon="13.874152349308133">
        <ele>154.43000000000001</ele>
        <time>2018-09-23T07:51:29Z</time>
      </trkpt>
      <trkpt lat="40.707354051992297" lon="13.874207586050034">
        <ele>154.43000000000001</ele>
        <time>2018-09-23T07:51:39Z</time>
      </trkpt>
      <trkpt lat="40.707314237952232" lon="13.874228708446026">
        <ele>153.94999999999999</ele>
        <time>2018-09-23T07:51:44Z</time>
      </trkpt>
      <trkpt lat="40.707217510789633" lon="13.874245556071401">
        <ele>153.94999999999999</ele>
        <time>2018-09-23T07:51:56Z</time>
      </trkpt>
      <trkpt lat="40.70709815248847" lon="13.874259050935507">
        <ele>153.47</ele>
        <time>2018-09-23T07:52:08Z</time>
      </trkpt>
      <trkpt lat="40.706987427547574" lon="13.874258548021317">
        <ele>153.47</ele>
        <time>2018-09-23T07:52:19Z</time>
      </trkpt>
      <trkpt lat="40.706845857203007" lon="13.874288303777575">
        <ele>153.47</ele>
        <time>2018-09-23T07:52:33Z</time>
      </trkpt>
      <trkpt lat="40.70682062767446" lon="13.874290566891432">
        <ele>153.47</ele>
        <time>2018-09-23T07:52:35Z</time>
      </trkpt>
      <trkpt lat="40.706696407869458" lon="13.874363908544183">
        <ele>153.47</ele>
        <time>2018-09-23T07:52:49Z</time>
      </trkpt>
      <trkpt lat="40.706655168905854" lon="13.874406572431326">
        <ele>152.99000000000001</ele>
        <time>2018-09-23T07:53:00Z</time>
      </trkpt>
      <trkpt lat="40.706649888306856" lon="13.874447140842676">
        <ele>152.99000000000001</ele>
        <time>2018-09-23T07:53:05Z</time>
      </trkpt>
      <trkpt lat="40.706567075103521" lon="13.874667333438993">
        <ele>152.50999999999999</ele>
        <time>2018-09-23T07:53:22Z</time>
      </trkpt>
      <trkpt lat="40.70651276037097" lon="13.874843185767531">
        <ele>152.03</ele>
        <time>2018-09-23T07:53:35Z</time>
      </trkpt>
      <trkpt lat="40.70640136487782" lon="13.874968998134136">
        <ele>151.53999999999999</ele>
        <time>2018-09-23T07:53:48Z</time>
      </trkpt>
      <trkpt lat="40.706269182264805" lon="13.875032113865018">
        <ele>151.06</ele>
        <time>2018-09-23T07:54:00Z</time>
      </trkpt>
      <trkpt lat="40.706150997430086" lon="13.87513630092144">
        <ele>151.06</ele>
        <time>2018-09-23T07:54:13Z</time>
      </trkpt>
      <trkpt lat="40.70605393499136" lon="13.875310812145472">
        <ele>150.09999999999999</ele>
        <time>2018-09-23T07:54:28Z</time>
      </trkpt>
      <trkpt lat="40.706006325781345" lon="13.875405276194215">
        <ele>149.62</ele>
        <time>2018-09-23T07:54:37Z</time>
      </trkpt>
      <trkpt lat="40.705895852297544" lon="13.87552086263895">
        <ele>148.66</ele>
        <time>2018-09-23T07:54:51Z</time>
      </trkpt>
      <trkpt lat="40.705829970538616" lon="13.875597724691033">
        <ele>148.66</ele>
        <time>2018-09-23T07:55:04Z</time>
      </trkpt>
      <trkpt lat="40.705774063244462" lon="13.875612812116742">
        <ele>148.66</ele>
        <time>2018-09-23T07:55:15Z</time>
      </trkpt>
      <trkpt lat="40.705749336630106" lon="13.875635862350464">
        <ele>148.18000000000001</ele>
        <time>2018-09-23T07:55:33Z</time>
      </trkpt>
      <trkpt lat="40.705725280568004" lon="13.875695541501045">
        <ele>148.18000000000001</ele>
        <time>2018-09-23T07:55:49Z</time>
      </trkpt>
      <trkpt lat="40.705670546740294" lon="13.875737534835935">
        <ele>148.18000000000001</ele>
        <time>2018-09-23T07:55:58Z</time>
      </trkpt>
      <trkpt lat="40.70556971244514" lon="13.87585655786097">
        <ele>147.69999999999999</ele>
        <time>2018-09-23T07:56:11Z</time>
      </trkpt>
      <trkpt lat="40.705535262823105" lon="13.875891426578164">
        <ele>147.69999999999999</ele>
        <time>2018-09-23T07:56:15Z</time>
      </trkpt>
      <trkpt lat="40.705449767410755" lon="13.876022351905704">
        <ele>147.69999999999999</ele>
        <time>2018-09-23T07:56:27Z</time>
      </trkpt>
      <trkpt lat="40.70530534721911" lon="13.876076834276319">
        <ele>147.22</ele>
        <time>2018-09-23T07:56:41Z</time>
      </trkpt>
      <trkpt lat="40.705241225659847" lon="13.876054789870977">
        <ele>146.74000000000001</ele>
        <time>2018-09-23T07:56:48Z</time>
      </trkpt>
      <trkpt lat="40.705099906772375" lon="13.876023357734084">
        <ele>144.81999999999999</ele>
        <time>2018-09-23T07:57:03Z</time>
      </trkpt>
      <trkpt lat="40.704974848777056" lon="13.875970635563135">
        <ele>142.88999999999999</ele>
        <time>2018-09-23T07:57:16Z</time>
      </trkpt>
      <trkpt lat="40.704883905127645" lon="13.875845409929752">
        <ele>141.93000000000001</ele>
        <time>2018-09-23T07:57:28Z</time>
      </trkpt>
      <trkpt lat="40.70482162758708" lon="13.875709790736437">
        <ele>140.49000000000001</ele>
        <time>2018-09-23T07:57:39Z</time>
      </trkpt>
      <trkpt lat="40.704784747213125" lon="13.875601496547461">
        <ele>139.53</ele>
        <time>2018-09-23T07:57:48Z</time>
      </trkpt>
      <trkpt lat="40.704724481329322" lon="13.875442910939455">
        <ele>138.56999999999999</ele>
        <time>2018-09-23T07:58:00Z</time>
      </trkpt>
      <trkpt lat="40.704676201567054" lon="13.875416088849306">
        <ele>138.09</ele>
        <time>2018-09-23T07:58:06Z</time>
      </trkpt>
      <trkpt lat="40.704618198797107" lon="13.87545389123261">
        <ele>137.61000000000001</ele>
        <time>2018-09-23T07:58:11Z</time>
      </trkpt>
      <trkpt lat="40.704518537968397" lon="13.875581296160817">
        <ele>138.09</ele>
        <time>2018-09-23T07:58:25Z</time>
      </trkpt>
      <trkpt lat="40.704404041171074" lon="13.875724207609892">
        <ele>137.61000000000001</ele>
        <time>2018-09-23T07:58:40Z</time>
      </trkpt>
      <trkpt lat="40.704293735325336" lon="13.87584675103426">
        <ele>137.13</ele>
        <time>2018-09-23T07:58:53Z</time>
      </trkpt>
      <trkpt lat="40.704189212992787" lon="13.875976670533419">
        <ele>137.61000000000001</ele>
        <time>2018-09-23T07:59:07Z</time>
      </trkpt>
      <trkpt lat="40.704072872176766" lon="13.876122096553445">
        <ele>137.61000000000001</ele>
        <time>2018-09-23T07:59:21Z</time>
      </trkpt>
      <trkpt lat="40.703945131972432" lon="13.876253860071301">
        <ele>137.61000000000001</ele>
        <time>2018-09-23T07:59:36Z</time>
      </trkpt>
      <trkpt lat="40.70383021607995" lon="13.876299876719713">
        <ele>137.13</ele>
        <time>2018-09-23T07:59:49Z</time>
      </trkpt>
      <trkpt lat="40.703778080642223" lon="13.876290237531066">
        <ele>137.13</ele>
        <time>2018-09-23T07:59:56Z</time>
      </trkpt>
      <trkpt lat="40.703656543046236" lon="13.876288728788495">
        <ele>136.63999999999999</ele>
        <time>2018-09-23T08:00:08Z</time>
      </trkpt>
      <trkpt lat="40.703609772026539" lon="13.8762850407511">
        <ele>136.63999999999999</ele>
        <time>2018-09-23T08:00:20Z</time>
      </trkpt>
      <trkpt lat="40.70346811786294" lon="13.876229887828231">
        <ele>135.68000000000001</ele>
        <time>2018-09-23T08:00:35Z</time>
      </trkpt>
      <trkpt lat="40.703343395143747" lon="13.876194600015879">
        <ele>136.16</ele>
        <time>2018-09-23T08:00:49Z</time>
      </trkpt>
      <trkpt lat="40.703209871426225" lon="13.876166017726064">
        <ele>135.68000000000001</ele>
        <time>2018-09-23T08:01:03Z</time>
      </trkpt>
      <trkpt lat="40.703073414042592" lon="13.876137603074312">
        <ele>135.68000000000001</ele>
        <time>2018-09-23T08:01:17Z</time>
      </trkpt>
      <trkpt lat="40.70296922698617" lon="13.876112289726734">
        <ele>135.68000000000001</ele>
        <time>2018-09-23T08:01:27Z</time>
      </trkpt>
      <trkpt lat="40.70284710265696" lon="13.876078594475985">
        <ele>135.19999999999999</ele>
        <time>2018-09-23T08:01:40Z</time>
      </trkpt>
      <trkpt lat="40.702703604474664" lon="13.875994272530079">
        <ele>135.19999999999999</ele>
        <time>2018-09-23T08:01:54Z</time>
      </trkpt>
      <trkpt lat="40.702590281143785" lon="13.875942137092352">
        <ele>135.19999999999999</ele>
        <time>2018-09-23T08:02:06Z</time>
      </trkpt>
      <trkpt lat="40.702493134886026" lon="13.875920930877328">
        <ele>135.19999999999999</ele>
        <time>2018-09-23T08:02:17Z</time>
      </trkpt>
      <trkpt lat="40.702437562867999" lon="13.875987315550447">
        <ele>135.68000000000001</ele>
        <time>2018-09-23T08:02:26Z</time>
      </trkpt>
      <trkpt lat="40.702384589239955" lon="13.876129388809204">
        <ele>137.13</ele>
        <time>2018-09-23T08:02:40Z</time>
      </trkpt>
      <trkpt lat="40.702340584248304" lon="13.876240700483322">
        <ele>138.09</ele>
        <time>2018-09-23T08:02:51Z</time>
      </trkpt>
      <trkpt lat="40.702302614226937" lon="13.876341618597507">
        <ele>139.53</ele>
        <time>2018-09-23T08:03:01Z</time>
      </trkpt>
      <trkpt lat="40.702262464910746" lon="13.876451756805182">
        <ele>141.44999999999999</ele>
        <time>2018-09-23T08:03:11Z</time>
      </trkpt>
      <trkpt lat="40.702214436605573" lon="13.8765406049788">
        <ele>141.93000000000001</ele>
        <time>2018-09-23T08:03:21Z</time>
      </trkpt>
      <trkpt lat="40.702170431613922" lon="13.876530714333057">
        <ele>142.41</ele>
        <time>2018-09-23T08:03:27Z</time>
      </trkpt>
      <trkpt lat="40.702145034447312" lon="13.876519482582808">
        <ele>142.41</ele>
        <time>2018-09-23T08:03:30Z</time>
      </trkpt>
      <trkpt lat="40.702046966180205" lon="13.876464413478971">
        <ele>142.41</ele>
        <time>2018-09-23T08:03:41Z</time>
      </trkpt>
      <trkpt lat="40.701965745538473" lon="13.876388305798173">
        <ele>142.88999999999999</ele>
        <time>2018-09-23T08:03:52Z</time>
      </trkpt>
      <trkpt lat="40.701882094144821" lon="13.876343294978142">
        <ele>142.88999999999999</ele>
        <time>2018-09-23T08:04:02Z</time>
      </trkpt>
      <trkpt lat="40.701845297589898" lon="13.876317143440247">
        <ele>142.88999999999999</ele>
        <time>2018-09-23T08:04:06Z</time>
      </trkpt>
      <trkpt lat="40.701737673953176" lon="13.876285795122385">
        <ele>143.37</ele>
        <time>2018-09-23T08:04:18Z</time>
      </trkpt>
      <trkpt lat="40.701704984530807" lon="13.876278083771467">
        <ele>143.84999999999999</ele>
        <time>2018-09-23T08:04:21Z</time>
      </trkpt>
      <trkpt lat="40.701621752232313" lon="13.87624841183424">
        <ele>144.34</ele>
        <time>2018-09-23T08:04:32Z</time>
      </trkpt>
      <trkpt lat="40.701599791646004" lon="13.876237515360117">
        <ele>144.81999999999999</ele>
        <time>2018-09-23T08:04:35Z</time>
      </trkpt>
      <trkpt lat="40.701583446934819" lon="13.876231648027897">
        <ele>144.81999999999999</ele>
        <time>2018-09-23T08:04:37Z</time>
      </trkpt>
      <trkpt lat="40.701462496072054" lon="13.87620055116713">
        <ele>145.30000000000001</ele>
        <time>2018-09-23T08:04:50Z</time>
      </trkpt>
      <trkpt lat="40.701407343149185" lon="13.876185715198517">
        <ele>145.78</ele>
        <time>2018-09-23T08:04:56Z</time>
      </trkpt>
      <trkpt lat="40.701367780566216" lon="13.876187307760119">
        <ele>145.78</ele>
        <time>2018-09-23T08:05:00Z</time>
      </trkpt>
      <trkpt lat="40.701293181627989" lon="13.876150008291006">
        <ele>147.22</ele>
        <time>2018-09-23T08:05:12Z</time>
      </trkpt>
      <trkpt lat="40.701208943501115" lon="13.876138525083661">
        <ele>148.18000000000001</ele>
        <time>2018-09-23T08:05:23Z</time>
      </trkpt>
      <trkpt lat="40.701160579919815" lon="13.876119665801525">
        <ele>149.13999999999999</ele>
        <time>2018-09-23T08:05:30Z</time>
      </trkpt>
      <trkpt lat="40.701093021780252" lon="13.876102482900023">
        <ele>149.62</ele>
        <time>2018-09-23T08:05:39Z</time>
      </trkpt>
      <trkpt lat="40.701007023453712" lon="13.876090496778488">
        <ele>151.06</ele>
        <time>2018-09-23T08:05:49Z</time>
      </trkpt>
      <trkpt lat="40.700961509719491" lon="13.876084461808205">
        <ele>151.53999999999999</ele>
        <time>2018-09-23T08:05:54Z</time>
      </trkpt>
      <trkpt lat="40.700870649889112" lon="13.876038948073983">
        <ele>152.99000000000001</ele>
        <time>2018-09-23T08:06:07Z</time>
      </trkpt>
      <trkpt lat="40.700845587998629" lon="13.876032745465636">
        <ele>153.47</ele>
        <time>2018-09-23T08:06:11Z</time>
      </trkpt>
      <trkpt lat="40.700823878869414" lon="13.876031404361129">
        <ele>153.47</ele>
        <time>2018-09-23T08:06:13Z</time>
      </trkpt>
      <trkpt lat="40.700711645185947" lon="13.875982873141766">
        <ele>155.38999999999999</ele>
        <time>2018-09-23T08:06:26Z</time>
      </trkpt>
      <trkpt lat="40.700625227764249" lon="13.875962924212217">
        <ele>156.83000000000001</ele>
        <time>2018-09-23T08:06:37Z</time>
      </trkpt>
      <trkpt lat="40.700545767322183" lon="13.875926211476326">
        <ele>157.78999999999999</ele>
        <time>2018-09-23T08:06:48Z</time>
      </trkpt>
      <trkpt lat="40.70052171126008" lon="13.875911543145776">
        <ele>158.27000000000001</ele>
        <time>2018-09-23T08:06:51Z</time>
      </trkpt>
      <trkpt lat="40.700456164777279" lon="13.87582135386765">
        <ele>159.24000000000001</ele>
        <time>2018-09-23T08:07:02Z</time>
      </trkpt>
      <trkpt lat="40.700411405414343" lon="13.875738624483347">
        <ele>161.63999999999999</ele>
        <time>2018-09-23T08:07:13Z</time>
      </trkpt>
      <trkpt lat="40.700370334088802" lon="13.875641813501716">
        <ele>161.63999999999999</ele>
        <time>2018-09-23T08:07:25Z</time>
      </trkpt>
      <trkpt lat="40.700311660766602" lon="13.875567801296711">
        <ele>162.12</ele>
        <time>2018-09-23T08:07:36Z</time>
      </trkpt>
      <trkpt lat="40.700288526713848" lon="13.875535866245627">
        <ele>163.08000000000001</ele>
        <time>2018-09-23T08:07:50Z</time>
      </trkpt>
      <trkpt lat="40.700214430689812" lon="13.875447772443295">
        <ele>163.08000000000001</ele>
        <time>2018-09-23T08:08:04Z</time>
      </trkpt>
      <trkpt lat="40.700134634971619" lon="13.875360181555152">
        <ele>164.03999999999999</ele>
        <time>2018-09-23T08:08:17Z</time>
      </trkpt>
      <trkpt lat="40.700064478442073" lon="13.875288181006908">
        <ele>164.03999999999999</ele>
        <time>2018-09-23T08:08:29Z</time>
      </trkpt>
      <trkpt lat="40.699970433488488" lon="13.875251887366176">
        <ele>163.08000000000001</ele>
        <time>2018-09-23T08:08:41Z</time>
      </trkpt>
      <trkpt lat="40.699898935854435" lon="13.875175109133124">
        <ele>163.08000000000001</ele>
        <time>2018-09-23T08:08:51Z</time>
      </trkpt>
      <trkpt lat="40.699831377714872" lon="13.875136133283377">
        <ele>163.08000000000001</ele>
        <time>2018-09-23T08:09:00Z</time>
      </trkpt>
      <trkpt lat="40.699757700785995" lon="13.875085758045316">
        <ele>162.59999999999999</ele>
        <time>2018-09-23T08:09:09Z</time>
      </trkpt>
      <trkpt lat="40.699688047170639" lon="13.875019624829292">
        <ele>162.59999999999999</ele>
        <time>2018-09-23T08:09:20Z</time>
      </trkpt>
      <trkpt lat="40.699667176231742" lon="13.875001100823283">
        <ele>162.59999999999999</ele>
        <time>2018-09-23T08:09:23Z</time>
      </trkpt>
      <trkpt lat="40.699555864557624" lon="13.874959191307425">
        <ele>162.12</ele>
        <time>2018-09-23T08:09:35Z</time>
      </trkpt>
      <trkpt lat="40.6994603946805" lon="13.874907977879047">
        <ele>161.63999999999999</ele>
        <time>2018-09-23T08:09:47Z</time>
      </trkpt>
      <trkpt lat="40.699339779093862" lon="13.874885514378548">
        <ele>161.63999999999999</ele>
        <time>2018-09-23T08:09:59Z</time>
      </trkpt>
      <trkpt lat="40.699220756068826" lon="13.874846287071705">
        <ele>160.19999999999999</ele>
        <time>2018-09-23T08:10:12Z</time>
      </trkpt>
      <trkpt lat="40.699195442721248" lon="13.874832540750504">
        <ele>160.19999999999999</ele>
        <time>2018-09-23T08:10:23Z</time>
      </trkpt>
      <trkpt lat="40.69919602945447" lon="13.874829690903425">
        <ele>159.72</ele>
        <time>2018-09-23T08:10:34Z</time>
      </trkpt>
      <trkpt lat="40.699198292568326" lon="13.874851483851671">
        <ele>160.19999999999999</ele>
        <time>2018-09-23T08:10:42Z</time>
      </trkpt>
      <trkpt lat="40.699196783825755" lon="13.874845951795578">
        <ele>159.72</ele>
        <time>2018-09-23T08:10:52Z</time>
      </trkpt>
      <trkpt lat="40.699192257598042" lon="13.87484117411077">
        <ele>160.19999999999999</ele>
        <time>2018-09-23T08:11:01Z</time>
      </trkpt>
      <trkpt lat="40.69918873719871" lon="13.87483187019825">
        <ele>159.72</ele>
        <time>2018-09-23T08:11:11Z</time>
      </trkpt>
      <trkpt lat="40.699172476306558" lon="13.874833881855011">
        <ele>160.19999999999999</ele>
        <time>2018-09-23T08:11:21Z</time>
      </trkpt>
      <trkpt lat="40.699114222079515" lon="13.874815022572875">
        <ele>158.27000000000001</ele>
        <time>2018-09-23T08:11:30Z</time>
      </trkpt>
      <trkpt lat="40.699109444394708" lon="13.874815609306097">
        <ele>159.24000000000001</ele>
        <time>2018-09-23T08:11:31Z</time>
      </trkpt>
      <trkpt lat="40.699051022529602" lon="13.874835893511772">
        <ele>156.34999999999999</ele>
        <time>2018-09-23T08:11:41Z</time>
      </trkpt>
      <trkpt lat="40.698986146599054" lon="13.874791469424963">
        <ele>154.43000000000001</ele>
        <time>2018-09-23T08:11:51Z</time>
      </trkpt>
      <trkpt lat="40.69898103363812" lon="13.874790715053678">
        <ele>154.43000000000001</ele>
        <time>2018-09-23T08:11:52Z</time>
      </trkpt>
      <trkpt lat="40.698882881551981" lon="13.874773951247334">
        <ele>151.53999999999999</ele>
        <time>2018-09-23T08:12:04Z</time>
      </trkpt>
      <trkpt lat="40.698863686993718" lon="13.874766826629639">
        <ele>151.53999999999999</ele>
        <time>2018-09-23T08:12:06Z</time>
      </trkpt>
      <trkpt lat="40.698765534907579" lon="13.874721983447671">
        <ele>150.58000000000001</ele>
        <time>2018-09-23T08:12:17Z</time>
      </trkpt>
      <trkpt lat="40.698639303445816" lon="13.874707063660026">
        <ele>148.18000000000001</ele>
        <time>2018-09-23T08:12:30Z</time>
      </trkpt>
      <trkpt lat="40.69859454408288" lon="13.874689545482397">
        <ele>147.69999999999999</ele>
        <time>2018-09-23T08:12:40Z</time>
      </trkpt>
      <trkpt lat="40.698570990934968" lon="13.87470287270844">
        <ele>147.22</ele>
        <time>2018-09-23T08:12:48Z</time>
      </trkpt>
      <trkpt lat="40.698575600981712" lon="13.874677056446671">
        <ele>146.74000000000001</ele>
        <time>2018-09-23T08:13:01Z</time>
      </trkpt>
      <trkpt lat="40.698585575446486" lon="13.874633051455021">
        <ele>146.25999999999999</ele>
        <time>2018-09-23T08:13:16Z</time>
      </trkpt>
      <trkpt lat="40.698567554354668" lon="13.874581670388579">
        <ele>145.30000000000001</ele>
        <time>2018-09-23T08:13:27Z</time>
      </trkpt>
      <trkpt lat="40.698579205200076" lon="13.87458267621696">
        <ele>145.78</ele>
        <time>2018-09-23T08:13:42Z</time>
      </trkpt>
      <trkpt lat="40.698593035340309" lon="13.874599104747176">
        <ele>145.30000000000001</ele>
        <time>2018-09-23T08:13:54Z</time>
      </trkpt>
      <trkpt lat="40.698610721156001" lon="13.874641852453351">
        <ele>146.25999999999999</ele>
        <time>2018-09-23T08:14:04Z</time>
      </trkpt>
      <trkpt lat="40.698571996763349" lon="13.874674960970879">
        <ele>146.74000000000001</ele>
        <time>2018-09-23T08:14:15Z</time>
      </trkpt>
      <trkpt lat="40.698583899065852" lon="13.874678146094084">
        <ele>146.25999999999999</ele>
        <time>2018-09-23T08:14:29Z</time>
      </trkpt>
      <trkpt lat="40.698580127209425" lon="13.874654676765203">
        <ele>147.22</ele>
        <time>2018-09-23T08:14:40Z</time>
      </trkpt>
      <trkpt lat="40.698554227128625" lon="13.874647300690413">
        <ele>146.74000000000001</ele>
        <time>2018-09-23T08:14:59Z</time>
      </trkpt>
      <trkpt lat="40.698551293462515" lon="13.874634811654687">
        <ele>147.22</ele>
        <time>2018-09-23T08:15:25Z</time>
      </trkpt>
      <trkpt lat="40.698546012863517" lon="13.874622993171215">
        <ele>147.69999999999999</ele>
        <time>2018-09-23T08:15:53Z</time>
      </trkpt>
      <trkpt lat="40.698590101674199" lon="13.874625340104103">
        <ele>147.22</ele>
        <time>2018-09-23T08:16:06Z</time>
      </trkpt>
      <trkpt lat="40.698602590709925" lon="13.87463791295886">
        <ele>146.74000000000001</ele>
        <time>2018-09-23T08:16:16Z</time>
      </trkpt>
      <trkpt lat="40.698600243777037" lon="13.874681247398257">
        <ele>147.69999999999999</ele>
        <time>2018-09-23T08:16:31Z</time>
      </trkpt>
      <trkpt lat="40.698596891015768" lon="13.874714439734817">
        <ele>147.69999999999999</ele>
        <time>2018-09-23T08:16:41Z</time>
      </trkpt>
      <trkpt lat="40.698598567396402" lon="13.874711003154516">
        <ele>147.69999999999999</ele>
        <time>2018-09-23T08:16:58Z</time>
      </trkpt>
      <trkpt lat="40.698602925986052" lon="13.874679822474718">
        <ele>146.74000000000001</ele>
        <time>2018-09-23T08:17:19Z</time>
      </trkpt>
      <trkpt lat="40.698612062260509" lon="13.874672949314117">
        <ele>147.22</ele>
        <time>2018-09-23T08:17:33Z</time>
      </trkpt>
      <trkpt lat="40.698614493012428" lon="13.87467797845602">
        <ele>147.22</ele>
        <time>2018-09-23T08:17:48Z</time>
      </trkpt>
      <trkpt lat="40.698621114715934" lon="13.874673536047339">
        <ele>147.69999999999999</ele>
        <time>2018-09-23T08:18:07Z</time>
      </trkpt>
      <trkpt lat="40.698616420850158" lon="13.874687785282731">
        <ele>147.22</ele>
        <time>2018-09-23T08:18:25Z</time>
      </trkpt>
      <trkpt lat="40.698626562952995" lon="13.874667081981897">
        <ele>147.22</ele>
        <time>2018-09-23T08:18:47Z</time>
      </trkpt>
      <trkpt lat="40.698623126372695" lon="13.874682588502765">
        <ele>147.69999999999999</ele>
        <time>2018-09-23T08:19:05Z</time>
      </trkpt>
      <trkpt lat="40.698619605973363" lon="13.874664232134819">
        <ele>147.69999999999999</ele>
        <time>2018-09-23T08:19:21Z</time>
      </trkpt>
      <trkpt lat="40.698614995926619" lon="13.874657191336155">
        <ele>148.18000000000001</ele>
        <time>2018-09-23T08:19:44Z</time>
      </trkpt>
      <trkpt lat="40.698619270697236" lon="13.874659538269043">
        <ele>147.69999999999999</ele>
        <time>2018-09-23T08:20:03Z</time>
      </trkpt>
      <trkpt lat="40.698610385879874" lon="13.87465107254684">
        <ele>147.69999999999999</ele>
        <time>2018-09-23T08:20:22Z</time>
      </trkpt>
      <trkpt lat="40.698626479133964" lon="13.874665573239326">
        <ele>148.18000000000001</ele>
        <time>2018-09-23T08:20:39Z</time>
      </trkpt>
      <trkpt lat="40.698629831895232" lon="13.874676218256354">
        <ele>147.69999999999999</ele>
        <time>2018-09-23T08:21:03Z</time>
      </trkpt>
      <trkpt lat="40.698629999533296" lon="13.874677224084735">
        <ele>147.22</ele>
        <time>2018-09-23T08:21:20Z</time>
      </trkpt>
      <trkpt lat="40.698627401143312" lon="13.874673787504435">
        <ele>147.69999999999999</ele>
        <time>2018-09-23T08:21:40Z</time>
      </trkpt>
      <trkpt lat="40.698631089180708" lon="13.874683259055018">
        <ele>147.69999999999999</ele>
        <time>2018-09-23T08:22:05Z</time>
      </trkpt>
      <trkpt lat="40.698632849380374" lon="13.874678481370211">
        <ele>147.22</ele>
        <time>2018-09-23T08:22:20Z</time>
      </trkpt>
      <trkpt lat="40.698634358122945" lon="13.874668506905437">
        <ele>146.74000000000001</ele>
        <time>2018-09-23T08:22:44Z</time>
      </trkpt>
      <trkpt lat="40.698626227676868" lon="13.874667417258024">
        <ele>147.22</ele>
        <time>2018-09-23T08:23:06Z</time>
      </trkpt>
      <trkpt lat="40.698631592094898" lon="13.874670434743166">
        <ele>146.74000000000001</ele>
        <time>2018-09-23T08:23:28Z</time>
      </trkpt>
      <trkpt lat="40.698613990098238" lon="13.874682169407606">
        <ele>146.74000000000001</ele>
        <time>2018-09-23T08:23:53Z</time>
      </trkpt>
      <trkpt lat="40.698611056432128" lon="13.874682420864701">
        <ele>146.74000000000001</ele>
        <time>2018-09-23T08:24:23Z</time>
      </trkpt>
      <trkpt lat="40.698614241555333" lon="13.87469164095819">
        <ele>147.22</ele>
        <time>2018-09-23T08:24:47Z</time>
      </trkpt>
      <trkpt lat="40.698615666478872" lon="13.874705135822296">
        <ele>147.22</ele>
        <time>2018-09-23T08:25:15Z</time>
      </trkpt>
      <trkpt lat="40.698660258203745" lon="13.874705722555518">
        <ele>147.22</ele>
        <time>2018-09-23T08:25:34Z</time>
      </trkpt>
      <trkpt lat="40.698738377541304" lon="13.874704549089074">
        <ele>148.18000000000001</ele>
        <time>2018-09-23T08:25:47Z</time>
      </trkpt>
      <trkpt lat="40.698796464130282" lon="13.874736819416285">
        <ele>148.66</ele>
        <time>2018-09-23T08:26:01Z</time>
      </trkpt>
      <trkpt lat="40.698844911530614" lon="13.8747688382864">
        <ele>149.62</ele>
        <time>2018-09-23T08:26:14Z</time>
      </trkpt>
      <trkpt lat="40.698854718357325" lon="13.874768419191241">
        <ele>150.09999999999999</ele>
        <time>2018-09-23T08:26:33Z</time>
      </trkpt>
      <trkpt lat="40.698902327567339" lon="13.874767078086734">
        <ele>149.62</ele>
        <time>2018-09-23T08:26:48Z</time>
      </trkpt>
      <trkpt lat="40.698928730562329" lon="13.874773699790239">
        <ele>151.53999999999999</ele>
        <time>2018-09-23T08:26:57Z</time>
      </trkpt>
      <trkpt lat="40.69898690097034" lon="13.874792978167534">
        <ele>152.03</ele>
        <time>2018-09-23T08:27:08Z</time>
      </trkpt>
      <trkpt lat="40.698977597057819" lon="13.87478400953114">
        <ele>152.03</ele>
        <time>2018-09-23T08:27:23Z</time>
      </trkpt>
      <trkpt lat="40.699027888476849" lon="13.874805886298418">
        <ele>153.47</ele>
        <time>2018-09-23T08:27:33Z</time>
      </trkpt>
      <trkpt lat="40.699067367240787" lon="13.874826338142157">
        <ele>154.43000000000001</ele>
        <time>2018-09-23T08:27:43Z</time>
      </trkpt>
      <trkpt lat="40.699129812419415" lon="13.874826924875379">
        <ele>156.34999999999999</ele>
        <time>2018-09-23T08:27:52Z</time>
      </trkpt>
      <trkpt lat="40.699163004755974" lon="13.874830864369869">
        <ele>157.31</ele>
        <time>2018-09-23T08:27:56Z</time>
      </trkpt>
      <trkpt lat="40.699266521260142" lon="13.874867996200919">
        <ele>158.75</ele>
        <time>2018-09-23T08:28:07Z</time>
      </trkpt>
      <trkpt lat="40.699374983087182" lon="13.874903451651335">
        <ele>159.72</ele>
        <time>2018-09-23T08:28:18Z</time>
      </trkpt>
      <trkpt lat="40.69950582459569" lon="13.874919544905424">
        <ele>159.72</ele>
        <time>2018-09-23T08:28:30Z</time>
      </trkpt>
      <trkpt lat="40.699581513181329" lon="13.874956676736474">
        <ele>159.72</ele>
        <time>2018-09-23T08:28:42Z</time>
      </trkpt>
      <trkpt lat="40.699639013037086" lon="13.87498333118856">
        <ele>159.72</ele>
        <time>2018-09-23T08:28:54Z</time>
      </trkpt>
      <trkpt lat="40.699720652773976" lon="13.875023983418941">
        <ele>160.19999999999999</ele>
        <time>2018-09-23T08:29:04Z</time>
      </trkpt>
      <trkpt lat="40.699837915599346" lon="13.875133115798235">
        <ele>160.68000000000001</ele>
        <time>2018-09-23T08:29:19Z</time>
      </trkpt>
      <trkpt lat="40.69994168356061" lon="13.87519346550107">
        <ele>161.16</ele>
        <time>2018-09-23T08:29:32Z</time>
      </trkpt>
      <trkpt lat="40.700035057961941" lon="13.875281475484371">
        <ele>161.16</ele>
        <time>2018-09-23T08:29:45Z</time>
      </trkpt>
      <trkpt lat="40.700113428756595" lon="13.875328078866005">
        <ele>162.12</ele>
        <time>2018-09-23T08:29:57Z</time>
      </trkpt>
      <trkpt lat="40.700144609436393" lon="13.875360768288374">
        <ele>163.56</ele>
        <time>2018-09-23T08:30:09Z</time>
      </trkpt>
      <trkpt lat="40.700236055999994" lon="13.875460429117084">
        <ele>161.16</ele>
        <time>2018-09-23T08:30:21Z</time>
      </trkpt>
      <trkpt lat="40.700289364904165" lon="13.875535447150469">
        <ele>160.68000000000001</ele>
        <time>2018-09-23T08:30:32Z</time>
      </trkpt>
      <trkpt lat="40.700359521433711" lon="13.875633096322417">
        <ele>159.72</ele>
        <time>2018-09-23T08:30:43Z</time>
      </trkpt>
      <trkpt lat="40.700380560010672" lon="13.875650279223919">
        <ele>159.72</ele>
        <time>2018-09-23T08:30:54Z</time>
      </trkpt>
      <trkpt lat="40.700384331867099" lon="13.875664947554469">
        <ele>159.72</ele>
        <time>2018-09-23T08:31:03Z</time>
      </trkpt>
      <trkpt lat="40.700406795367599" lon="13.87570459395647">
        <ele>159.72</ele>
        <time>2018-09-23T08:31:13Z</time>
      </trkpt>
      <trkpt lat="40.700421463698149" lon="13.875729404389858">
        <ele>159.72</ele>
        <time>2018-09-23T08:31:26Z</time>
      </trkpt>
      <trkpt lat="40.700451973825693" lon="13.875770559534431">
        <ele>159.24000000000001</ele>
        <time>2018-09-23T08:31:37Z</time>
      </trkpt>
      <trkpt lat="40.700461445376277" lon="13.875801153481007">
        <ele>158.75</ele>
        <time>2018-09-23T08:31:47Z</time>
      </trkpt>
      <trkpt lat="40.700493548065424" lon="13.875836776569486">
        <ele>157.78999999999999</ele>
        <time>2018-09-23T08:31:56Z</time>
      </trkpt>
      <trkpt lat="40.700585497543216" lon="13.87591321952641">
        <ele>155.87</ele>
        <time>2018-09-23T08:32:08Z</time>
      </trkpt>
      <trkpt lat="40.70062967017293" lon="13.875939287245274">
        <ele>155.38999999999999</ele>
        <time>2018-09-23T08:32:19Z</time>
      </trkpt>
      <trkpt lat="40.700670573860407" lon="13.875951021909714">
        <ele>154.43000000000001</ele>
        <time>2018-09-23T08:32:29Z</time>
      </trkpt>
      <trkpt lat="40.700737629085779" lon="13.875973066315055">
        <ele>152.99000000000001</ele>
        <time>2018-09-23T08:32:40Z</time>
      </trkpt>
      <trkpt lat="40.700760008767247" lon="13.875983627513051">
        <ele>152.50999999999999</ele>
        <time>2018-09-23T08:32:50Z</time>
      </trkpt>
      <trkpt lat="40.70079286582768" lon="13.875995445996523">
        <ele>152.03</ele>
        <time>2018-09-23T08:32:59Z</time>
      </trkpt>
      <trkpt lat="40.700829243287444" lon="13.876008605584502">
        <ele>151.53999999999999</ele>
        <time>2018-09-23T08:33:10Z</time>
      </trkpt>
      <trkpt lat="40.700861345976591" lon="13.876017741858959">
        <ele>151.06</ele>
        <time>2018-09-23T08:33:18Z</time>
      </trkpt>
      <trkpt lat="40.700902165845037" lon="13.876041295006871">
        <ele>150.09999999999999</ele>
        <time>2018-09-23T08:33:27Z</time>
      </trkpt>
      <trkpt lat="40.700961006805301" lon="13.876062836498022">
        <ele>149.13999999999999</ele>
        <time>2018-09-23T08:33:40Z</time>
      </trkpt>
      <trkpt lat="40.701007107272744" lon="13.876076079905033">
        <ele>148.66</ele>
        <time>2018-09-23T08:33:52Z</time>
      </trkpt>
      <trkpt lat="40.701055303215981" lon="13.876069039106369">
        <ele>148.18000000000001</ele>
        <time>2018-09-23T08:34:03Z</time>
      </trkpt>
      <trkpt lat="40.701106768101454" lon="13.87608571909368">
        <ele>147.22</ele>
        <time>2018-09-23T08:34:13Z</time>
      </trkpt>
      <trkpt lat="40.701116574928164" lon="13.876086054369807">
        <ele>146.74000000000001</ele>
        <time>2018-09-23T08:34:24Z</time>
      </trkpt>
      <trkpt lat="40.701109701767564" lon="13.876079181209207">
        <ele>146.74000000000001</ele>
        <time>2018-09-23T08:34:45Z</time>
      </trkpt>
      <trkpt lat="40.701163681223989" lon="13.876104494556785">
        <ele>146.74000000000001</ele>
        <time>2018-09-23T08:34:54Z</time>
      </trkpt>
      <trkpt lat="40.701209362596273" lon="13.87611161917448">
        <ele>146.25999999999999</ele>
        <time>2018-09-23T08:35:03Z</time>
      </trkpt>
      <trkpt lat="40.701220510527492" lon="13.87612234801054">
        <ele>146.25999999999999</ele>
        <time>2018-09-23T08:35:06Z</time>
      </trkpt>
      <trkpt lat="40.701280944049358" lon="13.876143470406532">
        <ele>144.34</ele>
        <time>2018-09-23T08:35:16Z</time>
      </trkpt>
      <trkpt lat="40.701334504410625" lon="13.876143470406532">
        <ele>143.84999999999999</ele>
        <time>2018-09-23T08:35:27Z</time>
      </trkpt>
      <trkpt lat="40.701361829414964" lon="13.87615361250937">
        <ele>143.37</ele>
        <time>2018-09-23T08:35:30Z</time>
      </trkpt>
      <trkpt lat="40.70153659209609" lon="13.876209938898683">
        <ele>142.41</ele>
        <time>2018-09-23T08:35:46Z</time>
      </trkpt>
      <trkpt lat="40.701586212962866" lon="13.876224355772138">
        <ele>142.41</ele>
        <time>2018-09-23T08:35:56Z</time>
      </trkpt>
      <trkpt lat="40.70162795484066" lon="13.876230977475643">
        <ele>141.93000000000001</ele>
        <time>2018-09-23T08:36:06Z</time>
      </trkpt>
      <trkpt lat="40.701685538515449" lon="13.876251764595509">
        <ele>141.44999999999999</ele>
        <time>2018-09-23T08:36:17Z</time>
      </trkpt>
      <trkpt lat="40.701720910146832" lon="13.876261403784156">
        <ele>140.97</ele>
        <time>2018-09-23T08:36:26Z</time>
      </trkpt>
      <trkpt lat="40.701783187687397" lon="13.876293757930398">
        <ele>140.49000000000001</ele>
        <time>2018-09-23T08:36:36Z</time>
      </trkpt>
      <trkpt lat="40.701888967305422" lon="13.876339271664619">
        <ele>140.00999999999999</ele>
        <time>2018-09-23T08:36:48Z</time>
      </trkpt>
      <trkpt lat="40.701933642849326" lon="13.876360729336739">
        <ele>140.00999999999999</ele>
        <time>2018-09-23T08:36:59Z</time>
      </trkpt>
      <trkpt lat="40.702012097463012" lon="13.876426108181477">
        <ele>139.53</ele>
        <time>2018-09-23T08:37:11Z</time>
      </trkpt>
      <trkpt lat="40.702095497399569" lon="13.876470951363444">
        <ele>139.05000000000001</ele>
        <time>2018-09-23T08:37:24Z</time>
      </trkpt>
      <trkpt lat="40.702136401087046" lon="13.876498527824879">
        <ele>139.05000000000001</ele>
        <time>2018-09-23T08:37:33Z</time>
      </trkpt>
      <trkpt lat="40.702202618122101" lon="13.87652400881052">
        <ele>138.56999999999999</ele>
        <time>2018-09-23T08:37:45Z</time>
      </trkpt>
      <trkpt lat="40.702231032773852" lon="13.876485452055931">
        <ele>138.09</ele>
        <time>2018-09-23T08:37:57Z</time>
      </trkpt>
      <trkpt lat="40.702248634770513" lon="13.87643457390368">
        <ele>138.09</ele>
        <time>2018-09-23T08:38:12Z</time>
      </trkpt>
      <trkpt lat="40.702279228717089" lon="13.876370619982481">
        <ele>137.13</ele>
        <time>2018-09-23T08:38:23Z</time>
      </trkpt>
      <trkpt lat="40.702293058857322" lon="13.876321837306023">
        <ele>136.63999999999999</ele>
        <time>2018-09-23T08:38:33Z</time>
      </trkpt>
      <trkpt lat="40.702312588691711" lon="13.876291243359447">
        <ele>136.16</ele>
        <time>2018-09-23T08:38:44Z</time>
      </trkpt>
      <trkpt lat="40.70232817903161" lon="13.876233240589499">
        <ele>134.72</ele>
        <time>2018-09-23T08:38:53Z</time>
      </trkpt>
      <trkpt lat="40.70233941078186" lon="13.876201724633574">
        <ele>134.24000000000001</ele>
        <time>2018-09-23T08:39:02Z</time>
      </trkpt>
      <trkpt lat="40.702364891767502" lon="13.876148415729403">
        <ele>133.75999999999999</ele>
        <time>2018-09-23T08:39:13Z</time>
      </trkpt>
      <trkpt lat="40.702390456572175" lon="13.876050682738423">
        <ele>132.80000000000001</ele>
        <time>2018-09-23T08:39:25Z</time>
      </trkpt>
      <trkpt lat="40.702391881495714" lon="13.876024866476655">
        <ele>132.80000000000001</ele>
        <time>2018-09-23T08:39:36Z</time>
      </trkpt>
      <trkpt lat="40.702412752434611" lon="13.875996116548777">
        <ele>132.31999999999999</ele>
        <time>2018-09-23T08:39:46Z</time>
      </trkpt>
      <trkpt lat="40.702423984184861" lon="13.875971641391516">
        <ele>131.84</ele>
        <time>2018-09-23T08:39:58Z</time>
      </trkpt>
      <trkpt lat="40.702434796839952" lon="13.875940544530749">
        <ele>131.84</ele>
        <time>2018-09-23T08:40:11Z</time>
      </trkpt>
      <trkpt lat="40.702453656122088" lon="13.875906597822905">
        <ele>131.36000000000001</ele>
        <time>2018-09-23T08:40:22Z</time>
      </trkpt>
      <trkpt lat="40.702492464333773" lon="13.875913303345442">
        <ele>131.36000000000001</ele>
        <time>2018-09-23T08:40:34Z</time>
      </trkpt>
      <trkpt lat="40.70250160060823" lon="13.875913890078664">
        <ele>131.36000000000001</ele>
        <time>2018-09-23T08:40:35Z</time>
      </trkpt>
      <trkpt lat="40.702606458216906" lon="13.875929899513721">
        <ele>131.36000000000001</ele>
        <time>2018-09-23T08:40:48Z</time>
      </trkpt>
      <trkpt lat="40.702684745192528" lon="13.875971054658294">
        <ele>131.36000000000001</ele>
        <time>2018-09-23T08:41:00Z</time>
      </trkpt>
      <trkpt lat="40.70276839658618" lon="13.876016903668642">
        <ele>131.36000000000001</ele>
        <time>2018-09-23T08:41:12Z</time>
      </trkpt>
      <trkpt lat="40.702859926968813" lon="13.87607004493475">
        <ele>131.36000000000001</ele>
        <time>2018-09-23T08:41:23Z</time>
      </trkpt>
      <trkpt lat="40.703002419322729" lon="13.876101560890675">
        <ele>131.84</ele>
        <time>2018-09-23T08:41:36Z</time>
      </trkpt>
      <trkpt lat="40.703113898634911" lon="13.876128047704697">
        <ele>131.84</ele>
        <time>2018-09-23T08:41:49Z</time>
      </trkpt>
      <trkpt lat="40.703217163681984" lon="13.87614481151104">
        <ele>131.84</ele>
        <time>2018-09-23T08:42:01Z</time>
      </trkpt>
      <trkpt lat="40.70333082228899" lon="13.876163335517049">
        <ele>131.84</ele>
        <time>2018-09-23T08:42:14Z</time>
      </trkpt>
      <trkpt lat="40.703460490331054" lon="13.876210274174809">
        <ele>131.84</ele>
        <time>2018-09-23T08:42:27Z</time>
      </trkpt>
      <trkpt lat="40.703568868339062" lon="13.876244304701686">
        <ele>131.84</ele>
        <time>2018-09-23T08:42:39Z</time>
      </trkpt>
      <trkpt lat="40.703625027090311" lon="13.876289902254939">
        <ele>131.84</ele>
        <time>2018-09-23T08:42:50Z</time>
      </trkpt>
      <trkpt lat="40.703636007383466" lon="13.876298954710364">
        <ele>131.84</ele>
        <time>2018-09-23T08:42:52Z</time>
      </trkpt>
      <trkpt lat="40.703680012375116" lon="13.876294512301683">
        <ele>132.31999999999999</ele>
        <time>2018-09-23T08:42:57Z</time>
      </trkpt>
      <trkpt lat="40.70375788025558" lon="13.876284370198846">
        <ele>132.80000000000001</ele>
        <time>2018-09-23T08:43:07Z</time>
      </trkpt>
      <trkpt lat="40.703804651275277" lon="13.87628797441721">
        <ele>132.80000000000001</ele>
        <time>2018-09-23T08:43:18Z</time>
      </trkpt>
      <trkpt lat="40.703802052885294" lon="13.876289483159781">
        <ele>132.80000000000001</ele>
        <time>2018-09-23T08:43:38Z</time>
      </trkpt>
      <trkpt lat="40.703799538314342" lon="13.876292333006859">
        <ele>132.80000000000001</ele>
        <time>2018-09-23T08:43:54Z</time>
      </trkpt>
      <trkpt lat="40.703799957409501" lon="13.876284202560782">
        <ele>132.80000000000001</ele>
        <time>2018-09-23T08:44:08Z</time>
      </trkpt>
      <trkpt lat="40.703804986551404" lon="13.876298451796174">
        <ele>132.31999999999999</ele>
        <time>2018-09-23T08:44:22Z</time>
      </trkpt>
      <trkpt lat="40.703801885247231" lon="13.876286884769797">
        <ele>132.80000000000001</ele>
        <time>2018-09-23T08:44:40Z</time>
      </trkpt>
      <trkpt lat="40.703791072592139" lon="13.87628210708499">
        <ele>132.80000000000001</ele>
        <time>2018-09-23T08:44:55Z</time>
      </trkpt>
      <trkpt lat="40.703784450888634" lon="13.876268109306693">
        <ele>132.80000000000001</ele>
        <time>2018-09-23T08:45:09Z</time>
      </trkpt>
      <trkpt lat="40.703786462545395" lon="13.876280849799514">
        <ele>132.80000000000001</ele>
        <time>2018-09-23T08:45:20Z</time>
      </trkpt>
      <trkpt lat="40.703786881640553" lon="13.876294093206525">
        <ele>132.80000000000001</ele>
        <time>2018-09-23T08:45:35Z</time>
      </trkpt>
      <trkpt lat="40.703774392604828" lon="13.876272719353437">
        <ele>131.36000000000001</ele>
        <time>2018-09-23T08:45:46Z</time>
      </trkpt>
      <trkpt lat="40.703815463930368" lon="13.876274647191167">
        <ele>131.36000000000001</ele>
        <time>2018-09-23T08:46:09Z</time>
      </trkpt>
      <trkpt lat="40.703796856105328" lon="13.876256961375475">
        <ele>131.84</ele>
        <time>2018-09-23T08:46:16Z</time>
      </trkpt>
      <trkpt lat="40.703801549971104" lon="13.876274563372135">
        <ele>132.80000000000001</ele>
        <time>2018-09-23T08:46:24Z</time>
      </trkpt>
      <trkpt lat="40.703796856105328" lon="13.876264840364456">
        <ele>132.80000000000001</ele>
        <time>2018-09-23T08:46:37Z</time>
      </trkpt>
      <trkpt lat="40.703809428960085" lon="13.876257631927729">
        <ele>132.80000000000001</ele>
        <time>2018-09-23T08:46:48Z</time>
      </trkpt>
      <trkpt lat="40.703798113390803" lon="13.876186385750771">
        <ele>131.36000000000001</ele>
        <time>2018-09-23T08:47:06Z</time>
      </trkpt>
      <trkpt lat="40.703712115064263" lon="13.876228211447597">
        <ele>128.47</ele>
        <time>2018-09-23T08:47:24Z</time>
      </trkpt>
      <trkpt lat="40.703674145042896" lon="13.876258051022887">
        <ele>127.51000000000001</ele>
        <time>2018-09-23T08:47:35Z</time>
      </trkpt>
      <trkpt lat="40.703629637137055" lon="13.876218739897013">
        <ele>125.11</ele>
        <time>2018-09-23T08:47:45Z</time>
      </trkpt>
      <trkpt lat="40.703629972413182" lon="13.876154450699687">
        <ele>123.67</ele>
        <time>2018-09-23T08:47:55Z</time>
      </trkpt>
      <trkpt lat="40.703623602166772" lon="13.876080270856619">
        <ele>121.26000000000001</ele>
        <time>2018-09-23T08:48:08Z</time>
      </trkpt>
      <trkpt lat="40.703613040968776" lon="13.87601925060153">
        <ele>119.81999999999999</ele>
        <time>2018-09-23T08:48:18Z</time>
      </trkpt>
      <trkpt lat="40.703620668500662" lon="13.875927636399865">
        <ele>117.42</ele>
        <time>2018-09-23T08:48:31Z</time>
      </trkpt>
      <trkpt lat="40.703601725399494" lon="13.875855803489685">
        <ele>115.98</ele>
        <time>2018-09-23T08:48:42Z</time>
      </trkpt>
      <trkpt lat="40.703589823096991" lon="13.875830909237266">
        <ele>115.01000000000001</ele>
        <time>2018-09-23T08:48:45Z</time>
      </trkpt>
      <trkpt lat="40.703475577756763" lon="13.875772403553128">
        <ele>113.09</ele>
        <time>2018-09-23T08:48:57Z</time>
      </trkpt>
      <trkpt lat="40.703464429825544" lon="13.875767793506384">
        <ele>113.09</ele>
        <time>2018-09-23T08:48:58Z</time>
      </trkpt>
      <trkpt lat="40.703388154506683" lon="13.875747425481677">
        <ele>112.61</ele>
        <time>2018-09-23T08:49:05Z</time>
      </trkpt>
      <trkpt lat="40.703281871974468" lon="13.875719597563148">
        <ele>111.17</ele>
        <time>2018-09-23T08:49:16Z</time>
      </trkpt>
      <trkpt lat="40.70316955447197" lon="13.875653967261314">
        <ele>110.69</ele>
        <time>2018-09-23T08:49:28Z</time>
      </trkpt>
      <trkpt lat="40.703103253617883" lon="13.875622786581516">
        <ele>108.77</ele>
        <time>2018-09-23T08:49:39Z</time>
      </trkpt>
      <trkpt lat="40.703071402385831" lon="13.875584816560149">
        <ele>107.31999999999999</ele>
        <time>2018-09-23T08:49:44Z</time>
      </trkpt>
      <trkpt lat="40.702977692708373" lon="13.875504853203893">
        <ele>106.84</ele>
        <time>2018-09-23T08:49:55Z</time>
      </trkpt>
      <trkpt lat="40.702929077669978" lon="13.875459842383862">
        <ele>106.84</ele>
        <time>2018-09-23T08:50:02Z</time>
      </trkpt>
      <trkpt lat="40.702869817614555" lon="13.875310560688376">
        <ele>104.92</ele>
        <time>2018-09-23T08:50:14Z</time>
      </trkpt>
      <trkpt lat="40.702775437384844" lon="13.875229842960835">
        <ele>103.95999999999999</ele>
        <time>2018-09-23T08:50:26Z</time>
      </trkpt>
      <trkpt lat="40.702697401866317" lon="13.875178964808583">
        <ele>103.48</ele>
        <time>2018-09-23T08:50:36Z</time>
      </trkpt>
      <trkpt lat="40.702620120719075" lon="13.875125655904412">
        <ele>102.52</ele>
        <time>2018-09-23T08:50:47Z</time>
      </trkpt>
      <trkpt lat="40.702554238960147" lon="13.875080393627286">
        <ele>102.04000000000001</ele>
        <time>2018-09-23T08:50:59Z</time>
      </trkpt>
      <trkpt lat="40.702514424920082" lon="13.875065222382545">
        <ele>102.04000000000001</ele>
        <time>2018-09-23T08:51:04Z</time>
      </trkpt>
      <trkpt lat="40.702449548989534" lon="13.874967154115438">
        <ele>100.59999999999999</ele>
        <time>2018-09-23T08:51:15Z</time>
      </trkpt>
      <trkpt lat="40.7024478726089" lon="13.874874534085393">
        <ele>100.11</ele>
        <time>2018-09-23T08:51:21Z</time>
      </trkpt>
      <trkpt lat="40.70239556953311" lon="13.874702705070376">
        <ele>99.150000000000006</ele>
        <time>2018-09-23T08:51:33Z</time>
      </trkpt>
      <trkpt lat="40.702389115467668" lon="13.874616455286741">
        <ele>99.150000000000006</ele>
        <time>2018-09-23T08:51:39Z</time>
      </trkpt>
      <trkpt lat="40.702352402731776" lon="13.874488463625312">
        <ele>98.670000000000002</ele>
        <time>2018-09-23T08:51:52Z</time>
      </trkpt>
      <trkpt lat="40.702355587854981" lon="13.874344043433666">
        <ele>98.189999999999998</ele>
        <time>2018-09-23T08:52:03Z</time>
      </trkpt>
      <trkpt lat="40.702359024435282" lon="13.874229546636343">
        <ele>97.709999999999994</ele>
        <time>2018-09-23T08:52:15Z</time>
      </trkpt>
      <trkpt lat="40.702367071062326" lon="13.874079762026668">
        <ele>96.75</ele>
        <time>2018-09-23T08:52:29Z</time>
      </trkpt>
      <trkpt lat="40.702378554269671" lon="13.873996362090111">
        <ele>95.790000000000006</ele>
        <time>2018-09-23T08:52:36Z</time>
      </trkpt>
      <trkpt lat="40.702300602570176" lon="13.873891672119498">
        <ele>95.310000000000002</ele>
        <time>2018-09-23T08:52:48Z</time>
      </trkpt>
      <trkpt lat="40.702236732468009" lon="13.873848840594292">
        <ele>95.310000000000002</ele>
        <time>2018-09-23T08:52:55Z</time>
      </trkpt>
      <trkpt lat="40.702128522098064" lon="13.873796621337533">
        <ele>94.349999999999994</ele>
        <time>2018-09-23T08:53:07Z</time>
      </trkpt>
      <trkpt lat="40.702037829905748" lon="13.873794609680772">
        <ele>93.870000000000005</ele>
        <time>2018-09-23T08:53:18Z</time>
      </trkpt>
      <trkpt lat="40.701951999217272" lon="13.873820174485445">
        <ele>93.390000000000001</ele>
        <time>2018-09-23T08:53:28Z</time>
      </trkpt>
      <trkpt lat="40.701857870444655" lon="13.873850265517831">
        <ele>93.390000000000001</ele>
        <time>2018-09-23T08:53:38Z</time>
      </trkpt>
      <trkpt lat="40.70182534866035" lon="13.873853283002973">
        <ele>92.900000000000006</ele>
        <time>2018-09-23T08:53:42Z</time>
      </trkpt>
      <trkpt lat="40.701747396960855" lon="13.873865939676762">
        <ele>92.900000000000006</ele>
        <time>2018-09-23T08:53:51Z</time>
      </trkpt>
      <trkpt lat="40.701652429997921" lon="13.87392251752317">
        <ele>91.939999999999998</ele>
        <time>2018-09-23T08:54:03Z</time>
      </trkpt>
      <trkpt lat="40.701559809967875" lon="13.873892929404974">
        <ele>91.459999999999994</ele>
        <time>2018-09-23T08:54:14Z</time>
      </trkpt>
      <trkpt lat="40.701452856883407" lon="13.87377692386508">
        <ele>90.980000000000004</ele>
        <time>2018-09-23T08:54:28Z</time>
      </trkpt>
      <trkpt lat="40.701345903798938" lon="13.873724285513163">
        <ele>90.980000000000004</ele>
        <time>2018-09-23T08:54:41Z</time>
      </trkpt>
      <trkpt lat="40.701247164979577" lon="13.873661337420344">
        <ele>90.5</ele>
        <time>2018-09-23T08:54:53Z</time>
      </trkpt>
      <trkpt lat="40.701233670115471" lon="13.873625714331865">
        <ele>90.5</ele>
        <time>2018-09-23T08:54:57Z</time>
      </trkpt>
      <trkpt lat="40.70129862986505" lon="13.873467547819018">
        <ele>89.540000000000006</ele>
        <time>2018-09-23T08:55:11Z</time>
      </trkpt>
      <trkpt lat="40.701308939605951" lon="13.873413736000657">
        <ele>89.060000000000002</ele>
        <time>2018-09-23T08:55:16Z</time>
      </trkpt>
      <trkpt lat="40.701228221878409" lon="13.873363193124533">
        <ele>88.579999999999998</ele>
        <time>2018-09-23T08:55:26Z</time>
      </trkpt>
      <trkpt lat="40.701175918802619" lon="13.873343830928206">
        <ele>88.579999999999998</ele>
        <time>2018-09-23T08:55:31Z</time>
      </trkpt>
      <trkpt lat="40.701119927689433" lon="13.873266549780965">
        <ele>88.579999999999998</ele>
        <time>2018-09-23T08:55:42Z</time>
      </trkpt>
      <trkpt lat="40.70109536871314" lon="13.873247858136892">
        <ele>88.099999999999994</ele>
        <time>2018-09-23T08:55:46Z</time>
      </trkpt>
      <trkpt lat="40.701069384813309" lon="13.873169906437397">
        <ele>87.620000000000005</ele>
        <time>2018-09-23T08:55:56Z</time>
      </trkpt>
      <trkpt lat="40.701086400076747" lon="13.873044177889824">
        <ele>86.659999999999997</ele>
        <time>2018-09-23T08:56:10Z</time>
      </trkpt>
      <trkpt lat="40.701095284894109" lon="13.87297167442739">
        <ele>85.209999999999994</ele>
        <time>2018-09-23T08:56:19Z</time>
      </trkpt>
      <trkpt lat="40.701101152226329" lon="13.872923813760281">
        <ele>84.25</ele>
        <time>2018-09-23T08:56:25Z</time>
      </trkpt>
      <trkpt lat="40.701113389804959" lon="13.872855668887496">
        <ele>83.769999999999996</ele>
        <time>2018-09-23T08:56:30Z</time>
      </trkpt>
      <trkpt lat="40.701175415888429" lon="13.872782494872808">
        <ele>84.730000000000004</ele>
        <time>2018-09-23T08:56:41Z</time>
      </trkpt>
      <trkpt lat="40.701169800013304" lon="13.872722899541259">
        <ele>85.209999999999994</ele>
        <time>2018-09-23T08:56:52Z</time>
      </trkpt>
      <trkpt lat="40.701139038428664" lon="13.87270244769752">
        <ele>83.769999999999996</ele>
        <time>2018-09-23T08:57:01Z</time>
      </trkpt>
      <trkpt lat="40.701108193024993" lon="13.872716696932912">
        <ele>82.810000000000002</ele>
        <time>2018-09-23T08:57:16Z</time>
      </trkpt>
      <trkpt lat="40.701111378148198" lon="13.872709823772311">
        <ele>81.849999999999994</ele>
        <time>2018-09-23T08:57:25Z</time>
      </trkpt>
      <trkpt lat="40.701103582978249" lon="13.872751230373979">
        <ele>79.450000000000003</ele>
        <time>2018-09-23T08:57:37Z</time>
      </trkpt>
      <trkpt lat="40.701072067022324" lon="13.872791044414043">
        <ele>76.560000000000002</ele>
        <time>2018-09-23T08:57:48Z</time>
      </trkpt>
      <trkpt lat="40.701010124757886" lon="13.872789368033409">
        <ele>74.159999999999997</ele>
        <time>2018-09-23T08:57:59Z</time>
      </trkpt>
      <trkpt lat="40.700973160564899" lon="13.872789200395346">
        <ele>72.719999999999999</ele>
        <time>2018-09-23T08:58:07Z</time>
      </trkpt>
      <trkpt lat="40.700950529426336" lon="13.87275374494493">
        <ele>71.760000000000005</ele>
        <time>2018-09-23T08:58:19Z</time>
      </trkpt>
      <trkpt lat="40.70093653164804" lon="13.872713092714548">
        <ele>70.310000000000002</ele>
        <time>2018-09-23T08:58:28Z</time>
      </trkpt>
      <trkpt lat="40.700922198593616" lon="13.872716696932912">
        <ele>67.909999999999997</ele>
        <time>2018-09-23T08:58:38Z</time>
      </trkpt>
      <trkpt lat="40.70093602873385" lon="13.872715020552278">
        <ele>68.390000000000001</ele>
        <time>2018-09-23T08:58:47Z</time>
      </trkpt>
      <trkpt lat="40.700932592153549" lon="13.872709823772311">
        <ele>68.390000000000001</ele>
        <time>2018-09-23T08:58:58Z</time>
      </trkpt>
      <trkpt lat="40.700891688466072" lon="13.87263840995729">
        <ele>65.989999999999995</ele>
        <time>2018-09-23T08:59:10Z</time>
      </trkpt>
      <trkpt lat="40.700866207480431" lon="13.872626842930913">
        <ele>64.069999999999993</ele>
        <time>2018-09-23T08:59:21Z</time>
      </trkpt>
      <trkpt lat="40.700828656554222" lon="13.872599685564637">
        <ele>62.619999999999997</ele>
        <time>2018-09-23T08:59:32Z</time>
      </trkpt>
      <trkpt lat="40.700835529714823" lon="13.872581329196692">
        <ele>62.140000000000001</ele>
        <time>2018-09-23T08:59:45Z</time>
      </trkpt>
      <trkpt lat="40.700838714838028" lon="13.872524416074157">
        <ele>60.700000000000003</ele>
        <time>2018-09-23T08:59:52Z</time>
      </trkpt>
      <trkpt lat="40.700840977951884" lon="13.872467922046781">
        <ele>59.259999999999998</ele>
        <time>2018-09-23T09:00:01Z</time>
      </trkpt>
      <trkpt lat="40.700797224417329" lon="13.872482506558299">
        <ele>56.859999999999999</ele>
        <time>2018-09-23T09:00:11Z</time>
      </trkpt>
      <trkpt lat="40.700785825029016" lon="13.872445877641439">
        <ele>55.890000000000001</ele>
        <time>2018-09-23T09:00:17Z</time>
      </trkpt>
      <trkpt lat="40.700756572186947" lon="13.872492983937263">
        <ele>54.450000000000003</ele>
        <time>2018-09-23T09:00:25Z</time>
      </trkpt>
      <trkpt lat="40.700695887207985" lon="13.872542940080166">
        <ele>52.049999999999997</ele>
        <time>2018-09-23T09:00:35Z</time>
      </trkpt>
      <trkpt lat="40.7006208691746" lon="13.872588705271482">
        <ele>50.609999999999999</ele>
        <time>2018-09-23T09:00:45Z</time>
      </trkpt>
      <trkpt lat="40.700566554442048" lon="13.872581077739596">
        <ele>50.130000000000003</ele>
        <time>2018-09-23T09:00:55Z</time>
      </trkpt>
      <trkpt lat="40.700534032657743" lon="13.872575713321567">
        <ele>48.68</ele>
        <time>2018-09-23T09:01:04Z</time>
      </trkpt>
      <trkpt lat="40.700507629662752" lon="13.87258074246347">
        <ele>47.719999999999999</ele>
        <time>2018-09-23T09:01:14Z</time>
      </trkpt>
      <trkpt lat="40.700482064858079" lon="13.872547801584005">
        <ele>46.280000000000001</ele>
        <time>2018-09-23T09:01:23Z</time>
      </trkpt>
      <trkpt lat="40.700440322980285" lon="13.872529277577996">
        <ele>45.799999999999997</ele>
        <time>2018-09-23T09:01:31Z</time>
      </trkpt>
      <trkpt lat="40.700426744297147" lon="13.872525757178664">
        <ele>44.359999999999999</ele>
        <time>2018-09-23T09:01:33Z</time>
      </trkpt>
      <trkpt lat="40.700416937470436" lon="13.872529612854123">
        <ele>44.840000000000003</ele>
        <time>2018-09-23T09:01:41Z</time>
      </trkpt>
      <trkpt lat="40.700326161459088" lon="13.872507149353623">
        <ele>42.920000000000002</ele>
        <time>2018-09-23T09:01:52Z</time>
      </trkpt>
      <trkpt lat="40.70031258277595" lon="13.872543526813388">
        <ele>41.469999999999999</ele>
        <time>2018-09-23T09:02:02Z</time>
      </trkpt>
      <trkpt lat="40.700255921110511" lon="13.872564397752285">
        <ele>40.509999999999998</ele>
        <time>2018-09-23T09:02:13Z</time>
      </trkpt>
      <trkpt lat="40.700267152860761" lon="13.872555764392018">
        <ele>40.509999999999998</ele>
        <time>2018-09-23T09:02:28Z</time>
      </trkpt>
      <trkpt lat="40.700260363519192" lon="13.872585352510214">
        <ele>40.030000000000001</ele>
        <time>2018-09-23T09:02:38Z</time>
      </trkpt>
      <trkpt lat="40.70024510845542" lon="13.872593063861132">
        <ele>39.07</ele>
        <time>2018-09-23T09:02:42Z</time>
      </trkpt>
      <trkpt lat="40.700174616649747" lon="13.872630363330245">
        <ele>37.149999999999999</ele>
        <time>2018-09-23T09:02:52Z</time>
      </trkpt>
      <trkpt lat="40.700106471776962" lon="13.872651737183332">
        <ele>36.189999999999998</ele>
        <time>2018-09-23T09:03:03Z</time>
      </trkpt>
      <trkpt lat="40.700045535340905" lon="13.87264528311789">
        <ele>35.229999999999997</ele>
        <time>2018-09-23T09:03:14Z</time>
      </trkpt>
      <trkpt lat="40.70001695305109" lon="13.872647127136588">
        <ele>34.259999999999998</ele>
        <time>2018-09-23T09:03:24Z</time>
      </trkpt>
      <trkpt lat="40.6999680865556" lon="13.872672021389008">
        <ele>34.259999999999998</ele>
        <time>2018-09-23T09:03:32Z</time>
      </trkpt>
      <trkpt lat="40.699904300272465" lon="13.872620221227407">
        <ele>33.299999999999997</ele>
        <time>2018-09-23T09:03:41Z</time>
      </trkpt>
      <trkpt lat="40.699878819286823" lon="13.872653329744935">
        <ele>32.340000000000003</ele>
        <time>2018-09-23T09:03:49Z</time>
      </trkpt>
      <trkpt lat="40.699845375493169" lon="13.872643858194351">
        <ele>31.379999999999999</ele>
        <time>2018-09-23T09:03:57Z</time>
      </trkpt>
      <trkpt lat="40.699833305552602" lon="13.8726188801229">
        <ele>30.899999999999999</ele>
        <time>2018-09-23T09:04:05Z</time>
      </trkpt>
      <trkpt lat="40.699825426563621" lon="13.872643103823066">
        <ele>29.940000000000001</ele>
        <time>2018-09-23T09:04:13Z</time>
      </trkpt>
      <trkpt lat="40.699797347187996" lon="13.872622568160295">
        <ele>29.460000000000001</ele>
        <time>2018-09-23T09:04:23Z</time>
      </trkpt>
      <trkpt lat="40.699774799868464" lon="13.872590716928244">
        <ele>28.5</ele>
        <time>2018-09-23T09:04:32Z</time>
      </trkpt>
      <trkpt lat="40.69975795224309" lon="13.872582837939262">
        <ele>28.5</ele>
        <time>2018-09-23T09:04:42Z</time>
      </trkpt>
      <trkpt lat="40.699728280305862" lon="13.872561967000365">
        <ele>27.530000000000001</ele>
        <time>2018-09-23T09:04:50Z</time>
      </trkpt>
      <trkpt lat="40.69969299249351" lon="13.87255928479135">
        <ele>25.609999999999999</ele>
        <time>2018-09-23T09:04:58Z</time>
      </trkpt>
      <trkpt lat="40.69967882707715" lon="13.872557943686843">
        <ele>25.609999999999999</ele>
        <time>2018-09-23T09:05:02Z</time>
      </trkpt>
      <trkpt lat="40.699661392718554" lon="13.872558446601033">
        <ele>25.609999999999999</ele>
        <time>2018-09-23T09:05:12Z</time>
      </trkpt>
      <trkpt lat="40.699658878147602" lon="13.872586106881499">
        <ele>25.129999999999999</ele>
        <time>2018-09-23T09:05:19Z</time>
      </trkpt>
      <trkpt lat="40.69961822591722" lon="13.872594991698861">
        <ele>23.210000000000001</ele>
        <time>2018-09-23T09:05:28Z</time>
      </trkpt>
      <trkpt lat="40.699563240632415" lon="13.872594824060798">
        <ele>22.25</ele>
        <time>2018-09-23T09:05:37Z</time>
      </trkpt>
      <trkpt lat="40.699566761031747" lon="13.872587447986007">
        <ele>22.73</ele>
        <time>2018-09-23T09:05:53Z</time>
      </trkpt>
      <trkpt lat="40.699537172913551" lon="13.872595494613051">
        <ele>22.73</ele>
        <time>2018-09-23T09:06:07Z</time>
      </trkpt>
      <trkpt lat="40.699569610878825" lon="13.872643942013383">
        <ele>23.210000000000001</ele>
        <time>2018-09-23T09:06:17Z</time>
      </trkpt>
      <trkpt lat="40.69953566417098" lon="13.872663052752614">
        <ele>23.210000000000001</ele>
        <time>2018-09-23T09:06:26Z</time>
      </trkpt>
      <trkpt lat="40.699558211490512" lon="13.872657353058457">
        <ele>24.649999999999999</ele>
        <time>2018-09-23T09:06:38Z</time>
      </trkpt>
      <trkpt lat="40.699587296694517" lon="13.872634219005704">
        <ele>24.170000000000002</ele>
        <time>2018-09-23T09:07:02Z</time>
      </trkpt>
      <trkpt lat="40.699582602828741" lon="13.872642768546939">
        <ele>24.170000000000002</ele>
        <time>2018-09-23T09:07:17Z</time>
      </trkpt>
      <trkpt lat="40.699547315016389" lon="13.872642181813717">
        <ele>23.210000000000001</ele>
        <time>2018-09-23T09:07:28Z</time>
      </trkpt>
      <trkpt lat="40.699575059115887" lon="13.872632626444101">
        <ele>23.210000000000001</ele>
        <time>2018-09-23T09:07:39Z</time>
      </trkpt>
      <trkpt lat="40.699570113793015" lon="13.872633883729577">
        <ele>23.210000000000001</ele>
        <time>2018-09-23T09:07:50Z</time>
      </trkpt>
      <trkpt lat="40.699602300301194" lon="13.87260228395462">
        <ele>23.210000000000001</ele>
        <time>2018-09-23T09:07:59Z</time>
      </trkpt>
      <trkpt lat="40.6995864585042" lon="13.872604882344604">
        <ele>22.25</ele>
        <time>2018-09-23T09:08:09Z</time>
      </trkpt>
      <trkpt lat="40.699642114341259" lon="13.872606977820396">
        <ele>23.210000000000001</ele>
        <time>2018-09-23T09:08:21Z</time>
      </trkpt>
      <trkpt lat="40.699644293636084" lon="13.872503964230418">
        <ele>23.690000000000001</ele>
        <time>2018-09-23T09:08:30Z</time>
      </trkpt>
      <trkpt lat="40.699650244787335" lon="13.872463898733258">
        <ele>24.649999999999999</ele>
        <time>2018-09-23T09:08:34Z</time>
      </trkpt>
      <trkpt lat="40.699649574235082" lon="13.872437663376331">
        <ele>25.129999999999999</ele>
        <time>2018-09-23T09:08:37Z</time>
      </trkpt>
      <trkpt lat="40.699589140713215" lon="13.8723374158144">
        <ele>23.210000000000001</ele>
        <time>2018-09-23T09:08:49Z</time>
      </trkpt>
      <trkpt lat="40.699550500139594" lon="13.87227731756866">
        <ele>22.25</ele>
        <time>2018-09-23T09:08:58Z</time>
      </trkpt>
      <trkpt lat="40.699528036639094" lon="13.872212525457144">
        <ele>21.77</ele>
        <time>2018-09-23T09:09:07Z</time>
      </trkpt>
      <trkpt lat="40.699462573975325" lon="13.872185284271836">
        <ele>20.809999999999999</ele>
        <time>2018-09-23T09:09:18Z</time>
      </trkpt>
      <trkpt lat="40.699433656409383" lon="13.872171118855476">
        <ele>20.32</ele>
        <time>2018-09-23T09:09:27Z</time>
      </trkpt>
      <trkpt lat="40.69943399168551" lon="13.872167263180017">
        <ele>20.32</ele>
        <time>2018-09-23T09:09:39Z</time>
      </trkpt>
      <trkpt lat="40.699424352496862" lon="13.872182182967663">
        <ele>19.84</ele>
        <time>2018-09-23T09:09:51Z</time>
      </trkpt>
      <trkpt lat="40.699447067454457" lon="13.872203640639782">
        <ele>18.399999999999999</ele>
        <time>2018-09-23T09:10:01Z</time>
      </trkpt>
      <trkpt lat="40.699490820989013" lon="13.872231217101216">
        <ele>16.48</ele>
        <time>2018-09-23T09:10:13Z</time>
      </trkpt>
      <trkpt lat="40.699475901201367" lon="13.872263319790363">
        <ele>16</ele>
        <time>2018-09-23T09:10:17Z</time>
      </trkpt>
      <trkpt lat="40.699424939230084" lon="13.872287794947624">
        <ele>14.08</ele>
        <time>2018-09-23T09:10:26Z</time>
      </trkpt>
      <trkpt lat="40.699416305869818" lon="13.872303385287523">
        <ele>13.119999999999999</ele>
        <time>2018-09-23T09:10:36Z</time>
      </trkpt>
      <trkpt lat="40.69938562810421" lon="13.872277652844787">
        <ele>13.6</ele>
        <time>2018-09-23T09:10:45Z</time>
      </trkpt>
      <trkpt lat="40.699406918138266" lon="13.872286705300212">
        <ele>13.6</ele>
        <time>2018-09-23T09:10:54Z</time>
      </trkpt>
      <trkpt lat="40.699404822662473" lon="13.872290225699544">
        <ele>12.630000000000001</ele>
        <time>2018-09-23T09:11:00Z</time>
      </trkpt>
      <trkpt lat="40.699415383860469" lon="13.872300200164318">
        <ele>13.119999999999999</ele>
        <time>2018-09-23T09:11:15Z</time>
      </trkpt>
      <trkpt lat="40.699463998898864" lon="13.872340265661478">
        <ele>11.67</ele>
        <time>2018-09-23T09:11:38Z</time>
      </trkpt>
      <trkpt lat="40.69947699084878" lon="13.872307240962982">
        <ele>11.67</ele>
        <time>2018-09-23T09:12:00Z</time>
      </trkpt>
      <trkpt lat="40.699474476277828" lon="13.872307408601046">
        <ele>13.119999999999999</ele>
        <time>2018-09-23T09:12:23Z</time>
      </trkpt>
      <trkpt lat="40.699469614773989" lon="13.872312186285853">
        <ele>13.119999999999999</ele>
        <time>2018-09-23T09:12:24Z</time>
      </trkpt>
      <trkpt lat="40.699450671672821" lon="13.872309755533934">
        <ele>13.119999999999999</ele>
        <time>2018-09-23T09:12:46Z</time>
      </trkpt>
      <trkpt lat="40.699443630874157" lon="13.872290393337607">
        <ele>13.119999999999999</ele>
        <time>2018-09-23T09:13:08Z</time>
      </trkpt>
      <trkpt lat="40.699424771592021" lon="13.87235208414495">
        <ele>13.119999999999999</ele>
        <time>2018-09-23T09:13:31Z</time>
      </trkpt>
      <trkpt lat="40.699436003342271" lon="13.872310090810061">
        <ele>13.119999999999999</ele>
        <time>2018-09-23T09:13:56Z</time>
      </trkpt>
      <trkpt lat="40.699504064396024" lon="13.872416289523244">
        <ele>13.6</ele>
        <time>2018-09-23T09:14:22Z</time>
      </trkpt>
      <trkpt lat="40.699511775746942" lon="13.872400280088186">
        <ele>13.119999999999999</ele>
        <time>2018-09-23T09:14:48Z</time>
      </trkpt>
      <trkpt lat="40.699500041082501" lon="13.872360633686185">
        <ele>12.630000000000001</ele>
        <time>2018-09-23T09:15:07Z</time>
      </trkpt>
      <trkpt lat="40.699481097981334" lon="13.872354347258806">
        <ele>16</ele>
        <time>2018-09-23T09:15:18Z</time>
      </trkpt>
      <trkpt lat="40.699479002505541" lon="13.872354431077838">
        <ele>14.56</ele>
        <time>2018-09-23T09:15:19Z</time>
      </trkpt>
      <trkpt lat="40.699470704421401" lon="13.872344708070159">
        <ele>14.08</ele>
        <time>2018-09-23T09:15:42Z</time>
      </trkpt>
      <trkpt lat="40.699510267004371" lon="13.872396675869823">
        <ele>14.08</ele>
        <time>2018-09-23T09:16:07Z</time>
      </trkpt>
      <trkpt lat="40.69946525618434" lon="13.872379073873162">
        <ele>14.08</ele>
        <time>2018-09-23T09:16:11Z</time>
      </trkpt>
      <trkpt lat="40.699437679722905" lon="13.872320735827088">
        <ele>15.039999999999999</ele>
        <time>2018-09-23T09:16:17Z</time>
      </trkpt>
      <trkpt lat="40.699437344446778" lon="13.872305732220411">
        <ele>15.039999999999999</ele>
        <time>2018-09-23T09:16:29Z</time>
      </trkpt>
      <trkpt lat="40.699423681944609" lon="13.872289638966322">
        <ele>15.52</ele>
        <time>2018-09-23T09:16:43Z</time>
      </trkpt>
      <trkpt lat="40.699395686388016" lon="13.87223775498569">
        <ele>16.48</ele>
        <time>2018-09-23T09:16:54Z</time>
      </trkpt>
      <trkpt lat="40.699381269514561" lon="13.872207161039114">
        <ele>19.84</ele>
        <time>2018-09-23T09:17:03Z</time>
      </trkpt>
      <trkpt lat="40.69941789843142" lon="13.872207915410399">
        <ele>20.32</ele>
        <time>2018-09-23T09:17:12Z</time>
      </trkpt>
      <trkpt lat="40.699376994743943" lon="13.872204478830099">
        <ele>20.32</ele>
        <time>2018-09-23T09:17:27Z</time>
      </trkpt>
      <trkpt lat="40.699434829875827" lon="13.87218939140439">
        <ele>20.32</ele>
        <time>2018-09-23T09:17:41Z</time>
      </trkpt>
      <trkpt lat="40.699488054960966" lon="13.87217765673995">
        <ele>22.25</ele>
        <time>2018-09-23T09:17:53Z</time>
      </trkpt>
      <trkpt lat="40.699474643915892" lon="13.872191989794374">
        <ele>21.77</ele>
        <time>2018-09-23T09:18:09Z</time>
      </trkpt>
      <trkpt lat="40.699475398287177" lon="13.872181260958314">
        <ele>21.77</ele>
        <time>2018-09-23T09:18:25Z</time>
      </trkpt>
      <trkpt lat="40.699464417994022" lon="13.872150331735611">
        <ele>21.77</ele>
        <time>2018-09-23T09:18:46Z</time>
      </trkpt>
      <trkpt lat="40.699502052739263" lon="13.872184948995709">
        <ele>21.77</ele>
        <time>2018-09-23T09:18:57Z</time>
      </trkpt>
      <trkpt lat="40.699552008882165" lon="13.87218302115798">
        <ele>22.73</ele>
        <time>2018-09-23T09:19:10Z</time>
      </trkpt>
      <trkpt lat="40.699555529281497" lon="13.872190145775676">
        <ele>22.73</ele>
        <time>2018-09-23T09:19:11Z</time>
      </trkpt>
      <trkpt lat="40.699597941711545" lon="13.872298272326589">
        <ele>23.210000000000001</ele>
        <time>2018-09-23T09:19:23Z</time>
      </trkpt>
      <trkpt lat="40.699609844014049" lon="13.872319143265486">
        <ele>23.690000000000001</ele>
        <time>2018-09-23T09:19:26Z</time>
      </trkpt>
      <trkpt lat="40.699616214260459" lon="13.872372535988688">
        <ele>24.649999999999999</ele>
        <time>2018-09-23T09:19:37Z</time>
      </trkpt>
      <trkpt lat="40.699640857055783" lon="13.872405057772994">
        <ele>25.609999999999999</ele>
        <time>2018-09-23T09:19:49Z</time>
      </trkpt>
      <trkpt lat="40.699669606983662" lon="13.872460965067148">
        <ele>26.09</ele>
        <time>2018-09-23T09:20:01Z</time>
      </trkpt>
      <trkpt lat="40.69966315291822" lon="13.872468257322907">
        <ele>26.57</ele>
        <time>2018-09-23T09:20:17Z</time>
      </trkpt>
      <trkpt lat="40.699680671095848" lon="13.872484685853124">
        <ele>26.09</ele>
        <time>2018-09-23T09:20:28Z</time>
      </trkpt>
      <trkpt lat="40.699704140424728" lon="13.87248208746314">
        <ele>26.09</ele>
        <time>2018-09-23T09:20:44Z</time>
      </trkpt>
      <trkpt lat="40.699690477922559" lon="13.872551489621401">
        <ele>26.09</ele>
        <time>2018-09-23T09:20:56Z</time>
      </trkpt>
      <trkpt lat="40.699691651389003" lon="13.872553166002035">
        <ele>26.09</ele>
        <time>2018-09-23T09:21:12Z</time>
      </trkpt>
      <trkpt lat="40.699680000543594" lon="13.872530953958631">
        <ele>26.57</ele>
        <time>2018-09-23T09:21:27Z</time>
      </trkpt>
      <trkpt lat="40.699698273092508" lon="13.872515447437763">
        <ele>26.57</ele>
        <time>2018-09-23T09:21:39Z</time>
      </trkpt>
      <trkpt lat="40.699691735208035" lon="13.872536737471819">
        <ele>26.09</ele>
        <time>2018-09-23T09:21:48Z</time>
      </trkpt>
      <trkpt lat="40.699734734371305" lon="13.872541263699532">
        <ele>26.09</ele>
        <time>2018-09-23T09:22:00Z</time>
      </trkpt>
      <trkpt lat="40.69976725615561" lon="13.872541766613722">
        <ele>27.530000000000001</ele>
        <time>2018-09-23T09:22:07Z</time>
      </trkpt>
      <trkpt lat="40.699792820960283" lon="13.872540006414056">
        <ele>28.02</ele>
        <time>2018-09-23T09:22:14Z</time>
      </trkpt>
      <trkpt lat="40.699816709384322" lon="13.872568840160966">
        <ele>29.460000000000001</ele>
        <time>2018-09-23T09:22:23Z</time>
      </trkpt>
      <trkpt lat="40.69983271881938" lon="13.872600691393018">
        <ele>29.940000000000001</ele>
        <time>2018-09-23T09:22:31Z</time>
      </trkpt>
      <trkpt lat="40.699850907549262" lon="13.872612845152617">
        <ele>30.899999999999999</ele>
        <time>2018-09-23T09:22:38Z</time>
      </trkpt>
      <trkpt lat="40.699895415455103" lon="13.872652491554618">
        <ele>32.340000000000003</ele>
        <time>2018-09-23T09:22:49Z</time>
      </trkpt>
      <trkpt lat="40.699939839541912" lon="13.872663890942931">
        <ele>33.299999999999997</ele>
        <time>2018-09-23T09:23:00Z</time>
      </trkpt>
      <trkpt lat="40.700008738785982" lon="13.872665734961629">
        <ele>34.259999999999998</ele>
        <time>2018-09-23T09:23:10Z</time>
      </trkpt>
      <trkpt lat="40.700089959427714" lon="13.87264528311789">
        <ele>35.229999999999997</ele>
        <time>2018-09-23T09:23:22Z</time>
      </trkpt>
      <trkpt lat="40.700161959975958" lon="13.872638745233417">
        <ele>36.670000000000002</ele>
        <time>2018-09-23T09:23:35Z</time>
      </trkpt>
      <trkpt lat="40.700229182839394" lon="13.872595159336925">
        <ele>37.630000000000003</ele>
        <time>2018-09-23T09:23:47Z</time>
      </trkpt>
      <trkpt lat="40.700272182002664" lon="13.872574288398027">
        <ele>37.630000000000003</ele>
        <time>2018-09-23T09:23:56Z</time>
      </trkpt>
      <trkpt lat="40.700286934152246" lon="13.872563894838095">
        <ele>39.07</ele>
        <time>2018-09-23T09:24:01Z</time>
      </trkpt>
      <trkpt lat="40.70033110678196" lon="13.872529026120901">
        <ele>40.030000000000001</ele>
        <time>2018-09-23T09:24:12Z</time>
      </trkpt>
      <trkpt lat="40.700340829789639" lon="13.872520141303539">
        <ele>40.990000000000002</ele>
        <time>2018-09-23T09:24:14Z</time>
      </trkpt>
      <trkpt lat="40.700380057096481" lon="13.872492145746946">
        <ele>42.439999999999998</ele>
        <time>2018-09-23T09:24:25Z</time>
      </trkpt>
      <trkpt lat="40.70041861385107" lon="13.872491726651788">
        <ele>43.399999999999999</ele>
        <time>2018-09-23T09:24:35Z</time>
      </trkpt>
      <trkpt lat="40.700456080958247" lon="13.872504131868482">
        <ele>44.359999999999999</ele>
        <time>2018-09-23T09:24:44Z</time>
      </trkpt>
      <trkpt lat="40.700489608570933" lon="13.872502874583006">
        <ele>44.840000000000003</ele>
        <time>2018-09-23T09:24:56Z</time>
      </trkpt>
      <trkpt lat="40.700502349063754" lon="13.872522572055459">
        <ele>46.280000000000001</ele>
        <time>2018-09-23T09:25:07Z</time>
      </trkpt>
      <trkpt lat="40.700539648532867" lon="13.872528355568647">
        <ele>47.719999999999999</ele>
        <time>2018-09-23T09:25:16Z</time>
      </trkpt>
      <trkpt lat="40.700575606897473" lon="13.872571606189013">
        <ele>49.159999999999997</ele>
        <time>2018-09-23T09:25:26Z</time>
      </trkpt>
      <trkpt lat="40.700606284663081" lon="13.872556267306209">
        <ele>50.130000000000003</ele>
        <time>2018-09-23T09:25:35Z</time>
      </trkpt>
      <trkpt lat="40.700655989348888" lon="13.872534306719899">
        <ele>50.609999999999999</ele>
        <time>2018-09-23T09:25:45Z</time>
      </trkpt>
      <trkpt lat="40.700687002390623" lon="13.872516788542271">
        <ele>51.57</ele>
        <time>2018-09-23T09:25:55Z</time>
      </trkpt>
      <trkpt lat="40.700713908299804" lon="13.872480494901538">
        <ele>52.530000000000001</ele>
        <time>2018-09-23T09:26:06Z</time>
      </trkpt>
      <trkpt lat="40.70075087249279" lon="13.872458282858133">
        <ele>53.490000000000002</ele>
        <time>2018-09-23T09:26:16Z</time>
      </trkpt>
      <trkpt lat="40.700775096192956" lon="13.872427856549621">
        <ele>54.93</ele>
        <time>2018-09-23T09:26:25Z</time>
      </trkpt>
      <trkpt lat="40.70081440731883" lon="13.872454008087516">
        <ele>55.890000000000001</ele>
        <time>2018-09-23T09:26:35Z</time>
      </trkpt>
      <trkpt lat="40.700841229408979" lon="13.872490720823407">
        <ele>56.859999999999999</ele>
        <time>2018-09-23T09:26:48Z</time>
      </trkpt>
      <trkpt lat="40.700856819748878" lon="13.872469598427415">
        <ele>57.82</ele>
        <time>2018-09-23T09:26:57Z</time>
      </trkpt>
      <trkpt lat="40.700858999043703" lon="13.872511675581336">
        <ele>59.259999999999998</ele>
        <time>2018-09-23T09:27:10Z</time>
      </trkpt>
      <trkpt lat="40.700843995437026" lon="13.872535564005375">
        <ele>59.740000000000002</ele>
        <time>2018-09-23T09:27:18Z</time>
      </trkpt>
      <trkpt lat="40.700840223580599" lon="13.872577808797359">
        <ele>61.18</ele>
        <time>2018-09-23T09:27:25Z</time>
      </trkpt>
      <trkpt lat="40.700869560241699" lon="13.872606894001365">
        <ele>62.140000000000001</ele>
        <time>2018-09-23T09:27:34Z</time>
      </trkpt>
      <trkpt lat="40.700890431180596" lon="13.872609660029411">
        <ele>63.579999999999998</ele>
        <time>2018-09-23T09:27:46Z</time>
      </trkpt>
      <trkpt lat="40.700924294069409" lon="13.872634973376989">
        <ele>64.549999999999997</ele>
        <time>2018-09-23T09:27:55Z</time>
      </trkpt>
      <trkpt lat="40.700946673750877" lon="13.872669925913215">
        <ele>65.989999999999995</ele>
        <time>2018-09-23T09:28:04Z</time>
      </trkpt>
      <trkpt lat="40.700946422293782" lon="13.872707057744265">
        <ele>66.950000000000003</ele>
        <time>2018-09-23T09:28:15Z</time>
      </trkpt>
      <trkpt lat="40.700947428122163" lon="13.872727677226067">
        <ele>67.909999999999997</ele>
        <time>2018-09-23T09:28:22Z</time>
      </trkpt>
      <trkpt lat="40.700967125594616" lon="13.872707644477487">
        <ele>68.870000000000005</ele>
        <time>2018-09-23T09:28:30Z</time>
      </trkpt>
      <trkpt lat="40.70096880197525" lon="13.872683253139257">
        <ele>69.829999999999998</ele>
        <time>2018-09-23T09:28:39Z</time>
      </trkpt>
      <trkpt lat="40.700994534417987" lon="13.872720720246434">
        <ele>71.269999999999996</ele>
        <time>2018-09-23T09:28:47Z</time>
      </trkpt>
      <trkpt lat="40.701017333194613" lon="13.872749805450439">
        <ele>72.239999999999995</ele>
        <time>2018-09-23T09:28:57Z</time>
      </trkpt>
      <trkpt lat="40.701045077294111" lon="13.872751565650105">
        <ele>73.200000000000003</ele>
        <time>2018-09-23T09:29:05Z</time>
      </trkpt>
      <trkpt lat="40.701053123921156" lon="13.872749553993344">
        <ele>74.640000000000001</ele>
        <time>2018-09-23T09:29:15Z</time>
      </trkpt>
      <trkpt lat="40.701086651533842" lon="13.872756259515882">
        <ele>76.560000000000002</ele>
        <time>2018-09-23T09:29:23Z</time>
      </trkpt>
      <trkpt lat="40.701102744787931" lon="13.872751900926232">
        <ele>77.519999999999996</ele>
        <time>2018-09-23T09:29:32Z</time>
      </trkpt>
      <trkpt lat="40.701112970709801" lon="13.872709907591343">
        <ele>78.480000000000004</ele>
        <time>2018-09-23T09:29:41Z</time>
      </trkpt>
      <trkpt lat="40.701111126691103" lon="13.872689204290509">
        <ele>79.930000000000007</ele>
        <time>2018-09-23T09:29:51Z</time>
      </trkpt>
      <trkpt lat="40.701138032600284" lon="13.872681157663465">
        <ele>81.370000000000005</ele>
        <time>2018-09-23T09:30:02Z</time>
      </trkpt>
      <trkpt lat="40.701185138896108" lon="13.872708398848772">
        <ele>83.769999999999996</ele>
        <time>2018-09-23T09:30:12Z</time>
      </trkpt>
      <trkpt lat="40.701177762821317" lon="13.872797330841422">
        <ele>83.769999999999996</ele>
        <time>2018-09-23T09:30:23Z</time>
      </trkpt>
      <trkpt lat="40.701143648475409" lon="13.872824739664793">
        <ele>83.769999999999996</ele>
        <time>2018-09-23T09:30:40Z</time>
      </trkpt>
      <trkpt lat="40.701135350391269" lon="13.872844185680151">
        <ele>83.769999999999996</ele>
        <time>2018-09-23T09:30:52Z</time>
      </trkpt>
      <trkpt lat="40.701134847477078" lon="13.872854495421052">
        <ele>83.769999999999996</ele>
        <time>2018-09-23T09:31:03Z</time>
      </trkpt>
      <trkpt lat="40.701107690110803" lon="13.872943008318543">
        <ele>83.290000000000006</ele>
        <time>2018-09-23T09:31:14Z</time>
      </trkpt>
      <trkpt lat="40.701110120862722" lon="13.872950216755271">
        <ele>83.769999999999996</ele>
        <time>2018-09-23T09:31:15Z</time>
      </trkpt>
      <trkpt lat="40.701091680675745" lon="13.873099749907851">
        <ele>86.659999999999997</ele>
        <time>2018-09-23T09:31:26Z</time>
      </trkpt>
      <trkpt lat="40.701091093942523" lon="13.873109808191657">
        <ele>87.140000000000001</ele>
        <time>2018-09-23T09:31:27Z</time>
      </trkpt>
      <trkpt lat="40.701114060357213" lon="13.873257413506508">
        <ele>87.620000000000005</ele>
        <time>2018-09-23T09:31:38Z</time>
      </trkpt>
      <trkpt lat="40.701123112812638" lon="13.873261604458094">
        <ele>88.099999999999994</ele>
        <time>2018-09-23T09:31:39Z</time>
      </trkpt>
      <trkpt lat="40.701157059520483" lon="13.87329320423305">
        <ele>88.099999999999994</ele>
        <time>2018-09-23T09:31:43Z</time>
      </trkpt>
      <trkpt lat="40.701186563819647" lon="13.873336119577289">
        <ele>88.099999999999994</ele>
        <time>2018-09-23T09:31:50Z</time>
      </trkpt>
      <trkpt lat="40.701316315680742" lon="13.873397056013346">
        <ele>89.060000000000002</ele>
        <time>2018-09-23T09:32:03Z</time>
      </trkpt>
      <trkpt lat="40.701298378407955" lon="13.873501159250736">
        <ele>89.060000000000002</ele>
        <time>2018-09-23T09:32:10Z</time>
      </trkpt>
      <trkpt lat="40.70125512778759" lon="13.873596461489797">
        <ele>89.060000000000002</ele>
        <time>2018-09-23T09:32:17Z</time>
      </trkpt>
      <trkpt lat="40.701256468892097" lon="13.873652536422014">
        <ele>90.019999999999996</ele>
        <time>2018-09-23T09:32:22Z</time>
      </trkpt>
      <trkpt lat="40.70130399428308" lon="13.873679777607322">
        <ele>90.019999999999996</ele>
        <time>2018-09-23T09:32:27Z</time>
      </trkpt>
      <trkpt lat="40.701452773064375" lon="13.873790921643376">
        <ele>90.019999999999996</ele>
        <time>2018-09-23T09:32:41Z</time>
      </trkpt>
      <trkpt lat="40.701580764725804" lon="13.873901143670082">
        <ele>90.5</ele>
        <time>2018-09-23T09:32:54Z</time>
      </trkpt>
      <trkpt lat="40.7015913259238" lon="13.873902820050716">
        <ele>90.5</ele>
        <time>2018-09-23T09:32:55Z</time>
      </trkpt>
      <trkpt lat="40.701686292886734" lon="13.873890750110149">
        <ele>91.459999999999994</ele>
        <time>2018-09-23T09:33:05Z</time>
      </trkpt>
      <trkpt lat="40.701759299263358" lon="13.873854791745543">
        <ele>91.939999999999998</ele>
        <time>2018-09-23T09:33:13Z</time>
      </trkpt>
      <trkpt lat="40.701801124960184" lon="13.873832831159234">
        <ele>91.939999999999998</ele>
        <time>2018-09-23T09:33:17Z</time>
      </trkpt>
      <trkpt lat="40.701847393065691" lon="13.873836351558566">
        <ele>92.420000000000002</ele>
        <time>2018-09-23T09:33:21Z</time>
      </trkpt>
      <trkpt lat="40.701945880427957" lon="13.873806511983275">
        <ele>92.420000000000002</ele>
        <time>2018-09-23T09:33:30Z</time>
      </trkpt>
      <trkpt lat="40.702001117169857" lon="13.873785138130188">
        <ele>92.420000000000002</ele>
        <time>2018-09-23T09:33:35Z</time>
      </trkpt>
      <trkpt lat="40.702103292569518" lon="13.873762506991625">
        <ele>92.900000000000006</ele>
        <time>2018-09-23T09:33:45Z</time>
      </trkpt>
      <trkpt lat="40.702219884842634" lon="13.873826125636697">
        <ele>93.390000000000001</ele>
        <time>2018-09-23T09:33:56Z</time>
      </trkpt>
      <trkpt lat="40.702234972268343" lon="13.873837273567915">
        <ele>93.870000000000005</ele>
        <time>2018-09-23T09:33:58Z</time>
      </trkpt>
      <trkpt lat="40.702299512922764" lon="13.873910866677761">
        <ele>94.349999999999994</ele>
        <time>2018-09-23T09:34:08Z</time>
      </trkpt>
      <trkpt lat="40.702352821826935" lon="13.874032404273748">
        <ele>94.829999999999998</ele>
        <time>2018-09-23T09:34:18Z</time>
      </trkpt>
      <trkpt lat="40.702421553432941" lon="13.87409308925271">
        <ele>94.829999999999998</ele>
        <time>2018-09-23T09:34:38Z</time>
      </trkpt>
      <trkpt lat="40.702417865395546" lon="13.874094765633345">
        <ele>95.310000000000002</ele>
        <time>2018-09-23T09:34:48Z</time>
      </trkpt>
      <trkpt lat="40.70242976769805" lon="13.874084958806634">
        <ele>95.790000000000006</ele>
        <time>2018-09-23T09:35:03Z</time>
      </trkpt>
      <trkpt lat="40.702431024983525" lon="13.874101052060723">
        <ele>95.790000000000006</ele>
        <time>2018-09-23T09:35:23Z</time>
      </trkpt>
      <trkpt lat="40.702414931729436" lon="13.874088143929839">
        <ele>95.790000000000006</ele>
        <time>2018-09-23T09:35:39Z</time>
      </trkpt>
      <trkpt lat="40.702381320297718" lon="13.874155366793275">
        <ele>96.269999999999996</ele>
        <time>2018-09-23T09:35:59Z</time>
      </trkpt>
      <trkpt lat="40.702394396066666" lon="13.874164335429668">
        <ele>95.790000000000006</ele>
        <time>2018-09-23T09:36:15Z</time>
      </trkpt>
      <trkpt lat="40.702417194843292" lon="13.874173890799284">
        <ele>96.269999999999996</ele>
        <time>2018-09-23T09:36:41Z</time>
      </trkpt>
      <trkpt lat="40.702403699979186" lon="13.874134998768568">
        <ele>96.269999999999996</ele>
        <time>2018-09-23T09:36:57Z</time>
      </trkpt>
      <trkpt lat="40.702423900365829" lon="13.874123515561223">
        <ele>96.75</ele>
        <time>2018-09-23T09:37:10Z</time>
      </trkpt>
      <trkpt lat="40.702402526512742" lon="13.874098788946867">
        <ele>96.269999999999996</ele>
        <time>2018-09-23T09:37:31Z</time>
      </trkpt>
      <trkpt lat="40.702392132952809" lon="13.874088563024998">
        <ele>96.269999999999996</ele>
        <time>2018-09-23T09:37:46Z</time>
      </trkpt>
      <trkpt lat="40.702405292540789" lon="13.874083869159222">
        <ele>96.269999999999996</ele>
        <time>2018-09-23T09:37:59Z</time>
      </trkpt>
      <trkpt lat="40.702413255348802" lon="13.874085377901793">
        <ele>96.269999999999996</ele>
        <time>2018-09-23T09:38:20Z</time>
      </trkpt>
      <trkpt lat="40.702472850680351" lon="13.874077750369906">
        <ele>96.75</ele>
        <time>2018-09-23T09:38:33Z</time>
      </trkpt>
      <trkpt lat="40.702461702749133" lon="13.874089904129505">
        <ele>96.75</ele>
        <time>2018-09-23T09:38:47Z</time>
      </trkpt>
      <trkpt lat="40.702434545382857" lon="13.874125527217984">
        <ele>96.75</ele>
        <time>2018-09-23T09:39:04Z</time>
      </trkpt>
      <trkpt lat="40.702433539554477" lon="13.874136172235012">
        <ele>96.75</ele>
        <time>2018-09-23T09:39:18Z</time>
      </trkpt>
      <trkpt lat="40.702448291704059" lon="13.874127371236682">
        <ele>96.75</ele>
        <time>2018-09-23T09:39:32Z</time>
      </trkpt>
      <trkpt lat="40.702459439635277" lon="13.874093927443027">
        <ele>96.75</ele>
        <time>2018-09-23T09:39:44Z</time>
      </trkpt>
      <trkpt lat="40.702451895922422" lon="13.874070961028337">
        <ele>97.230000000000004</ele>
        <time>2018-09-23T09:40:06Z</time>
      </trkpt>
      <trkpt lat="40.702467821538448" lon="13.874094262719154">
        <ele>97.230000000000004</ele>
        <time>2018-09-23T09:40:23Z</time>
      </trkpt>
      <trkpt lat="40.702488105744123" lon="13.874064004048705">
        <ele>97.230000000000004</ele>
        <time>2018-09-23T09:40:42Z</time>
      </trkpt>
      <trkpt lat="40.702480813488364" lon="13.874071463942528">
        <ele>97.230000000000004</ele>
        <time>2018-09-23T09:41:05Z</time>
      </trkpt>
      <trkpt lat="40.702487183734775" lon="13.874103734269738">
        <ele>97.230000000000004</ele>
        <time>2018-09-23T09:41:27Z</time>
      </trkpt>
      <trkpt lat="40.702479723840952" lon="13.874107589945197">
        <ele>97.709999999999994</ele>
        <time>2018-09-23T09:41:42Z</time>
      </trkpt>
      <trkpt lat="40.702477460727096" lon="13.874105578288436">
        <ele>97.709999999999994</ele>
        <time>2018-09-23T09:41:57Z</time>
      </trkpt>
      <trkpt lat="40.70253437384963" lon="13.87401195243001">
        <ele>97.709999999999994</ele>
        <time>2018-09-23T09:42:16Z</time>
      </trkpt>
      <trkpt lat="40.70255633443594" lon="13.874033829197288">
        <ele>97.709999999999994</ele>
        <time>2018-09-23T09:42:31Z</time>
      </trkpt>
      <trkpt lat="40.702514089643955" lon="13.874108847230673">
        <ele>98.189999999999998</ele>
        <time>2018-09-23T09:42:49Z</time>
      </trkpt>
      <trkpt lat="40.702503528445959" lon="13.874123515561223">
        <ele>98.189999999999998</ele>
        <time>2018-09-23T09:43:08Z</time>
      </trkpt>
      <trkpt lat="40.70245667360723" lon="13.874071799218655">
        <ele>98.189999999999998</ele>
        <time>2018-09-23T09:43:23Z</time>
      </trkpt>
      <trkpt lat="40.702453488484025" lon="13.874070877209306">
        <ele>98.670000000000002</ele>
        <time>2018-09-23T09:43:41Z</time>
      </trkpt>
      <trkpt lat="40.702455081045628" lon="13.874068865552545">
        <ele>98.670000000000002</ele>
        <time>2018-09-23T09:43:57Z</time>
      </trkpt>
      <trkpt lat="40.702430605888367" lon="13.874047994613647">
        <ele>98.670000000000002</ele>
        <time>2018-09-23T09:44:10Z</time>
      </trkpt>
      <trkpt lat="40.702432785183191" lon="13.874030644074082">
        <ele>98.189999999999998</ele>
        <time>2018-09-23T09:44:29Z</time>
      </trkpt>
      <trkpt lat="40.702437479048967" lon="13.874051347374916">
        <ele>98.670000000000002</ele>
        <time>2018-09-23T09:44:49Z</time>
      </trkpt>
      <trkpt lat="40.702435551211238" lon="13.874073140323162">
        <ele>98.670000000000002</ele>
        <time>2018-09-23T09:45:07Z</time>
      </trkpt>
      <trkpt lat="40.70239313878119" lon="13.874047407880425">
        <ele>98.670000000000002</ele>
        <time>2018-09-23T09:45:24Z</time>
      </trkpt>
      <trkpt lat="40.70242440328002" lon="13.874092670157552">
        <ele>98.670000000000002</ele>
        <time>2018-09-23T09:45:43Z</time>
      </trkpt>
      <trkpt lat="40.70245860144496" lon="13.874162491410971">
        <ele>98.670000000000002</ele>
        <time>2018-09-23T09:45:57Z</time>
      </trkpt>
      <trkpt lat="40.702456254512072" lon="13.874226612970233">
        <ele>99.150000000000006</ele>
        <time>2018-09-23T09:46:08Z</time>
      </trkpt>
      <trkpt lat="40.702451728284359" lon="13.874344797804952">
        <ele>99.150000000000006</ele>
        <time>2018-09-23T09:46:20Z</time>
      </trkpt>
      <trkpt lat="40.702431108802557" lon="13.874425012618303">
        <ele>99.629999999999995</ele>
        <time>2018-09-23T09:46:29Z</time>
      </trkpt>
      <trkpt lat="40.702433036640286" lon="13.874544957652688">
        <ele>100.59999999999999</ele>
        <time>2018-09-23T09:46:42Z</time>
      </trkpt>
      <trkpt lat="40.702449632808566" lon="13.874673871323466">
        <ele>101.08</ele>
        <time>2018-09-23T09:46:52Z</time>
      </trkpt>
      <trkpt lat="40.702532362192869" lon="13.874814603477716">
        <ele>101.56</ele>
        <time>2018-09-23T09:47:05Z</time>
      </trkpt>
      <trkpt lat="40.702557759359479" lon="13.874932955950499">
        <ele>102.52</ele>
        <time>2018-09-23T09:47:17Z</time>
      </trkpt>
      <trkpt lat="40.702636800706387" lon="13.875001352280378">
        <ele>103.95999999999999</ele>
        <time>2018-09-23T09:47:28Z</time>
      </trkpt>
      <trkpt lat="40.702731683850288" lon="13.875064635649323">
        <ele>104.44</ele>
        <time>2018-09-23T09:47:38Z</time>
      </trkpt>
      <trkpt lat="40.702803935855627" lon="13.875160105526447">
        <ele>105.40000000000001</ele>
        <time>2018-09-23T09:47:49Z</time>
      </trkpt>
      <trkpt lat="40.702808881178498" lon="13.875166140496731">
        <ele>105.40000000000001</ele>
        <time>2018-09-23T09:47:50Z</time>
      </trkpt>
      <trkpt lat="40.702824890613556" lon="13.875192794948816">
        <ele>105.88</ele>
        <time>2018-09-23T09:47:53Z</time>
      </trkpt>
      <trkpt lat="40.702874511480331" lon="13.87527066282928">
        <ele>106.36</ele>
        <time>2018-09-23T09:48:02Z</time>
      </trkpt>
      <trkpt lat="40.702926479279995" lon="13.875338137149811">
        <ele>106.84</ele>
        <time>2018-09-23T09:48:12Z</time>
      </trkpt>
      <trkpt lat="40.702957240864635" lon="13.875435534864664">
        <ele>107.31999999999999</ele>
        <time>2018-09-23T09:48:22Z</time>
      </trkpt>
      <trkpt lat="40.702961180359125" lon="13.875491609796882">
        <ele>108.77</ele>
        <time>2018-09-23T09:48:32Z</time>
      </trkpt>
      <trkpt lat="40.703069474548101" lon="13.875534441322088">
        <ele>108.77</ele>
        <time>2018-09-23T09:48:43Z</time>
      </trkpt>
      <trkpt lat="40.703134601935744" lon="13.87558825314045">
        <ele>110.20999999999999</ele>
        <time>2018-09-23T09:48:55Z</time>
      </trkpt>
      <trkpt lat="40.703164525330067" lon="13.87559512630105">
        <ele>111.17</ele>
        <time>2018-09-23T09:49:02Z</time>
      </trkpt>
      <trkpt lat="40.703212805092335" lon="13.875627480447292">
        <ele>113.09</ele>
        <time>2018-09-23T09:49:13Z</time>
      </trkpt>
      <trkpt lat="40.70323409512639" lon="13.875633180141449">
        <ele>113.09</ele>
        <time>2018-09-23T09:49:16Z</time>
      </trkpt>
      <trkpt lat="40.703251948580146" lon="13.875635610893369">
        <ele>112.61</ele>
        <time>2018-09-23T09:49:27Z</time>
      </trkpt>
      <trkpt lat="40.703301401808858" lon="13.875658325850964">
        <ele>113.09</ele>
        <time>2018-09-23T09:49:39Z</time>
      </trkpt>
      <trkpt lat="40.70337968878448" lon="13.875679867342114">
        <ele>114.53</ele>
        <time>2018-09-23T09:49:49Z</time>
      </trkpt>
      <trkpt lat="40.703487899154425" lon="13.875718340277672">
        <ele>115.01000000000001</ele>
        <time>2018-09-23T09:49:59Z</time>
      </trkpt>
      <trkpt lat="40.703553445637226" lon="13.875773241743445">
        <ele>115.98</ele>
        <time>2018-09-23T09:50:10Z</time>
      </trkpt>
      <trkpt lat="40.703626619651914" lon="13.875861084088683">
        <ele>117.90000000000001</ele>
        <time>2018-09-23T09:50:23Z</time>
      </trkpt>
      <trkpt lat="40.703650843352079" lon="13.875936940312386">
        <ele>118.86</ele>
        <time>2018-09-23T09:50:34Z</time>
      </trkpt>
      <trkpt lat="40.703641287982464" lon="13.875978933647275">
        <ele>119.34</ele>
        <time>2018-09-23T09:50:44Z</time>
      </trkpt>
      <trkpt lat="40.703624188899994" lon="13.876028889790177">
        <ele>120.78</ele>
        <time>2018-09-23T09:51:00Z</time>
      </trkpt>
      <trkpt lat="40.703627541661263" lon="13.876094352453947">
        <ele>123.19</ele>
        <time>2018-09-23T09:51:12Z</time>
      </trkpt>
      <trkpt lat="40.703655788674951" lon="13.876152439042926">
        <ele>124.15000000000001</ele>
        <time>2018-09-23T09:51:22Z</time>
      </trkpt>
      <trkpt lat="40.703656794503331" lon="13.876224691048265">
        <ele>126.06999999999999</ele>
        <time>2018-09-23T09:51:33Z</time>
      </trkpt>
      <trkpt lat="40.703655453398824" lon="13.876256626099348">
        <ele>127.98999999999999</ele>
        <time>2018-09-23T09:51:45Z</time>
      </trkpt>
      <trkpt lat="40.703756203874946" lon="13.876256374642253">
        <ele>130.40000000000001</ele>
        <time>2018-09-23T09:52:00Z</time>
      </trkpt>
      <trkpt lat="40.703817727044225" lon="13.876280933618546">
        <ele>131.84</ele>
        <time>2018-09-23T09:52:13Z</time>
      </trkpt>
      <trkpt lat="40.703844130039215" lon="13.876292668282986">
        <ele>133.28</ele>
        <time>2018-09-23T09:52:21Z</time>
      </trkpt>
      <trkpt lat="40.703906323760748" lon="13.876293003559113">
        <ele>133.28</ele>
        <time>2018-09-23T09:52:31Z</time>
      </trkpt>
      <trkpt lat="40.703925853595138" lon="13.876276910305023">
        <ele>133.75999999999999</ele>
        <time>2018-09-23T09:52:34Z</time>
      </trkpt>
      <trkpt lat="40.703962398692966" lon="13.876246148720384">
        <ele>133.75999999999999</ele>
        <time>2018-09-23T09:52:39Z</time>
      </trkpt>
      <trkpt lat="40.704053174704313" lon="13.876136848703027">
        <ele>134.24000000000001</ele>
        <time>2018-09-23T09:52:51Z</time>
      </trkpt>
      <trkpt lat="40.704153338447213" lon="13.876012042164803">
        <ele>134.24000000000001</ele>
        <time>2018-09-23T09:53:04Z</time>
      </trkpt>
      <trkpt lat="40.704233050346375" lon="13.875906262546778">
        <ele>134.24000000000001</ele>
        <time>2018-09-23T09:53:16Z</time>
      </trkpt>
      <trkpt lat="40.704337572678924" lon="13.875787071883678">
        <ele>133.75999999999999</ele>
        <time>2018-09-23T09:53:30Z</time>
      </trkpt>
      <trkpt lat="40.704426756128669" lon="13.875691518187523">
        <ele>134.24000000000001</ele>
        <time>2018-09-23T09:53:42Z</time>
      </trkpt>
      <trkpt lat="40.70447126403451" lon="13.875631587579846">
        <ele>134.24000000000001</ele>
        <time>2018-09-23T09:53:49Z</time>
      </trkpt>
      <trkpt lat="40.704506551846862" lon="13.875593030825257">
        <ele>134.72</ele>
        <time>2018-09-23T09:53:55Z</time>
      </trkpt>
      <trkpt lat="40.704577630385756" lon="13.875482976436615">
        <ele>134.72</ele>
        <time>2018-09-23T09:54:06Z</time>
      </trkpt>
      <trkpt lat="40.704652145504951" lon="13.875394547358155">
        <ele>134.72</ele>
        <time>2018-09-23T09:54:17Z</time>
      </trkpt>
      <trkpt lat="40.704720625653863" lon="13.87544316239655">
        <ele>134.72</ele>
        <time>2018-09-23T09:54:25Z</time>
      </trkpt>
      <trkpt lat="40.704795392230153" lon="13.87557115405798">
        <ele>135.68000000000001</ele>
        <time>2018-09-23T09:54:37Z</time>
      </trkpt>
      <trkpt lat="40.704837217926979" lon="13.875711550936103">
        <ele>137.13</ele>
        <time>2018-09-23T09:54:50Z</time>
      </trkpt>
      <trkpt lat="40.704887174069881" lon="13.875819509848952">
        <ele>138.09</ele>
        <time>2018-09-23T09:55:00Z</time>
      </trkpt>
      <trkpt lat="40.704904776066542" lon="13.875864269211888">
        <ele>138.56999999999999</ele>
        <time>2018-09-23T09:55:04Z</time>
      </trkpt>
      <trkpt lat="40.704991277307272" lon="13.875963343307376">
        <ele>139.53</ele>
        <time>2018-09-23T09:55:16Z</time>
      </trkpt>
      <trkpt lat="40.705049950629473" lon="13.875975832343102">
        <ele>140.97</ele>
        <time>2018-09-23T09:55:25Z</time>
      </trkpt>
      <trkpt lat="40.705080544576049" lon="13.875986896455288">
        <ele>140.97</ele>
        <time>2018-09-23T09:55:28Z</time>
      </trkpt>
      <trkpt lat="40.705138547345996" lon="13.876007851213217">
        <ele>141.93000000000001</ele>
        <time>2018-09-23T09:55:34Z</time>
      </trkpt>
      <trkpt lat="40.705256396904588" lon="13.876102231442928">
        <ele>143.37</ele>
        <time>2018-09-23T09:55:47Z</time>
      </trkpt>
      <trkpt lat="40.705246003344655" lon="13.87613408267498">
        <ele>143.84999999999999</ele>
        <time>2018-09-23T09:55:56Z</time>
      </trkpt>
      <trkpt lat="40.705202585086226" lon="13.876240784302354">
        <ele>143.84999999999999</ele>
        <time>2018-09-23T09:56:07Z</time>
      </trkpt>
      <trkpt lat="40.705187497660518" lon="13.876287220045924">
        <ele>143.84999999999999</ele>
        <time>2018-09-23T09:56:11Z</time>
      </trkpt>
      <trkpt lat="40.705123962834477" lon="13.876391658559442">
        <ele>143.84999999999999</ele>
        <time>2018-09-23T09:56:24Z</time>
      </trkpt>
      <trkpt lat="40.705057326704264" lon="13.876515878364444">
        <ele>143.84999999999999</ele>
        <time>2018-09-23T09:56:36Z</time>
      </trkpt>
      <trkpt lat="40.705053973942995" lon="13.876522500067949">
        <ele>143.84999999999999</ele>
        <time>2018-09-23T09:56:37Z</time>
      </trkpt>
      <trkpt lat="40.705037964507937" lon="13.876553513109684">
        <ele>144.81999999999999</ele>
        <time>2018-09-23T09:56:40Z</time>
      </trkpt>
      <trkpt lat="40.704972082749009" lon="13.876711428165436">
        <ele>144.34</ele>
        <time>2018-09-23T09:56:56Z</time>
      </trkpt>
      <trkpt lat="40.704922713339329" lon="13.876795582473278">
        <ele>144.34</ele>
        <time>2018-09-23T09:57:04Z</time>
      </trkpt>
      <trkpt lat="40.704844174906611" lon="13.876957939937711">
        <ele>144.34</ele>
        <time>2018-09-23T09:57:18Z</time>
      </trkpt>
      <trkpt lat="40.704829338937998" lon="13.877002531662583">
        <ele>144.34</ele>
        <time>2018-09-23T09:57:22Z</time>
      </trkpt>
      <trkpt lat="40.704764714464545" lon="13.877138989046216">
        <ele>144.34</ele>
        <time>2018-09-23T09:57:35Z</time>
      </trkpt>
      <trkpt lat="40.704684583470225" lon="13.877285504713655">
        <ele>144.34</ele>
        <time>2018-09-23T09:57:49Z</time>
      </trkpt>
      <trkpt lat="40.704597495496273" lon="13.877401929348707">
        <ele>144.34</ele>
        <time>2018-09-23T09:58:03Z</time>
      </trkpt>
      <trkpt lat="40.70451283827424" lon="13.877517096698284">
        <ele>143.37</ele>
        <time>2018-09-23T09:58:15Z</time>
      </trkpt>
      <trkpt lat="40.704487524926662" lon="13.877554563805461">
        <ele>142.88999999999999</ele>
        <time>2018-09-23T09:58:19Z</time>
      </trkpt>
      <trkpt lat="40.704468749463558" lon="13.877599406987429">
        <ele>142.88999999999999</ele>
        <time>2018-09-23T09:58:23Z</time>
      </trkpt>
      <trkpt lat="40.704365819692612" lon="13.877738546580076">
        <ele>141.44999999999999</ele>
        <time>2018-09-23T09:58:37Z</time>
      </trkpt>
      <trkpt lat="40.704231793060899" lon="13.877858491614461">
        <ele>139.53</ele>
        <time>2018-09-23T09:58:52Z</time>
      </trkpt>
      <trkpt lat="40.704081421718001" lon="13.877812726423144">
        <ele>137.61000000000001</ele>
        <time>2018-09-23T09:59:05Z</time>
      </trkpt>
      <trkpt lat="40.703964913263917" lon="13.877769727259874">
        <ele>136.16</ele>
        <time>2018-09-23T09:59:17Z</time>
      </trkpt>
      <trkpt lat="40.70388494990766" lon="13.877748856320977">
        <ele>134.72</ele>
        <time>2018-09-23T09:59:25Z</time>
      </trkpt>
      <trkpt lat="40.703771626576781" lon="13.877749778330326">
        <ele>132.80000000000001</ele>
        <time>2018-09-23T09:59:37Z</time>
      </trkpt>
      <trkpt lat="40.703672301024199" lon="13.877753801643848">
        <ele>131.36000000000001</ele>
        <time>2018-09-23T09:59:47Z</time>
      </trkpt>
      <trkpt lat="40.703590912744403" lon="13.877746425569057">
        <ele>129.91999999999999</ele>
        <time>2018-09-23T09:59:56Z</time>
      </trkpt>
      <trkpt lat="40.703465268015862" lon="13.877733265981078">
        <ele>127.51000000000001</ele>
        <time>2018-09-23T10:00:10Z</time>
      </trkpt>
      <trkpt lat="40.703395027667284" lon="13.877739971503615">
        <ele>126.06999999999999</ele>
        <time>2018-09-23T10:00:21Z</time>
      </trkpt>
      <trkpt lat="40.703306933864951" lon="13.877712311223149">
        <ele>124.15000000000001</ele>
        <time>2018-09-23T10:00:33Z</time>
      </trkpt>
      <trkpt lat="40.703223282471299" lon="13.877704683691263">
        <ele>122.22</ele>
        <time>2018-09-23T10:00:44Z</time>
      </trkpt>
      <trkpt lat="40.703108282759786" lon="13.877735445275903">
        <ele>120.3</ele>
        <time>2018-09-23T10:00:56Z</time>
      </trkpt>
      <trkpt lat="40.703022787347436" lon="13.877747263759375">
        <ele>119.34</ele>
        <time>2018-09-23T10:01:06Z</time>
      </trkpt>
      <trkpt lat="40.702905105426908" lon="13.877771571278572">
        <ele>117.42</ele>
        <time>2018-09-23T10:01:18Z</time>
      </trkpt>
      <trkpt lat="40.702776275575161" lon="13.877732679247856">
        <ele>114.05</ele>
        <time>2018-09-23T10:01:32Z</time>
      </trkpt>
      <trkpt lat="40.702669406309724" lon="13.877671994268894">
        <ele>112.13</ele>
        <time>2018-09-23T10:01:44Z</time>
      </trkpt>
      <trkpt lat="40.702532948926091" lon="13.877612482756376">
        <ele>110.69</ele>
        <time>2018-09-23T10:01:58Z</time>
      </trkpt>
      <trkpt lat="40.702415183186531" lon="13.877555737271905">
        <ele>108.77</ele>
        <time>2018-09-23T10:02:12Z</time>
      </trkpt>
      <trkpt lat="40.702324910089374" lon="13.877502596005797">
        <ele>108.77</ele>
        <time>2018-09-23T10:02:23Z</time>
      </trkpt>
      <trkpt lat="40.702260620892048" lon="13.877487424761057">
        <ele>107.81</ele>
        <time>2018-09-23T10:02:32Z</time>
      </trkpt>
      <trkpt lat="40.702169090509415" lon="13.877449287101626">
        <ele>106.84</ele>
        <time>2018-09-23T10:02:41Z</time>
      </trkpt>
      <trkpt lat="40.702148387208581" lon="13.877426320686936">
        <ele>106.36</ele>
        <time>2018-09-23T10:02:44Z</time>
      </trkpt>
      <trkpt lat="40.702040093019605" lon="13.877376280725002">
        <ele>103.95999999999999</ele>
        <time>2018-09-23T10:02:57Z</time>
      </trkpt>
      <trkpt lat="40.702036907896399" lon="13.877373766154051">
        <ele>103.48</ele>
        <time>2018-09-23T10:02:58Z</time>
      </trkpt>
      <trkpt lat="40.701979827135801" lon="13.877359433099627">
        <ele>103</ele>
        <time>2018-09-23T10:03:05Z</time>
      </trkpt>
      <trkpt lat="40.701947556808591" lon="13.877356080338359">
        <ele>102.04000000000001</ele>
        <time>2018-09-23T10:03:10Z</time>
      </trkpt>
      <trkpt lat="40.701829874888062" lon="13.87731995433569">
        <ele>101.08</ele>
        <time>2018-09-23T10:03:21Z</time>
      </trkpt>
      <trkpt lat="40.70169878192246" lon="13.877292377874255">
        <ele>99.150000000000006</ele>
        <time>2018-09-23T10:03:34Z</time>
      </trkpt>
      <trkpt lat="40.701690316200256" lon="13.877289528027177">
        <ele>99.150000000000006</ele>
        <time>2018-09-23T10:03:35Z</time>
      </trkpt>
      <trkpt lat="40.701626362279058" lon="13.877236554399133">
        <ele>98.670000000000002</ele>
        <time>2018-09-23T10:03:43Z</time>
      </trkpt>
      <trkpt lat="40.701519660651684" lon="13.877192968502641">
        <ele>97.709999999999994</ele>
        <time>2018-09-23T10:03:56Z</time>
      </trkpt>
      <trkpt lat="40.701397536322474" lon="13.877153405919671">
        <ele>96.75</ele>
        <time>2018-09-23T10:04:08Z</time>
      </trkpt>
      <trkpt lat="40.701273567974567" lon="13.877121387049556">
        <ele>95.790000000000006</ele>
        <time>2018-09-23T10:04:20Z</time>
      </trkpt>
      <trkpt lat="40.701146498322487" lon="13.877176623791456">
        <ele>93.870000000000005</ele>
        <time>2018-09-23T10:04:33Z</time>
      </trkpt>
      <trkpt lat="40.701044490560889" lon="13.877270249649882">
        <ele>92.900000000000006</ele>
        <time>2018-09-23T10:04:45Z</time>
      </trkpt>
      <trkpt lat="40.700933933258057" lon="13.877334957942367">
        <ele>91.459999999999994</ele>
        <time>2018-09-23T10:04:57Z</time>
      </trkpt>
      <trkpt lat="40.700817173346877" lon="13.877424309030175">
        <ele>89.540000000000006</ele>
        <time>2018-09-23T10:05:10Z</time>
      </trkpt>
      <trkpt lat="40.700713070109487" lon="13.877529166638851">
        <ele>87.140000000000001</ele>
        <time>2018-09-23T10:05:24Z</time>
      </trkpt>
      <trkpt lat="40.700706532225013" lon="13.877534111961722">
        <ele>87.140000000000001</ele>
        <time>2018-09-23T10:05:25Z</time>
      </trkpt>
      <trkpt lat="40.700593795627356" lon="13.877591108903289">
        <ele>84.730000000000004</ele>
        <time>2018-09-23T10:05:37Z</time>
      </trkpt>
      <trkpt lat="40.700552808120847" lon="13.877599239349365">
        <ele>84.25</ele>
        <time>2018-09-23T10:05:41Z</time>
      </trkpt>
      <trkpt lat="40.700433198362589" lon="13.877642741426826">
        <ele>81.849999999999994</ele>
        <time>2018-09-23T10:05:54Z</time>
      </trkpt>
      <trkpt lat="40.700412411242723" lon="13.87764835730195">
        <ele>80.890000000000001</ele>
        <time>2018-09-23T10:05:56Z</time>
      </trkpt>
      <trkpt lat="40.700324904173613" lon="13.877735193818808">
        <ele>78.480000000000004</ele>
        <time>2018-09-23T10:06:09Z</time>
      </trkpt>
      <trkpt lat="40.700239827856421" lon="13.877857318148017">
        <ele>76.079999999999998</ele>
        <time>2018-09-23T10:06:25Z</time>
      </trkpt>
      <trkpt lat="40.700196241959929" lon="13.877838542684913">
        <ele>75.599999999999994</ele>
        <time>2018-09-23T10:06:29Z</time>
      </trkpt>
      <trkpt lat="40.70007948204875" lon="13.877835357561707">
        <ele>76.079999999999998</ele>
        <time>2018-09-23T10:06:41Z</time>
      </trkpt>
      <trkpt lat="40.7000682502985" lon="13.877811972051859">
        <ele>76.079999999999998</ele>
        <time>2018-09-23T10:06:53Z</time>
      </trkpt>
      <trkpt lat="40.70006238296628" lon="13.877818007022142">
        <ele>76.560000000000002</ele>
        <time>2018-09-23T10:07:09Z</time>
      </trkpt>
      <trkpt lat="40.700104627758265" lon="13.87781448662281">
        <ele>75.599999999999994</ele>
        <time>2018-09-23T10:07:21Z</time>
      </trkpt>
      <trkpt lat="40.700148968026042" lon="13.87783158570528">
        <ele>75.599999999999994</ele>
        <time>2018-09-23T10:07:29Z</time>
      </trkpt>
      <trkpt lat="40.700117535889149" lon="13.877848600968719">
        <ele>75.599999999999994</ele>
        <time>2018-09-23T10:07:40Z</time>
      </trkpt>
      <trkpt lat="40.70010538212955" lon="13.877839045599103">
        <ele>75.599999999999994</ele>
        <time>2018-09-23T10:07:50Z</time>
      </trkpt>
      <trkpt lat="40.700100101530552" lon="13.877838794142008">
        <ele>75.120000000000005</ele>
        <time>2018-09-23T10:08:02Z</time>
      </trkpt>
      <trkpt lat="40.700102280825377" lon="13.877832926809788">
        <ele>75.599999999999994</ele>
        <time>2018-09-23T10:08:18Z</time>
      </trkpt>
      <trkpt lat="40.700113093480468" lon="13.877823958173394">
        <ele>75.599999999999994</ele>
        <time>2018-09-23T10:08:23Z</time>
      </trkpt>
      <trkpt lat="40.700115188956261" lon="13.877834603190422">
        <ele>75.120000000000005</ele>
        <time>2018-09-23T10:08:33Z</time>
      </trkpt>
      <trkpt lat="40.700097754597664" lon="13.877830831333995">
        <ele>75.120000000000005</ele>
        <time>2018-09-23T10:08:38Z</time>
      </trkpt>
      <trkpt lat="40.70011611096561" lon="13.87784281745553">
        <ele>75.120000000000005</ele>
        <time>2018-09-23T10:08:56Z</time>
      </trkpt>
      <trkpt lat="40.700110998004675" lon="13.87785404920578">
        <ele>75.599999999999994</ele>
        <time>2018-09-23T10:09:10Z</time>
      </trkpt>
      <trkpt lat="40.700087361037731" lon="13.877845415845513">
        <ele>75.599999999999994</ele>
        <time>2018-09-23T10:09:21Z</time>
      </trkpt>
      <trkpt lat="40.700095240026712" lon="13.877838794142008">
        <ele>75.599999999999994</ele>
        <time>2018-09-23T10:09:37Z</time>
      </trkpt>
      <trkpt lat="40.700098173692822" lon="13.877812223508954">
        <ele>75.599999999999994</ele>
        <time>2018-09-23T10:09:53Z</time>
      </trkpt>
      <trkpt lat="40.700098006054759" lon="13.877813648432493">
        <ele>75.599999999999994</ele>
        <time>2018-09-23T10:10:05Z</time>
      </trkpt>
      <trkpt lat="40.700093982741237" lon="13.877810630947351">
        <ele>75.120000000000005</ele>
        <time>2018-09-23T10:10:16Z</time>
      </trkpt>
      <trkpt lat="40.700106555595994" lon="13.877828903496265">
        <ele>75.120000000000005</ele>
        <time>2018-09-23T10:10:29Z</time>
      </trkpt>
      <trkpt lat="40.700066490098834" lon="13.877816665917635">
        <ele>75.120000000000005</ele>
        <time>2018-09-23T10:10:41Z</time>
      </trkpt>
      <trkpt lat="40.700081326067448" lon="13.877817839384079">
        <ele>75.599999999999994</ele>
        <time>2018-09-23T10:10:56Z</time>
      </trkpt>
      <trkpt lat="40.700080236420035" lon="13.877793028950691">
        <ele>75.120000000000005</ele>
        <time>2018-09-23T10:11:09Z</time>
      </trkpt>
      <trkpt lat="40.700099095702171" lon="13.87777978554368">
        <ele>75.120000000000005</ele>
        <time>2018-09-23T10:11:23Z</time>
      </trkpt>
      <trkpt lat="40.700165899470448" lon="13.877826472744346">
        <ele>75.120000000000005</ele>
        <time>2018-09-23T10:11:33Z</time>
      </trkpt>
      <trkpt lat="40.700224656611681" lon="13.877900820225477">
        <ele>74.640000000000001</ele>
        <time>2018-09-23T10:11:43Z</time>
      </trkpt>
      <trkpt lat="40.700150728225708" lon="13.877946753054857">
        <ele>73.680000000000007</ele>
        <time>2018-09-23T10:11:53Z</time>
      </trkpt>
      <trkpt lat="40.700099179521203" lon="13.877921774983406">
        <ele>72.239999999999995</ele>
        <time>2018-09-23T10:12:05Z</time>
      </trkpt>
      <trkpt lat="40.700104041025043" lon="13.877916075289249">
        <ele>72.719999999999999</ele>
        <time>2018-09-23T10:12:14Z</time>
      </trkpt>
      <trkpt lat="40.700080068781972" lon="13.877923870459199">
        <ele>72.719999999999999</ele>
        <time>2018-09-23T10:12:23Z</time>
      </trkpt>
      <trkpt lat="40.700056180357933" lon="13.877931581810117">
        <ele>71.760000000000005</ele>
        <time>2018-09-23T10:12:38Z</time>
      </trkpt>
      <trkpt lat="40.700029190629721" lon="13.877989500761032">
        <ele>70.790000000000006</ele>
        <time>2018-09-23T10:12:48Z</time>
      </trkpt>
      <trkpt lat="40.700019216164947" lon="13.878009617328644">
        <ele>69.829999999999998</ele>
        <time>2018-09-23T10:12:50Z</time>
      </trkpt>
      <trkpt lat="40.700004128739238" lon="13.878026884049177">
        <ele>71.269999999999996</ele>
        <time>2018-09-23T10:12:59Z</time>
      </trkpt>
      <trkpt lat="40.699969595298171" lon="13.878092262893915">
        <ele>67.909999999999997</ele>
        <time>2018-09-23T10:13:08Z</time>
      </trkpt>
      <trkpt lat="40.699932966381311" lon="13.878204161301255">
        <ele>65.989999999999995</ele>
        <time>2018-09-23T10:13:22Z</time>
      </trkpt>
      <trkpt lat="40.699902288615704" lon="13.878326369449496">
        <ele>63.579999999999998</ele>
        <time>2018-09-23T10:13:36Z</time>
      </trkpt>
      <trkpt lat="40.699871610850096" lon="13.878368278965354">
        <ele>62.140000000000001</ele>
        <time>2018-09-23T10:13:41Z</time>
      </trkpt>
      <trkpt lat="40.699796928092837" lon="13.878465592861176">
        <ele>58.780000000000001</ele>
        <time>2018-09-23T10:13:53Z</time>
      </trkpt>
      <trkpt lat="40.699765244498849" lon="13.878420665860176">
        <ele>56.859999999999999</ele>
        <time>2018-09-23T10:14:03Z</time>
      </trkpt>
      <trkpt lat="40.699764154851437" lon="13.87831337749958">
        <ele>53.969999999999999</ele>
        <time>2018-09-23T10:14:14Z</time>
      </trkpt>
      <trkpt lat="40.699713611975312" lon="13.878316981717944">
        <ele>52.530000000000001</ele>
        <time>2018-09-23T10:14:23Z</time>
      </trkpt>
      <trkpt lat="40.699675558134913" lon="13.878347324207425">
        <ele>51.090000000000003</ele>
        <time>2018-09-23T10:14:35Z</time>
      </trkpt>
      <trkpt lat="40.699616549536586" lon="13.878387892618775">
        <ele>48.68</ele>
        <time>2018-09-23T10:14:42Z</time>
      </trkpt>
      <trkpt lat="40.699602970853448" lon="13.878336679190397">
        <ele>48.200000000000003</ele>
        <time>2018-09-23T10:14:50Z</time>
      </trkpt>
      <trkpt lat="40.699620740488172" lon="13.878260906785727">
        <ele>47.719999999999999</ele>
        <time>2018-09-23T10:15:00Z</time>
      </trkpt>
      <trkpt lat="40.699638593941927" lon="13.878233917057514">
        <ele>45.799999999999997</ele>
        <time>2018-09-23T10:15:03Z</time>
      </trkpt>
      <trkpt lat="40.699645886197686" lon="13.878213381394744">
        <ele>45.32</ele>
        <time>2018-09-23T10:15:05Z</time>
      </trkpt>
      <trkpt lat="40.69967002607882" lon="13.878086898475885">
        <ele>41.950000000000003</ele>
        <time>2018-09-23T10:15:17Z</time>
      </trkpt>
      <trkpt lat="40.699673881754279" lon="13.877988243475556">
        <ele>39.549999999999997</ele>
        <time>2018-09-23T10:15:26Z</time>
      </trkpt>
      <trkpt lat="40.699673127382994" lon="13.877989919856191">
        <ele>39.549999999999997</ele>
        <time>2018-09-23T10:15:29Z</time>
      </trkpt>
      <trkpt lat="40.699630714952946" lon="13.877985812723637">
        <ele>38.109999999999999</ele>
        <time>2018-09-23T10:15:35Z</time>
      </trkpt>
      <trkpt lat="40.699584195390344" lon="13.878066362813115">
        <ele>35.710000000000001</ele>
        <time>2018-09-23T10:15:45Z</time>
      </trkpt>
      <trkpt lat="40.699555948376656" lon="13.878141967579722">
        <ele>34.259999999999998</ele>
        <time>2018-09-23T10:15:55Z</time>
      </trkpt>
      <trkpt lat="40.699504986405373" lon="13.878238191828132">
        <ele>31.379999999999999</ele>
        <time>2018-09-23T10:16:04Z</time>
      </trkpt>
      <trkpt lat="40.699498448520899" lon="13.878244310617447">
        <ele>30.899999999999999</ele>
        <time>2018-09-23T10:16:05Z</time>
      </trkpt>
      <trkpt lat="40.69946818985045" lon="13.878279095515609">
        <ele>29.940000000000001</ele>
        <time>2018-09-23T10:16:10Z</time>
      </trkpt>
      <trkpt lat="40.69938512519002" lon="13.878382779657841">
        <ele>28.02</ele>
        <time>2018-09-23T10:16:21Z</time>
      </trkpt>
      <trkpt lat="40.699354531243443" lon="13.87834707275033">
        <ele>26.09</ele>
        <time>2018-09-23T10:16:30Z</time>
      </trkpt>
      <trkpt lat="40.699380012229085" lon="13.878247747197747">
        <ele>23.210000000000001</ele>
        <time>2018-09-23T10:16:40Z</time>
      </trkpt>
      <trkpt lat="40.699389483779669" lon="13.878232156857848">
        <ele>22.25</ele>
        <time>2018-09-23T10:16:42Z</time>
      </trkpt>
      <trkpt lat="40.699410857632756" lon="13.878163676708937">
        <ele>20.809999999999999</ele>
        <time>2018-09-23T10:16:48Z</time>
      </trkpt>
      <trkpt lat="40.699423011392355" lon="13.878079270943999">
        <ele>18.399999999999999</ele>
        <time>2018-09-23T10:16:59Z</time>
      </trkpt>
      <trkpt lat="40.699383281171322" lon="13.87814867310226">
        <ele>16.960000000000001</ele>
        <time>2018-09-23T10:17:10Z</time>
      </trkpt>
      <trkpt lat="40.699344892054796" lon="13.878196282312274">
        <ele>15.52</ele>
        <time>2018-09-23T10:17:19Z</time>
      </trkpt>
      <trkpt lat="40.699272975325584" lon="13.878194522112608">
        <ele>14.08</ele>
        <time>2018-09-23T10:17:29Z</time>
      </trkpt>
      <trkpt lat="40.699261827394366" lon="13.878207933157682">
        <ele>13.6</ele>
        <time>2018-09-23T10:17:44Z</time>
      </trkpt>
      <trkpt lat="40.699246907606721" lon="13.878222014755011">
        <ele>14.08</ele>
        <time>2018-09-23T10:17:58Z</time>
      </trkpt>
      <trkpt lat="40.699216984212399" lon="13.878239700570703">
        <ele>13.119999999999999</ele>
        <time>2018-09-23T10:18:08Z</time>
      </trkpt>
      <trkpt lat="40.69921463727951" lon="13.878223020583391">
        <ele>13.119999999999999</ele>
        <time>2018-09-23T10:18:21Z</time>
      </trkpt>
      <trkpt lat="40.69924246519804" lon="13.878164514899254">
        <ele>13.6</ele>
        <time>2018-09-23T10:18:31Z</time>
      </trkpt>
      <trkpt lat="40.699245566502213" lon="13.878178931772709">
        <ele>13.119999999999999</ele>
        <time>2018-09-23T10:18:39Z</time>
      </trkpt>
      <trkpt lat="40.699251098558307" lon="13.878159150481224">
        <ele>13.6</ele>
        <time>2018-09-23T10:18:43Z</time>
      </trkpt>
      <trkpt lat="40.699309268966317" lon="13.878096789121628">
        <ele>14.56</ele>
        <time>2018-09-23T10:18:53Z</time>
      </trkpt>
      <trkpt lat="40.69933919236064" lon="13.878083042800426">
        <ele>14.56</ele>
        <time>2018-09-23T10:19:06Z</time>
      </trkpt>
      <trkpt lat="40.699354028329253" lon="13.878062758594751">
        <ele>14.56</ele>
        <time>2018-09-23T10:19:17Z</time>
      </trkpt>
      <trkpt lat="40.699411695823073" lon="13.877935688942671">
        <ele>14.56</ele>
        <time>2018-09-23T10:19:29Z</time>
      </trkpt>
      <trkpt lat="40.699431393295527" lon="13.877918506041169">
        <ele>15.52</ele>
        <time>2018-09-23T10:19:35Z</time>
      </trkpt>
      <trkpt lat="40.699445558711886" lon="13.877876093611121">
        <ele>14.08</ele>
        <time>2018-09-23T10:19:44Z</time>
      </trkpt>
      <trkpt lat="40.699451845139265" lon="13.877904508262873">
        <ele>13.6</ele>
        <time>2018-09-23T10:19:54Z</time>
      </trkpt>
      <trkpt lat="40.699465675279498" lon="13.877873662859201">
        <ele>13.6</ele>
        <time>2018-09-23T10:19:58Z</time>
      </trkpt>
      <trkpt lat="40.699504064396024" lon="13.877840470522642">
        <ele>14.08</ele>
        <time>2018-09-23T10:20:06Z</time>
      </trkpt>
      <trkpt lat="40.699508506804705" lon="13.877802500501275">
        <ele>13.6</ele>
        <time>2018-09-23T10:20:14Z</time>
      </trkpt>
      <trkpt lat="40.699533233419061" lon="13.877819012850523">
        <ele>12.630000000000001</ele>
        <time>2018-09-23T10:20:23Z</time>
      </trkpt>
      <trkpt lat="40.699543207883835" lon="13.87782328762114">
        <ele>12.630000000000001</ele>
        <time>2018-09-23T10:20:37Z</time>
      </trkpt>
      <trkpt lat="40.699511272832751" lon="13.877840554341674">
        <ele>13.119999999999999</ele>
        <time>2018-09-23T10:20:59Z</time>
      </trkpt>
      <trkpt lat="40.69951999001205" lon="13.877844242379069">
        <ele>12.630000000000001</ele>
        <time>2018-09-23T10:21:15Z</time>
      </trkpt>
      <trkpt lat="40.699547901749611" lon="13.877821946516633">
        <ele>12.630000000000001</ele>
        <time>2018-09-23T10:21:34Z</time>
      </trkpt>
      <trkpt lat="40.699528036639094" lon="13.877824041992426">
        <ele>12.630000000000001</ele>
        <time>2018-09-23T10:21:52Z</time>
      </trkpt>
      <trkpt lat="40.699550583958626" lon="13.877842063084245">
        <ele>12.630000000000001</ele>
        <time>2018-09-23T10:22:15Z</time>
      </trkpt>
      <trkpt lat="40.6995639950037" lon="13.877848014235497">
        <ele>13.6</ele>
        <time>2018-09-23T10:22:38Z</time>
      </trkpt>
      <trkpt lat="40.699545973911881" lon="13.877822533249855">
        <ele>12.15</ele>
        <time>2018-09-23T10:22:56Z</time>
      </trkpt>
      <trkpt lat="40.699476571753621" lon="13.877771906554699">
        <ele>12.15</ele>
        <time>2018-09-23T10:23:19Z</time>
      </trkpt>
      <trkpt lat="40.699517978355289" lon="13.877776181325316">
        <ele>12.15</ele>
        <time>2018-09-23T10:23:46Z</time>
      </trkpt>
      <trkpt lat="40.699511943385005" lon="13.877735948190093">
        <ele>12.15</ele>
        <time>2018-09-23T10:24:11Z</time>
      </trkpt>
      <trkpt lat="40.699504902586341" lon="13.877733768895268">
        <ele>11.67</ele>
        <time>2018-09-23T10:24:37Z</time>
      </trkpt>
      <trkpt lat="40.699490988627076" lon="13.877753801643848">
        <ele>11.67</ele>
        <time>2018-09-23T10:25:01Z</time>
      </trkpt>
      <trkpt lat="40.699463663622737" lon="13.877777606248856">
        <ele>12.15</ele>
        <time>2018-09-23T10:25:28Z</time>
      </trkpt>
      <trkpt lat="40.699512027204037" lon="13.877824125811458">
        <ele>12.15</ele>
        <time>2018-09-23T10:25:45Z</time>
      </trkpt>
      <trkpt lat="40.699501549825072" lon="13.877846505492926">
        <ele>12.15</ele>
        <time>2018-09-23T10:26:04Z</time>
      </trkpt>
      <trkpt lat="40.699527114629745" lon="13.87784281745553">
        <ele>11.67</ele>
        <time>2018-09-23T10:26:30Z</time>
      </trkpt>
      <trkpt lat="40.699565000832081" lon="13.877851366996765">
        <ele>12.15</ele>
        <time>2018-09-23T10:26:54Z</time>
      </trkpt>
      <trkpt lat="40.699510937556624" lon="13.87782328762114">
        <ele>12.15</ele>
        <time>2018-09-23T10:27:13Z</time>
      </trkpt>
      <trkpt lat="40.699507417157292" lon="13.877804260700941">
        <ele>11.67</ele>
        <time>2018-09-23T10:27:42Z</time>
      </trkpt>
      <trkpt lat="40.699443463236094" lon="13.877769559621811">
        <ele>11.67</ele>
        <time>2018-09-23T10:28:07Z</time>
      </trkpt>
      <trkpt lat="40.699443463236094" lon="13.877784730866551">
        <ele>11.67</ele>
        <time>2018-09-23T10:28:34Z</time>
      </trkpt>
      <trkpt lat="40.699467435479164" lon="13.877787161618471">
        <ele>11.67</ele>
        <time>2018-09-23T10:29:01Z</time>
      </trkpt>
      <trkpt lat="40.699493503198028" lon="13.877787748351693">
        <ele>11.67</ele>
        <time>2018-09-23T10:29:28Z</time>
      </trkpt>
      <trkpt lat="40.699453437700868" lon="13.87779738754034">
        <ele>11.67</ele>
        <time>2018-09-23T10:29:55Z</time>
      </trkpt>
      <trkpt lat="40.699439691379666" lon="13.877760423347354">
        <ele>11.19</ele>
        <time>2018-09-23T10:30:19Z</time>
      </trkpt>
      <trkpt lat="40.699461819604039" lon="13.877786742523313">
        <ele>11.67</ele>
        <time>2018-09-23T10:30:52Z</time>
      </trkpt>
      <trkpt lat="40.699462993070483" lon="13.877787748351693">
        <ele>11.67</ele>
        <time>2018-09-23T10:31:11Z</time>
      </trkpt>
      <trkpt lat="40.699516050517559" lon="13.877803841605783">
        <ele>11.19</ele>
        <time>2018-09-23T10:31:45Z</time>
      </trkpt>
      <trkpt lat="40.699462993070483" lon="13.877786658704281">
        <ele>11.19</ele>
        <time>2018-09-23T10:32:11Z</time>
      </trkpt>
      <trkpt lat="40.699442038312554" lon="13.877797303721309">
        <ele>10.710000000000001</ele>
        <time>2018-09-23T10:32:43Z</time>
      </trkpt>
      <trkpt lat="40.6994638312608" lon="13.877765368670225">
        <ele>11.19</ele>
        <time>2018-09-23T10:33:13Z</time>
      </trkpt>
      <trkpt lat="40.699480175971985" lon="13.877785904332995">
        <ele>11.19</ele>
        <time>2018-09-23T10:33:43Z</time>
      </trkpt>
      <trkpt lat="40.699510350823402" lon="13.877790179103613">
        <ele>10.710000000000001</ele>
        <time>2018-09-23T10:34:10Z</time>
      </trkpt>
      <trkpt lat="40.69951806217432" lon="13.87775732204318">
        <ele>10.710000000000001</ele>
        <time>2018-09-23T10:34:37Z</time>
      </trkpt>
      <trkpt lat="40.699479505419731" lon="13.877825886011124">
        <ele>10.710000000000001</ele>
        <time>2018-09-23T10:35:10Z</time>
      </trkpt>
      <trkpt lat="40.699590817093849" lon="13.877791184931993">
        <ele>10.23</ele>
        <time>2018-09-23T10:35:39Z</time>
      </trkpt>
      <trkpt lat="40.699538849294186" lon="13.877808200195432">
        <ele>9.75</ele>
        <time>2018-09-23T10:36:02Z</time>
      </trkpt>
      <trkpt lat="40.69953516125679" lon="13.87781348079443">
        <ele>9.75</ele>
        <time>2018-09-23T10:36:27Z</time>
      </trkpt>
      <trkpt lat="40.699475565925241" lon="13.877799902111292">
        <ele>9.75</ele>
        <time>2018-09-23T10:36:52Z</time>
      </trkpt>
      <trkpt lat="40.699482103809714" lon="13.877836195752025">
        <ele>10.23</ele>
        <time>2018-09-23T10:37:20Z</time>
      </trkpt>
      <trkpt lat="40.699571371078491" lon="13.877859581261873">
        <ele>9.75</ele>
        <time>2018-09-23T10:37:53Z</time>
      </trkpt>
      <trkpt lat="40.699525438249111" lon="13.877894785255194">
        <ele>9.75</ele>
        <time>2018-09-23T10:38:20Z</time>
      </trkpt>
      <trkpt lat="40.699507165700197" lon="13.87781934812665">
        <ele>9.75</ele>
        <time>2018-09-23T10:38:50Z</time>
      </trkpt>
      <trkpt lat="40.699481852352619" lon="13.87781985104084">
        <ele>9.75</ele>
        <time>2018-09-23T10:39:16Z</time>
      </trkpt>
      <trkpt lat="40.699510937556624" lon="13.877858407795429">
        <ele>9.75</ele>
        <time>2018-09-23T10:39:41Z</time>
      </trkpt>
      <trkpt lat="40.699504483491182" lon="13.877863939851522">
        <ele>9.75</ele>
        <time>2018-09-23T10:40:06Z</time>
      </trkpt>
      <trkpt lat="40.69949459284544" lon="13.877863604575396">
        <ele>9.75</ele>
        <time>2018-09-23T10:40:30Z</time>
      </trkpt>
      <trkpt lat="40.699454946443439" lon="13.877849690616131">
        <ele>9.75</ele>
        <time>2018-09-23T10:40:49Z</time>
      </trkpt>
      <trkpt lat="40.699429549276829" lon="13.87784524820745">
        <ele>9.27</ele>
        <time>2018-09-23T10:41:18Z</time>
      </trkpt>
      <trkpt lat="40.699507249519229" lon="13.877819012850523">
        <ele>9.27</ele>
        <time>2018-09-23T10:41:46Z</time>
      </trkpt>
      <trkpt lat="40.699472380802035" lon="13.877818426117301">
        <ele>9.27</ele>
        <time>2018-09-23T10:42:07Z</time>
      </trkpt>
      <trkpt lat="40.699481517076492" lon="13.877824461087584">
        <ele>9.27</ele>
        <time>2018-09-23T10:42:26Z</time>
      </trkpt>
      <trkpt lat="40.69950046017766" lon="13.877843068912625">
        <ele>9.27</ele>
        <time>2018-09-23T10:42:41Z</time>
      </trkpt>
      <trkpt lat="40.699493754655123" lon="13.877900820225477">
        <ele>9.27</ele>
        <time>2018-09-23T10:42:58Z</time>
      </trkpt>
      <trkpt lat="40.699481517076492" lon="13.877870226278901">
        <ele>9.75</ele>
        <time>2018-09-23T10:43:14Z</time>
      </trkpt>
      <trkpt lat="40.699528371915221" lon="13.877851534634829">
        <ele>9.27</ele>
        <time>2018-09-23T10:43:39Z</time>
      </trkpt>
      <trkpt lat="40.699547063559294" lon="13.877884391695261">
        <ele>9.27</ele>
        <time>2018-09-23T10:44:00Z</time>
      </trkpt>
      <trkpt lat="40.699516972526908" lon="13.877838626503944">
        <ele>8.789999999999999</ele>
        <time>2018-09-23T10:44:31Z</time>
      </trkpt>
      <trkpt lat="40.699519487097859" lon="13.877841979265213">
        <ele>9.27</ele>
        <time>2018-09-23T10:44:52Z</time>
      </trkpt>
      <trkpt lat="40.699520660564303" lon="13.877869891002774">
        <ele>9.27</ele>
        <time>2018-09-23T10:45:15Z</time>
      </trkpt>
      <trkpt lat="40.699518984183669" lon="13.87784231454134">
        <ele>8.789999999999999</ele>
        <time>2018-09-23T10:45:35Z</time>
      </trkpt>
      <trkpt lat="40.699556283652782" lon="13.877824461087584">
        <ele>8.789999999999999</ele>
        <time>2018-09-23T10:45:55Z</time>
      </trkpt>
      <trkpt lat="40.699576651677489" lon="13.877824796363711">
        <ele>8.310000000000001</ele>
        <time>2018-09-23T10:46:16Z</time>
      </trkpt>
      <trkpt lat="40.699509428814054" lon="13.877828819677234">
        <ele>8.310000000000001</ele>
        <time>2018-09-23T10:46:44Z</time>
      </trkpt>
      <trkpt lat="40.699509009718895" lon="13.877852121368051">
        <ele>8.310000000000001</ele>
        <time>2018-09-23T10:47:14Z</time>
      </trkpt>
      <trkpt lat="40.699486210942268" lon="13.877823119983077">
        <ele>8.310000000000001</ele>
        <time>2018-09-23T10:47:47Z</time>
      </trkpt>
      <trkpt lat="40.699453186243773" lon="13.877833262085915">
        <ele>8.789999999999999</ele>
        <time>2018-09-23T10:48:08Z</time>
      </trkpt>
      <trkpt lat="40.699490569531918" lon="13.877834603190422">
        <ele>8.310000000000001</ele>
        <time>2018-09-23T10:48:32Z</time>
      </trkpt>
      <trkpt lat="40.699533233419061" lon="13.877823203802109">
        <ele>8.789999999999999</ele>
        <time>2018-09-23T10:48:51Z</time>
      </trkpt>
      <trkpt lat="40.699541447684169" lon="13.877801494672894">
        <ele>8.789999999999999</ele>
        <time>2018-09-23T10:49:09Z</time>
      </trkpt>
      <trkpt lat="40.699491323903203" lon="13.877806942909956">
        <ele>8.789999999999999</ele>
        <time>2018-09-23T10:49:34Z</time>
      </trkpt>
      <trkpt lat="40.699498783797026" lon="13.877841979265213">
        <ele>8.310000000000001</ele>
        <time>2018-09-23T10:49:53Z</time>
      </trkpt>
      <trkpt lat="40.699516134336591" lon="13.877900904044509">
        <ele>8.310000000000001</ele>
        <time>2018-09-23T10:50:18Z</time>
      </trkpt>
      <trkpt lat="40.699538262560964" lon="13.877870561555028">
        <ele>8.310000000000001</ele>
        <time>2018-09-23T10:50:44Z</time>
      </trkpt>
      <trkpt lat="40.699558965861797" lon="13.877872489392757">
        <ele>8.310000000000001</ele>
        <time>2018-09-23T10:51:03Z</time>
      </trkpt>
      <trkpt lat="40.699567263945937" lon="13.877821108326316">
        <ele>8.789999999999999</ele>
        <time>2018-09-23T10:51:22Z</time>
      </trkpt>
      <trkpt lat="40.699523091316223" lon="13.877830663695931">
        <ele>8.310000000000001</ele>
        <time>2018-09-23T10:51:45Z</time>
      </trkpt>
      <trkpt lat="40.699565671384335" lon="13.877812894061208">
        <ele>8.310000000000001</ele>
        <time>2018-09-23T10:52:14Z</time>
      </trkpt>
      <trkpt lat="40.699582435190678" lon="13.877837536856532">
        <ele>8.310000000000001</ele>
        <time>2018-09-23T10:52:29Z</time>
      </trkpt>
      <trkpt lat="40.699562570080161" lon="13.877853211015463">
        <ele>8.310000000000001</ele>
        <time>2018-09-23T10:52:49Z</time>
      </trkpt>
      <trkpt lat="40.699567180126905" lon="13.877826724201441">
        <ele>7.83</ele>
        <time>2018-09-23T10:53:14Z</time>
      </trkpt>
      <trkpt lat="40.699535831809044" lon="13.877852875739336">
        <ele>8.310000000000001</ele>
        <time>2018-09-23T10:53:36Z</time>
      </trkpt>
      <trkpt lat="40.699494257569313" lon="13.877854133024812">
        <ele>8.310000000000001</ele>
        <time>2018-09-23T10:53:57Z</time>
      </trkpt>
      <trkpt lat="40.69950289092958" lon="13.877834603190422">
        <ele>8.310000000000001</ele>
        <time>2018-09-23T10:54:20Z</time>
      </trkpt>
      <trkpt lat="40.699534909799695" lon="13.877806942909956">
        <ele>8.310000000000001</ele>
        <time>2018-09-23T10:54:42Z</time>
      </trkpt>
      <trkpt lat="40.699531137943268" lon="13.877824544906616">
        <ele>8.310000000000001</ele>
        <time>2018-09-23T10:55:00Z</time>
      </trkpt>
      <trkpt lat="40.699518397450447" lon="13.877846756950021">
        <ele>8.789999999999999</ele>
        <time>2018-09-23T10:55:20Z</time>
      </trkpt>
      <trkpt lat="40.699493000283837" lon="13.877860167995095">
        <ele>8.310000000000001</ele>
        <time>2018-09-23T10:55:42Z</time>
      </trkpt>
      <trkpt lat="40.699469028040767" lon="13.877855474129319">
        <ele>8.310000000000001</ele>
        <time>2018-09-23T10:56:10Z</time>
      </trkpt>
      <trkpt lat="40.699488138779998" lon="13.877852708101273">
        <ele>8.310000000000001</ele>
        <time>2018-09-23T10:56:32Z</time>
      </trkpt>
      <trkpt lat="40.699501885101199" lon="13.8778340164572">
        <ele>8.310000000000001</ele>
        <time>2018-09-23T10:56:53Z</time>
      </trkpt>
      <trkpt lat="40.699498280882835" lon="13.877808703109622">
        <ele>8.310000000000001</ele>
        <time>2018-09-23T10:57:11Z</time>
      </trkpt>
      <trkpt lat="40.699486043304205" lon="13.877823455259204">
        <ele>8.310000000000001</ele>
        <time>2018-09-23T10:57:28Z</time>
      </trkpt>
      <trkpt lat="40.699441619217396" lon="13.877884894609451">
        <ele>8.310000000000001</ele>
        <time>2018-09-23T10:57:46Z</time>
      </trkpt>
      <trkpt lat="40.699470704421401" lon="13.877843404188752">
        <ele>8.310000000000001</ele>
        <time>2018-09-23T10:58:09Z</time>
      </trkpt>
      <trkpt lat="40.699498113244772" lon="13.877826137468219">
        <ele>8.789999999999999</ele>
        <time>2018-09-23T10:58:25Z</time>
      </trkpt>
      <trkpt lat="40.699516134336591" lon="13.877839297056198">
        <ele>8.310000000000001</ele>
        <time>2018-09-23T10:58:40Z</time>
      </trkpt>
      <trkpt lat="40.699524851515889" lon="13.877849187701941">
        <ele>8.310000000000001</ele>
        <time>2018-09-23T10:58:58Z</time>
      </trkpt>
      <trkpt lat="40.699517307803035" lon="13.877841643989086">
        <ele>8.789999999999999</ele>
        <time>2018-09-23T10:59:14Z</time>
      </trkpt>
      <trkpt lat="40.69950339384377" lon="13.877876680344343">
        <ele>8.789999999999999</ele>
        <time>2018-09-23T10:59:36Z</time>
      </trkpt>
      <trkpt lat="40.699472380802035" lon="13.877883972600102">
        <ele>8.789999999999999</ele>
        <time>2018-09-23T10:59:58Z</time>
      </trkpt>
      <trkpt lat="40.699481265619397" lon="13.877871232107282">
        <ele>8.310000000000001</ele>
        <time>2018-09-23T11:00:23Z</time>
      </trkpt>
      <trkpt lat="40.699498616158962" lon="13.877851283177733">
        <ele>8.310000000000001</ele>
        <time>2018-09-23T11:00:42Z</time>
      </trkpt>
      <trkpt lat="40.699498448520899" lon="13.877830160781741">
        <ele>8.310000000000001</ele>
        <time>2018-09-23T11:01:04Z</time>
      </trkpt>
      <trkpt lat="40.69951269775629" lon="13.877824293449521">
        <ele>8.310000000000001</ele>
        <time>2018-09-23T11:01:20Z</time>
      </trkpt>
      <trkpt lat="40.699509931728244" lon="13.877800069749355">
        <ele>8.310000000000001</ele>
        <time>2018-09-23T11:01:36Z</time>
      </trkpt>
      <trkpt lat="40.699505656957626" lon="13.87779395096004">
        <ele>8.789999999999999</ele>
        <time>2018-09-23T11:01:54Z</time>
      </trkpt>
      <trkpt lat="40.699511859565973" lon="13.877776181325316">
        <ele>8.310000000000001</ele>
        <time>2018-09-23T11:02:20Z</time>
      </trkpt>
      <trkpt lat="40.699527366086841" lon="13.87776754796505">
        <ele>8.310000000000001</ele>
        <time>2018-09-23T11:02:42Z</time>
      </trkpt>
      <trkpt lat="40.699529210105538" lon="13.877793280407786">
        <ele>8.310000000000001</ele>
        <time>2018-09-23T11:03:03Z</time>
      </trkpt>
      <trkpt lat="40.699498616158962" lon="13.877810798585415">
        <ele>8.310000000000001</ele>
        <time>2018-09-23T11:03:25Z</time>
      </trkpt>
      <trkpt lat="40.699501717463136" lon="13.87781398370862">
        <ele>8.310000000000001</ele>
        <time>2018-09-23T11:03:49Z</time>
      </trkpt>
      <trkpt lat="40.69956349208951" lon="13.877806020900607">
        <ele>8.789999999999999</ele>
        <time>2018-09-23T11:04:12Z</time>
      </trkpt>
      <trkpt lat="40.699561648070812" lon="13.877818258479238">
        <ele>8.310000000000001</ele>
        <time>2018-09-23T11:04:31Z</time>
      </trkpt>
      <trkpt lat="40.699551338329911" lon="13.877815995365381">
        <ele>8.789999999999999</ele>
        <time>2018-09-23T11:04:54Z</time>
      </trkpt>
      <trkpt lat="40.699567515403032" lon="13.877803757786751">
        <ele>8.789999999999999</ele>
        <time>2018-09-23T11:05:14Z</time>
      </trkpt>
      <trkpt lat="40.699530551210046" lon="13.87779445387423">
        <ele>8.789999999999999</ele>
        <time>2018-09-23T11:05:41Z</time>
      </trkpt>
      <trkpt lat="40.699550416320562" lon="13.877773499116302">
        <ele>8.789999999999999</ele>
        <time>2018-09-23T11:06:06Z</time>
      </trkpt>
      <trkpt lat="40.699513116851449" lon="13.877822449430823">
        <ele>8.789999999999999</ele>
        <time>2018-09-23T11:06:33Z</time>
      </trkpt>
      <trkpt lat="40.699469028040767" lon="13.877809792757034">
        <ele>8.789999999999999</ele>
        <time>2018-09-23T11:06:55Z</time>
      </trkpt>
      <trkpt lat="40.699445977807045" lon="13.877831920981407">
        <ele>9.27</ele>
        <time>2018-09-23T11:07:20Z</time>
      </trkpt>
      <trkpt lat="40.699489815160632" lon="13.877769894897938">
        <ele>9.27</ele>
        <time>2018-09-23T11:07:43Z</time>
      </trkpt>
      <trkpt lat="40.699512781575322" lon="13.877798058092594">
        <ele>9.27</ele>
        <time>2018-09-23T11:07:59Z</time>
      </trkpt>
      <trkpt lat="40.699542453512549" lon="13.877817168831825">
        <ele>9.27</ele>
        <time>2018-09-23T11:08:22Z</time>
      </trkpt>
      <trkpt lat="40.699553349986672" lon="13.877760926261544">
        <ele>9.27</ele>
        <time>2018-09-23T11:08:47Z</time>
      </trkpt>
      <trkpt lat="40.699490318074822" lon="13.877791268751025">
        <ele>9.27</ele>
        <time>2018-09-23T11:09:14Z</time>
      </trkpt>
      <trkpt lat="40.699476487934589" lon="13.877829071134329">
        <ele>9.27</ele>
        <time>2018-09-23T11:09:38Z</time>
      </trkpt>
      <trkpt lat="40.699481684714556" lon="13.877839632332325">
        <ele>9.27</ele>
        <time>2018-09-23T11:09:52Z</time>
      </trkpt>
      <trkpt lat="40.699498280882835" lon="13.877812055870891">
        <ele>9.27</ele>
        <time>2018-09-23T11:10:14Z</time>
      </trkpt>
      <trkpt lat="40.6995087582618" lon="13.877810379490256">
        <ele>9.75</ele>
        <time>2018-09-23T11:10:35Z</time>
      </trkpt>
      <trkpt lat="40.699483780190349" lon="13.87780568562448">
        <ele>9.75</ele>
        <time>2018-09-23T11:10:57Z</time>
      </trkpt>
      <trkpt lat="40.699491072446108" lon="13.877821359783411">
        <ele>9.75</ele>
        <time>2018-09-23T11:11:26Z</time>
      </trkpt>
      <trkpt lat="40.699459472671151" lon="13.877847846597433">
        <ele>9.75</ele>
        <time>2018-09-23T11:11:51Z</time>
      </trkpt>
      <trkpt lat="40.699415216222405" lon="13.877839967608452">
        <ele>10.23</ele>
        <time>2018-09-23T11:12:10Z</time>
      </trkpt>
      <trkpt lat="40.699451845139265" lon="13.877833848819137">
        <ele>10.23</ele>
        <time>2018-09-23T11:12:37Z</time>
      </trkpt>
      <trkpt lat="40.699517140164971" lon="13.877804595977068">
        <ele>10.23</ele>
        <time>2018-09-23T11:12:59Z</time>
      </trkpt>
      <trkpt lat="40.699536921456456" lon="13.877778192982078">
        <ele>10.23</ele>
        <time>2018-09-23T11:13:27Z</time>
      </trkpt>
      <trkpt lat="40.699496185407043" lon="13.877788670361042">
        <ele>10.710000000000001</ele>
        <time>2018-09-23T11:13:52Z</time>
      </trkpt>
      <trkpt lat="40.69950976409018" lon="13.877803841605783">
        <ele>10.710000000000001</ele>
        <time>2018-09-23T11:14:20Z</time>
      </trkpt>
      <trkpt lat="40.699528455734253" lon="13.877788837999105">
        <ele>10.23</ele>
        <time>2018-09-23T11:14:46Z</time>
      </trkpt>
      <trkpt lat="40.699556032195687" lon="13.877771403640509">
        <ele>10.23</ele>
        <time>2018-09-23T11:15:07Z</time>
      </trkpt>
      <trkpt lat="40.699568353593349" lon="13.877787664532661">
        <ele>10.710000000000001</ele>
        <time>2018-09-23T11:15:32Z</time>
      </trkpt>
      <trkpt lat="40.699548991397023" lon="13.877800069749355">
        <ele>10.23</ele>
        <time>2018-09-23T11:15:53Z</time>
      </trkpt>
      <trkpt lat="40.699541866779327" lon="13.877820270135999">
        <ele>10.710000000000001</ele>
        <time>2018-09-23T11:16:11Z</time>
      </trkpt>
      <trkpt lat="40.699545722454786" lon="13.877807529643178">
        <ele>10.710000000000001</ele>
        <time>2018-09-23T11:16:31Z</time>
      </trkpt>
      <trkpt lat="40.699516050517559" lon="13.877815073356032">
        <ele>10.710000000000001</ele>
        <time>2018-09-23T11:16:54Z</time>
      </trkpt>
      <trkpt lat="40.699508925899863" lon="13.877789927646518">
        <ele>10.710000000000001</ele>
        <time>2018-09-23T11:17:15Z</time>
      </trkpt>
      <trkpt lat="40.699521582573652" lon="13.8777822162956">
        <ele>10.710000000000001</ele>
        <time>2018-09-23T11:17:37Z</time>
      </trkpt>
      <trkpt lat="40.699520912021399" lon="13.877843655645847">
        <ele>10.710000000000001</ele>
        <time>2018-09-23T11:18:07Z</time>
      </trkpt>
      <trkpt lat="40.699531473219395" lon="13.877833094447851">
        <ele>10.710000000000001</ele>
        <time>2018-09-23T11:18:27Z</time>
      </trkpt>
      <trkpt lat="40.699537340551615" lon="13.877783138304949">
        <ele>10.710000000000001</ele>
        <time>2018-09-23T11:18:55Z</time>
      </trkpt>
      <trkpt lat="40.699489563703537" lon="13.87780032120645">
        <ele>10.710000000000001</ele>
        <time>2018-09-23T11:19:22Z</time>
      </trkpt>
      <trkpt lat="40.699491240084171" lon="13.877829825505614">
        <ele>10.710000000000001</ele>
        <time>2018-09-23T11:19:43Z</time>
      </trkpt>
      <trkpt lat="40.699507920071483" lon="13.877822533249855">
        <ele>10.710000000000001</ele>
        <time>2018-09-23T11:20:14Z</time>
      </trkpt>
      <trkpt lat="40.699483947828412" lon="13.877806188538671">
        <ele>10.23</ele>
        <time>2018-09-23T11:20:43Z</time>
      </trkpt>
      <trkpt lat="40.699503142386675" lon="13.877801075577736">
        <ele>10.710000000000001</ele>
        <time>2018-09-23T11:21:14Z</time>
      </trkpt>
      <trkpt lat="40.699520241469145" lon="13.877793364226818">
        <ele>10.710000000000001</ele>
        <time>2018-09-23T11:21:40Z</time>
      </trkpt>
      <trkpt lat="40.699516385793686" lon="13.877783725038171">
        <ele>10.710000000000001</ele>
        <time>2018-09-23T11:22:09Z</time>
      </trkpt>
      <trkpt lat="40.699507752433419" lon="13.877778025344014">
        <ele>10.710000000000001</ele>
        <time>2018-09-23T11:22:40Z</time>
      </trkpt>
      <trkpt lat="40.699517223984003" lon="13.877798561006784">
        <ele>10.23</ele>
        <time>2018-09-23T11:22:58Z</time>
      </trkpt>
      <trkpt lat="40.699550583958626" lon="13.877778528258204">
        <ele>10.23</ele>
        <time>2018-09-23T11:23:20Z</time>
      </trkpt>
      <trkpt lat="40.699536334723234" lon="13.877767212688923">
        <ele>10.23</ele>
        <time>2018-09-23T11:23:47Z</time>
      </trkpt>
      <trkpt lat="40.699569610878825" lon="13.877777019515634">
        <ele>10.23</ele>
        <time>2018-09-23T11:24:10Z</time>
      </trkpt>
      <trkpt lat="40.69955469109118" lon="13.877774504944682">
        <ele>10.23</ele>
        <time>2018-09-23T11:24:33Z</time>
      </trkpt>
      <trkpt lat="40.699548237025738" lon="13.877775762230158">
        <ele>10.23</ele>
        <time>2018-09-23T11:24:59Z</time>
      </trkpt>
      <trkpt lat="40.699549159035087" lon="13.877803171053529">
        <ele>10.710000000000001</ele>
        <time>2018-09-23T11:25:21Z</time>
      </trkpt>
      <trkpt lat="40.699486713856459" lon="13.877770397812128">
        <ele>10.710000000000001</ele>
        <time>2018-09-23T11:25:44Z</time>
      </trkpt>
      <trkpt lat="40.699518229812384" lon="13.87781985104084">
        <ele>10.23</ele>
        <time>2018-09-23T11:26:00Z</time>
      </trkpt>
      <trkpt lat="40.699518481269479" lon="13.877835273742676">
        <ele>9.75</ele>
        <time>2018-09-23T11:26:23Z</time>
      </trkpt>
      <trkpt lat="40.699539016932249" lon="13.877813732251525">
        <ele>10.23</ele>
        <time>2018-09-23T11:26:47Z</time>
      </trkpt>
      <trkpt lat="40.699503477662802" lon="13.877803590148687">
        <ele>9.75</ele>
        <time>2018-09-23T11:27:13Z</time>
      </trkpt>
      <trkpt lat="40.699505405500531" lon="13.877774672582746">
        <ele>9.75</ele>
        <time>2018-09-23T11:27:36Z</time>
      </trkpt>
      <trkpt lat="40.699496688321233" lon="13.877778276801109">
        <ele>10.23</ele>
        <time>2018-09-23T11:28:01Z</time>
      </trkpt>
      <trkpt lat="40.699556032195687" lon="13.877837285399437">
        <ele>9.75</ele>
        <time>2018-09-23T11:28:21Z</time>
      </trkpt>
      <trkpt lat="40.699565336108208" lon="13.877855977043509">
        <ele>10.23</ele>
        <time>2018-09-23T11:28:43Z</time>
      </trkpt>
      <trkpt lat="40.69956106133759" lon="13.877849942073226">
        <ele>10.23</ele>
        <time>2018-09-23T11:29:05Z</time>
      </trkpt>
      <trkpt lat="40.699482942000031" lon="13.877812474966049">
        <ele>9.75</ele>
        <time>2018-09-23T11:29:33Z</time>
      </trkpt>
      <trkpt lat="40.699443211778998" lon="13.877790095284581">
        <ele>9.75</ele>
        <time>2018-09-23T11:30:05Z</time>
      </trkpt>
      <trkpt lat="40.699482522904873" lon="13.87778808362782">
        <ele>10.23</ele>
        <time>2018-09-23T11:30:37Z</time>
      </trkpt>
      <trkpt lat="40.699463579803705" lon="13.877795375883579">
        <ele>10.23</ele>
        <time>2018-09-23T11:31:03Z</time>
      </trkpt>
      <trkpt lat="40.699432147666812" lon="13.877782048657537">
        <ele>9.75</ele>
        <time>2018-09-23T11:31:26Z</time>
      </trkpt>
      <trkpt lat="40.69941739551723" lon="13.877747850492597">
        <ele>9.75</ele>
        <time>2018-09-23T11:31:46Z</time>
      </trkpt>
      <trkpt lat="40.699540944769979" lon="13.877825550734997">
        <ele>9.75</ele>
        <time>2018-09-23T11:32:00Z</time>
      </trkpt>
      <trkpt lat="40.699582938104868" lon="13.877817336469889">
        <ele>9.27</ele>
        <time>2018-09-23T11:32:20Z</time>
      </trkpt>
      <trkpt lat="40.699617471545935" lon="13.877811720594764">
        <ele>9.27</ele>
        <time>2018-09-23T11:32:41Z</time>
      </trkpt>
      <trkpt lat="40.699655776843429" lon="13.877783138304949">
        <ele>9.27</ele>
        <time>2018-09-23T11:33:03Z</time>
      </trkpt>
      <trkpt lat="40.699620069935918" lon="13.877819683402777">
        <ele>8.789999999999999</ele>
        <time>2018-09-23T11:33:29Z</time>
      </trkpt>
      <trkpt lat="40.69958059117198" lon="13.877807194367051">
        <ele>8.789999999999999</ele>
        <time>2018-09-23T11:33:57Z</time>
      </trkpt>
      <trkpt lat="40.699597774073482" lon="13.877797471359372">
        <ele>8.310000000000001</ele>
        <time>2018-09-23T11:34:23Z</time>
      </trkpt>
      <trkpt lat="40.699538765475154" lon="13.877771068364382">
        <ele>8.310000000000001</ele>
        <time>2018-09-23T11:34:53Z</time>
      </trkpt>
      <trkpt lat="40.699587799608707" lon="13.877849271520972">
        <ele>8.310000000000001</ele>
        <time>2018-09-23T11:35:19Z</time>
      </trkpt>
      <trkpt lat="40.69958888925612" lon="13.877813732251525">
        <ele>7.83</ele>
        <time>2018-09-23T11:35:49Z</time>
      </trkpt>
      <trkpt lat="40.699591152369976" lon="13.877806607633829">
        <ele>7.83</ele>
        <time>2018-09-23T11:36:13Z</time>
      </trkpt>
      <trkpt lat="40.699585536494851" lon="13.877805937081575">
        <ele>7.35</ele>
        <time>2018-09-23T11:36:45Z</time>
      </trkpt>
      <trkpt lat="40.699571454897523" lon="13.877803422510624">
        <ele>6.87</ele>
        <time>2018-09-23T11:37:20Z</time>
      </trkpt>
      <trkpt lat="40.699611017480493" lon="13.877832256257534">
        <ele>6.39</ele>
        <time>2018-09-23T11:37:45Z</time>
      </trkpt>
      <trkpt lat="40.699587212875485" lon="13.877768218517303">
        <ele>6.39</ele>
        <time>2018-09-23T11:38:05Z</time>
      </trkpt>
      <trkpt lat="40.699548069387674" lon="13.877700576558709">
        <ele>5.91</ele>
        <time>2018-09-23T11:38:30Z</time>
      </trkpt>
      <trkpt lat="40.699537508189678" lon="13.877753131091595">
        <ele>5.91</ele>
        <time>2018-09-23T11:39:01Z</time>
      </trkpt>
      <trkpt lat="40.699593331664801" lon="13.877803506329656">
        <ele>5.91</ele>
        <time>2018-09-23T11:39:25Z</time>
      </trkpt>
      <trkpt lat="40.699565671384335" lon="13.87780518271029">
        <ele>5.42</ele>
        <time>2018-09-23T11:39:53Z</time>
      </trkpt>
      <trkpt lat="40.699606575071812" lon="13.877869555726647">
        <ele>5.42</ele>
        <time>2018-09-23T11:40:17Z</time>
      </trkpt>
      <trkpt lat="40.699623841792345" lon="13.877824377268553">
        <ele>4.94</ele>
        <time>2018-09-23T11:40:43Z</time>
      </trkpt>
      <trkpt lat="40.699599785730243" lon="13.877817252650857">
        <ele>4.94</ele>
        <time>2018-09-23T11:41:07Z</time>
      </trkpt>
      <trkpt lat="40.699558546766639" lon="13.877824880182743">
        <ele>4.94</ele>
        <time>2018-09-23T11:41:36Z</time>
      </trkpt>
      <trkpt lat="40.69958939217031" lon="13.87783451937139">
        <ele>4.94</ele>
        <time>2018-09-23T11:42:08Z</time>
      </trkpt>
      <trkpt lat="40.699583692476153" lon="13.877822365611792">
        <ele>4.94</ele>
        <time>2018-09-23T11:42:33Z</time>
      </trkpt>
      <trkpt lat="40.699528204277158" lon="13.877790849655867">
        <ele>4.94</ele>
        <time>2018-09-23T11:42:54Z</time>
      </trkpt>
      <trkpt lat="40.699590565636754" lon="13.877770313993096">
        <ele>4.46</ele>
        <time>2018-09-23T11:43:25Z</time>
      </trkpt>
      <trkpt lat="40.699590230360627" lon="13.877820521593094">
        <ele>4.46</ele>
        <time>2018-09-23T11:43:49Z</time>
      </trkpt>
      <trkpt lat="40.699568018317223" lon="13.877789005637169">
        <ele>4.46</ele>
        <time>2018-09-23T11:44:17Z</time>
      </trkpt>
      <trkpt lat="40.699540274217725" lon="13.877770062536001">
        <ele>4.94</ele>
        <time>2018-09-23T11:44:41Z</time>
      </trkpt>
      <trkpt lat="40.699565336108208" lon="13.877820856869221">
        <ele>4.94</ele>
        <time>2018-09-23T11:45:03Z</time>
      </trkpt>
      <trkpt lat="40.699548739939928" lon="13.877823203802109">
        <ele>5.91</ele>
        <time>2018-09-23T11:45:13Z</time>
      </trkpt>
      <trkpt lat="40.699511105194688" lon="13.877798393368721">
        <ele>4.94</ele>
        <time>2018-09-23T11:45:31Z</time>
      </trkpt>
      <trkpt lat="40.699544213712215" lon="13.877799147740006">
        <ele>4.94</ele>
        <time>2018-09-23T11:45:41Z</time>
      </trkpt>
      <trkpt lat="40.69958059117198" lon="13.877815492451191">
        <ele>4.46</ele>
        <time>2018-09-23T11:46:05Z</time>
      </trkpt>
      <trkpt lat="40.699615627527237" lon="13.877807781100273">
        <ele>4.94</ele>
        <time>2018-09-23T11:46:26Z</time>
      </trkpt>
      <trkpt lat="40.69959819316864" lon="13.877785401418805">
        <ele>4.46</ele>
        <time>2018-09-23T11:46:50Z</time>
      </trkpt>
      <trkpt lat="40.699583692476153" lon="13.877763524651527">
        <ele>4.46</ele>
        <time>2018-09-23T11:47:09Z</time>
      </trkpt>
      <trkpt lat="40.699571622535586" lon="13.877729410305619">
        <ele>4.46</ele>
        <time>2018-09-23T11:47:35Z</time>
      </trkpt>
      <trkpt lat="40.699587464332581" lon="13.877716585993767">
        <ele>4.46</ele>
        <time>2018-09-23T11:47:57Z</time>
      </trkpt>
      <trkpt lat="40.699563659727573" lon="13.87766839005053">
        <ele>4.46</ele>
        <time>2018-09-23T11:48:28Z</time>
      </trkpt>
      <trkpt lat="40.699585704132915" lon="13.87768791988492">
        <ele>4.46</ele>
        <time>2018-09-23T11:48:56Z</time>
      </trkpt>
      <trkpt lat="40.699617052450776" lon="13.877706695348024">
        <ele>3.98</ele>
        <time>2018-09-23T11:49:25Z</time>
      </trkpt>
      <trkpt lat="40.69960112683475" lon="13.877676855772734">
        <ele>4.46</ele>
        <time>2018-09-23T11:49:48Z</time>
      </trkpt>
      <trkpt lat="40.699554523453116" lon="13.877747179940343">
        <ele>4.46</ele>
        <time>2018-09-23T11:50:11Z</time>
      </trkpt>
      <trkpt lat="40.699565839022398" lon="13.87779688462615">
        <ele>4.46</ele>
        <time>2018-09-23T11:50:44Z</time>
      </trkpt>
      <trkpt lat="40.69960162974894" lon="13.877793196588755">
        <ele>3.98</ele>
        <time>2018-09-23T11:51:12Z</time>
      </trkpt>
      <trkpt lat="40.699606910347939" lon="13.8777787797153">
        <ele>3.98</ele>
        <time>2018-09-23T11:51:31Z</time>
      </trkpt>
      <trkpt lat="40.699613029137254" lon="13.877757657319307">
        <ele>3.98</ele>
        <time>2018-09-23T11:51:58Z</time>
      </trkpt>
      <trkpt lat="40.699599534273148" lon="13.877717759460211">
        <ele>3.5</ele>
        <time>2018-09-23T11:52:27Z</time>
      </trkpt>
      <trkpt lat="40.699614034965634" lon="13.87769035063684">
        <ele>3.5</ele>
        <time>2018-09-23T11:52:54Z</time>
      </trkpt>
      <trkpt lat="40.699540609493852" lon="13.877712227404118">
        <ele>3.98</ele>
        <time>2018-09-23T11:53:16Z</time>
      </trkpt>
      <trkpt lat="40.699563575908542" lon="13.877715244889259">
        <ele>3.98</ele>
        <time>2018-09-23T11:53:42Z</time>
      </trkpt>
      <trkpt lat="40.699630714952946" lon="13.877720106393099">
        <ele>3.5</ele>
        <time>2018-09-23T11:54:13Z</time>
      </trkpt>
      <trkpt lat="40.699604647234082" lon="13.877734858542681">
        <ele>3.98</ele>
        <time>2018-09-23T11:54:35Z</time>
      </trkpt>
      <trkpt lat="40.69965586066246" lon="13.877710215747356">
        <ele>3.5</ele>
        <time>2018-09-23T11:54:56Z</time>
      </trkpt>
      <trkpt lat="40.699637588113546" lon="13.877723375335336">
        <ele>3.5</ele>
        <time>2018-09-23T11:55:21Z</time>
      </trkpt>
      <trkpt lat="40.699636666104198" lon="13.877756735309958">
        <ele>3.5</ele>
        <time>2018-09-23T11:55:49Z</time>
      </trkpt>
      <trkpt lat="40.699592493474483" lon="13.877774840220809">
        <ele>3.02</ele>
        <time>2018-09-23T11:56:19Z</time>
      </trkpt>
      <trkpt lat="40.699585704132915" lon="13.877736618742347">
        <ele>3.02</ele>
        <time>2018-09-23T11:56:47Z</time>
      </trkpt>
      <trkpt lat="40.699622835963964" lon="13.877707198262215">
        <ele>3.5</ele>
        <time>2018-09-23T11:57:14Z</time>
      </trkpt>
      <trkpt lat="40.69962895475328" lon="13.877723878249526">
        <ele>3.02</ele>
        <time>2018-09-23T11:57:37Z</time>
      </trkpt>
      <trkpt lat="40.699565336108208" lon="13.8777372892946">
        <ele>3.02</ele>
        <time>2018-09-23T11:58:06Z</time>
      </trkpt>
      <trkpt lat="40.699612190946937" lon="13.877730080857873">
        <ele>3.02</ele>
        <time>2018-09-23T11:58:28Z</time>
      </trkpt>
      <trkpt lat="40.6996157951653" lon="13.87770845554769">
        <ele>3.02</ele>
        <time>2018-09-23T11:58:53Z</time>
      </trkpt>
      <trkpt lat="40.699585368856788" lon="13.877659002318978">
        <ele>3.02</ele>
        <time>2018-09-23T11:59:28Z</time>
      </trkpt>
      <trkpt lat="40.699599534273148" lon="13.877672161906958">
        <ele>3.02</ele>
        <time>2018-09-23T11:59:52Z</time>
      </trkpt>
      <trkpt lat="40.699616800993681" lon="13.877676436677575">
        <ele>2.54</ele>
        <time>2018-09-23T12:00:20Z</time>
      </trkpt>
      <trkpt lat="40.69957279600203" lon="13.877732092514634">
        <ele>2.54</ele>
        <time>2018-09-23T12:00:47Z</time>
      </trkpt>
      <trkpt lat="40.699581177905202" lon="13.877687584608793">
        <ele>3.02</ele>
        <time>2018-09-23T12:01:15Z</time>
      </trkpt>
      <trkpt lat="40.699607748538256" lon="13.877655901014805">
        <ele>2.54</ele>
        <time>2018-09-23T12:01:39Z</time>
      </trkpt>
      <trkpt lat="40.699605904519558" lon="13.877689428627491">
        <ele>3.02</ele>
        <time>2018-09-23T12:02:07Z</time>
      </trkpt>
      <trkpt lat="40.699540609493852" lon="13.877772409468889">
        <ele>3.02</ele>
        <time>2018-09-23T12:02:30Z</time>
      </trkpt>
      <trkpt lat="40.699572209268808" lon="13.87771968729794">
        <ele>3.5</ele>
        <time>2018-09-23T12:02:58Z</time>
      </trkpt>
      <trkpt lat="40.699581010267138" lon="13.877716334536672">
        <ele>3.5</ele>
        <time>2018-09-23T12:03:24Z</time>
      </trkpt>
      <trkpt lat="40.699534574523568" lon="13.877774840220809">
        <ele>3.02</ele>
        <time>2018-09-23T12:03:47Z</time>
      </trkpt>
      <trkpt lat="40.699473554268479" lon="13.877788251265883">
        <ele>3.02</ele>
        <time>2018-09-23T12:04:17Z</time>
      </trkpt>
      <trkpt lat="40.699507249519229" lon="13.877766458317637">
        <ele>3.5</ele>
        <time>2018-09-23T12:04:44Z</time>
      </trkpt>
      <trkpt lat="40.699571873992682" lon="13.87772555463016">
        <ele>3.5</ele>
        <time>2018-09-23T12:05:10Z</time>
      </trkpt>
      <trkpt lat="40.699530718848109" lon="13.877732595428824">
        <ele>3.98</ele>
        <time>2018-09-23T12:05:35Z</time>
      </trkpt>
      <trkpt lat="40.699525522068143" lon="13.877757741138339">
        <ele>3.98</ele>
        <time>2018-09-23T12:06:00Z</time>
      </trkpt>
      <trkpt lat="40.69951412267983" lon="13.877756902948022">
        <ele>3.98</ele>
        <time>2018-09-23T12:06:31Z</time>
      </trkpt>
      <trkpt lat="40.699530886486173" lon="13.877778528258204">
        <ele>3.98</ele>
        <time>2018-09-23T12:07:04Z</time>
      </trkpt>
      <trkpt lat="40.699532395228744" lon="13.877780037000775">
        <ele>3.98</ele>
        <time>2018-09-23T12:07:34Z</time>
      </trkpt>
      <trkpt lat="40.699542872607708" lon="13.877732092514634">
        <ele>3.98</ele>
        <time>2018-09-23T12:08:00Z</time>
      </trkpt>
      <trkpt lat="40.699507668614388" lon="13.877730416134">
        <ele>4.46</ele>
        <time>2018-09-23T12:08:27Z</time>
      </trkpt>
      <trkpt lat="40.699551673606038" lon="13.877751957625151">
        <ele>4.46</ele>
        <time>2018-09-23T12:08:57Z</time>
      </trkpt>
      <trkpt lat="40.699544465169311" lon="13.877789424732327">
        <ele>4.46</ele>
        <time>2018-09-23T12:09:24Z</time>
      </trkpt>
      <trkpt lat="40.699521247297525" lon="13.877762518823147">
        <ele>4.46</ele>
        <time>2018-09-23T12:09:54Z</time>
      </trkpt>
      <trkpt lat="40.699514374136925" lon="13.877799650654197">
        <ele>4.46</ele>
        <time>2018-09-23T12:10:22Z</time>
      </trkpt>
      <trkpt lat="40.699486546218395" lon="13.8777787797153">
        <ele>4.94</ele>
        <time>2018-09-23T12:10:45Z</time>
      </trkpt>
      <trkpt lat="40.699505070224404" lon="13.877758160233498">
        <ele>4.46</ele>
        <time>2018-09-23T12:11:10Z</time>
      </trkpt>
      <trkpt lat="40.699546812102199" lon="13.877805853262544">
        <ele>4.94</ele>
        <time>2018-09-23T12:11:39Z</time>
      </trkpt>
      <trkpt lat="40.699605317786336" lon="13.877766123041511">
        <ele>4.94</ele>
        <time>2018-09-23T12:12:04Z</time>
      </trkpt>
      <trkpt lat="40.699633313342929" lon="13.877744413912296">
        <ele>4.94</ele>
        <time>2018-09-23T12:12:31Z</time>
      </trkpt>
      <trkpt lat="40.699617974460125" lon="13.877735864371061">
        <ele>4.94</ele>
        <time>2018-09-23T12:12:51Z</time>
      </trkpt>
      <trkpt lat="40.699560977518559" lon="13.87780861929059">
        <ele>4.94</ele>
        <time>2018-09-23T12:13:26Z</time>
      </trkpt>
      <trkpt lat="40.699545722454786" lon="13.877855474129319">
        <ele>5.42</ele>
        <time>2018-09-23T12:13:47Z</time>
      </trkpt>
      <trkpt lat="40.699557289481163" lon="13.877846505492926">
        <ele>4.94</ele>
        <time>2018-09-23T12:14:14Z</time>
      </trkpt>
      <trkpt lat="40.699581932276487" lon="13.877836698666215">
        <ele>5.42</ele>
        <time>2018-09-23T12:14:38Z</time>
      </trkpt>
      <trkpt lat="40.699558462947607" lon="13.877839799970388">
        <ele>5.42</ele>
        <time>2018-09-23T12:15:03Z</time>
      </trkpt>
      <trkpt lat="40.699532898142934" lon="13.877833345904946">
        <ele>5.91</ele>
        <time>2018-09-23T12:15:20Z</time>
      </trkpt>
      <trkpt lat="40.699509009718895" lon="13.87784625403583">
        <ele>6.39</ele>
        <time>2018-09-23T12:15:29Z</time>
      </trkpt>
      <trkpt lat="40.699510853737593" lon="13.877847511321306">
        <ele>6.39</ele>
        <time>2018-09-23T12:15:38Z</time>
      </trkpt>
      <trkpt lat="40.699508171528578" lon="13.877861257642508">
        <ele>6.39</ele>
        <time>2018-09-23T12:15:51Z</time>
      </trkpt>
      <trkpt lat="40.699509093537927" lon="13.877893108874559">
        <ele>5.91</ele>
        <time>2018-09-23T12:16:09Z</time>
      </trkpt>
      <trkpt lat="40.699515379965305" lon="13.877893444150686">
        <ele>5.91</ele>
        <time>2018-09-23T12:16:23Z</time>
      </trkpt>
      <trkpt lat="40.699515296146274" lon="13.877833345904946">
        <ele>6.39</ele>
        <time>2018-09-23T12:16:41Z</time>
      </trkpt>
      <trkpt lat="40.699501046910882" lon="13.877806523814797">
        <ele>6.39</ele>
        <time>2018-09-23T12:16:51Z</time>
      </trkpt>
      <trkpt lat="40.699512446299195" lon="13.877777941524982">
        <ele>6.39</ele>
        <time>2018-09-23T12:17:03Z</time>
      </trkpt>
      <trkpt lat="40.699522756040096" lon="13.877806188538671">
        <ele>6.39</ele>
        <time>2018-09-23T12:17:18Z</time>
      </trkpt>
      <trkpt lat="40.699521582573652" lon="13.877755729481578">
        <ele>5.42</ele>
        <time>2018-09-23T12:17:31Z</time>
      </trkpt>
      <trkpt lat="40.699499538168311" lon="13.877688590437174">
        <ele>4.94</ele>
        <time>2018-09-23T12:17:41Z</time>
      </trkpt>
      <trkpt lat="40.699420077726245" lon="13.87773435562849">
        <ele>4.46</ele>
        <time>2018-09-23T12:17:52Z</time>
      </trkpt>
      <trkpt lat="40.699409767985344" lon="13.877736702561378">
        <ele>3.98</ele>
        <time>2018-09-23T12:18:10Z</time>
      </trkpt>
      <trkpt lat="40.699393507093191" lon="13.877745755016804">
        <ele>4.46</ele>
        <time>2018-09-23T12:18:25Z</time>
      </trkpt>
      <trkpt lat="40.69939685985446" lon="13.877744078636169">
        <ele>4.46</ele>
        <time>2018-09-23T12:18:43Z</time>
      </trkpt>
      <trkpt lat="40.699369367212057" lon="13.877700408920646">
        <ele>4.46</ele>
        <time>2018-09-23T12:19:00Z</time>
      </trkpt>
      <trkpt lat="40.699249086901546" lon="13.877677777782083">
        <ele>4.46</ele>
        <time>2018-09-23T12:19:16Z</time>
      </trkpt>
      <trkpt lat="40.699256882071495" lon="13.877623546868563">
        <ele>4.46</ele>
        <time>2018-09-23T12:19:29Z</time>
      </trkpt>
      <trkpt lat="40.6992566306144" lon="13.877595802769065">
        <ele>4.46</ele>
        <time>2018-09-23T12:19:30Z</time>
      </trkpt>
      <trkpt lat="40.699242549017072" lon="13.877555653452873">
        <ele>4.46</ele>
        <time>2018-09-23T12:19:32Z</time>
      </trkpt>
      <trkpt lat="40.699004502967" lon="13.877463117241859">
        <ele>4.94</ele>
        <time>2018-09-23T12:19:47Z</time>
      </trkpt>
      <trkpt lat="40.698564117774367" lon="13.877319535240531">
        <ele>4.46</ele>
        <time>2018-09-23T12:20:05Z</time>
      </trkpt>
      <trkpt lat="40.698268068954349" lon="13.877379801124334">
        <ele>4.46</ele>
        <time>2018-09-23T12:20:17Z</time>
      </trkpt>
      <trkpt lat="40.697888117283583" lon="13.877660008147359">
        <ele>4.46</ele>
        <time>2018-09-23T12:20:34Z</time>
      </trkpt>
      <trkpt lat="40.697609754279256" lon="13.878168622031808">
        <ele>4.46</ele>
        <time>2018-09-23T12:20:51Z</time>
      </trkpt>
      <trkpt lat="40.697444044053555" lon="13.878655610606074">
        <ele>4.46</ele>
        <time>2018-09-23T12:21:05Z</time>
      </trkpt>
      <trkpt lat="40.697248997166753" lon="13.879281235858798">
        <ele>4.46</ele>
        <time>2018-09-23T12:21:22Z</time>
      </trkpt>
      <trkpt lat="40.697044394910336" lon="13.879805440083146">
        <ele>4.46</ele>
        <time>2018-09-23T12:21:37Z</time>
      </trkpt>
      <trkpt lat="40.696826968342066" lon="13.880298044532537">
        <ele>4.46</ele>
        <time>2018-09-23T12:21:52Z</time>
      </trkpt>
      <trkpt lat="40.69658481515944" lon="13.880809005349874">
        <ele>4.46</ele>
        <time>2018-09-23T12:22:08Z</time>
      </trkpt>
      <trkpt lat="40.696384655311704" lon="13.881250647827983">
        <ele>4.46</ele>
        <time>2018-09-23T12:22:22Z</time>
      </trkpt>
      <trkpt lat="40.69616848602891" lon="13.881719447672367">
        <ele>4.46</ele>
        <time>2018-09-23T12:22:37Z</time>
      </trkpt>
      <trkpt lat="40.695942593738437" lon="13.882281705737114">
        <ele>4.94</ele>
        <time>2018-09-23T12:22:54Z</time>
      </trkpt>
      <trkpt lat="40.695781912654638" lon="13.882785625755787">
        <ele>4.94</ele>
        <time>2018-09-23T12:23:09Z</time>
      </trkpt>
      <trkpt lat="40.695562222972512" lon="13.883289964869618">
        <ele>4.94</ele>
        <time>2018-09-23T12:23:25Z</time>
      </trkpt>
      <trkpt lat="40.695383353158832" lon="13.8838124088943">
        <ele>4.94</ele>
        <time>2018-09-23T12:23:41Z</time>
      </trkpt>
      <trkpt lat="40.695165758952498" lon="13.884399477392435">
        <ele>4.94</ele>
        <time>2018-09-23T12:23:59Z</time>
      </trkpt>
      <trkpt lat="40.694935005158186" lon="13.885111268609762">
        <ele>4.94</ele>
        <time>2018-09-23T12:24:19Z</time>
      </trkpt>
      <trkpt lat="40.694679105654359" lon="13.885794142261147">
        <ele>4.46</ele>
        <time>2018-09-23T12:24:39Z</time>
      </trkpt>
      <trkpt lat="40.694477437064052" lon="13.886285740882158">
        <ele>4.46</ele>
        <time>2018-09-23T12:24:54Z</time>
      </trkpt>
      <trkpt lat="40.694238049909472" lon="13.886899463832378">
        <ele>4.46</ele>
        <time>2018-09-23T12:25:12Z</time>
      </trkpt>
      <trkpt lat="40.693996651098132" lon="13.887573536485434">
        <ele>4.46</ele>
        <time>2018-09-23T12:25:31Z</time>
      </trkpt>
      <trkpt lat="40.693802777677774" lon="13.888100339099765">
        <ele>4.46</ele>
        <time>2018-09-23T12:25:46Z</time>
      </trkpt>
      <trkpt lat="40.693575460463762" lon="13.888684306293726">
        <ele>4.94</ele>
        <time>2018-09-23T12:26:03Z</time>
      </trkpt>
      <trkpt lat="40.693281758576632" lon="13.88929626904428">
        <ele>4.94</ele>
        <time>2018-09-23T12:26:22Z</time>
      </trkpt>
      <trkpt lat="40.693007837980986" lon="13.889849307015538">
        <ele>4.94</ele>
        <time>2018-09-23T12:26:39Z</time>
      </trkpt>
      <trkpt lat="40.69279158487916" lon="13.890314418822527">
        <ele>4.46</ele>
        <time>2018-09-23T12:26:53Z</time>
      </trkpt>
      <trkpt lat="40.692558903247118" lon="13.89084666967392">
        <ele>4.46</ele>
        <time>2018-09-23T12:27:09Z</time>
      </trkpt>
      <trkpt lat="40.692361928522587" lon="13.891340866684914">
        <ele>4.46</ele>
        <time>2018-09-23T12:27:24Z</time>
      </trkpt>
      <trkpt lat="40.692151123657823" lon="13.891859371215105">
        <ele>4.46</ele>
        <time>2018-09-23T12:27:39Z</time>
      </trkpt>
      <trkpt lat="40.691921543329954" lon="13.892440907657146">
        <ele>3.98</ele>
        <time>2018-09-23T12:27:56Z</time>
      </trkpt>
      <trkpt lat="40.691730519756675" lon="13.893019175156951">
        <ele>4.46</ele>
        <time>2018-09-23T12:28:13Z</time>
      </trkpt>
      <trkpt lat="40.691660363227129" lon="13.893606998026371">
        <ele>4.46</ele>
        <time>2018-09-23T12:28:29Z</time>
      </trkpt>
      <trkpt lat="40.691729178652167" lon="13.894050819799304">
        <ele>4.46</ele>
        <time>2018-09-23T12:28:42Z</time>
      </trkpt>
      <trkpt lat="40.691972337663174" lon="13.894398584961891">
        <ele>5.42</ele>
        <time>2018-09-23T12:28:55Z</time>
      </trkpt>
      <trkpt lat="40.692276768386364" lon="13.89449967071414">
        <ele>4.94</ele>
        <time>2018-09-23T12:29:10Z</time>
      </trkpt>
      <trkpt lat="40.692495871335268" lon="13.894451223313808">
        <ele>5.42</ele>
        <time>2018-09-23T12:29:25Z</time>
      </trkpt>
      <trkpt lat="40.692578349262476" lon="13.894445020705462">
        <ele>4.94</ele>
        <time>2018-09-23T12:29:41Z</time>
      </trkpt>
      <trkpt lat="40.692642722278833" lon="13.894392549991608">
        <ele>4.94</ele>
        <time>2018-09-23T12:30:00Z</time>
      </trkpt>
      <trkpt lat="40.692815473303199" lon="13.894380982965231">
        <ele>4.94</ele>
        <time>2018-09-23T12:30:19Z</time>
      </trkpt>
      <trkpt lat="40.693164328113198" lon="13.894525151699781">
        <ele>4.94</ele>
        <time>2018-09-23T12:30:35Z</time>
      </trkpt>
      <trkpt lat="40.693614855408669" lon="13.894724640995264">
        <ele>4.94</ele>
        <time>2018-09-23T12:30:54Z</time>
      </trkpt>
      <trkpt lat="40.694034621119499" lon="13.894863110035658">
        <ele>4.94</ele>
        <time>2018-09-23T12:31:12Z</time>
      </trkpt>
      <trkpt lat="40.694494619965553" lon="13.895041393116117">
        <ele>4.94</ele>
        <time>2018-09-23T12:31:34Z</time>
      </trkpt>
      <trkpt lat="40.694772144779563" lon="13.895129235461354">
        <ele>5.42</ele>
        <time>2018-09-23T12:31:56Z</time>
      </trkpt>
      <trkpt lat="40.69499141536653" lon="13.895240966230631">
        <ele>5.42</ele>
        <time>2018-09-23T12:32:11Z</time>
      </trkpt>
      <trkpt lat="40.695542609319091" lon="13.895488232374191">
        <ele>4.46</ele>
        <time>2018-09-23T12:32:34Z</time>
      </trkpt>
      <trkpt lat="40.695955334231257" lon="13.895522933453321">
        <ele>4.46</ele>
        <time>2018-09-23T12:32:51Z</time>
      </trkpt>
      <trkpt lat="40.696167228743434" lon="13.895309614017606">
        <ele>4.46</ele>
        <time>2018-09-23T12:33:04Z</time>
      </trkpt>
      <trkpt lat="40.696217017248273" lon="13.894969895482063">
        <ele>4.46</ele>
        <time>2018-09-23T12:33:20Z</time>
      </trkpt>
      <trkpt lat="40.696089696139097" lon="13.894369667395949">
        <ele>4.46</ele>
        <time>2018-09-23T12:33:40Z</time>
      </trkpt>
      <trkpt lat="40.696063544601202" lon="13.893694169819355">
        <ele>4.46</ele>
        <time>2018-09-23T12:34:02Z</time>
      </trkpt>
      <trkpt lat="40.696212323382497" lon="13.893478084355593">
        <ele>4.46</ele>
        <time>2018-09-23T12:34:14Z</time>
      </trkpt>
      <trkpt lat="40.696477610617876" lon="13.893510019406676">
        <ele>4.46</ele>
        <time>2018-09-23T12:34:31Z</time>
      </trkpt>
      <trkpt lat="40.696546342223883" lon="13.893547989428043">
        <ele>4.46</ele>
        <time>2018-09-23T12:34:49Z</time>
      </trkpt>
      <trkpt lat="40.696628568693995" lon="13.893631640821695">
        <ele>4.46</ele>
        <time>2018-09-23T12:35:03Z</time>
      </trkpt>
      <trkpt lat="40.69665664806962" lon="13.893679417669773">
        <ele>4.46</ele>
        <time>2018-09-23T12:35:19Z</time>
      </trkpt>
      <trkpt lat="40.696648601442575" lon="13.893686793744564">
        <ele>4.46</ele>
        <time>2018-09-23T12:35:39Z</time>
      </trkpt>
      <trkpt lat="40.696650529280305" lon="13.893693834543228">
        <ele>5.42</ele>
        <time>2018-09-23T12:35:57Z</time>
      </trkpt>
      <trkpt lat="40.696674585342407" lon="13.893669107928872">
        <ele>5.91</ele>
        <time>2018-09-23T12:36:05Z</time>
      </trkpt>
      <trkpt lat="40.696693025529385" lon="13.893661145120859">
        <ele>6.87</ele>
        <time>2018-09-23T12:36:16Z</time>
      </trkpt>
      <trkpt lat="40.696705346927047" lon="13.893644129857421">
        <ele>6.87</ele>
        <time>2018-09-23T12:36:27Z</time>
      </trkpt>
      <trkpt lat="40.696707358583808" lon="13.893623510375619">
        <ele>6.87</ele>
        <time>2018-09-23T12:36:39Z</time>
      </trkpt>
      <trkpt lat="40.696690930053592" lon="13.893639938905835">
        <ele>6.87</ele>
        <time>2018-09-23T12:36:53Z</time>
      </trkpt>
      <trkpt lat="40.696690175682306" lon="13.893649829551578">
        <ele>6.87</ele>
        <time>2018-09-23T12:37:04Z</time>
      </trkpt>
      <trkpt lat="40.696679530665278" lon="13.893623678013682">
        <ele>6.39</ele>
        <time>2018-09-23T12:37:21Z</time>
      </trkpt>
      <trkpt lat="40.696675758808851" lon="13.893618229776621">
        <ele>6.87</ele>
        <time>2018-09-23T12:37:39Z</time>
      </trkpt>
      <trkpt lat="40.696682631969452" lon="13.893627030774951">
        <ele>6.39</ele>
        <time>2018-09-23T12:37:52Z</time>
      </trkpt>
      <trkpt lat="40.696701323613524" lon="13.893612781539559">
        <ele>6.39</ele>
        <time>2018-09-23T12:38:09Z</time>
      </trkpt>
      <trkpt lat="40.696693360805511" lon="13.893618397414684">
        <ele>6.87</ele>
        <time>2018-09-23T12:38:34Z</time>
      </trkpt>
      <trkpt lat="40.696688080206513" lon="13.893621666356921">
        <ele>6.39</ele>
        <time>2018-09-23T12:38:50Z</time>
      </trkpt>
      <trkpt lat="40.696675591170788" lon="13.893616301938891">
        <ele>6.87</ele>
        <time>2018-09-23T12:39:08Z</time>
      </trkpt>
      <trkpt lat="40.696659414097667" lon="13.893639855086803">
        <ele>6.87</ele>
        <time>2018-09-23T12:39:31Z</time>
      </trkpt>
      <trkpt lat="40.69667374715209" lon="13.893644968047738">
        <ele>6.87</ele>
        <time>2018-09-23T12:39:47Z</time>
      </trkpt>
      <trkpt lat="40.696685062721372" lon="13.893644129857421">
        <ele>6.87</ele>
        <time>2018-09-23T12:40:02Z</time>
      </trkpt>
      <trkpt lat="40.696733510121703" lon="13.893633568659425">
        <ele>6.87</ele>
        <time>2018-09-23T12:40:12Z</time>
      </trkpt>
      <trkpt lat="40.696747843176126" lon="13.893549833446741">
        <ele>6.87</ele>
        <time>2018-09-23T12:40:22Z</time>
      </trkpt>
      <trkpt lat="40.696776593104005" lon="13.893401054665446">
        <ele>6.87</ele>
        <time>2018-09-23T12:40:35Z</time>
      </trkpt>
      <trkpt lat="40.696773491799831" lon="13.893301729112864">
        <ele>8.310000000000001</ele>
        <time>2018-09-23T12:40:47Z</time>
      </trkpt>
      <trkpt lat="40.696744741871953" lon="13.893180191516876">
        <ele>9.27</ele>
        <time>2018-09-23T12:40:59Z</time>
      </trkpt>
      <trkpt lat="40.696723870933056" lon="13.893033256754279">
        <ele>9.75</ele>
        <time>2018-09-23T12:41:11Z</time>
      </trkpt>
      <trkpt lat="40.696732671931386" lon="13.892933344468474">
        <ele>9.27</ele>
        <time>2018-09-23T12:41:22Z</time>
      </trkpt>
      <trkpt lat="40.696739880368114" lon="13.892938625067472">
        <ele>10.23</ele>
        <time>2018-09-23T12:41:32Z</time>
      </trkpt>
      <trkpt lat="40.696754967793822" lon="13.892928147688508">
        <ele>9.27</ele>
        <time>2018-09-23T12:41:51Z</time>
      </trkpt>
      <trkpt lat="40.696750525385141" lon="13.892828905954957">
        <ele>10.23</ele>
        <time>2018-09-23T12:42:03Z</time>
      </trkpt>
      <trkpt lat="40.696740802377462" lon="13.892840389162302">
        <ele>10.23</ele>
        <time>2018-09-23T12:42:24Z</time>
      </trkpt>
      <trkpt lat="40.696730241179466" lon="13.892838545143604">
        <ele>10.710000000000001</ele>
        <time>2018-09-23T12:42:46Z</time>
      </trkpt>
      <trkpt lat="40.696712136268616" lon="13.892818931490183">
        <ele>9.27</ele>
        <time>2018-09-23T12:42:55Z</time>
      </trkpt>
      <trkpt lat="40.696651618927717" lon="13.892870228737593">
        <ele>11.19</ele>
        <time>2018-09-23T12:43:07Z</time>
      </trkpt>
      <trkpt lat="40.696542989462614" lon="13.892864109948277">
        <ele>10.23</ele>
        <time>2018-09-23T12:43:19Z</time>
      </trkpt>
      <trkpt lat="40.696408627554774" lon="13.892850028350949">
        <ele>10.23</ele>
        <time>2018-09-23T12:43:32Z</time>
      </trkpt>
      <trkpt lat="40.696257837116718" lon="13.89283150434494">
        <ele>9.75</ele>
        <time>2018-09-23T12:43:47Z</time>
      </trkpt>
      <trkpt lat="40.69622908718884" lon="13.892819602042437">
        <ele>9.75</ele>
        <time>2018-09-23T12:43:50Z</time>
      </trkpt>
      <trkpt lat="40.696203438565135" lon="13.892822870984674">
        <ele>9.75</ele>
        <time>2018-09-23T12:43:52Z</time>
      </trkpt>
      <trkpt lat="40.696057425811887" lon="13.892823122441769">
        <ele>9.75</ele>
        <time>2018-09-23T12:44:07Z</time>
      </trkpt>
      <trkpt lat="40.696005541831255" lon="13.892816919833422">
        <ele>9.75</ele>
        <time>2018-09-23T12:44:12Z</time>
      </trkpt>
      <trkpt lat="40.695906383916736" lon="13.892697310075164">
        <ele>10.23</ele>
        <time>2018-09-23T12:44:25Z</time>
      </trkpt>
      <trkpt lat="40.695833042263985" lon="13.892620531842113">
        <ele>10.23</ele>
        <time>2018-09-23T12:44:33Z</time>
      </trkpt>
      <trkpt lat="40.695815356448293" lon="13.892595218494534">
        <ele>9.27</ele>
        <time>2018-09-23T12:44:35Z</time>
      </trkpt>
      <trkpt lat="40.695666912943125" lon="13.892502347007394">
        <ele>7.35</ele>
        <time>2018-09-23T12:44:50Z</time>
      </trkpt>
      <trkpt lat="40.695519810542464" lon="13.892414588481188">
        <ele>6.87</ele>
        <time>2018-09-23T12:45:04Z</time>
      </trkpt>
      <trkpt lat="40.695465076714754" lon="13.892362872138619">
        <ele>7.35</ele>
        <time>2018-09-23T12:45:15Z</time>
      </trkpt>
      <trkpt lat="40.695473542436957" lon="13.892308808863163">
        <ele>10.710000000000001</ele>
        <time>2018-09-23T12:45:24Z</time>
      </trkpt>
      <trkpt lat="40.695487037301064" lon="13.892249800264835">
        <ele>12.15</ele>
        <time>2018-09-23T12:45:32Z</time>
      </trkpt>
      <trkpt lat="40.69544387049973" lon="13.892210824415088">
        <ele>15.039999999999999</ele>
        <time>2018-09-23T12:45:42Z</time>
      </trkpt>
      <trkpt lat="40.6954316329211" lon="13.892163718119264">
        <ele>15.52</ele>
        <time>2018-09-23T12:45:51Z</time>
      </trkpt>
      <trkpt lat="40.695434482768178" lon="13.892093896865845">
        <ele>16.48</ele>
        <time>2018-09-23T12:46:01Z</time>
      </trkpt>
      <trkpt lat="40.695417635142803" lon="13.892036816105247">
        <ele>16.48</ele>
        <time>2018-09-23T12:46:11Z</time>
      </trkpt>
      <trkpt lat="40.695418724790215" lon="13.892070008441806">
        <ele>18.879999999999999</ele>
        <time>2018-09-23T12:46:23Z</time>
      </trkpt>
      <trkpt lat="40.695418976247311" lon="13.892024159431458">
        <ele>18.399999999999999</ele>
        <time>2018-09-23T12:46:34Z</time>
      </trkpt>
      <trkpt lat="40.695420652627945" lon="13.891999684274197">
        <ele>15.52</ele>
        <time>2018-09-23T12:46:41Z</time>
      </trkpt>
      <trkpt lat="40.695468932390213" lon="13.891897005960345">
        <ele>12.630000000000001</ele>
        <time>2018-09-23T12:46:52Z</time>
      </trkpt>
      <trkpt lat="40.695474967360497" lon="13.891778904944658">
        <ele>11.19</ele>
        <time>2018-09-23T12:47:03Z</time>
      </trkpt>
      <trkpt lat="40.695476895198226" lon="13.891670610755682">
        <ele>10.23</ele>
        <time>2018-09-23T12:47:14Z</time>
      </trkpt>
      <trkpt lat="40.69546340033412" lon="13.891634317114949">
        <ele>9.27</ele>
        <time>2018-09-23T12:47:23Z</time>
      </trkpt>
      <trkpt lat="40.695467004552484" lon="13.89160648919642">
        <ele>5.91</ele>
        <time>2018-09-23T12:47:32Z</time>
      </trkpt>
      <trkpt lat="40.695468429476023" lon="13.891608333215117">
        <ele>7.35</ele>
        <time>2018-09-23T12:47:45Z</time>
      </trkpt>
      <trkpt lat="40.695462143048644" lon="13.891613697633147">
        <ele>6.87</ele>
        <time>2018-09-23T12:48:10Z</time>
      </trkpt>
      <trkpt lat="40.695456694811583" lon="13.891621911898255">
        <ele>6.87</ele>
        <time>2018-09-23T12:48:17Z</time>
      </trkpt>
      <trkpt lat="40.69547027349472" lon="13.891634233295918">
        <ele>6.87</ele>
        <time>2018-09-23T12:48:27Z</time>
      </trkpt>
      <trkpt lat="40.695465160533786" lon="13.891634652391076">
        <ele>6.87</ele>
        <time>2018-09-23T12:48:55Z</time>
      </trkpt>
      <trkpt lat="40.695468178018928" lon="13.89163775369525">
        <ele>6.87</ele>
        <time>2018-09-23T12:49:23Z</time>
      </trkpt>
      <trkpt lat="40.695452755317092" lon="13.891654349863529">
        <ele>7.35</ele>
        <time>2018-09-23T12:49:49Z</time>
      </trkpt>
      <trkpt lat="40.695466753095388" lon="13.891650578007102">
        <ele>7.35</ele>
        <time>2018-09-23T12:50:13Z</time>
      </trkpt>
      <trkpt lat="40.695452252402902" lon="13.891641022637486">
        <ele>6.87</ele>
        <time>2018-09-23T12:50:35Z</time>
      </trkpt>
      <trkpt lat="40.695456108078361" lon="13.891628868877888">
        <ele>6.87</ele>
        <time>2018-09-23T12:50:57Z</time>
      </trkpt>
      <trkpt lat="40.695465998724103" lon="13.891631048172712">
        <ele>6.87</ele>
        <time>2018-09-23T12:51:22Z</time>
      </trkpt>
      <trkpt lat="40.695464238524437" lon="13.891651919111609">
        <ele>7.83</ele>
        <time>2018-09-23T12:51:48Z</time>
      </trkpt>
      <trkpt lat="40.69547563791275" lon="13.891678405925632">
        <ele>7.35</ele>
        <time>2018-09-23T12:52:19Z</time>
      </trkpt>
      <trkpt lat="40.695484690368176" lon="13.891661139205098">
        <ele>7.35</ele>
        <time>2018-09-23T12:52:55Z</time>
      </trkpt>
      <trkpt lat="40.695489132776856" lon="13.891640938818455">
        <ele>7.35</ele>
        <time>2018-09-23T12:53:28Z</time>
      </trkpt>
      <trkpt lat="40.695485109463334" lon="13.89164655469358">
        <ele>7.35</ele>
        <time>2018-09-23T12:54:02Z</time>
      </trkpt>
      <trkpt lat="40.695491898804903" lon="13.891651332378387">
        <ele>7.35</ele>
        <time>2018-09-23T12:54:43Z</time>
      </trkpt>
      <trkpt lat="40.695488210767508" lon="13.891670862212777">
        <ele>7.83</ele>
        <time>2018-09-23T12:55:15Z</time>
      </trkpt>
      <trkpt lat="40.695489132776856" lon="13.891637586057186">
        <ele>7.83</ele>
        <time>2018-09-23T12:55:55Z</time>
      </trkpt>
      <trkpt lat="40.695486115291715" lon="13.891662312671542">
        <ele>7.35</ele>
        <time>2018-09-23T12:56:33Z</time>
      </trkpt>
      <trkpt lat="40.695483013987541" lon="13.891663989052176">
        <ele>7.35</ele>
        <time>2018-09-23T12:57:05Z</time>
      </trkpt>
      <trkpt lat="40.695490222424269" lon="13.891681842505932">
        <ele>7.83</ele>
        <time>2018-09-23T12:57:36Z</time>
      </trkpt>
      <trkpt lat="40.695484941825271" lon="13.891675136983395">
        <ele>7.35</ele>
        <time>2018-09-23T12:58:03Z</time>
      </trkpt>
      <trkpt lat="40.695489719510078" lon="13.89168368652463">
        <ele>7.35</ele>
        <time>2018-09-23T12:58:28Z</time>
      </trkpt>
      <trkpt lat="40.695484606549144" lon="13.891663821414113">
        <ele>7.83</ele>
        <time>2018-09-23T12:59:04Z</time>
      </trkpt>
      <trkpt lat="40.695490138605237" lon="13.891658624634147">
        <ele>7.83</ele>
        <time>2018-09-23T12:59:32Z</time>
      </trkpt>
      <trkpt lat="40.695487204939127" lon="13.891674969345331">
        <ele>7.83</ele>
        <time>2018-09-23T13:00:03Z</time>
      </trkpt>
      <trkpt lat="40.695487037301064" lon="13.89167781919241">
        <ele>7.83</ele>
        <time>2018-09-23T13:00:40Z</time>
      </trkpt>
      <trkpt lat="40.695487875491381" lon="13.891659798100591">
        <ele>7.83</ele>
        <time>2018-09-23T13:01:06Z</time>
      </trkpt>
      <trkpt lat="40.695480164140463" lon="13.891661139205098">
        <ele>8.310000000000001</ele>
        <time>2018-09-23T13:01:40Z</time>
      </trkpt>
      <trkpt lat="40.695495335385203" lon="13.89166658744216">
        <ele>7.83</ele>
        <time>2018-09-23T13:02:10Z</time>
      </trkpt>
      <trkpt lat="40.695482427254319" lon="13.891680249944329">
        <ele>7.83</ele>
        <time>2018-09-23T13:02:41Z</time>
      </trkpt>
      <trkpt lat="40.695488378405571" lon="13.891646973788738">
        <ele>8.310000000000001</ele>
        <time>2018-09-23T13:03:09Z</time>
      </trkpt>
      <trkpt lat="40.69548443891108" lon="13.891657702624798">
        <ele>8.310000000000001</ele>
        <time>2018-09-23T13:03:52Z</time>
      </trkpt>
      <trkpt lat="40.695488210767508" lon="13.891658456996083">
        <ele>8.310000000000001</ele>
        <time>2018-09-23T13:04:17Z</time>
      </trkpt>
      <trkpt lat="40.695486115291715" lon="13.891645381227136">
        <ele>8.310000000000001</ele>
        <time>2018-09-23T13:04:46Z</time>
      </trkpt>
      <trkpt lat="40.695485696196556" lon="13.891650661826134">
        <ele>8.310000000000001</ele>
        <time>2018-09-23T13:05:15Z</time>
      </trkpt>
      <trkpt lat="40.69548930041492" lon="13.891649320721626">
        <ele>5.42</ele>
        <time>2018-09-23T13:05:20Z</time>
      </trkpt>
      <trkpt lat="40.695482511073351" lon="13.891653679311275">
        <ele>8.310000000000001</ele>
        <time>2018-09-23T13:05:23Z</time>
      </trkpt>
      <trkpt lat="40.695463065057993" lon="13.891665413975716">
        <ele>7.83</ele>
        <time>2018-09-23T13:05:50Z</time>
      </trkpt>
      <trkpt lat="40.695482427254319" lon="13.891659211367369">
        <ele>7.83</ele>
        <time>2018-09-23T13:06:04Z</time>
      </trkpt>
      <trkpt lat="40.695476643741131" lon="13.891650158911943">
        <ele>7.83</ele>
        <time>2018-09-23T13:06:21Z</time>
      </trkpt>
      <trkpt lat="40.69547563791275" lon="13.891649823635817">
        <ele>8.310000000000001</ele>
        <time>2018-09-23T13:06:37Z</time>
      </trkpt>
      <trkpt lat="40.695463232696056" lon="13.89163482002914">
        <ele>8.789999999999999</ele>
        <time>2018-09-23T13:06:43Z</time>
      </trkpt>
      <trkpt lat="40.695456862449646" lon="13.891621408984065">
        <ele>9.27</ele>
        <time>2018-09-23T13:06:52Z</time>
      </trkpt>
      <trkpt lat="40.695440601557493" lon="13.891640435904264">
        <ele>9.75</ele>
        <time>2018-09-23T13:07:07Z</time>
      </trkpt>
      <trkpt lat="40.69542677141726" lon="13.891679747030139">
        <ele>10.710000000000001</ele>
        <time>2018-09-23T13:07:18Z</time>
      </trkpt>
      <trkpt lat="40.695425933226943" lon="13.891724841669202">
        <ele>11.67</ele>
        <time>2018-09-23T13:07:44Z</time>
      </trkpt>
      <trkpt lat="40.695418557152152" lon="13.891815114766359">
        <ele>12.630000000000001</ele>
        <time>2018-09-23T13:07:54Z</time>
      </trkpt>
      <trkpt lat="40.695422329008579" lon="13.89183615334332">
        <ele>12.630000000000001</ele>
        <time>2018-09-23T13:07:56Z</time>
      </trkpt>
      <trkpt lat="40.695413863286376" lon="13.891969006508589">
        <ele>15.039999999999999</ele>
        <time>2018-09-23T13:08:08Z</time>
      </trkpt>
      <trkpt lat="40.695390477776527" lon="13.892018292099237">
        <ele>16.48</ele>
        <time>2018-09-23T13:08:18Z</time>
      </trkpt>
      <trkpt lat="40.695402631536126" lon="13.892084090039134">
        <ele>16.48</ele>
        <time>2018-09-23T13:08:29Z</time>
      </trkpt>
      <trkpt lat="40.695413192734122" lon="13.892168663442135">
        <ele>15.52</ele>
        <time>2018-09-23T13:08:39Z</time>
      </trkpt>
      <trkpt lat="40.695419730618596" lon="13.892215602099895">
        <ele>13.119999999999999</ele>
        <time>2018-09-23T13:08:49Z</time>
      </trkpt>
      <trkpt lat="40.695425346493721" lon="13.892233036458492">
        <ele>11.19</ele>
        <time>2018-09-23T13:08:53Z</time>
      </trkpt>
      <trkpt lat="40.695443619042635" lon="13.892268072813749">
        <ele>10.23</ele>
        <time>2018-09-23T13:09:00Z</time>
      </trkpt>
      <trkpt lat="40.695450827479362" lon="13.892286261543632">
        <ele>8.310000000000001</ele>
        <time>2018-09-23T13:09:10Z</time>
      </trkpt>
      <trkpt lat="40.69544923491776" lon="13.892293134704232">
        <ele>8.310000000000001</ele>
        <time>2018-09-23T13:09:11Z</time>
      </trkpt>
      <trkpt lat="40.695441858842969" lon="13.892367063090205">
        <ele>8.310000000000001</ele>
        <time>2018-09-23T13:09:17Z</time>
      </trkpt>
      <trkpt lat="40.695472620427608" lon="13.892422132194042">
        <ele>7.35</ele>
        <time>2018-09-23T13:09:28Z</time>
      </trkpt>
      <trkpt lat="40.695549733936787" lon="13.892475441098213">
        <ele>7.83</ele>
        <time>2018-09-23T13:09:40Z</time>
      </trkpt>
      <trkpt lat="40.695666074752808" lon="13.892509806901217">
        <ele>8.310000000000001</ele>
        <time>2018-09-23T13:09:52Z</time>
      </trkpt>
      <trkpt lat="40.695803370326757" lon="13.892656741663814">
        <ele>10.23</ele>
        <time>2018-09-23T13:10:06Z</time>
      </trkpt>
      <trkpt lat="40.695811752229929" lon="13.892673421651125">
        <ele>10.710000000000001</ele>
        <time>2018-09-23T13:10:07Z</time>
      </trkpt>
      <trkpt lat="40.695904791355133" lon="13.892789259552956">
        <ele>10.23</ele>
        <time>2018-09-23T13:10:20Z</time>
      </trkpt>
      <trkpt lat="40.696013923734426" lon="13.892868217080832">
        <ele>9.75</ele>
        <time>2018-09-23T13:10:34Z</time>
      </trkpt>
      <trkpt lat="40.696114087477326" lon="13.892879951745272">
        <ele>9.75</ele>
        <time>2018-09-23T13:10:45Z</time>
      </trkpt>
      <trkpt lat="40.696229506283998" lon="13.892894620075822">
        <ele>9.75</ele>
        <time>2018-09-23T13:10:58Z</time>
      </trkpt>
      <trkpt lat="40.69626864977181" lon="13.892918843775988">
        <ele>10.23</ele>
        <time>2018-09-23T13:11:09Z</time>
      </trkpt>
      <trkpt lat="40.696298740804195" lon="13.892922028899193">
        <ele>10.23</ele>
        <time>2018-09-23T13:11:23Z</time>
      </trkpt>
      <trkpt lat="40.696369148790836" lon="13.892917837947607">
        <ele>10.23</ele>
        <time>2018-09-23T13:11:35Z</time>
      </trkpt>
      <trkpt lat="40.696462104097009" lon="13.892912892624736">
        <ele>10.710000000000001</ele>
        <time>2018-09-23T13:11:49Z</time>
      </trkpt>
      <trkpt lat="40.696567380800843" lon="13.89291507191956">
        <ele>10.23</ele>
        <time>2018-09-23T13:12:02Z</time>
      </trkpt>
      <trkpt lat="40.696633011102676" lon="13.892932422459126">
        <ele>10.23</ele>
        <time>2018-09-23T13:12:15Z</time>
      </trkpt>
      <trkpt lat="40.696695037186146" lon="13.892987072467804">
        <ele>9.75</ele>
        <time>2018-09-23T13:12:29Z</time>
      </trkpt>
      <trkpt lat="40.696739880368114" lon="13.893043817952275">
        <ele>9.75</ele>
        <time>2018-09-23T13:12:40Z</time>
      </trkpt>
      <trkpt lat="40.696738455444574" lon="13.893071981146932">
        <ele>8.310000000000001</ele>
        <time>2018-09-23T13:12:50Z</time>
      </trkpt>
      <trkpt lat="40.69676561281085" lon="13.893058821558952">
        <ele>10.23</ele>
        <time>2018-09-23T13:13:04Z</time>
      </trkpt>
      <trkpt lat="40.696772402152419" lon="13.893012469634414">
        <ele>9.75</ele>
        <time>2018-09-23T13:13:13Z</time>
      </trkpt>
      <trkpt lat="40.696771312505007" lon="13.893035771325231">
        <ele>9.75</ele>
        <time>2018-09-23T13:13:25Z</time>
      </trkpt>
      <trkpt lat="40.696774832904339" lon="13.893066784366965">
        <ele>9.75</ele>
        <time>2018-09-23T13:13:40Z</time>
      </trkpt>
      <trkpt lat="40.696766618639231" lon="13.893073992803693">
        <ele>9.75</ele>
        <time>2018-09-23T13:13:54Z</time>
      </trkpt>
      <trkpt lat="40.696755051612854" lon="13.893070556223392">
        <ele>10.23</ele>
        <time>2018-09-23T13:14:08Z</time>
      </trkpt>
      <trkpt lat="40.696766870096326" lon="13.893084470182657">
        <ele>10.23</ele>
        <time>2018-09-23T13:14:20Z</time>
      </trkpt>
      <trkpt lat="40.696769552305341" lon="13.893102658912539">
        <ele>10.23</ele>
        <time>2018-09-23T13:14:31Z</time>
      </trkpt>
      <trkpt lat="40.69677097722888" lon="13.893094779923558">
        <ele>10.23</ele>
        <time>2018-09-23T13:14:46Z</time>
      </trkpt>
      <trkpt lat="40.696774246171117" lon="13.8930943608284">
        <ele>10.23</ele>
        <time>2018-09-23T13:14:58Z</time>
      </trkpt>
      <trkpt lat="40.696748681366444" lon="13.893072903156281">
        <ele>9.75</ele>
        <time>2018-09-23T13:15:08Z</time>
      </trkpt>
      <trkpt lat="40.696747256442904" lon="13.893044572323561">
        <ele>9.75</ele>
        <time>2018-09-23T13:15:27Z</time>
      </trkpt>
      <trkpt lat="40.696744825690985" lon="13.893052199855447">
        <ele>10.23</ele>
        <time>2018-09-23T13:15:42Z</time>
      </trkpt>
      <trkpt lat="40.696744406595826" lon="13.893086230382323">
        <ele>9.75</ele>
        <time>2018-09-23T13:15:52Z</time>
      </trkpt>
      <trkpt lat="40.696748765185475" lon="13.893084554001689">
        <ele>10.710000000000001</ele>
        <time>2018-09-23T13:16:08Z</time>
      </trkpt>
      <trkpt lat="40.696737365797162" lon="13.893086733296514">
        <ele>10.710000000000001</ele>
        <time>2018-09-23T13:16:25Z</time>
      </trkpt>
      <trkpt lat="40.696725798770785" lon="13.893111627548933">
        <ele>10.710000000000001</ele>
        <time>2018-09-23T13:16:39Z</time>
      </trkpt>
      <trkpt lat="40.696730324998498" lon="13.893121602013707">
        <ele>10.23</ele>
        <time>2018-09-23T13:16:54Z</time>
      </trkpt>
      <trkpt lat="40.696752369403839" lon="13.893132247030735">
        <ele>10.710000000000001</ele>
        <time>2018-09-23T13:17:09Z</time>
      </trkpt>
      <trkpt lat="40.696758907288313" lon="13.893142724409699">
        <ele>10.710000000000001</ele>
        <time>2018-09-23T13:17:24Z</time>
      </trkpt>
      <trkpt lat="40.696763098239899" lon="13.893167786300182">
        <ele>10.710000000000001</ele>
        <time>2018-09-23T13:17:36Z</time>
      </trkpt>
      <trkpt lat="40.696751615032554" lon="13.893123948946595">
        <ele>11.19</ele>
        <time>2018-09-23T13:17:50Z</time>
      </trkpt>
      <trkpt lat="40.696755051612854" lon="13.893116824328899">
        <ele>10.710000000000001</ele>
        <time>2018-09-23T13:18:02Z</time>
      </trkpt>
      <trkpt lat="40.696779442951083" lon="13.893141550943255">
        <ele>10.710000000000001</ele>
        <time>2018-09-23T13:18:15Z</time>
      </trkpt>
      <trkpt lat="40.696823783218861" lon="13.89325856231153">
        <ele>9.75</ele>
        <time>2018-09-23T13:18:29Z</time>
      </trkpt>
      <trkpt lat="40.696775587275624" lon="13.893385715782642">
        <ele>9.27</ele>
        <time>2018-09-23T13:18:43Z</time>
      </trkpt>
      <trkpt lat="40.696751531213522" lon="13.893527034670115">
        <ele>8.789999999999999</ele>
        <time>2018-09-23T13:18:56Z</time>
      </trkpt>
      <trkpt lat="40.696794027462602" lon="13.893593586981297">
        <ele>9.27</ele>
        <time>2018-09-23T13:19:06Z</time>
      </trkpt>
      <trkpt lat="40.696883881464601" lon="13.89361378736794">
        <ele>9.75</ele>
        <time>2018-09-23T13:19:19Z</time>
      </trkpt>
      <trkpt lat="40.69692051038146" lon="13.893635831773281">
        <ele>9.75</ele>
        <time>2018-09-23T13:19:31Z</time>
      </trkpt>
      <trkpt lat="40.696943392977118" lon="13.893657792359591">
        <ele>10.23</ele>
        <time>2018-09-23T13:19:45Z</time>
      </trkpt>
      <trkpt lat="40.696959905326366" lon="13.893704563379288">
        <ele>10.23</ele>
        <time>2018-09-23T13:20:02Z</time>
      </trkpt>
      <trkpt lat="40.696946075186133" lon="13.893700707703829">
        <ele>10.23</ele>
        <time>2018-09-23T13:20:19Z</time>
      </trkpt>
      <trkpt lat="40.696936855092645" lon="13.893693583086133">
        <ele>10.23</ele>
        <time>2018-09-23T13:20:35Z</time>
      </trkpt>
      <trkpt lat="40.696939453482628" lon="13.89368268661201">
        <ele>10.23</ele>
        <time>2018-09-23T13:20:49Z</time>
      </trkpt>
      <trkpt lat="40.696926964446902" lon="13.893654774874449">
        <ele>10.23</ele>
        <time>2018-09-23T13:21:04Z</time>
      </trkpt>
      <trkpt lat="40.696950685232878" lon="13.893647901713848">
        <ele>10.23</ele>
        <time>2018-09-23T13:21:21Z</time>
      </trkpt>
      <trkpt lat="40.69694590754807" lon="13.893634155392647">
        <ele>10.710000000000001</ele>
        <time>2018-09-23T13:21:35Z</time>
      </trkpt>
      <trkpt lat="40.696948925033212" lon="13.893639855086803">
        <ele>10.710000000000001</ele>
        <time>2018-09-23T13:21:50Z</time>
      </trkpt>
      <trkpt lat="40.696961833164096" lon="13.893712945282459">
        <ele>10.710000000000001</ele>
        <time>2018-09-23T13:21:59Z</time>
      </trkpt>
      <trkpt lat="40.696960324421525" lon="13.893830627202988">
        <ele>10.23</ele>
        <time>2018-09-23T13:22:11Z</time>
      </trkpt>
      <trkpt lat="40.69689997471869" lon="13.893972784280777">
        <ele>11.19</ele>
        <time>2018-09-23T13:22:25Z</time>
      </trkpt>
      <trkpt lat="40.696897795423865" lon="13.894103709608316">
        <ele>12.15</ele>
        <time>2018-09-23T13:22:38Z</time>
      </trkpt>
      <trkpt lat="40.696904836222529" lon="13.894145954400301">
        <ele>12.15</ele>
        <time>2018-09-23T13:22:53Z</time>
      </trkpt>
      <trkpt lat="40.696942051872611" lon="13.894170429557562">
        <ele>12.630000000000001</ele>
        <time>2018-09-23T13:23:06Z</time>
      </trkpt>
      <trkpt lat="40.69699184037745" lon="13.894181409850717">
        <ele>14.56</ele>
        <time>2018-09-23T13:23:17Z</time>
      </trkpt>
      <trkpt lat="40.697043975815177" lon="13.894150145351887">
        <ele>17.440000000000001</ele>
        <time>2018-09-23T13:23:29Z</time>
      </trkpt>
      <trkpt lat="40.697046406567097" lon="13.894140757620335">
        <ele>17.440000000000001</ele>
        <time>2018-09-23T13:23:30Z</time>
      </trkpt>
      <trkpt lat="40.697091920301318" lon="13.894050065428019">
        <ele>18.879999999999999</ele>
        <time>2018-09-23T13:23:41Z</time>
      </trkpt>
      <trkpt lat="40.697130309417844" lon="13.894047299399972">
        <ele>19.359999999999999</ele>
        <time>2018-09-23T13:23:45Z</time>
      </trkpt>
      <trkpt lat="40.697170710191131" lon="13.893922241404653">
        <ele>19.84</ele>
        <time>2018-09-23T13:23:57Z</time>
      </trkpt>
      <trkpt lat="40.697191162034869" lon="13.893830543383956">
        <ele>20.809999999999999</ele>
        <time>2018-09-23T13:24:06Z</time>
      </trkpt>
      <trkpt lat="40.697187222540379" lon="13.893720991909504">
        <ele>20.809999999999999</ele>
        <time>2018-09-23T13:24:16Z</time>
      </trkpt>
      <trkpt lat="40.697252098470926" lon="13.893598783761263">
        <ele>21.77</ele>
        <time>2018-09-23T13:24:29Z</time>
      </trkpt>
      <trkpt lat="40.697276070713997" lon="13.893537176772952">
        <ele>21.77</ele>
        <time>2018-09-23T13:24:34Z</time>
      </trkpt>
      <trkpt lat="40.697362739592791" lon="13.893421338871121">
        <ele>22.25</ele>
        <time>2018-09-23T13:24:48Z</time>
      </trkpt>
      <trkpt lat="40.697401966899633" lon="13.893296364694834">
        <ele>23.690000000000001</ele>
        <time>2018-09-23T13:25:00Z</time>
      </trkpt>
      <trkpt lat="40.69743599742651" lon="13.893233416602015">
        <ele>23.690000000000001</ele>
        <time>2018-09-23T13:25:12Z</time>
      </trkpt>
      <trkpt lat="40.697429962456226" lon="13.893144987523556">
        <ele>24.170000000000002</ele>
        <time>2018-09-23T13:25:33Z</time>
      </trkpt>
      <trkpt lat="40.697401966899633" lon="13.8930977974087">
        <ele>24.649999999999999</ele>
        <time>2018-09-23T13:25:46Z</time>
      </trkpt>
      <trkpt lat="40.697446307167411" lon="13.893110118806362">
        <ele>26.09</ele>
        <time>2018-09-23T13:25:56Z</time>
      </trkpt>
      <trkpt lat="40.697486959397793" lon="13.893043398857117">
        <ele>28.02</ele>
        <time>2018-09-23T13:26:07Z</time>
      </trkpt>
      <trkpt lat="40.69751026108861" lon="13.892975673079491">
        <ele>29.940000000000001</ele>
        <time>2018-09-23T13:26:16Z</time>
      </trkpt>
      <trkpt lat="40.697518894448876" lon="13.892928902059793">
        <ele>30.420000000000002</ele>
        <time>2018-09-23T13:26:22Z</time>
      </trkpt>
      <trkpt lat="40.697536999359727" lon="13.892797138541937">
        <ele>31.379999999999999</ele>
        <time>2018-09-23T13:26:34Z</time>
      </trkpt>
      <trkpt lat="40.697572119534016" lon="13.892741650342941">
        <ele>31.859999999999999</ele>
        <time>2018-09-23T13:26:39Z</time>
      </trkpt>
      <trkpt lat="40.697646467015147" lon="13.892640564590693">
        <ele>33.299999999999997</ele>
        <time>2018-09-23T13:26:50Z</time>
      </trkpt>
      <trkpt lat="40.697673708200455" lon="13.89258960261941">
        <ele>34.259999999999998</ele>
        <time>2018-09-23T13:27:01Z</time>
      </trkpt>
      <trkpt lat="40.697700027376413" lon="13.892540484666824">
        <ele>35.229999999999997</ele>
        <time>2018-09-23T13:27:12Z</time>
      </trkpt>
      <trkpt lat="40.697729531675577" lon="13.892422970384359">
        <ele>37.149999999999999</ele>
        <time>2018-09-23T13:27:25Z</time>
      </trkpt>
      <trkpt lat="40.697776302695274" lon="13.892357004806399">
        <ele>38.590000000000003</ele>
        <time>2018-09-23T13:27:35Z</time>
      </trkpt>
      <trkpt lat="40.697827097028494" lon="13.892316017299891">
        <ele>40.509999999999998</ele>
        <time>2018-09-23T13:27:47Z</time>
      </trkpt>
      <trkpt lat="40.69793539121747" lon="13.892199927940965">
        <ele>41.950000000000003</ele>
        <time>2018-09-23T13:28:00Z</time>
      </trkpt>
      <trkpt lat="40.697959531098604" lon="13.892140751704574">
        <ele>42.920000000000002</ele>
        <time>2018-09-23T13:28:11Z</time>
      </trkpt>
      <trkpt lat="40.697993477806449" lon="13.892100937664509">
        <ele>42.920000000000002</ele>
        <time>2018-09-23T13:28:20Z</time>
      </trkpt>
      <trkpt lat="40.697989370673895" lon="13.892117366194725">
        <ele>43.399999999999999</ele>
        <time>2018-09-23T13:28:33Z</time>
      </trkpt>
      <trkpt lat="40.698014600202441" lon="13.892088951542974">
        <ele>43.880000000000003</ele>
        <time>2018-09-23T13:28:42Z</time>
      </trkpt>
      <trkpt lat="40.698016528040171" lon="13.89207654632628">
        <ele>43.880000000000003</ele>
        <time>2018-09-23T13:28:58Z</time>
      </trkpt>
      <trkpt lat="40.697999009862542" lon="13.892069924622774">
        <ele>43.399999999999999</ele>
        <time>2018-09-23T13:29:08Z</time>
      </trkpt>
      <trkpt lat="40.698028095066547" lon="13.892006976529956">
        <ele>41.469999999999999</ele>
        <time>2018-09-23T13:29:18Z</time>
      </trkpt>
      <trkpt lat="40.698078889399767" lon="13.891930701211095">
        <ele>38.109999999999999</ele>
        <time>2018-09-23T13:29:29Z</time>
      </trkpt>
      <trkpt lat="40.698135131970048" lon="13.891902370378375">
        <ele>37.630000000000003</ele>
        <time>2018-09-23T13:29:35Z</time>
      </trkpt>
      <trkpt lat="40.698259267956018" lon="13.891880745068192">
        <ele>34.740000000000002</ele>
        <time>2018-09-23T13:29:47Z</time>
      </trkpt>
      <trkpt lat="40.698398742824793" lon="13.89189625158906">
        <ele>33.299999999999997</ele>
        <time>2018-09-23T13:30:00Z</time>
      </trkpt>
      <trkpt lat="40.69849731400609" lon="13.891876889392734">
        <ele>33.299999999999997</ele>
        <time>2018-09-23T13:30:12Z</time>
      </trkpt>
      <trkpt lat="40.698577864095569" lon="13.891865406185389">
        <ele>33.780000000000001</ele>
        <time>2018-09-23T13:30:22Z</time>
      </trkpt>
      <trkpt lat="40.6986004114151" lon="13.891825592145324">
        <ele>32.82</ele>
        <time>2018-09-23T13:30:27Z</time>
      </trkpt>
      <trkpt lat="40.698615750297904" lon="13.891764571890235">
        <ele>31.379999999999999</ele>
        <time>2018-09-23T13:30:33Z</time>
      </trkpt>
      <trkpt lat="40.698643075302243" lon="13.891631215810776">
        <ele>29.460000000000001</ele>
        <time>2018-09-23T13:30:46Z</time>
      </trkpt>
      <trkpt lat="40.698698731139302" lon="13.891501212492585">
        <ele>28.98</ele>
        <time>2018-09-23T13:30:59Z</time>
      </trkpt>
      <trkpt lat="40.698746340349317" lon="13.891432648524642">
        <ele>28.98</ele>
        <time>2018-09-23T13:31:10Z</time>
      </trkpt>
      <trkpt lat="40.698730079457164" lon="13.891432732343674">
        <ele>28.98</ele>
        <time>2018-09-23T13:31:26Z</time>
      </trkpt>
      <trkpt lat="40.698769390583038" lon="13.891410604119301">
        <ele>29.460000000000001</ele>
        <time>2018-09-23T13:31:34Z</time>
      </trkpt>
      <trkpt lat="40.698916576802731" lon="13.891377160325646">
        <ele>29.940000000000001</ele>
        <time>2018-09-23T13:31:49Z</time>
      </trkpt>
      <trkpt lat="40.699007604271173" lon="13.891353942453861">
        <ele>28.02</ele>
        <time>2018-09-23T13:31:59Z</time>
      </trkpt>
      <trkpt lat="40.69911003112793" lon="13.891285294666886">
        <ele>27.050000000000001</ele>
        <time>2018-09-23T13:32:12Z</time>
      </trkpt>
      <trkpt lat="40.699217235669494" lon="13.891202565282583">
        <ele>25.609999999999999</ele>
        <time>2018-09-23T13:32:26Z</time>
      </trkpt>
      <trkpt lat="40.699318237602711" lon="13.891123356297612">
        <ele>25.129999999999999</ele>
        <time>2018-09-23T13:32:39Z</time>
      </trkpt>
      <trkpt lat="40.699329469352961" lon="13.891110280528665">
        <ele>24.649999999999999</ele>
        <time>2018-09-23T13:32:41Z</time>
      </trkpt>
      <trkpt lat="40.69937682710588" lon="13.890953119844198">
        <ele>24.649999999999999</ele>
        <time>2018-09-23T13:32:54Z</time>
      </trkpt>
      <trkpt lat="40.69939979352057" lon="13.890819596126676">
        <ele>25.129999999999999</ele>
        <time>2018-09-23T13:33:06Z</time>
      </trkpt>
      <trkpt lat="40.699402894824743" lon="13.890735693275928">
        <ele>25.129999999999999</ele>
        <time>2018-09-23T13:33:18Z</time>
      </trkpt>
      <trkpt lat="40.69939493201673" lon="13.890725802630186">
        <ele>25.129999999999999</ele>
        <time>2018-09-23T13:33:20Z</time>
      </trkpt>
      <trkpt lat="40.699367774650455" lon="13.890691017732024">
        <ele>25.129999999999999</ele>
        <time>2018-09-23T13:33:33Z</time>
      </trkpt>
      <trkpt lat="40.69926199503243" lon="13.89063267968595">
        <ele>26.09</ele>
        <time>2018-09-23T13:33:46Z</time>
      </trkpt>
      <trkpt lat="40.699217319488525" lon="13.890498401597142">
        <ele>27.050000000000001</ele>
        <time>2018-09-23T13:33:58Z</time>
      </trkpt>
      <trkpt lat="40.699217906221747" lon="13.890485242009163">
        <ele>27.050000000000001</ele>
        <time>2018-09-23T13:33:59Z</time>
      </trkpt>
      <trkpt lat="40.699289068579674" lon="13.890340318903327">
        <ele>28.5</ele>
        <time>2018-09-23T13:34:11Z</time>
      </trkpt>
      <trkpt lat="40.699349166825414" lon="13.89025591313839">
        <ele>29.940000000000001</ele>
        <time>2018-09-23T13:34:21Z</time>
      </trkpt>
      <trkpt lat="40.699420999735594" lon="13.890155414119363">
        <ele>30.420000000000002</ele>
        <time>2018-09-23T13:34:33Z</time>
      </trkpt>
      <trkpt lat="40.69943692535162" lon="13.890114426612854">
        <ele>30.420000000000002</ele>
        <time>2018-09-23T13:34:37Z</time>
      </trkpt>
      <trkpt lat="40.699467603117228" lon="13.890080312266946">
        <ele>30.899999999999999</ele>
        <time>2018-09-23T13:34:41Z</time>
      </trkpt>
      <trkpt lat="40.699498867616057" lon="13.890025913715363">
        <ele>31.379999999999999</ele>
        <time>2018-09-23T13:34:46Z</time>
      </trkpt>
      <trkpt lat="40.6995605584234" lon="13.889881996437907">
        <ele>32.340000000000003</ele>
        <time>2018-09-23T13:34:59Z</time>
      </trkpt>
      <trkpt lat="40.699598109349608" lon="13.889791890978813">
        <ele>32.82</ele>
        <time>2018-09-23T13:35:10Z</time>
      </trkpt>
      <trkpt lat="40.699618561193347" lon="13.889655936509371">
        <ele>33.780000000000001</ele>
        <time>2018-09-23T13:35:24Z</time>
      </trkpt>
      <trkpt lat="40.699619734659791" lon="13.889632048085332">
        <ele>34.259999999999998</ele>
        <time>2018-09-23T13:35:26Z</time>
      </trkpt>
      <trkpt lat="40.69961822591722" lon="13.889497518539429">
        <ele>34.740000000000002</ele>
        <time>2018-09-23T13:35:39Z</time>
      </trkpt>
      <trkpt lat="40.699612190946937" lon="13.889446724206209">
        <ele>34.740000000000002</ele>
        <time>2018-09-23T13:35:57Z</time>
      </trkpt>
      <trkpt lat="40.699632810428739" lon="13.889229884371161">
        <ele>37.149999999999999</ele>
        <time>2018-09-23T13:36:11Z</time>
      </trkpt>
      <trkpt lat="40.699709169566631" lon="13.889018911868334">
        <ele>38.590000000000003</ele>
        <time>2018-09-23T13:36:26Z</time>
      </trkpt>
      <trkpt lat="40.699817547574639" lon="13.888866109773517">
        <ele>38.590000000000003</ele>
        <time>2018-09-23T13:36:39Z</time>
      </trkpt>
      <trkpt lat="40.699857529252768" lon="13.888838365674019">
        <ele>39.07</ele>
        <time>2018-09-23T13:36:43Z</time>
      </trkpt>
      <trkpt lat="40.69999155588448" lon="13.888779943808913">
        <ele>39.549999999999997</ele>
        <time>2018-09-23T13:36:57Z</time>
      </trkpt>
      <trkpt lat="40.700058024376631" lon="13.888737363740802">
        <ele>39.549999999999997</ele>
        <time>2018-09-23T13:37:10Z</time>
      </trkpt>
      <trkpt lat="40.700091971084476" lon="13.888692436739802">
        <ele>40.030000000000001</ele>
        <time>2018-09-23T13:37:20Z</time>
      </trkpt>
      <trkpt lat="40.700102867558599" lon="13.888689754530787">
        <ele>40.030000000000001</ele>
        <time>2018-09-23T13:37:31Z</time>
      </trkpt>
      <trkpt lat="40.700105214491487" lon="13.888707440346479">
        <ele>40.030000000000001</ele>
        <time>2018-09-23T13:37:52Z</time>
      </trkpt>
      <trkpt lat="40.700126755982637" lon="13.888674918562174">
        <ele>40.030000000000001</ele>
        <time>2018-09-23T13:38:09Z</time>
      </trkpt>
      <trkpt lat="40.700136814266443" lon="13.888672152534127">
        <ele>40.030000000000001</ele>
        <time>2018-09-23T13:38:20Z</time>
      </trkpt>
      <trkpt lat="40.700165564194322" lon="13.888762425631285">
        <ele>40.030000000000001</ele>
        <time>2018-09-23T13:38:33Z</time>
      </trkpt>
      <trkpt lat="40.700213760137558" lon="13.888841634616256">
        <ele>40.509999999999998</ele>
        <time>2018-09-23T13:38:45Z</time>
      </trkpt>
      <trkpt lat="40.700201019644737" lon="13.888826631009579">
        <ele>40.509999999999998</ele>
        <time>2018-09-23T13:38:52Z</time>
      </trkpt>
      <trkpt lat="40.700174365192652" lon="13.888738956302404">
        <ele>40.509999999999998</ele>
        <time>2018-09-23T13:39:04Z</time>
      </trkpt>
      <trkpt lat="40.70017721503973" lon="13.888698806986213">
        <ele>40.509999999999998</ele>
        <time>2018-09-23T13:39:14Z</time>
      </trkpt>
      <trkpt lat="40.700180819258094" lon="13.888689922168851">
        <ele>40.509999999999998</ele>
        <time>2018-09-23T13:39:30Z</time>
      </trkpt>
      <trkpt lat="40.70016791112721" lon="13.888688245788217">
        <ele>40.509999999999998</ele>
        <time>2018-09-23T13:39:48Z</time>
      </trkpt>
      <trkpt lat="40.700159277766943" lon="13.888719929382205">
        <ele>40.030000000000001</ele>
        <time>2018-09-23T13:40:01Z</time>
      </trkpt>
      <trkpt lat="40.700164139270782" lon="13.888739626854658">
        <ele>40.030000000000001</ele>
        <time>2018-09-23T13:40:21Z</time>
      </trkpt>
      <trkpt lat="40.700162630528212" lon="13.888745326548815">
        <ele>40.030000000000001</ele>
        <time>2018-09-23T13:40:42Z</time>
      </trkpt>
      <trkpt lat="40.700157433748245" lon="13.888719594106078">
        <ele>40.030000000000001</ele>
        <time>2018-09-23T13:41:03Z</time>
      </trkpt>
      <trkpt lat="40.700163720175624" lon="13.888718169182539">
        <ele>40.030000000000001</ele>
        <time>2018-09-23T13:41:16Z</time>
      </trkpt>
      <trkpt lat="40.700151901692152" lon="13.888720767572522">
        <ele>40.030000000000001</ele>
        <time>2018-09-23T13:41:28Z</time>
      </trkpt>
      <trkpt lat="40.700174951925874" lon="13.88873778283596">
        <ele>40.030000000000001</ele>
        <time>2018-09-23T13:41:48Z</time>
      </trkpt>
      <trkpt lat="40.700178807601333" lon="13.888741470873356">
        <ele>40.509999999999998</ele>
        <time>2018-09-23T13:42:02Z</time>
      </trkpt>
      <trkpt lat="40.70017377845943" lon="13.888721689581871">
        <ele>40.509999999999998</ele>
        <time>2018-09-23T13:42:21Z</time>
      </trkpt>
      <trkpt lat="40.700158858671784" lon="13.888733340427279">
        <ele>40.509999999999998</ele>
        <time>2018-09-23T13:42:42Z</time>
      </trkpt>
      <trkpt lat="40.700153326615691" lon="13.888729903846979">
        <ele>40.509999999999998</ele>
        <time>2018-09-23T13:42:58Z</time>
      </trkpt>
      <trkpt lat="40.70015475153923" lon="13.888728227466345">
        <ele>40.509999999999998</ele>
        <time>2018-09-23T13:43:17Z</time>
      </trkpt>
      <trkpt lat="40.700158858671784" lon="13.888736106455326">
        <ele>40.509999999999998</ele>
        <time>2018-09-23T13:43:30Z</time>
      </trkpt>
      <trkpt lat="40.700155170634389" lon="13.888736441731453">
        <ele>40.030000000000001</ele>
        <time>2018-09-23T13:43:45Z</time>
      </trkpt>
      <trkpt lat="40.700169755145907" lon="13.888740381225944">
        <ele>40.509999999999998</ele>
        <time>2018-09-23T13:44:05Z</time>
      </trkpt>
      <trkpt lat="40.700161708518863" lon="13.888737531378865">
        <ele>40.509999999999998</ele>
        <time>2018-09-23T13:44:23Z</time>
      </trkpt>
      <trkpt lat="40.700155086815357" lon="13.888710541650653">
        <ele>40.030000000000001</ele>
        <time>2018-09-23T13:44:37Z</time>
      </trkpt>
      <trkpt lat="40.700138406828046" lon="13.888717330992222">
        <ele>40.030000000000001</ele>
        <time>2018-09-23T13:44:55Z</time>
      </trkpt>
      <trkpt lat="40.700147459283471" lon="13.888716325163841">
        <ele>40.030000000000001</ele>
        <time>2018-09-23T13:45:14Z</time>
      </trkpt>
      <trkpt lat="40.70016304962337" lon="13.888722276315093">
        <ele>40.509999999999998</ele>
        <time>2018-09-23T13:45:35Z</time>
      </trkpt>
      <trkpt lat="40.70017134770751" lon="13.888722695410252">
        <ele>40.509999999999998</ele>
        <time>2018-09-23T13:45:51Z</time>
      </trkpt>
      <trkpt lat="40.700168833136559" lon="13.888687323778868">
        <ele>40.509999999999998</ele>
        <time>2018-09-23T13:46:13Z</time>
      </trkpt>
      <trkpt lat="40.700167827308178" lon="13.88871188275516">
        <ele>40.509999999999998</ele>
        <time>2018-09-23T13:46:28Z</time>
      </trkpt>
      <trkpt lat="40.700170677155256" lon="13.888715486973524">
        <ele>40.990000000000002</ele>
        <time>2018-09-23T13:46:45Z</time>
      </trkpt>
      <trkpt lat="40.700165396556258" lon="13.888732669875026">
        <ele>40.990000000000002</ele>
        <time>2018-09-23T13:47:03Z</time>
      </trkpt>
      <trkpt lat="40.700161205604672" lon="13.88871917501092">
        <ele>40.990000000000002</ele>
        <time>2018-09-23T13:47:21Z</time>
      </trkpt>
      <trkpt lat="40.700153158977628" lon="13.888754965737462">
        <ele>40.990000000000002</ele>
        <time>2018-09-23T13:47:36Z</time>
      </trkpt>
      <trkpt lat="40.70015181787312" lon="13.888731664046645">
        <ele>40.990000000000002</ele>
        <time>2018-09-23T13:47:57Z</time>
      </trkpt>
      <trkpt lat="40.700149135664105" lon="13.888740967959166">
        <ele>41.469999999999999</ele>
        <time>2018-09-23T13:48:14Z</time>
      </trkpt>
      <trkpt lat="40.700158439576626" lon="13.888710960745811">
        <ele>40.990000000000002</ele>
        <time>2018-09-23T13:48:30Z</time>
      </trkpt>
      <trkpt lat="40.700167659670115" lon="13.888692352920771">
        <ele>41.469999999999999</ele>
        <time>2018-09-23T13:48:42Z</time>
      </trkpt>
      <trkpt lat="40.700165648013353" lon="13.888687323778868">
        <ele>40.990000000000002</ele>
        <time>2018-09-23T13:49:00Z</time>
      </trkpt>
      <trkpt lat="40.700180986896157" lon="13.888705596327782">
        <ele>41.469999999999999</ele>
        <time>2018-09-23T13:49:16Z</time>
      </trkpt>
      <trkpt lat="40.700172772631049" lon="13.888724287971854">
        <ele>41.469999999999999</ele>
        <time>2018-09-23T13:49:31Z</time>
      </trkpt>
      <trkpt lat="40.700167156755924" lon="13.888715738430619">
        <ele>40.990000000000002</ele>
        <time>2018-09-23T13:49:48Z</time>
      </trkpt>
      <trkpt lat="40.700169084593654" lon="13.888700315728784">
        <ele>41.469999999999999</ele>
        <time>2018-09-23T13:50:04Z</time>
      </trkpt>
      <trkpt lat="40.700185261666775" lon="13.888723282143474">
        <ele>41.469999999999999</ele>
        <time>2018-09-23T13:50:29Z</time>
      </trkpt>
      <trkpt lat="40.70018501020968" lon="13.888713894411922">
        <ele>41.469999999999999</ele>
        <time>2018-09-23T13:50:45Z</time>
      </trkpt>
      <trkpt lat="40.700185261666775" lon="13.888688329607248">
        <ele>41.469999999999999</ele>
        <time>2018-09-23T13:50:59Z</time>
      </trkpt>
      <trkpt lat="40.700166737660766" lon="13.888698387891054">
        <ele>41.469999999999999</ele>
        <time>2018-09-23T13:51:14Z</time>
      </trkpt>
      <trkpt lat="40.700158858671784" lon="13.888706685975194">
        <ele>41.469999999999999</ele>
        <time>2018-09-23T13:51:30Z</time>
      </trkpt>
      <trkpt lat="40.700146034359932" lon="13.888688748702407">
        <ele>41.469999999999999</ele>
        <time>2018-09-23T13:51:45Z</time>
      </trkpt>
      <trkpt lat="40.700165564194322" lon="13.888679863885045">
        <ele>41.950000000000003</ele>
        <time>2018-09-23T13:52:05Z</time>
      </trkpt>
      <trkpt lat="40.700156930834055" lon="13.888682965189219">
        <ele>41.950000000000003</ele>
        <time>2018-09-23T13:52:21Z</time>
      </trkpt>
      <trkpt lat="40.700150392949581" lon="13.888706518337131">
        <ele>41.950000000000003</ele>
        <time>2018-09-23T13:52:33Z</time>
      </trkpt>
      <trkpt lat="40.700151231139898" lon="13.888696962967515">
        <ele>42.439999999999998</ele>
        <time>2018-09-23T13:52:51Z</time>
      </trkpt>
      <trkpt lat="40.700147375464439" lon="13.888695957139134">
        <ele>41.950000000000003</ele>
        <time>2018-09-23T13:53:05Z</time>
      </trkpt>
      <trkpt lat="40.700136059895158" lon="13.888702495023608">
        <ele>41.950000000000003</ele>
        <time>2018-09-23T13:53:18Z</time>
      </trkpt>
      <trkpt lat="40.700131366029382" lon="13.888694951310754">
        <ele>42.439999999999998</ele>
        <time>2018-09-23T13:53:36Z</time>
      </trkpt>
      <trkpt lat="40.700148213654757" lon="13.888689586892724">
        <ele>42.439999999999998</ele>
        <time>2018-09-23T13:53:47Z</time>
      </trkpt>
      <trkpt lat="40.700156008824706" lon="13.888698052614927">
        <ele>42.439999999999998</ele>
        <time>2018-09-23T13:54:03Z</time>
      </trkpt>
      <trkpt lat="40.70016891695559" lon="13.888688664883375">
        <ele>42.439999999999998</ele>
        <time>2018-09-23T13:54:23Z</time>
      </trkpt>
      <trkpt lat="40.700197163969278" lon="13.888748427852988">
        <ele>42.920000000000002</ele>
        <time>2018-09-23T13:54:33Z</time>
      </trkpt>
      <trkpt lat="40.700250053778291" lon="13.888732502236962">
        <ele>44.359999999999999</ele>
        <time>2018-09-23T13:54:45Z</time>
      </trkpt>
      <trkpt lat="40.700288945809007" lon="13.888648012652993">
        <ele>43.399999999999999</ele>
        <time>2018-09-23T13:55:01Z</time>
      </trkpt>
      <trkpt lat="40.700282324105501" lon="13.88863024301827">
        <ele>43.880000000000003</ele>
        <time>2018-09-23T13:55:26Z</time>
      </trkpt>
      <trkpt lat="40.700288442894816" lon="13.888652287423611">
        <ele>43.399999999999999</ele>
        <time>2018-09-23T13:55:55Z</time>
      </trkpt>
      <trkpt lat="40.700295818969607" lon="13.888636026531458">
        <ele>44.840000000000003</ele>
        <time>2018-09-23T13:56:06Z</time>
      </trkpt>
      <trkpt lat="40.700299674645066" lon="13.888636697083712">
        <ele>43.399999999999999</ele>
        <time>2018-09-23T13:56:08Z</time>
      </trkpt>
      <trkpt lat="40.70031400769949" lon="13.888686988502741">
        <ele>43.399999999999999</ele>
        <time>2018-09-23T13:56:34Z</time>
      </trkpt>
      <trkpt lat="40.700354911386967" lon="13.888665027916431">
        <ele>43.399999999999999</ele>
        <time>2018-09-23T13:57:02Z</time>
      </trkpt>
      <trkpt lat="40.70036580786109" lon="13.888608450070024">
        <ele>43.399999999999999</ele>
        <time>2018-09-23T13:57:26Z</time>
      </trkpt>
      <trkpt lat="40.700343679636717" lon="13.888652119785547">
        <ele>43.399999999999999</ele>
        <time>2018-09-23T13:57:50Z</time>
      </trkpt>
      <trkpt lat="40.700422218069434" lon="13.888734765350819">
        <ele>43.880000000000003</ele>
        <time>2018-09-23T13:57:55Z</time>
      </trkpt>
      <trkpt lat="40.700799655169249" lon="13.888852531090379">
        <ele>46.759999999999998</ele>
        <time>2018-09-23T13:58:04Z</time>
      </trkpt>
      <trkpt lat="40.700988080352545" lon="13.888906594365835">
        <ele>47.240000000000002</ele>
        <time>2018-09-23T13:58:08Z</time>
      </trkpt>
      <trkpt lat="40.701026888564229" lon="13.888910366222262">
        <ele>47.240000000000002</ele>
        <time>2018-09-23T13:58:09Z</time>
      </trkpt>
      <trkpt lat="40.70106896571815" lon="13.888903660699725">
        <ele>47.719999999999999</ele>
        <time>2018-09-23T13:58:10Z</time>
      </trkpt>
      <trkpt lat="40.701113054528832" lon="13.88888580724597">
        <ele>48.200000000000003</ele>
        <time>2018-09-23T13:58:11Z</time>
      </trkpt>
      <trkpt lat="40.701151192188263" lon="13.888861080631614">
        <ele>48.68</ele>
        <time>2018-09-23T13:58:12Z</time>
      </trkpt>
      <trkpt lat="40.701181786134839" lon="13.888810705393553">
        <ele>48.68</ele>
        <time>2018-09-23T13:58:13Z</time>
      </trkpt>
      <trkpt lat="40.701201651245356" lon="13.888736525550485">
        <ele>49.159999999999997</ele>
        <time>2018-09-23T13:58:14Z</time>
      </trkpt>
      <trkpt lat="40.701221935451031" lon="13.888663770630956">
        <ele>49.159999999999997</ele>
        <time>2018-09-23T13:58:15Z</time>
      </trkpt>
      <trkpt lat="40.701237861067057" lon="13.888589506968856">
        <ele>49.649999999999999</ele>
        <time>2018-09-23T13:58:16Z</time>
      </trkpt>
      <trkpt lat="40.701249511912465" lon="13.888513734564185">
        <ele>50.130000000000003</ele>
        <time>2018-09-23T13:58:17Z</time>
      </trkpt>
      <trkpt lat="40.701257809996605" lon="13.888435363769531">
        <ele>50.130000000000003</ele>
        <time>2018-09-23T13:58:18Z</time>
      </trkpt>
      <trkpt lat="40.701204920187593" lon="13.887750310823321">
        <ele>53.009999999999998</ele>
        <time>2018-09-23T13:58:26Z</time>
      </trkpt>
      <trkpt lat="40.701152952387929" lon="13.887218981981277">
        <ele>54.93</ele>
        <time>2018-09-23T13:58:35Z</time>
      </trkpt>
      <trkpt lat="40.701089249923825" lon="13.887004824355245">
        <ele>54.93</ele>
        <time>2018-09-23T13:58:44Z</time>
      </trkpt>
      <trkpt lat="40.701066115871072" lon="13.886477518826723">
        <ele>58.299999999999997</ele>
        <time>2018-09-23T13:58:52Z</time>
      </trkpt>
      <trkpt lat="40.70101766847074" lon="13.88581627048552">
        <ele>61.18</ele>
        <time>2018-09-23T13:59:01Z</time>
      </trkpt>
      <trkpt lat="40.700978692620993" lon="13.885241439566016">
        <ele>64.069999999999993</ele>
        <time>2018-09-23T13:59:07Z</time>
      </trkpt>
      <trkpt lat="40.700923204421997" lon="13.884413978084922">
        <ele>67.909999999999997</ele>
        <time>2018-09-23T13:59:15Z</time>
      </trkpt>
      <trkpt lat="40.700902584940195" lon="13.884088844060898">
        <ele>69.349999999999994</ele>
        <time>2018-09-23T13:59:18Z</time>
      </trkpt>
      <trkpt lat="40.700887413695455" lon="13.883771169930696">
        <ele>70.310000000000002</ele>
        <time>2018-09-23T13:59:21Z</time>
      </trkpt>
      <trkpt lat="40.700898226350546" lon="13.883673856034875">
        <ele>70.790000000000006</ele>
        <time>2018-09-23T13:59:22Z</time>
      </trkpt>
      <trkpt lat="40.700920522212982" lon="13.883579559624195">
        <ele>70.790000000000006</ele>
        <time>2018-09-23T13:59:23Z</time>
      </trkpt>
      <trkpt lat="40.700950110331178" lon="13.883486604318023">
        <ele>71.760000000000005</ele>
        <time>2018-09-23T13:59:24Z</time>
      </trkpt>
      <trkpt lat="40.700989253818989" lon="13.883399600163102">
        <ele>71.760000000000005</ele>
        <time>2018-09-23T13:59:25Z</time>
      </trkpt>
      <trkpt lat="40.701041221618652" lon="13.883330868557096">
        <ele>71.269999999999996</ele>
        <time>2018-09-23T13:59:26Z</time>
      </trkpt>
      <trkpt lat="40.701102158054709" lon="13.883274542167783">
        <ele>71.760000000000005</ele>
        <time>2018-09-23T13:59:27Z</time>
      </trkpt>
      <trkpt lat="40.701169213280082" lon="13.883227854967117">
        <ele>72.239999999999995</ele>
        <time>2018-09-23T13:59:28Z</time>
      </trkpt>
      <trkpt lat="40.701243560761213" lon="13.883192231878638">
        <ele>72.719999999999999</ele>
        <time>2018-09-23T13:59:29Z</time>
      </trkpt>
      <trkpt lat="40.701323440298438" lon="13.883167924359441">
        <ele>72.719999999999999</ele>
        <time>2018-09-23T13:59:30Z</time>
      </trkpt>
      <trkpt lat="40.70140709169209" lon="13.88315468095243">
        <ele>72.719999999999999</ele>
        <time>2018-09-23T13:59:31Z</time>
      </trkpt>
      <trkpt lat="40.701489234343171" lon="13.883153507485986">
        <ele>74.159999999999997</ele>
        <time>2018-09-23T13:59:32Z</time>
      </trkpt>
      <trkpt lat="40.701565844938159" lon="13.883170858025551">
        <ele>73.200000000000003</ele>
        <time>2018-09-23T13:59:33Z</time>
      </trkpt>
      <trkpt lat="40.701636169105768" lon="13.883205559104681">
        <ele>72.719999999999999</ele>
        <time>2018-09-23T13:59:34Z</time>
      </trkpt>
      <trkpt lat="40.701697273179889" lon="13.883265657350421">
        <ele>72.719999999999999</ele>
        <time>2018-09-23T13:59:35Z</time>
      </trkpt>
      <trkpt lat="40.701745469123125" lon="13.883345872163773">
        <ele>73.200000000000003</ele>
        <time>2018-09-23T13:59:36Z</time>
      </trkpt>
      <trkpt lat="40.701786708086729" lon="13.883441425859928">
        <ele>75.599999999999994</ele>
        <time>2018-09-23T13:59:37Z</time>
      </trkpt>
      <trkpt lat="40.70182048715651" lon="13.883547959849238">
        <ele>72.239999999999995</ele>
        <time>2018-09-23T13:59:38Z</time>
      </trkpt>
      <trkpt lat="40.701848901808262" lon="13.883664133027196">
        <ele>73.200000000000003</ele>
        <time>2018-09-23T13:59:39Z</time>
      </trkpt>
      <trkpt lat="40.701873041689396" lon="13.883789945393801">
        <ele>74.159999999999997</ele>
        <time>2018-09-23T13:59:40Z</time>
      </trkpt>
      <trkpt lat="40.701886620372534" lon="13.883905448019505">
        <ele>74.159999999999997</ele>
        <time>2018-09-23T13:59:41Z</time>
      </trkpt>
      <trkpt lat="40.701893828809261" lon="13.88400443829596">
        <ele>73.680000000000007</ele>
        <time>2018-09-23T13:59:42Z</time>
      </trkpt>
      <trkpt lat="40.701861642301083" lon="13.884438704699278">
        <ele>73.680000000000007</ele>
        <time>2018-09-23T13:59:49Z</time>
      </trkpt>
      <trkpt lat="40.701855523511767" lon="13.884548339992762">
        <ele>74.640000000000001</ele>
        <time>2018-09-23T13:59:51Z</time>
      </trkpt>
      <trkpt lat="40.701863151043653" lon="13.884606091305614">
        <ele>75.599999999999994</ele>
        <time>2018-09-23T13:59:52Z</time>
      </trkpt>
      <trkpt lat="40.701877316460013" lon="13.884656969457865">
        <ele>75.120000000000005</ele>
        <time>2018-09-23T13:59:53Z</time>
      </trkpt>
      <trkpt lat="40.701897600665689" lon="13.884691502898932">
        <ele>75.599999999999994</ele>
        <time>2018-09-23T13:59:54Z</time>
      </trkpt>
      <trkpt lat="40.701934900134802" lon="13.88472318649292">
        <ele>75.599999999999994</ele>
        <time>2018-09-23T13:59:55Z</time>
      </trkpt>
      <trkpt lat="40.701977144926786" lon="13.884741878136992">
        <ele>76.079999999999998</ele>
        <time>2018-09-23T13:59:56Z</time>
      </trkpt>
      <trkpt lat="40.702019641175866" lon="13.884755708277225">
        <ele>76.560000000000002</ele>
        <time>2018-09-23T13:59:57Z</time>
      </trkpt>
      <trkpt lat="40.702489530667663" lon="13.8848209194839">
        <ele>78.480000000000004</ele>
        <time>2018-09-23T14:00:03Z</time>
      </trkpt>
      <trkpt lat="40.70268533192575" lon="13.884835168719292">
        <ele>79.930000000000007</ele>
        <time>2018-09-23T14:00:05Z</time>
      </trkpt>
      <trkpt lat="40.703072240576148" lon="13.884851010516286">
        <ele>83.290000000000006</ele>
        <time>2018-09-23T14:00:09Z</time>
      </trkpt>
      <trkpt lat="40.703352615237236" lon="13.884865511208773">
        <ele>86.659999999999997</ele>
        <time>2018-09-23T14:00:12Z</time>
      </trkpt>
      <trkpt lat="40.703965919092298" lon="13.884945558384061">
        <ele>88.099999999999994</ele>
        <time>2018-09-23T14:00:19Z</time>
      </trkpt>
      <trkpt lat="40.70403641089797" lon="13.884994592517614">
        <ele>89.060000000000002</ele>
        <time>2018-09-23T14:00:20Z</time>
      </trkpt>
      <trkpt lat="40.704106315970421" lon="13.885065754875541">
        <ele>89.540000000000006</ele>
        <time>2018-09-23T14:00:21Z</time>
      </trkpt>
      <trkpt lat="40.704162558540702" lon="13.8851473107934">
        <ele>89.540000000000006</ele>
        <time>2018-09-23T14:00:22Z</time>
      </trkpt>
      <trkpt lat="40.704218801110983" lon="13.88525334186852">
        <ele>90.019999999999996</ele>
        <time>2018-09-23T14:00:23Z</time>
      </trkpt>
      <trkpt lat="40.70426557213068" lon="13.885367168113589">
        <ele>90.980000000000004</ele>
        <time>2018-09-23T14:00:24Z</time>
      </trkpt>
      <trkpt lat="40.704304464161396" lon="13.885478898882866">
        <ele>91.939999999999998</ele>
        <time>2018-09-23T14:00:25Z</time>
      </trkpt>
      <trkpt lat="40.70441803894937" lon="13.886104272678494">
        <ele>94.829999999999998</ele>
        <time>2018-09-23T14:00:31Z</time>
      </trkpt>
      <trkpt lat="40.704463804140687" lon="13.886361680924892">
        <ele>96.269999999999996</ele>
        <time>2018-09-23T14:00:35Z</time>
      </trkpt>
      <trkpt lat="40.704478304833174" lon="13.886404596269131">
        <ele>96.269999999999996</ele>
        <time>2018-09-23T14:00:36Z</time>
      </trkpt>
      <trkpt lat="40.704495823010802" lon="13.886436028406024">
        <ele>96.75</ele>
        <time>2018-09-23T14:00:37Z</time>
      </trkpt>
      <trkpt lat="40.704511413350701" lon="13.88645245693624">
        <ele>96.75</ele>
        <time>2018-09-23T14:00:38Z</time>
      </trkpt>
      <trkpt lat="40.704525243490934" lon="13.886461174115539">
        <ele>96.75</ele>
        <time>2018-09-23T14:00:39Z</time>
      </trkpt>
      <trkpt lat="40.704537145793438" lon="13.886466538533568">
        <ele>96.75</ele>
        <time>2018-09-23T14:00:40Z</time>
      </trkpt>
      <trkpt lat="40.70454896427691" lon="13.886468382552266">
        <ele>96.75</ele>
        <time>2018-09-23T14:00:41Z</time>
      </trkpt>
      <trkpt lat="40.704710399731994" lon="13.886459078639746">
        <ele>101.08</ele>
        <time>2018-09-23T14:00:50Z</time>
      </trkpt>
      <trkpt lat="40.704801427200437" lon="13.886379366740584">
        <ele>100.11</ele>
        <time>2018-09-23T14:00:53Z</time>
      </trkpt>
      <trkpt lat="40.704827662557364" lon="13.886339804157615">
        <ele>100.11</ele>
        <time>2018-09-23T14:00:54Z</time>
      </trkpt>
      <trkpt lat="40.704850712791085" lon="13.886295631527901">
        <ele>100.59999999999999</ele>
        <time>2018-09-23T14:00:55Z</time>
      </trkpt>
      <trkpt lat="40.704869655892253" lon="13.886247854679823">
        <ele>101.08</ele>
        <time>2018-09-23T14:00:56Z</time>
      </trkpt>
      <trkpt lat="40.704884575679898" lon="13.886203011497855">
        <ele>101.08</ele>
        <time>2018-09-23T14:00:57Z</time>
      </trkpt>
      <trkpt lat="40.704897232353687" lon="13.886158000677824">
        <ele>101.08</ele>
        <time>2018-09-23T14:00:58Z</time>
      </trkpt>
      <trkpt lat="40.704909134656191" lon="13.886113073676825">
        <ele>101.56</ele>
        <time>2018-09-23T14:00:59Z</time>
      </trkpt>
      <trkpt lat="40.704918690025806" lon="13.886059764772654">
        <ele>101.56</ele>
        <time>2018-09-23T14:01:00Z</time>
      </trkpt>
      <trkpt lat="40.70497845299542" lon="13.885587444528937">
        <ele>104.92</ele>
        <time>2018-09-23T14:01:07Z</time>
      </trkpt>
      <trkpt lat="40.705090938135982" lon="13.884926866739988">
        <ele>107.81</ele>
        <time>2018-09-23T14:01:15Z</time>
      </trkpt>
      <trkpt lat="40.705141313374043" lon="13.884750260040164">
        <ele>109.73</ele>
        <time>2018-09-23T14:01:17Z</time>
      </trkpt>
      <trkpt lat="40.705178948119283" lon="13.884659986943007">
        <ele>110.20999999999999</ele>
        <time>2018-09-23T14:01:18Z</time>
      </trkpt>
      <trkpt lat="40.705223372206092" lon="13.88457759283483">
        <ele>110.20999999999999</ele>
        <time>2018-09-23T14:01:19Z</time>
      </trkpt>
      <trkpt lat="40.705284141004086" lon="13.884510705247521">
        <ele>110.69</ele>
        <time>2018-09-23T14:01:20Z</time>
      </trkpt>
      <trkpt lat="40.705353543162346" lon="13.884460413828492">
        <ele>111.65000000000001</ele>
        <time>2018-09-23T14:01:21Z</time>
      </trkpt>
      <trkpt lat="40.705421939492226" lon="13.884429987519979">
        <ele>112.13</ele>
        <time>2018-09-23T14:01:22Z</time>
      </trkpt>
      <trkpt lat="40.705483797937632" lon="13.884412217885256">
        <ele>113.09</ele>
        <time>2018-09-23T14:01:23Z</time>
      </trkpt>
      <trkpt lat="40.705544566735625" lon="13.884405680000782">
        <ele>114.05</ele>
        <time>2018-09-23T14:01:24Z</time>
      </trkpt>
      <trkpt lat="40.705603742972016" lon="13.884409200400114">
        <ele>112.61</ele>
        <time>2018-09-23T14:01:25Z</time>
      </trkpt>
      <trkpt lat="40.705662500113249" lon="13.884423198178411">
        <ele>113.09</ele>
        <time>2018-09-23T14:01:26Z</time>
      </trkpt>
      <trkpt lat="40.705721005797386" lon="13.884444236755371">
        <ele>113.09</ele>
        <time>2018-09-23T14:01:27Z</time>
      </trkpt>
      <trkpt lat="40.705778924748302" lon="13.884466532617807">
        <ele>114.05</ele>
        <time>2018-09-23T14:01:28Z</time>
      </trkpt>
      <trkpt lat="40.705837178975344" lon="13.884485308080912">
        <ele>114.05</ele>
        <time>2018-09-23T14:01:29Z</time>
      </trkpt>
      <trkpt lat="40.705897947773337" lon="13.88449888676405">
        <ele>115.01000000000001</ele>
        <time>2018-09-23T14:01:30Z</time>
      </trkpt>
      <trkpt lat="40.705963410437107" lon="13.884499724954367">
        <ele>114.53</ele>
        <time>2018-09-23T14:01:31Z</time>
      </trkpt>
      <trkpt lat="40.706025771796703" lon="13.884483966976404">
        <ele>116.45999999999999</ele>
        <time>2018-09-23T14:01:32Z</time>
      </trkpt>
      <trkpt lat="40.70607690140605" lon="13.884457480162382">
        <ele>115.98</ele>
        <time>2018-09-23T14:01:33Z</time>
      </trkpt>
      <trkpt lat="40.706131886690855" lon="13.884435100480914">
        <ele>116.45999999999999</ele>
        <time>2018-09-23T14:01:34Z</time>
      </trkpt>
      <trkpt lat="40.706316540017724" lon="13.884249022230506">
        <ele>118.86</ele>
        <time>2018-09-23T14:01:38Z</time>
      </trkpt>
      <trkpt lat="40.70634176954627" lon="13.884169980883598">
        <ele>119.81999999999999</ele>
        <time>2018-09-23T14:01:39Z</time>
      </trkpt>
      <trkpt lat="40.706360042095184" lon="13.884080545976758">
        <ele>119.81999999999999</ele>
        <time>2018-09-23T14:01:40Z</time>
      </trkpt>
      <trkpt lat="40.706365238875151" lon="13.883972251787782">
        <ele>120.78</ele>
        <time>2018-09-23T14:01:41Z</time>
      </trkpt>
      <trkpt lat="40.706346882507205" lon="13.88382850214839">
        <ele>121.26000000000001</ele>
        <time>2018-09-23T14:01:42Z</time>
      </trkpt>
      <trkpt lat="40.706332297995687" lon="13.883695984259248">
        <ele>122.22</ele>
        <time>2018-09-23T14:01:43Z</time>
      </trkpt>
      <trkpt lat="40.706302542239428" lon="13.883104557171464">
        <ele>125.59</ele>
        <time>2018-09-23T14:01:48Z</time>
      </trkpt>
      <trkpt lat="40.706322491168976" lon="13.882887130603194">
        <ele>126.55</ele>
        <time>2018-09-23T14:01:50Z</time>
      </trkpt>
      <trkpt lat="40.706385606899858" lon="13.882689652964473">
        <ele>127.03</ele>
        <time>2018-09-23T14:01:52Z</time>
      </trkpt>
      <trkpt lat="40.706430282443762" lon="13.882602397352457">
        <ele>128.94999999999999</ele>
        <time>2018-09-23T14:01:53Z</time>
      </trkpt>
      <trkpt lat="40.706489626318216" lon="13.88252385891974">
        <ele>127.98999999999999</ele>
        <time>2018-09-23T14:01:54Z</time>
      </trkpt>
      <trkpt lat="40.70655332878232" lon="13.882448757067323">
        <ele>128.47</ele>
        <time>2018-09-23T14:01:55Z</time>
      </trkpt>
      <trkpt lat="40.706813586875796" lon="13.882177099585533">
        <ele>131.84</ele>
        <time>2018-09-23T14:01:59Z</time>
      </trkpt>
      <trkpt lat="40.707206698134542" lon="13.881804775446653">
        <ele>135.68000000000001</ele>
        <time>2018-09-23T14:02:05Z</time>
      </trkpt>
      <trkpt lat="40.707256989553571" lon="13.881736462935805">
        <ele>134.24000000000001</ele>
        <time>2018-09-23T14:02:06Z</time>
      </trkpt>
      <trkpt lat="40.707299066707492" lon="13.881658259779215">
        <ele>134.72</ele>
        <time>2018-09-23T14:02:07Z</time>
      </trkpt>
      <trkpt lat="40.70733368396759" lon="13.88157544657588">
        <ele>134.72</ele>
        <time>2018-09-23T14:02:08Z</time>
      </trkpt>
      <trkpt lat="40.707360589876771" lon="13.881485760211945">
        <ele>134.72</ele>
        <time>2018-09-23T14:02:09Z</time>
      </trkpt>
      <trkpt lat="40.707524539902806" lon="13.880507759749889">
        <ele>137.61000000000001</ele>
        <time>2018-09-23T14:02:18Z</time>
      </trkpt>
      <trkpt lat="40.707951262593269" lon="13.879318702965975">
        <ele>141.44999999999999</ele>
        <time>2018-09-23T14:02:29Z</time>
      </trkpt>
      <trkpt lat="40.708088055253029" lon="13.878951324149966">
        <ele>142.41</ele>
        <time>2018-09-23T14:02:33Z</time>
      </trkpt>
      <trkpt lat="40.708108842372894" lon="13.878863984718919">
        <ele>142.88999999999999</ele>
        <time>2018-09-23T14:02:34Z</time>
      </trkpt>
      <trkpt lat="40.708120912313461" lon="13.878776142373681">
        <ele>142.88999999999999</ele>
        <time>2018-09-23T14:02:35Z</time>
      </trkpt>
      <trkpt lat="40.708119990304112" lon="13.878684276714921">
        <ele>143.37</ele>
        <time>2018-09-23T14:02:36Z</time>
      </trkpt>
      <trkpt lat="40.70810666307807" lon="13.878590315580368">
        <ele>144.34</ele>
        <time>2018-09-23T14:02:37Z</time>
      </trkpt>
      <trkpt lat="40.708089061081409" lon="13.878499371930957">
        <ele>144.81999999999999</ele>
        <time>2018-09-23T14:02:38Z</time>
      </trkpt>
      <trkpt lat="40.708071207627654" lon="13.878411361947656">
        <ele>144.81999999999999</ele>
        <time>2018-09-23T14:02:39Z</time>
      </trkpt>
      <trkpt lat="40.708025107160211" lon="13.878154875710607">
        <ele>146.25999999999999</ele>
        <time>2018-09-23T14:02:42Z</time>
      </trkpt>
      <trkpt lat="40.708036590367556" lon="13.878068961203098">
        <ele>146.74000000000001</ele>
        <time>2018-09-23T14:02:43Z</time>
      </trkpt>
      <trkpt lat="40.708060143515468" lon="13.877994362264872">
        <ele>146.74000000000001</ele>
        <time>2018-09-23T14:02:44Z</time>
      </trkpt>
      <trkpt lat="40.708097526803613" lon="13.877918757498264">
        <ele>147.22</ele>
        <time>2018-09-23T14:02:45Z</time>
      </trkpt>
      <trkpt lat="40.708141699433327" lon="13.877848433330655">
        <ele>148.18000000000001</ele>
        <time>2018-09-23T14:02:46Z</time>
      </trkpt>
      <trkpt lat="40.708186626434326" lon="13.87778171338141">
        <ele>148.66</ele>
        <time>2018-09-23T14:02:47Z</time>
      </trkpt>
      <trkpt lat="40.708380416035652" lon="13.877466889098287">
        <ele>152.50999999999999</ele>
        <time>2018-09-23T14:02:52Z</time>
      </trkpt>
      <trkpt lat="40.708400029689074" lon="13.877425314858556">
        <ele>151.53999999999999</ele>
        <time>2018-09-23T14:02:53Z</time>
      </trkpt>
      <trkpt lat="40.708408076316118" lon="13.877403270453215">
        <ele>149.62</ele>
        <time>2018-09-23T14:02:57Z</time>
      </trkpt>
      <trkpt lat="40.708355940878391" lon="13.877399750053883">
        <ele>149.62</ele>
        <time>2018-09-23T14:03:19Z</time>
      </trkpt>
      <trkpt lat="40.708363400772214" lon="13.877382902428508">
        <ele>149.62</ele>
        <time>2018-09-23T14:03:24Z</time>
      </trkpt>
      <trkpt lat="40.708460044115782" lon="13.877162458375096">
        <ele>151.53999999999999</ele>
        <time>2018-09-23T14:03:32Z</time>
      </trkpt>
      <trkpt lat="40.708484351634979" lon="13.87709179893136">
        <ele>152.50999999999999</ele>
        <time>2018-09-23T14:03:34Z</time>
      </trkpt>
      <trkpt lat="40.70850245654583" lon="13.877010326832533">
        <ele>153.47</ele>
        <time>2018-09-23T14:03:41Z</time>
      </trkpt>
      <trkpt lat="40.708579402416945" lon="13.876878311857581">
        <ele>153.47</ele>
        <time>2018-09-23T14:03:50Z</time>
      </trkpt>
      <trkpt lat="40.70862952619791" lon="13.876869678497314">
        <ele>153.47</ele>
        <time>2018-09-23T14:03:52Z</time>
      </trkpt>
      <trkpt lat="40.708656013011932" lon="13.876884682103992">
        <ele>153.94999999999999</ele>
        <time>2018-09-23T14:03:53Z</time>
      </trkpt>
      <trkpt lat="40.708673531189561" lon="13.876903038471937">
        <ele>153.94999999999999</ele>
        <time>2018-09-23T14:03:54Z</time>
      </trkpt>
      <trkpt lat="40.708694905042648" lon="13.8769446965307">
        <ele>155.38999999999999</ele>
        <time>2018-09-23T14:03:55Z</time>
      </trkpt>
      <trkpt lat="40.708705969154835" lon="13.876985684037209">
        <ele>154.91</ele>
        <time>2018-09-23T14:03:56Z</time>
      </trkpt>
      <trkpt lat="40.708711501210928" lon="13.877025246620178">
        <ele>154.43000000000001</ele>
        <time>2018-09-23T14:03:57Z</time>
      </trkpt>
      <trkpt lat="40.708718793466687" lon="13.877185424789786">
        <ele>155.38999999999999</ele>
        <time>2018-09-23T14:04:01Z</time>
      </trkpt>
      <trkpt lat="40.708667663857341" lon="13.877663528546691">
        <ele>158.27000000000001</ele>
        <time>2018-09-23T14:04:12Z</time>
      </trkpt>
      <trkpt lat="40.708676464855671" lon="13.877749862149358">
        <ele>158.27000000000001</ele>
        <time>2018-09-23T14:04:13Z</time>
      </trkpt>
      <trkpt lat="40.70860555395484" lon="13.878448829054832">
        <ele>161.63999999999999</ele>
        <time>2018-09-23T14:04:22Z</time>
      </trkpt>
      <trkpt lat="40.708599602803588" lon="13.878634907305241">
        <ele>163.08000000000001</ele>
        <time>2018-09-23T14:04:24Z</time>
      </trkpt>
      <trkpt lat="40.708606643602252" lon="13.878721157088876">
        <ele>164.52000000000001</ele>
        <time>2018-09-23T14:04:25Z</time>
      </trkpt>
      <trkpt lat="40.708617372438312" lon="13.878804221749306">
        <ele>164.03999999999999</ele>
        <time>2018-09-23T14:04:26Z</time>
      </trkpt>
      <trkpt lat="40.708642266690731" lon="13.878882005810738">
        <ele>164.52000000000001</ele>
        <time>2018-09-23T14:04:27Z</time>
      </trkpt>
      <trkpt lat="40.708670429885387" lon="13.878953000530601">
        <ele>164.03999999999999</ele>
        <time>2018-09-23T14:04:28Z</time>
      </trkpt>
      <trkpt lat="40.708712674677372" lon="13.879018044099212">
        <ele>165</ele>
        <time>2018-09-23T14:04:29Z</time>
      </trkpt>
      <trkpt lat="40.708758439868689" lon="13.879077052697539">
        <ele>165.96000000000001</ele>
        <time>2018-09-23T14:04:30Z</time>
      </trkpt>
      <trkpt lat="40.708828428760171" lon="13.879139665514231">
        <ele>166.44999999999999</ele>
        <time>2018-09-23T14:04:31Z</time>
      </trkpt>
      <trkpt lat="40.708899423480034" lon="13.879186017438769">
        <ele>166.93000000000001</ele>
        <time>2018-09-23T14:04:32Z</time>
      </trkpt>
      <trkpt lat="40.708977458998561" lon="13.879221808165312">
        <ele>166.93000000000001</ele>
        <time>2018-09-23T14:04:33Z</time>
      </trkpt>
      <trkpt lat="40.709052141755819" lon="13.87924712151289">
        <ele>166.44999999999999</ele>
        <time>2018-09-23T14:04:34Z</time>
      </trkpt>
      <trkpt lat="40.709126405417919" lon="13.879268076270819">
        <ele>166.93000000000001</ele>
        <time>2018-09-23T14:04:35Z</time>
      </trkpt>
      <trkpt lat="40.709192454814911" lon="13.879279727116227">
        <ele>166.93000000000001</ele>
        <time>2018-09-23T14:04:36Z</time>
      </trkpt>
      <trkpt lat="40.709252636879683" lon="13.87928668409586">
        <ele>166.93000000000001</ele>
        <time>2018-09-23T14:04:37Z</time>
      </trkpt>
      <trkpt lat="40.709452042356133" lon="13.879283247515559">
        <ele>166.93000000000001</ele>
        <time>2018-09-23T14:04:44Z</time>
      </trkpt>
      <trkpt lat="40.709560923278332" lon="13.879247456789017">
        <ele>166.44999999999999</ele>
        <time>2018-09-23T14:04:54Z</time>
      </trkpt>
      <trkpt lat="40.709698051214218" lon="13.879200099036098">
        <ele>166.93000000000001</ele>
        <time>2018-09-23T14:04:58Z</time>
      </trkpt>
      <trkpt lat="40.709744319319725" lon="13.879195405170321">
        <ele>166.93000000000001</ele>
        <time>2018-09-23T14:04:59Z</time>
      </trkpt>
      <trkpt lat="40.709795616567135" lon="13.879185849800706">
        <ele>166.93000000000001</ele>
        <time>2018-09-23T14:05:00Z</time>
      </trkpt>
      <trkpt lat="40.709844315424562" lon="13.879162967205048">
        <ele>165.96000000000001</ele>
        <time>2018-09-23T14:05:01Z</time>
      </trkpt>
      <trkpt lat="40.70989309810102" lon="13.87913522310555">
        <ele>165.96000000000001</ele>
        <time>2018-09-23T14:05:02Z</time>
      </trkpt>
      <trkpt lat="40.709940120577812" lon="13.87910102494061">
        <ele>165.96000000000001</ele>
        <time>2018-09-23T14:05:03Z</time>
      </trkpt>
      <trkpt lat="40.709984125569463" lon="13.879062971100211">
        <ele>165.96000000000001</ele>
        <time>2018-09-23T14:05:04Z</time>
      </trkpt>
      <trkpt lat="40.710025699809194" lon="13.879018630832434">
        <ele>165.96000000000001</ele>
        <time>2018-09-23T14:05:05Z</time>
      </trkpt>
      <trkpt lat="40.710257878527045" lon="13.878685031086206">
        <ele>165.96000000000001</ele>
        <time>2018-09-23T14:05:11Z</time>
      </trkpt>
    </trkseg>
  </trk>

  <trk>
    <name>2018-09-24 16:27:34</name>
    <extensions>
      <gpxx:TrackExtension>
        <gpxx:DisplayColor>Yellow</gpxx:DisplayColor>
      </gpxx:TrackExtension>
      <gpxtrkx:TrackStatsExtension xmlns:gpxtrkx="http://www.garmin.com/xmlschemas/TrackStatsExtension/v1">
        <gpxtrkx:Distance>12354</gpxtrkx:Distance>
        <gpxtrkx:TotalElapsedTime>25735</gpxtrkx:TotalElapsedTime>
        <gpxtrkx:MovingTime>13406</gpxtrkx:MovingTime>
        <gpxtrkx:StoppedTime>10901</gpxtrkx:StoppedTime>
        <gpxtrkx:MovingSpeed>1</gpxtrkx:MovingSpeed>
        <gpxtrkx:MaxSpeed>2</gpxtrkx:MaxSpeed>
        <gpxtrkx:MaxElevation>403</gpxtrkx:MaxElevation>
        <gpxtrkx:MinElevation>12</gpxtrkx:MinElevation>
        <gpxtrkx:Ascent>435</gpxtrkx:Ascent>
        <gpxtrkx:Descent>548</gpxtrkx:Descent>
        <gpxtrkx:AvgAscentRate>0</gpxtrkx:AvgAscentRate>
        <gpxtrkx:MaxAscentRate>0</gpxtrkx:MaxAscentRate>
        <gpxtrkx:AvgDescentRate>0</gpxtrkx:AvgDescentRate>
        <gpxtrkx:MaxDescentRate>-0</gpxtrkx:MaxDescentRate>
      </gpxtrkx:TrackStatsExtension>
    </extensions>
    <trkseg>
      <trkpt lat="40.71032015606761" lon="13.927243743091822">
        <ele>159.72</ele>
        <time>2018-09-24T07:18:42Z</time>
      </trkpt>
      <trkpt lat="40.710290400311351" lon="13.927304679527879">
        <ele>159.72</ele>
        <time>2018-09-24T07:18:56Z</time>
      </trkpt>
      <trkpt lat="40.710275899618864" lon="13.927291017025709">
        <ele>158.27000000000001</ele>
        <time>2018-09-24T07:19:05Z</time>
      </trkpt>
      <trkpt lat="40.710288723930717" lon="13.927299398928881">
        <ele>159.24000000000001</ele>
        <time>2018-09-24T07:19:20Z</time>
      </trkpt>
      <trkpt lat="40.710279503837228" lon="13.927257908508182">
        <ele>159.72</ele>
        <time>2018-09-24T07:19:28Z</time>
      </trkpt>
      <trkpt lat="40.710270870476961" lon="13.927261680364609">
        <ele>159.72</ele>
        <time>2018-09-24T07:19:29Z</time>
      </trkpt>
      <trkpt lat="40.710176071152091" lon="13.927279785275459">
        <ele>158.27000000000001</ele>
        <time>2018-09-24T07:19:41Z</time>
      </trkpt>
      <trkpt lat="40.710122929885983" lon="13.927376428619027">
        <ele>157.78999999999999</ele>
        <time>2018-09-24T07:19:52Z</time>
      </trkpt>
      <trkpt lat="40.710091162472963" lon="13.927481286227703">
        <ele>157.31</ele>
        <time>2018-09-24T07:20:04Z</time>
      </trkpt>
      <trkpt lat="40.710069453343749" lon="13.927475670352578">
        <ele>156.83000000000001</ele>
        <time>2018-09-24T07:20:19Z</time>
      </trkpt>
      <trkpt lat="40.710006337612867" lon="13.927575415000319">
        <ele>156.83000000000001</ele>
        <time>2018-09-24T07:20:30Z</time>
      </trkpt>
      <trkpt lat="40.709919333457947" lon="13.92771321348846">
        <ele>155.38999999999999</ele>
        <time>2018-09-24T07:20:42Z</time>
      </trkpt>
      <trkpt lat="40.709833083674312" lon="13.927824022248387">
        <ele>154.91</ele>
        <time>2018-09-24T07:20:55Z</time>
      </trkpt>
      <trkpt lat="40.709794946014881" lon="13.927892167121172">
        <ele>154.91</ele>
        <time>2018-09-24T07:21:06Z</time>
      </trkpt>
      <trkpt lat="40.709778936579823" lon="13.927915552631021">
        <ele>154.91</ele>
        <time>2018-09-24T07:21:20Z</time>
      </trkpt>
      <trkpt lat="40.709781954064965" lon="13.927929634228349">
        <ele>154.91</ele>
        <time>2018-09-24T07:21:31Z</time>
      </trkpt>
      <trkpt lat="40.709787318482995" lon="13.927908763289452">
        <ele>154.91</ele>
        <time>2018-09-24T07:21:56Z</time>
      </trkpt>
      <trkpt lat="40.709797795861959" lon="13.927964335307479">
        <ele>154.91</ele>
        <time>2018-09-24T07:22:18Z</time>
      </trkpt>
      <trkpt lat="40.709789162501693" lon="13.927986044436693">
        <ele>154.91</ele>
        <time>2018-09-24T07:22:38Z</time>
      </trkpt>
      <trkpt lat="40.709787234663963" lon="13.927983194589615">
        <ele>154.91</ele>
        <time>2018-09-24T07:22:57Z</time>
      </trkpt>
      <trkpt lat="40.709772231057286" lon="13.92804111354053">
        <ele>154.91</ele>
        <time>2018-09-24T07:23:05Z</time>
      </trkpt>
      <trkpt lat="40.709715653210878" lon="13.928163489326835">
        <ele>155.38999999999999</ele>
        <time>2018-09-24T07:23:19Z</time>
      </trkpt>
      <trkpt lat="40.709680197760463" lon="13.928285446017981">
        <ele>155.87</ele>
        <time>2018-09-24T07:23:29Z</time>
      </trkpt>
      <trkpt lat="40.709656393155456" lon="13.928340515121818">
        <ele>155.87</ele>
        <time>2018-09-24T07:23:33Z</time>
      </trkpt>
      <trkpt lat="40.709617920219898" lon="13.928496083244681">
        <ele>156.34999999999999</ele>
        <time>2018-09-24T07:23:46Z</time>
      </trkpt>
      <trkpt lat="40.709569556638598" lon="13.928618291392922">
        <ele>157.31</ele>
        <time>2018-09-24T07:23:59Z</time>
      </trkpt>
      <trkpt lat="40.709544327110052" lon="13.928676461800933">
        <ele>157.78999999999999</ele>
        <time>2018-09-24T07:24:11Z</time>
      </trkpt>
      <trkpt lat="40.70950610563159" lon="13.928782409057021">
        <ele>158.27000000000001</ele>
        <time>2018-09-24T07:24:24Z</time>
      </trkpt>
      <trkpt lat="40.709466794505715" lon="13.928881315514445">
        <ele>159.72</ele>
        <time>2018-09-24T07:24:34Z</time>
      </trkpt>
      <trkpt lat="40.70943720638752" lon="13.92900662496686">
        <ele>161.16</ele>
        <time>2018-09-24T07:24:45Z</time>
      </trkpt>
      <trkpt lat="40.709400996565819" lon="13.929153308272362">
        <ele>162.12</ele>
        <time>2018-09-24T07:24:57Z</time>
      </trkpt>
      <trkpt lat="40.70935514755547" lon="13.929269900545478">
        <ele>162.59999999999999</ele>
        <time>2018-09-24T07:25:07Z</time>
      </trkpt>
      <trkpt lat="40.709327906370163" lon="13.929417673498392">
        <ele>162.59999999999999</ele>
        <time>2018-09-24T07:25:21Z</time>
      </trkpt>
      <trkpt lat="40.709330923855305" lon="13.929449273273349">
        <ele>162.59999999999999</ele>
        <time>2018-09-24T07:25:42Z</time>
      </trkpt>
      <trkpt lat="40.709323296323419" lon="13.929428569972515">
        <ele>162.59999999999999</ele>
        <time>2018-09-24T07:25:58Z</time>
      </trkpt>
      <trkpt lat="40.709327571094036" lon="13.92948648892343">
        <ele>162.59999999999999</ele>
        <time>2018-09-24T07:26:11Z</time>
      </trkpt>
      <trkpt lat="40.709372330456972" lon="13.929561004042625">
        <ele>163.08000000000001</ele>
        <time>2018-09-24T07:26:24Z</time>
      </trkpt>
      <trkpt lat="40.709404014050961" lon="13.929626801982522">
        <ele>163.08000000000001</ele>
        <time>2018-09-24T07:26:35Z</time>
      </trkpt>
      <trkpt lat="40.709423460066319" lon="13.929757308214903">
        <ele>163.08000000000001</ele>
        <time>2018-09-24T07:26:46Z</time>
      </trkpt>
      <trkpt lat="40.709418347105384" lon="13.92984758131206">
        <ele>163.56</ele>
        <time>2018-09-24T07:26:56Z</time>
      </trkpt>
      <trkpt lat="40.709387082606554" lon="13.929958892986178">
        <ele>164.03999999999999</ele>
        <time>2018-09-24T07:27:06Z</time>
      </trkpt>
      <trkpt lat="40.709364702925086" lon="13.930079843848944">
        <ele>164.52000000000001</ele>
        <time>2018-09-24T07:27:17Z</time>
      </trkpt>
      <trkpt lat="40.709344586357474" lon="13.930209092795849">
        <ele>163.08000000000001</ele>
        <time>2018-09-24T07:27:28Z</time>
      </trkpt>
      <trkpt lat="40.709349699318409" lon="13.930280841886997">
        <ele>162.12</ele>
        <time>2018-09-24T07:27:34Z</time>
      </trkpt>
      <trkpt lat="40.709374006837606" lon="13.930459879338741">
        <ele>160.19999999999999</ele>
        <time>2018-09-24T07:27:48Z</time>
      </trkpt>
      <trkpt lat="40.709446258842945" lon="13.930574962869287">
        <ele>158.27000000000001</ele>
        <time>2018-09-24T07:28:00Z</time>
      </trkpt>
      <trkpt lat="40.7094606757164" lon="13.930636402219534">
        <ele>157.78999999999999</ele>
        <time>2018-09-24T07:28:10Z</time>
      </trkpt>
      <trkpt lat="40.709481965750456" lon="13.930720472708344">
        <ele>155.87</ele>
        <time>2018-09-24T07:28:22Z</time>
      </trkpt>
      <trkpt lat="40.709530832245946" lon="13.930906970053911">
        <ele>153.94999999999999</ele>
        <time>2018-09-24T07:28:35Z</time>
      </trkpt>
      <trkpt lat="40.709546506404877" lon="13.930931109935045">
        <ele>153.47</ele>
        <time>2018-09-24T07:28:48Z</time>
      </trkpt>
      <trkpt lat="40.709591265767813" lon="13.931074105203152">
        <ele>152.03</ele>
        <time>2018-09-24T07:29:01Z</time>
      </trkpt>
      <trkpt lat="40.709650022909045" lon="13.931277198716998">
        <ele>151.53999999999999</ele>
        <time>2018-09-24T07:29:15Z</time>
      </trkpt>
      <trkpt lat="40.70967910811305" lon="13.931474843993783">
        <ele>150.58000000000001</ele>
        <time>2018-09-24T07:29:27Z</time>
      </trkpt>
      <trkpt lat="40.709695285186172" lon="13.931675339117646">
        <ele>149.62</ele>
        <time>2018-09-24T07:29:40Z</time>
      </trkpt>
      <trkpt lat="40.709744906052947" lon="13.931871140375733">
        <ele>149.13999999999999</ele>
        <time>2018-09-24T07:29:54Z</time>
      </trkpt>
      <trkpt lat="40.709799556061625" lon="13.93208404071629">
        <ele>148.66</ele>
        <time>2018-09-24T07:30:08Z</time>
      </trkpt>
      <trkpt lat="40.709878848865628" lon="13.932284871116281">
        <ele>147.69999999999999</ele>
        <time>2018-09-24T07:30:21Z</time>
      </trkpt>
      <trkpt lat="40.709918076172471" lon="13.932401295751333">
        <ele>147.22</ele>
        <time>2018-09-24T07:30:30Z</time>
      </trkpt>
      <trkpt lat="40.709976414218545" lon="13.932645292952657">
        <ele>145.78</ele>
        <time>2018-09-24T07:30:46Z</time>
      </trkpt>
      <trkpt lat="40.709999464452267" lon="13.93272802233696">
        <ele>145.30000000000001</ele>
        <time>2018-09-24T07:30:52Z</time>
      </trkpt>
      <trkpt lat="40.710012288764119" lon="13.932770267128944">
        <ele>144.81999999999999</ele>
        <time>2018-09-24T07:30:56Z</time>
      </trkpt>
      <trkpt lat="40.710045816376805" lon="13.932804884389043">
        <ele>144.81999999999999</ele>
        <time>2018-09-24T07:31:01Z</time>
      </trkpt>
      <trkpt lat="40.710122929885983" lon="13.932906808331609">
        <ele>143.84999999999999</ele>
        <time>2018-09-24T07:31:11Z</time>
      </trkpt>
      <trkpt lat="40.71023172698915" lon="13.932984676212072">
        <ele>142.41</ele>
        <time>2018-09-24T07:31:23Z</time>
      </trkpt>
      <trkpt lat="40.710346978157759" lon="13.933126078918576">
        <ele>140.97</ele>
        <time>2018-09-24T07:31:37Z</time>
      </trkpt>
      <trkpt lat="40.71039785631001" lon="13.933222303166986">
        <ele>139.53</ele>
        <time>2018-09-24T07:31:47Z</time>
      </trkpt>
      <trkpt lat="40.710448902100325" lon="13.93333638086915">
        <ele>137.13</ele>
        <time>2018-09-24T07:31:59Z</time>
      </trkpt>
      <trkpt lat="40.710526015609503" lon="13.933424055576324">
        <ele>135.19999999999999</ele>
        <time>2018-09-24T07:32:09Z</time>
      </trkpt>
      <trkpt lat="40.71063824929297" lon="13.933509299531579">
        <ele>132.31999999999999</ele>
        <time>2018-09-24T07:32:22Z</time>
      </trkpt>
      <trkpt lat="40.710723074153066" lon="13.933625807985663">
        <ele>132.31999999999999</ele>
        <time>2018-09-24T07:32:33Z</time>
      </trkpt>
      <trkpt lat="40.710750315338373" lon="13.933638045564294">
        <ele>132.80000000000001</ele>
        <time>2018-09-24T07:32:37Z</time>
      </trkpt>
      <trkpt lat="40.710841091349721" lon="13.933711890131235">
        <ele>134.72</ele>
        <time>2018-09-24T07:32:48Z</time>
      </trkpt>
      <trkpt lat="40.710930274799466" lon="13.933818843215704">
        <ele>136.16</ele>
        <time>2018-09-24T07:33:00Z</time>
      </trkpt>
      <trkpt lat="40.710936561226845" lon="13.933832421898842">
        <ele>136.16</ele>
        <time>2018-09-24T07:33:01Z</time>
      </trkpt>
      <trkpt lat="40.710987774655223" lon="13.934025038033724">
        <ele>136.63999999999999</ele>
        <time>2018-09-24T07:33:15Z</time>
      </trkpt>
      <trkpt lat="40.711091794073582" lon="13.934136601164937">
        <ele>138.56999999999999</ele>
        <time>2018-09-24T07:33:28Z</time>
      </trkpt>
      <trkpt lat="40.711153317242861" lon="13.934191837906837">
        <ele>139.53</ele>
        <time>2018-09-24T07:33:36Z</time>
      </trkpt>
      <trkpt lat="40.711303604766726" lon="13.934238189831376">
        <ele>140.49000000000001</ele>
        <time>2018-09-24T07:33:50Z</time>
      </trkpt>
      <trkpt lat="40.711427740752697" lon="13.934276159852743">
        <ele>141.93000000000001</ele>
        <time>2018-09-24T07:34:02Z</time>
      </trkpt>
      <trkpt lat="40.711568640545011" lon="13.934347406029701">
        <ele>142.41</ele>
        <time>2018-09-24T07:34:14Z</time>
      </trkpt>
      <trkpt lat="40.711701326072216" lon="13.93439476378262">
        <ele>142.41</ele>
        <time>2018-09-24T07:34:26Z</time>
      </trkpt>
      <trkpt lat="40.711795790120959" lon="13.93442208878696">
        <ele>142.88999999999999</ele>
        <time>2018-09-24T07:34:37Z</time>
      </trkpt>
      <trkpt lat="40.71186033077538" lon="13.934443043544888">
        <ele>143.37</ele>
        <time>2018-09-24T07:34:48Z</time>
      </trkpt>
      <trkpt lat="40.712055042386055" lon="13.934464417397976">
        <ele>144.34</ele>
        <time>2018-09-24T07:35:07Z</time>
      </trkpt>
      <trkpt lat="40.712112206965685" lon="13.934510853141546">
        <ele>144.34</ele>
        <time>2018-09-24T07:35:11Z</time>
      </trkpt>
      <trkpt lat="40.712231313809752" lon="13.934662733227015">
        <ele>145.30000000000001</ele>
        <time>2018-09-24T07:35:26Z</time>
      </trkpt>
      <trkpt lat="40.712343966588378" lon="13.934767758473754">
        <ele>144.34</ele>
        <time>2018-09-24T07:35:40Z</time>
      </trkpt>
      <trkpt lat="40.712423846125603" lon="13.934889547526836">
        <ele>142.41</ele>
        <time>2018-09-24T07:35:51Z</time>
      </trkpt>
      <trkpt lat="40.712453434243798" lon="13.935038074851036">
        <ele>143.84999999999999</ele>
        <time>2018-09-24T07:36:01Z</time>
      </trkpt>
      <trkpt lat="40.712384032085538" lon="13.935229852795601">
        <ele>144.34</ele>
        <time>2018-09-24T07:36:14Z</time>
      </trkpt>
      <trkpt lat="40.712346145883203" lon="13.93540570512414">
        <ele>145.78</ele>
        <time>2018-09-24T07:36:27Z</time>
      </trkpt>
      <trkpt lat="40.712319826707244" lon="13.935593543574214">
        <ele>148.18000000000001</ele>
        <time>2018-09-24T07:36:41Z</time>
      </trkpt>
      <trkpt lat="40.712326113134623" lon="13.93564467318356">
        <ele>148.66</ele>
        <time>2018-09-24T07:36:53Z</time>
      </trkpt>
      <trkpt lat="40.712329968810081" lon="13.935660095885396">
        <ele>149.13999999999999</ele>
        <time>2018-09-24T07:37:05Z</time>
      </trkpt>
      <trkpt lat="40.712340697646141" lon="13.935669148340821">
        <ele>149.62</ele>
        <time>2018-09-24T07:37:18Z</time>
      </trkpt>
      <trkpt lat="40.712362909689546" lon="13.935729581862688">
        <ele>150.58000000000001</ele>
        <time>2018-09-24T07:37:29Z</time>
      </trkpt>
      <trkpt lat="40.712357796728611" lon="13.935827147215605">
        <ele>151.53999999999999</ele>
        <time>2018-09-24T07:37:38Z</time>
      </trkpt>
      <trkpt lat="40.712349666282535" lon="13.935944912955165">
        <ele>152.99000000000001</ele>
        <time>2018-09-24T07:37:49Z</time>
      </trkpt>
      <trkpt lat="40.712337344884872" lon="13.936065779998899">
        <ele>155.87</ele>
        <time>2018-09-24T07:38:01Z</time>
      </trkpt>
      <trkpt lat="40.712331142276525" lon="13.93616946414113">
        <ele>157.31</ele>
        <time>2018-09-24T07:38:11Z</time>
      </trkpt>
      <trkpt lat="40.712305326014757" lon="13.936256719753146">
        <ele>159.24000000000001</ele>
        <time>2018-09-24T07:38:20Z</time>
      </trkpt>
      <trkpt lat="40.712246485054493" lon="13.936365516856313">
        <ele>161.63999999999999</ele>
        <time>2018-09-24T07:38:33Z</time>
      </trkpt>
      <trkpt lat="40.712210610508919" lon="13.936426620930433">
        <ele>162.59999999999999</ele>
        <time>2018-09-24T07:38:42Z</time>
      </trkpt>
      <trkpt lat="40.712152104824781" lon="13.936510859057307">
        <ele>164.52000000000001</ele>
        <time>2018-09-24T07:38:57Z</time>
      </trkpt>
      <trkpt lat="40.712123271077871" lon="13.936633989214897">
        <ele>165.96000000000001</ele>
        <time>2018-09-24T07:39:13Z</time>
      </trkpt>
      <trkpt lat="40.7120371889323" lon="13.936746641993523">
        <ele>169.33000000000001</ele>
        <time>2018-09-24T07:39:29Z</time>
      </trkpt>
      <trkpt lat="40.711960326880217" lon="13.936870275065303">
        <ele>172.21000000000001</ele>
        <time>2018-09-24T07:39:46Z</time>
      </trkpt>
      <trkpt lat="40.711880112066865" lon="13.936979407444596">
        <ele>174.13999999999999</ele>
        <time>2018-09-24T07:40:02Z</time>
      </trkpt>
      <trkpt lat="40.711840214207768" lon="13.937074793502688">
        <ele>176.53999999999999</ele>
        <time>2018-09-24T07:40:16Z</time>
      </trkpt>
      <trkpt lat="40.711829736828804" lon="13.937111087143421">
        <ele>177.5</ele>
        <time>2018-09-24T07:40:30Z</time>
      </trkpt>
      <trkpt lat="40.711730914190412" lon="13.937239414080977">
        <ele>180.38</ele>
        <time>2018-09-24T07:40:46Z</time>
      </trkpt>
      <trkpt lat="40.711682047694921" lon="13.937338655814528">
        <ele>183.75</ele>
        <time>2018-09-24T07:40:59Z</time>
      </trkpt>
      <trkpt lat="40.711597222834826" lon="13.9374731015414">
        <ele>185.66999999999999</ele>
        <time>2018-09-24T07:41:16Z</time>
      </trkpt>
      <trkpt lat="40.711540644988418" lon="13.937592459842563">
        <ele>188.56</ele>
        <time>2018-09-24T07:41:30Z</time>
      </trkpt>
      <trkpt lat="40.711442828178406" lon="13.937661945819855">
        <ele>190.96000000000001</ele>
        <time>2018-09-24T07:41:45Z</time>
      </trkpt>
      <trkpt lat="40.71136336773634" lon="13.937676278874278">
        <ele>192.40000000000001</ele>
        <time>2018-09-24T07:41:54Z</time>
      </trkpt>
      <trkpt lat="40.7113101426512" lon="13.937651636078954">
        <ele>193.84</ele>
        <time>2018-09-24T07:42:07Z</time>
      </trkpt>
      <trkpt lat="40.711304778233171" lon="13.937684828415513">
        <ele>193.84</ele>
        <time>2018-09-24T07:42:13Z</time>
      </trkpt>
      <trkpt lat="40.711282901465893" lon="13.937768312171102">
        <ele>196.25</ele>
        <time>2018-09-24T07:42:23Z</time>
      </trkpt>
      <trkpt lat="40.711352387443185" lon="13.937724977731705">
        <ele>198.65000000000001</ele>
        <time>2018-09-24T07:42:35Z</time>
      </trkpt>
      <trkpt lat="40.711400080472231" lon="13.937753811478615">
        <ele>199.61000000000001</ele>
        <time>2018-09-24T07:42:43Z</time>
      </trkpt>
      <trkpt lat="40.711456490680575" lon="13.937798570841551">
        <ele>200.09</ele>
        <time>2018-09-24T07:42:52Z</time>
      </trkpt>
      <trkpt lat="40.711445258930326" lon="13.937805444002151">
        <ele>200.56999999999999</ele>
        <time>2018-09-24T07:43:00Z</time>
      </trkpt>
      <trkpt lat="40.711431428790092" lon="13.937814245000482">
        <ele>201.05000000000001</ele>
        <time>2018-09-24T07:43:09Z</time>
      </trkpt>
      <trkpt lat="40.711435116827488" lon="13.937839055433869">
        <ele>201.05000000000001</ele>
        <time>2018-09-24T07:43:19Z</time>
      </trkpt>
      <trkpt lat="40.711436038836837" lon="13.937911977991462">
        <ele>201.05000000000001</ele>
        <time>2018-09-24T07:43:29Z</time>
      </trkpt>
      <trkpt lat="40.711453640833497" lon="13.937921281903982">
        <ele>201.05000000000001</ele>
        <time>2018-09-24T07:43:32Z</time>
      </trkpt>
      <trkpt lat="40.711432350799441" lon="13.937805192545056">
        <ele>201.53</ele>
        <time>2018-09-24T07:44:29Z</time>
      </trkpt>
      <trkpt lat="40.711430674418807" lon="13.937847269698977">
        <ele>201.53</ele>
        <time>2018-09-24T07:44:43Z</time>
      </trkpt>
      <trkpt lat="40.711438050493598" lon="13.937824638560414">
        <ele>201.53</ele>
        <time>2018-09-24T07:44:58Z</time>
      </trkpt>
      <trkpt lat="40.71143084205687" lon="13.937814747914672">
        <ele>201.53</ele>
        <time>2018-09-24T07:45:19Z</time>
      </trkpt>
      <trkpt lat="40.711395805701613" lon="13.93778532743454">
        <ele>200.56999999999999</ele>
        <time>2018-09-24T07:45:28Z</time>
      </trkpt>
      <trkpt lat="40.711408546194434" lon="13.937748111784458">
        <ele>200.56999999999999</ele>
        <time>2018-09-24T07:45:40Z</time>
      </trkpt>
      <trkpt lat="40.711421286687255" lon="13.937766468152404">
        <ele>200.56999999999999</ele>
        <time>2018-09-24T07:45:55Z</time>
      </trkpt>
      <trkpt lat="40.711412485688925" lon="13.937771748751402">
        <ele>200.56999999999999</ele>
        <time>2018-09-24T07:46:07Z</time>
      </trkpt>
      <trkpt lat="40.711413742974401" lon="13.937780130654573">
        <ele>200.56999999999999</ele>
        <time>2018-09-24T07:46:28Z</time>
      </trkpt>
      <trkpt lat="40.711426483467221" lon="13.937780046835542">
        <ele>200.56999999999999</ele>
        <time>2018-09-24T07:46:39Z</time>
      </trkpt>
      <trkpt lat="40.711424052715302" lon="13.937781555578113">
        <ele>200.56999999999999</ele>
        <time>2018-09-24T07:46:51Z</time>
      </trkpt>
      <trkpt lat="40.711425980553031" lon="13.937766132876277">
        <ele>201.05000000000001</ele>
        <time>2018-09-24T07:47:04Z</time>
      </trkpt>
      <trkpt lat="40.711415586993098" lon="13.937764456495643">
        <ele>200.56999999999999</ele>
        <time>2018-09-24T07:47:09Z</time>
      </trkpt>
      <trkpt lat="40.711420197039843" lon="13.937727743759751">
        <ele>200.56999999999999</ele>
        <time>2018-09-24T07:47:19Z</time>
      </trkpt>
      <trkpt lat="40.711433021351695" lon="13.937752051278949">
        <ele>201.05000000000001</ele>
        <time>2018-09-24T07:47:30Z</time>
      </trkpt>
      <trkpt lat="40.711419442668557" lon="13.937742915004492">
        <ele>201.05000000000001</ele>
        <time>2018-09-24T07:47:44Z</time>
      </trkpt>
      <trkpt lat="40.711428578943014" lon="13.937745513394475">
        <ele>200.56999999999999</ele>
        <time>2018-09-24T07:47:58Z</time>
      </trkpt>
      <trkpt lat="40.711434110999107" lon="13.937760517001152">
        <ele>200.56999999999999</ele>
        <time>2018-09-24T07:48:15Z</time>
      </trkpt>
      <trkpt lat="40.711499657481909" lon="13.937840228900313">
        <ele>200.56999999999999</ele>
        <time>2018-09-24T07:48:27Z</time>
      </trkpt>
      <trkpt lat="40.711510805413127" lon="13.937863195315003">
        <ele>201.53</ele>
        <time>2018-09-24T07:48:29Z</time>
      </trkpt>
      <trkpt lat="40.711508123204112" lon="13.937919018790126">
        <ele>201.05000000000001</ele>
        <time>2018-09-24T07:48:34Z</time>
      </trkpt>
      <trkpt lat="40.711432853713632" lon="13.938029492273927">
        <ele>202.00999999999999</ele>
        <time>2018-09-24T07:48:46Z</time>
      </trkpt>
      <trkpt lat="40.711303101852536" lon="13.938052877783775">
        <ele>202.49000000000001</ele>
        <time>2018-09-24T07:48:59Z</time>
      </trkpt>
      <trkpt lat="40.7112583424896" lon="13.938046507537365">
        <ele>202.49000000000001</ele>
        <time>2018-09-24T07:49:03Z</time>
      </trkpt>
      <trkpt lat="40.711205368861556" lon="13.938078945502639">
        <ele>202.97999999999999</ele>
        <time>2018-09-24T07:49:14Z</time>
      </trkpt>
      <trkpt lat="40.711170248687267" lon="13.938178438693285">
        <ele>205.38</ele>
        <time>2018-09-24T07:49:26Z</time>
      </trkpt>
      <trkpt lat="40.711153484880924" lon="13.938298216089606">
        <ele>207.30000000000001</ele>
        <time>2018-09-24T07:49:39Z</time>
      </trkpt>
      <trkpt lat="40.711156502366066" lon="13.938337359577417">
        <ele>208.25999999999999</ele>
        <time>2018-09-24T07:49:43Z</time>
      </trkpt>
      <trkpt lat="40.711139235645533" lon="13.938537603244185">
        <ele>210.19</ele>
        <time>2018-09-24T07:49:57Z</time>
      </trkpt>
      <trkpt lat="40.711086010560393" lon="13.938610861077905">
        <ele>212.59</ele>
        <time>2018-09-24T07:50:06Z</time>
      </trkpt>
      <trkpt lat="40.711085507646203" lon="13.938695099204779">
        <ele>212.59</ele>
        <time>2018-09-24T07:50:15Z</time>
      </trkpt>
      <trkpt lat="40.711068827658892" lon="13.938765842467546">
        <ele>212.59</ele>
        <time>2018-09-24T07:50:25Z</time>
      </trkpt>
      <trkpt lat="40.711055165156722" lon="13.938936162739992">
        <ele>214.03</ele>
        <time>2018-09-24T07:50:38Z</time>
      </trkpt>
      <trkpt lat="40.711062205955386" lon="13.939074547961354">
        <ele>214.99000000000001</ele>
        <time>2018-09-24T07:50:49Z</time>
      </trkpt>
      <trkpt lat="40.711024571210146" lon="13.939252831041813">
        <ele>215.47</ele>
        <time>2018-09-24T07:51:01Z</time>
      </trkpt>
      <trkpt lat="40.710995821282268" lon="13.93939733505249">
        <ele>215.94999999999999</ele>
        <time>2018-09-24T07:51:13Z</time>
      </trkpt>
      <trkpt lat="40.71095491759479" lon="13.939552651718259">
        <ele>215.94999999999999</ele>
        <time>2018-09-24T07:51:26Z</time>
      </trkpt>
      <trkpt lat="40.710877468809485" lon="13.939740154892206">
        <ele>215.94999999999999</ele>
        <time>2018-09-24T07:51:41Z</time>
      </trkpt>
      <trkpt lat="40.710830111056566" lon="13.93988398835063">
        <ele>215.94999999999999</ele>
        <time>2018-09-24T07:51:53Z</time>
      </trkpt>
      <trkpt lat="40.710775963962078" lon="13.94001835025847">
        <ele>215.94999999999999</ele>
        <time>2018-09-24T07:52:03Z</time>
      </trkpt>
      <trkpt lat="40.710749560967088" lon="13.940174337476492">
        <ele>215.94999999999999</ele>
        <time>2018-09-24T07:52:15Z</time>
      </trkpt>
      <trkpt lat="40.71070178411901" lon="13.940322445705533">
        <ele>216.43000000000001</ele>
        <time>2018-09-24T07:52:27Z</time>
      </trkpt>
      <trkpt lat="40.710562393069267" lon="13.940337868407369">
        <ele>218.84</ele>
        <time>2018-09-24T07:52:40Z</time>
      </trkpt>
      <trkpt lat="40.710483435541391" lon="13.940260838717222">
        <ele>221.24000000000001</ele>
        <time>2018-09-24T07:52:52Z</time>
      </trkpt>
      <trkpt lat="40.71040716022253" lon="13.940277015790343">
        <ele>222.68000000000001</ele>
        <time>2018-09-24T07:53:03Z</time>
      </trkpt>
      <trkpt lat="40.710349828004837" lon="13.940332839265466">
        <ele>225.09</ele>
        <time>2018-09-24T07:53:15Z</time>
      </trkpt>
      <trkpt lat="40.710307499393821" lon="13.940442726016045">
        <ele>225.56999999999999</ele>
        <time>2018-09-24T07:53:28Z</time>
      </trkpt>
      <trkpt lat="40.710237845778465" lon="13.940567448735237">
        <ele>226.05000000000001</ele>
        <time>2018-09-24T07:53:41Z</time>
      </trkpt>
      <trkpt lat="40.710177663713694" lon="13.940697871148586">
        <ele>227.00999999999999</ele>
        <time>2018-09-24T07:53:54Z</time>
      </trkpt>
      <trkpt lat="40.710116643458605" lon="13.940799124538898">
        <ele>227.97</ele>
        <time>2018-09-24T07:54:05Z</time>
      </trkpt>
      <trkpt lat="40.710025783628225" lon="13.940907837823033">
        <ele>228.44999999999999</ele>
        <time>2018-09-24T07:54:16Z</time>
      </trkpt>
      <trkpt lat="40.709940539672971" lon="13.941008588299155">
        <ele>229.41</ele>
        <time>2018-09-24T07:54:28Z</time>
      </trkpt>
      <trkpt lat="40.709877172484994" lon="13.941083773970604">
        <ele>230.37</ele>
        <time>2018-09-24T07:54:37Z</time>
      </trkpt>
      <trkpt lat="40.709786983206868" lon="13.941099615767598">
        <ele>231.33000000000001</ele>
        <time>2018-09-24T07:54:46Z</time>
      </trkpt>
      <trkpt lat="40.709702745079994" lon="13.941107494756579">
        <ele>233.25999999999999</ele>
        <time>2018-09-24T07:54:56Z</time>
      </trkpt>
      <trkpt lat="40.709688747301698" lon="13.941096849739552">
        <ele>233.74000000000001</ele>
        <time>2018-09-24T07:54:59Z</time>
      </trkpt>
      <trkpt lat="40.709637701511383" lon="13.941098861396313">
        <ele>234.69999999999999</ele>
        <time>2018-09-24T07:55:10Z</time>
      </trkpt>
      <trkpt lat="40.709627224132419" lon="13.941098945215344">
        <ele>235.66</ele>
        <time>2018-09-24T07:55:21Z</time>
      </trkpt>
      <trkpt lat="40.709602748975158" lon="13.941088551655412">
        <ele>236.13999999999999</ele>
        <time>2018-09-24T07:55:34Z</time>
      </trkpt>
      <trkpt lat="40.709635773673654" lon="13.941100956872106">
        <ele>235.66</ele>
        <time>2018-09-24T07:55:48Z</time>
      </trkpt>
      <trkpt lat="40.70962437428534" lon="13.941089054569602">
        <ele>235.66</ele>
        <time>2018-09-24T07:55:59Z</time>
      </trkpt>
      <trkpt lat="40.709603922441602" lon="13.941068686544895">
        <ele>235.66</ele>
        <time>2018-09-24T07:56:19Z</time>
      </trkpt>
      <trkpt lat="40.709615908563137" lon="13.941082935780287">
        <ele>236.13999999999999</ele>
        <time>2018-09-24T07:56:37Z</time>
      </trkpt>
      <trkpt lat="40.709639713168144" lon="13.941097017377615">
        <ele>236.13999999999999</ele>
        <time>2018-09-24T07:56:56Z</time>
      </trkpt>
      <trkpt lat="40.709620853886008" lon="13.941096849739552">
        <ele>235.18000000000001</ele>
        <time>2018-09-24T07:57:05Z</time>
      </trkpt>
      <trkpt lat="40.709610711783171" lon="13.941104393452406">
        <ele>235.18000000000001</ele>
        <time>2018-09-24T07:57:19Z</time>
      </trkpt>
      <trkpt lat="40.709611549973488" lon="13.941105734556913">
        <ele>235.18000000000001</ele>
        <time>2018-09-24T07:57:27Z</time>
      </trkpt>
      <trkpt lat="40.709617920219898" lon="13.941120989620686">
        <ele>236.62</ele>
        <time>2018-09-24T07:57:33Z</time>
      </trkpt>
      <trkpt lat="40.709633510559797" lon="13.941120151430368">
        <ele>236.62</ele>
        <time>2018-09-24T07:57:44Z</time>
      </trkpt>
      <trkpt lat="40.709632840007544" lon="13.941105986014009">
        <ele>236.62</ele>
        <time>2018-09-24T07:57:57Z</time>
      </trkpt>
      <trkpt lat="40.709628313779831" lon="13.941088384017348">
        <ele>236.62</ele>
        <time>2018-09-24T07:58:09Z</time>
      </trkpt>
      <trkpt lat="40.709638874977827" lon="13.941107410937548">
        <ele>236.13999999999999</ele>
        <time>2018-09-24T07:58:19Z</time>
      </trkpt>
      <trkpt lat="40.709639964625239" lon="13.941087126731873">
        <ele>237.09999999999999</ele>
        <time>2018-09-24T07:58:36Z</time>
      </trkpt>
      <trkpt lat="40.709626637399197" lon="13.941118475049734">
        <ele>237.09999999999999</ele>
        <time>2018-09-24T07:58:59Z</time>
      </trkpt>
      <trkpt lat="40.709610460326076" lon="13.941119899973273">
        <ele>237.58000000000001</ele>
        <time>2018-09-24T07:59:18Z</time>
      </trkpt>
      <trkpt lat="40.70959160104394" lon="13.941176813095808">
        <ele>238.06</ele>
        <time>2018-09-24T07:59:30Z</time>
      </trkpt>
      <trkpt lat="40.709524126723409" lon="13.941219393163919">
        <ele>239.02000000000001</ele>
        <time>2018-09-24T07:59:38Z</time>
      </trkpt>
      <trkpt lat="40.709452293813229" lon="13.94128292798996">
        <ele>240.94999999999999</ele>
        <time>2018-09-24T07:59:49Z</time>
      </trkpt>
      <trkpt lat="40.709387250244617" lon="13.941348139196634">
        <ele>242.38999999999999</ele>
        <time>2018-09-24T08:00:00Z</time>
      </trkpt>
      <trkpt lat="40.709337964653969" lon="13.941399855539203">
        <ele>243.83000000000001</ele>
        <time>2018-09-24T08:00:10Z</time>
      </trkpt>
      <trkpt lat="40.709269568324089" lon="13.941430784761906">
        <ele>245.27000000000001</ele>
        <time>2018-09-24T08:00:19Z</time>
      </trkpt>
      <trkpt lat="40.709162950515747" lon="13.941498510539532">
        <ele>247.19999999999999</ele>
        <time>2018-09-24T08:00:30Z</time>
      </trkpt>
      <trkpt lat="40.709052812308073" lon="13.941620299592614">
        <ele>248.63999999999999</ele>
        <time>2018-09-24T08:00:44Z</time>
      </trkpt>
      <trkpt lat="40.708971340209246" lon="13.941680397838354">
        <ele>249.59999999999999</ele>
        <time>2018-09-24T08:00:55Z</time>
      </trkpt>
      <trkpt lat="40.708910655230284" lon="13.941732281818986">
        <ele>251.03999999999999</ele>
        <time>2018-09-24T08:01:03Z</time>
      </trkpt>
      <trkpt lat="40.708850305527449" lon="13.941806294023991">
        <ele>252.47999999999999</ele>
        <time>2018-09-24T08:01:13Z</time>
      </trkpt>
      <trkpt lat="40.708830775693059" lon="13.941840995103121">
        <ele>252.47999999999999</ele>
        <time>2018-09-24T08:01:17Z</time>
      </trkpt>
      <trkpt lat="40.70876095443964" lon="13.941991534084082">
        <ele>253.93000000000001</ele>
        <time>2018-09-24T08:01:31Z</time>
      </trkpt>
      <trkpt lat="40.708738658577204" lon="13.942110054194927">
        <ele>254.41</ele>
        <time>2018-09-24T08:01:43Z</time>
      </trkpt>
      <trkpt lat="40.70866372436285" lon="13.942239806056023">
        <ele>254.88999999999999</ele>
        <time>2018-09-24T08:01:56Z</time>
      </trkpt>
      <trkpt lat="40.708590717986226" lon="13.942307531833649">
        <ele>256.32999999999998</ele>
        <time>2018-09-24T08:02:06Z</time>
      </trkpt>
      <trkpt lat="40.708552496507764" lon="13.942378861829638">
        <ele>257.29000000000002</ele>
        <time>2018-09-24T08:02:15Z</time>
      </trkpt>
      <trkpt lat="40.708486111834645" lon="13.942450191825628">
        <ele>259.20999999999998</ele>
        <time>2018-09-24T08:02:25Z</time>
      </trkpt>
      <trkpt lat="40.708475299179554" lon="13.942432841286063">
        <ele>260.17000000000002</ele>
        <time>2018-09-24T08:02:35Z</time>
      </trkpt>
      <trkpt lat="40.708457445725799" lon="13.942406186833978">
        <ele>260.17000000000002</ele>
        <time>2018-09-24T08:02:58Z</time>
      </trkpt>
      <trkpt lat="40.708443531766534" lon="13.942361511290073">
        <ele>260.17000000000002</ele>
        <time>2018-09-24T08:03:25Z</time>
      </trkpt>
      <trkpt lat="40.708374548703432" lon="13.94237207248807">
        <ele>260.64999999999998</ele>
        <time>2018-09-24T08:03:39Z</time>
      </trkpt>
      <trkpt lat="40.708342446014285" lon="13.942466452717781">
        <ele>260.64999999999998</ele>
        <time>2018-09-24T08:03:51Z</time>
      </trkpt>
      <trkpt lat="40.708329705521464" lon="13.942525126039982">
        <ele>261.62</ele>
        <time>2018-09-24T08:04:04Z</time>
      </trkpt>
      <trkpt lat="40.708322999998927" lon="13.94252747297287">
        <ele>261.13999999999999</ele>
        <time>2018-09-24T08:04:16Z</time>
      </trkpt>
      <trkpt lat="40.708319311961532" lon="13.942516827955842">
        <ele>262.10000000000002</ele>
        <time>2018-09-24T08:04:38Z</time>
      </trkpt>
      <trkpt lat="40.7083451282233" lon="13.942537866532803">
        <ele>261.62</ele>
        <time>2018-09-24T08:04:54Z</time>
      </trkpt>
      <trkpt lat="40.708338338881731" lon="13.94257633946836">
        <ele>261.62</ele>
        <time>2018-09-24T08:05:04Z</time>
      </trkpt>
      <trkpt lat="40.708324257284403" lon="13.942651944234967">
        <ele>262.10000000000002</ele>
        <time>2018-09-24T08:05:14Z</time>
      </trkpt>
      <trkpt lat="40.708347223699093" lon="13.942741714417934">
        <ele>261.62</ele>
        <time>2018-09-24T08:05:25Z</time>
      </trkpt>
      <trkpt lat="40.708359042182565" lon="13.942803824320436">
        <ele>262.10000000000002</ele>
        <time>2018-09-24T08:05:29Z</time>
      </trkpt>
      <trkpt lat="40.708355437964201" lon="13.942896528169513">
        <ele>262.10000000000002</ele>
        <time>2018-09-24T08:05:35Z</time>
      </trkpt>
      <trkpt lat="40.708317719399929" lon="13.942927373573184">
        <ele>262.57999999999998</ele>
        <time>2018-09-24T08:05:44Z</time>
      </trkpt>
      <trkpt lat="40.708321742713451" lon="13.942965846508741">
        <ele>263.54000000000002</ele>
        <time>2018-09-24T08:05:55Z</time>
      </trkpt>
      <trkpt lat="40.708325933665037" lon="13.942968109622598">
        <ele>263.54000000000002</ele>
        <time>2018-09-24T08:06:03Z</time>
      </trkpt>
      <trkpt lat="40.708338925614953" lon="13.943002643063664">
        <ele>263.54000000000002</ele>
        <time>2018-09-24T08:06:14Z</time>
      </trkpt>
      <trkpt lat="40.70833146572113" lon="13.943022675812244">
        <ele>263.06</ele>
        <time>2018-09-24T08:06:25Z</time>
      </trkpt>
      <trkpt lat="40.708324508741498" lon="13.943032566457987">
        <ele>263.06</ele>
        <time>2018-09-24T08:06:41Z</time>
      </trkpt>
      <trkpt lat="40.708314953371882" lon="13.943031812086701">
        <ele>263.54000000000002</ele>
        <time>2018-09-24T08:06:58Z</time>
      </trkpt>
      <trkpt lat="40.708322748541832" lon="13.943094927817583">
        <ele>264.01999999999998</ele>
        <time>2018-09-24T08:07:11Z</time>
      </trkpt>
      <trkpt lat="40.70832802914083" lon="13.943162653595209">
        <ele>264.98000000000002</ele>
        <time>2018-09-24T08:07:22Z</time>
      </trkpt>
      <trkpt lat="40.708333728834987" lon="13.943175477907062">
        <ele>264.98000000000002</ele>
        <time>2018-09-24T08:07:38Z</time>
      </trkpt>
      <trkpt lat="40.708335656672716" lon="13.943157875910401">
        <ele>264.5</ele>
        <time>2018-09-24T08:07:43Z</time>
      </trkpt>
      <trkpt lat="40.708329370245337" lon="13.943036170676351">
        <ele>263.54000000000002</ele>
        <time>2018-09-24T08:07:55Z</time>
      </trkpt>
      <trkpt lat="40.708320317789912" lon="13.94301756285131">
        <ele>263.06</ele>
        <time>2018-09-24T08:08:06Z</time>
      </trkpt>
      <trkpt lat="40.708307325839996" lon="13.943036254495382">
        <ele>263.06</ele>
        <time>2018-09-24T08:08:25Z</time>
      </trkpt>
      <trkpt lat="40.708302883431315" lon="13.943042792379856">
        <ele>263.06</ele>
        <time>2018-09-24T08:08:39Z</time>
      </trkpt>
      <trkpt lat="40.708323586732149" lon="13.943118816241622">
        <ele>264.01999999999998</ele>
        <time>2018-09-24T08:08:51Z</time>
      </trkpt>
      <trkpt lat="40.708325430750847" lon="13.94321646541357">
        <ele>264.98000000000002</ele>
        <time>2018-09-24T08:09:02Z</time>
      </trkpt>
      <trkpt lat="40.708313444629312" lon="13.943304643034935">
        <ele>266.42000000000002</ele>
        <time>2018-09-24T08:09:12Z</time>
      </trkpt>
      <trkpt lat="40.708313276991248" lon="13.943314282223582">
        <ele>266.42000000000002</ele>
        <time>2018-09-24T08:09:13Z</time>
      </trkpt>
      <trkpt lat="40.708282431587577" lon="13.943458450958133">
        <ele>267.38</ele>
        <time>2018-09-24T08:09:26Z</time>
      </trkpt>
      <trkpt lat="40.708269355818629" lon="13.943490302190185">
        <ele>268.82999999999998</ele>
        <time>2018-09-24T08:09:34Z</time>
      </trkpt>
      <trkpt lat="40.708280839025974" lon="13.943539671599865">
        <ele>268.82999999999998</ele>
        <time>2018-09-24T08:09:48Z</time>
      </trkpt>
      <trkpt lat="40.708287041634321" lon="13.943658694624901">
        <ele>269.79000000000002</ele>
        <time>2018-09-24T08:09:58Z</time>
      </trkpt>
      <trkpt lat="40.708304140716791" lon="13.943714937195182">
        <ele>271.23000000000002</ele>
        <time>2018-09-24T08:10:08Z</time>
      </trkpt>
      <trkpt lat="40.708322329446673" lon="13.943743268027902">
        <ele>271.70999999999998</ele>
        <time>2018-09-24T08:10:18Z</time>
      </trkpt>
      <trkpt lat="40.70834755897522" lon="13.943798504769802">
        <ele>272.19</ele>
        <time>2018-09-24T08:10:31Z</time>
      </trkpt>
      <trkpt lat="40.708317467942834" lon="13.943891962990165">
        <ele>274.58999999999997</ele>
        <time>2018-09-24T08:10:43Z</time>
      </trkpt>
      <trkpt lat="40.70835635997355" lon="13.943942002952099">
        <ele>276.04000000000002</ele>
        <time>2018-09-24T08:10:55Z</time>
      </trkpt>
      <trkpt lat="40.708347642794251" lon="13.9439816493541">
        <ele>277.48000000000002</ele>
        <time>2018-09-24T08:11:06Z</time>
      </trkpt>
      <trkpt lat="40.708341859281063" lon="13.944015009328723">
        <ele>278.44</ele>
        <time>2018-09-24T08:11:19Z</time>
      </trkpt>
      <trkpt lat="40.708340099081397" lon="13.944057086482644">
        <ele>280.36000000000001</ele>
        <time>2018-09-24T08:11:32Z</time>
      </trkpt>
      <trkpt lat="40.708329034969211" lon="13.944106958806515">
        <ele>281.80000000000001</ele>
        <time>2018-09-24T08:11:43Z</time>
      </trkpt>
      <trkpt lat="40.70833045989275" lon="13.94417560659349">
        <ele>284.69</ele>
        <time>2018-09-24T08:11:58Z</time>
      </trkpt>
      <trkpt lat="40.708305817097425" lon="13.944200333207846">
        <ele>287.08999999999997</ele>
        <time>2018-09-24T08:12:13Z</time>
      </trkpt>
      <trkpt lat="40.708290813490748" lon="13.944212151691318">
        <ele>286.61000000000001</ele>
        <time>2018-09-24T08:12:28Z</time>
      </trkpt>
      <trkpt lat="40.708278408274055" lon="13.944215169176459">
        <ele>287.08999999999997</ele>
        <time>2018-09-24T08:12:41Z</time>
      </trkpt>
      <trkpt lat="40.708256615325809" lon="13.944211313501">
        <ele>288.52999999999997</ele>
        <time>2018-09-24T08:12:53Z</time>
      </trkpt>
      <trkpt lat="40.708235241472721" lon="13.944240817800164">
        <ele>291.89999999999998</ele>
        <time>2018-09-24T08:13:06Z</time>
      </trkpt>
      <trkpt lat="40.708237672224641" lon="13.944248864427209">
        <ele>291.42000000000002</ele>
        <time>2018-09-24T08:13:07Z</time>
      </trkpt>
      <trkpt lat="40.708262231200933" lon="13.944269400089979">
        <ele>292.38</ele>
        <time>2018-09-24T08:13:17Z</time>
      </trkpt>
      <trkpt lat="40.708248317241669" lon="13.944255905225873">
        <ele>292.86000000000001</ele>
        <time>2018-09-24T08:13:27Z</time>
      </trkpt>
      <trkpt lat="40.70826206356287" lon="13.94424157217145">
        <ele>291.89999999999998</ele>
        <time>2018-09-24T08:13:40Z</time>
      </trkpt>
      <trkpt lat="40.708265081048012" lon="13.944291276857257">
        <ele>294.30000000000001</ele>
        <time>2018-09-24T08:13:54Z</time>
      </trkpt>
      <trkpt lat="40.708226105198264" lon="13.944335365667939">
        <ele>297.67000000000002</ele>
        <time>2018-09-24T08:14:08Z</time>
      </trkpt>
      <trkpt lat="40.708208587020636" lon="13.944320613518357">
        <ele>298.63</ele>
        <time>2018-09-24T08:14:18Z</time>
      </trkpt>
      <trkpt lat="40.708202552050352" lon="13.944317260757089">
        <ele>300.06999999999999</ele>
        <time>2018-09-24T08:14:27Z</time>
      </trkpt>
      <trkpt lat="40.708169024437666" lon="13.944334611296654">
        <ele>301.99000000000001</ele>
        <time>2018-09-24T08:14:36Z</time>
      </trkpt>
      <trkpt lat="40.708155110478401" lon="13.944366630166769">
        <ele>303.43000000000001</ele>
        <time>2018-09-24T08:14:45Z</time>
      </trkpt>
      <trkpt lat="40.708130300045013" lon="13.944451455026865">
        <ele>303.43000000000001</ele>
        <time>2018-09-24T08:14:57Z</time>
      </trkpt>
      <trkpt lat="40.708103897050023" lon="13.944517504423857">
        <ele>304.88</ele>
        <time>2018-09-24T08:15:09Z</time>
      </trkpt>
      <trkpt lat="40.708095263689756" lon="13.944576848298311">
        <ele>305.36000000000001</ele>
        <time>2018-09-24T08:15:19Z</time>
      </trkpt>
      <trkpt lat="40.70808763615787" lon="13.944603754207492">
        <ele>306.31999999999999</ele>
        <time>2018-09-24T08:15:22Z</time>
      </trkpt>
      <trkpt lat="40.708050755783916" lon="13.944672653451562">
        <ele>306.80000000000001</ele>
        <time>2018-09-24T08:15:32Z</time>
      </trkpt>
      <trkpt lat="40.708036674186587" lon="13.944715736433864">
        <ele>307.75999999999999</ele>
        <time>2018-09-24T08:15:43Z</time>
      </trkpt>
      <trkpt lat="40.708030387759209" lon="13.944738954305649">
        <ele>308.24000000000001</ele>
        <time>2018-09-24T08:15:53Z</time>
      </trkpt>
      <trkpt lat="40.708037260919809" lon="13.944793688133359">
        <ele>310.16000000000003</ele>
        <time>2018-09-24T08:16:03Z</time>
      </trkpt>
      <trkpt lat="40.708020078018308" lon="13.944865688681602">
        <ele>311.60000000000002</ele>
        <time>2018-09-24T08:16:15Z</time>
      </trkpt>
      <trkpt lat="40.707997865974903" lon="13.944914387539029">
        <ele>313.05000000000001</ele>
        <time>2018-09-24T08:16:25Z</time>
      </trkpt>
      <trkpt lat="40.707972720265388" lon="13.944975743070245">
        <ele>314.49000000000001</ele>
        <time>2018-09-24T08:16:36Z</time>
      </trkpt>
      <trkpt lat="40.707958471029997" lon="13.945020670071244">
        <ele>314.97000000000003</ele>
        <time>2018-09-24T08:16:45Z</time>
      </trkpt>
      <trkpt lat="40.70794740691781" lon="13.94505612552166">
        <ele>315.44999999999999</ele>
        <time>2018-09-24T08:16:54Z</time>
      </trkpt>
      <trkpt lat="40.707934331148863" lon="13.945086887106299">
        <ele>316.41000000000003</ele>
        <time>2018-09-24T08:17:04Z</time>
      </trkpt>
      <trkpt lat="40.707905329763889" lon="13.94511672668159">
        <ele>317.85000000000002</ele>
        <time>2018-09-24T08:17:15Z</time>
      </trkpt>
      <trkpt lat="40.707862917333841" lon="13.945181015878916">
        <ele>320.25999999999999</ele>
        <time>2018-09-24T08:17:27Z</time>
      </trkpt>
      <trkpt lat="40.707865599542856" lon="13.945195181295276">
        <ele>320.74000000000001</ele>
        <time>2018-09-24T08:17:39Z</time>
      </trkpt>
      <trkpt lat="40.707850176841021" lon="13.945235917344689">
        <ele>321.69999999999999</ele>
        <time>2018-09-24T08:17:52Z</time>
      </trkpt>
      <trkpt lat="40.707832407206297" lon="13.945250920951366">
        <ele>322.18000000000001</ele>
        <time>2018-09-24T08:18:04Z</time>
      </trkpt>
      <trkpt lat="40.707813128829002" lon="13.945265337824821">
        <ele>323.62</ele>
        <time>2018-09-24T08:18:17Z</time>
      </trkpt>
      <trkpt lat="40.707790413871408" lon="13.945271959528327">
        <ele>325.06</ele>
        <time>2018-09-24T08:18:22Z</time>
      </trkpt>
      <trkpt lat="40.707781780511141" lon="13.945303056389093">
        <ele>326.5</ele>
        <time>2018-09-24T08:18:30Z</time>
      </trkpt>
      <trkpt lat="40.707746744155884" lon="13.945334991440177">
        <ele>329.38999999999999</ele>
        <time>2018-09-24T08:18:41Z</time>
      </trkpt>
      <trkpt lat="40.707724196836352" lon="13.945358712226152">
        <ele>330.82999999999998</ele>
        <time>2018-09-24T08:18:50Z</time>
      </trkpt>
      <trkpt lat="40.707705589011312" lon="13.945395676419139">
        <ele>332.75</ele>
        <time>2018-09-24T08:18:59Z</time>
      </trkpt>
      <trkpt lat="40.707683628425002" lon="13.945431131869555">
        <ele>335.16000000000003</ele>
        <time>2018-09-24T08:19:09Z</time>
      </trkpt>
      <trkpt lat="40.707662254571915" lon="13.945484524592757">
        <ele>335.63999999999999</ele>
        <time>2018-09-24T08:19:18Z</time>
      </trkpt>
      <trkpt lat="40.707635600119829" lon="13.945510173216462">
        <ele>336.60000000000002</ele>
        <time>2018-09-24T08:19:26Z</time>
      </trkpt>
      <trkpt lat="40.707630570977926" lon="13.945497684180737">
        <ele>336.12</ele>
        <time>2018-09-24T08:19:46Z</time>
      </trkpt>
      <trkpt lat="40.707667786628008" lon="13.94547438248992">
        <ele>336.12</ele>
        <time>2018-09-24T08:19:55Z</time>
      </trkpt>
      <trkpt lat="40.707671726122499" lon="13.945470275357366">
        <ele>336.60000000000002</ele>
        <time>2018-09-24T08:20:08Z</time>
      </trkpt>
      <trkpt lat="40.707668289542198" lon="13.945470694452524">
        <ele>336.60000000000002</ele>
        <time>2018-09-24T08:20:22Z</time>
      </trkpt>
      <trkpt lat="40.707672480493784" lon="13.945440435782075">
        <ele>336.60000000000002</ele>
        <time>2018-09-24T08:20:32Z</time>
      </trkpt>
      <trkpt lat="40.707670385017991" lon="13.945440938696265">
        <ele>336.12</ele>
        <time>2018-09-24T08:20:51Z</time>
      </trkpt>
      <trkpt lat="40.707676252350211" lon="13.94544068723917">
        <ele>336.60000000000002</ele>
        <time>2018-09-24T08:21:11Z</time>
      </trkpt>
      <trkpt lat="40.707704164087772" lon="13.945419229567051">
        <ele>337.07999999999998</ele>
        <time>2018-09-24T08:21:23Z</time>
      </trkpt>
      <trkpt lat="40.707726627588272" lon="13.945402633398771">
        <ele>337.56</ele>
        <time>2018-09-24T08:21:30Z</time>
      </trkpt>
      <trkpt lat="40.707743726670742" lon="13.945385701954365">
        <ele>337.07999999999998</ele>
        <time>2018-09-24T08:21:32Z</time>
      </trkpt>
      <trkpt lat="40.707794353365898" lon="13.945357035845518">
        <ele>336.60000000000002</ele>
        <time>2018-09-24T08:21:41Z</time>
      </trkpt>
      <trkpt lat="40.707814721390605" lon="13.945337757468224">
        <ele>337.56</ele>
        <time>2018-09-24T08:21:46Z</time>
      </trkpt>
      <trkpt lat="40.707839280366898" lon="13.945323256775737">
        <ele>337.56</ele>
        <time>2018-09-24T08:21:54Z</time>
      </trkpt>
      <trkpt lat="40.707837101072073" lon="13.945332476869226">
        <ele>337.56</ele>
        <time>2018-09-24T08:22:09Z</time>
      </trkpt>
      <trkpt lat="40.707837268710136" lon="13.945337003096938">
        <ele>337.56</ele>
        <time>2018-09-24T08:22:27Z</time>
      </trkpt>
      <trkpt lat="40.707833915948868" lon="13.945368267595768">
        <ele>337.07999999999998</ele>
        <time>2018-09-24T08:22:46Z</time>
      </trkpt>
      <trkpt lat="40.707821175456047" lon="13.945356868207455">
        <ele>337.07999999999998</ele>
        <time>2018-09-24T08:22:58Z</time>
      </trkpt>
      <trkpt lat="40.707818493247032" lon="13.945361729711294">
        <ele>337.07999999999998</ele>
        <time>2018-09-24T08:23:16Z</time>
      </trkpt>
      <trkpt lat="40.707816565409303" lon="13.945369692519307">
        <ele>337.56</ele>
        <time>2018-09-24T08:23:29Z</time>
      </trkpt>
      <trkpt lat="40.707814302295446" lon="13.945356197655201">
        <ele>337.07999999999998</ele>
        <time>2018-09-24T08:23:41Z</time>
      </trkpt>
      <trkpt lat="40.707772392779589" lon="13.945380505174398">
        <ele>336.60000000000002</ele>
        <time>2018-09-24T08:23:53Z</time>
      </trkpt>
      <trkpt lat="40.707727214321494" lon="13.9454235881567">
        <ele>337.56</ele>
        <time>2018-09-24T08:24:04Z</time>
      </trkpt>
      <trkpt lat="40.70770894177258" lon="13.945479830726981">
        <ele>337.56</ele>
        <time>2018-09-24T08:24:15Z</time>
      </trkpt>
      <trkpt lat="40.707687232643366" lon="13.945538839325309">
        <ele>339.95999999999998</ele>
        <time>2018-09-24T08:24:31Z</time>
      </trkpt>
      <trkpt lat="40.707725370302796" lon="13.945513861253858">
        <ele>342.37</ele>
        <time>2018-09-24T08:24:43Z</time>
      </trkpt>
      <trkpt lat="40.707791084423661" lon="13.945487374439836">
        <ele>344.76999999999998</ele>
        <time>2018-09-24T08:24:56Z</time>
      </trkpt>
      <trkpt lat="40.707852356135845" lon="13.945478154346347">
        <ele>345.73000000000002</ele>
        <time>2018-09-24T08:25:06Z</time>
      </trkpt>
      <trkpt lat="40.707933576777577" lon="13.945471029728651">
        <ele>345.73000000000002</ele>
        <time>2018-09-24T08:25:16Z</time>
      </trkpt>
      <trkpt lat="40.708036506548524" lon="13.945456948131323">
        <ele>346.20999999999998</ele>
        <time>2018-09-24T08:25:26Z</time>
      </trkpt>
      <trkpt lat="40.708160726353526" lon="13.945450996980071">
        <ele>345.25</ele>
        <time>2018-09-24T08:25:39Z</time>
      </trkpt>
      <trkpt lat="40.708289053291082" lon="13.945471784099936">
        <ele>344.76999999999998</ele>
        <time>2018-09-24T08:25:52Z</time>
      </trkpt>
      <trkpt lat="40.70833289064467" lon="13.945469940081239">
        <ele>345.25</ele>
        <time>2018-09-24T08:26:01Z</time>
      </trkpt>
      <trkpt lat="40.708404053002596" lon="13.945471281185746">
        <ele>345.73000000000002</ele>
        <time>2018-09-24T08:26:09Z</time>
      </trkpt>
      <trkpt lat="40.708506312221289" lon="13.945442195981741">
        <ele>345.25</ele>
        <time>2018-09-24T08:26:21Z</time>
      </trkpt>
      <trkpt lat="40.708559537306428" lon="13.94545728340745">
        <ele>344.76999999999998</ele>
        <time>2018-09-24T08:26:31Z</time>
      </trkpt>
      <trkpt lat="40.708608403801918" lon="13.945539426058531">
        <ele>344.29000000000002</ele>
        <time>2018-09-24T08:26:42Z</time>
      </trkpt>
      <trkpt lat="40.708605805411935" lon="13.945616623386741">
        <ele>345.73000000000002</ele>
        <time>2018-09-24T08:26:51Z</time>
      </trkpt>
      <trkpt lat="40.708605889230967" lon="13.945713602006435">
        <ele>347.64999999999998</ele>
        <time>2018-09-24T08:27:02Z</time>
      </trkpt>
      <trkpt lat="40.708607146516442" lon="13.945808652788401">
        <ele>349.10000000000002</ele>
        <time>2018-09-24T08:27:12Z</time>
      </trkpt>
      <trkpt lat="40.708625838160515" lon="13.94589364528656">
        <ele>350.06</ele>
        <time>2018-09-24T08:27:23Z</time>
      </trkpt>
      <trkpt lat="40.708619970828295" lon="13.945948127657175">
        <ele>350.06</ele>
        <time>2018-09-24T08:27:34Z</time>
      </trkpt>
      <trkpt lat="40.70862952619791" lon="13.94596598111093">
        <ele>352.45999999999998</ele>
        <time>2018-09-24T08:27:40Z</time>
      </trkpt>
      <trkpt lat="40.708641428500414" lon="13.945991965010762">
        <ele>352.45999999999998</ele>
        <time>2018-09-24T08:27:52Z</time>
      </trkpt>
      <trkpt lat="40.708666993305087" lon="13.94600604660809">
        <ele>351.5</ele>
        <time>2018-09-24T08:28:06Z</time>
      </trkpt>
      <trkpt lat="40.70866908878088" lon="13.946022558957338">
        <ele>351.5</ele>
        <time>2018-09-24T08:28:19Z</time>
      </trkpt>
      <trkpt lat="40.708679901435971" lon="13.946039071306586">
        <ele>351.01999999999998</ele>
        <time>2018-09-24T08:28:31Z</time>
      </trkpt>
      <trkpt lat="40.708684176206589" lon="13.946039658039808">
        <ele>351.01999999999998</ele>
        <time>2018-09-24T08:28:38Z</time>
      </trkpt>
      <trkpt lat="40.708759361878037" lon="13.946173265576363">
        <ele>351.5</ele>
        <time>2018-09-24T08:28:52Z</time>
      </trkpt>
      <trkpt lat="40.708883916959167" lon="13.946316177025437">
        <ele>352.45999999999998</ele>
        <time>2018-09-24T08:29:09Z</time>
      </trkpt>
      <trkpt lat="40.708984835073352" lon="13.946417011320591">
        <ele>352.94</ele>
        <time>2018-09-24T08:29:22Z</time>
      </trkpt>
      <trkpt lat="40.709063876420259" lon="13.946500830352306">
        <ele>353.42000000000002</ele>
        <time>2018-09-24T08:29:32Z</time>
      </trkpt>
      <trkpt lat="40.7091792114079" lon="13.946552546694875">
        <ele>353.89999999999998</ele>
        <time>2018-09-24T08:29:46Z</time>
      </trkpt>
      <trkpt lat="40.709332264959812" lon="13.946611387655139">
        <ele>354.86000000000001</ele>
        <time>2018-09-24T08:30:00Z</time>
      </trkpt>
      <trkpt lat="40.709436787292361" lon="13.946705181151628">
        <ele>355.33999999999997</ele>
        <time>2018-09-24T08:30:14Z</time>
      </trkpt>
      <trkpt lat="40.709487246349454" lon="13.946765782311559">
        <ele>355.82999999999998</ele>
        <time>2018-09-24T08:30:21Z</time>
      </trkpt>
      <trkpt lat="40.709572490304708" lon="13.946860749274492">
        <ele>356.31</ele>
        <time>2018-09-24T08:30:34Z</time>
      </trkpt>
      <trkpt lat="40.709556061774492" lon="13.946904167532921">
        <ele>355.82999999999998</ele>
        <time>2018-09-24T08:30:44Z</time>
      </trkpt>
      <trkpt lat="40.709542315453291" lon="13.946935683488846">
        <ele>355.82999999999998</ele>
        <time>2018-09-24T08:30:53Z</time>
      </trkpt>
      <trkpt lat="40.709546087309718" lon="13.94690265879035">
        <ele>355.33999999999997</ele>
        <time>2018-09-24T08:31:05Z</time>
      </trkpt>
      <trkpt lat="40.709549188613892" lon="13.946891091763973">
        <ele>355.82999999999998</ele>
        <time>2018-09-24T08:31:07Z</time>
      </trkpt>
      <trkpt lat="40.709587410092354" lon="13.946901317685843">
        <ele>355.33999999999997</ele>
        <time>2018-09-24T08:31:18Z</time>
      </trkpt>
      <trkpt lat="40.709579112008214" lon="13.946902742609382">
        <ele>355.82999999999998</ele>
        <time>2018-09-24T08:31:35Z</time>
      </trkpt>
      <trkpt lat="40.709622446447611" lon="13.94695739261806">
        <ele>355.33999999999997</ele>
        <time>2018-09-24T08:31:51Z</time>
      </trkpt>
      <trkpt lat="40.709597887471318" lon="13.946955883875489">
        <ele>355.33999999999997</ele>
        <time>2018-09-24T08:32:09Z</time>
      </trkpt>
      <trkpt lat="40.709639880806208" lon="13.946993015706539">
        <ele>355.82999999999998</ele>
        <time>2018-09-24T08:32:17Z</time>
      </trkpt>
      <trkpt lat="40.709714982658625" lon="13.947051940485835">
        <ele>355.82999999999998</ele>
        <time>2018-09-24T08:32:26Z</time>
      </trkpt>
      <trkpt lat="40.709790587425232" lon="13.947138106450438">
        <ele>354.38</ele>
        <time>2018-09-24T08:32:39Z</time>
      </trkpt>
      <trkpt lat="40.709798717871308" lon="13.947160821408033">
        <ele>354.38</ele>
        <time>2018-09-24T08:32:59Z</time>
      </trkpt>
      <trkpt lat="40.709827886894345" lon="13.947182362899184">
        <ele>354.38</ele>
        <time>2018-09-24T08:33:12Z</time>
      </trkpt>
      <trkpt lat="40.709866276010871" lon="13.947195019572973">
        <ele>354.86000000000001</ele>
        <time>2018-09-24T08:33:22Z</time>
      </trkpt>
      <trkpt lat="40.709934085607529" lon="13.947227038443089">
        <ele>354.86000000000001</ele>
        <time>2018-09-24T08:33:32Z</time>
      </trkpt>
      <trkpt lat="40.709944479167461" lon="13.947236258536577">
        <ele>353.42000000000002</ele>
        <time>2018-09-24T08:33:34Z</time>
      </trkpt>
      <trkpt lat="40.710020419210196" lon="13.947332818061113">
        <ele>351.5</ele>
        <time>2018-09-24T08:33:45Z</time>
      </trkpt>
      <trkpt lat="40.710085462778807" lon="13.947447147220373">
        <ele>351.01999999999998</ele>
        <time>2018-09-24T08:33:56Z</time>
      </trkpt>
      <trkpt lat="40.710140783339739" lon="13.947595842182636">
        <ele>351.01999999999998</ele>
        <time>2018-09-24T08:34:09Z</time>
      </trkpt>
      <trkpt lat="40.710129803046584" lon="13.947706650942564">
        <ele>349.10000000000002</ele>
        <time>2018-09-24T08:34:21Z</time>
      </trkpt>
      <trkpt lat="40.710144555196166" lon="13.94777923822403">
        <ele>348.62</ele>
        <time>2018-09-24T08:34:32Z</time>
      </trkpt>
      <trkpt lat="40.710178166627884" lon="13.947840761393309">
        <ele>347.64999999999998</ele>
        <time>2018-09-24T08:34:41Z</time>
      </trkpt>
      <trkpt lat="40.710161235183477" lon="13.947822824120522">
        <ele>346.69</ele>
        <time>2018-09-24T08:35:02Z</time>
      </trkpt>
      <trkpt lat="40.710158804431558" lon="13.947827517986298">
        <ele>347.17000000000002</ele>
        <time>2018-09-24T08:35:14Z</time>
      </trkpt>
      <trkpt lat="40.71016039699316" lon="13.947816286236048">
        <ele>347.64999999999998</ele>
        <time>2018-09-24T08:35:23Z</time>
      </trkpt>
      <trkpt lat="40.710183950141072" lon="13.947839001193643">
        <ele>348.62</ele>
        <time>2018-09-24T08:35:29Z</time>
      </trkpt>
      <trkpt lat="40.710181351751089" lon="13.947822907939553">
        <ele>348.13</ele>
        <time>2018-09-24T08:35:40Z</time>
      </trkpt>
      <trkpt lat="40.710178837180138" lon="13.947826512157917">
        <ele>348.13</ele>
        <time>2018-09-24T08:35:51Z</time>
      </trkpt>
      <trkpt lat="40.71018235757947" lon="13.947846796363592">
        <ele>348.62</ele>
        <time>2018-09-24T08:36:04Z</time>
      </trkpt>
      <trkpt lat="40.710184033960104" lon="13.947848891839385">
        <ele>348.13</ele>
        <time>2018-09-24T08:36:14Z</time>
      </trkpt>
      <trkpt lat="40.710189314559102" lon="13.947857692837715">
        <ele>348.62</ele>
        <time>2018-09-24T08:36:31Z</time>
      </trkpt>
      <trkpt lat="40.71018629707396" lon="13.947866829112172">
        <ele>349.10000000000002</ele>
        <time>2018-09-24T08:36:43Z</time>
      </trkpt>
      <trkpt lat="40.710193086415529" lon="13.947862554341555">
        <ele>348.62</ele>
        <time>2018-09-24T08:36:56Z</time>
      </trkpt>
      <trkpt lat="40.71022342890501" lon="13.947864482179284">
        <ele>348.62</ele>
        <time>2018-09-24T08:37:16Z</time>
      </trkpt>
      <trkpt lat="40.710305152460933" lon="13.947973111644387">
        <ele>347.64999999999998</ele>
        <time>2018-09-24T08:37:29Z</time>
      </trkpt>
      <trkpt lat="40.710376398637891" lon="13.948004711419344">
        <ele>348.13</ele>
        <time>2018-09-24T08:37:38Z</time>
      </trkpt>
      <trkpt lat="40.710421493276954" lon="13.948044944554567">
        <ele>349.10000000000002</ele>
        <time>2018-09-24T08:37:52Z</time>
      </trkpt>
      <trkpt lat="40.710477735847235" lon="13.948068749159575">
        <ele>350.06</ele>
        <time>2018-09-24T08:38:00Z</time>
      </trkpt>
      <trkpt lat="40.71055619046092" lon="13.948162961751223">
        <ele>351.5</ele>
        <time>2018-09-24T08:38:11Z</time>
      </trkpt>
      <trkpt lat="40.710642021149397" lon="13.948248038068414">
        <ele>352.94</ele>
        <time>2018-09-24T08:38:23Z</time>
      </trkpt>
      <trkpt lat="40.710689797997475" lon="13.948335293680429">
        <ele>353.42000000000002</ele>
        <time>2018-09-24T08:38:32Z</time>
      </trkpt>
      <trkpt lat="40.710752494633198" lon="13.948453646153212">
        <ele>353.42000000000002</ele>
        <time>2018-09-24T08:38:46Z</time>
      </trkpt>
      <trkpt lat="40.710771940648556" lon="13.948475103825331">
        <ele>353.42000000000002</ele>
        <time>2018-09-24T08:38:56Z</time>
      </trkpt>
      <trkpt lat="40.710773114115" lon="13.948474768549204">
        <ele>353.42000000000002</ele>
        <time>2018-09-24T08:39:14Z</time>
      </trkpt>
      <trkpt lat="40.710788369178772" lon="13.948471583425999">
        <ele>353.42000000000002</ele>
        <time>2018-09-24T08:39:21Z</time>
      </trkpt>
      <trkpt lat="40.71093094535172" lon="13.948430176824331">
        <ele>353.42000000000002</ele>
        <time>2018-09-24T08:39:36Z</time>
      </trkpt>
      <trkpt lat="40.711044687777758" lon="13.948373682796955">
        <ele>352.45999999999998</ele>
        <time>2018-09-24T08:39:50Z</time>
      </trkpt>
      <trkpt lat="40.711179887875915" lon="13.948345184326172">
        <ele>354.86000000000001</ele>
        <time>2018-09-24T08:40:03Z</time>
      </trkpt>
      <trkpt lat="40.711287343874574" lon="13.948269411921501">
        <ele>355.33999999999997</ele>
        <time>2018-09-24T08:40:16Z</time>
      </trkpt>
      <trkpt lat="40.711306119337678" lon="13.948242422193289">
        <ele>355.33999999999997</ele>
        <time>2018-09-24T08:40:19Z</time>
      </trkpt>
      <trkpt lat="40.711347023025155" lon="13.948153909295797">
        <ele>356.31</ele>
        <time>2018-09-24T08:40:29Z</time>
      </trkpt>
      <trkpt lat="40.711315758526325" lon="13.948019044473767">
        <ele>358.23000000000002</ele>
        <time>2018-09-24T08:40:42Z</time>
      </trkpt>
      <trkpt lat="40.711296899244189" lon="13.94789750687778">
        <ele>359.67000000000002</ele>
        <time>2018-09-24T08:40:54Z</time>
      </trkpt>
      <trkpt lat="40.711260689422488" lon="13.947838079184294">
        <ele>361.11000000000001</ele>
        <time>2018-09-24T08:41:04Z</time>
      </trkpt>
      <trkpt lat="40.711195226758718" lon="13.947735065594316">
        <ele>363.04000000000002</ele>
        <time>2018-09-24T08:41:17Z</time>
      </trkpt>
      <trkpt lat="40.711169745773077" lon="13.947633393108845">
        <ele>365.44</ele>
        <time>2018-09-24T08:41:28Z</time>
      </trkpt>
      <trkpt lat="40.711116185411811" lon="13.947539934888482">
        <ele>367.83999999999997</ele>
        <time>2018-09-24T08:41:40Z</time>
      </trkpt>
      <trkpt lat="40.71104234084487" lon="13.947439938783646">
        <ele>370.24000000000001</ele>
        <time>2018-09-24T08:41:53Z</time>
      </trkpt>
      <trkpt lat="40.710996240377426" lon="13.94738981500268">
        <ele>372.17000000000002</ele>
        <time>2018-09-24T08:42:04Z</time>
      </trkpt>
      <trkpt lat="40.7109803147614" lon="13.947391575202346">
        <ele>372.17000000000002</ele>
        <time>2018-09-24T08:42:06Z</time>
      </trkpt>
      <trkpt lat="40.710907140746713" lon="13.947354527190328">
        <ele>373.61000000000001</ele>
        <time>2018-09-24T08:42:16Z</time>
      </trkpt>
      <trkpt lat="40.710876043885946" lon="13.947239108383656">
        <ele>376.00999999999999</ele>
        <time>2018-09-24T08:42:29Z</time>
      </trkpt>
      <trkpt lat="40.710876379162073" lon="13.947160905227065">
        <ele>376.49000000000001</ele>
        <time>2018-09-24T08:42:40Z</time>
      </trkpt>
      <trkpt lat="40.710873948410153" lon="13.947042468935251">
        <ele>378.42000000000002</ele>
        <time>2018-09-24T08:42:52Z</time>
      </trkpt>
      <trkpt lat="40.710892053321004" lon="13.946948256343603">
        <ele>380.33999999999997</ele>
        <time>2018-09-24T08:43:04Z</time>
      </trkpt>
      <trkpt lat="40.710848718881607" lon="13.946866700425744">
        <ele>382.25999999999999</ele>
        <time>2018-09-24T08:43:14Z</time>
      </trkpt>
      <trkpt lat="40.710839163511992" lon="13.946773326024413">
        <ele>383.69999999999999</ele>
        <time>2018-09-24T08:43:25Z</time>
      </trkpt>
      <trkpt lat="40.71080295369029" lon="13.946673916652799">
        <ele>386.11000000000001</ele>
        <time>2018-09-24T08:43:36Z</time>
      </trkpt>
      <trkpt lat="40.710850227624178" lon="13.946601497009397">
        <ele>389.47000000000003</ele>
        <time>2018-09-24T08:43:47Z</time>
      </trkpt>
      <trkpt lat="40.710868751630187" lon="13.946509882807732">
        <ele>389.47000000000003</ele>
        <time>2018-09-24T08:44:00Z</time>
      </trkpt>
      <trkpt lat="40.710914181545377" lon="13.946489850059152">
        <ele>391.38999999999999</ele>
        <time>2018-09-24T08:44:11Z</time>
      </trkpt>
      <trkpt lat="40.710976626724005" lon="13.946444252505898">
        <ele>391.38999999999999</ele>
        <time>2018-09-24T08:44:23Z</time>
      </trkpt>
      <trkpt lat="40.710966484621167" lon="13.946465458720922">
        <ele>391.38999999999999</ele>
        <time>2018-09-24T08:44:35Z</time>
      </trkpt>
      <trkpt lat="40.710903368890285" lon="13.946497812867165">
        <ele>391.38999999999999</ele>
        <time>2018-09-24T08:44:46Z</time>
      </trkpt>
      <trkpt lat="40.710886940360069" lon="13.946420447900891">
        <ele>392.36000000000001</ele>
        <time>2018-09-24T08:44:58Z</time>
      </trkpt>
      <trkpt lat="40.710873696953058" lon="13.946337550878525">
        <ele>394.27999999999997</ele>
        <time>2018-09-24T08:45:07Z</time>
      </trkpt>
      <trkpt lat="40.710880486294627" lon="13.946350794285536">
        <ele>394.75999999999999</ele>
        <time>2018-09-24T08:45:21Z</time>
      </trkpt>
      <trkpt lat="40.710903536528349" lon="13.946429416537285">
        <ele>392.83999999999997</ele>
        <time>2018-09-24T08:45:31Z</time>
      </trkpt>
      <trkpt lat="40.710911583155394" lon="13.946489095687866">
        <ele>391.87</ele>
        <time>2018-09-24T08:45:42Z</time>
      </trkpt>
      <trkpt lat="40.710899345576763" lon="13.946489430963993">
        <ele>391.38999999999999</ele>
        <time>2018-09-24T08:45:55Z</time>
      </trkpt>
      <trkpt lat="40.710902614519" lon="13.946499153971672">
        <ele>391.38999999999999</ele>
        <time>2018-09-24T08:46:14Z</time>
      </trkpt>
      <trkpt lat="40.710925832390785" lon="13.946507452055812">
        <ele>391.38999999999999</ele>
        <time>2018-09-24T08:46:34Z</time>
      </trkpt>
      <trkpt lat="40.710918875411153" lon="13.946513151749969">
        <ele>391.87</ele>
        <time>2018-09-24T08:46:55Z</time>
      </trkpt>
      <trkpt lat="40.710914433002472" lon="13.946522120386362">
        <ele>391.38999999999999</ele>
        <time>2018-09-24T08:47:16Z</time>
      </trkpt>
      <trkpt lat="40.710929436609149" lon="13.946513738483191">
        <ele>390.91000000000003</ele>
        <time>2018-09-24T08:47:38Z</time>
      </trkpt>
      <trkpt lat="40.71093094535172" lon="13.946508122608066">
        <ele>391.38999999999999</ele>
        <time>2018-09-24T08:48:01Z</time>
      </trkpt>
      <trkpt lat="40.71097151376307" lon="13.94651273265481">
        <ele>391.38999999999999</ele>
        <time>2018-09-24T08:48:24Z</time>
      </trkpt>
      <trkpt lat="40.710957683622837" lon="13.94651910290122">
        <ele>391.38999999999999</ele>
        <time>2018-09-24T08:48:47Z</time>
      </trkpt>
      <trkpt lat="40.710912588983774" lon="13.946517677977681">
        <ele>391.87</ele>
        <time>2018-09-24T08:49:09Z</time>
      </trkpt>
      <trkpt lat="40.710944356396794" lon="13.946537207812071">
        <ele>391.87</ele>
        <time>2018-09-24T08:49:30Z</time>
      </trkpt>
      <trkpt lat="40.7109285145998" lon="13.946525892242789">
        <ele>391.87</ele>
        <time>2018-09-24T08:49:50Z</time>
      </trkpt>
      <trkpt lat="40.710965897887945" lon="13.946517426520586">
        <ele>391.87</ele>
        <time>2018-09-24T08:50:06Z</time>
      </trkpt>
      <trkpt lat="40.710960030555725" lon="13.946529496461153">
        <ele>391.87</ele>
        <time>2018-09-24T08:50:23Z</time>
      </trkpt>
      <trkpt lat="40.710955839604139" lon="13.946537962183356">
        <ele>392.83999999999997</ele>
        <time>2018-09-24T08:50:42Z</time>
      </trkpt>
      <trkpt lat="40.71094804443419" lon="13.946535615250468">
        <ele>391.87</ele>
        <time>2018-09-24T08:50:59Z</time>
      </trkpt>
      <trkpt lat="40.710952151566744" lon="13.946547182276845">
        <ele>391.87</ele>
        <time>2018-09-24T08:51:21Z</time>
      </trkpt>
      <trkpt lat="40.710924910381436" lon="13.946544583886862">
        <ele>391.87</ele>
        <time>2018-09-24T08:51:36Z</time>
      </trkpt>
      <trkpt lat="40.710923569276929" lon="13.946512313559651">
        <ele>392.36000000000001</ele>
        <time>2018-09-24T08:51:59Z</time>
      </trkpt>
      <trkpt lat="40.7109544146806" lon="13.946512481197715">
        <ele>392.36000000000001</ele>
        <time>2018-09-24T08:52:13Z</time>
      </trkpt>
      <trkpt lat="40.710981404408813" lon="13.946473421528935">
        <ele>392.83999999999997</ele>
        <time>2018-09-24T08:52:24Z</time>
      </trkpt>
      <trkpt lat="40.710950391367078" lon="13.946432350203395">
        <ele>392.83999999999997</ele>
        <time>2018-09-24T08:52:36Z</time>
      </trkpt>
      <trkpt lat="40.710953744128346" lon="13.946364540606737">
        <ele>393.31999999999999</ele>
        <time>2018-09-24T08:52:49Z</time>
      </trkpt>
      <trkpt lat="40.711012333631516" lon="13.946350459009409">
        <ele>393.31999999999999</ele>
        <time>2018-09-24T08:53:02Z</time>
      </trkpt>
      <trkpt lat="40.711068827658892" lon="13.946256414055824">
        <ele>393.31999999999999</ele>
        <time>2018-09-24T08:53:14Z</time>
      </trkpt>
      <trkpt lat="40.711128925904632" lon="13.946139989420772">
        <ele>392.83999999999997</ele>
        <time>2018-09-24T08:53:26Z</time>
      </trkpt>
      <trkpt lat="40.711185000836849" lon="13.946030018851161">
        <ele>393.31999999999999</ele>
        <time>2018-09-24T08:53:38Z</time>
      </trkpt>
      <trkpt lat="40.711213834583759" lon="13.94596254453063">
        <ele>393.31999999999999</ele>
        <time>2018-09-24T08:53:49Z</time>
      </trkpt>
      <trkpt lat="40.711246859282255" lon="13.945897165685892">
        <ele>391.87</ele>
        <time>2018-09-24T08:54:02Z</time>
      </trkpt>
      <trkpt lat="40.711308214813471" lon="13.94582231529057">
        <ele>392.83999999999997</ele>
        <time>2018-09-24T08:54:13Z</time>
      </trkpt>
      <trkpt lat="40.711340988054872" lon="13.94578468054533">
        <ele>392.83999999999997</ele>
        <time>2018-09-24T08:54:25Z</time>
      </trkpt>
      <trkpt lat="40.711326319724321" lon="13.945710333064198">
        <ele>392.83999999999997</ele>
        <time>2018-09-24T08:54:38Z</time>
      </trkpt>
      <trkpt lat="40.711365044116974" lon="13.945635315030813">
        <ele>394.27999999999997</ele>
        <time>2018-09-24T08:54:51Z</time>
      </trkpt>
      <trkpt lat="40.711447019129992" lon="13.945548394694924">
        <ele>394.27999999999997</ele>
        <time>2018-09-24T08:55:02Z</time>
      </trkpt>
      <trkpt lat="40.711508877575397" lon="13.945507658645511">
        <ele>394.27999999999997</ele>
        <time>2018-09-24T08:55:14Z</time>
      </trkpt>
      <trkpt lat="40.711535448208451" lon="13.945431299507618">
        <ele>394.75999999999999</ele>
        <time>2018-09-24T08:55:25Z</time>
      </trkpt>
      <trkpt lat="40.711569814011455" lon="13.945372542366385">
        <ele>394.75999999999999</ele>
        <time>2018-09-24T08:55:35Z</time>
      </trkpt>
      <trkpt lat="40.711605520918965" lon="13.945203730836511">
        <ele>395.72000000000003</ele>
        <time>2018-09-24T08:55:48Z</time>
      </trkpt>
      <trkpt lat="40.711628822609782" lon="13.945102728903294">
        <ele>397.16000000000003</ele>
        <time>2018-09-24T08:55:58Z</time>
      </trkpt>
      <trkpt lat="40.711655560880899" lon="13.944976413622499">
        <ele>398.12</ele>
        <time>2018-09-24T08:56:10Z</time>
      </trkpt>
      <trkpt lat="40.711671570315957" lon="13.944876249879599">
        <ele>400.52999999999997</ele>
        <time>2018-09-24T08:56:23Z</time>
      </trkpt>
      <trkpt lat="40.711700404062867" lon="13.944765189662576">
        <ele>400.52999999999997</ele>
        <time>2018-09-24T08:56:32Z</time>
      </trkpt>
      <trkpt lat="40.711704846471548" lon="13.944648513570428">
        <ele>400.05000000000001</ele>
        <time>2018-09-24T08:56:43Z</time>
      </trkpt>
      <trkpt lat="40.711734350770712" lon="13.944625882431865">
        <ele>400.52999999999997</ele>
        <time>2018-09-24T08:56:51Z</time>
      </trkpt>
      <trkpt lat="40.711727226153016" lon="13.944608615711331">
        <ele>400.05000000000001</ele>
        <time>2018-09-24T08:57:08Z</time>
      </trkpt>
      <trkpt lat="40.711734686046839" lon="13.944604927673936">
        <ele>400.05000000000001</ele>
        <time>2018-09-24T08:57:24Z</time>
      </trkpt>
      <trkpt lat="40.711745750159025" lon="13.944623032584786">
        <ele>400.52999999999997</ele>
        <time>2018-09-24T08:57:46Z</time>
      </trkpt>
      <trkpt lat="40.711775338277221" lon="13.94470383413136">
        <ele>400.05000000000001</ele>
        <time>2018-09-24T08:57:55Z</time>
      </trkpt>
      <trkpt lat="40.7117884978652" lon="13.94469746388495">
        <ele>400.05000000000001</ele>
        <time>2018-09-24T08:58:06Z</time>
      </trkpt>
      <trkpt lat="40.711787575855851" lon="13.944722525775433">
        <ele>400.05000000000001</ele>
        <time>2018-09-24T08:58:29Z</time>
      </trkpt>
      <trkpt lat="40.711792353540659" lon="13.944701571017504">
        <ele>400.05000000000001</ele>
        <time>2018-09-24T08:58:52Z</time>
      </trkpt>
      <trkpt lat="40.711750779300928" lon="13.9446931052953">
        <ele>400.05000000000001</ele>
        <time>2018-09-24T08:59:11Z</time>
      </trkpt>
      <trkpt lat="40.71174600161612" lon="13.944682208821177">
        <ele>400.52999999999997</ele>
        <time>2018-09-24T08:59:33Z</time>
      </trkpt>
      <trkpt lat="40.711739882826805" lon="13.94468086771667">
        <ele>400.52999999999997</ele>
        <time>2018-09-24T08:59:55Z</time>
      </trkpt>
      <trkpt lat="40.711744157597423" lon="13.94468086771667">
        <ele>400.52999999999997</ele>
        <time>2018-09-24T09:00:12Z</time>
      </trkpt>
      <trkpt lat="40.711750444024801" lon="13.944686567410827">
        <ele>400.52999999999997</ele>
        <time>2018-09-24T09:00:26Z</time>
      </trkpt>
      <trkpt lat="40.711755305528641" lon="13.944719256833196">
        <ele>400.52999999999997</ele>
        <time>2018-09-24T09:00:43Z</time>
      </trkpt>
      <trkpt lat="40.711749102920294" lon="13.944735936820507">
        <ele>400.52999999999997</ele>
        <time>2018-09-24T09:01:01Z</time>
      </trkpt>
      <trkpt lat="40.711776930838823" lon="13.944739876314998">
        <ele>401.00999999999999</ele>
        <time>2018-09-24T09:01:15Z</time>
      </trkpt>
      <trkpt lat="40.711789336055517" lon="13.944739541038871">
        <ele>401.00999999999999</ele>
        <time>2018-09-24T09:01:31Z</time>
      </trkpt>
      <trkpt lat="40.71175480261445" lon="13.944755885750055">
        <ele>401.00999999999999</ele>
        <time>2018-09-24T09:01:46Z</time>
      </trkpt>
      <trkpt lat="40.71174792945385" lon="13.944709785282612">
        <ele>400.52999999999997</ele>
        <time>2018-09-24T09:02:01Z</time>
      </trkpt>
      <trkpt lat="40.711742816492915" lon="13.944709869101644">
        <ele>401.49000000000001</ele>
        <time>2018-09-24T09:02:14Z</time>
      </trkpt>
      <trkpt lat="40.711730159819126" lon="13.944714143872261">
        <ele>401.49000000000001</ele>
        <time>2018-09-24T09:02:26Z</time>
      </trkpt>
      <trkpt lat="40.711740888655186" lon="13.944699307903647">
        <ele>401.00999999999999</ele>
        <time>2018-09-24T09:02:45Z</time>
      </trkpt>
      <trkpt lat="40.71174306795001" lon="13.944721268489957">
        <ele>401.00999999999999</ele>
        <time>2018-09-24T09:03:02Z</time>
      </trkpt>
      <trkpt lat="40.711761591956019" lon="13.944730320945382">
        <ele>401.49000000000001</ele>
        <time>2018-09-24T09:03:17Z</time>
      </trkpt>
      <trkpt lat="40.711744073778391" lon="13.944736942648888">
        <ele>401.49000000000001</ele>
        <time>2018-09-24T09:03:32Z</time>
      </trkpt>
      <trkpt lat="40.711736530065536" lon="13.944745576009154">
        <ele>401.49000000000001</ele>
        <time>2018-09-24T09:03:52Z</time>
      </trkpt>
      <trkpt lat="40.711736781522632" lon="13.944766949862242">
        <ele>401.49000000000001</ele>
        <time>2018-09-24T09:04:14Z</time>
      </trkpt>
      <trkpt lat="40.711738038808107" lon="13.944779690355062">
        <ele>401.49000000000001</ele>
        <time>2018-09-24T09:04:39Z</time>
      </trkpt>
      <trkpt lat="40.711728567257524" lon="13.944753287360072">
        <ele>401.97000000000003</ele>
        <time>2018-09-24T09:04:55Z</time>
      </trkpt>
      <trkpt lat="40.71173476986587" lon="13.944769464433193">
        <ele>401.49000000000001</ele>
        <time>2018-09-24T09:05:11Z</time>
      </trkpt>
      <trkpt lat="40.711738625541329" lon="13.944764770567417">
        <ele>401.49000000000001</ele>
        <time>2018-09-24T09:05:33Z</time>
      </trkpt>
      <trkpt lat="40.711732925847173" lon="13.944742558524013">
        <ele>401.97000000000003</ele>
        <time>2018-09-24T09:05:51Z</time>
      </trkpt>
      <trkpt lat="40.711743570864201" lon="13.944747084751725">
        <ele>401.00999999999999</ele>
        <time>2018-09-24T09:06:09Z</time>
      </trkpt>
      <trkpt lat="40.711738374084234" lon="13.944759573787451">
        <ele>401.00999999999999</ele>
        <time>2018-09-24T09:06:22Z</time>
      </trkpt>
      <trkpt lat="40.711695374920964" lon="13.944773571565747">
        <ele>401.49000000000001</ele>
        <time>2018-09-24T09:06:27Z</time>
      </trkpt>
      <trkpt lat="40.711700739338994" lon="13.944793688133359">
        <ele>401.49000000000001</ele>
        <time>2018-09-24T09:06:37Z</time>
      </trkpt>
      <trkpt lat="40.711698476225138" lon="13.944785976782441">
        <ele>401.49000000000001</ele>
        <time>2018-09-24T09:06:39Z</time>
      </trkpt>
      <trkpt lat="40.711649022996426" lon="13.944686818867922">
        <ele>401.97000000000003</ele>
        <time>2018-09-24T09:06:50Z</time>
      </trkpt>
      <trkpt lat="40.711592445150018" lon="13.944707186892629">
        <ele>402.44999999999999</ele>
        <time>2018-09-24T09:06:57Z</time>
      </trkpt>
      <trkpt lat="40.711556067690253" lon="13.944720849394798">
        <ele>402.44999999999999</ele>
        <time>2018-09-24T09:07:00Z</time>
      </trkpt>
      <trkpt lat="40.711535615846515" lon="13.944697882980108">
        <ele>402.44999999999999</ele>
        <time>2018-09-24T09:07:13Z</time>
      </trkpt>
      <trkpt lat="40.711566880345345" lon="13.944702409207821">
        <ele>402.93000000000001</ele>
        <time>2018-09-24T09:07:41Z</time>
      </trkpt>
      <trkpt lat="40.711637958884239" lon="13.944659829139709">
        <ele>402.44999999999999</ele>
        <time>2018-09-24T09:07:51Z</time>
      </trkpt>
      <trkpt lat="40.711644077673554" lon="13.944656476378441">
        <ele>402.44999999999999</ele>
        <time>2018-09-24T09:07:52Z</time>
      </trkpt>
      <trkpt lat="40.711679868400097" lon="13.944664774462581">
        <ele>401.97000000000003</ele>
        <time>2018-09-24T09:07:57Z</time>
      </trkpt>
      <trkpt lat="40.711698392406106" lon="13.944714395329356">
        <ele>401.97000000000003</ele>
        <time>2018-09-24T09:08:07Z</time>
      </trkpt>
      <trkpt lat="40.711719933897257" lon="13.944744821637869">
        <ele>401.97000000000003</ele>
        <time>2018-09-24T09:08:19Z</time>
      </trkpt>
      <trkpt lat="40.711727729067206" lon="13.944749599322677">
        <ele>401.97000000000003</ele>
        <time>2018-09-24T09:08:31Z</time>
      </trkpt>
      <trkpt lat="40.711723538115621" lon="13.944745995104313">
        <ele>401.97000000000003</ele>
        <time>2018-09-24T09:08:47Z</time>
      </trkpt>
      <trkpt lat="40.711702331900597" lon="13.944663600996137">
        <ele>402.44999999999999</ele>
        <time>2018-09-24T09:08:59Z</time>
      </trkpt>
      <trkpt lat="40.711704678833485" lon="13.944626301527023">
        <ele>402.44999999999999</ele>
        <time>2018-09-24T09:09:02Z</time>
      </trkpt>
      <trkpt lat="40.71169663220644" lon="13.944590594619513">
        <ele>402.93000000000001</ele>
        <time>2018-09-24T09:09:13Z</time>
      </trkpt>
      <trkpt lat="40.711699901148677" lon="13.944595456123352">
        <ele>403.41000000000003</ele>
        <time>2018-09-24T09:09:27Z</time>
      </trkpt>
      <trkpt lat="40.711695961654186" lon="13.944586152210832">
        <ele>402.44999999999999</ele>
        <time>2018-09-24T09:09:48Z</time>
      </trkpt>
      <trkpt lat="40.711701577529311" lon="13.944595204666257">
        <ele>401.97000000000003</ele>
        <time>2018-09-24T09:10:02Z</time>
      </trkpt>
      <trkpt lat="40.711716497316957" lon="13.944600401446223">
        <ele>401.49000000000001</ele>
        <time>2018-09-24T09:10:22Z</time>
      </trkpt>
      <trkpt lat="40.711749354377389" lon="13.94462420605123">
        <ele>401.97000000000003</ele>
        <time>2018-09-24T09:10:34Z</time>
      </trkpt>
      <trkpt lat="40.71174742653966" lon="13.944656560197473">
        <ele>401.97000000000003</ele>
        <time>2018-09-24T09:10:46Z</time>
      </trkpt>
      <trkpt lat="40.711751198396087" lon="13.944663684815168">
        <ele>401.97000000000003</ele>
        <time>2018-09-24T09:11:05Z</time>
      </trkpt>
      <trkpt lat="40.711736362427473" lon="13.944621020928025">
        <ele>401.49000000000001</ele>
        <time>2018-09-24T09:11:16Z</time>
      </trkpt>
      <trkpt lat="40.711734183132648" lon="13.944612219929695">
        <ele>401.49000000000001</ele>
        <time>2018-09-24T09:11:35Z</time>
      </trkpt>
      <trkpt lat="40.711729153990746" lon="13.944610292091966">
        <ele>401.49000000000001</ele>
        <time>2018-09-24T09:11:56Z</time>
      </trkpt>
      <trkpt lat="40.711758909747005" lon="13.944669384509325">
        <ele>401.97000000000003</ele>
        <time>2018-09-24T09:12:12Z</time>
      </trkpt>
      <trkpt lat="40.711752120405436" lon="13.944751275703311">
        <ele>401.49000000000001</ele>
        <time>2018-09-24T09:12:23Z</time>
      </trkpt>
      <trkpt lat="40.71169713512063" lon="13.944778516888618">
        <ele>401.49000000000001</ele>
        <time>2018-09-24T09:12:34Z</time>
      </trkpt>
      <trkpt lat="40.711696213111281" lon="13.944816822186112">
        <ele>401.49000000000001</ele>
        <time>2018-09-24T09:12:43Z</time>
      </trkpt>
      <trkpt lat="40.711688166484237" lon="13.944893013685942">
        <ele>401.49000000000001</ele>
        <time>2018-09-24T09:12:56Z</time>
      </trkpt>
      <trkpt lat="40.711678862571716" lon="13.944911621510983">
        <ele>401.49000000000001</ele>
        <time>2018-09-24T09:13:07Z</time>
      </trkpt>
      <trkpt lat="40.711689926683903" lon="13.944952944293618">
        <ele>400.52999999999997</ele>
        <time>2018-09-24T09:13:20Z</time>
      </trkpt>
      <trkpt lat="40.711701242253184" lon="13.944962415844202">
        <ele>399.07999999999998</ele>
        <time>2018-09-24T09:13:31Z</time>
      </trkpt>
      <trkpt lat="40.711702918633819" lon="13.945011533796787">
        <ele>398.60000000000002</ele>
        <time>2018-09-24T09:13:43Z</time>
      </trkpt>
      <trkpt lat="40.711696883663535" lon="13.945031650364399">
        <ele>398.60000000000002</ele>
        <time>2018-09-24T09:13:57Z</time>
      </trkpt>
      <trkpt lat="40.711684059351683" lon="13.94503902643919">
        <ele>398.60000000000002</ele>
        <time>2018-09-24T09:14:11Z</time>
      </trkpt>
      <trkpt lat="40.711659668013453" lon="13.945066602900624">
        <ele>398.60000000000002</ele>
        <time>2018-09-24T09:14:29Z</time>
      </trkpt>
      <trkpt lat="40.711687579751015" lon="13.945048749446869">
        <ele>398.60000000000002</ele>
        <time>2018-09-24T09:14:43Z</time>
      </trkpt>
      <trkpt lat="40.711675174534321" lon="13.945054449141026">
        <ele>398.60000000000002</ele>
        <time>2018-09-24T09:14:55Z</time>
      </trkpt>
      <trkpt lat="40.711681209504604" lon="13.945091497153044">
        <ele>398.60000000000002</ele>
        <time>2018-09-24T09:15:12Z</time>
      </trkpt>
      <trkpt lat="40.71166436187923" lon="13.945216303691268">
        <ele>397.16000000000003</ele>
        <time>2018-09-24T09:15:24Z</time>
      </trkpt>
      <trkpt lat="40.711618093773723" lon="13.945371620357037">
        <ele>396.19999999999999</ele>
        <time>2018-09-24T09:15:38Z</time>
      </trkpt>
      <trkpt lat="40.711640389636159" lon="13.945487625896931">
        <ele>393.80000000000001</ele>
        <time>2018-09-24T09:15:49Z</time>
      </trkpt>
      <trkpt lat="40.711646089330316" lon="13.945528194308281">
        <ele>392.83999999999997</ele>
        <time>2018-09-24T09:15:52Z</time>
      </trkpt>
      <trkpt lat="40.711598144844174" lon="13.945635985583067">
        <ele>392.36000000000001</ele>
        <time>2018-09-24T09:16:03Z</time>
      </trkpt>
      <trkpt lat="40.711611052975059" lon="13.945660376921296">
        <ele>391.38999999999999</ele>
        <time>2018-09-24T09:16:17Z</time>
      </trkpt>
      <trkpt lat="40.711602084338665" lon="13.945737490430474">
        <ele>390.91000000000003</ele>
        <time>2018-09-24T09:16:28Z</time>
      </trkpt>
      <trkpt lat="40.711569814011455" lon="13.945839330554008">
        <ele>388.99000000000001</ele>
        <time>2018-09-24T09:16:38Z</time>
      </trkpt>
      <trkpt lat="40.711533520370722" lon="13.945982996374369">
        <ele>386.11000000000001</ele>
        <time>2018-09-24T09:16:52Z</time>
      </trkpt>
      <trkpt lat="40.71154709905386" lon="13.946103863418102">
        <ele>383.69999999999999</ele>
        <time>2018-09-24T09:17:05Z</time>
      </trkpt>
      <trkpt lat="40.71152513846755" lon="13.946203356608748">
        <ele>381.77999999999997</ele>
        <time>2018-09-24T09:17:13Z</time>
      </trkpt>
      <trkpt lat="40.711520528420806" lon="13.946333527565002">
        <ele>379.86000000000001</ele>
        <time>2018-09-24T09:17:24Z</time>
      </trkpt>
      <trkpt lat="40.711495466530323" lon="13.946484569460154">
        <ele>377.44999999999999</ele>
        <time>2018-09-24T09:17:36Z</time>
      </trkpt>
      <trkpt lat="40.711482809856534" lon="13.946605771780014">
        <ele>375.05000000000001</ele>
        <time>2018-09-24T09:17:47Z</time>
      </trkpt>
      <trkpt lat="40.711454059928656" lon="13.946735188364983">
        <ele>373.61000000000001</ele>
        <time>2018-09-24T09:17:59Z</time>
      </trkpt>
      <trkpt lat="40.711448276415467" lon="13.946840884163976">
        <ele>373.61000000000001</ele>
        <time>2018-09-24T09:18:07Z</time>
      </trkpt>
      <trkpt lat="40.711408630013466" lon="13.946957979351282">
        <ele>371.69</ele>
        <time>2018-09-24T09:18:17Z</time>
      </trkpt>
      <trkpt lat="40.711371582001448" lon="13.947097035124898">
        <ele>371.20999999999998</ele>
        <time>2018-09-24T09:18:27Z</time>
      </trkpt>
      <trkpt lat="40.71132036857307" lon="13.947263332083821">
        <ele>371.20999999999998</ele>
        <time>2018-09-24T09:18:40Z</time>
      </trkpt>
      <trkpt lat="40.711277956143022" lon="13.947332063689828">
        <ele>371.20999999999998</ele>
        <time>2018-09-24T09:18:47Z</time>
      </trkpt>
      <trkpt lat="40.711219450458884" lon="13.94749048165977">
        <ele>370.73000000000002</ele>
        <time>2018-09-24T09:19:01Z</time>
      </trkpt>
      <trkpt lat="40.711195981130004" lon="13.94757404923439">
        <ele>368.80000000000001</ele>
        <time>2018-09-24T09:19:11Z</time>
      </trkpt>
      <trkpt lat="40.711218696087599" lon="13.947680667042732">
        <ele>366.39999999999998</ele>
        <time>2018-09-24T09:19:21Z</time>
      </trkpt>
      <trkpt lat="40.711268652230501" lon="13.947789128869772">
        <ele>363.51999999999998</ele>
        <time>2018-09-24T09:19:34Z</time>
      </trkpt>
      <trkpt lat="40.711276363581419" lon="13.947801617905498">
        <ele>363.04000000000002</ele>
        <time>2018-09-24T09:19:35Z</time>
      </trkpt>
      <trkpt lat="40.711314585059881" lon="13.947905218228698">
        <ele>361.58999999999997</ele>
        <time>2018-09-24T09:19:43Z</time>
      </trkpt>
      <trkpt lat="40.711344173178077" lon="13.94803773611784">
        <ele>360.63</ele>
        <time>2018-09-24T09:19:54Z</time>
      </trkpt>
      <trkpt lat="40.711363116279244" lon="13.948156088590622">
        <ele>359.67000000000002</ele>
        <time>2018-09-24T09:20:04Z</time>
      </trkpt>
      <trkpt lat="40.711307544261217" lon="13.948224568739533">
        <ele>358.23000000000002</ele>
        <time>2018-09-24T09:20:13Z</time>
      </trkpt>
      <trkpt lat="40.711243003606796" lon="13.948278967291117">
        <ele>358.23000000000002</ele>
        <time>2018-09-24T09:20:22Z</time>
      </trkpt>
      <trkpt lat="40.711168153211474" lon="13.948328671976924">
        <ele>356.79000000000002</ele>
        <time>2018-09-24T09:20:34Z</time>
      </trkpt>
      <trkpt lat="40.711149629205465" lon="13.948340322822332">
        <ele>356.31</ele>
        <time>2018-09-24T09:20:47Z</time>
      </trkpt>
      <trkpt lat="40.711133033037186" lon="13.948354655876756">
        <ele>356.31</ele>
        <time>2018-09-24T09:21:00Z</time>
      </trkpt>
      <trkpt lat="40.71111811324954" lon="13.94837049767375">
        <ele>356.31</ele>
        <time>2018-09-24T09:21:13Z</time>
      </trkpt>
      <trkpt lat="40.711118699982762" lon="13.948367731645703">
        <ele>355.33999999999997</ele>
        <time>2018-09-24T09:21:32Z</time>
      </trkpt>
      <trkpt lat="40.711061200127006" lon="13.948392374441028">
        <ele>355.82999999999998</ele>
        <time>2018-09-24T09:21:48Z</time>
      </trkpt>
      <trkpt lat="40.711034294217825" lon="13.948457082733512">
        <ele>354.38</ele>
        <time>2018-09-24T09:21:59Z</time>
      </trkpt>
      <trkpt lat="40.711078550666571" lon="13.948478456586599">
        <ele>353.42000000000002</ele>
        <time>2018-09-24T09:22:06Z</time>
      </trkpt>
      <trkpt lat="40.711162369698286" lon="13.948592701926827">
        <ele>351.98000000000002</ele>
        <time>2018-09-24T09:22:20Z</time>
      </trkpt>
      <trkpt lat="40.711234286427498" lon="13.94869982264936">
        <ele>350.54000000000002</ele>
        <time>2018-09-24T09:22:32Z</time>
      </trkpt>
      <trkpt lat="40.71130963973701" lon="13.948810882866383">
        <ele>349.57999999999998</ele>
        <time>2018-09-24T09:22:43Z</time>
      </trkpt>
      <trkpt lat="40.7113550696522" lon="13.948884392157197">
        <ele>349.10000000000002</ele>
        <time>2018-09-24T09:22:51Z</time>
      </trkpt>
      <trkpt lat="40.711432602256536" lon="13.948991931974888">
        <ele>348.13</ele>
        <time>2018-09-24T09:23:02Z</time>
      </trkpt>
      <trkpt lat="40.711489347741008" lon="13.949089078232646">
        <ele>347.64999999999998</ele>
        <time>2018-09-24T09:23:12Z</time>
      </trkpt>
      <trkpt lat="40.711507117375731" lon="13.94913325086236">
        <ele>347.17000000000002</ele>
        <time>2018-09-24T09:23:18Z</time>
      </trkpt>
      <trkpt lat="40.711554475128651" lon="13.949246322736144">
        <ele>346.20999999999998</ele>
        <time>2018-09-24T09:23:29Z</time>
      </trkpt>
      <trkpt lat="40.711593283340335" lon="13.94937071017921">
        <ele>345.25</ele>
        <time>2018-09-24T09:23:42Z</time>
      </trkpt>
      <trkpt lat="40.711553050205112" lon="13.949482105672359">
        <ele>344.29000000000002</ele>
        <time>2018-09-24T09:23:54Z</time>
      </trkpt>
      <trkpt lat="40.711544333025813" lon="13.949598697945476">
        <ele>342.37</ele>
        <time>2018-09-24T09:24:05Z</time>
      </trkpt>
      <trkpt lat="40.711576687172055" lon="13.949664579704404">
        <ele>341.88999999999999</ele>
        <time>2018-09-24T09:24:11Z</time>
      </trkpt>
      <trkpt lat="40.711644999682903" lon="13.949759043753147">
        <ele>340.92000000000002</ele>
        <time>2018-09-24T09:24:24Z</time>
      </trkpt>
      <trkpt lat="40.711711551994085" lon="13.949818052351475">
        <ele>339.95999999999998</ele>
        <time>2018-09-24T09:24:36Z</time>
      </trkpt>
      <trkpt lat="40.71183979511261" lon="13.949888292700052">
        <ele>338.04000000000002</ele>
        <time>2018-09-24T09:24:51Z</time>
      </trkpt>
      <trkpt lat="40.71189989335835" lon="13.949927352368832">
        <ele>338.04000000000002</ele>
        <time>2018-09-24T09:25:03Z</time>
      </trkpt>
      <trkpt lat="40.711909029632807" lon="13.949940595775843">
        <ele>338.04000000000002</ele>
        <time>2018-09-24T09:25:15Z</time>
      </trkpt>
      <trkpt lat="40.711923949420452" lon="13.949939925223589">
        <ele>337.56</ele>
        <time>2018-09-24T09:25:34Z</time>
      </trkpt>
      <trkpt lat="40.711931744590402" lon="13.949961299076676">
        <ele>337.56</ele>
        <time>2018-09-24T09:25:50Z</time>
      </trkpt>
      <trkpt lat="40.711917076259851" lon="13.949960544705391">
        <ele>337.56</ele>
        <time>2018-09-24T09:26:05Z</time>
      </trkpt>
      <trkpt lat="40.711896205320954" lon="13.949989881366491">
        <ele>337.56</ele>
        <time>2018-09-24T09:26:21Z</time>
      </trkpt>
      <trkpt lat="40.711912214756012" lon="13.949973788112402">
        <ele>337.56</ele>
        <time>2018-09-24T09:26:36Z</time>
      </trkpt>
      <trkpt lat="40.711902575567365" lon="13.949983511120081">
        <ele>337.56</ele>
        <time>2018-09-24T09:26:51Z</time>
      </trkpt>
      <trkpt lat="40.711912214756012" lon="13.95002843812108">
        <ele>338.51999999999998</ele>
        <time>2018-09-24T09:27:01Z</time>
      </trkpt>
      <trkpt lat="40.711966697126627" lon="13.950095074251294">
        <ele>339.48000000000002</ele>
        <time>2018-09-24T09:27:12Z</time>
      </trkpt>
      <trkpt lat="40.711999302729964" lon="13.950167829170823">
        <ele>340.44</ele>
        <time>2018-09-24T09:27:23Z</time>
      </trkpt>
      <trkpt lat="40.712022185325623" lon="13.950211079791188">
        <ele>340.92000000000002</ele>
        <time>2018-09-24T09:27:33Z</time>
      </trkpt>
      <trkpt lat="40.712066693231463" lon="13.950357427820563">
        <ele>343.32999999999998</ele>
        <time>2018-09-24T09:27:47Z</time>
      </trkpt>
      <trkpt lat="40.712123438715935" lon="13.950484246015549">
        <ele>343.81</ele>
        <time>2018-09-24T09:28:01Z</time>
      </trkpt>
      <trkpt lat="40.712185129523277" lon="13.950622966513038">
        <ele>344.29000000000002</ele>
        <time>2018-09-24T09:28:15Z</time>
      </trkpt>
      <trkpt lat="40.712238857522607" lon="13.950795466080308">
        <ele>343.32999999999998</ele>
        <time>2018-09-24T09:28:28Z</time>
      </trkpt>
      <trkpt lat="40.712317563593388" lon="13.950872495770454">
        <ele>342.37</ele>
        <time>2018-09-24T09:28:40Z</time>
      </trkpt>
      <trkpt lat="40.712369866669178" lon="13.950919853523374">
        <ele>340.92000000000002</ele>
        <time>2018-09-24T09:28:52Z</time>
      </trkpt>
      <trkpt lat="40.712388893589377" lon="13.950934857130051">
        <ele>340.44</ele>
        <time>2018-09-24T09:28:58Z</time>
      </trkpt>
      <trkpt lat="40.712374895811081" lon="13.950998643413186">
        <ele>339.48000000000002</ele>
        <time>2018-09-24T09:29:08Z</time>
      </trkpt>
      <trkpt lat="40.712315887212753" lon="13.951067375019193">
        <ele>337.07999999999998</ele>
        <time>2018-09-24T09:29:20Z</time>
      </trkpt>
      <trkpt lat="40.712282527238131" lon="13.951126299798489">
        <ele>335.16000000000003</ele>
        <time>2018-09-24T09:29:30Z</time>
      </trkpt>
      <trkpt lat="40.712242545560002" lon="13.951174831017852">
        <ele>333.23000000000002</ele>
        <time>2018-09-24T09:29:40Z</time>
      </trkpt>
      <trkpt lat="40.712180184200406" lon="13.951222021132708">
        <ele>331.31</ele>
        <time>2018-09-24T09:29:51Z</time>
      </trkpt>
      <trkpt lat="40.712152607738972" lon="13.951253956183791">
        <ele>328.91000000000003</ele>
        <time>2018-09-24T09:30:00Z</time>
      </trkpt>
      <trkpt lat="40.712076248601079" lon="13.95128857344389">
        <ele>326.99000000000001</ele>
        <time>2018-09-24T09:30:12Z</time>
      </trkpt>
      <trkpt lat="40.712020928040147" lon="13.951318161562085">
        <ele>324.57999999999998</ele>
        <time>2018-09-24T09:30:25Z</time>
      </trkpt>
      <trkpt lat="40.711931241676211" lon="13.951334254816175">
        <ele>322.66000000000003</ele>
        <time>2018-09-24T09:30:37Z</time>
      </trkpt>
      <trkpt lat="40.711872233077884" lon="13.951344816014171">
        <ele>320.74000000000001</ele>
        <time>2018-09-24T09:30:50Z</time>
      </trkpt>
      <trkpt lat="40.711788246408105" lon="13.951406925916672">
        <ele>319.30000000000001</ele>
        <time>2018-09-24T09:31:01Z</time>
      </trkpt>
      <trkpt lat="40.711734686046839" lon="13.951518489047885">
        <ele>317.37</ele>
        <time>2018-09-24T09:31:13Z</time>
      </trkpt>
      <trkpt lat="40.711690932512283" lon="13.951650084927678">
        <ele>316.41000000000003</ele>
        <time>2018-09-24T09:31:25Z</time>
      </trkpt>
      <trkpt lat="40.711694536730647" lon="13.951716301962733">
        <ele>315.93000000000001</ele>
        <time>2018-09-24T09:31:31Z</time>
      </trkpt>
      <trkpt lat="40.71175673045218" lon="13.95184320397675">
        <ele>315.44999999999999</ele>
        <time>2018-09-24T09:31:44Z</time>
      </trkpt>
      <trkpt lat="40.711804758757353" lon="13.951901206746697">
        <ele>314.97000000000003</ele>
        <time>2018-09-24T09:31:52Z</time>
      </trkpt>
      <trkpt lat="40.711896037682891" lon="13.95201712846756">
        <ele>314.00999999999999</ele>
        <time>2018-09-24T09:32:05Z</time>
      </trkpt>
      <trkpt lat="40.711971055716276" lon="13.952125674113631">
        <ele>314.97000000000003</ele>
        <time>2018-09-24T09:32:17Z</time>
      </trkpt>
      <trkpt lat="40.711998045444489" lon="13.95221259444952">
        <ele>314.97000000000003</ele>
        <time>2018-09-24T09:32:23Z</time>
      </trkpt>
      <trkpt lat="40.712106255814433" lon="13.952291635796428">
        <ele>315.44999999999999</ele>
        <time>2018-09-24T09:32:34Z</time>
      </trkpt>
      <trkpt lat="40.712127964943647" lon="13.952297754585743">
        <ele>315.44999999999999</ele>
        <time>2018-09-24T09:32:36Z</time>
      </trkpt>
      <trkpt lat="40.712167946621776" lon="13.952337317168713">
        <ele>315.44999999999999</ele>
        <time>2018-09-24T09:32:40Z</time>
      </trkpt>
      <trkpt lat="40.712284371256828" lon="13.952489113435149">
        <ele>315.44999999999999</ele>
        <time>2018-09-24T09:32:54Z</time>
      </trkpt>
      <trkpt lat="40.712352767586708" lon="13.952602436766028">
        <ele>315.44999999999999</ele>
        <time>2018-09-24T09:33:04Z</time>
      </trkpt>
      <trkpt lat="40.712433652952313" lon="13.952687093988061">
        <ele>315.93000000000001</ele>
        <time>2018-09-24T09:33:16Z</time>
      </trkpt>
      <trkpt lat="40.712520154193044" lon="13.952821958810091">
        <ele>316.41000000000003</ele>
        <time>2018-09-24T09:33:29Z</time>
      </trkpt>
      <trkpt lat="40.712535157799721" lon="13.952838890254498">
        <ele>316.41000000000003</ele>
        <time>2018-09-24T09:33:31Z</time>
      </trkpt>
      <trkpt lat="40.712607996538281" lon="13.952921368181705">
        <ele>316.88999999999999</ele>
        <time>2018-09-24T09:33:42Z</time>
      </trkpt>
      <trkpt lat="40.712670106440783" lon="13.952990770339966">
        <ele>316.41000000000003</ele>
        <time>2018-09-24T09:33:52Z</time>
      </trkpt>
      <trkpt lat="40.712716374546289" lon="13.953031674027443">
        <ele>315.44999999999999</ele>
        <time>2018-09-24T09:34:01Z</time>
      </trkpt>
      <trkpt lat="40.712764570489526" lon="13.953079031780362">
        <ele>314.97000000000003</ele>
        <time>2018-09-24T09:34:12Z</time>
      </trkpt>
      <trkpt lat="40.712760714814067" lon="13.953131670132279">
        <ele>314.00999999999999</ele>
        <time>2018-09-24T09:34:24Z</time>
      </trkpt>
      <trkpt lat="40.712728193029761" lon="13.953195456415415">
        <ele>312.08999999999997</ele>
        <time>2018-09-24T09:34:36Z</time>
      </trkpt>
      <trkpt lat="40.712714195251465" lon="13.953242478892207">
        <ele>310.63999999999999</ele>
        <time>2018-09-24T09:34:47Z</time>
      </trkpt>
      <trkpt lat="40.712733557447791" lon="13.953282376751304">
        <ele>308.72000000000003</ele>
        <time>2018-09-24T09:34:58Z</time>
      </trkpt>
      <trkpt lat="40.712737748399377" lon="13.953339708968997">
        <ele>306.31999999999999</ele>
        <time>2018-09-24T09:35:11Z</time>
      </trkpt>
      <trkpt lat="40.712712937965989" lon="13.953399220481515">
        <ele>304.38999999999999</ele>
        <time>2018-09-24T09:35:22Z</time>
      </trkpt>
      <trkpt lat="40.712698772549629" lon="13.953473148867488">
        <ele>302.47000000000003</ele>
        <time>2018-09-24T09:35:33Z</time>
      </trkpt>
      <trkpt lat="40.712706986814737" lon="13.953564763069153">
        <ele>300.06999999999999</ele>
        <time>2018-09-24T09:35:44Z</time>
      </trkpt>
      <trkpt lat="40.712763899937272" lon="13.953583454713225">
        <ele>300.06999999999999</ele>
        <time>2018-09-24T09:35:51Z</time>
      </trkpt>
      <trkpt lat="40.712847216054797" lon="13.953541712835431">
        <ele>299.58999999999997</ele>
        <time>2018-09-24T09:36:02Z</time>
      </trkpt>
      <trkpt lat="40.712916366755962" lon="13.953529559075832">
        <ele>299.58999999999997</ele>
        <time>2018-09-24T09:36:12Z</time>
      </trkpt>
      <trkpt lat="40.71295777335763" lon="13.953525368124247">
        <ele>299.58999999999997</ele>
        <time>2018-09-24T09:36:22Z</time>
      </trkpt>
      <trkpt lat="40.713021056726575" lon="13.953545652329922">
        <ele>299.11000000000001</ele>
        <time>2018-09-24T09:36:31Z</time>
      </trkpt>
      <trkpt lat="40.713109569624066" lon="13.953580185770988">
        <ele>298.14999999999998</ele>
        <time>2018-09-24T09:36:43Z</time>
      </trkpt>
      <trkpt lat="40.71311853826046" lon="13.953598039224744">
        <ele>298.14999999999998</ele>
        <time>2018-09-24T09:36:55Z</time>
      </trkpt>
      <trkpt lat="40.713140331208706" lon="13.953627794981003">
        <ele>297.67000000000002</ele>
        <time>2018-09-24T09:37:09Z</time>
      </trkpt>
      <trkpt lat="40.713165728375316" lon="13.953699208796024">
        <ele>296.69999999999999</ele>
        <time>2018-09-24T09:37:20Z</time>
      </trkpt>
      <trkpt lat="40.713188862428069" lon="13.953711530193686">
        <ele>295.74000000000001</ele>
        <time>2018-09-24T09:37:32Z</time>
      </trkpt>
      <trkpt lat="40.713208392262459" lon="13.953736759722233">
        <ele>295.25999999999999</ele>
        <time>2018-09-24T09:37:45Z</time>
      </trkpt>
      <trkpt lat="40.713204285129905" lon="13.953753355890512">
        <ele>294.77999999999997</ele>
        <time>2018-09-24T09:38:03Z</time>
      </trkpt>
      <trkpt lat="40.713209565728903" lon="13.953773556277156">
        <ele>294.30000000000001</ele>
        <time>2018-09-24T09:38:12Z</time>
      </trkpt>
      <trkpt lat="40.7132529001683" lon="13.953806916251779">
        <ele>293.81999999999999</ele>
        <time>2018-09-24T09:38:24Z</time>
      </trkpt>
      <trkpt lat="40.713295647874475" lon="13.953813957050443">
        <ele>293.33999999999997</ele>
        <time>2018-09-24T09:38:34Z</time>
      </trkpt>
      <trkpt lat="40.713299922645092" lon="13.953840779140592">
        <ele>292.86000000000001</ele>
        <time>2018-09-24T09:38:47Z</time>
      </trkpt>
      <trkpt lat="40.713304197415709" lon="13.953860392794013">
        <ele>293.33999999999997</ele>
        <time>2018-09-24T09:39:04Z</time>
      </trkpt>
      <trkpt lat="40.713307466357946" lon="13.953865924850106">
        <ele>293.33999999999997</ele>
        <time>2018-09-24T09:39:07Z</time>
      </trkpt>
      <trkpt lat="40.71329690515995" lon="13.953882856294513">
        <ele>292.38</ele>
        <time>2018-09-24T09:39:16Z</time>
      </trkpt>
      <trkpt lat="40.713289612904191" lon="13.953872714191675">
        <ele>291.89999999999998</ele>
        <time>2018-09-24T09:39:30Z</time>
      </trkpt>
      <trkpt lat="40.713250637054443" lon="13.95386315882206">
        <ele>290.45999999999998</ele>
        <time>2018-09-24T09:39:42Z</time>
      </trkpt>
      <trkpt lat="40.713235717266798" lon="13.953864919021726">
        <ele>289.97000000000003</ele>
        <time>2018-09-24T09:39:52Z</time>
      </trkpt>
      <trkpt lat="40.713237142190337" lon="13.953877743333578">
        <ele>289.49000000000001</ele>
        <time>2018-09-24T09:39:55Z</time>
      </trkpt>
      <trkpt lat="40.713184168562293" lon="13.953929375857115">
        <ele>286.61000000000001</ele>
        <time>2018-09-24T09:40:03Z</time>
      </trkpt>
      <trkpt lat="40.713137062266469" lon="13.953925017267466">
        <ele>285.17000000000002</ele>
        <time>2018-09-24T09:40:14Z</time>
      </trkpt>
      <trkpt lat="40.713088279590011" lon="13.95393792539835">
        <ele>283.73000000000002</ele>
        <time>2018-09-24T09:40:26Z</time>
      </trkpt>
      <trkpt lat="40.713092302903533" lon="13.954012440517545">
        <ele>280.83999999999997</ele>
        <time>2018-09-24T09:40:37Z</time>
      </trkpt>
      <trkpt lat="40.713007561862469" lon="13.953968603163958">
        <ele>279.39999999999998</ele>
        <time>2018-09-24T09:40:44Z</time>
      </trkpt>
      <trkpt lat="40.712887197732925" lon="13.95402492955327">
        <ele>276.51999999999998</ele>
        <time>2018-09-24T09:40:55Z</time>
      </trkpt>
      <trkpt lat="40.712832044810057" lon="13.954060971736908">
        <ele>275.56</ele>
        <time>2018-09-24T09:41:05Z</time>
      </trkpt>
      <trkpt lat="40.712831960991025" lon="13.954061223194003">
        <ele>275.56</ele>
        <time>2018-09-24T09:41:16Z</time>
      </trkpt>
      <trkpt lat="40.712824501097202" lon="13.954060887917876">
        <ele>275.56</ele>
        <time>2018-09-24T09:41:36Z</time>
      </trkpt>
      <trkpt lat="40.712786028161645" lon="13.954085782170296">
        <ele>274.58999999999997</ele>
        <time>2018-09-24T09:41:45Z</time>
      </trkpt>
      <trkpt lat="40.712764654308558" lon="13.954094834625721">
        <ele>274.11000000000001</ele>
        <time>2018-09-24T09:41:55Z</time>
      </trkpt>
      <trkpt lat="40.712729953229427" lon="13.954126518219709">
        <ele>273.14999999999998</ele>
        <time>2018-09-24T09:42:06Z</time>
      </trkpt>
      <trkpt lat="40.712699610739946" lon="13.954125931486487">
        <ele>271.70999999999998</ele>
        <time>2018-09-24T09:42:15Z</time>
      </trkpt>
      <trkpt lat="40.712667927145958" lon="13.954167757183313">
        <ele>269.31</ele>
        <time>2018-09-24T09:42:26Z</time>
      </trkpt>
      <trkpt lat="40.712632304057479" lon="13.954210001975298">
        <ele>267.38</ele>
        <time>2018-09-24T09:42:36Z</time>
      </trkpt>
      <trkpt lat="40.712596429511905" lon="13.954239506274462">
        <ele>265.94</ele>
        <time>2018-09-24T09:42:48Z</time>
      </trkpt>
      <trkpt lat="40.712541025131941" lon="13.954355847090483">
        <ele>263.06</ele>
        <time>2018-09-24T09:43:03Z</time>
      </trkpt>
      <trkpt lat="40.712510934099555" lon="13.954427512362599">
        <ele>260.64999999999998</ele>
        <time>2018-09-24T09:43:15Z</time>
      </trkpt>
      <trkpt lat="40.712474975734949" lon="13.954457519575953">
        <ele>259.20999999999998</ele>
        <time>2018-09-24T09:43:26Z</time>
      </trkpt>
      <trkpt lat="40.712428037077188" lon="13.954502698034048">
        <ele>257.76999999999998</ele>
        <time>2018-09-24T09:43:39Z</time>
      </trkpt>
      <trkpt lat="40.71239878423512" lon="13.954596659168601">
        <ele>254.41</ele>
        <time>2018-09-24T09:43:51Z</time>
      </trkpt>
      <trkpt lat="40.71235042065382" lon="13.954639658331871">
        <ele>252</ele>
        <time>2018-09-24T09:44:02Z</time>
      </trkpt>
      <trkpt lat="40.712319742888212" lon="13.954711658880115">
        <ele>249.59999999999999</ele>
        <time>2018-09-24T09:44:16Z</time>
      </trkpt>
      <trkpt lat="40.712325191125274" lon="13.954760441556573">
        <ele>248.16</ele>
        <time>2018-09-24T09:44:28Z</time>
      </trkpt>
      <trkpt lat="40.712272636592388" lon="13.954786844551563">
        <ele>248.63999999999999</ele>
        <time>2018-09-24T09:44:40Z</time>
      </trkpt>
      <trkpt lat="40.712282108142972" lon="13.954775109887123">
        <ele>248.63999999999999</ele>
        <time>2018-09-24T09:44:54Z</time>
      </trkpt>
      <trkpt lat="40.712283700704575" lon="13.954779133200645">
        <ele>248.63999999999999</ele>
        <time>2018-09-24T09:45:06Z</time>
      </trkpt>
      <trkpt lat="40.71228495799005" lon="13.954775361344218">
        <ele>248.63999999999999</ele>
        <time>2018-09-24T09:45:19Z</time>
      </trkpt>
      <trkpt lat="40.712286047637463" lon="13.954790700227022">
        <ele>248.63999999999999</ele>
        <time>2018-09-24T09:45:36Z</time>
      </trkpt>
      <trkpt lat="40.712289735674858" lon="13.954762117937207">
        <ele>247.68000000000001</ele>
        <time>2018-09-24T09:45:43Z</time>
      </trkpt>
      <trkpt lat="40.712271463125944" lon="13.954754155129194">
        <ele>247.68000000000001</ele>
        <time>2018-09-24T09:46:08Z</time>
      </trkpt>
      <trkpt lat="40.712291914969683" lon="13.95476371049881">
        <ele>248.16</ele>
        <time>2018-09-24T09:46:19Z</time>
      </trkpt>
      <trkpt lat="40.712290909141302" lon="13.954773852601647">
        <ele>248.63999999999999</ele>
        <time>2018-09-24T09:46:27Z</time>
      </trkpt>
      <trkpt lat="40.712290741503239" lon="13.954775780439377">
        <ele>248.63999999999999</ele>
        <time>2018-09-24T09:46:42Z</time>
      </trkpt>
      <trkpt lat="40.712349498644471" lon="13.954751389101148">
        <ele>248.16</ele>
        <time>2018-09-24T09:46:55Z</time>
      </trkpt>
      <trkpt lat="40.712432479485869" lon="13.954761195927858">
        <ele>246.22999999999999</ele>
        <time>2018-09-24T09:47:08Z</time>
      </trkpt>
      <trkpt lat="40.712522752583027" lon="13.95473781041801">
        <ele>244.31</ele>
        <time>2018-09-24T09:47:21Z</time>
      </trkpt>
      <trkpt lat="40.712618222460151" lon="13.954748706892133">
        <ele>241.91</ele>
        <time>2018-09-24T09:47:33Z</time>
      </trkpt>
      <trkpt lat="40.712679410353303" lon="13.954693134874105">
        <ele>240.47</ele>
        <time>2018-09-24T09:47:46Z</time>
      </trkpt>
      <trkpt lat="40.712744873017073" lon="13.954678634181619">
        <ele>239.50999999999999</ele>
        <time>2018-09-24T09:47:59Z</time>
      </trkpt>
      <trkpt lat="40.712750907987356" lon="13.954719454050064">
        <ele>238.53999999999999</ele>
        <time>2018-09-24T09:48:11Z</time>
      </trkpt>
      <trkpt lat="40.712749902158976" lon="13.954723058268428">
        <ele>238.53999999999999</ele>
        <time>2018-09-24T09:48:12Z</time>
      </trkpt>
      <trkpt lat="40.712717212736607" lon="13.954728506505489">
        <ele>237.09999999999999</ele>
        <time>2018-09-24T09:48:19Z</time>
      </trkpt>
      <trkpt lat="40.712715284898877" lon="13.954728757962584">
        <ele>236.62</ele>
        <time>2018-09-24T09:48:30Z</time>
      </trkpt>
      <trkpt lat="40.712718805298209" lon="13.954715514555573">
        <ele>236.62</ele>
        <time>2018-09-24T09:48:56Z</time>
      </trkpt>
      <trkpt lat="40.712716290727258" lon="13.954701432958245">
        <ele>236.13999999999999</ele>
        <time>2018-09-24T09:49:20Z</time>
      </trkpt>
      <trkpt lat="40.712704472243786" lon="13.954687602818012">
        <ele>236.13999999999999</ele>
        <time>2018-09-24T09:49:43Z</time>
      </trkpt>
      <trkpt lat="40.712700197473168" lon="13.954704450443387">
        <ele>236.13999999999999</ele>
        <time>2018-09-24T09:50:03Z</time>
      </trkpt>
      <trkpt lat="40.712703131139278" lon="13.954701600596309">
        <ele>236.13999999999999</ele>
        <time>2018-09-24T09:50:28Z</time>
      </trkpt>
      <trkpt lat="40.712676309049129" lon="13.954720962792635">
        <ele>236.62</ele>
        <time>2018-09-24T09:50:51Z</time>
      </trkpt>
      <trkpt lat="40.712711848318577" lon="13.954704953357577">
        <ele>236.62</ele>
        <time>2018-09-24T09:51:17Z</time>
      </trkpt>
      <trkpt lat="40.712708830833435" lon="13.954707216471434">
        <ele>236.62</ele>
        <time>2018-09-24T09:51:41Z</time>
      </trkpt>
      <trkpt lat="40.712727773934603" lon="13.954722303897142">
        <ele>237.09999999999999</ele>
        <time>2018-09-24T09:52:04Z</time>
      </trkpt>
      <trkpt lat="40.712688965722919" lon="13.954710988327861">
        <ele>237.09999999999999</ele>
        <time>2018-09-24T09:52:33Z</time>
      </trkpt>
      <trkpt lat="40.712706232443452" lon="13.95475298166275">
        <ele>237.09999999999999</ele>
        <time>2018-09-24T09:52:57Z</time>
      </trkpt>
      <trkpt lat="40.712701957672834" lon="13.954755663871765">
        <ele>237.09999999999999</ele>
        <time>2018-09-24T09:53:17Z</time>
      </trkpt>
      <trkpt lat="40.712713859975338" lon="13.954783324152231">
        <ele>237.09999999999999</ele>
        <time>2018-09-24T09:53:38Z</time>
      </trkpt>
      <trkpt lat="40.712692905217409" lon="13.954696236178279">
        <ele>237.58000000000001</ele>
        <time>2018-09-24T09:53:56Z</time>
      </trkpt>
      <trkpt lat="40.712679326534271" lon="13.954673353582621">
        <ele>237.58000000000001</ele>
        <time>2018-09-24T09:54:12Z</time>
      </trkpt>
      <trkpt lat="40.712734395638108" lon="13.954755663871765">
        <ele>237.58000000000001</ele>
        <time>2018-09-24T09:54:28Z</time>
      </trkpt>
      <trkpt lat="40.712671028450131" lon="13.954709731042385">
        <ele>237.58000000000001</ele>
        <time>2018-09-24T09:54:54Z</time>
      </trkpt>
      <trkpt lat="40.712677733972669" lon="13.954702187329531">
        <ele>237.58000000000001</ele>
        <time>2018-09-24T09:55:15Z</time>
      </trkpt>
      <trkpt lat="40.712700700387359" lon="13.954734373837709">
        <ele>237.58000000000001</ele>
        <time>2018-09-24T09:55:40Z</time>
      </trkpt>
      <trkpt lat="40.712716290727258" lon="13.954708054661751">
        <ele>237.58000000000001</ele>
        <time>2018-09-24T09:56:03Z</time>
      </trkpt>
      <trkpt lat="40.712682092562318" lon="13.954707803204656">
        <ele>237.58000000000001</ele>
        <time>2018-09-24T09:56:29Z</time>
      </trkpt>
      <trkpt lat="40.71270078420639" lon="13.954690368846059">
        <ele>237.09999999999999</ele>
        <time>2018-09-24T09:56:50Z</time>
      </trkpt>
      <trkpt lat="40.712694497779012" lon="13.954715682193637">
        <ele>237.58000000000001</ele>
        <time>2018-09-24T09:57:11Z</time>
      </trkpt>
      <trkpt lat="40.712714279070497" lon="13.954716520383954">
        <ele>237.09999999999999</ele>
        <time>2018-09-24T09:57:28Z</time>
      </trkpt>
      <trkpt lat="40.71271394379437" lon="13.954749125987291">
        <ele>237.58000000000001</ele>
        <time>2018-09-24T09:57:48Z</time>
      </trkpt>
      <trkpt lat="40.712721906602383" lon="13.954738983884454">
        <ele>238.06</ele>
        <time>2018-09-24T09:57:56Z</time>
      </trkpt>
      <trkpt lat="40.712712518870831" lon="13.954714508727193">
        <ele>238.06</ele>
        <time>2018-09-24T09:58:08Z</time>
      </trkpt>
      <trkpt lat="40.71272324770689" lon="13.954735798761249">
        <ele>239.02000000000001</ele>
        <time>2018-09-24T09:58:27Z</time>
      </trkpt>
      <trkpt lat="40.71273791603744" lon="13.954739235341549">
        <ele>238.06</ele>
        <time>2018-09-24T09:58:48Z</time>
      </trkpt>
      <trkpt lat="40.71272861212492" lon="13.954708557575941">
        <ele>237.58000000000001</ele>
        <time>2018-09-24T09:59:02Z</time>
      </trkpt>
      <trkpt lat="40.71275694295764" lon="13.954731021076441">
        <ele>238.06</ele>
        <time>2018-09-24T09:59:16Z</time>
      </trkpt>
      <trkpt lat="40.712747722864151" lon="13.95472900941968">
        <ele>238.06</ele>
        <time>2018-09-24T09:59:41Z</time>
      </trkpt>
      <trkpt lat="40.712735820561647" lon="13.954736385494471">
        <ele>238.53999999999999</ele>
        <time>2018-09-24T10:00:03Z</time>
      </trkpt>
      <trkpt lat="40.712725762277842" lon="13.954716520383954">
        <ele>238.06</ele>
        <time>2018-09-24T10:00:17Z</time>
      </trkpt>
      <trkpt lat="40.712738586589694" lon="13.954722471535206">
        <ele>237.58000000000001</ele>
        <time>2018-09-24T10:00:35Z</time>
      </trkpt>
      <trkpt lat="40.712689133360982" lon="13.954722052440047">
        <ele>237.58000000000001</ele>
        <time>2018-09-24T10:00:49Z</time>
      </trkpt>
      <trkpt lat="40.712684942409396" lon="13.954710317775607">
        <ele>238.06</ele>
        <time>2018-09-24T10:01:03Z</time>
      </trkpt>
      <trkpt lat="40.712730539962649" lon="13.954737056046724">
        <ele>238.06</ele>
        <time>2018-09-24T10:01:19Z</time>
      </trkpt>
      <trkpt lat="40.712737077847123" lon="13.954731104895473">
        <ele>237.58000000000001</ele>
        <time>2018-09-24T10:01:36Z</time>
      </trkpt>
      <trkpt lat="40.712743112817407" lon="13.954713838174939">
        <ele>238.53999999999999</ele>
        <time>2018-09-24T10:01:53Z</time>
      </trkpt>
      <trkpt lat="40.712745878845453" lon="13.954710736870766">
        <ele>238.53999999999999</ele>
        <time>2018-09-24T10:02:09Z</time>
      </trkpt>
      <trkpt lat="40.712744956836104" lon="13.954733032733202">
        <ele>238.53999999999999</ele>
        <time>2018-09-24T10:02:20Z</time>
      </trkpt>
      <trkpt lat="40.71276088245213" lon="13.95473194308579">
        <ele>238.53999999999999</ele>
        <time>2018-09-24T10:02:43Z</time>
      </trkpt>
      <trkpt lat="40.712745459750295" lon="13.954752730205655">
        <ele>238.53999999999999</ele>
        <time>2018-09-24T10:03:03Z</time>
      </trkpt>
      <trkpt lat="40.712730372324586" lon="13.954750467091799">
        <ele>238.06</ele>
        <time>2018-09-24T10:03:19Z</time>
      </trkpt>
      <trkpt lat="40.712735233828425" lon="13.954736385494471">
        <ele>238.53999999999999</ele>
        <time>2018-09-24T10:03:39Z</time>
      </trkpt>
      <trkpt lat="40.712737496942282" lon="13.954737978056073">
        <ele>238.53999999999999</ele>
        <time>2018-09-24T10:03:59Z</time>
      </trkpt>
      <trkpt lat="40.712706735357642" lon="13.954727752134204">
        <ele>239.02000000000001</ele>
        <time>2018-09-24T10:04:15Z</time>
      </trkpt>
      <trkpt lat="40.712733808904886" lon="13.9547158498317">
        <ele>239.02000000000001</ele>
        <time>2018-09-24T10:04:35Z</time>
      </trkpt>
      <trkpt lat="40.712736742570996" lon="13.954715095460415">
        <ele>239.02000000000001</ele>
        <time>2018-09-24T10:04:58Z</time>
      </trkpt>
      <trkpt lat="40.712749985978007" lon="13.95473588258028">
        <ele>238.53999999999999</ele>
        <time>2018-09-24T10:05:09Z</time>
      </trkpt>
      <trkpt lat="40.712713776156306" lon="13.954733200371265">
        <ele>239.02000000000001</ele>
        <time>2018-09-24T10:05:30Z</time>
      </trkpt>
      <trkpt lat="40.712726432830095" lon="13.95473881624639">
        <ele>239.02000000000001</ele>
        <time>2018-09-24T10:05:50Z</time>
      </trkpt>
      <trkpt lat="40.712749734520912" lon="13.954740995541215">
        <ele>239.02000000000001</ele>
        <time>2018-09-24T10:06:04Z</time>
      </trkpt>
      <trkpt lat="40.712761888280511" lon="13.954715179279447">
        <ele>239.02000000000001</ele>
        <time>2018-09-24T10:06:23Z</time>
      </trkpt>
      <trkpt lat="40.712732886895537" lon="13.954707300290465">
        <ele>238.53999999999999</ele>
        <time>2018-09-24T10:06:49Z</time>
      </trkpt>
      <trkpt lat="40.712753422558308" lon="13.954747868701816">
        <ele>238.53999999999999</ele>
        <time>2018-09-24T10:07:10Z</time>
      </trkpt>
      <trkpt lat="40.712588215246797" lon="13.954854486510158">
        <ele>238.53999999999999</ele>
        <time>2018-09-24T10:07:45Z</time>
      </trkpt>
      <trkpt lat="40.712758954614401" lon="13.954704282805324">
        <ele>238.06</ele>
        <time>2018-09-24T10:08:02Z</time>
      </trkpt>
      <trkpt lat="40.712754931300879" lon="13.954712497070432">
        <ele>238.06</ele>
        <time>2018-09-24T10:08:16Z</time>
      </trkpt>
      <trkpt lat="40.712765660136938" lon="13.95472020842135">
        <ele>238.53999999999999</ele>
        <time>2018-09-24T10:08:28Z</time>
      </trkpt>
      <trkpt lat="40.712744202464819" lon="13.954721884801984">
        <ele>238.53999999999999</ele>
        <time>2018-09-24T10:08:47Z</time>
      </trkpt>
      <trkpt lat="40.712779490277171" lon="13.954719370231032">
        <ele>238.53999999999999</ele>
        <time>2018-09-24T10:09:08Z</time>
      </trkpt>
      <trkpt lat="40.712750488892198" lon="13.95469824783504">
        <ele>238.53999999999999</ele>
        <time>2018-09-24T10:09:31Z</time>
      </trkpt>
      <trkpt lat="40.712763145565987" lon="13.954723477363586">
        <ele>238.06</ele>
        <time>2018-09-24T10:09:52Z</time>
      </trkpt>
      <trkpt lat="40.712754763662815" lon="13.954762453213334">
        <ele>238.06</ele>
        <time>2018-09-24T10:10:13Z</time>
      </trkpt>
      <trkpt lat="40.712766330689192" lon="13.954729344695807">
        <ele>238.53999999999999</ele>
        <time>2018-09-24T10:10:34Z</time>
      </trkpt>
      <trkpt lat="40.712745543569326" lon="13.954760441556573">
        <ele>238.06</ele>
        <time>2018-09-24T10:10:52Z</time>
      </trkpt>
      <trkpt lat="40.712741436436772" lon="13.954711994156241">
        <ele>238.53999999999999</ele>
        <time>2018-09-24T10:11:12Z</time>
      </trkpt>
      <trkpt lat="40.712760798633099" lon="13.954698918387294">
        <ele>238.53999999999999</ele>
        <time>2018-09-24T10:11:28Z</time>
      </trkpt>
      <trkpt lat="40.712767085060477" lon="13.95470604300499">
        <ele>238.53999999999999</ele>
        <time>2018-09-24T10:11:54Z</time>
      </trkpt>
      <trkpt lat="40.712754931300879" lon="13.954710485413671">
        <ele>238.06</ele>
        <time>2018-09-24T10:12:18Z</time>
      </trkpt>
      <trkpt lat="40.712744873017073" lon="13.954718029126525">
        <ele>238.06</ele>
        <time>2018-09-24T10:12:41Z</time>
      </trkpt>
      <trkpt lat="40.712743112817407" lon="13.954710988327861">
        <ele>238.06</ele>
        <time>2018-09-24T10:13:02Z</time>
      </trkpt>
      <trkpt lat="40.712752919644117" lon="13.954722471535206">
        <ele>238.06</ele>
        <time>2018-09-24T10:13:19Z</time>
      </trkpt>
      <trkpt lat="40.712737077847123" lon="13.954762369394302">
        <ele>238.06</ele>
        <time>2018-09-24T10:13:45Z</time>
      </trkpt>
      <trkpt lat="40.712745292112231" lon="13.954757172614336">
        <ele>238.06</ele>
        <time>2018-09-24T10:14:06Z</time>
      </trkpt>
      <trkpt lat="40.712740011513233" lon="13.954769410192966">
        <ele>238.53999999999999</ele>
        <time>2018-09-24T10:14:21Z</time>
      </trkpt>
      <trkpt lat="40.712748058140278" lon="13.954768655821681">
        <ele>238.06</ele>
        <time>2018-09-24T10:14:44Z</time>
      </trkpt>
      <trkpt lat="40.712753506377339" lon="13.954742085188627">
        <ele>238.53999999999999</ele>
        <time>2018-09-24T10:15:01Z</time>
      </trkpt>
      <trkpt lat="40.712749231606722" lon="13.954742839559913">
        <ele>238.53999999999999</ele>
        <time>2018-09-24T10:15:21Z</time>
      </trkpt>
      <trkpt lat="40.712730539962649" lon="13.954700762405992">
        <ele>238.53999999999999</ele>
        <time>2018-09-24T10:15:39Z</time>
      </trkpt>
      <trkpt lat="40.712753338739276" lon="13.954749796539545">
        <ele>239.02000000000001</ele>
        <time>2018-09-24T10:15:59Z</time>
      </trkpt>
      <trkpt lat="40.71274621412158" lon="13.954738061875105">
        <ele>238.53999999999999</ele>
        <time>2018-09-24T10:16:17Z</time>
      </trkpt>
      <trkpt lat="40.712742609903216" lon="13.954715179279447">
        <ele>238.53999999999999</ele>
        <time>2018-09-24T10:16:32Z</time>
      </trkpt>
      <trkpt lat="40.712764067575336" lon="13.954700343310833">
        <ele>238.53999999999999</ele>
        <time>2018-09-24T10:16:47Z</time>
      </trkpt>
      <trkpt lat="40.712785692885518" lon="13.954694559797645">
        <ele>238.53999999999999</ele>
        <time>2018-09-24T10:16:59Z</time>
      </trkpt>
      <trkpt lat="40.712855011224747" lon="13.954737307503819">
        <ele>238.53999999999999</ele>
        <time>2018-09-24T10:17:11Z</time>
      </trkpt>
      <trkpt lat="40.712939500808716" lon="13.954747281968594">
        <ele>238.06</ele>
        <time>2018-09-24T10:17:22Z</time>
      </trkpt>
      <trkpt lat="40.713020302355289" lon="13.954741582274437">
        <ele>238.06</ele>
        <time>2018-09-24T10:17:33Z</time>
      </trkpt>
      <trkpt lat="40.713056763634086" lon="13.954760106280446">
        <ele>237.09999999999999</ele>
        <time>2018-09-24T10:17:45Z</time>
      </trkpt>
      <trkpt lat="40.713120466098189" lon="13.954802351072431">
        <ele>236.62</ele>
        <time>2018-09-24T10:17:56Z</time>
      </trkpt>
      <trkpt lat="40.713202776387334" lon="13.954819869250059">
        <ele>236.13999999999999</ele>
        <time>2018-09-24T10:18:06Z</time>
      </trkpt>
      <trkpt lat="40.713209481909871" lon="13.954853732138872">
        <ele>236.62</ele>
        <time>2018-09-24T10:18:13Z</time>
      </trkpt>
      <trkpt lat="40.713218869641423" lon="13.954848870635033">
        <ele>236.62</ele>
        <time>2018-09-24T10:18:22Z</time>
      </trkpt>
      <trkpt lat="40.713328840211034" lon="13.954961020499468">
        <ele>236.13999999999999</ele>
        <time>2018-09-24T10:18:34Z</time>
      </trkpt>
      <trkpt lat="40.713432775810361" lon="13.955142488703132">
        <ele>235.66</ele>
        <time>2018-09-24T10:18:48Z</time>
      </trkpt>
      <trkpt lat="40.713518857955933" lon="13.955257991328835">
        <ele>236.13999999999999</ele>
        <time>2018-09-24T10:19:01Z</time>
      </trkpt>
      <trkpt lat="40.713519025593996" lon="13.955461252480745">
        <ele>235.18000000000001</ele>
        <time>2018-09-24T10:19:14Z</time>
      </trkpt>
      <trkpt lat="40.713628828525543" lon="13.955613635480404">
        <ele>234.22</ele>
        <time>2018-09-24T10:19:27Z</time>
      </trkpt>
      <trkpt lat="40.713634695857763" lon="13.955618245527148">
        <ele>234.22</ele>
        <time>2018-09-24T10:19:28Z</time>
      </trkpt>
      <trkpt lat="40.713747180998325" lon="13.95566375926137">
        <ele>232.30000000000001</ele>
        <time>2018-09-24T10:19:39Z</time>
      </trkpt>
      <trkpt lat="40.713765537366271" lon="13.95574489608407">
        <ele>231.33000000000001</ele>
        <time>2018-09-24T10:19:48Z</time>
      </trkpt>
      <trkpt lat="40.713764615356922" lon="13.955776076763868">
        <ele>230.84999999999999</ele>
        <time>2018-09-24T10:20:02Z</time>
      </trkpt>
      <trkpt lat="40.713779535144567" lon="13.955815220251679">
        <ele>231.33000000000001</ele>
        <time>2018-09-24T10:20:15Z</time>
      </trkpt>
      <trkpt lat="40.71379579603672" lon="13.955839863047004">
        <ele>231.33000000000001</ele>
        <time>2018-09-24T10:20:28Z</time>
      </trkpt>
      <trkpt lat="40.71385539136827" lon="13.955890405923128">
        <ele>232.78</ele>
        <time>2018-09-24T10:20:38Z</time>
      </trkpt>
      <trkpt lat="40.713849775493145" lon="13.955907337367535">
        <ele>231.33000000000001</ele>
        <time>2018-09-24T10:20:53Z</time>
      </trkpt>
      <trkpt lat="40.713873244822025" lon="13.955935081467032">
        <ele>230.37</ele>
        <time>2018-09-24T10:21:06Z</time>
      </trkpt>
      <trkpt lat="40.713900066912174" lon="13.956052931025624">
        <ele>229.88999999999999</ele>
        <time>2018-09-24T10:21:17Z</time>
      </trkpt>
      <trkpt lat="40.713844997808337" lon="13.956121075898409">
        <ele>229.88999999999999</ele>
        <time>2018-09-24T10:21:25Z</time>
      </trkpt>
      <trkpt lat="40.713833766058087" lon="13.956286869943142">
        <ele>229.41</ele>
        <time>2018-09-24T10:21:39Z</time>
      </trkpt>
      <trkpt lat="40.713837873190641" lon="13.956390973180532">
        <ele>228.44999999999999</ele>
        <time>2018-09-24T10:21:50Z</time>
      </trkpt>
      <trkpt lat="40.713813649490476" lon="13.956439672037959">
        <ele>228.44999999999999</ele>
        <time>2018-09-24T10:22:00Z</time>
      </trkpt>
      <trkpt lat="40.713795460760593" lon="13.956550816074014">
        <ele>228.93000000000001</ele>
        <time>2018-09-24T10:22:12Z</time>
      </trkpt>
      <trkpt lat="40.713758999481797" lon="13.956669755280018">
        <ele>228.93000000000001</ele>
        <time>2018-09-24T10:22:23Z</time>
      </trkpt>
      <trkpt lat="40.713775595650077" lon="13.956776959821582">
        <ele>228.93000000000001</ele>
        <time>2018-09-24T10:22:34Z</time>
      </trkpt>
      <trkpt lat="40.713895540684462" lon="13.956968318670988">
        <ele>228.44999999999999</ele>
        <time>2018-09-24T10:22:48Z</time>
      </trkpt>
      <trkpt lat="40.713975168764591" lon="13.957106620073318">
        <ele>228.93000000000001</ele>
        <time>2018-09-24T10:23:01Z</time>
      </trkpt>
      <trkpt lat="40.714012049138546" lon="13.957077786326408">
        <ele>229.88999999999999</ele>
        <time>2018-09-24T10:23:12Z</time>
      </trkpt>
      <trkpt lat="40.714009618386626" lon="13.95717216655612">
        <ele>231.81</ele>
        <time>2018-09-24T10:23:24Z</time>
      </trkpt>
      <trkpt lat="40.714057227596641" lon="13.957287836819887">
        <ele>231.81</ele>
        <time>2018-09-24T10:23:35Z</time>
      </trkpt>
      <trkpt lat="40.714097125455737" lon="13.957371488213539">
        <ele>232.30000000000001</ele>
        <time>2018-09-24T10:23:46Z</time>
      </trkpt>
      <trkpt lat="40.714145237579942" lon="13.957434436306357">
        <ele>232.30000000000001</ele>
        <time>2018-09-24T10:23:58Z</time>
      </trkpt>
      <trkpt lat="40.714206593111157" lon="13.957505263388157">
        <ele>232.30000000000001</ele>
        <time>2018-09-24T10:24:10Z</time>
      </trkpt>
      <trkpt lat="40.714280940592289" lon="13.957575671374798">
        <ele>231.81</ele>
        <time>2018-09-24T10:24:23Z</time>
      </trkpt>
      <trkpt lat="40.71432838216424" lon="13.957639038562775">
        <ele>231.81</ele>
        <time>2018-09-24T10:24:34Z</time>
      </trkpt>
      <trkpt lat="40.714375237002969" lon="13.957784129306674">
        <ele>229.88999999999999</ele>
        <time>2018-09-24T10:24:48Z</time>
      </trkpt>
      <trkpt lat="40.714398119598627" lon="13.957812460139394">
        <ele>228.93000000000001</ele>
        <time>2018-09-24T10:24:58Z</time>
      </trkpt>
      <trkpt lat="40.714479675516486" lon="13.957887226715684">
        <ele>229.41</ele>
        <time>2018-09-24T10:25:10Z</time>
      </trkpt>
      <trkpt lat="40.714600123465061" lon="13.957963585853577">
        <ele>229.41</ele>
        <time>2018-09-24T10:25:24Z</time>
      </trkpt>
      <trkpt lat="40.714676566421986" lon="13.958081267774105">
        <ele>229.88999999999999</ele>
        <time>2018-09-24T10:25:37Z</time>
      </trkpt>
      <trkpt lat="40.714773712679744" lon="13.958187885582447">
        <ele>230.84999999999999</ele>
        <time>2018-09-24T10:25:50Z</time>
      </trkpt>
      <trkpt lat="40.714842611923814" lon="13.958228873088956">
        <ele>232.30000000000001</ele>
        <time>2018-09-24T10:25:59Z</time>
      </trkpt>
      <trkpt lat="40.714882845059037" lon="13.958286037668586">
        <ele>231.81</ele>
        <time>2018-09-24T10:26:09Z</time>
      </trkpt>
      <trkpt lat="40.714936573058367" lon="13.958379914984107">
        <ele>230.37</ele>
        <time>2018-09-24T10:26:22Z</time>
      </trkpt>
      <trkpt lat="40.71505157276988" lon="13.958468679338694">
        <ele>227.49000000000001</ele>
        <time>2018-09-24T10:26:38Z</time>
      </trkpt>
      <trkpt lat="40.715070348232985" lon="13.958427608013153">
        <ele>227.00999999999999</ele>
        <time>2018-09-24T10:26:51Z</time>
      </trkpt>
      <trkpt lat="40.715096080675721" lon="13.958421405404806">
        <ele>227.00999999999999</ele>
        <time>2018-09-24T10:26:58Z</time>
      </trkpt>
      <trkpt lat="40.715097757056355" lon="13.958411095663905">
        <ele>227.49000000000001</ele>
        <time>2018-09-24T10:27:09Z</time>
      </trkpt>
      <trkpt lat="40.715096835047007" lon="13.958411850035191">
        <ele>227.00999999999999</ele>
        <time>2018-09-24T10:27:22Z</time>
      </trkpt>
      <trkpt lat="40.715089878067374" lon="13.9584044739604">
        <ele>227.49000000000001</ele>
        <time>2018-09-24T10:27:36Z</time>
      </trkpt>
      <trkpt lat="40.715112676844001" lon="13.958367425948381">
        <ele>227.49000000000001</ele>
        <time>2018-09-24T10:27:50Z</time>
      </trkpt>
      <trkpt lat="40.715135140344501" lon="13.958340687677264">
        <ele>227.49000000000001</ele>
        <time>2018-09-24T10:27:54Z</time>
      </trkpt>
      <trkpt lat="40.715250223875046" lon="13.958258628845215">
        <ele>227.49000000000001</ele>
        <time>2018-09-24T10:28:09Z</time>
      </trkpt>
      <trkpt lat="40.715296911075711" lon="13.958221077919006">
        <ele>227.49000000000001</ele>
        <time>2018-09-24T10:28:22Z</time>
      </trkpt>
      <trkpt lat="40.715367402881384" lon="13.958230717107654">
        <ele>226.53</ele>
        <time>2018-09-24T10:28:35Z</time>
      </trkpt>
      <trkpt lat="40.715402942150831" lon="13.958273883908987">
        <ele>226.05000000000001</ele>
        <time>2018-09-24T10:28:40Z</time>
      </trkpt>
      <trkpt lat="40.715492879971862" lon="13.958337334915996">
        <ele>226.05000000000001</ele>
        <time>2018-09-24T10:28:52Z</time>
      </trkpt>
      <trkpt lat="40.715523054823279" lon="13.958378657698631">
        <ele>226.05000000000001</ele>
        <time>2018-09-24T10:28:58Z</time>
      </trkpt>
      <trkpt lat="40.715574854984879" lon="13.958547469228506">
        <ele>226.53</ele>
        <time>2018-09-24T10:29:12Z</time>
      </trkpt>
      <trkpt lat="40.715595306828618" lon="13.958659702911973">
        <ele>226.05000000000001</ele>
        <time>2018-09-24T10:29:24Z</time>
      </trkpt>
      <trkpt lat="40.715563287958503" lon="13.958731284365058">
        <ele>225.09</ele>
        <time>2018-09-24T10:29:31Z</time>
      </trkpt>
      <trkpt lat="40.715551637113094" lon="13.958830023184419">
        <ele>224.12</ele>
        <time>2018-09-24T10:29:43Z</time>
      </trkpt>
      <trkpt lat="40.715610310435295" lon="13.958956087008119">
        <ele>222.68000000000001</ele>
        <time>2018-09-24T10:29:56Z</time>
      </trkpt>
      <trkpt lat="40.71562422439456" lon="13.959021382033825">
        <ele>222.68000000000001</ele>
        <time>2018-09-24T10:30:02Z</time>
      </trkpt>
      <trkpt lat="40.715660266578197" lon="13.959063123911619">
        <ele>222.68000000000001</ele>
        <time>2018-09-24T10:30:07Z</time>
      </trkpt>
      <trkpt lat="40.715655907988548" lon="13.959079636260867">
        <ele>222.68000000000001</ele>
        <time>2018-09-24T10:30:19Z</time>
      </trkpt>
      <trkpt lat="40.71565548889339" lon="13.959102854132652">
        <ele>222.68000000000001</ele>
        <time>2018-09-24T10:30:41Z</time>
      </trkpt>
      <trkpt lat="40.715656410902739" lon="13.959113834425807">
        <ele>222.19999999999999</ele>
        <time>2018-09-24T10:31:04Z</time>
      </trkpt>
      <trkpt lat="40.715656159445643" lon="13.959099417552352">
        <ele>222.68000000000001</ele>
        <time>2018-09-24T10:31:20Z</time>
      </trkpt>
      <trkpt lat="40.715662697330117" lon="13.95908952690661">
        <ele>222.19999999999999</ele>
        <time>2018-09-24T10:31:39Z</time>
      </trkpt>
      <trkpt lat="40.715668480843306" lon="13.959097824990749">
        <ele>222.68000000000001</ele>
        <time>2018-09-24T10:31:59Z</time>
      </trkpt>
      <trkpt lat="40.715670073404908" lon="13.95906463265419">
        <ele>222.68000000000001</ele>
        <time>2018-09-24T10:32:12Z</time>
      </trkpt>
      <trkpt lat="40.715640569105744" lon="13.959044516086578">
        <ele>222.68000000000001</ele>
        <time>2018-09-24T10:32:16Z</time>
      </trkpt>
      <trkpt lat="40.715570664033294" lon="13.958985256031156">
        <ele>223.16</ele>
        <time>2018-09-24T10:32:26Z</time>
      </trkpt>
      <trkpt lat="40.715568065643311" lon="13.958976538851857">
        <ele>222.19999999999999</ele>
        <time>2018-09-24T10:32:34Z</time>
      </trkpt>
      <trkpt lat="40.71557292714715" lon="13.958984166383743">
        <ele>222.19999999999999</ele>
        <time>2018-09-24T10:32:51Z</time>
      </trkpt>
      <trkpt lat="40.715534286573529" lon="13.958987016230822">
        <ele>222.68000000000001</ele>
        <time>2018-09-24T10:33:06Z</time>
      </trkpt>
      <trkpt lat="40.715522468090057" lon="13.958997577428818">
        <ele>222.68000000000001</ele>
        <time>2018-09-24T10:33:17Z</time>
      </trkpt>
      <trkpt lat="40.715534538030624" lon="13.958992045372725">
        <ele>222.68000000000001</ele>
        <time>2018-09-24T10:33:45Z</time>
      </trkpt>
      <trkpt lat="40.71554752998054" lon="13.95899866707623">
        <ele>222.19999999999999</ele>
        <time>2018-09-24T10:34:07Z</time>
      </trkpt>
      <trkpt lat="40.715545602142811" lon="13.958996739238501">
        <ele>222.19999999999999</ele>
        <time>2018-09-24T10:34:19Z</time>
      </trkpt>
      <trkpt lat="40.715550379827619" lon="13.958984334021807">
        <ele>222.19999999999999</ele>
        <time>2018-09-24T10:34:47Z</time>
      </trkpt>
      <trkpt lat="40.715545015409589" lon="13.958954913541675">
        <ele>221.72</ele>
        <time>2018-09-24T10:35:14Z</time>
      </trkpt>
      <trkpt lat="40.715520121157169" lon="13.958963630720973">
        <ele>222.19999999999999</ele>
        <time>2018-09-24T10:35:42Z</time>
      </trkpt>
      <trkpt lat="40.715513415634632" lon="13.958970503881574">
        <ele>222.19999999999999</ele>
        <time>2018-09-24T10:36:13Z</time>
      </trkpt>
      <trkpt lat="40.715515008196235" lon="13.958971761167049">
        <ele>222.19999999999999</ele>
        <time>2018-09-24T10:36:37Z</time>
      </trkpt>
      <trkpt lat="40.715533196926117" lon="13.958972180262208">
        <ele>222.19999999999999</ele>
        <time>2018-09-24T10:36:59Z</time>
      </trkpt>
      <trkpt lat="40.71552062407136" lon="13.958968911319971">
        <ele>222.19999999999999</ele>
        <time>2018-09-24T10:37:25Z</time>
      </trkpt>
      <trkpt lat="40.715510062873363" lon="13.958993135020137">
        <ele>222.19999999999999</ele>
        <time>2018-09-24T10:37:49Z</time>
      </trkpt>
      <trkpt lat="40.715560186654329" lon="13.958977460861206">
        <ele>222.68000000000001</ele>
        <time>2018-09-24T10:38:06Z</time>
      </trkpt>
      <trkpt lat="40.715573765337467" lon="13.958970084786415">
        <ele>222.68000000000001</ele>
        <time>2018-09-24T10:38:20Z</time>
      </trkpt>
      <trkpt lat="40.715596312656999" lon="13.958970755338669">
        <ele>222.68000000000001</ele>
        <time>2018-09-24T10:38:34Z</time>
      </trkpt>
      <trkpt lat="40.715602682903409" lon="13.958970000967383">
        <ele>222.68000000000001</ele>
        <time>2018-09-24T10:38:49Z</time>
      </trkpt>
      <trkpt lat="40.71559782139957" lon="13.958975616842508">
        <ele>222.68000000000001</ele>
        <time>2018-09-24T10:39:06Z</time>
      </trkpt>
      <trkpt lat="40.715601090341806" lon="13.958978885784745">
        <ele>222.19999999999999</ele>
        <time>2018-09-24T10:39:27Z</time>
      </trkpt>
      <trkpt lat="40.715669235214591" lon="13.958985926583409">
        <ele>221.72</ele>
        <time>2018-09-24T10:39:40Z</time>
      </trkpt>
      <trkpt lat="40.715686250478029" lon="13.958990117534995">
        <ele>221.24000000000001</ele>
        <time>2018-09-24T10:39:49Z</time>
      </trkpt>
      <trkpt lat="40.71577082388103" lon="13.958990536630154">
        <ele>220.28</ele>
        <time>2018-09-24T10:40:01Z</time>
      </trkpt>
      <trkpt lat="40.715852547436953" lon="13.958960110321641">
        <ele>219.31999999999999</ele>
        <time>2018-09-24T10:40:13Z</time>
      </trkpt>
      <trkpt lat="40.715941814705729" lon="13.958929348737001">
        <ele>217.88</ele>
        <time>2018-09-24T10:40:24Z</time>
      </trkpt>
      <trkpt lat="40.716073326766491" lon="13.958935551345348">
        <ele>215.47</ele>
        <time>2018-09-24T10:40:38Z</time>
      </trkpt>
      <trkpt lat="40.716151027008891" lon="13.958998918533325">
        <ele>213.55000000000001</ele>
        <time>2018-09-24T10:40:49Z</time>
      </trkpt>
      <trkpt lat="40.716192601248622" lon="13.959121545776725">
        <ele>211.63</ele>
        <time>2018-09-24T10:41:02Z</time>
      </trkpt>
      <trkpt lat="40.716142226010561" lon="13.95909246057272">
        <ele>210.66999999999999</ele>
        <time>2018-09-24T10:41:07Z</time>
      </trkpt>
      <trkpt lat="40.716084642335773" lon="13.959041833877563">
        <ele>209.22</ele>
        <time>2018-09-24T10:41:15Z</time>
      </trkpt>
      <trkpt lat="40.716168042272329" lon="13.959154151380062">
        <ele>206.34</ele>
        <time>2018-09-24T10:41:26Z</time>
      </trkpt>
      <trkpt lat="40.716244066134095" lon="13.959265379235148">
        <ele>203.94</ele>
        <time>2018-09-24T10:41:37Z</time>
      </trkpt>
      <trkpt lat="40.716271139681339" lon="13.959295134991407">
        <ele>203.46000000000001</ele>
        <time>2018-09-24T10:41:41Z</time>
      </trkpt>
      <trkpt lat="40.716289998963475" lon="13.959437794983387">
        <ele>201.05000000000001</ele>
        <time>2018-09-24T10:41:53Z</time>
      </trkpt>
      <trkpt lat="40.716254040598869" lon="13.959577269852161">
        <ele>198.16999999999999</ele>
        <time>2018-09-24T10:42:04Z</time>
      </trkpt>
      <trkpt lat="40.716188997030258" lon="13.959710793569684">
        <ele>196.25</ele>
        <time>2018-09-24T10:42:17Z</time>
      </trkpt>
      <trkpt lat="40.716210454702377" lon="13.959802407771349">
        <ele>194.31999999999999</ele>
        <time>2018-09-24T10:42:26Z</time>
      </trkpt>
      <trkpt lat="40.716336769983172" lon="13.959822105243802">
        <ele>193.36000000000001</ele>
        <time>2018-09-24T10:42:39Z</time>
      </trkpt>
      <trkpt lat="40.716425618156791" lon="13.959810202941298">
        <ele>192.40000000000001</ele>
        <time>2018-09-24T10:42:49Z</time>
      </trkpt>
      <trkpt lat="40.716543216258287" lon="13.959793942049146">
        <ele>190</ele>
        <time>2018-09-24T10:43:01Z</time>
      </trkpt>
      <trkpt lat="40.716644888743758" lon="13.959767874330282">
        <ele>188.08000000000001</ele>
        <time>2018-09-24T10:43:12Z</time>
      </trkpt>
      <trkpt lat="40.716702220961452" lon="13.959751948714256">
        <ele>187.11000000000001</ele>
        <time>2018-09-24T10:43:18Z</time>
      </trkpt>
      <trkpt lat="40.716830883175135" lon="13.95970324985683">
        <ele>185.66999999999999</ele>
        <time>2018-09-24T10:43:31Z</time>
      </trkpt>
      <trkpt lat="40.716933477669954" lon="13.95969009026885">
        <ele>185.19</ele>
        <time>2018-09-24T10:43:40Z</time>
      </trkpt>
      <trkpt lat="40.716999107971787" lon="13.959874995052814">
        <ele>185.19</ele>
        <time>2018-09-24T10:43:53Z</time>
      </trkpt>
      <trkpt lat="40.717077059671283" lon="13.960024025291204">
        <ele>185.19</ele>
        <time>2018-09-24T10:44:05Z</time>
      </trkpt>
      <trkpt lat="40.717175463214517" lon="13.960182275623083">
        <ele>185.66999999999999</ele>
        <time>2018-09-24T10:44:19Z</time>
      </trkpt>
      <trkpt lat="40.717211002483964" lon="13.96029744297266">
        <ele>185.66999999999999</ele>
        <time>2018-09-24T10:44:27Z</time>
      </trkpt>
      <trkpt lat="40.717280320823193" lon="13.960492992773652">
        <ele>185.66999999999999</ele>
        <time>2018-09-24T10:44:41Z</time>
      </trkpt>
      <trkpt lat="40.71732172742486" lon="13.960603047162294">
        <ele>186.15000000000001</ele>
        <time>2018-09-24T10:44:50Z</time>
      </trkpt>
      <trkpt lat="40.717364642769098" lon="13.960669180378318">
        <ele>186.63</ele>
        <time>2018-09-24T10:44:56Z</time>
      </trkpt>
      <trkpt lat="40.717386938631535" lon="13.960691140964627">
        <ele>186.63</ele>
        <time>2018-09-24T10:44:59Z</time>
      </trkpt>
      <trkpt lat="40.717391464859247" lon="13.960714777931571">
        <ele>186.63</ele>
        <time>2018-09-24T10:45:01Z</time>
      </trkpt>
      <trkpt lat="40.717510906979442" lon="13.960833214223385">
        <ele>187.11000000000001</ele>
        <time>2018-09-24T10:45:16Z</time>
      </trkpt>
      <trkpt lat="40.717630265280604" lon="13.960892725735903">
        <ele>187.59</ele>
        <time>2018-09-24T10:45:28Z</time>
      </trkpt>
      <trkpt lat="40.717766471207142" lon="13.960919799283147">
        <ele>188.56</ele>
        <time>2018-09-24T10:45:40Z</time>
      </trkpt>
      <trkpt lat="40.717924134805799" lon="13.961004791781306">
        <ele>188.56</ele>
        <time>2018-09-24T10:45:54Z</time>
      </trkpt>
      <trkpt lat="40.718019101768732" lon="13.9610362239182">
        <ele>188.08000000000001</ele>
        <time>2018-09-24T10:46:06Z</time>
      </trkpt>
      <trkpt lat="40.718137621879578" lon="13.961075283586979">
        <ele>188.08000000000001</ele>
        <time>2018-09-24T10:46:20Z</time>
      </trkpt>
      <trkpt lat="40.718230661004782" lon="13.961071092635393">
        <ele>187.11000000000001</ele>
        <time>2018-09-24T10:46:32Z</time>
      </trkpt>
      <trkpt lat="40.718283466994762" lon="13.96105919033289">
        <ele>186.63</ele>
        <time>2018-09-24T10:46:38Z</time>
      </trkpt>
      <trkpt lat="40.718434760347009" lon="13.961017532274127">
        <ele>186.15000000000001</ele>
        <time>2018-09-24T10:46:52Z</time>
      </trkpt>
      <trkpt lat="40.71857750415802" lon="13.960946286097169">
        <ele>185.66999999999999</ele>
        <time>2018-09-24T10:47:07Z</time>
      </trkpt>
      <trkpt lat="40.718715554103255" lon="13.960923571139574">
        <ele>186.15000000000001</ele>
        <time>2018-09-24T10:47:19Z</time>
      </trkpt>
      <trkpt lat="40.71884086355567" lon="13.960874537006021">
        <ele>185.66999999999999</ele>
        <time>2018-09-24T10:47:31Z</time>
      </trkpt>
      <trkpt lat="40.718981763347983" lon="13.960846792906523">
        <ele>185.19</ele>
        <time>2018-09-24T10:47:44Z</time>
      </trkpt>
      <trkpt lat="40.719067510217428" lon="13.960837153717875">
        <ele>184.71000000000001</ele>
        <time>2018-09-24T10:47:56Z</time>
      </trkpt>
      <trkpt lat="40.719129787757993" lon="13.960816534236073">
        <ele>184.22999999999999</ele>
        <time>2018-09-24T10:48:06Z</time>
      </trkpt>
      <trkpt lat="40.719203297048807" lon="13.960806727409363">
        <ele>182.78999999999999</ele>
        <time>2018-09-24T10:48:18Z</time>
      </trkpt>
      <trkpt lat="40.719308573752642" lon="13.960783258080482">
        <ele>180.38</ele>
        <time>2018-09-24T10:48:30Z</time>
      </trkpt>
      <trkpt lat="40.719353333115578" lon="13.960732212290168">
        <ele>179.41999999999999</ele>
        <time>2018-09-24T10:48:38Z</time>
      </trkpt>
      <trkpt lat="40.719365319237113" lon="13.960687117651105">
        <ele>178.94</ele>
        <time>2018-09-24T10:48:41Z</time>
      </trkpt>
      <trkpt lat="40.719433128833771" lon="13.960634982213378">
        <ele>177.5</ele>
        <time>2018-09-24T10:48:50Z</time>
      </trkpt>
      <trkpt lat="40.719597078859806" lon="13.960716119036078">
        <ele>176.53999999999999</ele>
        <time>2018-09-24T10:49:01Z</time>
      </trkpt>
      <trkpt lat="40.719655584543943" lon="13.960656188428402">
        <ele>176.06</ele>
        <time>2018-09-24T10:49:11Z</time>
      </trkpt>
      <trkpt lat="40.719722807407379" lon="13.960588127374649">
        <ele>176.53999999999999</ele>
        <time>2018-09-24T10:49:21Z</time>
      </trkpt>
      <trkpt lat="40.719767902046442" lon="13.960570273920894">
        <ele>176.06</ele>
        <time>2018-09-24T10:49:30Z</time>
      </trkpt>
      <trkpt lat="40.719824731349945" lon="13.960507744923234">
        <ele>176.06</ele>
        <time>2018-09-24T10:49:39Z</time>
      </trkpt>
      <trkpt lat="40.719854654744267" lon="13.960466757416725">
        <ele>175.09999999999999</ele>
        <time>2018-09-24T10:49:44Z</time>
      </trkpt>
      <trkpt lat="40.719944424927235" lon="13.96039224229753">
        <ele>173.66</ele>
        <time>2018-09-24T10:49:56Z</time>
      </trkpt>
      <trkpt lat="40.720029920339584" lon="13.960353769361973">
        <ele>172.69</ele>
        <time>2018-09-24T10:50:05Z</time>
      </trkpt>
      <trkpt lat="40.720142405480146" lon="13.960279421880841">
        <ele>171.72999999999999</ele>
        <time>2018-09-24T10:50:19Z</time>
      </trkpt>
      <trkpt lat="40.720230080187321" lon="13.960215887054801">
        <ele>170.77000000000001</ele>
        <time>2018-09-24T10:50:30Z</time>
      </trkpt>
      <trkpt lat="40.720231169834733" lon="13.960210690274835">
        <ele>170.77000000000001</ele>
        <time>2018-09-24T10:50:35Z</time>
      </trkpt>
      <trkpt lat="40.720359412953258" lon="13.960093008354306">
        <ele>169.81</ele>
        <time>2018-09-24T10:50:49Z</time>
      </trkpt>
      <trkpt lat="40.720440717414021" lon="13.959998041391373">
        <ele>168.84999999999999</ele>
        <time>2018-09-24T10:51:00Z</time>
      </trkpt>
      <trkpt lat="40.720552196726203" lon="13.959888322278857">
        <ele>167.41</ele>
        <time>2018-09-24T10:51:15Z</time>
      </trkpt>
      <trkpt lat="40.72061313316226" lon="13.959803162142634">
        <ele>167.41</ele>
        <time>2018-09-24T10:51:25Z</time>
      </trkpt>
      <trkpt lat="40.720692845061421" lon="13.959669470787048">
        <ele>166.44999999999999</ele>
        <time>2018-09-24T10:51:37Z</time>
      </trkpt>
      <trkpt lat="40.720737604424357" lon="13.959594871848822">
        <ele>166.44999999999999</ele>
        <time>2018-09-24T10:51:46Z</time>
      </trkpt>
      <trkpt lat="40.720779849216342" lon="13.959511136636138">
        <ele>165.47999999999999</ele>
        <time>2018-09-24T10:51:53Z</time>
      </trkpt>
      <trkpt lat="40.720845395699143" lon="13.959433268755674">
        <ele>165.47999999999999</ele>
        <time>2018-09-24T10:52:03Z</time>
      </trkpt>
      <trkpt lat="40.720909852534533" lon="13.959323298186064">
        <ele>165</ele>
        <time>2018-09-24T10:52:16Z</time>
      </trkpt>
      <trkpt lat="40.720913792029023" lon="13.959332183003426">
        <ele>165</ele>
        <time>2018-09-24T10:52:27Z</time>
      </trkpt>
      <trkpt lat="40.720952264964581" lon="13.95928842946887">
        <ele>165</ele>
        <time>2018-09-24T10:52:36Z</time>
      </trkpt>
      <trkpt lat="40.72096936404705" lon="13.959296895191073">
        <ele>165</ele>
        <time>2018-09-24T10:52:55Z</time>
      </trkpt>
      <trkpt lat="40.720971543341875" lon="13.959315167739987">
        <ele>165</ele>
        <time>2018-09-24T10:53:14Z</time>
      </trkpt>
      <trkpt lat="40.720963748171926" lon="13.959284573793411">
        <ele>165</ele>
        <time>2018-09-24T10:53:27Z</time>
      </trkpt>
      <trkpt lat="40.720939356833696" lon="13.959209807217121">
        <ele>165.96000000000001</ele>
        <time>2018-09-24T10:53:37Z</time>
      </trkpt>
      <trkpt lat="40.720963329076767" lon="13.959248112514615">
        <ele>165</ele>
        <time>2018-09-24T10:53:48Z</time>
      </trkpt>
      <trkpt lat="40.720965759828687" lon="13.959209807217121">
        <ele>165</ele>
        <time>2018-09-24T10:53:58Z</time>
      </trkpt>
      <trkpt lat="40.720944050699472" lon="13.959246603772044">
        <ele>165</ele>
        <time>2018-09-24T10:54:07Z</time>
      </trkpt>
      <trkpt lat="40.720940865576267" lon="13.959227744489908">
        <ele>165.47999999999999</ele>
        <time>2018-09-24T10:54:23Z</time>
      </trkpt>
      <trkpt lat="40.720945475623012" lon="13.959247106686234">
        <ele>165</ele>
        <time>2018-09-24T10:54:32Z</time>
      </trkpt>
      <trkpt lat="40.720949415117502" lon="13.959253560751677">
        <ele>165</ele>
        <time>2018-09-24T10:54:42Z</time>
      </trkpt>
      <trkpt lat="40.720959724858403" lon="13.959192205220461">
        <ele>165</ele>
        <time>2018-09-24T10:54:52Z</time>
      </trkpt>
      <trkpt lat="40.720985373482108" lon="13.959132442250848">
        <ele>164.52000000000001</ele>
        <time>2018-09-24T10:55:04Z</time>
      </trkpt>
      <trkpt lat="40.72100255638361" lon="13.959041330963373">
        <ele>164.03999999999999</ele>
        <time>2018-09-24T10:55:15Z</time>
      </trkpt>
      <trkpt lat="40.720984451472759" lon="13.958988189697266">
        <ele>163.56</ele>
        <time>2018-09-24T10:55:27Z</time>
      </trkpt>
      <trkpt lat="40.720997443422675" lon="13.95896203815937">
        <ele>163.08000000000001</ele>
        <time>2018-09-24T10:55:36Z</time>
      </trkpt>
      <trkpt lat="40.720988810062408" lon="13.958925325423479">
        <ele>163.08000000000001</ele>
        <time>2018-09-24T10:55:49Z</time>
      </trkpt>
      <trkpt lat="40.720990486443043" lon="13.958914931863546">
        <ele>163.08000000000001</ele>
        <time>2018-09-24T10:55:50Z</time>
      </trkpt>
      <trkpt lat="40.721025858074427" lon="13.958907136693597">
        <ele>163.08000000000001</ele>
        <time>2018-09-24T10:56:01Z</time>
      </trkpt>
      <trkpt lat="40.721043795347214" lon="13.958933958783746">
        <ele>162.59999999999999</ele>
        <time>2018-09-24T10:56:12Z</time>
      </trkpt>
      <trkpt lat="40.721064750105143" lon="13.958954997360706">
        <ele>162.12</ele>
        <time>2018-09-24T10:56:32Z</time>
      </trkpt>
      <trkpt lat="40.72102946229279" lon="13.958935467526317">
        <ele>162.12</ele>
        <time>2018-09-24T10:56:53Z</time>
      </trkpt>
      <trkpt lat="40.721033569425344" lon="13.958962624892592">
        <ele>162.12</ele>
        <time>2018-09-24T10:57:04Z</time>
      </trkpt>
      <trkpt lat="40.721040861681104" lon="13.958989698439837">
        <ele>161.63999999999999</ele>
        <time>2018-09-24T10:57:24Z</time>
      </trkpt>
      <trkpt lat="40.721046393737197" lon="13.958959020674229">
        <ele>162.12</ele>
        <time>2018-09-24T10:57:37Z</time>
      </trkpt>
      <trkpt lat="40.721043292433023" lon="13.958952063694596">
        <ele>161.63999999999999</ele>
        <time>2018-09-24T10:57:52Z</time>
      </trkpt>
      <trkpt lat="40.721061145886779" lon="13.958957428112626">
        <ele>162.12</ele>
        <time>2018-09-24T10:58:09Z</time>
      </trkpt>
      <trkpt lat="40.721055110916495" lon="13.958973689004779">
        <ele>162.12</ele>
        <time>2018-09-24T10:58:38Z</time>
      </trkpt>
      <trkpt lat="40.721013620495796" lon="13.958933120593429">
        <ele>162.12</ele>
        <time>2018-09-24T10:59:06Z</time>
      </trkpt>
      <trkpt lat="40.720982104539871" lon="13.958862293511629">
        <ele>162.12</ele>
        <time>2018-09-24T10:59:12Z</time>
      </trkpt>
      <trkpt lat="40.720980428159237" lon="13.958818791434169">
        <ele>162.12</ele>
        <time>2018-09-24T10:59:15Z</time>
      </trkpt>
      <trkpt lat="40.720965173095465" lon="13.958789203315973">
        <ele>161.63999999999999</ele>
        <time>2018-09-24T10:59:26Z</time>
      </trkpt>
      <trkpt lat="40.720972800627351" lon="13.958780486136675">
        <ele>161.63999999999999</ele>
        <time>2018-09-24T10:59:42Z</time>
      </trkpt>
      <trkpt lat="40.72096249088645" lon="13.958776965737343">
        <ele>161.63999999999999</ele>
        <time>2018-09-24T11:00:02Z</time>
      </trkpt>
      <trkpt lat="40.720969447866082" lon="13.958761459216475">
        <ele>161.63999999999999</ele>
        <time>2018-09-24T11:00:04Z</time>
      </trkpt>
      <trkpt lat="40.720955617725849" lon="13.958658780902624">
        <ele>161.63999999999999</ele>
        <time>2018-09-24T11:00:13Z</time>
      </trkpt>
      <trkpt lat="40.720959641039371" lon="13.958644866943359">
        <ele>161.16</ele>
        <time>2018-09-24T11:00:20Z</time>
      </trkpt>
      <trkpt lat="40.720951678231359" lon="13.958532465621829">
        <ele>160.68000000000001</ele>
        <time>2018-09-24T11:00:29Z</time>
      </trkpt>
      <trkpt lat="40.72093759663403" lon="13.958339262753725">
        <ele>160.19999999999999</ele>
        <time>2018-09-24T11:00:42Z</time>
      </trkpt>
      <trkpt lat="40.720924604684114" lon="13.958138432353735">
        <ele>159.72</ele>
        <time>2018-09-24T11:00:56Z</time>
      </trkpt>
      <trkpt lat="40.7208769954741" lon="13.957937182858586">
        <ele>159.24000000000001</ele>
        <time>2018-09-24T11:01:11Z</time>
      </trkpt>
      <trkpt lat="40.720809185877442" lon="13.957788236439228">
        <ele>158.75</ele>
        <time>2018-09-24T11:01:23Z</time>
      </trkpt>
      <trkpt lat="40.72076459415257" lon="13.957692347466946">
        <ele>158.27000000000001</ele>
        <time>2018-09-24T11:01:31Z</time>
      </trkpt>
      <trkpt lat="40.720681445673108" lon="13.957511046901345">
        <ele>158.27000000000001</ele>
        <time>2018-09-24T11:01:44Z</time>
      </trkpt>
      <trkpt lat="40.720610953867435" lon="13.957323124632239">
        <ele>157.78999999999999</ele>
        <time>2018-09-24T11:01:57Z</time>
      </trkpt>
      <trkpt lat="40.720560494810343" lon="13.957134950906038">
        <ele>154.91</ele>
        <time>2018-09-24T11:02:12Z</time>
      </trkpt>
      <trkpt lat="40.720529230311513" lon="13.957037050276995">
        <ele>153.94999999999999</ele>
        <time>2018-09-24T11:02:22Z</time>
      </trkpt>
      <trkpt lat="40.720465695485473" lon="13.956847954541445">
        <ele>153.47</ele>
        <time>2018-09-24T11:02:35Z</time>
      </trkpt>
      <trkpt lat="40.720394952222705" lon="13.956645363941789">
        <ele>153.47</ele>
        <time>2018-09-24T11:02:49Z</time>
      </trkpt>
      <trkpt lat="40.720304762944579" lon="13.956509074196219">
        <ele>152.99000000000001</ele>
        <time>2018-09-24T11:03:00Z</time>
      </trkpt>
      <trkpt lat="40.720247346907854" lon="13.956318385899067">
        <ele>152.99000000000001</ele>
        <time>2018-09-24T11:03:13Z</time>
      </trkpt>
      <trkpt lat="40.720225051045418" lon="13.956156196072698">
        <ele>152.50999999999999</ele>
        <time>2018-09-24T11:03:24Z</time>
      </trkpt>
      <trkpt lat="40.720191188156605" lon="13.95597162656486">
        <ele>152.50999999999999</ele>
        <time>2018-09-24T11:03:37Z</time>
      </trkpt>
      <trkpt lat="40.720145590603352" lon="13.955759648233652">
        <ele>152.99000000000001</ele>
        <time>2018-09-24T11:03:51Z</time>
      </trkpt>
      <trkpt lat="40.720118265599012" lon="13.955648420378566">
        <ele>152.99000000000001</ele>
        <time>2018-09-24T11:04:02Z</time>
      </trkpt>
      <trkpt lat="40.720115164294839" lon="13.955632075667381">
        <ele>152.50999999999999</ele>
        <time>2018-09-24T11:04:22Z</time>
      </trkpt>
      <trkpt lat="40.720106614753604" lon="13.955587232485414">
        <ele>152.50999999999999</ele>
        <time>2018-09-24T11:04:32Z</time>
      </trkpt>
      <trkpt lat="40.720075853168964" lon="13.955493187531829">
        <ele>152.99000000000001</ele>
        <time>2018-09-24T11:04:42Z</time>
      </trkpt>
      <trkpt lat="40.720023047178984" lon="13.955324543640018">
        <ele>153.47</ele>
        <time>2018-09-24T11:04:56Z</time>
      </trkpt>
      <trkpt lat="40.720015419647098" lon="13.955278946086764">
        <ele>153.47</ele>
        <time>2018-09-24T11:04:59Z</time>
      </trkpt>
      <trkpt lat="40.720034781843424" lon="13.955105859786272">
        <ele>153.94999999999999</ele>
        <time>2018-09-24T11:05:11Z</time>
      </trkpt>
      <trkpt lat="40.720106447115541" lon="13.954983567818999">
        <ele>153.94999999999999</ele>
        <time>2018-09-24T11:05:23Z</time>
      </trkpt>
      <trkpt lat="40.720133688300848" lon="13.95487904548645">
        <ele>153.94999999999999</ele>
        <time>2018-09-24T11:05:32Z</time>
      </trkpt>
      <trkpt lat="40.720113655552268" lon="13.954746443778276">
        <ele>155.38999999999999</ele>
        <time>2018-09-24T11:05:43Z</time>
      </trkpt>
      <trkpt lat="40.720094880089164" lon="13.954691458493471">
        <ele>156.34999999999999</ele>
        <time>2018-09-24T11:05:53Z</time>
      </trkpt>
      <trkpt lat="40.720092281699181" lon="13.954679640009999">
        <ele>156.34999999999999</ele>
        <time>2018-09-24T11:06:05Z</time>
      </trkpt>
      <trkpt lat="40.720089515671134" lon="13.954608980566263">
        <ele>156.83000000000001</ele>
        <time>2018-09-24T11:06:13Z</time>
      </trkpt>
      <trkpt lat="40.720056826248765" lon="13.954478390514851">
        <ele>158.75</ele>
        <time>2018-09-24T11:06:24Z</time>
      </trkpt>
      <trkpt lat="40.720027992501855" lon="13.954396080225706">
        <ele>159.72</ele>
        <time>2018-09-24T11:06:33Z</time>
      </trkpt>
      <trkpt lat="40.720014749094844" lon="13.9543342217803">
        <ele>160.19999999999999</ele>
        <time>2018-09-24T11:06:42Z</time>
      </trkpt>
      <trkpt lat="40.720008462667465" lon="13.954180413857102">
        <ele>161.63999999999999</ele>
        <time>2018-09-24T11:06:53Z</time>
      </trkpt>
      <trkpt lat="40.719998236745596" lon="13.95411335863173">
        <ele>161.63999999999999</ele>
        <time>2018-09-24T11:06:58Z</time>
      </trkpt>
      <trkpt lat="40.719992537051439" lon="13.954045800492167">
        <ele>162.59999999999999</ele>
        <time>2018-09-24T11:07:04Z</time>
      </trkpt>
      <trkpt lat="40.719954399392009" lon="13.953975224867463">
        <ele>163.56</ele>
        <time>2018-09-24T11:07:11Z</time>
      </trkpt>
      <trkpt lat="40.719904694706202" lon="13.953857375308871">
        <ele>164.03999999999999</ele>
        <time>2018-09-24T11:07:21Z</time>
      </trkpt>
      <trkpt lat="40.71986404247582" lon="13.953731311485171">
        <ele>164.03999999999999</ele>
        <time>2018-09-24T11:07:33Z</time>
      </trkpt>
      <trkpt lat="40.719853732734919" lon="13.95369803532958">
        <ele>165.96000000000001</ele>
        <time>2018-09-24T11:07:37Z</time>
      </trkpt>
      <trkpt lat="40.71985088288784" lon="13.953684791922569">
        <ele>165.96000000000001</ele>
        <time>2018-09-24T11:07:38Z</time>
      </trkpt>
      <trkpt lat="40.71979321539402" lon="13.953540539368987">
        <ele>167.41</ele>
        <time>2018-09-24T11:07:51Z</time>
      </trkpt>
      <trkpt lat="40.719767482951283" lon="13.953369464725256">
        <ele>168.37</ele>
        <time>2018-09-24T11:08:08Z</time>
      </trkpt>
      <trkpt lat="40.719741750508547" lon="13.953248094767332">
        <ele>168.84999999999999</ele>
        <time>2018-09-24T11:08:18Z</time>
      </trkpt>
      <trkpt lat="40.719745019450784" lon="13.953084480017424">
        <ele>168.84999999999999</ele>
        <time>2018-09-24T11:08:32Z</time>
      </trkpt>
      <trkpt lat="40.719738900661469" lon="13.953058663755655">
        <ele>169.33000000000001</ele>
        <time>2018-09-24T11:08:42Z</time>
      </trkpt>
      <trkpt lat="40.719766477122903" lon="13.952987920492887">
        <ele>169.33000000000001</ele>
        <time>2018-09-24T11:08:56Z</time>
      </trkpt>
      <trkpt lat="40.719812158495188" lon="13.952913992106915">
        <ele>168.84999999999999</ele>
        <time>2018-09-24T11:09:05Z</time>
      </trkpt>
      <trkpt lat="40.719867898151278" lon="13.952896557748318">
        <ele>169.33000000000001</ele>
        <time>2018-09-24T11:09:18Z</time>
      </trkpt>
      <trkpt lat="40.7198616117239" lon="13.952877530828118">
        <ele>168.84999999999999</ele>
        <time>2018-09-24T11:09:25Z</time>
      </trkpt>
      <trkpt lat="40.719849206507206" lon="13.952877949923277">
        <ele>168.84999999999999</ele>
        <time>2018-09-24T11:09:35Z</time>
      </trkpt>
      <trkpt lat="40.719840992242098" lon="13.952901000156999">
        <ele>169.33000000000001</ele>
        <time>2018-09-24T11:09:53Z</time>
      </trkpt>
      <trkpt lat="40.719849625602365" lon="13.95287518389523">
        <ele>169.81</ele>
        <time>2018-09-24T11:10:10Z</time>
      </trkpt>
      <trkpt lat="40.719862030819058" lon="13.952855821698904">
        <ele>169.33000000000001</ele>
        <time>2018-09-24T11:10:30Z</time>
      </trkpt>
      <trkpt lat="40.719853648915887" lon="13.952870490029454">
        <ele>169.33000000000001</ele>
        <time>2018-09-24T11:10:50Z</time>
      </trkpt>
      <trkpt lat="40.719855325296521" lon="13.952892953529954">
        <ele>169.33000000000001</ele>
        <time>2018-09-24T11:11:12Z</time>
      </trkpt>
      <trkpt lat="40.719849122688174" lon="13.952856324613094">
        <ele>169.81</ele>
        <time>2018-09-24T11:11:32Z</time>
      </trkpt>
      <trkpt lat="40.719866640865803" lon="13.952847188338637">
        <ele>169.81</ele>
        <time>2018-09-24T11:11:49Z</time>
      </trkpt>
      <trkpt lat="40.719880638644099" lon="13.952845260500908">
        <ele>169.81</ele>
        <time>2018-09-24T11:12:12Z</time>
      </trkpt>
      <trkpt lat="40.719879297539592" lon="13.952844170853496">
        <ele>169.81</ele>
        <time>2018-09-24T11:12:36Z</time>
      </trkpt>
      <trkpt lat="40.719890864565969" lon="13.952842997387052">
        <ele>170.28999999999999</ele>
        <time>2018-09-24T11:13:05Z</time>
      </trkpt>
      <trkpt lat="40.719892960041761" lon="13.952845595777035">
        <ele>170.77000000000001</ele>
        <time>2018-09-24T11:13:33Z</time>
      </trkpt>
      <trkpt lat="40.719903688877821" lon="13.952854312956333">
        <ele>170.77000000000001</ele>
        <time>2018-09-24T11:14:01Z</time>
      </trkpt>
      <trkpt lat="40.719919446855783" lon="13.952863868325949">
        <ele>170.77000000000001</ele>
        <time>2018-09-24T11:14:22Z</time>
      </trkpt>
      <trkpt lat="40.719911903142929" lon="13.952853474766016">
        <ele>171.25</ele>
        <time>2018-09-24T11:14:47Z</time>
      </trkpt>
      <trkpt lat="40.719898408278823" lon="13.952831095084548">
        <ele>171.25</ele>
        <time>2018-09-24T11:15:11Z</time>
      </trkpt>
      <trkpt lat="40.719893714413047" lon="13.952843835577369">
        <ele>171.25</ele>
        <time>2018-09-24T11:15:39Z</time>
      </trkpt>
      <trkpt lat="40.719874687492847" lon="13.952839225530624">
        <ele>171.72999999999999</ele>
        <time>2018-09-24T11:16:07Z</time>
      </trkpt>
      <trkpt lat="40.719862869009376" lon="13.952819695696235">
        <ele>171.72999999999999</ele>
        <time>2018-09-24T11:16:34Z</time>
      </trkpt>
      <trkpt lat="40.719873094931245" lon="13.952835621312261">
        <ele>172.21000000000001</ele>
        <time>2018-09-24T11:17:01Z</time>
      </trkpt>
      <trkpt lat="40.719900587573647" lon="13.95284584723413">
        <ele>172.21000000000001</ele>
        <time>2018-09-24T11:17:30Z</time>
      </trkpt>
      <trkpt lat="40.719885248690844" lon="13.952858252450824">
        <ele>172.21000000000001</ele>
        <time>2018-09-24T11:17:57Z</time>
      </trkpt>
      <trkpt lat="40.719864126294851" lon="13.952833442017436">
        <ele>172.21000000000001</ele>
        <time>2018-09-24T11:18:32Z</time>
      </trkpt>
      <trkpt lat="40.719891032204032" lon="13.952830089256167">
        <ele>172.21000000000001</ele>
        <time>2018-09-24T11:18:56Z</time>
      </trkpt>
      <trkpt lat="40.71987628005445" lon="13.952844757586718">
        <ele>172.69</ele>
        <time>2018-09-24T11:19:29Z</time>
      </trkpt>
      <trkpt lat="40.719879548996687" lon="13.952823635190725">
        <ele>172.69</ele>
        <time>2018-09-24T11:19:52Z</time>
      </trkpt>
      <trkpt lat="40.719866640865803" lon="13.952809721231461">
        <ele>173.16999999999999</ele>
        <time>2018-09-24T11:20:20Z</time>
      </trkpt>
      <trkpt lat="40.719877872616053" lon="13.952824473381042">
        <ele>173.16999999999999</ele>
        <time>2018-09-24T11:20:50Z</time>
      </trkpt>
      <trkpt lat="40.719864796847105" lon="13.952829670161009">
        <ele>173.16999999999999</ele>
        <time>2018-09-24T11:21:15Z</time>
      </trkpt>
      <trkpt lat="40.719860941171646" lon="13.952837297692895">
        <ele>173.16999999999999</ele>
        <time>2018-09-24T11:21:44Z</time>
      </trkpt>
      <trkpt lat="40.719890026375651" lon="13.9528370462358">
        <ele>173.16999999999999</ele>
        <time>2018-09-24T11:22:08Z</time>
      </trkpt>
      <trkpt lat="40.719878375530243" lon="13.95284827798605">
        <ele>173.16999999999999</ele>
        <time>2018-09-24T11:22:30Z</time>
      </trkpt>
      <trkpt lat="40.719886505976319" lon="13.952844589948654">
        <ele>173.16999999999999</ele>
        <time>2018-09-24T11:22:54Z</time>
      </trkpt>
      <trkpt lat="40.719883069396019" lon="13.952833274379373">
        <ele>173.66</ele>
        <time>2018-09-24T11:23:20Z</time>
      </trkpt>
      <trkpt lat="40.719896899536252" lon="13.952851044014096">
        <ele>173.66</ele>
        <time>2018-09-24T11:23:47Z</time>
      </trkpt>
      <trkpt lat="40.719872340559959" lon="13.952856827527285">
        <ele>173.66</ele>
        <time>2018-09-24T11:24:14Z</time>
      </trkpt>
      <trkpt lat="40.719852223992348" lon="13.952870657667518">
        <ele>174.13999999999999</ele>
        <time>2018-09-24T11:24:43Z</time>
      </trkpt>
      <trkpt lat="40.719868065789342" lon="13.952854815870523">
        <ele>174.13999999999999</ele>
        <time>2018-09-24T11:25:15Z</time>
      </trkpt>
      <trkpt lat="40.719856498762965" lon="13.9528595097363">
        <ele>173.66</ele>
        <time>2018-09-24T11:25:39Z</time>
      </trkpt>
      <trkpt lat="40.71987384930253" lon="13.95285808481276">
        <ele>174.13999999999999</ele>
        <time>2018-09-24T11:26:06Z</time>
      </trkpt>
      <trkpt lat="40.719868652522564" lon="13.952834280207753">
        <ele>173.66</ele>
        <time>2018-09-24T11:26:33Z</time>
      </trkpt>
      <trkpt lat="40.719871670007706" lon="13.952840734273195">
        <ele>173.66</ele>
        <time>2018-09-24T11:27:02Z</time>
      </trkpt>
      <trkpt lat="40.719861444085836" lon="13.952860850840807">
        <ele>173.66</ele>
        <time>2018-09-24T11:27:32Z</time>
      </trkpt>
      <trkpt lat="40.719897067174315" lon="13.952868143096566">
        <ele>174.13999999999999</ele>
        <time>2018-09-24T11:27:58Z</time>
      </trkpt>
      <trkpt lat="40.719901844859123" lon="13.952865628525615">
        <ele>173.66</ele>
        <time>2018-09-24T11:28:22Z</time>
      </trkpt>
      <trkpt lat="40.719892708584666" lon="13.952857414260507">
        <ele>174.13999999999999</ele>
        <time>2018-09-24T11:28:49Z</time>
      </trkpt>
      <trkpt lat="40.719874352216721" lon="13.952821707352996">
        <ele>174.13999999999999</ele>
        <time>2018-09-24T11:29:17Z</time>
      </trkpt>
      <trkpt lat="40.719858007505536" lon="13.952800249680877">
        <ele>174.13999999999999</ele>
        <time>2018-09-24T11:29:47Z</time>
      </trkpt>
      <trkpt lat="40.719859097152948" lon="13.952822629362345">
        <ele>174.13999999999999</ele>
        <time>2018-09-24T11:30:17Z</time>
      </trkpt>
      <trkpt lat="40.719857001677155" lon="13.952849032357335">
        <ele>173.66</ele>
        <time>2018-09-24T11:30:46Z</time>
      </trkpt>
      <trkpt lat="40.719831101596355" lon="13.952909214422107">
        <ele>173.66</ele>
        <time>2018-09-24T11:31:04Z</time>
      </trkpt>
      <trkpt lat="40.719863371923566" lon="13.952912986278534">
        <ele>173.66</ele>
        <time>2018-09-24T11:31:29Z</time>
      </trkpt>
      <trkpt lat="40.719840489327908" lon="13.952899072319269">
        <ele>173.66</ele>
        <time>2018-09-24T11:31:47Z</time>
      </trkpt>
      <trkpt lat="40.719863120466471" lon="13.952868646010756">
        <ele>173.66</ele>
        <time>2018-09-24T11:32:17Z</time>
      </trkpt>
      <trkpt lat="40.719854319468141" lon="13.952885493636131">
        <ele>173.66</ele>
        <time>2018-09-24T11:32:44Z</time>
      </trkpt>
      <trkpt lat="40.719821210950613" lon="13.952872585505247">
        <ele>173.66</ele>
        <time>2018-09-24T11:33:15Z</time>
      </trkpt>
      <trkpt lat="40.719816852360964" lon="13.952858587726951">
        <ele>173.66</ele>
        <time>2018-09-24T11:33:44Z</time>
      </trkpt>
      <trkpt lat="40.719833699986339" lon="13.952865712344646">
        <ele>173.66</ele>
        <time>2018-09-24T11:34:14Z</time>
      </trkpt>
      <trkpt lat="40.719856582581997" lon="13.952867724001408">
        <ele>173.66</ele>
        <time>2018-09-24T11:34:37Z</time>
      </trkpt>
      <trkpt lat="40.719861192628741" lon="13.95285171456635">
        <ele>173.66</ele>
        <time>2018-09-24T11:34:57Z</time>
      </trkpt>
      <trkpt lat="40.719853900372982" lon="13.952850457280874">
        <ele>173.66</ele>
        <time>2018-09-24T11:35:21Z</time>
      </trkpt>
      <trkpt lat="40.719816852360964" lon="13.952867472544312">
        <ele>173.66</ele>
        <time>2018-09-24T11:35:47Z</time>
      </trkpt>
      <trkpt lat="40.719832442700863" lon="13.952884068712592">
        <ele>173.66</ele>
        <time>2018-09-24T11:36:13Z</time>
      </trkpt>
      <trkpt lat="40.719848955050111" lon="13.95286344923079">
        <ele>173.66</ele>
        <time>2018-09-24T11:36:35Z</time>
      </trkpt>
      <trkpt lat="40.719842500984669" lon="13.95287174731493">
        <ele>173.16999999999999</ele>
        <time>2018-09-24T11:36:57Z</time>
      </trkpt>
      <trkpt lat="40.719831185415387" lon="13.952855067327619">
        <ele>174.13999999999999</ele>
        <time>2018-09-24T11:37:20Z</time>
      </trkpt>
      <trkpt lat="40.719833364710212" lon="13.952895300462842">
        <ele>174.62</ele>
        <time>2018-09-24T11:37:42Z</time>
      </trkpt>
      <trkpt lat="40.719828587025404" lon="13.952910723164678">
        <ele>174.62</ele>
        <time>2018-09-24T11:37:52Z</time>
      </trkpt>
      <trkpt lat="40.719840740785003" lon="13.952924553304911">
        <ele>175.09999999999999</ele>
        <time>2018-09-24T11:38:06Z</time>
      </trkpt>
      <trkpt lat="40.719865802675486" lon="13.952873088419437">
        <ele>175.09999999999999</ele>
        <time>2018-09-24T11:38:17Z</time>
      </trkpt>
      <trkpt lat="40.719843842089176" lon="13.952862862497568">
        <ele>175.09999999999999</ele>
        <time>2018-09-24T11:38:35Z</time>
      </trkpt>
      <trkpt lat="40.719831855967641" lon="13.952887589111924">
        <ele>175.09999999999999</ele>
        <time>2018-09-24T11:38:45Z</time>
      </trkpt>
      <trkpt lat="40.719849038869143" lon="13.95290250889957">
        <ele>175.09999999999999</ele>
        <time>2018-09-24T11:39:00Z</time>
      </trkpt>
      <trkpt lat="40.719850296154618" lon="13.952860347926617">
        <ele>175.09999999999999</ele>
        <time>2018-09-24T11:39:13Z</time>
      </trkpt>
      <trkpt lat="40.719832358881831" lon="13.952903430908918">
        <ele>175.09999999999999</ele>
        <time>2018-09-24T11:39:26Z</time>
      </trkpt>
      <trkpt lat="40.719802184030414" lon="13.95287124440074">
        <ele>174.62</ele>
        <time>2018-09-24T11:39:37Z</time>
      </trkpt>
      <trkpt lat="40.719785671681166" lon="13.952864035964012">
        <ele>174.62</ele>
        <time>2018-09-24T11:39:45Z</time>
      </trkpt>
      <trkpt lat="40.719770919531584" lon="13.952878201380372">
        <ele>174.62</ele>
        <time>2018-09-24T11:39:57Z</time>
      </trkpt>
      <trkpt lat="40.719785923138261" lon="13.952777618542314">
        <ele>175.09999999999999</ele>
        <time>2018-09-24T11:40:10Z</time>
      </trkpt>
      <trkpt lat="40.7198166847229" lon="13.952683322131634">
        <ele>175.09999999999999</ele>
        <time>2018-09-24T11:40:22Z</time>
      </trkpt>
      <trkpt lat="40.719830179587007" lon="13.952542841434479">
        <ele>175.09999999999999</ele>
        <time>2018-09-24T11:40:35Z</time>
      </trkpt>
      <trkpt lat="40.719848116859794" lon="13.952428344637156">
        <ele>175.09999999999999</ele>
        <time>2018-09-24T11:40:47Z</time>
      </trkpt>
      <trkpt lat="40.719857839867473" lon="13.952288869768381">
        <ele>175.58000000000001</ele>
        <time>2018-09-24T11:41:00Z</time>
      </trkpt>
      <trkpt lat="40.719914501532912" lon="13.952150987461209">
        <ele>176.53999999999999</ele>
        <time>2018-09-24T11:41:13Z</time>
      </trkpt>
      <trkpt lat="40.720016341656446" lon="13.952013524249196">
        <ele>176.53999999999999</ele>
        <time>2018-09-24T11:41:24Z</time>
      </trkpt>
      <trkpt lat="40.720107285305858" lon="13.951905313879251">
        <ele>176.06</ele>
        <time>2018-09-24T11:41:37Z</time>
      </trkpt>
      <trkpt lat="40.720213232561946" lon="13.951718648895621">
        <ele>175.09999999999999</ele>
        <time>2018-09-24T11:41:50Z</time>
      </trkpt>
      <trkpt lat="40.720260422676802" lon="13.95158520899713">
        <ele>174.13999999999999</ele>
        <time>2018-09-24T11:42:03Z</time>
      </trkpt>
      <trkpt lat="40.720333009958267" lon="13.951551513746381">
        <ele>172.69</ele>
        <time>2018-09-24T11:42:15Z</time>
      </trkpt>
      <trkpt lat="40.72042646817863" lon="13.951532822102308">
        <ele>171.25</ele>
        <time>2018-09-24T11:42:28Z</time>
      </trkpt>
      <trkpt lat="40.720492769032717" lon="13.951488733291626">
        <ele>170.28999999999999</ele>
        <time>2018-09-24T11:42:40Z</time>
      </trkpt>
      <trkpt lat="40.720557393506169" lon="13.951443303376436">
        <ele>169.81</ele>
        <time>2018-09-24T11:42:49Z</time>
      </trkpt>
      <trkpt lat="40.720567032694817" lon="13.951433077454567">
        <ele>169.33000000000001</ele>
        <time>2018-09-24T11:42:50Z</time>
      </trkpt>
      <trkpt lat="40.720667196437716" lon="13.951295865699649">
        <ele>167.41</ele>
        <time>2018-09-24T11:43:01Z</time>
      </trkpt>
      <trkpt lat="40.72068982757628" lon="13.951235851272941">
        <ele>166.44999999999999</ele>
        <time>2018-09-24T11:43:06Z</time>
      </trkpt>
      <trkpt lat="40.720767108723521" lon="13.951133843511343">
        <ele>165</ele>
        <time>2018-09-24T11:43:18Z</time>
      </trkpt>
      <trkpt lat="40.72077389806509" lon="13.951127808541059">
        <ele>165</ele>
        <time>2018-09-24T11:43:19Z</time>
      </trkpt>
      <trkpt lat="40.720840869471431" lon="13.951039966195822">
        <ele>162.59999999999999</ele>
        <time>2018-09-24T11:43:29Z</time>
      </trkpt>
      <trkpt lat="40.720909181982279" lon="13.95099688321352">
        <ele>161.63999999999999</ele>
        <time>2018-09-24T11:43:40Z</time>
      </trkpt>
      <trkpt lat="40.720977829769254" lon="13.950917422771454">
        <ele>159.72</ele>
        <time>2018-09-24T11:43:51Z</time>
      </trkpt>
      <trkpt lat="40.7210548594594" lon="13.950858833268285">
        <ele>157.78999999999999</ele>
        <time>2018-09-24T11:44:02Z</time>
      </trkpt>
      <trkpt lat="40.721132224425673" lon="13.950827401131392">
        <ele>156.83000000000001</ele>
        <time>2018-09-24T11:44:12Z</time>
      </trkpt>
      <trkpt lat="40.721171954646707" lon="13.95095975138247">
        <ele>154.91</ele>
        <time>2018-09-24T11:44:25Z</time>
      </trkpt>
      <trkpt lat="40.72116575203836" lon="13.950979365035892">
        <ele>154.43000000000001</ele>
        <time>2018-09-24T11:44:27Z</time>
      </trkpt>
      <trkpt lat="40.721150832250714" lon="13.951121438294649">
        <ele>152.50999999999999</ele>
        <time>2018-09-24T11:44:40Z</time>
      </trkpt>
      <trkpt lat="40.721141193062067" lon="13.951251273974776">
        <ele>150.58000000000001</ele>
        <time>2018-09-24T11:44:52Z</time>
      </trkpt>
      <trkpt lat="40.721121160313487" lon="13.951389826834202">
        <ele>148.66</ele>
        <time>2018-09-24T11:45:05Z</time>
      </trkpt>
      <trkpt lat="40.721099032089114" lon="13.951516561210155">
        <ele>146.74000000000001</ele>
        <time>2018-09-24T11:45:16Z</time>
      </trkpt>
      <trkpt lat="40.721119903028011" lon="13.951613875105977">
        <ele>144.81999999999999</ele>
        <time>2018-09-24T11:45:27Z</time>
      </trkpt>
      <trkpt lat="40.721189556643367" lon="13.951654694974422">
        <ele>142.88999999999999</ele>
        <time>2018-09-24T11:45:38Z</time>
      </trkpt>
      <trkpt lat="40.721196429803967" lon="13.951657377183437">
        <ele>142.88999999999999</ele>
        <time>2018-09-24T11:45:39Z</time>
      </trkpt>
      <trkpt lat="40.721278069540858" lon="13.951725941151381">
        <ele>141.44999999999999</ele>
        <time>2018-09-24T11:45:50Z</time>
      </trkpt>
      <trkpt lat="40.721380915492773" lon="13.951823506504297">
        <ele>139.05000000000001</ele>
        <time>2018-09-24T11:46:03Z</time>
      </trkpt>
      <trkpt lat="40.721443025395274" lon="13.951889807358384">
        <ele>138.09</ele>
        <time>2018-09-24T11:46:14Z</time>
      </trkpt>
      <trkpt lat="40.721483677625656" lon="13.951948313042521">
        <ele>136.63999999999999</ele>
        <time>2018-09-24T11:46:21Z</time>
      </trkpt>
      <trkpt lat="40.721509661525488" lon="13.952113185077906">
        <ele>134.72</ele>
        <time>2018-09-24T11:46:34Z</time>
      </trkpt>
      <trkpt lat="40.721522318199277" lon="13.952255677431822">
        <ele>132.80000000000001</ele>
        <time>2018-09-24T11:46:46Z</time>
      </trkpt>
      <trkpt lat="40.721515277400613" lon="13.952395655214787">
        <ele>130.88</ele>
        <time>2018-09-24T11:46:58Z</time>
      </trkpt>
      <trkpt lat="40.721521563827991" lon="13.952491460368037">
        <ele>129.43000000000001</ele>
        <time>2018-09-24T11:47:07Z</time>
      </trkpt>
      <trkpt lat="40.721518462523818" lon="13.952570166438818">
        <ele>127.98999999999999</ele>
        <time>2018-09-24T11:47:13Z</time>
      </trkpt>
      <trkpt lat="40.721528520807624" lon="13.952649459242821">
        <ele>127.03</ele>
        <time>2018-09-24T11:47:19Z</time>
      </trkpt>
      <trkpt lat="40.721539165824652" lon="13.952721711248159">
        <ele>126.06999999999999</ele>
        <time>2018-09-24T11:47:29Z</time>
      </trkpt>
      <trkpt lat="40.721541931852698" lon="13.952730679884553">
        <ele>125.59</ele>
        <time>2018-09-24T11:47:44Z</time>
      </trkpt>
      <trkpt lat="40.721544111147523" lon="13.952742414548993">
        <ele>125.59</ele>
        <time>2018-09-24T11:47:50Z</time>
      </trkpt>
      <trkpt lat="40.721648298203945" lon="13.952844841405749">
        <ele>124.15000000000001</ele>
        <time>2018-09-24T11:48:02Z</time>
      </trkpt>
      <trkpt lat="40.721749300137162" lon="13.952947184443474">
        <ele>122.22</ele>
        <time>2018-09-24T11:48:15Z</time>
      </trkpt>
      <trkpt lat="40.72184300981462" lon="13.953031338751316">
        <ele>119.81999999999999</ele>
        <time>2018-09-24T11:48:27Z</time>
      </trkpt>
      <trkpt lat="40.721936468034983" lon="13.953046593815088">
        <ele>118.38</ele>
        <time>2018-09-24T11:48:36Z</time>
      </trkpt>
      <trkpt lat="40.721984328702092" lon="13.953045923262835">
        <ele>118.38</ele>
        <time>2018-09-24T11:48:40Z</time>
      </trkpt>
      <trkpt lat="40.722116846591234" lon="13.953067129477859">
        <ele>117.42</ele>
        <time>2018-09-24T11:48:52Z</time>
      </trkpt>
      <trkpt lat="40.722155570983887" lon="13.953070314601064">
        <ele>116.94</ele>
        <time>2018-09-24T11:48:56Z</time>
      </trkpt>
      <trkpt lat="40.722203934565187" lon="13.953062100335956">
        <ele>116.45999999999999</ele>
        <time>2018-09-24T11:49:00Z</time>
      </trkpt>
      <trkpt lat="40.722330333665013" lon="13.953065034002066">
        <ele>115.98</ele>
        <time>2018-09-24T11:49:12Z</time>
      </trkpt>
      <trkpt lat="40.722464611753821" lon="13.953089844435453">
        <ele>115.5</ele>
        <time>2018-09-24T11:49:25Z</time>
      </trkpt>
      <trkpt lat="40.722535103559494" lon="13.953078696504235">
        <ele>115.01000000000001</ele>
        <time>2018-09-24T11:49:36Z</time>
      </trkpt>
      <trkpt lat="40.722607774659991" lon="13.953066961839795">
        <ele>114.53</ele>
        <time>2018-09-24T11:49:49Z</time>
      </trkpt>
      <trkpt lat="40.7225935254246" lon="13.953089928254485">
        <ele>114.53</ele>
        <time>2018-09-24T11:49:59Z</time>
      </trkpt>
      <trkpt lat="40.722657814621925" lon="13.953067716211081">
        <ele>114.05</ele>
        <time>2018-09-24T11:50:07Z</time>
      </trkpt>
      <trkpt lat="40.722768791019917" lon="13.9530960470438">
        <ele>113.56999999999999</ele>
        <time>2018-09-24T11:50:18Z</time>
      </trkpt>
      <trkpt lat="40.722871385514736" lon="13.953088084235787">
        <ele>113.09</ele>
        <time>2018-09-24T11:50:27Z</time>
      </trkpt>
      <trkpt lat="40.723022930324078" lon="13.953071488067508">
        <ele>112.13</ele>
        <time>2018-09-24T11:50:41Z</time>
      </trkpt>
      <trkpt lat="40.723159639164805" lon="13.953038798645139">
        <ele>111.65000000000001</ele>
        <time>2018-09-24T11:50:53Z</time>
      </trkpt>
      <trkpt lat="40.723312357440591" lon="13.953013904392719">
        <ele>110.69</ele>
        <time>2018-09-24T11:51:08Z</time>
      </trkpt>
      <trkpt lat="40.723459962755442" lon="13.952990183606744">
        <ele>109.73</ele>
        <time>2018-09-24T11:51:20Z</time>
      </trkpt>
      <trkpt lat="40.723622487857938" lon="13.952969228848815">
        <ele>108.77</ele>
        <time>2018-09-24T11:51:34Z</time>
      </trkpt>
      <trkpt lat="40.723656266927719" lon="13.952957075089216">
        <ele>108.29000000000001</ele>
        <time>2018-09-24T11:51:38Z</time>
      </trkpt>
      <trkpt lat="40.723717287182808" lon="13.952966798096895">
        <ele>108.29000000000001</ele>
        <time>2018-09-24T11:51:43Z</time>
      </trkpt>
      <trkpt lat="40.723915686830878" lon="13.952965456992388">
        <ele>107.81</ele>
        <time>2018-09-24T11:51:59Z</time>
      </trkpt>
      <trkpt lat="40.724036721512675" lon="13.952933270484209">
        <ele>106.84</ele>
        <time>2018-09-24T11:52:13Z</time>
      </trkpt>
      <trkpt lat="40.724159516394138" lon="13.952926564961672">
        <ele>106.36</ele>
        <time>2018-09-24T11:52:25Z</time>
      </trkpt>
      <trkpt lat="40.724276611581445" lon="13.952859174460173">
        <ele>105.88</ele>
        <time>2018-09-24T11:52:37Z</time>
      </trkpt>
      <trkpt lat="40.724412817507982" lon="13.952814750373363">
        <ele>104.92</ele>
        <time>2018-09-24T11:52:48Z</time>
      </trkpt>
      <trkpt lat="40.724502755329013" lon="13.952769739553332">
        <ele>104.44</ele>
        <time>2018-09-24T11:53:00Z</time>
      </trkpt>
      <trkpt lat="40.724519770592451" lon="13.952739397063851">
        <ele>104.44</ele>
        <time>2018-09-24T11:53:16Z</time>
      </trkpt>
      <trkpt lat="40.724507700651884" lon="13.952755155041814">
        <ele>104.44</ele>
        <time>2018-09-24T11:53:31Z</time>
      </trkpt>
      <trkpt lat="40.724537456408143" lon="13.95275347866118">
        <ele>104.44</ele>
        <time>2018-09-24T11:53:35Z</time>
      </trkpt>
      <trkpt lat="40.724675925448537" lon="13.952841321006417">
        <ele>103.95999999999999</ele>
        <time>2018-09-24T11:53:49Z</time>
      </trkpt>
      <trkpt lat="40.724792936816812" lon="13.952882727608085">
        <ele>103</ele>
        <time>2018-09-24T11:54:02Z</time>
      </trkpt>
      <trkpt lat="40.72483099065721" lon="13.952878369018435">
        <ele>103</ele>
        <time>2018-09-24T11:54:06Z</time>
      </trkpt>
      <trkpt lat="40.724843814969063" lon="13.952884655445814">
        <ele>103.48</ele>
        <time>2018-09-24T11:54:08Z</time>
      </trkpt>
      <trkpt lat="40.724960658699274" lon="13.952874597162008">
        <ele>103</ele>
        <time>2018-09-24T11:54:20Z</time>
      </trkpt>
      <trkpt lat="40.725048081949353" lon="13.952890271320939">
        <ele>102.52</ele>
        <time>2018-09-24T11:54:28Z</time>
      </trkpt>
      <trkpt lat="40.725175905972719" lon="13.952956991270185">
        <ele>102.04000000000001</ele>
        <time>2018-09-24T11:54:43Z</time>
      </trkpt>
      <trkpt lat="40.725261066108942" lon="13.953050449490547">
        <ele>101.56</ele>
        <time>2018-09-24T11:54:53Z</time>
      </trkpt>
      <trkpt lat="40.725341700017452" lon="13.953062100335956">
        <ele>101.56</ele>
        <time>2018-09-24T11:55:05Z</time>
      </trkpt>
      <trkpt lat="40.725459717214108" lon="13.953088922426105">
        <ele>100.59999999999999</ele>
        <time>2018-09-24T11:55:17Z</time>
      </trkpt>
      <trkpt lat="40.725598437711596" lon="13.953165784478188">
        <ele>99.629999999999995</ele>
        <time>2018-09-24T11:55:30Z</time>
      </trkpt>
      <trkpt lat="40.725685693323612" lon="13.953212052583694">
        <ele>99.150000000000006</ele>
        <time>2018-09-24T11:55:41Z</time>
      </trkpt>
      <trkpt lat="40.725789126008749" lon="13.95326511003077">
        <ele>97.709999999999994</ele>
        <time>2018-09-24T11:55:52Z</time>
      </trkpt>
      <trkpt lat="40.725913681089878" lon="13.953320682048798">
        <ele>96.269999999999996</ele>
        <time>2018-09-24T11:56:05Z</time>
      </trkpt>
      <trkpt lat="40.726063633337617" lon="13.953385222703218">
        <ele>95.310000000000002</ele>
        <time>2018-09-24T11:56:22Z</time>
      </trkpt>
      <trkpt lat="40.72618056088686" lon="13.953380109742284">
        <ele>94.349999999999994</ele>
        <time>2018-09-24T11:56:33Z</time>
      </trkpt>
      <trkpt lat="40.726217441260815" lon="13.953363848850131">
        <ele>93.870000000000005</ele>
        <time>2018-09-24T11:56:36Z</time>
      </trkpt>
      <trkpt lat="40.726381978020072" lon="13.953380780294538">
        <ele>92.420000000000002</ele>
        <time>2018-09-24T11:56:50Z</time>
      </trkpt>
      <trkpt lat="40.726545006036758" lon="13.953353874385357">
        <ele>90.5</ele>
        <time>2018-09-24T11:57:05Z</time>
      </trkpt>
      <trkpt lat="40.726703507825732" lon="13.953327555209398">
        <ele>89.540000000000006</ele>
        <time>2018-09-24T11:57:20Z</time>
      </trkpt>
      <trkpt lat="40.726827057078481" lon="13.953319173306227">
        <ele>88.099999999999994</ele>
        <time>2018-09-24T11:57:32Z</time>
      </trkpt>
      <trkpt lat="40.726945996284485" lon="13.953287992626429">
        <ele>87.620000000000005</ele>
        <time>2018-09-24T11:57:44Z</time>
      </trkpt>
      <trkpt lat="40.726979440078139" lon="13.953274916857481">
        <ele>87.140000000000001</ele>
        <time>2018-09-24T11:57:47Z</time>
      </trkpt>
      <trkpt lat="40.727112460881472" lon="13.953254213556647">
        <ele>86.180000000000007</ele>
        <time>2018-09-24T11:57:59Z</time>
      </trkpt>
      <trkpt lat="40.727256629616022" lon="13.953237282112241">
        <ele>85.209999999999994</ele>
        <time>2018-09-24T11:58:12Z</time>
      </trkpt>
      <trkpt lat="40.727404737845063" lon="13.953225631266832">
        <ele>83.769999999999996</ele>
        <time>2018-09-24T11:58:25Z</time>
      </trkpt>
      <trkpt lat="40.727522922679782" lon="13.953228732571006">
        <ele>82.810000000000002</ele>
        <time>2018-09-24T11:58:38Z</time>
      </trkpt>
      <trkpt lat="40.727654602378607" lon="13.953257482498884">
        <ele>82.329999999999998</ele>
        <time>2018-09-24T11:58:52Z</time>
      </trkpt>
      <trkpt lat="40.727684441953897" lon="13.953270390629768">
        <ele>83.290000000000006</ele>
        <time>2018-09-24T11:58:55Z</time>
      </trkpt>
      <trkpt lat="40.727815786376595" lon="13.953291093930602">
        <ele>81.370000000000005</ele>
        <time>2018-09-24T11:59:08Z</time>
      </trkpt>
      <trkpt lat="40.727959955111146" lon="13.953332668170333">
        <ele>80.890000000000001</ele>
        <time>2018-09-24T11:59:22Z</time>
      </trkpt>
      <trkpt lat="40.728116361424327" lon="13.953396789729595">
        <ele>78.969999999999999</ele>
        <time>2018-09-24T11:59:36Z</time>
      </trkpt>
      <trkpt lat="40.728282909840345" lon="13.953477507457137">
        <ele>77.519999999999996</ele>
        <time>2018-09-24T11:59:50Z</time>
      </trkpt>
      <trkpt lat="40.728436298668385" lon="13.953548837453127">
        <ele>75.599999999999994</ele>
        <time>2018-09-24T12:00:05Z</time>
      </trkpt>
      <trkpt lat="40.728603014722466" lon="13.953572055324912">
        <ele>73.680000000000007</ele>
        <time>2018-09-24T12:00:19Z</time>
      </trkpt>
      <trkpt lat="40.728766294196248" lon="13.953581107780337">
        <ele>71.760000000000005</ele>
        <time>2018-09-24T12:00:33Z</time>
      </trkpt>
      <trkpt lat="40.728909624740481" lon="13.953605499118567">
        <ele>69.829999999999998</ele>
        <time>2018-09-24T12:00:46Z</time>
      </trkpt>
      <trkpt lat="40.728992521762848" lon="13.953657131642103">
        <ele>69.829999999999998</ele>
        <time>2018-09-24T12:00:56Z</time>
      </trkpt>
      <trkpt lat="40.729107186198235" lon="13.953724186867476">
        <ele>68.390000000000001</ele>
        <time>2018-09-24T12:01:07Z</time>
      </trkpt>
      <trkpt lat="40.729223107919097" lon="13.953830301761627">
        <ele>67.909999999999997</ele>
        <time>2018-09-24T12:01:19Z</time>
      </trkpt>
      <trkpt lat="40.729376915842295" lon="13.953969944268465">
        <ele>66.950000000000003</ele>
        <time>2018-09-24T12:01:34Z</time>
      </trkpt>
      <trkpt lat="40.729474732652307" lon="13.95405862480402">
        <ele>66.950000000000003</ele>
        <time>2018-09-24T12:01:44Z</time>
      </trkpt>
      <trkpt lat="40.729625942185521" lon="13.954197596758604">
        <ele>66.469999999999999</ele>
        <time>2018-09-24T12:02:00Z</time>
      </trkpt>
      <trkpt lat="40.729720992967486" lon="13.954242775216699">
        <ele>65.510000000000005</ele>
        <time>2018-09-24T12:02:11Z</time>
      </trkpt>
      <trkpt lat="40.729747395962477" lon="13.954234896227717">
        <ele>65.030000000000001</ele>
        <time>2018-09-24T12:02:19Z</time>
      </trkpt>
      <trkpt lat="40.729869687929749" lon="13.954223245382309">
        <ele>64.069999999999993</ele>
        <time>2018-09-24T12:02:32Z</time>
      </trkpt>
      <trkpt lat="40.730027938261628" lon="13.95427605137229">
        <ele>61.18</ele>
        <time>2018-09-24T12:02:47Z</time>
      </trkpt>
      <trkpt lat="40.730101531371474" lon="13.954319637268782">
        <ele>60.700000000000003</ele>
        <time>2018-09-24T12:02:54Z</time>
      </trkpt>
      <trkpt lat="40.730198929086328" lon="13.954427009448409">
        <ele>58.299999999999997</ele>
        <time>2018-09-24T12:03:06Z</time>
      </trkpt>
      <trkpt lat="40.730312755331397" lon="13.95457704551518">
        <ele>56.859999999999999</ele>
        <time>2018-09-24T12:03:20Z</time>
      </trkpt>
      <trkpt lat="40.730414427816868" lon="13.954734206199646">
        <ele>54.93</ele>
        <time>2018-09-24T12:03:35Z</time>
      </trkpt>
      <trkpt lat="40.730392886325717" lon="13.954794472083449">
        <ele>54.450000000000003</ele>
        <time>2018-09-24T12:03:45Z</time>
      </trkpt>
      <trkpt lat="40.730401519685984" lon="13.954819450154901">
        <ele>54.450000000000003</ele>
        <time>2018-09-24T12:04:03Z</time>
      </trkpt>
      <trkpt lat="40.730402357876301" lon="13.954840488731861">
        <ele>54.450000000000003</ele>
        <time>2018-09-24T12:04:23Z</time>
      </trkpt>
      <trkpt lat="40.730423564091325" lon="13.954839399084449">
        <ele>54.450000000000003</ele>
        <time>2018-09-24T12:04:42Z</time>
      </trkpt>
      <trkpt lat="40.730418786406517" lon="13.954844176769257">
        <ele>54.450000000000003</ele>
        <time>2018-09-24T12:05:00Z</time>
      </trkpt>
      <trkpt lat="40.730434628203511" lon="13.954839734360576">
        <ele>54.450000000000003</ele>
        <time>2018-09-24T12:05:12Z</time>
      </trkpt>
      <trkpt lat="40.730503695085645" lon="13.954885583370924">
        <ele>53.969999999999999</ele>
        <time>2018-09-24T12:05:21Z</time>
      </trkpt>
      <trkpt lat="40.730527332052588" lon="13.954884661361575">
        <ele>53.969999999999999</ele>
        <time>2018-09-24T12:05:25Z</time>
      </trkpt>
      <trkpt lat="40.73059388436377" lon="13.95493964664638">
        <ele>53.490000000000002</ele>
        <time>2018-09-24T12:05:34Z</time>
      </trkpt>
      <trkpt lat="40.730633698403835" lon="13.954964373260736">
        <ele>52.530000000000001</ele>
        <time>2018-09-24T12:05:40Z</time>
      </trkpt>
      <trkpt lat="40.730714164674282" lon="13.955057747662067">
        <ele>51.57</ele>
        <time>2018-09-24T12:05:50Z</time>
      </trkpt>
      <trkpt lat="40.730791362002492" lon="13.955142488703132">
        <ele>50.130000000000003</ele>
        <time>2018-09-24T12:06:02Z</time>
      </trkpt>
      <trkpt lat="40.730784656479955" lon="13.955124132335186">
        <ele>50.130000000000003</ele>
        <time>2018-09-24T12:06:17Z</time>
      </trkpt>
      <trkpt lat="40.73088264092803" lon="13.955206777900457">
        <ele>49.159999999999997</ele>
        <time>2018-09-24T12:06:28Z</time>
      </trkpt>
      <trkpt lat="40.730934189632535" lon="13.955257320776582">
        <ele>48.68</ele>
        <time>2018-09-24T12:06:34Z</time>
      </trkpt>
      <trkpt lat="40.730975344777107" lon="13.955291770398617">
        <ele>47.240000000000002</ele>
        <time>2018-09-24T12:06:45Z</time>
      </trkpt>
      <trkpt lat="40.730979284271598" lon="13.955294536426663">
        <ele>47.240000000000002</ele>
        <time>2018-09-24T12:06:46Z</time>
      </trkpt>
      <trkpt lat="40.731076346710324" lon="13.955342648550868">
        <ele>46.280000000000001</ele>
        <time>2018-09-24T12:06:56Z</time>
      </trkpt>
      <trkpt lat="40.731075508520007" lon="13.955349773168564">
        <ele>46.280000000000001</ele>
        <time>2018-09-24T12:06:57Z</time>
      </trkpt>
      <trkpt lat="40.731140300631523" lon="13.955356394872069">
        <ele>46.280000000000001</ele>
        <time>2018-09-24T12:07:06Z</time>
      </trkpt>
      <trkpt lat="40.73119780048728" lon="13.955420264974236">
        <ele>45.32</ele>
        <time>2018-09-24T12:07:17Z</time>
      </trkpt>
      <trkpt lat="40.731262005865574" lon="13.955463012680411">
        <ele>45.32</ele>
        <time>2018-09-24T12:07:25Z</time>
      </trkpt>
      <trkpt lat="40.731301987543702" lon="13.95550592802465">
        <ele>44.359999999999999</ele>
        <time>2018-09-24T12:07:34Z</time>
      </trkpt>
      <trkpt lat="40.731392512097955" lon="13.95556946285069">
        <ele>43.880000000000003</ele>
        <time>2018-09-24T12:07:44Z</time>
      </trkpt>
      <trkpt lat="40.731410617008805" lon="13.955595530569553">
        <ele>43.880000000000003</ele>
        <time>2018-09-24T12:07:46Z</time>
      </trkpt>
      <trkpt lat="40.731472223997116" lon="13.955651521682739">
        <ele>42.920000000000002</ele>
        <time>2018-09-24T12:07:52Z</time>
      </trkpt>
      <trkpt lat="40.73155889287591" lon="13.9557277970016">
        <ele>42.439999999999998</ele>
        <time>2018-09-24T12:08:03Z</time>
      </trkpt>
      <trkpt lat="40.731653943657875" lon="13.955868193879724">
        <ele>40.030000000000001</ele>
        <time>2018-09-24T12:08:17Z</time>
      </trkpt>
      <trkpt lat="40.731748240068555" lon="13.956010350957513">
        <ele>37.630000000000003</ele>
        <time>2018-09-24T12:08:31Z</time>
      </trkpt>
      <trkpt lat="40.731866005808115" lon="13.956132307648659">
        <ele>35.710000000000001</ele>
        <time>2018-09-24T12:08:46Z</time>
      </trkpt>
      <trkpt lat="40.731907328590751" lon="13.956169942393899">
        <ele>34.740000000000002</ele>
        <time>2018-09-24T12:08:51Z</time>
      </trkpt>
      <trkpt lat="40.732006905600429" lon="13.956242110580206">
        <ele>32.82</ele>
        <time>2018-09-24T12:09:03Z</time>
      </trkpt>
      <trkpt lat="40.732109835371375" lon="13.956299778074026">
        <ele>30.899999999999999</ele>
        <time>2018-09-24T12:09:15Z</time>
      </trkpt>
      <trkpt lat="40.732165742665529" lon="13.956335568800569">
        <ele>29.460000000000001</ele>
        <time>2018-09-24T12:09:22Z</time>
      </trkpt>
      <trkpt lat="40.732254004105926" lon="13.956363815814257">
        <ele>28.02</ele>
        <time>2018-09-24T12:09:33Z</time>
      </trkpt>
      <trkpt lat="40.732354838401079" lon="13.95636348053813">
        <ele>27.050000000000001</ele>
        <time>2018-09-24T12:09:44Z</time>
      </trkpt>
      <trkpt lat="40.732392473146319" lon="13.956375131383538">
        <ele>26.57</ele>
        <time>2018-09-24T12:09:48Z</time>
      </trkpt>
      <trkpt lat="40.732521638274193" lon="13.956346800550818">
        <ele>24.649999999999999</ele>
        <time>2018-09-24T12:10:02Z</time>
      </trkpt>
      <trkpt lat="40.732641750946641" lon="13.956368342041969">
        <ele>23.690000000000001</ele>
        <time>2018-09-24T12:10:16Z</time>
      </trkpt>
      <trkpt lat="40.732742417603731" lon="13.956423914059997">
        <ele>22.73</ele>
        <time>2018-09-24T12:10:28Z</time>
      </trkpt>
      <trkpt lat="40.732829086482525" lon="13.956513432785869">
        <ele>21.77</ele>
        <time>2018-09-24T12:10:39Z</time>
      </trkpt>
      <trkpt lat="40.732942828908563" lon="13.956604208797216">
        <ele>20.809999999999999</ele>
        <time>2018-09-24T12:10:53Z</time>
      </trkpt>
      <trkpt lat="40.733016841113567" lon="13.95664150826633">
        <ele>20.32</ele>
        <time>2018-09-24T12:11:04Z</time>
      </trkpt>
      <trkpt lat="40.733077693730593" lon="13.956696409732103">
        <ele>19.84</ele>
        <time>2018-09-24T12:11:11Z</time>
      </trkpt>
      <trkpt lat="40.733204847201705" lon="13.956820126622915">
        <ele>18.879999999999999</ele>
        <time>2018-09-24T12:11:23Z</time>
      </trkpt>
      <trkpt lat="40.733283804729581" lon="13.956912662833929">
        <ele>18.399999999999999</ele>
        <time>2018-09-24T12:11:36Z</time>
      </trkpt>
      <trkpt lat="40.733282463625073" lon="13.95694543607533">
        <ele>18.399999999999999</ele>
        <time>2018-09-24T12:11:46Z</time>
      </trkpt>
      <trkpt lat="40.733289504423738" lon="13.956963289529085">
        <ele>18.399999999999999</ele>
        <time>2018-09-24T12:12:02Z</time>
      </trkpt>
      <trkpt lat="40.733292270451784" lon="13.9569625351578">
        <ele>17.920000000000002</ele>
        <time>2018-09-24T12:12:19Z</time>
      </trkpt>
      <trkpt lat="40.733277853578329" lon="13.956973683089018">
        <ele>17.920000000000002</ele>
        <time>2018-09-24T12:12:33Z</time>
      </trkpt>
      <trkpt lat="40.733289001509547" lon="13.956965636461973">
        <ele>18.399999999999999</ele>
        <time>2018-09-24T12:12:42Z</time>
      </trkpt>
      <trkpt lat="40.733297886326909" lon="13.956981813535094">
        <ele>18.399999999999999</ele>
        <time>2018-09-24T12:12:54Z</time>
      </trkpt>
      <trkpt lat="40.733245583251119" lon="13.956993045285344">
        <ele>18.399999999999999</ele>
        <time>2018-09-24T12:13:07Z</time>
      </trkpt>
      <trkpt lat="40.733222113922238" lon="13.957030093297362">
        <ele>18.399999999999999</ele>
        <time>2018-09-24T12:13:17Z</time>
      </trkpt>
      <trkpt lat="40.733198812231421" lon="13.957023974508047">
        <ele>18.399999999999999</ele>
        <time>2018-09-24T12:13:38Z</time>
      </trkpt>
      <trkpt lat="40.733210882171988" lon="13.957102345302701">
        <ele>17.920000000000002</ele>
        <time>2018-09-24T12:13:51Z</time>
      </trkpt>
      <trkpt lat="40.733186658471823" lon="13.957153307273984">
        <ele>18.399999999999999</ele>
        <time>2018-09-24T12:14:00Z</time>
      </trkpt>
      <trkpt lat="40.733186658471823" lon="13.957135621458292">
        <ele>17.920000000000002</ele>
        <time>2018-09-24T12:14:10Z</time>
      </trkpt>
      <trkpt lat="40.733187831938267" lon="13.95715456455946">
        <ele>18.399999999999999</ele>
        <time>2018-09-24T12:14:27Z</time>
      </trkpt>
      <trkpt lat="40.733190011233091" lon="13.957167724147439">
        <ele>17.920000000000002</ele>
        <time>2018-09-24T12:14:45Z</time>
      </trkpt>
      <trkpt lat="40.733201410621405" lon="13.957163952291012">
        <ele>18.399999999999999</ele>
        <time>2018-09-24T12:15:00Z</time>
      </trkpt>
      <trkpt lat="40.733202835544944" lon="13.957230839878321">
        <ele>18.399999999999999</ele>
        <time>2018-09-24T12:15:09Z</time>
      </trkpt>
      <trkpt lat="40.733172576874495" lon="13.957331422716379">
        <ele>18.399999999999999</ele>
        <time>2018-09-24T12:15:19Z</time>
      </trkpt>
      <trkpt lat="40.733131254091859" lon="13.957432089373469">
        <ele>18.879999999999999</ele>
        <time>2018-09-24T12:15:28Z</time>
      </trkpt>
      <trkpt lat="40.733107952401042" lon="13.957553040236235">
        <ele>18.879999999999999</ele>
        <time>2018-09-24T12:15:38Z</time>
      </trkpt>
      <trkpt lat="40.733084985986352" lon="13.957598302513361">
        <ele>18.879999999999999</ele>
        <time>2018-09-24T12:15:47Z</time>
      </trkpt>
      <trkpt lat="40.733060846105218" lon="13.957650773227215">
        <ele>18.399999999999999</ele>
        <time>2018-09-24T12:15:52Z</time>
      </trkpt>
      <trkpt lat="40.732984570786357" lon="13.957790834829211">
        <ele>17.920000000000002</ele>
        <time>2018-09-24T12:16:04Z</time>
      </trkpt>
      <trkpt lat="40.73297593742609" lon="13.957802820950747">
        <ele>17.920000000000002</ele>
        <time>2018-09-24T12:16:05Z</time>
      </trkpt>
      <trkpt lat="40.732876276597381" lon="13.957919245585799">
        <ele>17.920000000000002</ele>
        <time>2018-09-24T12:16:16Z</time>
      </trkpt>
      <trkpt lat="40.732858758419752" lon="13.957988396286964">
        <ele>17.440000000000001</ele>
        <time>2018-09-24T12:16:27Z</time>
      </trkpt>
      <trkpt lat="40.732838977128267" lon="13.957944810390472">
        <ele>17.440000000000001</ele>
        <time>2018-09-24T12:16:45Z</time>
      </trkpt>
      <trkpt lat="40.732828918844461" lon="13.957946905866265">
        <ele>17.440000000000001</ele>
        <time>2018-09-24T12:17:02Z</time>
      </trkpt>
      <trkpt lat="40.732829170301557" lon="13.957936093211174">
        <ele>17.440000000000001</ele>
        <time>2018-09-24T12:17:17Z</time>
      </trkpt>
      <trkpt lat="40.732828499749303" lon="13.957941373810172">
        <ele>17.440000000000001</ele>
        <time>2018-09-24T12:17:32Z</time>
      </trkpt>
      <trkpt lat="40.732827158644795" lon="13.95791488699615">
        <ele>17.920000000000002</ele>
        <time>2018-09-24T12:17:47Z</time>
      </trkpt>
      <trkpt lat="40.732830259948969" lon="13.95791538991034">
        <ele>17.920000000000002</ele>
        <time>2018-09-24T12:17:49Z</time>
      </trkpt>
      <trkpt lat="40.73300083167851" lon="13.958011865615845">
        <ele>16.960000000000001</ele>
        <time>2018-09-24T12:18:04Z</time>
      </trkpt>
      <trkpt lat="40.733123878017068" lon="13.958105072379112">
        <ele>16.48</ele>
        <time>2018-09-24T12:18:15Z</time>
      </trkpt>
      <trkpt lat="40.733139887452126" lon="13.958215713500977">
        <ele>16.960000000000001</ele>
        <time>2018-09-24T12:18:23Z</time>
      </trkpt>
      <trkpt lat="40.7331049349159" lon="13.958347979933023">
        <ele>16.960000000000001</ele>
        <time>2018-09-24T12:18:36Z</time>
      </trkpt>
      <trkpt lat="40.73308733291924" lon="13.958403300493956">
        <ele>16.960000000000001</ele>
        <time>2018-09-24T12:18:48Z</time>
      </trkpt>
      <trkpt lat="40.733099905773997" lon="13.958394834771752">
        <ele>16.960000000000001</ele>
        <time>2018-09-24T12:18:59Z</time>
      </trkpt>
      <trkpt lat="40.733088590204716" lon="13.958436325192451">
        <ele>16.960000000000001</ele>
        <time>2018-09-24T12:19:08Z</time>
      </trkpt>
      <trkpt lat="40.733080543577671" lon="13.958436492830515">
        <ele>16.960000000000001</ele>
        <time>2018-09-24T12:19:27Z</time>
      </trkpt>
      <trkpt lat="40.733087500557303" lon="13.958430541679263">
        <ele>16.960000000000001</ele>
        <time>2018-09-24T12:19:43Z</time>
      </trkpt>
      <trkpt lat="40.733081549406052" lon="13.958436325192451">
        <ele>16.960000000000001</ele>
        <time>2018-09-24T12:19:59Z</time>
      </trkpt>
      <trkpt lat="40.73308146558702" lon="13.958436157554388">
        <ele>16.960000000000001</ele>
        <time>2018-09-24T12:20:18Z</time>
      </trkpt>
      <trkpt lat="40.733077358454466" lon="13.95843867212534">
        <ele>16.960000000000001</ele>
        <time>2018-09-24T12:20:29Z</time>
      </trkpt>
      <trkpt lat="40.733083309605718" lon="13.958433223888278">
        <ele>16.48</ele>
        <time>2018-09-24T12:20:43Z</time>
      </trkpt>
      <trkpt lat="40.733085237443447" lon="13.958434900268912">
        <ele>16.960000000000001</ele>
        <time>2018-09-24T12:20:59Z</time>
      </trkpt>
      <trkpt lat="40.733096469193697" lon="13.958429787307978">
        <ele>16.48</ele>
        <time>2018-09-24T12:21:16Z</time>
      </trkpt>
      <trkpt lat="40.733099151402712" lon="13.958420986309648">
        <ele>16.48</ele>
        <time>2018-09-24T12:21:34Z</time>
      </trkpt>
      <trkpt lat="40.733099989593029" lon="13.958423668518662">
        <ele>16.48</ele>
        <time>2018-09-24T12:21:45Z</time>
      </trkpt>
      <trkpt lat="40.733073251321912" lon="13.958457028493285">
        <ele>16.48</ele>
        <time>2018-09-24T12:21:56Z</time>
      </trkpt>
      <trkpt lat="40.733086410909891" lon="13.95846750587225">
        <ele>16.48</ele>
        <time>2018-09-24T12:22:19Z</time>
      </trkpt>
      <trkpt lat="40.733098480850458" lon="13.958483096212149">
        <ele>16.48</ele>
        <time>2018-09-24T12:22:39Z</time>
      </trkpt>
      <trkpt lat="40.733089512214065" lon="13.958467002958059">
        <ele>16.48</ele>
        <time>2018-09-24T12:23:06Z</time>
      </trkpt>
      <trkpt lat="40.733078867197037" lon="13.958472954109311">
        <ele>16.48</ele>
        <time>2018-09-24T12:23:26Z</time>
      </trkpt>
      <trkpt lat="40.733072329312563" lon="13.958449987694621">
        <ele>16.48</ele>
        <time>2018-09-24T12:23:46Z</time>
      </trkpt>
      <trkpt lat="40.733064450323582" lon="13.958446886390448">
        <ele>16.48</ele>
        <time>2018-09-24T12:24:10Z</time>
      </trkpt>
      <trkpt lat="40.733068305999041" lon="13.958454765379429">
        <ele>16.48</ele>
        <time>2018-09-24T12:24:29Z</time>
      </trkpt>
      <trkpt lat="40.733068305999041" lon="13.958462476730347">
        <ele>16.48</ele>
        <time>2018-09-24T12:24:54Z</time>
      </trkpt>
      <trkpt lat="40.733060762286186" lon="13.958469517529011">
        <ele>16.48</ele>
        <time>2018-09-24T12:25:10Z</time>
      </trkpt>
      <trkpt lat="40.733057074248791" lon="13.958472954109311">
        <ele>16.48</ele>
        <time>2018-09-24T12:25:29Z</time>
      </trkpt>
      <trkpt lat="40.733028994873166" lon="13.95850614644587">
        <ele>15.52</ele>
        <time>2018-09-24T12:25:43Z</time>
      </trkpt>
      <trkpt lat="40.733022624626756" lon="13.958584852516651">
        <ele>14.08</ele>
        <time>2018-09-24T12:25:52Z</time>
      </trkpt>
      <trkpt lat="40.733027989044785" lon="13.958594659343362">
        <ele>14.08</ele>
        <time>2018-09-24T12:25:53Z</time>
      </trkpt>
      <trkpt lat="40.732982726767659" lon="13.95871426910162">
        <ele>14.08</ele>
        <time>2018-09-24T12:26:02Z</time>
      </trkpt>
      <trkpt lat="40.732899494469166" lon="13.958808984607458">
        <ele>13.119999999999999</ele>
        <time>2018-09-24T12:26:12Z</time>
      </trkpt>
      <trkpt lat="40.732811903581023" lon="13.958936305716634">
        <ele>13.6</ele>
        <time>2018-09-24T12:26:26Z</time>
      </trkpt>
      <trkpt lat="40.732733784243464" lon="13.959034038707614">
        <ele>13.119999999999999</ele>
        <time>2018-09-24T12:26:38Z</time>
      </trkpt>
      <trkpt lat="40.732694389298558" lon="13.959072511643171">
        <ele>13.119999999999999</ele>
        <time>2018-09-24T12:26:43Z</time>
      </trkpt>
      <trkpt lat="40.732576791197062" lon="13.959206286817789">
        <ele>13.119999999999999</ele>
        <time>2018-09-24T12:26:56Z</time>
      </trkpt>
      <trkpt lat="40.732516525313258" lon="13.959283567965031">
        <ele>14.56</ele>
        <time>2018-09-24T12:27:04Z</time>
      </trkpt>
      <trkpt lat="40.732447374612093" lon="13.959402088075876">
        <ele>13.119999999999999</ele>
        <time>2018-09-24T12:27:15Z</time>
      </trkpt>
      <trkpt lat="40.732377385720611" lon="13.959548436105251">
        <ele>13.119999999999999</ele>
        <time>2018-09-24T12:27:28Z</time>
      </trkpt>
      <trkpt lat="40.732318880036473" lon="13.959717163816094">
        <ele>13.119999999999999</ele>
        <time>2018-09-24T12:27:42Z</time>
      </trkpt>
      <trkpt lat="40.732278814539313" lon="13.95983912050724">
        <ele>12.630000000000001</ele>
        <time>2018-09-24T12:27:52Z</time>
      </trkpt>
      <trkpt lat="40.732234641909599" lon="13.959991671144962">
        <ele>12.630000000000001</ele>
        <time>2018-09-24T12:28:04Z</time>
      </trkpt>
      <trkpt lat="40.732212932780385" lon="13.960022600367665">
        <ele>12.630000000000001</ele>
        <time>2018-09-24T12:28:07Z</time>
      </trkpt>
      <trkpt lat="40.732120648026466" lon="13.96015327423811">
        <ele>12.15</ele>
        <time>2018-09-24T12:28:20Z</time>
      </trkpt>
      <trkpt lat="40.732113271951675" lon="13.96016257815063">
        <ele>12.15</ele>
        <time>2018-09-24T12:28:21Z</time>
      </trkpt>
      <trkpt lat="40.732073122635484" lon="13.960238685831428">
        <ele>12.630000000000001</ele>
        <time>2018-09-24T12:28:28Z</time>
      </trkpt>
      <trkpt lat="40.732002463191748" lon="13.960362737998366">
        <ele>12.630000000000001</ele>
        <time>2018-09-24T12:28:41Z</time>
      </trkpt>
      <trkpt lat="40.731993326917291" lon="13.960470193997025">
        <ele>12.630000000000001</ele>
        <time>2018-09-24T12:28:50Z</time>
      </trkpt>
      <trkpt lat="40.73197178542614" lon="13.960577482357621">
        <ele>12.630000000000001</ele>
        <time>2018-09-24T12:29:02Z</time>
      </trkpt>
      <trkpt lat="40.73195711709559" lon="13.960634227842093">
        <ele>12.630000000000001</ele>
        <time>2018-09-24T12:29:13Z</time>
      </trkpt>
      <trkpt lat="40.731979580596089" lon="13.960635317489505">
        <ele>12.630000000000001</ele>
        <time>2018-09-24T12:29:35Z</time>
      </trkpt>
      <trkpt lat="40.731989974156022" lon="13.960630036890507">
        <ele>12.630000000000001</ele>
        <time>2018-09-24T12:29:59Z</time>
      </trkpt>
      <trkpt lat="40.731994332745671" lon="13.960641771554947">
        <ele>12.630000000000001</ele>
        <time>2018-09-24T12:30:19Z</time>
      </trkpt>
      <trkpt lat="40.73199818842113" lon="13.960641603916883">
        <ele>12.630000000000001</ele>
        <time>2018-09-24T12:30:37Z</time>
      </trkpt>
      <trkpt lat="40.73199181817472" lon="13.960653422400355">
        <ele>12.630000000000001</ele>
        <time>2018-09-24T12:30:51Z</time>
      </trkpt>
      <trkpt lat="40.731979999691248" lon="13.960756855085492">
        <ele>13.119999999999999</ele>
        <time>2018-09-24T12:31:00Z</time>
      </trkpt>
      <trkpt lat="40.731965582817793" lon="13.960905130952597">
        <ele>13.119999999999999</ele>
        <time>2018-09-24T12:31:11Z</time>
      </trkpt>
      <trkpt lat="40.731966504827142" lon="13.960919044911861">
        <ele>13.119999999999999</ele>
        <time>2018-09-24T12:31:12Z</time>
      </trkpt>
      <trkpt lat="40.731959547847509" lon="13.961078384891152">
        <ele>13.119999999999999</ele>
        <time>2018-09-24T12:31:24Z</time>
      </trkpt>
      <trkpt lat="40.731950411573052" lon="13.96122582256794">
        <ele>13.119999999999999</ele>
        <time>2018-09-24T12:31:35Z</time>
      </trkpt>
      <trkpt lat="40.731955524533987" lon="13.961284663528204">
        <ele>13.119999999999999</ele>
        <time>2018-09-24T12:31:39Z</time>
      </trkpt>
      <trkpt lat="40.731944125145674" lon="13.961466131731868">
        <ele>13.119999999999999</ele>
        <time>2018-09-24T12:31:54Z</time>
      </trkpt>
      <trkpt lat="40.731941442936659" lon="13.961529918015003">
        <ele>13.119999999999999</ele>
        <time>2018-09-24T12:31:59Z</time>
      </trkpt>
      <trkpt lat="40.731933563947678" lon="13.961569312959909">
        <ele>13.119999999999999</ele>
        <time>2018-09-24T12:32:02Z</time>
      </trkpt>
      <trkpt lat="40.731932641938329" lon="13.961591441184282">
        <ele>13.6</ele>
        <time>2018-09-24T12:32:04Z</time>
      </trkpt>
      <trkpt lat="40.731928031891584" lon="13.961643995717168">
        <ele>13.6</ele>
        <time>2018-09-24T12:32:08Z</time>
      </trkpt>
      <trkpt lat="40.731912273913622" lon="13.961806604638696">
        <ele>13.6</ele>
        <time>2018-09-24T12:32:21Z</time>
      </trkpt>
      <trkpt lat="40.731913279742002" lon="13.961956640705466">
        <ele>13.6</ele>
        <time>2018-09-24T12:32:32Z</time>
      </trkpt>
      <trkpt lat="40.731895593926311" lon="13.962099049240351">
        <ele>13.6</ele>
        <time>2018-09-24T12:32:43Z</time>
      </trkpt>
      <trkpt lat="40.731884948909283" lon="13.962265430018306">
        <ele>14.08</ele>
        <time>2018-09-24T12:32:55Z</time>
      </trkpt>
      <trkpt lat="40.731883607804775" lon="13.962277919054031">
        <ele>13.6</ele>
        <time>2018-09-24T12:32:56Z</time>
      </trkpt>
      <trkpt lat="40.731867011636496" lon="13.962444132193923">
        <ele>14.56</ele>
        <time>2018-09-24T12:33:09Z</time>
      </trkpt>
      <trkpt lat="40.731852008029819" lon="13.962587965652347">
        <ele>14.08</ele>
        <time>2018-09-24T12:33:19Z</time>
      </trkpt>
      <trkpt lat="40.731795514002442" lon="13.962776893749833">
        <ele>13.6</ele>
        <time>2018-09-24T12:33:32Z</time>
      </trkpt>
      <trkpt lat="40.731763243675232" lon="13.962945453822613">
        <ele>13.6</ele>
        <time>2018-09-24T12:33:44Z</time>
      </trkpt>
      <trkpt lat="40.731758298352361" lon="13.962967079132795">
        <ele>13.119999999999999</ele>
        <time>2018-09-24T12:33:48Z</time>
      </trkpt>
      <trkpt lat="40.731688477098942" lon="13.963110325857997">
        <ele>13.119999999999999</ele>
        <time>2018-09-24T12:34:00Z</time>
      </trkpt>
      <trkpt lat="40.731602478772402" lon="13.963243346661329">
        <ele>12.15</ele>
        <time>2018-09-24T12:34:13Z</time>
      </trkpt>
      <trkpt lat="40.731496531516314" lon="13.963371841236949">
        <ele>12.15</ele>
        <time>2018-09-24T12:34:26Z</time>
      </trkpt>
      <trkpt lat="40.731420004740357" lon="13.963470077142119">
        <ele>14.08</ele>
        <time>2018-09-24T12:34:37Z</time>
      </trkpt>
      <trkpt lat="40.731384549289942" lon="13.963554902002215">
        <ele>15.039999999999999</ele>
        <time>2018-09-24T12:34:50Z</time>
      </trkpt>
      <trkpt lat="40.731399217620492" lon="13.963571581989527">
        <ele>15.039999999999999</ele>
        <time>2018-09-24T12:35:00Z</time>
      </trkpt>
      <trkpt lat="40.731400810182095" lon="13.96362598054111">
        <ele>16.48</ele>
        <time>2018-09-24T12:35:09Z</time>
      </trkpt>
      <trkpt lat="40.731401983648539" lon="13.963615084066987">
        <ele>15.52</ele>
        <time>2018-09-24T12:35:24Z</time>
      </trkpt>
      <trkpt lat="40.731420507654548" lon="13.963573928922415">
        <ele>15.52</ele>
        <time>2018-09-24T12:35:41Z</time>
      </trkpt>
      <trkpt lat="40.7314108684659" lon="13.963578538969159">
        <ele>15.52</ele>
        <time>2018-09-24T12:35:59Z</time>
      </trkpt>
      <trkpt lat="40.731456549838185" lon="13.963566971942782">
        <ele>16</ele>
        <time>2018-09-24T12:36:22Z</time>
      </trkpt>
      <trkpt lat="40.731234010308981" lon="13.964159656316042">
        <ele>71.269999999999996</ele>
        <time>2018-09-24T12:38:26Z</time>
      </trkpt>
      <trkpt lat="40.731208277866244" lon="13.964182287454605">
        <ele>71.269999999999996</ele>
        <time>2018-09-24T12:38:31Z</time>
      </trkpt>
      <trkpt lat="40.731173828244209" lon="13.964178767055273">
        <ele>70.790000000000006</ele>
        <time>2018-09-24T12:38:41Z</time>
      </trkpt>
      <trkpt lat="40.731248511001468" lon="13.964144568890333">
        <ele>72.719999999999999</ele>
        <time>2018-09-24T12:38:53Z</time>
      </trkpt>
      <trkpt lat="40.731270471587777" lon="13.964122105389833">
        <ele>73.200000000000003</ele>
        <time>2018-09-24T12:38:56Z</time>
      </trkpt>
      <trkpt lat="40.731345657259226" lon="13.964198967441916">
        <ele>74.640000000000001</ele>
        <time>2018-09-24T12:39:05Z</time>
      </trkpt>
      <trkpt lat="40.731373485177755" lon="13.964219084009528">
        <ele>75.120000000000005</ele>
        <time>2018-09-24T12:39:15Z</time>
      </trkpt>
      <trkpt lat="40.731403408572078" lon="13.964260993525386">
        <ele>75.599999999999994</ele>
        <time>2018-09-24T12:39:20Z</time>
      </trkpt>
      <trkpt lat="40.731427129358053" lon="13.96428563632071">
        <ele>75.599999999999994</ele>
        <time>2018-09-24T12:39:31Z</time>
      </trkpt>
      <trkpt lat="40.731382537633181" lon="13.964115316048265">
        <ele>74.640000000000001</ele>
        <time>2018-09-24T12:39:42Z</time>
      </trkpt>
      <trkpt lat="40.731367953121662" lon="13.96410726942122">
        <ele>74.640000000000001</ele>
        <time>2018-09-24T12:40:06Z</time>
      </trkpt>
      <trkpt lat="40.731332749128342" lon="13.964198380708694">
        <ele>75.120000000000005</ele>
        <time>2018-09-24T12:40:17Z</time>
      </trkpt>
      <trkpt lat="40.7313262950629" lon="13.9642827026546">
        <ele>76.079999999999998</ele>
        <time>2018-09-24T12:40:27Z</time>
      </trkpt>
      <trkpt lat="40.731270303949714" lon="13.964351182803512">
        <ele>76.560000000000002</ele>
        <time>2018-09-24T12:40:39Z</time>
      </trkpt>
      <trkpt lat="40.731124626472592" lon="13.964562239125371">
        <ele>76.560000000000002</ele>
        <time>2018-09-24T12:41:15Z</time>
      </trkpt>
      <trkpt lat="40.731216911226511" lon="13.964125206694007">
        <ele>76.079999999999998</ele>
        <time>2018-09-24T12:42:23Z</time>
      </trkpt>
      <trkpt lat="40.731302658095956" lon="13.964355792850256">
        <ele>76.079999999999998</ele>
        <time>2018-09-24T12:42:28Z</time>
      </trkpt>
      <trkpt lat="40.731347752735019" lon="13.964349925518036">
        <ele>76.079999999999998</ele>
        <time>2018-09-24T12:42:39Z</time>
      </trkpt>
      <trkpt lat="40.731330066919327" lon="13.964231740683317">
        <ele>76.079999999999998</ele>
        <time>2018-09-24T12:42:50Z</time>
      </trkpt>
      <trkpt lat="40.731319757178426" lon="13.964226962998509">
        <ele>75.599999999999994</ele>
        <time>2018-09-24T12:43:01Z</time>
      </trkpt>
      <trkpt lat="40.7313331682235" lon="13.964236350730062">
        <ele>75.120000000000005</ele>
        <time>2018-09-24T12:43:16Z</time>
      </trkpt>
      <trkpt lat="40.731327049434185" lon="13.964224699884653">
        <ele>75.120000000000005</ele>
        <time>2018-09-24T12:43:36Z</time>
      </trkpt>
      <trkpt lat="40.731307854875922" lon="13.964233417063951">
        <ele>75.599999999999994</ele>
        <time>2018-09-24T12:43:50Z</time>
      </trkpt>
      <trkpt lat="40.731328055262566" lon="13.964197542518377">
        <ele>74.640000000000001</ele>
        <time>2018-09-24T12:44:06Z</time>
      </trkpt>
      <trkpt lat="40.731327971443534" lon="13.964195447042584">
        <ele>74.159999999999997</ele>
        <time>2018-09-24T12:44:23Z</time>
      </trkpt>
      <trkpt lat="40.73134783655405" lon="13.964192261919379">
        <ele>74.159999999999997</ele>
        <time>2018-09-24T12:44:41Z</time>
      </trkpt>
      <trkpt lat="40.731330988928676" lon="13.964194022119045">
        <ele>74.159999999999997</ele>
        <time>2018-09-24T12:44:59Z</time>
      </trkpt>
      <trkpt lat="40.731353452429175" lon="13.964193183928728">
        <ele>74.159999999999997</ele>
        <time>2018-09-24T12:45:20Z</time>
      </trkpt>
      <trkpt lat="40.731331408023834" lon="13.964197961613536">
        <ele>74.159999999999997</ele>
        <time>2018-09-24T12:45:34Z</time>
      </trkpt>
      <trkpt lat="40.731342220678926" lon="13.964198548346758">
        <ele>75.120000000000005</ele>
        <time>2018-09-24T12:45:41Z</time>
      </trkpt>
      <trkpt lat="40.731345070526004" lon="13.964200392365456">
        <ele>74.159999999999997</ele>
        <time>2018-09-24T12:46:09Z</time>
      </trkpt>
      <trkpt lat="40.731343561783433" lon="13.964196788147092">
        <ele>75.120000000000005</ele>
        <time>2018-09-24T12:46:26Z</time>
      </trkpt>
      <trkpt lat="40.73135320097208" lon="13.964215982705355">
        <ele>74.640000000000001</ele>
        <time>2018-09-24T12:46:43Z</time>
      </trkpt>
      <trkpt lat="40.731380693614483" lon="13.964212713763118">
        <ele>75.120000000000005</ele>
        <time>2018-09-24T12:47:08Z</time>
      </trkpt>
      <trkpt lat="40.731363343074918" lon="13.964180611073971">
        <ele>75.120000000000005</ele>
        <time>2018-09-24T12:47:29Z</time>
      </trkpt>
      <trkpt lat="40.731356889009476" lon="13.964192848652601">
        <ele>75.120000000000005</ele>
        <time>2018-09-24T12:47:52Z</time>
      </trkpt>
      <trkpt lat="40.731361666694283" lon="13.9641791023314">
        <ele>75.120000000000005</ele>
        <time>2018-09-24T12:48:05Z</time>
      </trkpt>
      <trkpt lat="40.731361834332347" lon="13.964180108159781">
        <ele>75.120000000000005</ele>
        <time>2018-09-24T12:48:25Z</time>
      </trkpt>
      <trkpt lat="40.731351356953382" lon="13.964190585538745">
        <ele>75.120000000000005</ele>
        <time>2018-09-24T12:48:45Z</time>
      </trkpt>
      <trkpt lat="40.731355631724" lon="13.964176252484322">
        <ele>75.120000000000005</ele>
        <time>2018-09-24T12:49:01Z</time>
      </trkpt>
      <trkpt lat="40.731361918151379" lon="13.964189160615206">
        <ele>75.120000000000005</ele>
        <time>2018-09-24T12:49:24Z</time>
      </trkpt>
      <trkpt lat="40.731358146294951" lon="13.964178767055273">
        <ele>76.079999999999998</ele>
        <time>2018-09-24T12:49:40Z</time>
      </trkpt>
      <trkpt lat="40.731353703886271" lon="13.96414540708065">
        <ele>75.599999999999994</ele>
        <time>2018-09-24T12:49:50Z</time>
      </trkpt>
      <trkpt lat="40.73134783655405" lon="13.964155465364456">
        <ele>76.079999999999998</ele>
        <time>2018-09-24T12:50:01Z</time>
      </trkpt>
      <trkpt lat="40.731360074132681" lon="13.964118165895343">
        <ele>76.079999999999998</ele>
        <time>2018-09-24T12:50:12Z</time>
      </trkpt>
      <trkpt lat="40.73137859813869" lon="13.964102324098349">
        <ele>76.079999999999998</ele>
        <time>2018-09-24T12:50:27Z</time>
      </trkpt>
      <trkpt lat="40.731358397752047" lon="13.964104419574142">
        <ele>76.079999999999998</ele>
        <time>2018-09-24T12:50:43Z</time>
      </trkpt>
      <trkpt lat="40.731360912322998" lon="13.964087571948767">
        <ele>76.079999999999998</ele>
        <time>2018-09-24T12:50:52Z</time>
      </trkpt>
      <trkpt lat="40.731400642544031" lon="13.964135013520718">
        <ele>75.599999999999994</ele>
        <time>2018-09-24T12:51:09Z</time>
      </trkpt>
      <trkpt lat="40.731408353894949" lon="13.964095450937748">
        <ele>76.079999999999998</ele>
        <time>2018-09-24T12:51:27Z</time>
      </trkpt>
      <trkpt lat="40.731389243155718" lon="13.964092181995511">
        <ele>75.599999999999994</ele>
        <time>2018-09-24T12:51:45Z</time>
      </trkpt>
      <trkpt lat="40.731396116316319" lon="13.964086817577481">
        <ele>76.079999999999998</ele>
        <time>2018-09-24T12:52:01Z</time>
      </trkpt>
      <trkpt lat="40.731377927586436" lon="13.964075921103358">
        <ele>76.079999999999998</ele>
        <time>2018-09-24T12:52:22Z</time>
      </trkpt>
      <trkpt lat="40.731383040547371" lon="13.964076843112707">
        <ele>75.599999999999994</ele>
        <time>2018-09-24T12:52:40Z</time>
      </trkpt>
      <trkpt lat="40.731384549289942" lon="13.964085392653942">
        <ele>75.599999999999994</ele>
        <time>2018-09-24T12:52:54Z</time>
      </trkpt>
      <trkpt lat="40.7313815318048" lon="13.96410777233541">
        <ele>75.599999999999994</ele>
        <time>2018-09-24T12:53:17Z</time>
      </trkpt>
      <trkpt lat="40.731367534026504" lon="13.964223777875304">
        <ele>76.079999999999998</ele>
        <time>2018-09-24T12:53:32Z</time>
      </trkpt>
      <trkpt lat="40.731379687786102" lon="13.96427339874208">
        <ele>76.079999999999998</ele>
        <time>2018-09-24T12:53:44Z</time>
      </trkpt>
      <trkpt lat="40.73141816072166" lon="13.964284965768456">
        <ele>78.480000000000004</ele>
        <time>2018-09-24T12:54:00Z</time>
      </trkpt>
      <trkpt lat="40.731783611699939" lon="13.964129816740751">
        <ele>76.079999999999998</ele>
        <time>2018-09-24T12:54:52Z</time>
      </trkpt>
      <trkpt lat="40.731726447120309" lon="13.964139875024557">
        <ele>75.599999999999994</ele>
        <time>2018-09-24T12:55:03Z</time>
      </trkpt>
      <trkpt lat="40.731731727719307" lon="13.964138785377145">
        <ele>75.599999999999994</ele>
        <time>2018-09-24T12:55:14Z</time>
      </trkpt>
      <trkpt lat="40.731736170127988" lon="13.964127218350768">
        <ele>75.599999999999994</ele>
        <time>2018-09-24T12:55:43Z</time>
      </trkpt>
      <trkpt lat="40.731737427413464" lon="13.964125793427229">
        <ele>75.599999999999994</ele>
        <time>2018-09-24T12:56:04Z</time>
      </trkpt>
      <trkpt lat="40.731728626415133" lon="13.964133337140083">
        <ele>75.599999999999994</ele>
        <time>2018-09-24T12:56:23Z</time>
      </trkpt>
      <trkpt lat="40.731735667213798" lon="13.964129146188498">
        <ele>76.079999999999998</ele>
        <time>2018-09-24T12:56:39Z</time>
      </trkpt>
      <trkpt lat="40.73174262419343" lon="13.964115902781487">
        <ele>75.599999999999994</ele>
        <time>2018-09-24T12:56:58Z</time>
      </trkpt>
      <trkpt lat="40.731744300574064" lon="13.964123446494341">
        <ele>76.079999999999998</ele>
        <time>2018-09-24T12:57:27Z</time>
      </trkpt>
      <trkpt lat="40.731746312230825" lon="13.964130822569132">
        <ele>76.079999999999998</ele>
        <time>2018-09-24T12:57:54Z</time>
      </trkpt>
      <trkpt lat="40.731723597273231" lon="13.964137360453606">
        <ele>76.079999999999998</ele>
        <time>2018-09-24T12:58:22Z</time>
      </trkpt>
      <trkpt lat="40.731724770739675" lon="13.964175330474973">
        <ele>76.079999999999998</ele>
        <time>2018-09-24T12:58:32Z</time>
      </trkpt>
      <trkpt lat="40.731688058003783" lon="13.96421967074275">
        <ele>77.040000000000006</ele>
        <time>2018-09-24T12:58:43Z</time>
      </trkpt>
      <trkpt lat="40.731668528169394" lon="13.96416837349534">
        <ele>76.560000000000002</ele>
        <time>2018-09-24T12:59:02Z</time>
      </trkpt>
      <trkpt lat="40.731760812923312" lon="13.964109951630235">
        <ele>76.560000000000002</ele>
        <time>2018-09-24T12:59:12Z</time>
      </trkpt>
      <trkpt lat="40.731770368292928" lon="13.96412679925561">
        <ele>76.560000000000002</ele>
        <time>2018-09-24T12:59:34Z</time>
      </trkpt>
      <trkpt lat="40.731714544817805" lon="13.964179772883654">
        <ele>76.560000000000002</ele>
        <time>2018-09-24T12:59:50Z</time>
      </trkpt>
      <trkpt lat="40.73169182986021" lon="13.964173821732402">
        <ele>77.040000000000006</ele>
        <time>2018-09-24T13:00:03Z</time>
      </trkpt>
      <trkpt lat="40.73166492395103" lon="13.964193686842918">
        <ele>76.560000000000002</ele>
        <time>2018-09-24T13:00:15Z</time>
      </trkpt>
      <trkpt lat="40.731682609766722" lon="13.96419913507998">
        <ele>76.560000000000002</ele>
        <time>2018-09-24T13:00:25Z</time>
      </trkpt>
      <trkpt lat="40.731693422421813" lon="13.964186813682318">
        <ele>76.560000000000002</ele>
        <time>2018-09-24T13:00:47Z</time>
      </trkpt>
      <trkpt lat="40.731694595888257" lon="13.964189579710364">
        <ele>77.040000000000006</ele>
        <time>2018-09-24T13:01:09Z</time>
      </trkpt>
      <trkpt lat="40.731705743819475" lon="13.964169295504689">
        <ele>75.599999999999994</ele>
        <time>2018-09-24T13:01:21Z</time>
      </trkpt>
      <trkpt lat="40.731700966134667" lon="13.964168624952435">
        <ele>77.040000000000006</ele>
        <time>2018-09-24T13:01:24Z</time>
      </trkpt>
      <trkpt lat="40.731681184843183" lon="13.964194022119045">
        <ele>77.040000000000006</ele>
        <time>2018-09-24T13:01:42Z</time>
      </trkpt>
      <trkpt lat="40.731681436300278" lon="13.9641791023314">
        <ele>77.519999999999996</ele>
        <time>2018-09-24T13:02:04Z</time>
      </trkpt>
      <trkpt lat="40.731683699414134" lon="13.964209947735071">
        <ele>77.040000000000006</ele>
        <time>2018-09-24T13:02:19Z</time>
      </trkpt>
      <trkpt lat="40.731652099639177" lon="13.964238110929728">
        <ele>77.519999999999996</ele>
        <time>2018-09-24T13:02:30Z</time>
      </trkpt>
      <trkpt lat="40.731490328907967" lon="13.964489819481969">
        <ele>82.329999999999998</ele>
        <time>2018-09-24T13:09:29Z</time>
      </trkpt>
      <trkpt lat="40.731488820165396" lon="13.964494932442904">
        <ele>82.329999999999998</ele>
        <time>2018-09-24T13:09:30Z</time>
      </trkpt>
      <trkpt lat="40.731457388028502" lon="13.964483784511685">
        <ele>82.329999999999998</ele>
        <time>2018-09-24T13:09:47Z</time>
      </trkpt>
      <trkpt lat="40.731363175436854" lon="13.964302148669958">
        <ele>81.370000000000005</ele>
        <time>2018-09-24T13:10:10Z</time>
      </trkpt>
      <trkpt lat="40.73137566447258" lon="13.964282115921378">
        <ele>80.409999999999997</ele>
        <time>2018-09-24T13:10:19Z</time>
      </trkpt>
      <trkpt lat="40.731352530419827" lon="13.964200476184487">
        <ele>79.930000000000007</ele>
        <time>2018-09-24T13:10:30Z</time>
      </trkpt>
      <trkpt lat="40.731353368610144" lon="13.964224029332399">
        <ele>79.930000000000007</ele>
        <time>2018-09-24T13:10:42Z</time>
      </trkpt>
      <trkpt lat="40.731353536248207" lon="13.964217156171799">
        <ele>80.409999999999997</ele>
        <time>2018-09-24T13:10:55Z</time>
      </trkpt>
      <trkpt lat="40.731341382488608" lon="13.96421673707664">
        <ele>79.930000000000007</ele>
        <time>2018-09-24T13:11:15Z</time>
      </trkpt>
      <trkpt lat="40.731350937858224" lon="13.964232243597507">
        <ele>79.450000000000003</ele>
        <time>2018-09-24T13:11:26Z</time>
      </trkpt>
      <trkpt lat="40.731360157951713" lon="13.964251019060612">
        <ele>79.450000000000003</ele>
        <time>2018-09-24T13:11:47Z</time>
      </trkpt>
      <trkpt lat="40.73136493563652" lon="13.964231489226222">
        <ele>79.450000000000003</ele>
        <time>2018-09-24T13:12:13Z</time>
      </trkpt>
      <trkpt lat="40.731322858482599" lon="13.964229477569461">
        <ele>78.969999999999999</ele>
        <time>2018-09-24T13:12:38Z</time>
      </trkpt>
      <trkpt lat="40.731323696672916" lon="13.964234422892332">
        <ele>79.450000000000003</ele>
        <time>2018-09-24T13:13:05Z</time>
      </trkpt>
      <trkpt lat="40.731337862089276" lon="13.964224029332399">
        <ele>79.450000000000003</ele>
        <time>2018-09-24T13:13:33Z</time>
      </trkpt>
      <trkpt lat="40.731309531256557" lon="13.964191423729062">
        <ele>78.969999999999999</ele>
        <time>2018-09-24T13:13:56Z</time>
      </trkpt>
      <trkpt lat="40.731306849047542" lon="13.964213971048594">
        <ele>78.969999999999999</ele>
        <time>2018-09-24T13:14:24Z</time>
      </trkpt>
      <trkpt lat="40.731335347518325" lon="13.964210534468293">
        <ele>78.969999999999999</ele>
        <time>2018-09-24T13:14:50Z</time>
      </trkpt>
      <trkpt lat="40.731356721371412" lon="13.964251354336739">
        <ele>78.969999999999999</ele>
        <time>2018-09-24T13:15:15Z</time>
      </trkpt>
      <trkpt lat="40.731375832110643" lon="13.964263089001179">
        <ele>78.480000000000004</ele>
        <time>2018-09-24T13:15:50Z</time>
      </trkpt>
      <trkpt lat="40.73134490288794" lon="13.964238194748759">
        <ele>78.480000000000004</ele>
        <time>2018-09-24T13:16:18Z</time>
      </trkpt>
      <trkpt lat="40.731333503499627" lon="13.96425923332572">
        <ele>78</ele>
        <time>2018-09-24T13:16:39Z</time>
      </trkpt>
      <trkpt lat="40.731313638389111" lon="13.964241966605186">
        <ele>78</ele>
        <time>2018-09-24T13:17:04Z</time>
      </trkpt>
      <trkpt lat="40.731341298669577" lon="13.964261496439576">
        <ele>78</ele>
        <time>2018-09-24T13:17:19Z</time>
      </trkpt>
      <trkpt lat="40.731397457420826" lon="13.964275661855936">
        <ele>77.519999999999996</ele>
        <time>2018-09-24T13:17:45Z</time>
      </trkpt>
      <trkpt lat="40.731353536248207" lon="13.964247750118375">
        <ele>78.480000000000004</ele>
        <time>2018-09-24T13:17:56Z</time>
      </trkpt>
      <trkpt lat="40.731360744684935" lon="13.964184550568461">
        <ele>77.519999999999996</ele>
        <time>2018-09-24T13:18:07Z</time>
      </trkpt>
      <trkpt lat="40.731324199587107" lon="13.964140880852938">
        <ele>76.560000000000002</ele>
        <time>2018-09-24T13:18:18Z</time>
      </trkpt>
      <trkpt lat="40.731233423575759" lon="13.964156052097678">
        <ele>75.120000000000005</ele>
        <time>2018-09-24T13:18:30Z</time>
      </trkpt>
      <trkpt lat="40.731177013367414" lon="13.964189998805523">
        <ele>73.200000000000003</ele>
        <time>2018-09-24T13:18:41Z</time>
      </trkpt>
      <trkpt lat="40.731095122173429" lon="13.964251019060612">
        <ele>73.680000000000007</ele>
        <time>2018-09-24T13:18:55Z</time>
      </trkpt>
      <trkpt lat="40.731057235971093" lon="13.964289659634233">
        <ele>73.200000000000003</ele>
        <time>2018-09-24T13:19:08Z</time>
      </trkpt>
      <trkpt lat="40.73105807416141" lon="13.964324863627553">
        <ele>73.200000000000003</ele>
        <time>2018-09-24T13:19:21Z</time>
      </trkpt>
      <trkpt lat="40.730951791629195" lon="13.964414549991488">
        <ele>77.519999999999996</ele>
        <time>2018-09-24T13:20:10Z</time>
      </trkpt>
      <trkpt lat="40.730969812721014" lon="13.964349674060941">
        <ele>77.519999999999996</ele>
        <time>2018-09-24T13:20:19Z</time>
      </trkpt>
      <trkpt lat="40.731007279828191" lon="13.96430759690702">
        <ele>77.040000000000006</ele>
        <time>2018-09-24T13:20:28Z</time>
      </trkpt>
      <trkpt lat="40.731015577912331" lon="13.964325534179807">
        <ele>76.560000000000002</ele>
        <time>2018-09-24T13:20:35Z</time>
      </trkpt>
      <trkpt lat="40.730984732508659" lon="13.964380519464612">
        <ele>77.519999999999996</ele>
        <time>2018-09-24T13:20:42Z</time>
      </trkpt>
      <trkpt lat="40.730927567929029" lon="13.964433493092656">
        <ele>77.040000000000006</ele>
        <time>2018-09-24T13:20:50Z</time>
      </trkpt>
      <trkpt lat="40.730845676735044" lon="13.964418070390821">
        <ele>77.519999999999996</ele>
        <time>2018-09-24T13:21:03Z</time>
      </trkpt>
      <trkpt lat="40.73085187934339" lon="13.964411867782474">
        <ele>77.519999999999996</ele>
        <time>2018-09-24T13:21:21Z</time>
      </trkpt>
      <trkpt lat="40.730888256803155" lon="13.964364845305681">
        <ele>77.519999999999996</ele>
        <time>2018-09-24T13:21:36Z</time>
      </trkpt>
      <trkpt lat="40.730883227661252" lon="13.964346656575799">
        <ele>77.519999999999996</ele>
        <time>2018-09-24T13:21:46Z</time>
      </trkpt>
      <trkpt lat="40.730899069458246" lon="13.964318996295333">
        <ele>77.040000000000006</ele>
        <time>2018-09-24T13:21:58Z</time>
      </trkpt>
      <trkpt lat="40.730911307036877" lon="13.964327545836568">
        <ele>77.519999999999996</ele>
        <time>2018-09-24T13:22:19Z</time>
      </trkpt>
      <trkpt lat="40.73090611025691" lon="13.964380016550422">
        <ele>77.519999999999996</ele>
        <time>2018-09-24T13:22:28Z</time>
      </trkpt>
      <trkpt lat="40.730900410562754" lon="13.964359480887651">
        <ele>77.519999999999996</ele>
        <time>2018-09-24T13:22:41Z</time>
      </trkpt>
      <trkpt lat="40.730908373370767" lon="13.964367192238569">
        <ele>78</ele>
        <time>2018-09-24T13:22:56Z</time>
      </trkpt>
      <trkpt lat="40.730923796072602" lon="13.964404659345746">
        <ele>77.519999999999996</ele>
        <time>2018-09-24T13:23:08Z</time>
      </trkpt>
      <trkpt lat="40.730897476896644" lon="13.964467355981469">
        <ele>77.519999999999996</ele>
        <time>2018-09-24T13:23:21Z</time>
      </trkpt>
      <trkpt lat="40.730893705040216" lon="13.964365599676967">
        <ele>77.519999999999996</ele>
        <time>2018-09-24T13:23:32Z</time>
      </trkpt>
      <trkpt lat="40.73090024292469" lon="13.964334586635232">
        <ele>77.519999999999996</ele>
        <time>2018-09-24T13:23:45Z</time>
      </trkpt>
      <trkpt lat="40.73090024292469" lon="13.964356295764446">
        <ele>77.519999999999996</ele>
        <time>2018-09-24T13:23:56Z</time>
      </trkpt>
      <trkpt lat="40.730903344228864" lon="13.964349506422877">
        <ele>77.519999999999996</ele>
        <time>2018-09-24T13:24:11Z</time>
      </trkpt>
      <trkpt lat="40.730895297601819" lon="13.964360905811191">
        <ele>77.040000000000006</ele>
        <time>2018-09-24T13:24:35Z</time>
      </trkpt>
      <trkpt lat="40.730896638706326" lon="13.964344477280974">
        <ele>77.040000000000006</ele>
        <time>2018-09-24T13:24:56Z</time>
      </trkpt>
      <trkpt lat="40.730892196297646" lon="13.964349422603846">
        <ele>77.040000000000006</ele>
        <time>2018-09-24T13:25:16Z</time>
      </trkpt>
      <trkpt lat="40.730898901820183" lon="13.964346824213862">
        <ele>77.040000000000006</ele>
        <time>2018-09-24T13:25:37Z</time>
      </trkpt>
      <trkpt lat="40.73089043609798" lon="13.964358223602176">
        <ele>76.560000000000002</ele>
        <time>2018-09-24T13:25:53Z</time>
      </trkpt>
      <trkpt lat="40.730904014781117" lon="13.964355625212193">
        <ele>76.560000000000002</ele>
        <time>2018-09-24T13:26:11Z</time>
      </trkpt>
      <trkpt lat="40.730898482725024" lon="13.96436283364892">
        <ele>76.560000000000002</ele>
        <time>2018-09-24T13:26:41Z</time>
      </trkpt>
      <trkpt lat="40.730898147448897" lon="13.964345483109355">
        <ele>76.560000000000002</ele>
        <time>2018-09-24T13:27:08Z</time>
      </trkpt>
      <trkpt lat="40.730901416391134" lon="13.964338023215532">
        <ele>76.560000000000002</ele>
        <time>2018-09-24T13:27:29Z</time>
      </trkpt>
      <trkpt lat="40.730902757495642" lon="13.964350847527385">
        <ele>76.560000000000002</ele>
        <time>2018-09-24T13:28:00Z</time>
      </trkpt>
      <trkpt lat="40.730898231267929" lon="13.964350512251258">
        <ele>76.079999999999998</ele>
        <time>2018-09-24T13:28:29Z</time>
      </trkpt>
      <trkpt lat="40.730890771374106" lon="13.964353110641241">
        <ele>76.079999999999998</ele>
        <time>2018-09-24T13:28:59Z</time>
      </trkpt>
      <trkpt lat="40.730902841314673" lon="13.964343890547752">
        <ele>76.079999999999998</ele>
        <time>2018-09-24T13:29:27Z</time>
      </trkpt>
      <trkpt lat="40.730898398905993" lon="13.964354954659939">
        <ele>76.079999999999998</ele>
        <time>2018-09-24T13:29:41Z</time>
      </trkpt>
      <trkpt lat="40.730890603736043" lon="13.964342046529055">
        <ele>76.079999999999998</ele>
        <time>2018-09-24T13:29:50Z</time>
      </trkpt>
      <trkpt lat="40.730898650363088" lon="13.96434866823256">
        <ele>76.079999999999998</ele>
        <time>2018-09-24T13:30:06Z</time>
      </trkpt>
      <trkpt lat="40.730893788859248" lon="13.964351685717702">
        <ele>75.599999999999994</ele>
        <time>2018-09-24T13:30:29Z</time>
      </trkpt>
      <trkpt lat="40.730889849364758" lon="13.964352691546082">
        <ele>75.599999999999994</ele>
        <time>2018-09-24T13:30:47Z</time>
      </trkpt>
      <trkpt lat="40.730889933183789" lon="13.964346908032894">
        <ele>75.599999999999994</ele>
        <time>2018-09-24T13:31:01Z</time>
      </trkpt>
      <trkpt lat="40.730916922912002" lon="13.964411867782474">
        <ele>76.079999999999998</ele>
        <time>2018-09-24T13:31:12Z</time>
      </trkpt>
      <trkpt lat="40.730925807729363" lon="13.964499123394489">
        <ele>75.599999999999994</ele>
        <time>2018-09-24T13:31:22Z</time>
      </trkpt>
      <trkpt lat="40.730935698375106" lon="13.964486215263605">
        <ele>75.120000000000005</ele>
        <time>2018-09-24T13:31:32Z</time>
      </trkpt>
      <trkpt lat="40.730977104976773" lon="13.964407257735729">
        <ele>76.079999999999998</ele>
        <time>2018-09-24T13:31:42Z</time>
      </trkpt>
      <trkpt lat="40.731085315346718" lon="13.964402228593826">
        <ele>72.719999999999999</ele>
        <time>2018-09-24T13:31:58Z</time>
      </trkpt>
      <trkpt lat="40.73091340251267" lon="13.964513540267944">
        <ele>71.760000000000005</ele>
        <time>2018-09-24T13:32:12Z</time>
      </trkpt>
      <trkpt lat="40.730891693383455" lon="13.964551342651248">
        <ele>71.269999999999996</ele>
        <time>2018-09-24T13:32:21Z</time>
      </trkpt>
      <trkpt lat="40.730848778039217" lon="13.964600628241897">
        <ele>71.269999999999996</ele>
        <time>2018-09-24T13:32:32Z</time>
      </trkpt>
      <trkpt lat="40.730842910706997" lon="13.964633652940392">
        <ele>71.269999999999996</ele>
        <time>2018-09-24T13:32:35Z</time>
      </trkpt>
      <trkpt lat="40.730755990371108" lon="13.964677322655916">
        <ele>70.790000000000006</ele>
        <time>2018-09-24T13:32:49Z</time>
      </trkpt>
      <trkpt lat="40.730715841054916" lon="13.964733565226197">
        <ele>70.790000000000006</ele>
        <time>2018-09-24T13:33:00Z</time>
      </trkpt>
      <trkpt lat="40.730711985379457" lon="13.964750915765762">
        <ele>70.790000000000006</ele>
        <time>2018-09-24T13:33:11Z</time>
      </trkpt>
      <trkpt lat="40.730669153854251" lon="13.96477036178112">
        <ele>70.790000000000006</ele>
        <time>2018-09-24T13:33:23Z</time>
      </trkpt>
      <trkpt lat="40.730711566284299" lon="13.964786119759083">
        <ele>70.790000000000006</ele>
        <time>2018-09-24T13:33:38Z</time>
      </trkpt>
      <trkpt lat="40.730691198259592" lon="13.964727446436882">
        <ele>70.790000000000006</ele>
        <time>2018-09-24T13:33:47Z</time>
      </trkpt>
      <trkpt lat="40.730673680081964" lon="13.964703558012843">
        <ele>69.829999999999998</ele>
        <time>2018-09-24T13:33:56Z</time>
      </trkpt>
      <trkpt lat="40.730633027851582" lon="13.964679585769773">
        <ele>66.469999999999999</ele>
        <time>2018-09-24T13:34:07Z</time>
      </trkpt>
      <trkpt lat="40.730636632069945" lon="13.964672209694982">
        <ele>65.989999999999995</ele>
        <time>2018-09-24T13:34:19Z</time>
      </trkpt>
      <trkpt lat="40.730633866041899" lon="13.964677238836884">
        <ele>65.989999999999995</ele>
        <time>2018-09-24T13:34:20Z</time>
      </trkpt>
      <trkpt lat="40.730606289580464" lon="13.964676568284631">
        <ele>65.989999999999995</ele>
        <time>2018-09-24T13:34:33Z</time>
      </trkpt>
      <trkpt lat="40.730597237125039" lon="13.964641951024532">
        <ele>65.030000000000001</ele>
        <time>2018-09-24T13:34:46Z</time>
      </trkpt>
      <trkpt lat="40.730530517175794" lon="13.964656116440892">
        <ele>63.579999999999998</ele>
        <time>2018-09-24T13:34:57Z</time>
      </trkpt>
      <trkpt lat="40.730524817481637" lon="13.964589647948742">
        <ele>62.619999999999997</ele>
        <time>2018-09-24T13:35:05Z</time>
      </trkpt>
      <trkpt lat="40.730569493025541" lon="13.964501805603504">
        <ele>62.619999999999997</ele>
        <time>2018-09-24T13:35:16Z</time>
      </trkpt>
      <trkpt lat="40.730579718947411" lon="13.964439444243908">
        <ele>63.100000000000001</ele>
        <time>2018-09-24T13:35:27Z</time>
      </trkpt>
      <trkpt lat="40.730602014809847" lon="13.964375406503677">
        <ele>63.579999999999998</ele>
        <time>2018-09-24T13:35:37Z</time>
      </trkpt>
      <trkpt lat="40.730628417804837" lon="13.96434523165226">
        <ele>64.549999999999997</ele>
        <time>2018-09-24T13:35:49Z</time>
      </trkpt>
      <trkpt lat="40.730636212974787" lon="13.96434229798615">
        <ele>64.549999999999997</ele>
        <time>2018-09-24T13:35:50Z</time>
      </trkpt>
      <trkpt lat="40.730708800256252" lon="13.964356714859605">
        <ele>65.510000000000005</ele>
        <time>2018-09-24T13:36:00Z</time>
      </trkpt>
      <trkpt lat="40.730744088068604" lon="13.964416813105345">
        <ele>65.989999999999995</ele>
        <time>2018-09-24T13:36:11Z</time>
      </trkpt>
      <trkpt lat="40.730736125260592" lon="13.96453726105392">
        <ele>67.909999999999997</ele>
        <time>2018-09-24T13:36:27Z</time>
      </trkpt>
      <trkpt lat="40.730797313153744" lon="13.964570118114352">
        <ele>70.790000000000006</ele>
        <time>2018-09-24T13:36:51Z</time>
      </trkpt>
      <trkpt lat="40.730872163549066" lon="13.964568022638559">
        <ele>70.790000000000006</ele>
        <time>2018-09-24T13:37:02Z</time>
      </trkpt>
      <trkpt lat="40.730918431654572" lon="13.964482108131051">
        <ele>70.790000000000006</ele>
        <time>2018-09-24T13:37:14Z</time>
      </trkpt>
      <trkpt lat="40.730972159653902" lon="13.964414214715362">
        <ele>71.269999999999996</ele>
        <time>2018-09-24T13:37:32Z</time>
      </trkpt>
      <trkpt lat="40.730974758043885" lon="13.964431816712022">
        <ele>71.269999999999996</ele>
        <time>2018-09-24T13:37:45Z</time>
      </trkpt>
      <trkpt lat="40.730961263179779" lon="13.964347410947084">
        <ele>71.269999999999996</ele>
        <time>2018-09-24T13:37:54Z</time>
      </trkpt>
      <trkpt lat="40.731075424700975" lon="13.964587384834886">
        <ele>72.239999999999995</ele>
        <time>2018-09-24T13:38:20Z</time>
      </trkpt>
      <trkpt lat="40.731006106361747" lon="13.964283959940076">
        <ele>69.349999999999994</ele>
        <time>2018-09-24T13:38:26Z</time>
      </trkpt>
      <trkpt lat="40.730933099985123" lon="13.96425386890769">
        <ele>66.950000000000003</ele>
        <time>2018-09-24T13:38:39Z</time>
      </trkpt>
      <trkpt lat="40.730929495766759" lon="13.964176336303353">
        <ele>67.430000000000007</ele>
        <time>2018-09-24T13:38:50Z</time>
      </trkpt>
      <trkpt lat="40.730918347835541" lon="13.964147502556443">
        <ele>67.430000000000007</ele>
        <time>2018-09-24T13:39:03Z</time>
      </trkpt>
      <trkpt lat="40.730881551280618" lon="13.964118836447597">
        <ele>65.030000000000001</ele>
        <time>2018-09-24T13:39:13Z</time>
      </trkpt>
      <trkpt lat="40.730690779164433" lon="13.964155297726393">
        <ele>62.619999999999997</ele>
        <time>2018-09-24T13:39:39Z</time>
      </trkpt>
      <trkpt lat="40.730852466076612" lon="13.96413903683424">
        <ele>65.510000000000005</ele>
        <time>2018-09-24T13:46:20Z</time>
      </trkpt>
      <trkpt lat="40.730869732797146" lon="13.964048344641924">
        <ele>64.549999999999997</ele>
        <time>2018-09-24T13:46:30Z</time>
      </trkpt>
      <trkpt lat="40.730846598744392" lon="13.963969051837921">
        <ele>63.100000000000001</ele>
        <time>2018-09-24T13:46:42Z</time>
      </trkpt>
      <trkpt lat="40.730841318145394" lon="13.963968716561794">
        <ele>63.100000000000001</ele>
        <time>2018-09-24T13:46:51Z</time>
      </trkpt>
      <trkpt lat="40.730817010626197" lon="13.9639753382653">
        <ele>62.619999999999997</ele>
        <time>2018-09-24T13:47:01Z</time>
      </trkpt>
      <trkpt lat="40.730734029784799" lon="13.964025378227234">
        <ele>59.740000000000002</ele>
        <time>2018-09-24T13:47:11Z</time>
      </trkpt>
      <trkpt lat="40.730641828849912" lon="13.964067036285996">
        <ele>57.82</ele>
        <time>2018-09-24T13:47:23Z</time>
      </trkpt>
      <trkpt lat="40.730590783059597" lon="13.964143227785826">
        <ele>56.369999999999997</ele>
        <time>2018-09-24T13:47:34Z</time>
      </trkpt>
      <trkpt lat="40.730532109737396" lon="13.964140880852938">
        <ele>54.93</ele>
        <time>2018-09-24T13:47:44Z</time>
      </trkpt>
      <trkpt lat="40.730581060051918" lon="13.964074160903692">
        <ele>53.969999999999999</ele>
        <time>2018-09-24T13:47:53Z</time>
      </trkpt>
      <trkpt lat="40.730594303458929" lon="13.964052451774478">
        <ele>53.490000000000002</ele>
        <time>2018-09-24T13:47:56Z</time>
      </trkpt>
      <trkpt lat="40.730701675638556" lon="13.963925298303366">
        <ele>52.049999999999997</ele>
        <time>2018-09-24T13:48:10Z</time>
      </trkpt>
      <trkpt lat="40.730727408081293" lon="13.963899062946439">
        <ele>51.57</ele>
        <time>2018-09-24T13:48:13Z</time>
      </trkpt>
      <trkpt lat="40.730774262920022" lon="13.963811388239264">
        <ele>51.090000000000003</ele>
        <time>2018-09-24T13:48:25Z</time>
      </trkpt>
      <trkpt lat="40.730818770825863" lon="13.963788505643606">
        <ele>49.159999999999997</ele>
        <time>2018-09-24T13:48:31Z</time>
      </trkpt>
      <trkpt lat="40.730880796909332" lon="13.963758666068316">
        <ele>47.240000000000002</ele>
        <time>2018-09-24T13:48:38Z</time>
      </trkpt>
      <trkpt lat="40.730966040864587" lon="13.963716002181172">
        <ele>44.840000000000003</ele>
        <time>2018-09-24T13:48:49Z</time>
      </trkpt>
      <trkpt lat="40.731064444407821" lon="13.963712649419904">
        <ele>43.880000000000003</ele>
        <time>2018-09-24T13:49:13Z</time>
      </trkpt>
      <trkpt lat="40.733350273221731" lon="13.957139477133751">
        <ele>25.129999999999999</ele>
        <time>2018-09-24T14:12:30Z</time>
      </trkpt>
      <trkpt lat="40.733312051743269" lon="13.957162695005536">
        <ele>25.129999999999999</ele>
        <time>2018-09-24T14:12:31Z</time>
      </trkpt>
      <trkpt lat="40.733210127800703" lon="13.957135789096355">
        <ele>25.129999999999999</ele>
        <time>2018-09-24T14:12:44Z</time>
      </trkpt>
      <trkpt lat="40.73322806507349" lon="13.95704660564661">
        <ele>25.129999999999999</ele>
        <time>2018-09-24T14:12:57Z</time>
      </trkpt>
      <trkpt lat="40.733220856636763" lon="13.957036715000868">
        <ele>25.129999999999999</ele>
        <time>2018-09-24T14:13:16Z</time>
      </trkpt>
      <trkpt lat="40.733213732019067" lon="13.957022298127413">
        <ele>24.649999999999999</ele>
        <time>2018-09-24T14:13:32Z</time>
      </trkpt>
      <trkpt lat="40.7332275621593" lon="13.957005282863975">
        <ele>24.649999999999999</ele>
        <time>2018-09-24T14:13:44Z</time>
      </trkpt>
      <trkpt lat="40.733226304873824" lon="13.956975024193525">
        <ele>25.129999999999999</ele>
        <time>2018-09-24T14:13:56Z</time>
      </trkpt>
      <trkpt lat="40.733226807788014" lon="13.95700360648334">
        <ele>24.649999999999999</ele>
        <time>2018-09-24T14:14:07Z</time>
      </trkpt>
      <trkpt lat="40.733268046751618" lon="13.956972509622574">
        <ele>25.129999999999999</ele>
        <time>2018-09-24T14:14:20Z</time>
      </trkpt>
      <trkpt lat="40.733334766700864" lon="13.956908136606216">
        <ele>25.129999999999999</ele>
        <time>2018-09-24T14:14:32Z</time>
      </trkpt>
      <trkpt lat="40.733402157202363" lon="13.956833034753799">
        <ele>25.129999999999999</ele>
        <time>2018-09-24T14:14:43Z</time>
      </trkpt>
      <trkpt lat="40.733469547703862" lon="13.956771763041615">
        <ele>25.609999999999999</ele>
        <time>2018-09-24T14:14:54Z</time>
      </trkpt>
      <trkpt lat="40.733507517725229" lon="13.956699259579182">
        <ele>26.09</ele>
        <time>2018-09-24T14:15:04Z</time>
      </trkpt>
      <trkpt lat="40.733553031459451" lon="13.956589121371508">
        <ele>26.57</ele>
        <time>2018-09-24T14:15:16Z</time>
      </trkpt>
      <trkpt lat="40.733601730316877" lon="13.956475546583533">
        <ele>27.050000000000001</ele>
        <time>2018-09-24T14:15:30Z</time>
      </trkpt>
      <trkpt lat="40.733645064756274" lon="13.956347806379199">
        <ele>27.530000000000001</ele>
        <time>2018-09-24T14:15:41Z</time>
      </trkpt>
      <trkpt lat="40.733712036162615" lon="13.956232387572527">
        <ele>27.050000000000001</ele>
        <time>2018-09-24T14:15:53Z</time>
      </trkpt>
      <trkpt lat="40.733704995363951" lon="13.956115962937474">
        <ele>27.050000000000001</ele>
        <time>2018-09-24T14:16:05Z</time>
      </trkpt>
      <trkpt lat="40.733713461086154" lon="13.95606642588973">
        <ele>27.050000000000001</ele>
        <time>2018-09-24T14:16:10Z</time>
      </trkpt>
      <trkpt lat="40.733770709484816" lon="13.955963915213943">
        <ele>27.050000000000001</ele>
        <time>2018-09-24T14:16:22Z</time>
      </trkpt>
      <trkpt lat="40.733812786638737" lon="13.955877246335149">
        <ele>26.57</ele>
        <time>2018-09-24T14:16:31Z</time>
      </trkpt>
      <trkpt lat="40.73385545052588" lon="13.955817399546504">
        <ele>26.57</ele>
        <time>2018-09-24T14:16:38Z</time>
      </trkpt>
      <trkpt lat="40.733917057514191" lon="13.955731317400932">
        <ele>26.57</ele>
        <time>2018-09-24T14:16:49Z</time>
      </trkpt>
      <trkpt lat="40.733871543779969" lon="13.955609612166882">
        <ele>26.09</ele>
        <time>2018-09-24T14:17:01Z</time>
      </trkpt>
      <trkpt lat="40.733871795237064" lon="13.955530151724815">
        <ele>26.09</ele>
        <time>2018-09-24T14:17:07Z</time>
      </trkpt>
      <trkpt lat="40.733895348384976" lon="13.955407440662384">
        <ele>26.09</ele>
        <time>2018-09-24T14:17:19Z</time>
      </trkpt>
      <trkpt lat="40.733942035585642" lon="13.95530316978693">
        <ele>26.57</ele>
        <time>2018-09-24T14:17:32Z</time>
      </trkpt>
      <trkpt lat="40.733975395560265" lon="13.955211723223329">
        <ele>27.050000000000001</ele>
        <time>2018-09-24T14:17:43Z</time>
      </trkpt>
      <trkpt lat="40.733972461894155" lon="13.955107787624002">
        <ele>26.57</ele>
        <time>2018-09-24T14:17:54Z</time>
      </trkpt>
      <trkpt lat="40.733997356146574" lon="13.955008629709482">
        <ele>27.050000000000001</ele>
        <time>2018-09-24T14:18:06Z</time>
      </trkpt>
      <trkpt lat="40.734007162973285" lon="13.955005025491118">
        <ele>27.050000000000001</ele>
        <time>2018-09-24T14:18:20Z</time>
      </trkpt>
      <trkpt lat="40.734024094417691" lon="13.955008462071419">
        <ele>26.57</ele>
        <time>2018-09-24T14:18:50Z</time>
      </trkpt>
      <trkpt lat="40.734010431915522" lon="13.955003265291452">
        <ele>26.57</ele>
        <time>2018-09-24T14:19:07Z</time>
      </trkpt>
      <trkpt lat="40.734031889587641" lon="13.955019526183605">
        <ele>26.57</ele>
        <time>2018-09-24T14:19:31Z</time>
      </trkpt>
      <trkpt lat="40.734032727777958" lon="13.955027321353555">
        <ele>26.57</ele>
        <time>2018-09-24T14:19:51Z</time>
      </trkpt>
      <trkpt lat="40.73403968475759" lon="13.955015335232019">
        <ele>26.57</ele>
        <time>2018-09-24T14:20:09Z</time>
      </trkpt>
      <trkpt lat="40.734041361138225" lon="13.955009048804641">
        <ele>27.050000000000001</ele>
        <time>2018-09-24T14:20:27Z</time>
      </trkpt>
      <trkpt lat="40.734041864052415" lon="13.955002594739199">
        <ele>26.09</ele>
        <time>2018-09-24T14:20:46Z</time>
      </trkpt>
      <trkpt lat="40.734025770798326" lon="13.955004438757896">
        <ele>26.09</ele>
        <time>2018-09-24T14:21:05Z</time>
      </trkpt>
      <trkpt lat="40.73404454626143" lon="13.955004187300801">
        <ele>26.09</ele>
        <time>2018-09-24T14:21:33Z</time>
      </trkpt>
      <trkpt lat="40.734045468270779" lon="13.955003684386611">
        <ele>26.09</ele>
        <time>2018-09-24T14:21:54Z</time>
      </trkpt>
      <trkpt lat="40.734043791890144" lon="13.955005696043372">
        <ele>26.09</ele>
        <time>2018-09-24T14:22:18Z</time>
      </trkpt>
      <trkpt lat="40.734018813818693" lon="13.955005444586277">
        <ele>26.09</ele>
        <time>2018-09-24T14:22:43Z</time>
      </trkpt>
      <trkpt lat="40.734032476320863" lon="13.955010892823339">
        <ele>25.609999999999999</ele>
        <time>2018-09-24T14:23:01Z</time>
      </trkpt>
      <trkpt lat="40.734037589281797" lon="13.955007456243038">
        <ele>25.609999999999999</ele>
        <time>2018-09-24T14:23:27Z</time>
      </trkpt>
      <trkpt lat="40.734033230692148" lon="13.955001337453723">
        <ele>25.609999999999999</ele>
        <time>2018-09-24T14:23:51Z</time>
      </trkpt>
      <trkpt lat="40.734029207378626" lon="13.955010222271085">
        <ele>25.609999999999999</ele>
        <time>2018-09-24T14:24:10Z</time>
      </trkpt>
      <trkpt lat="40.734018310904503" lon="13.955006198957562">
        <ele>25.609999999999999</ele>
        <time>2018-09-24T14:24:33Z</time>
      </trkpt>
      <trkpt lat="40.734012611210346" lon="13.955001337453723">
        <ele>25.129999999999999</ele>
        <time>2018-09-24T14:24:56Z</time>
      </trkpt>
      <trkpt lat="40.734030045568943" lon="13.954948615282774">
        <ele>25.609999999999999</ele>
        <time>2018-09-24T14:25:07Z</time>
      </trkpt>
      <trkpt lat="40.734031470492482" lon="13.954937551170588">
        <ele>25.609999999999999</ele>
        <time>2018-09-24T14:25:08Z</time>
      </trkpt>
      <trkpt lat="40.73406265117228" lon="13.9547832403332">
        <ele>26.09</ele>
        <time>2018-09-24T14:25:22Z</time>
      </trkpt>
      <trkpt lat="40.73412274941802" lon="13.954644603654742">
        <ele>26.57</ele>
        <time>2018-09-24T14:25:35Z</time>
      </trkpt>
      <trkpt lat="40.734149990603328" lon="13.954480402171612">
        <ele>27.050000000000001</ele>
        <time>2018-09-24T14:25:48Z</time>
      </trkpt>
      <trkpt lat="40.734144039452076" lon="13.954444443807006">
        <ele>27.050000000000001</ele>
        <time>2018-09-24T14:25:52Z</time>
      </trkpt>
      <trkpt lat="40.734144961461425" lon="13.954411083832383">
        <ele>27.050000000000001</ele>
        <time>2018-09-24T14:25:55Z</time>
      </trkpt>
      <trkpt lat="40.7342170458287" lon="13.954290635883808">
        <ele>27.530000000000001</ele>
        <time>2018-09-24T14:26:06Z</time>
      </trkpt>
      <trkpt lat="40.734226014465094" lon="13.954259706661105">
        <ele>27.050000000000001</ele>
        <time>2018-09-24T14:26:17Z</time>
      </trkpt>
      <trkpt lat="40.734235234558582" lon="13.954270435497165">
        <ele>27.530000000000001</ele>
        <time>2018-09-24T14:26:25Z</time>
      </trkpt>
      <trkpt lat="40.734236491844058" lon="13.954238584265113">
        <ele>27.530000000000001</ele>
        <time>2018-09-24T14:26:38Z</time>
      </trkpt>
      <trkpt lat="40.734250908717513" lon="13.954250067472458">
        <ele>26.57</ele>
        <time>2018-09-24T14:26:47Z</time>
      </trkpt>
      <trkpt lat="40.734267085790634" lon="13.954247552901506">
        <ele>27.050000000000001</ele>
        <time>2018-09-24T14:26:57Z</time>
      </trkpt>
      <trkpt lat="40.734306899830699" lon="13.954281751066446">
        <ele>28.02</ele>
        <time>2018-09-24T14:27:12Z</time>
      </trkpt>
      <trkpt lat="40.734349228441715" lon="13.954223832115531">
        <ele>28.02</ele>
        <time>2018-09-24T14:27:26Z</time>
      </trkpt>
    </trkseg>
  </trk>

  <trk>
    <name>2018-09-25 08:55:16</name>
    <extensions>
      <gpxx:TrackExtension>
        <gpxx:DisplayColor>Yellow</gpxx:DisplayColor>
      </gpxx:TrackExtension>
      <gpxtrkx:TrackStatsExtension xmlns:gpxtrkx="http://www.garmin.com/xmlschemas/TrackStatsExtension/v1">
        <gpxtrkx:Distance>12879</gpxtrkx:Distance>
        <gpxtrkx:TotalElapsedTime>84997</gpxtrkx:TotalElapsedTime>
        <gpxtrkx:MovingTime>13505</gpxtrkx:MovingTime>
        <gpxtrkx:StoppedTime>10928</gpxtrkx:StoppedTime>
        <gpxtrkx:MovingSpeed>1</gpxtrkx:MovingSpeed>
        <gpxtrkx:MaxSpeed>4</gpxtrkx:MaxSpeed>
        <gpxtrkx:MaxElevation>403</gpxtrkx:MaxElevation>
        <gpxtrkx:MinElevation>-36</gpxtrkx:MinElevation>
        <gpxtrkx:Ascent>483</gpxtrkx:Ascent>
        <gpxtrkx:Descent>549</gpxtrkx:Descent>
        <gpxtrkx:AvgAscentRate>0</gpxtrkx:AvgAscentRate>
        <gpxtrkx:MaxAscentRate>2</gpxtrkx:MaxAscentRate>
        <gpxtrkx:AvgDescentRate>0</gpxtrkx:AvgDescentRate>
        <gpxtrkx:MaxDescentRate>-0</gpxtrkx:MaxDescentRate>
      </gpxtrkx:TrackStatsExtension>
    </extensions>
    <trkseg>
      <trkpt lat="40.71032015606761" lon="13.927243743091822">
        <ele>159.72</ele>
        <time>2018-09-24T07:18:42Z</time>
      </trkpt>
      <trkpt lat="40.710290400311351" lon="13.927304679527879">
        <ele>159.72</ele>
        <time>2018-09-24T07:18:56Z</time>
      </trkpt>
      <trkpt lat="40.710275899618864" lon="13.927291017025709">
        <ele>158.27000000000001</ele>
        <time>2018-09-24T07:19:05Z</time>
      </trkpt>
      <trkpt lat="40.710288723930717" lon="13.927299398928881">
        <ele>159.24000000000001</ele>
        <time>2018-09-24T07:19:20Z</time>
      </trkpt>
      <trkpt lat="40.710279503837228" lon="13.927257908508182">
        <ele>159.72</ele>
        <time>2018-09-24T07:19:28Z</time>
      </trkpt>
      <trkpt lat="40.710270870476961" lon="13.927261680364609">
        <ele>159.72</ele>
        <time>2018-09-24T07:19:29Z</time>
      </trkpt>
      <trkpt lat="40.710176071152091" lon="13.927279785275459">
        <ele>158.27000000000001</ele>
        <time>2018-09-24T07:19:41Z</time>
      </trkpt>
      <trkpt lat="40.710122929885983" lon="13.927376428619027">
        <ele>157.78999999999999</ele>
        <time>2018-09-24T07:19:52Z</time>
      </trkpt>
      <trkpt lat="40.710091162472963" lon="13.927481286227703">
        <ele>157.31</ele>
        <time>2018-09-24T07:20:04Z</time>
      </trkpt>
      <trkpt lat="40.710069453343749" lon="13.927475670352578">
        <ele>156.83000000000001</ele>
        <time>2018-09-24T07:20:19Z</time>
      </trkpt>
      <trkpt lat="40.710006337612867" lon="13.927575415000319">
        <ele>156.83000000000001</ele>
        <time>2018-09-24T07:20:30Z</time>
      </trkpt>
      <trkpt lat="40.709919333457947" lon="13.92771321348846">
        <ele>155.38999999999999</ele>
        <time>2018-09-24T07:20:42Z</time>
      </trkpt>
      <trkpt lat="40.709833083674312" lon="13.927824022248387">
        <ele>154.91</ele>
        <time>2018-09-24T07:20:55Z</time>
      </trkpt>
      <trkpt lat="40.709794946014881" lon="13.927892167121172">
        <ele>154.91</ele>
        <time>2018-09-24T07:21:06Z</time>
      </trkpt>
      <trkpt lat="40.709778936579823" lon="13.927915552631021">
        <ele>154.91</ele>
        <time>2018-09-24T07:21:20Z</time>
      </trkpt>
      <trkpt lat="40.709781954064965" lon="13.927929634228349">
        <ele>154.91</ele>
        <time>2018-09-24T07:21:31Z</time>
      </trkpt>
      <trkpt lat="40.709787318482995" lon="13.927908763289452">
        <ele>154.91</ele>
        <time>2018-09-24T07:21:56Z</time>
      </trkpt>
      <trkpt lat="40.709797795861959" lon="13.927964335307479">
        <ele>154.91</ele>
        <time>2018-09-24T07:22:18Z</time>
      </trkpt>
      <trkpt lat="40.709789162501693" lon="13.927986044436693">
        <ele>154.91</ele>
        <time>2018-09-24T07:22:38Z</time>
      </trkpt>
      <trkpt lat="40.709787234663963" lon="13.927983194589615">
        <ele>154.91</ele>
        <time>2018-09-24T07:22:57Z</time>
      </trkpt>
      <trkpt lat="40.709772231057286" lon="13.92804111354053">
        <ele>154.91</ele>
        <time>2018-09-24T07:23:05Z</time>
      </trkpt>
      <trkpt lat="40.709715653210878" lon="13.928163489326835">
        <ele>155.38999999999999</ele>
        <time>2018-09-24T07:23:19Z</time>
      </trkpt>
      <trkpt lat="40.709680197760463" lon="13.928285446017981">
        <ele>155.87</ele>
        <time>2018-09-24T07:23:29Z</time>
      </trkpt>
      <trkpt lat="40.709656393155456" lon="13.928340515121818">
        <ele>155.87</ele>
        <time>2018-09-24T07:23:33Z</time>
      </trkpt>
      <trkpt lat="40.709617920219898" lon="13.928496083244681">
        <ele>156.34999999999999</ele>
        <time>2018-09-24T07:23:46Z</time>
      </trkpt>
      <trkpt lat="40.709569556638598" lon="13.928618291392922">
        <ele>157.31</ele>
        <time>2018-09-24T07:23:59Z</time>
      </trkpt>
      <trkpt lat="40.709544327110052" lon="13.928676461800933">
        <ele>157.78999999999999</ele>
        <time>2018-09-24T07:24:11Z</time>
      </trkpt>
      <trkpt lat="40.70950610563159" lon="13.928782409057021">
        <ele>158.27000000000001</ele>
        <time>2018-09-24T07:24:24Z</time>
      </trkpt>
      <trkpt lat="40.709466794505715" lon="13.928881315514445">
        <ele>159.72</ele>
        <time>2018-09-24T07:24:34Z</time>
      </trkpt>
      <trkpt lat="40.70943720638752" lon="13.92900662496686">
        <ele>161.16</ele>
        <time>2018-09-24T07:24:45Z</time>
      </trkpt>
      <trkpt lat="40.709400996565819" lon="13.929153308272362">
        <ele>162.12</ele>
        <time>2018-09-24T07:24:57Z</time>
      </trkpt>
      <trkpt lat="40.70935514755547" lon="13.929269900545478">
        <ele>162.59999999999999</ele>
        <time>2018-09-24T07:25:07Z</time>
      </trkpt>
      <trkpt lat="40.709327906370163" lon="13.929417673498392">
        <ele>162.59999999999999</ele>
        <time>2018-09-24T07:25:21Z</time>
      </trkpt>
      <trkpt lat="40.709330923855305" lon="13.929449273273349">
        <ele>162.59999999999999</ele>
        <time>2018-09-24T07:25:42Z</time>
      </trkpt>
      <trkpt lat="40.709323296323419" lon="13.929428569972515">
        <ele>162.59999999999999</ele>
        <time>2018-09-24T07:25:58Z</time>
      </trkpt>
      <trkpt lat="40.709327571094036" lon="13.92948648892343">
        <ele>162.59999999999999</ele>
        <time>2018-09-24T07:26:11Z</time>
      </trkpt>
      <trkpt lat="40.709372330456972" lon="13.929561004042625">
        <ele>163.08000000000001</ele>
        <time>2018-09-24T07:26:24Z</time>
      </trkpt>
      <trkpt lat="40.709404014050961" lon="13.929626801982522">
        <ele>163.08000000000001</ele>
        <time>2018-09-24T07:26:35Z</time>
      </trkpt>
      <trkpt lat="40.709423460066319" lon="13.929757308214903">
        <ele>163.08000000000001</ele>
        <time>2018-09-24T07:26:46Z</time>
      </trkpt>
      <trkpt lat="40.709418347105384" lon="13.92984758131206">
        <ele>163.56</ele>
        <time>2018-09-24T07:26:56Z</time>
      </trkpt>
      <trkpt lat="40.709387082606554" lon="13.929958892986178">
        <ele>164.03999999999999</ele>
        <time>2018-09-24T07:27:06Z</time>
      </trkpt>
      <trkpt lat="40.709364702925086" lon="13.930079843848944">
        <ele>164.52000000000001</ele>
        <time>2018-09-24T07:27:17Z</time>
      </trkpt>
      <trkpt lat="40.709344586357474" lon="13.930209092795849">
        <ele>163.08000000000001</ele>
        <time>2018-09-24T07:27:28Z</time>
      </trkpt>
      <trkpt lat="40.709349699318409" lon="13.930280841886997">
        <ele>162.12</ele>
        <time>2018-09-24T07:27:34Z</time>
      </trkpt>
      <trkpt lat="40.709374006837606" lon="13.930459879338741">
        <ele>160.19999999999999</ele>
        <time>2018-09-24T07:27:48Z</time>
      </trkpt>
      <trkpt lat="40.709446258842945" lon="13.930574962869287">
        <ele>158.27000000000001</ele>
        <time>2018-09-24T07:28:00Z</time>
      </trkpt>
      <trkpt lat="40.7094606757164" lon="13.930636402219534">
        <ele>157.78999999999999</ele>
        <time>2018-09-24T07:28:10Z</time>
      </trkpt>
      <trkpt lat="40.709481965750456" lon="13.930720472708344">
        <ele>155.87</ele>
        <time>2018-09-24T07:28:22Z</time>
      </trkpt>
      <trkpt lat="40.709530832245946" lon="13.930906970053911">
        <ele>153.94999999999999</ele>
        <time>2018-09-24T07:28:35Z</time>
      </trkpt>
      <trkpt lat="40.709546506404877" lon="13.930931109935045">
        <ele>153.47</ele>
        <time>2018-09-24T07:28:48Z</time>
      </trkpt>
      <trkpt lat="40.709591265767813" lon="13.931074105203152">
        <ele>152.03</ele>
        <time>2018-09-24T07:29:01Z</time>
      </trkpt>
      <trkpt lat="40.709650022909045" lon="13.931277198716998">
        <ele>151.53999999999999</ele>
        <time>2018-09-24T07:29:15Z</time>
      </trkpt>
      <trkpt lat="40.70967910811305" lon="13.931474843993783">
        <ele>150.58000000000001</ele>
        <time>2018-09-24T07:29:27Z</time>
      </trkpt>
      <trkpt lat="40.709695285186172" lon="13.931675339117646">
        <ele>149.62</ele>
        <time>2018-09-24T07:29:40Z</time>
      </trkpt>
      <trkpt lat="40.709744906052947" lon="13.931871140375733">
        <ele>149.13999999999999</ele>
        <time>2018-09-24T07:29:54Z</time>
      </trkpt>
      <trkpt lat="40.709799556061625" lon="13.93208404071629">
        <ele>148.66</ele>
        <time>2018-09-24T07:30:08Z</time>
      </trkpt>
      <trkpt lat="40.709878848865628" lon="13.932284871116281">
        <ele>147.69999999999999</ele>
        <time>2018-09-24T07:30:21Z</time>
      </trkpt>
      <trkpt lat="40.709918076172471" lon="13.932401295751333">
        <ele>147.22</ele>
        <time>2018-09-24T07:30:30Z</time>
      </trkpt>
      <trkpt lat="40.709976414218545" lon="13.932645292952657">
        <ele>145.78</ele>
        <time>2018-09-24T07:30:46Z</time>
      </trkpt>
      <trkpt lat="40.709999464452267" lon="13.93272802233696">
        <ele>145.30000000000001</ele>
        <time>2018-09-24T07:30:52Z</time>
      </trkpt>
      <trkpt lat="40.710012288764119" lon="13.932770267128944">
        <ele>144.81999999999999</ele>
        <time>2018-09-24T07:30:56Z</time>
      </trkpt>
      <trkpt lat="40.710045816376805" lon="13.932804884389043">
        <ele>144.81999999999999</ele>
        <time>2018-09-24T07:31:01Z</time>
      </trkpt>
      <trkpt lat="40.710122929885983" lon="13.932906808331609">
        <ele>143.84999999999999</ele>
        <time>2018-09-24T07:31:11Z</time>
      </trkpt>
      <trkpt lat="40.71023172698915" lon="13.932984676212072">
        <ele>142.41</ele>
        <time>2018-09-24T07:31:23Z</time>
      </trkpt>
      <trkpt lat="40.710346978157759" lon="13.933126078918576">
        <ele>140.97</ele>
        <time>2018-09-24T07:31:37Z</time>
      </trkpt>
      <trkpt lat="40.71039785631001" lon="13.933222303166986">
        <ele>139.53</ele>
        <time>2018-09-24T07:31:47Z</time>
      </trkpt>
      <trkpt lat="40.710448902100325" lon="13.93333638086915">
        <ele>137.13</ele>
        <time>2018-09-24T07:31:59Z</time>
      </trkpt>
      <trkpt lat="40.710526015609503" lon="13.933424055576324">
        <ele>135.19999999999999</ele>
        <time>2018-09-24T07:32:09Z</time>
      </trkpt>
      <trkpt lat="40.71063824929297" lon="13.933509299531579">
        <ele>132.31999999999999</ele>
        <time>2018-09-24T07:32:22Z</time>
      </trkpt>
      <trkpt lat="40.710723074153066" lon="13.933625807985663">
        <ele>132.31999999999999</ele>
        <time>2018-09-24T07:32:33Z</time>
      </trkpt>
      <trkpt lat="40.710750315338373" lon="13.933638045564294">
        <ele>132.80000000000001</ele>
        <time>2018-09-24T07:32:37Z</time>
      </trkpt>
      <trkpt lat="40.710841091349721" lon="13.933711890131235">
        <ele>134.72</ele>
        <time>2018-09-24T07:32:48Z</time>
      </trkpt>
      <trkpt lat="40.710930274799466" lon="13.933818843215704">
        <ele>136.16</ele>
        <time>2018-09-24T07:33:00Z</time>
      </trkpt>
      <trkpt lat="40.710936561226845" lon="13.933832421898842">
        <ele>136.16</ele>
        <time>2018-09-24T07:33:01Z</time>
      </trkpt>
      <trkpt lat="40.710987774655223" lon="13.934025038033724">
        <ele>136.63999999999999</ele>
        <time>2018-09-24T07:33:15Z</time>
      </trkpt>
      <trkpt lat="40.711091794073582" lon="13.934136601164937">
        <ele>138.56999999999999</ele>
        <time>2018-09-24T07:33:28Z</time>
      </trkpt>
      <trkpt lat="40.711153317242861" lon="13.934191837906837">
        <ele>139.53</ele>
        <time>2018-09-24T07:33:36Z</time>
      </trkpt>
      <trkpt lat="40.711303604766726" lon="13.934238189831376">
        <ele>140.49000000000001</ele>
        <time>2018-09-24T07:33:50Z</time>
      </trkpt>
      <trkpt lat="40.711427740752697" lon="13.934276159852743">
        <ele>141.93000000000001</ele>
        <time>2018-09-24T07:34:02Z</time>
      </trkpt>
      <trkpt lat="40.711568640545011" lon="13.934347406029701">
        <ele>142.41</ele>
        <time>2018-09-24T07:34:14Z</time>
      </trkpt>
      <trkpt lat="40.711701326072216" lon="13.93439476378262">
        <ele>142.41</ele>
        <time>2018-09-24T07:34:26Z</time>
      </trkpt>
      <trkpt lat="40.711795790120959" lon="13.93442208878696">
        <ele>142.88999999999999</ele>
        <time>2018-09-24T07:34:37Z</time>
      </trkpt>
      <trkpt lat="40.71186033077538" lon="13.934443043544888">
        <ele>143.37</ele>
        <time>2018-09-24T07:34:48Z</time>
      </trkpt>
      <trkpt lat="40.712055042386055" lon="13.934464417397976">
        <ele>144.34</ele>
        <time>2018-09-24T07:35:07Z</time>
      </trkpt>
      <trkpt lat="40.712112206965685" lon="13.934510853141546">
        <ele>144.34</ele>
        <time>2018-09-24T07:35:11Z</time>
      </trkpt>
      <trkpt lat="40.712231313809752" lon="13.934662733227015">
        <ele>145.30000000000001</ele>
        <time>2018-09-24T07:35:26Z</time>
      </trkpt>
      <trkpt lat="40.712343966588378" lon="13.934767758473754">
        <ele>144.34</ele>
        <time>2018-09-24T07:35:40Z</time>
      </trkpt>
      <trkpt lat="40.712423846125603" lon="13.934889547526836">
        <ele>142.41</ele>
        <time>2018-09-24T07:35:51Z</time>
      </trkpt>
      <trkpt lat="40.712453434243798" lon="13.935038074851036">
        <ele>143.84999999999999</ele>
        <time>2018-09-24T07:36:01Z</time>
      </trkpt>
      <trkpt lat="40.712384032085538" lon="13.935229852795601">
        <ele>144.34</ele>
        <time>2018-09-24T07:36:14Z</time>
      </trkpt>
      <trkpt lat="40.712346145883203" lon="13.93540570512414">
        <ele>145.78</ele>
        <time>2018-09-24T07:36:27Z</time>
      </trkpt>
      <trkpt lat="40.712319826707244" lon="13.935593543574214">
        <ele>148.18000000000001</ele>
        <time>2018-09-24T07:36:41Z</time>
      </trkpt>
      <trkpt lat="40.712326113134623" lon="13.93564467318356">
        <ele>148.66</ele>
        <time>2018-09-24T07:36:53Z</time>
      </trkpt>
      <trkpt lat="40.712329968810081" lon="13.935660095885396">
        <ele>149.13999999999999</ele>
        <time>2018-09-24T07:37:05Z</time>
      </trkpt>
      <trkpt lat="40.712340697646141" lon="13.935669148340821">
        <ele>149.62</ele>
        <time>2018-09-24T07:37:18Z</time>
      </trkpt>
      <trkpt lat="40.712362909689546" lon="13.935729581862688">
        <ele>150.58000000000001</ele>
        <time>2018-09-24T07:37:29Z</time>
      </trkpt>
      <trkpt lat="40.712357796728611" lon="13.935827147215605">
        <ele>151.53999999999999</ele>
        <time>2018-09-24T07:37:38Z</time>
      </trkpt>
      <trkpt lat="40.712349666282535" lon="13.935944912955165">
        <ele>152.99000000000001</ele>
        <time>2018-09-24T07:37:49Z</time>
      </trkpt>
      <trkpt lat="40.712337344884872" lon="13.936065779998899">
        <ele>155.87</ele>
        <time>2018-09-24T07:38:01Z</time>
      </trkpt>
      <trkpt lat="40.712331142276525" lon="13.93616946414113">
        <ele>157.31</ele>
        <time>2018-09-24T07:38:11Z</time>
      </trkpt>
      <trkpt lat="40.712305326014757" lon="13.936256719753146">
        <ele>159.24000000000001</ele>
        <time>2018-09-24T07:38:20Z</time>
      </trkpt>
      <trkpt lat="40.712246485054493" lon="13.936365516856313">
        <ele>161.63999999999999</ele>
        <time>2018-09-24T07:38:33Z</time>
      </trkpt>
      <trkpt lat="40.712210610508919" lon="13.936426620930433">
        <ele>162.59999999999999</ele>
        <time>2018-09-24T07:38:42Z</time>
      </trkpt>
      <trkpt lat="40.712152104824781" lon="13.936510859057307">
        <ele>164.52000000000001</ele>
        <time>2018-09-24T07:38:57Z</time>
      </trkpt>
      <trkpt lat="40.712123271077871" lon="13.936633989214897">
        <ele>165.96000000000001</ele>
        <time>2018-09-24T07:39:13Z</time>
      </trkpt>
      <trkpt lat="40.7120371889323" lon="13.936746641993523">
        <ele>169.33000000000001</ele>
        <time>2018-09-24T07:39:29Z</time>
      </trkpt>
      <trkpt lat="40.711960326880217" lon="13.936870275065303">
        <ele>172.21000000000001</ele>
        <time>2018-09-24T07:39:46Z</time>
      </trkpt>
      <trkpt lat="40.711880112066865" lon="13.936979407444596">
        <ele>174.13999999999999</ele>
        <time>2018-09-24T07:40:02Z</time>
      </trkpt>
      <trkpt lat="40.711840214207768" lon="13.937074793502688">
        <ele>176.53999999999999</ele>
        <time>2018-09-24T07:40:16Z</time>
      </trkpt>
      <trkpt lat="40.711829736828804" lon="13.937111087143421">
        <ele>177.5</ele>
        <time>2018-09-24T07:40:30Z</time>
      </trkpt>
      <trkpt lat="40.711730914190412" lon="13.937239414080977">
        <ele>180.38</ele>
        <time>2018-09-24T07:40:46Z</time>
      </trkpt>
      <trkpt lat="40.711682047694921" lon="13.937338655814528">
        <ele>183.75</ele>
        <time>2018-09-24T07:40:59Z</time>
      </trkpt>
      <trkpt lat="40.711597222834826" lon="13.9374731015414">
        <ele>185.66999999999999</ele>
        <time>2018-09-24T07:41:16Z</time>
      </trkpt>
      <trkpt lat="40.711540644988418" lon="13.937592459842563">
        <ele>188.56</ele>
        <time>2018-09-24T07:41:30Z</time>
      </trkpt>
      <trkpt lat="40.711442828178406" lon="13.937661945819855">
        <ele>190.96000000000001</ele>
        <time>2018-09-24T07:41:45Z</time>
      </trkpt>
      <trkpt lat="40.71136336773634" lon="13.937676278874278">
        <ele>192.40000000000001</ele>
        <time>2018-09-24T07:41:54Z</time>
      </trkpt>
      <trkpt lat="40.7113101426512" lon="13.937651636078954">
        <ele>193.84</ele>
        <time>2018-09-24T07:42:07Z</time>
      </trkpt>
      <trkpt lat="40.711304778233171" lon="13.937684828415513">
        <ele>193.84</ele>
        <time>2018-09-24T07:42:13Z</time>
      </trkpt>
      <trkpt lat="40.711282901465893" lon="13.937768312171102">
        <ele>196.25</ele>
        <time>2018-09-24T07:42:23Z</time>
      </trkpt>
      <trkpt lat="40.711352387443185" lon="13.937724977731705">
        <ele>198.65000000000001</ele>
        <time>2018-09-24T07:42:35Z</time>
      </trkpt>
      <trkpt lat="40.711400080472231" lon="13.937753811478615">
        <ele>199.61000000000001</ele>
        <time>2018-09-24T07:42:43Z</time>
      </trkpt>
      <trkpt lat="40.711456490680575" lon="13.937798570841551">
        <ele>200.09</ele>
        <time>2018-09-24T07:42:52Z</time>
      </trkpt>
      <trkpt lat="40.711445258930326" lon="13.937805444002151">
        <ele>200.56999999999999</ele>
        <time>2018-09-24T07:43:00Z</time>
      </trkpt>
      <trkpt lat="40.711431428790092" lon="13.937814245000482">
        <ele>201.05000000000001</ele>
        <time>2018-09-24T07:43:09Z</time>
      </trkpt>
      <trkpt lat="40.711435116827488" lon="13.937839055433869">
        <ele>201.05000000000001</ele>
        <time>2018-09-24T07:43:19Z</time>
      </trkpt>
      <trkpt lat="40.711436038836837" lon="13.937911977991462">
        <ele>201.05000000000001</ele>
        <time>2018-09-24T07:43:29Z</time>
      </trkpt>
      <trkpt lat="40.711453640833497" lon="13.937921281903982">
        <ele>201.05000000000001</ele>
        <time>2018-09-24T07:43:32Z</time>
      </trkpt>
      <trkpt lat="40.711432350799441" lon="13.937805192545056">
        <ele>201.53</ele>
        <time>2018-09-24T07:44:29Z</time>
      </trkpt>
      <trkpt lat="40.711430674418807" lon="13.937847269698977">
        <ele>201.53</ele>
        <time>2018-09-24T07:44:43Z</time>
      </trkpt>
      <trkpt lat="40.711438050493598" lon="13.937824638560414">
        <ele>201.53</ele>
        <time>2018-09-24T07:44:58Z</time>
      </trkpt>
      <trkpt lat="40.71143084205687" lon="13.937814747914672">
        <ele>201.53</ele>
        <time>2018-09-24T07:45:19Z</time>
      </trkpt>
      <trkpt lat="40.711395805701613" lon="13.93778532743454">
        <ele>200.56999999999999</ele>
        <time>2018-09-24T07:45:28Z</time>
      </trkpt>
      <trkpt lat="40.711408546194434" lon="13.937748111784458">
        <ele>200.56999999999999</ele>
        <time>2018-09-24T07:45:40Z</time>
      </trkpt>
      <trkpt lat="40.711421286687255" lon="13.937766468152404">
        <ele>200.56999999999999</ele>
        <time>2018-09-24T07:45:55Z</time>
      </trkpt>
      <trkpt lat="40.711412485688925" lon="13.937771748751402">
        <ele>200.56999999999999</ele>
        <time>2018-09-24T07:46:07Z</time>
      </trkpt>
      <trkpt lat="40.711413742974401" lon="13.937780130654573">
        <ele>200.56999999999999</ele>
        <time>2018-09-24T07:46:28Z</time>
      </trkpt>
      <trkpt lat="40.711426483467221" lon="13.937780046835542">
        <ele>200.56999999999999</ele>
        <time>2018-09-24T07:46:39Z</time>
      </trkpt>
      <trkpt lat="40.711424052715302" lon="13.937781555578113">
        <ele>200.56999999999999</ele>
        <time>2018-09-24T07:46:51Z</time>
      </trkpt>
      <trkpt lat="40.711425980553031" lon="13.937766132876277">
        <ele>201.05000000000001</ele>
        <time>2018-09-24T07:47:04Z</time>
      </trkpt>
      <trkpt lat="40.711415586993098" lon="13.937764456495643">
        <ele>200.56999999999999</ele>
        <time>2018-09-24T07:47:09Z</time>
      </trkpt>
      <trkpt lat="40.711420197039843" lon="13.937727743759751">
        <ele>200.56999999999999</ele>
        <time>2018-09-24T07:47:19Z</time>
      </trkpt>
      <trkpt lat="40.711433021351695" lon="13.937752051278949">
        <ele>201.05000000000001</ele>
        <time>2018-09-24T07:47:30Z</time>
      </trkpt>
      <trkpt lat="40.711419442668557" lon="13.937742915004492">
        <ele>201.05000000000001</ele>
        <time>2018-09-24T07:47:44Z</time>
      </trkpt>
      <trkpt lat="40.711428578943014" lon="13.937745513394475">
        <ele>200.56999999999999</ele>
        <time>2018-09-24T07:47:58Z</time>
      </trkpt>
      <trkpt lat="40.711434110999107" lon="13.937760517001152">
        <ele>200.56999999999999</ele>
        <time>2018-09-24T07:48:15Z</time>
      </trkpt>
      <trkpt lat="40.711499657481909" lon="13.937840228900313">
        <ele>200.56999999999999</ele>
        <time>2018-09-24T07:48:27Z</time>
      </trkpt>
      <trkpt lat="40.711510805413127" lon="13.937863195315003">
        <ele>201.53</ele>
        <time>2018-09-24T07:48:29Z</time>
      </trkpt>
      <trkpt lat="40.711508123204112" lon="13.937919018790126">
        <ele>201.05000000000001</ele>
        <time>2018-09-24T07:48:34Z</time>
      </trkpt>
      <trkpt lat="40.711432853713632" lon="13.938029492273927">
        <ele>202.00999999999999</ele>
        <time>2018-09-24T07:48:46Z</time>
      </trkpt>
      <trkpt lat="40.711303101852536" lon="13.938052877783775">
        <ele>202.49000000000001</ele>
        <time>2018-09-24T07:48:59Z</time>
      </trkpt>
      <trkpt lat="40.7112583424896" lon="13.938046507537365">
        <ele>202.49000000000001</ele>
        <time>2018-09-24T07:49:03Z</time>
      </trkpt>
      <trkpt lat="40.711205368861556" lon="13.938078945502639">
        <ele>202.97999999999999</ele>
        <time>2018-09-24T07:49:14Z</time>
      </trkpt>
      <trkpt lat="40.711170248687267" lon="13.938178438693285">
        <ele>205.38</ele>
        <time>2018-09-24T07:49:26Z</time>
      </trkpt>
      <trkpt lat="40.711153484880924" lon="13.938298216089606">
        <ele>207.30000000000001</ele>
        <time>2018-09-24T07:49:39Z</time>
      </trkpt>
      <trkpt lat="40.711156502366066" lon="13.938337359577417">
        <ele>208.25999999999999</ele>
        <time>2018-09-24T07:49:43Z</time>
      </trkpt>
      <trkpt lat="40.711139235645533" lon="13.938537603244185">
        <ele>210.19</ele>
        <time>2018-09-24T07:49:57Z</time>
      </trkpt>
      <trkpt lat="40.711086010560393" lon="13.938610861077905">
        <ele>212.59</ele>
        <time>2018-09-24T07:50:06Z</time>
      </trkpt>
      <trkpt lat="40.711085507646203" lon="13.938695099204779">
        <ele>212.59</ele>
        <time>2018-09-24T07:50:15Z</time>
      </trkpt>
      <trkpt lat="40.711068827658892" lon="13.938765842467546">
        <ele>212.59</ele>
        <time>2018-09-24T07:50:25Z</time>
      </trkpt>
      <trkpt lat="40.711055165156722" lon="13.938936162739992">
        <ele>214.03</ele>
        <time>2018-09-24T07:50:38Z</time>
      </trkpt>
      <trkpt lat="40.711062205955386" lon="13.939074547961354">
        <ele>214.99000000000001</ele>
        <time>2018-09-24T07:50:49Z</time>
      </trkpt>
      <trkpt lat="40.711024571210146" lon="13.939252831041813">
        <ele>215.47</ele>
        <time>2018-09-24T07:51:01Z</time>
      </trkpt>
      <trkpt lat="40.710995821282268" lon="13.93939733505249">
        <ele>215.94999999999999</ele>
        <time>2018-09-24T07:51:13Z</time>
      </trkpt>
      <trkpt lat="40.71095491759479" lon="13.939552651718259">
        <ele>215.94999999999999</ele>
        <time>2018-09-24T07:51:26Z</time>
      </trkpt>
      <trkpt lat="40.710877468809485" lon="13.939740154892206">
        <ele>215.94999999999999</ele>
        <time>2018-09-24T07:51:41Z</time>
      </trkpt>
      <trkpt lat="40.710830111056566" lon="13.93988398835063">
        <ele>215.94999999999999</ele>
        <time>2018-09-24T07:51:53Z</time>
      </trkpt>
      <trkpt lat="40.710775963962078" lon="13.94001835025847">
        <ele>215.94999999999999</ele>
        <time>2018-09-24T07:52:03Z</time>
      </trkpt>
      <trkpt lat="40.710749560967088" lon="13.940174337476492">
        <ele>215.94999999999999</ele>
        <time>2018-09-24T07:52:15Z</time>
      </trkpt>
      <trkpt lat="40.71070178411901" lon="13.940322445705533">
        <ele>216.43000000000001</ele>
        <time>2018-09-24T07:52:27Z</time>
      </trkpt>
      <trkpt lat="40.710562393069267" lon="13.940337868407369">
        <ele>218.84</ele>
        <time>2018-09-24T07:52:40Z</time>
      </trkpt>
      <trkpt lat="40.710483435541391" lon="13.940260838717222">
        <ele>221.24000000000001</ele>
        <time>2018-09-24T07:52:52Z</time>
      </trkpt>
      <trkpt lat="40.71040716022253" lon="13.940277015790343">
        <ele>222.68000000000001</ele>
        <time>2018-09-24T07:53:03Z</time>
      </trkpt>
      <trkpt lat="40.710349828004837" lon="13.940332839265466">
        <ele>225.09</ele>
        <time>2018-09-24T07:53:15Z</time>
      </trkpt>
      <trkpt lat="40.710307499393821" lon="13.940442726016045">
        <ele>225.56999999999999</ele>
        <time>2018-09-24T07:53:28Z</time>
      </trkpt>
      <trkpt lat="40.710237845778465" lon="13.940567448735237">
        <ele>226.05000000000001</ele>
        <time>2018-09-24T07:53:41Z</time>
      </trkpt>
      <trkpt lat="40.710177663713694" lon="13.940697871148586">
        <ele>227.00999999999999</ele>
        <time>2018-09-24T07:53:54Z</time>
      </trkpt>
      <trkpt lat="40.710116643458605" lon="13.940799124538898">
        <ele>227.97</ele>
        <time>2018-09-24T07:54:05Z</time>
      </trkpt>
      <trkpt lat="40.710025783628225" lon="13.940907837823033">
        <ele>228.44999999999999</ele>
        <time>2018-09-24T07:54:16Z</time>
      </trkpt>
      <trkpt lat="40.709940539672971" lon="13.941008588299155">
        <ele>229.41</ele>
        <time>2018-09-24T07:54:28Z</time>
      </trkpt>
      <trkpt lat="40.709877172484994" lon="13.941083773970604">
        <ele>230.37</ele>
        <time>2018-09-24T07:54:37Z</time>
      </trkpt>
      <trkpt lat="40.709786983206868" lon="13.941099615767598">
        <ele>231.33000000000001</ele>
        <time>2018-09-24T07:54:46Z</time>
      </trkpt>
      <trkpt lat="40.709702745079994" lon="13.941107494756579">
        <ele>233.25999999999999</ele>
        <time>2018-09-24T07:54:56Z</time>
      </trkpt>
      <trkpt lat="40.709688747301698" lon="13.941096849739552">
        <ele>233.74000000000001</ele>
        <time>2018-09-24T07:54:59Z</time>
      </trkpt>
      <trkpt lat="40.709637701511383" lon="13.941098861396313">
        <ele>234.69999999999999</ele>
        <time>2018-09-24T07:55:10Z</time>
      </trkpt>
      <trkpt lat="40.709627224132419" lon="13.941098945215344">
        <ele>235.66</ele>
        <time>2018-09-24T07:55:21Z</time>
      </trkpt>
      <trkpt lat="40.709602748975158" lon="13.941088551655412">
        <ele>236.13999999999999</ele>
        <time>2018-09-24T07:55:34Z</time>
      </trkpt>
      <trkpt lat="40.709635773673654" lon="13.941100956872106">
        <ele>235.66</ele>
        <time>2018-09-24T07:55:48Z</time>
      </trkpt>
      <trkpt lat="40.70962437428534" lon="13.941089054569602">
        <ele>235.66</ele>
        <time>2018-09-24T07:55:59Z</time>
      </trkpt>
      <trkpt lat="40.709603922441602" lon="13.941068686544895">
        <ele>235.66</ele>
        <time>2018-09-24T07:56:19Z</time>
      </trkpt>
      <trkpt lat="40.709615908563137" lon="13.941082935780287">
        <ele>236.13999999999999</ele>
        <time>2018-09-24T07:56:37Z</time>
      </trkpt>
      <trkpt lat="40.709639713168144" lon="13.941097017377615">
        <ele>236.13999999999999</ele>
        <time>2018-09-24T07:56:56Z</time>
      </trkpt>
      <trkpt lat="40.709620853886008" lon="13.941096849739552">
        <ele>235.18000000000001</ele>
        <time>2018-09-24T07:57:05Z</time>
      </trkpt>
      <trkpt lat="40.709610711783171" lon="13.941104393452406">
        <ele>235.18000000000001</ele>
        <time>2018-09-24T07:57:19Z</time>
      </trkpt>
      <trkpt lat="40.709611549973488" lon="13.941105734556913">
        <ele>235.18000000000001</ele>
        <time>2018-09-24T07:57:27Z</time>
      </trkpt>
      <trkpt lat="40.709617920219898" lon="13.941120989620686">
        <ele>236.62</ele>
        <time>2018-09-24T07:57:33Z</time>
      </trkpt>
      <trkpt lat="40.709633510559797" lon="13.941120151430368">
        <ele>236.62</ele>
        <time>2018-09-24T07:57:44Z</time>
      </trkpt>
      <trkpt lat="40.709632840007544" lon="13.941105986014009">
        <ele>236.62</ele>
        <time>2018-09-24T07:57:57Z</time>
      </trkpt>
      <trkpt lat="40.709628313779831" lon="13.941088384017348">
        <ele>236.62</ele>
        <time>2018-09-24T07:58:09Z</time>
      </trkpt>
      <trkpt lat="40.709638874977827" lon="13.941107410937548">
        <ele>236.13999999999999</ele>
        <time>2018-09-24T07:58:19Z</time>
      </trkpt>
      <trkpt lat="40.709639964625239" lon="13.941087126731873">
        <ele>237.09999999999999</ele>
        <time>2018-09-24T07:58:36Z</time>
      </trkpt>
      <trkpt lat="40.709626637399197" lon="13.941118475049734">
        <ele>237.09999999999999</ele>
        <time>2018-09-24T07:58:59Z</time>
      </trkpt>
      <trkpt lat="40.709610460326076" lon="13.941119899973273">
        <ele>237.58000000000001</ele>
        <time>2018-09-24T07:59:18Z</time>
      </trkpt>
      <trkpt lat="40.70959160104394" lon="13.941176813095808">
        <ele>238.06</ele>
        <time>2018-09-24T07:59:30Z</time>
      </trkpt>
      <trkpt lat="40.709524126723409" lon="13.941219393163919">
        <ele>239.02000000000001</ele>
        <time>2018-09-24T07:59:38Z</time>
      </trkpt>
      <trkpt lat="40.709452293813229" lon="13.94128292798996">
        <ele>240.94999999999999</ele>
        <time>2018-09-24T07:59:49Z</time>
      </trkpt>
      <trkpt lat="40.709387250244617" lon="13.941348139196634">
        <ele>242.38999999999999</ele>
        <time>2018-09-24T08:00:00Z</time>
      </trkpt>
      <trkpt lat="40.709337964653969" lon="13.941399855539203">
        <ele>243.83000000000001</ele>
        <time>2018-09-24T08:00:10Z</time>
      </trkpt>
      <trkpt lat="40.709269568324089" lon="13.941430784761906">
        <ele>245.27000000000001</ele>
        <time>2018-09-24T08:00:19Z</time>
      </trkpt>
      <trkpt lat="40.709162950515747" lon="13.941498510539532">
        <ele>247.19999999999999</ele>
        <time>2018-09-24T08:00:30Z</time>
      </trkpt>
      <trkpt lat="40.709052812308073" lon="13.941620299592614">
        <ele>248.63999999999999</ele>
        <time>2018-09-24T08:00:44Z</time>
      </trkpt>
      <trkpt lat="40.708971340209246" lon="13.941680397838354">
        <ele>249.59999999999999</ele>
        <time>2018-09-24T08:00:55Z</time>
      </trkpt>
      <trkpt lat="40.708910655230284" lon="13.941732281818986">
        <ele>251.03999999999999</ele>
        <time>2018-09-24T08:01:03Z</time>
      </trkpt>
      <trkpt lat="40.708850305527449" lon="13.941806294023991">
        <ele>252.47999999999999</ele>
        <time>2018-09-24T08:01:13Z</time>
      </trkpt>
      <trkpt lat="40.708830775693059" lon="13.941840995103121">
        <ele>252.47999999999999</ele>
        <time>2018-09-24T08:01:17Z</time>
      </trkpt>
      <trkpt lat="40.70876095443964" lon="13.941991534084082">
        <ele>253.93000000000001</ele>
        <time>2018-09-24T08:01:31Z</time>
      </trkpt>
      <trkpt lat="40.708738658577204" lon="13.942110054194927">
        <ele>254.41</ele>
        <time>2018-09-24T08:01:43Z</time>
      </trkpt>
      <trkpt lat="40.70866372436285" lon="13.942239806056023">
        <ele>254.88999999999999</ele>
        <time>2018-09-24T08:01:56Z</time>
      </trkpt>
      <trkpt lat="40.708590717986226" lon="13.942307531833649">
        <ele>256.32999999999998</ele>
        <time>2018-09-24T08:02:06Z</time>
      </trkpt>
      <trkpt lat="40.708552496507764" lon="13.942378861829638">
        <ele>257.29000000000002</ele>
        <time>2018-09-24T08:02:15Z</time>
      </trkpt>
      <trkpt lat="40.708486111834645" lon="13.942450191825628">
        <ele>259.20999999999998</ele>
        <time>2018-09-24T08:02:25Z</time>
      </trkpt>
      <trkpt lat="40.708475299179554" lon="13.942432841286063">
        <ele>260.17000000000002</ele>
        <time>2018-09-24T08:02:35Z</time>
      </trkpt>
      <trkpt lat="40.708457445725799" lon="13.942406186833978">
        <ele>260.17000000000002</ele>
        <time>2018-09-24T08:02:58Z</time>
      </trkpt>
      <trkpt lat="40.708443531766534" lon="13.942361511290073">
        <ele>260.17000000000002</ele>
        <time>2018-09-24T08:03:25Z</time>
      </trkpt>
      <trkpt lat="40.708374548703432" lon="13.94237207248807">
        <ele>260.64999999999998</ele>
        <time>2018-09-24T08:03:39Z</time>
      </trkpt>
      <trkpt lat="40.708342446014285" lon="13.942466452717781">
        <ele>260.64999999999998</ele>
        <time>2018-09-24T08:03:51Z</time>
      </trkpt>
      <trkpt lat="40.708329705521464" lon="13.942525126039982">
        <ele>261.62</ele>
        <time>2018-09-24T08:04:04Z</time>
      </trkpt>
      <trkpt lat="40.708322999998927" lon="13.94252747297287">
        <ele>261.13999999999999</ele>
        <time>2018-09-24T08:04:16Z</time>
      </trkpt>
      <trkpt lat="40.708319311961532" lon="13.942516827955842">
        <ele>262.10000000000002</ele>
        <time>2018-09-24T08:04:38Z</time>
      </trkpt>
      <trkpt lat="40.7083451282233" lon="13.942537866532803">
        <ele>261.62</ele>
        <time>2018-09-24T08:04:54Z</time>
      </trkpt>
      <trkpt lat="40.708338338881731" lon="13.94257633946836">
        <ele>261.62</ele>
        <time>2018-09-24T08:05:04Z</time>
      </trkpt>
      <trkpt lat="40.708324257284403" lon="13.942651944234967">
        <ele>262.10000000000002</ele>
        <time>2018-09-24T08:05:14Z</time>
      </trkpt>
      <trkpt lat="40.708347223699093" lon="13.942741714417934">
        <ele>261.62</ele>
        <time>2018-09-24T08:05:25Z</time>
      </trkpt>
      <trkpt lat="40.708359042182565" lon="13.942803824320436">
        <ele>262.10000000000002</ele>
        <time>2018-09-24T08:05:29Z</time>
      </trkpt>
      <trkpt lat="40.708355437964201" lon="13.942896528169513">
        <ele>262.10000000000002</ele>
        <time>2018-09-24T08:05:35Z</time>
      </trkpt>
      <trkpt lat="40.708317719399929" lon="13.942927373573184">
        <ele>262.57999999999998</ele>
        <time>2018-09-24T08:05:44Z</time>
      </trkpt>
      <trkpt lat="40.708321742713451" lon="13.942965846508741">
        <ele>263.54000000000002</ele>
        <time>2018-09-24T08:05:55Z</time>
      </trkpt>
      <trkpt lat="40.708325933665037" lon="13.942968109622598">
        <ele>263.54000000000002</ele>
        <time>2018-09-24T08:06:03Z</time>
      </trkpt>
      <trkpt lat="40.708338925614953" lon="13.943002643063664">
        <ele>263.54000000000002</ele>
        <time>2018-09-24T08:06:14Z</time>
      </trkpt>
      <trkpt lat="40.70833146572113" lon="13.943022675812244">
        <ele>263.06</ele>
        <time>2018-09-24T08:06:25Z</time>
      </trkpt>
      <trkpt lat="40.708324508741498" lon="13.943032566457987">
        <ele>263.06</ele>
        <time>2018-09-24T08:06:41Z</time>
      </trkpt>
      <trkpt lat="40.708314953371882" lon="13.943031812086701">
        <ele>263.54000000000002</ele>
        <time>2018-09-24T08:06:58Z</time>
      </trkpt>
      <trkpt lat="40.708322748541832" lon="13.943094927817583">
        <ele>264.01999999999998</ele>
        <time>2018-09-24T08:07:11Z</time>
      </trkpt>
      <trkpt lat="40.70832802914083" lon="13.943162653595209">
        <ele>264.98000000000002</ele>
        <time>2018-09-24T08:07:22Z</time>
      </trkpt>
      <trkpt lat="40.708333728834987" lon="13.943175477907062">
        <ele>264.98000000000002</ele>
        <time>2018-09-24T08:07:38Z</time>
      </trkpt>
      <trkpt lat="40.708335656672716" lon="13.943157875910401">
        <ele>264.5</ele>
        <time>2018-09-24T08:07:43Z</time>
      </trkpt>
      <trkpt lat="40.708329370245337" lon="13.943036170676351">
        <ele>263.54000000000002</ele>
        <time>2018-09-24T08:07:55Z</time>
      </trkpt>
      <trkpt lat="40.708320317789912" lon="13.94301756285131">
        <ele>263.06</ele>
        <time>2018-09-24T08:08:06Z</time>
      </trkpt>
      <trkpt lat="40.708307325839996" lon="13.943036254495382">
        <ele>263.06</ele>
        <time>2018-09-24T08:08:25Z</time>
      </trkpt>
      <trkpt lat="40.708302883431315" lon="13.943042792379856">
        <ele>263.06</ele>
        <time>2018-09-24T08:08:39Z</time>
      </trkpt>
      <trkpt lat="40.708323586732149" lon="13.943118816241622">
        <ele>264.01999999999998</ele>
        <time>2018-09-24T08:08:51Z</time>
      </trkpt>
      <trkpt lat="40.708325430750847" lon="13.94321646541357">
        <ele>264.98000000000002</ele>
        <time>2018-09-24T08:09:02Z</time>
      </trkpt>
      <trkpt lat="40.708313444629312" lon="13.943304643034935">
        <ele>266.42000000000002</ele>
        <time>2018-09-24T08:09:12Z</time>
      </trkpt>
      <trkpt lat="40.708313276991248" lon="13.943314282223582">
        <ele>266.42000000000002</ele>
        <time>2018-09-24T08:09:13Z</time>
      </trkpt>
      <trkpt lat="40.708282431587577" lon="13.943458450958133">
        <ele>267.38</ele>
        <time>2018-09-24T08:09:26Z</time>
      </trkpt>
      <trkpt lat="40.708269355818629" lon="13.943490302190185">
        <ele>268.82999999999998</ele>
        <time>2018-09-24T08:09:34Z</time>
      </trkpt>
      <trkpt lat="40.708280839025974" lon="13.943539671599865">
        <ele>268.82999999999998</ele>
        <time>2018-09-24T08:09:48Z</time>
      </trkpt>
      <trkpt lat="40.708287041634321" lon="13.943658694624901">
        <ele>269.79000000000002</ele>
        <time>2018-09-24T08:09:58Z</time>
      </trkpt>
      <trkpt lat="40.708304140716791" lon="13.943714937195182">
        <ele>271.23000000000002</ele>
        <time>2018-09-24T08:10:08Z</time>
      </trkpt>
      <trkpt lat="40.708322329446673" lon="13.943743268027902">
        <ele>271.70999999999998</ele>
        <time>2018-09-24T08:10:18Z</time>
      </trkpt>
      <trkpt lat="40.70834755897522" lon="13.943798504769802">
        <ele>272.19</ele>
        <time>2018-09-24T08:10:31Z</time>
      </trkpt>
      <trkpt lat="40.708317467942834" lon="13.943891962990165">
        <ele>274.58999999999997</ele>
        <time>2018-09-24T08:10:43Z</time>
      </trkpt>
      <trkpt lat="40.70835635997355" lon="13.943942002952099">
        <ele>276.04000000000002</ele>
        <time>2018-09-24T08:10:55Z</time>
      </trkpt>
      <trkpt lat="40.708347642794251" lon="13.9439816493541">
        <ele>277.48000000000002</ele>
        <time>2018-09-24T08:11:06Z</time>
      </trkpt>
      <trkpt lat="40.708341859281063" lon="13.944015009328723">
        <ele>278.44</ele>
        <time>2018-09-24T08:11:19Z</time>
      </trkpt>
      <trkpt lat="40.708340099081397" lon="13.944057086482644">
        <ele>280.36000000000001</ele>
        <time>2018-09-24T08:11:32Z</time>
      </trkpt>
      <trkpt lat="40.708329034969211" lon="13.944106958806515">
        <ele>281.80000000000001</ele>
        <time>2018-09-24T08:11:43Z</time>
      </trkpt>
      <trkpt lat="40.70833045989275" lon="13.94417560659349">
        <ele>284.69</ele>
        <time>2018-09-24T08:11:58Z</time>
      </trkpt>
      <trkpt lat="40.708305817097425" lon="13.944200333207846">
        <ele>287.08999999999997</ele>
        <time>2018-09-24T08:12:13Z</time>
      </trkpt>
      <trkpt lat="40.708290813490748" lon="13.944212151691318">
        <ele>286.61000000000001</ele>
        <time>2018-09-24T08:12:28Z</time>
      </trkpt>
      <trkpt lat="40.708278408274055" lon="13.944215169176459">
        <ele>287.08999999999997</ele>
        <time>2018-09-24T08:12:41Z</time>
      </trkpt>
      <trkpt lat="40.708256615325809" lon="13.944211313501">
        <ele>288.52999999999997</ele>
        <time>2018-09-24T08:12:53Z</time>
      </trkpt>
      <trkpt lat="40.708235241472721" lon="13.944240817800164">
        <ele>291.89999999999998</ele>
        <time>2018-09-24T08:13:06Z</time>
      </trkpt>
      <trkpt lat="40.708237672224641" lon="13.944248864427209">
        <ele>291.42000000000002</ele>
        <time>2018-09-24T08:13:07Z</time>
      </trkpt>
      <trkpt lat="40.708262231200933" lon="13.944269400089979">
        <ele>292.38</ele>
        <time>2018-09-24T08:13:17Z</time>
      </trkpt>
      <trkpt lat="40.708248317241669" lon="13.944255905225873">
        <ele>292.86000000000001</ele>
        <time>2018-09-24T08:13:27Z</time>
      </trkpt>
      <trkpt lat="40.70826206356287" lon="13.94424157217145">
        <ele>291.89999999999998</ele>
        <time>2018-09-24T08:13:40Z</time>
      </trkpt>
      <trkpt lat="40.708265081048012" lon="13.944291276857257">
        <ele>294.30000000000001</ele>
        <time>2018-09-24T08:13:54Z</time>
      </trkpt>
      <trkpt lat="40.708226105198264" lon="13.944335365667939">
        <ele>297.67000000000002</ele>
        <time>2018-09-24T08:14:08Z</time>
      </trkpt>
      <trkpt lat="40.708208587020636" lon="13.944320613518357">
        <ele>298.63</ele>
        <time>2018-09-24T08:14:18Z</time>
      </trkpt>
      <trkpt lat="40.708202552050352" lon="13.944317260757089">
        <ele>300.06999999999999</ele>
        <time>2018-09-24T08:14:27Z</time>
      </trkpt>
      <trkpt lat="40.708169024437666" lon="13.944334611296654">
        <ele>301.99000000000001</ele>
        <time>2018-09-24T08:14:36Z</time>
      </trkpt>
      <trkpt lat="40.708155110478401" lon="13.944366630166769">
        <ele>303.43000000000001</ele>
        <time>2018-09-24T08:14:45Z</time>
      </trkpt>
      <trkpt lat="40.708130300045013" lon="13.944451455026865">
        <ele>303.43000000000001</ele>
        <time>2018-09-24T08:14:57Z</time>
      </trkpt>
      <trkpt lat="40.708103897050023" lon="13.944517504423857">
        <ele>304.88</ele>
        <time>2018-09-24T08:15:09Z</time>
      </trkpt>
      <trkpt lat="40.708095263689756" lon="13.944576848298311">
        <ele>305.36000000000001</ele>
        <time>2018-09-24T08:15:19Z</time>
      </trkpt>
      <trkpt lat="40.70808763615787" lon="13.944603754207492">
        <ele>306.31999999999999</ele>
        <time>2018-09-24T08:15:22Z</time>
      </trkpt>
      <trkpt lat="40.708050755783916" lon="13.944672653451562">
        <ele>306.80000000000001</ele>
        <time>2018-09-24T08:15:32Z</time>
      </trkpt>
      <trkpt lat="40.708036674186587" lon="13.944715736433864">
        <ele>307.75999999999999</ele>
        <time>2018-09-24T08:15:43Z</time>
      </trkpt>
      <trkpt lat="40.708030387759209" lon="13.944738954305649">
        <ele>308.24000000000001</ele>
        <time>2018-09-24T08:15:53Z</time>
      </trkpt>
      <trkpt lat="40.708037260919809" lon="13.944793688133359">
        <ele>310.16000000000003</ele>
        <time>2018-09-24T08:16:03Z</time>
      </trkpt>
      <trkpt lat="40.708020078018308" lon="13.944865688681602">
        <ele>311.60000000000002</ele>
        <time>2018-09-24T08:16:15Z</time>
      </trkpt>
      <trkpt lat="40.707997865974903" lon="13.944914387539029">
        <ele>313.05000000000001</ele>
        <time>2018-09-24T08:16:25Z</time>
      </trkpt>
      <trkpt lat="40.707972720265388" lon="13.944975743070245">
        <ele>314.49000000000001</ele>
        <time>2018-09-24T08:16:36Z</time>
      </trkpt>
      <trkpt lat="40.707958471029997" lon="13.945020670071244">
        <ele>314.97000000000003</ele>
        <time>2018-09-24T08:16:45Z</time>
      </trkpt>
      <trkpt lat="40.70794740691781" lon="13.94505612552166">
        <ele>315.44999999999999</ele>
        <time>2018-09-24T08:16:54Z</time>
      </trkpt>
      <trkpt lat="40.707934331148863" lon="13.945086887106299">
        <ele>316.41000000000003</ele>
        <time>2018-09-24T08:17:04Z</time>
      </trkpt>
      <trkpt lat="40.707905329763889" lon="13.94511672668159">
        <ele>317.85000000000002</ele>
        <time>2018-09-24T08:17:15Z</time>
      </trkpt>
      <trkpt lat="40.707862917333841" lon="13.945181015878916">
        <ele>320.25999999999999</ele>
        <time>2018-09-24T08:17:27Z</time>
      </trkpt>
      <trkpt lat="40.707865599542856" lon="13.945195181295276">
        <ele>320.74000000000001</ele>
        <time>2018-09-24T08:17:39Z</time>
      </trkpt>
      <trkpt lat="40.707850176841021" lon="13.945235917344689">
        <ele>321.69999999999999</ele>
        <time>2018-09-24T08:17:52Z</time>
      </trkpt>
      <trkpt lat="40.707832407206297" lon="13.945250920951366">
        <ele>322.18000000000001</ele>
        <time>2018-09-24T08:18:04Z</time>
      </trkpt>
      <trkpt lat="40.707813128829002" lon="13.945265337824821">
        <ele>323.62</ele>
        <time>2018-09-24T08:18:17Z</time>
      </trkpt>
      <trkpt lat="40.707790413871408" lon="13.945271959528327">
        <ele>325.06</ele>
        <time>2018-09-24T08:18:22Z</time>
      </trkpt>
      <trkpt lat="40.707781780511141" lon="13.945303056389093">
        <ele>326.5</ele>
        <time>2018-09-24T08:18:30Z</time>
      </trkpt>
      <trkpt lat="40.707746744155884" lon="13.945334991440177">
        <ele>329.38999999999999</ele>
        <time>2018-09-24T08:18:41Z</time>
      </trkpt>
      <trkpt lat="40.707724196836352" lon="13.945358712226152">
        <ele>330.82999999999998</ele>
        <time>2018-09-24T08:18:50Z</time>
      </trkpt>
      <trkpt lat="40.707705589011312" lon="13.945395676419139">
        <ele>332.75</ele>
        <time>2018-09-24T08:18:59Z</time>
      </trkpt>
      <trkpt lat="40.707683628425002" lon="13.945431131869555">
        <ele>335.16000000000003</ele>
        <time>2018-09-24T08:19:09Z</time>
      </trkpt>
      <trkpt lat="40.707662254571915" lon="13.945484524592757">
        <ele>335.63999999999999</ele>
        <time>2018-09-24T08:19:18Z</time>
      </trkpt>
      <trkpt lat="40.707635600119829" lon="13.945510173216462">
        <ele>336.60000000000002</ele>
        <time>2018-09-24T08:19:26Z</time>
      </trkpt>
      <trkpt lat="40.707630570977926" lon="13.945497684180737">
        <ele>336.12</ele>
        <time>2018-09-24T08:19:46Z</time>
      </trkpt>
      <trkpt lat="40.707667786628008" lon="13.94547438248992">
        <ele>336.12</ele>
        <time>2018-09-24T08:19:55Z</time>
      </trkpt>
      <trkpt lat="40.707671726122499" lon="13.945470275357366">
        <ele>336.60000000000002</ele>
        <time>2018-09-24T08:20:08Z</time>
      </trkpt>
      <trkpt lat="40.707668289542198" lon="13.945470694452524">
        <ele>336.60000000000002</ele>
        <time>2018-09-24T08:20:22Z</time>
      </trkpt>
      <trkpt lat="40.707672480493784" lon="13.945440435782075">
        <ele>336.60000000000002</ele>
        <time>2018-09-24T08:20:32Z</time>
      </trkpt>
      <trkpt lat="40.707670385017991" lon="13.945440938696265">
        <ele>336.12</ele>
        <time>2018-09-24T08:20:51Z</time>
      </trkpt>
      <trkpt lat="40.707676252350211" lon="13.94544068723917">
        <ele>336.60000000000002</ele>
        <time>2018-09-24T08:21:11Z</time>
      </trkpt>
      <trkpt lat="40.707704164087772" lon="13.945419229567051">
        <ele>337.07999999999998</ele>
        <time>2018-09-24T08:21:23Z</time>
      </trkpt>
      <trkpt lat="40.707726627588272" lon="13.945402633398771">
        <ele>337.56</ele>
        <time>2018-09-24T08:21:30Z</time>
      </trkpt>
      <trkpt lat="40.707743726670742" lon="13.945385701954365">
        <ele>337.07999999999998</ele>
        <time>2018-09-24T08:21:32Z</time>
      </trkpt>
      <trkpt lat="40.707794353365898" lon="13.945357035845518">
        <ele>336.60000000000002</ele>
        <time>2018-09-24T08:21:41Z</time>
      </trkpt>
      <trkpt lat="40.707814721390605" lon="13.945337757468224">
        <ele>337.56</ele>
        <time>2018-09-24T08:21:46Z</time>
      </trkpt>
      <trkpt lat="40.707839280366898" lon="13.945323256775737">
        <ele>337.56</ele>
        <time>2018-09-24T08:21:54Z</time>
      </trkpt>
      <trkpt lat="40.707837101072073" lon="13.945332476869226">
        <ele>337.56</ele>
        <time>2018-09-24T08:22:09Z</time>
      </trkpt>
      <trkpt lat="40.707837268710136" lon="13.945337003096938">
        <ele>337.56</ele>
        <time>2018-09-24T08:22:27Z</time>
      </trkpt>
      <trkpt lat="40.707833915948868" lon="13.945368267595768">
        <ele>337.07999999999998</ele>
        <time>2018-09-24T08:22:46Z</time>
      </trkpt>
      <trkpt lat="40.707821175456047" lon="13.945356868207455">
        <ele>337.07999999999998</ele>
        <time>2018-09-24T08:22:58Z</time>
      </trkpt>
      <trkpt lat="40.707818493247032" lon="13.945361729711294">
        <ele>337.07999999999998</ele>
        <time>2018-09-24T08:23:16Z</time>
      </trkpt>
      <trkpt lat="40.707816565409303" lon="13.945369692519307">
        <ele>337.56</ele>
        <time>2018-09-24T08:23:29Z</time>
      </trkpt>
      <trkpt lat="40.707814302295446" lon="13.945356197655201">
        <ele>337.07999999999998</ele>
        <time>2018-09-24T08:23:41Z</time>
      </trkpt>
      <trkpt lat="40.707772392779589" lon="13.945380505174398">
        <ele>336.60000000000002</ele>
        <time>2018-09-24T08:23:53Z</time>
      </trkpt>
      <trkpt lat="40.707727214321494" lon="13.9454235881567">
        <ele>337.56</ele>
        <time>2018-09-24T08:24:04Z</time>
      </trkpt>
      <trkpt lat="40.70770894177258" lon="13.945479830726981">
        <ele>337.56</ele>
        <time>2018-09-24T08:24:15Z</time>
      </trkpt>
      <trkpt lat="40.707687232643366" lon="13.945538839325309">
        <ele>339.95999999999998</ele>
        <time>2018-09-24T08:24:31Z</time>
      </trkpt>
      <trkpt lat="40.707725370302796" lon="13.945513861253858">
        <ele>342.37</ele>
        <time>2018-09-24T08:24:43Z</time>
      </trkpt>
      <trkpt lat="40.707791084423661" lon="13.945487374439836">
        <ele>344.76999999999998</ele>
        <time>2018-09-24T08:24:56Z</time>
      </trkpt>
      <trkpt lat="40.707852356135845" lon="13.945478154346347">
        <ele>345.73000000000002</ele>
        <time>2018-09-24T08:25:06Z</time>
      </trkpt>
      <trkpt lat="40.707933576777577" lon="13.945471029728651">
        <ele>345.73000000000002</ele>
        <time>2018-09-24T08:25:16Z</time>
      </trkpt>
      <trkpt lat="40.708036506548524" lon="13.945456948131323">
        <ele>346.20999999999998</ele>
        <time>2018-09-24T08:25:26Z</time>
      </trkpt>
      <trkpt lat="40.708160726353526" lon="13.945450996980071">
        <ele>345.25</ele>
        <time>2018-09-24T08:25:39Z</time>
      </trkpt>
      <trkpt lat="40.708289053291082" lon="13.945471784099936">
        <ele>344.76999999999998</ele>
        <time>2018-09-24T08:25:52Z</time>
      </trkpt>
      <trkpt lat="40.70833289064467" lon="13.945469940081239">
        <ele>345.25</ele>
        <time>2018-09-24T08:26:01Z</time>
      </trkpt>
      <trkpt lat="40.708404053002596" lon="13.945471281185746">
        <ele>345.73000000000002</ele>
        <time>2018-09-24T08:26:09Z</time>
      </trkpt>
      <trkpt lat="40.708506312221289" lon="13.945442195981741">
        <ele>345.25</ele>
        <time>2018-09-24T08:26:21Z</time>
      </trkpt>
      <trkpt lat="40.708559537306428" lon="13.94545728340745">
        <ele>344.76999999999998</ele>
        <time>2018-09-24T08:26:31Z</time>
      </trkpt>
      <trkpt lat="40.708608403801918" lon="13.945539426058531">
        <ele>344.29000000000002</ele>
        <time>2018-09-24T08:26:42Z</time>
      </trkpt>
      <trkpt lat="40.708605805411935" lon="13.945616623386741">
        <ele>345.73000000000002</ele>
        <time>2018-09-24T08:26:51Z</time>
      </trkpt>
      <trkpt lat="40.708605889230967" lon="13.945713602006435">
        <ele>347.64999999999998</ele>
        <time>2018-09-24T08:27:02Z</time>
      </trkpt>
      <trkpt lat="40.708607146516442" lon="13.945808652788401">
        <ele>349.10000000000002</ele>
        <time>2018-09-24T08:27:12Z</time>
      </trkpt>
      <trkpt lat="40.708625838160515" lon="13.94589364528656">
        <ele>350.06</ele>
        <time>2018-09-24T08:27:23Z</time>
      </trkpt>
      <trkpt lat="40.708619970828295" lon="13.945948127657175">
        <ele>350.06</ele>
        <time>2018-09-24T08:27:34Z</time>
      </trkpt>
      <trkpt lat="40.70862952619791" lon="13.94596598111093">
        <ele>352.45999999999998</ele>
        <time>2018-09-24T08:27:40Z</time>
      </trkpt>
      <trkpt lat="40.708641428500414" lon="13.945991965010762">
        <ele>352.45999999999998</ele>
        <time>2018-09-24T08:27:52Z</time>
      </trkpt>
      <trkpt lat="40.708666993305087" lon="13.94600604660809">
        <ele>351.5</ele>
        <time>2018-09-24T08:28:06Z</time>
      </trkpt>
      <trkpt lat="40.70866908878088" lon="13.946022558957338">
        <ele>351.5</ele>
        <time>2018-09-24T08:28:19Z</time>
      </trkpt>
      <trkpt lat="40.708679901435971" lon="13.946039071306586">
        <ele>351.01999999999998</ele>
        <time>2018-09-24T08:28:31Z</time>
      </trkpt>
      <trkpt lat="40.708684176206589" lon="13.946039658039808">
        <ele>351.01999999999998</ele>
        <time>2018-09-24T08:28:38Z</time>
      </trkpt>
      <trkpt lat="40.708759361878037" lon="13.946173265576363">
        <ele>351.5</ele>
        <time>2018-09-24T08:28:52Z</time>
      </trkpt>
      <trkpt lat="40.708883916959167" lon="13.946316177025437">
        <ele>352.45999999999998</ele>
        <time>2018-09-24T08:29:09Z</time>
      </trkpt>
      <trkpt lat="40.708984835073352" lon="13.946417011320591">
        <ele>352.94</ele>
        <time>2018-09-24T08:29:22Z</time>
      </trkpt>
      <trkpt lat="40.709063876420259" lon="13.946500830352306">
        <ele>353.42000000000002</ele>
        <time>2018-09-24T08:29:32Z</time>
      </trkpt>
      <trkpt lat="40.7091792114079" lon="13.946552546694875">
        <ele>353.89999999999998</ele>
        <time>2018-09-24T08:29:46Z</time>
      </trkpt>
      <trkpt lat="40.709332264959812" lon="13.946611387655139">
        <ele>354.86000000000001</ele>
        <time>2018-09-24T08:30:00Z</time>
      </trkpt>
      <trkpt lat="40.709436787292361" lon="13.946705181151628">
        <ele>355.33999999999997</ele>
        <time>2018-09-24T08:30:14Z</time>
      </trkpt>
      <trkpt lat="40.709487246349454" lon="13.946765782311559">
        <ele>355.82999999999998</ele>
        <time>2018-09-24T08:30:21Z</time>
      </trkpt>
      <trkpt lat="40.709572490304708" lon="13.946860749274492">
        <ele>356.31</ele>
        <time>2018-09-24T08:30:34Z</time>
      </trkpt>
      <trkpt lat="40.709556061774492" lon="13.946904167532921">
        <ele>355.82999999999998</ele>
        <time>2018-09-24T08:30:44Z</time>
      </trkpt>
      <trkpt lat="40.709542315453291" lon="13.946935683488846">
        <ele>355.82999999999998</ele>
        <time>2018-09-24T08:30:53Z</time>
      </trkpt>
      <trkpt lat="40.709546087309718" lon="13.94690265879035">
        <ele>355.33999999999997</ele>
        <time>2018-09-24T08:31:05Z</time>
      </trkpt>
      <trkpt lat="40.709549188613892" lon="13.946891091763973">
        <ele>355.82999999999998</ele>
        <time>2018-09-24T08:31:07Z</time>
      </trkpt>
      <trkpt lat="40.709587410092354" lon="13.946901317685843">
        <ele>355.33999999999997</ele>
        <time>2018-09-24T08:31:18Z</time>
      </trkpt>
      <trkpt lat="40.709579112008214" lon="13.946902742609382">
        <ele>355.82999999999998</ele>
        <time>2018-09-24T08:31:35Z</time>
      </trkpt>
      <trkpt lat="40.709622446447611" lon="13.94695739261806">
        <ele>355.33999999999997</ele>
        <time>2018-09-24T08:31:51Z</time>
      </trkpt>
      <trkpt lat="40.709597887471318" lon="13.946955883875489">
        <ele>355.33999999999997</ele>
        <time>2018-09-24T08:32:09Z</time>
      </trkpt>
      <trkpt lat="40.709639880806208" lon="13.946993015706539">
        <ele>355.82999999999998</ele>
        <time>2018-09-24T08:32:17Z</time>
      </trkpt>
      <trkpt lat="40.709714982658625" lon="13.947051940485835">
        <ele>355.82999999999998</ele>
        <time>2018-09-24T08:32:26Z</time>
      </trkpt>
      <trkpt lat="40.709790587425232" lon="13.947138106450438">
        <ele>354.38</ele>
        <time>2018-09-24T08:32:39Z</time>
      </trkpt>
      <trkpt lat="40.709798717871308" lon="13.947160821408033">
        <ele>354.38</ele>
        <time>2018-09-24T08:32:59Z</time>
      </trkpt>
      <trkpt lat="40.709827886894345" lon="13.947182362899184">
        <ele>354.38</ele>
        <time>2018-09-24T08:33:12Z</time>
      </trkpt>
      <trkpt lat="40.709866276010871" lon="13.947195019572973">
        <ele>354.86000000000001</ele>
        <time>2018-09-24T08:33:22Z</time>
      </trkpt>
      <trkpt lat="40.709934085607529" lon="13.947227038443089">
        <ele>354.86000000000001</ele>
        <time>2018-09-24T08:33:32Z</time>
      </trkpt>
      <trkpt lat="40.709944479167461" lon="13.947236258536577">
        <ele>353.42000000000002</ele>
        <time>2018-09-24T08:33:34Z</time>
      </trkpt>
      <trkpt lat="40.710020419210196" lon="13.947332818061113">
        <ele>351.5</ele>
        <time>2018-09-24T08:33:45Z</time>
      </trkpt>
      <trkpt lat="40.710085462778807" lon="13.947447147220373">
        <ele>351.01999999999998</ele>
        <time>2018-09-24T08:33:56Z</time>
      </trkpt>
      <trkpt lat="40.710140783339739" lon="13.947595842182636">
        <ele>351.01999999999998</ele>
        <time>2018-09-24T08:34:09Z</time>
      </trkpt>
      <trkpt lat="40.710129803046584" lon="13.947706650942564">
        <ele>349.10000000000002</ele>
        <time>2018-09-24T08:34:21Z</time>
      </trkpt>
      <trkpt lat="40.710144555196166" lon="13.94777923822403">
        <ele>348.62</ele>
        <time>2018-09-24T08:34:32Z</time>
      </trkpt>
      <trkpt lat="40.710178166627884" lon="13.947840761393309">
        <ele>347.64999999999998</ele>
        <time>2018-09-24T08:34:41Z</time>
      </trkpt>
      <trkpt lat="40.710161235183477" lon="13.947822824120522">
        <ele>346.69</ele>
        <time>2018-09-24T08:35:02Z</time>
      </trkpt>
      <trkpt lat="40.710158804431558" lon="13.947827517986298">
        <ele>347.17000000000002</ele>
        <time>2018-09-24T08:35:14Z</time>
      </trkpt>
      <trkpt lat="40.71016039699316" lon="13.947816286236048">
        <ele>347.64999999999998</ele>
        <time>2018-09-24T08:35:23Z</time>
      </trkpt>
      <trkpt lat="40.710183950141072" lon="13.947839001193643">
        <ele>348.62</ele>
        <time>2018-09-24T08:35:29Z</time>
      </trkpt>
      <trkpt lat="40.710181351751089" lon="13.947822907939553">
        <ele>348.13</ele>
        <time>2018-09-24T08:35:40Z</time>
      </trkpt>
      <trkpt lat="40.710178837180138" lon="13.947826512157917">
        <ele>348.13</ele>
        <time>2018-09-24T08:35:51Z</time>
      </trkpt>
      <trkpt lat="40.71018235757947" lon="13.947846796363592">
        <ele>348.62</ele>
        <time>2018-09-24T08:36:04Z</time>
      </trkpt>
      <trkpt lat="40.710184033960104" lon="13.947848891839385">
        <ele>348.13</ele>
        <time>2018-09-24T08:36:14Z</time>
      </trkpt>
      <trkpt lat="40.710189314559102" lon="13.947857692837715">
        <ele>348.62</ele>
        <time>2018-09-24T08:36:31Z</time>
      </trkpt>
      <trkpt lat="40.71018629707396" lon="13.947866829112172">
        <ele>349.10000000000002</ele>
        <time>2018-09-24T08:36:43Z</time>
      </trkpt>
      <trkpt lat="40.710193086415529" lon="13.947862554341555">
        <ele>348.62</ele>
        <time>2018-09-24T08:36:56Z</time>
      </trkpt>
      <trkpt lat="40.71022342890501" lon="13.947864482179284">
        <ele>348.62</ele>
        <time>2018-09-24T08:37:16Z</time>
      </trkpt>
      <trkpt lat="40.710305152460933" lon="13.947973111644387">
        <ele>347.64999999999998</ele>
        <time>2018-09-24T08:37:29Z</time>
      </trkpt>
      <trkpt lat="40.710376398637891" lon="13.948004711419344">
        <ele>348.13</ele>
        <time>2018-09-24T08:37:38Z</time>
      </trkpt>
      <trkpt lat="40.710421493276954" lon="13.948044944554567">
        <ele>349.10000000000002</ele>
        <time>2018-09-24T08:37:52Z</time>
      </trkpt>
      <trkpt lat="40.710477735847235" lon="13.948068749159575">
        <ele>350.06</ele>
        <time>2018-09-24T08:38:00Z</time>
      </trkpt>
      <trkpt lat="40.71055619046092" lon="13.948162961751223">
        <ele>351.5</ele>
        <time>2018-09-24T08:38:11Z</time>
      </trkpt>
      <trkpt lat="40.710642021149397" lon="13.948248038068414">
        <ele>352.94</ele>
        <time>2018-09-24T08:38:23Z</time>
      </trkpt>
      <trkpt lat="40.710689797997475" lon="13.948335293680429">
        <ele>353.42000000000002</ele>
        <time>2018-09-24T08:38:32Z</time>
      </trkpt>
      <trkpt lat="40.710752494633198" lon="13.948453646153212">
        <ele>353.42000000000002</ele>
        <time>2018-09-24T08:38:46Z</time>
      </trkpt>
      <trkpt lat="40.710771940648556" lon="13.948475103825331">
        <ele>353.42000000000002</ele>
        <time>2018-09-24T08:38:56Z</time>
      </trkpt>
      <trkpt lat="40.710773114115" lon="13.948474768549204">
        <ele>353.42000000000002</ele>
        <time>2018-09-24T08:39:14Z</time>
      </trkpt>
      <trkpt lat="40.710788369178772" lon="13.948471583425999">
        <ele>353.42000000000002</ele>
        <time>2018-09-24T08:39:21Z</time>
      </trkpt>
      <trkpt lat="40.71093094535172" lon="13.948430176824331">
        <ele>353.42000000000002</ele>
        <time>2018-09-24T08:39:36Z</time>
      </trkpt>
      <trkpt lat="40.711044687777758" lon="13.948373682796955">
        <ele>352.45999999999998</ele>
        <time>2018-09-24T08:39:50Z</time>
      </trkpt>
      <trkpt lat="40.711179887875915" lon="13.948345184326172">
        <ele>354.86000000000001</ele>
        <time>2018-09-24T08:40:03Z</time>
      </trkpt>
      <trkpt lat="40.711287343874574" lon="13.948269411921501">
        <ele>355.33999999999997</ele>
        <time>2018-09-24T08:40:16Z</time>
      </trkpt>
      <trkpt lat="40.711306119337678" lon="13.948242422193289">
        <ele>355.33999999999997</ele>
        <time>2018-09-24T08:40:19Z</time>
      </trkpt>
      <trkpt lat="40.711347023025155" lon="13.948153909295797">
        <ele>356.31</ele>
        <time>2018-09-24T08:40:29Z</time>
      </trkpt>
      <trkpt lat="40.711315758526325" lon="13.948019044473767">
        <ele>358.23000000000002</ele>
        <time>2018-09-24T08:40:42Z</time>
      </trkpt>
      <trkpt lat="40.711296899244189" lon="13.94789750687778">
        <ele>359.67000000000002</ele>
        <time>2018-09-24T08:40:54Z</time>
      </trkpt>
      <trkpt lat="40.711260689422488" lon="13.947838079184294">
        <ele>361.11000000000001</ele>
        <time>2018-09-24T08:41:04Z</time>
      </trkpt>
      <trkpt lat="40.711195226758718" lon="13.947735065594316">
        <ele>363.04000000000002</ele>
        <time>2018-09-24T08:41:17Z</time>
      </trkpt>
      <trkpt lat="40.711169745773077" lon="13.947633393108845">
        <ele>365.44</ele>
        <time>2018-09-24T08:41:28Z</time>
      </trkpt>
      <trkpt lat="40.711116185411811" lon="13.947539934888482">
        <ele>367.83999999999997</ele>
        <time>2018-09-24T08:41:40Z</time>
      </trkpt>
      <trkpt lat="40.71104234084487" lon="13.947439938783646">
        <ele>370.24000000000001</ele>
        <time>2018-09-24T08:41:53Z</time>
      </trkpt>
      <trkpt lat="40.710996240377426" lon="13.94738981500268">
        <ele>372.17000000000002</ele>
        <time>2018-09-24T08:42:04Z</time>
      </trkpt>
      <trkpt lat="40.7109803147614" lon="13.947391575202346">
        <ele>372.17000000000002</ele>
        <time>2018-09-24T08:42:06Z</time>
      </trkpt>
      <trkpt lat="40.710907140746713" lon="13.947354527190328">
        <ele>373.61000000000001</ele>
        <time>2018-09-24T08:42:16Z</time>
      </trkpt>
      <trkpt lat="40.710876043885946" lon="13.947239108383656">
        <ele>376.00999999999999</ele>
        <time>2018-09-24T08:42:29Z</time>
      </trkpt>
      <trkpt lat="40.710876379162073" lon="13.947160905227065">
        <ele>376.49000000000001</ele>
        <time>2018-09-24T08:42:40Z</time>
      </trkpt>
      <trkpt lat="40.710873948410153" lon="13.947042468935251">
        <ele>378.42000000000002</ele>
        <time>2018-09-24T08:42:52Z</time>
      </trkpt>
      <trkpt lat="40.710892053321004" lon="13.946948256343603">
        <ele>380.33999999999997</ele>
        <time>2018-09-24T08:43:04Z</time>
      </trkpt>
      <trkpt lat="40.710848718881607" lon="13.946866700425744">
        <ele>382.25999999999999</ele>
        <time>2018-09-24T08:43:14Z</time>
      </trkpt>
      <trkpt lat="40.710839163511992" lon="13.946773326024413">
        <ele>383.69999999999999</ele>
        <time>2018-09-24T08:43:25Z</time>
      </trkpt>
      <trkpt lat="40.71080295369029" lon="13.946673916652799">
        <ele>386.11000000000001</ele>
        <time>2018-09-24T08:43:36Z</time>
      </trkpt>
      <trkpt lat="40.710850227624178" lon="13.946601497009397">
        <ele>389.47000000000003</ele>
        <time>2018-09-24T08:43:47Z</time>
      </trkpt>
      <trkpt lat="40.710868751630187" lon="13.946509882807732">
        <ele>389.47000000000003</ele>
        <time>2018-09-24T08:44:00Z</time>
      </trkpt>
      <trkpt lat="40.710914181545377" lon="13.946489850059152">
        <ele>391.38999999999999</ele>
        <time>2018-09-24T08:44:11Z</time>
      </trkpt>
      <trkpt lat="40.710976626724005" lon="13.946444252505898">
        <ele>391.38999999999999</ele>
        <time>2018-09-24T08:44:23Z</time>
      </trkpt>
      <trkpt lat="40.710966484621167" lon="13.946465458720922">
        <ele>391.38999999999999</ele>
        <time>2018-09-24T08:44:35Z</time>
      </trkpt>
      <trkpt lat="40.710903368890285" lon="13.946497812867165">
        <ele>391.38999999999999</ele>
        <time>2018-09-24T08:44:46Z</time>
      </trkpt>
      <trkpt lat="40.710886940360069" lon="13.946420447900891">
        <ele>392.36000000000001</ele>
        <time>2018-09-24T08:44:58Z</time>
      </trkpt>
      <trkpt lat="40.710873696953058" lon="13.946337550878525">
        <ele>394.27999999999997</ele>
        <time>2018-09-24T08:45:07Z</time>
      </trkpt>
      <trkpt lat="40.710880486294627" lon="13.946350794285536">
        <ele>394.75999999999999</ele>
        <time>2018-09-24T08:45:21Z</time>
      </trkpt>
      <trkpt lat="40.710903536528349" lon="13.946429416537285">
        <ele>392.83999999999997</ele>
        <time>2018-09-24T08:45:31Z</time>
      </trkpt>
      <trkpt lat="40.710911583155394" lon="13.946489095687866">
        <ele>391.87</ele>
        <time>2018-09-24T08:45:42Z</time>
      </trkpt>
      <trkpt lat="40.710899345576763" lon="13.946489430963993">
        <ele>391.38999999999999</ele>
        <time>2018-09-24T08:45:55Z</time>
      </trkpt>
      <trkpt lat="40.710902614519" lon="13.946499153971672">
        <ele>391.38999999999999</ele>
        <time>2018-09-24T08:46:14Z</time>
      </trkpt>
      <trkpt lat="40.710925832390785" lon="13.946507452055812">
        <ele>391.38999999999999</ele>
        <time>2018-09-24T08:46:34Z</time>
      </trkpt>
      <trkpt lat="40.710918875411153" lon="13.946513151749969">
        <ele>391.87</ele>
        <time>2018-09-24T08:46:55Z</time>
      </trkpt>
      <trkpt lat="40.710914433002472" lon="13.946522120386362">
        <ele>391.38999999999999</ele>
        <time>2018-09-24T08:47:16Z</time>
      </trkpt>
      <trkpt lat="40.710929436609149" lon="13.946513738483191">
        <ele>390.91000000000003</ele>
        <time>2018-09-24T08:47:38Z</time>
      </trkpt>
      <trkpt lat="40.71093094535172" lon="13.946508122608066">
        <ele>391.38999999999999</ele>
        <time>2018-09-24T08:48:01Z</time>
      </trkpt>
      <trkpt lat="40.71097151376307" lon="13.94651273265481">
        <ele>391.38999999999999</ele>
        <time>2018-09-24T08:48:24Z</time>
      </trkpt>
      <trkpt lat="40.710957683622837" lon="13.94651910290122">
        <ele>391.38999999999999</ele>
        <time>2018-09-24T08:48:47Z</time>
      </trkpt>
      <trkpt lat="40.710912588983774" lon="13.946517677977681">
        <ele>391.87</ele>
        <time>2018-09-24T08:49:09Z</time>
      </trkpt>
      <trkpt lat="40.710944356396794" lon="13.946537207812071">
        <ele>391.87</ele>
        <time>2018-09-24T08:49:30Z</time>
      </trkpt>
      <trkpt lat="40.7109285145998" lon="13.946525892242789">
        <ele>391.87</ele>
        <time>2018-09-24T08:49:50Z</time>
      </trkpt>
      <trkpt lat="40.710965897887945" lon="13.946517426520586">
        <ele>391.87</ele>
        <time>2018-09-24T08:50:06Z</time>
      </trkpt>
      <trkpt lat="40.710960030555725" lon="13.946529496461153">
        <ele>391.87</ele>
        <time>2018-09-24T08:50:23Z</time>
      </trkpt>
      <trkpt lat="40.710955839604139" lon="13.946537962183356">
        <ele>392.83999999999997</ele>
        <time>2018-09-24T08:50:42Z</time>
      </trkpt>
      <trkpt lat="40.71094804443419" lon="13.946535615250468">
        <ele>391.87</ele>
        <time>2018-09-24T08:50:59Z</time>
      </trkpt>
      <trkpt lat="40.710952151566744" lon="13.946547182276845">
        <ele>391.87</ele>
        <time>2018-09-24T08:51:21Z</time>
      </trkpt>
      <trkpt lat="40.710924910381436" lon="13.946544583886862">
        <ele>391.87</ele>
        <time>2018-09-24T08:51:36Z</time>
      </trkpt>
      <trkpt lat="40.710923569276929" lon="13.946512313559651">
        <ele>392.36000000000001</ele>
        <time>2018-09-24T08:51:59Z</time>
      </trkpt>
      <trkpt lat="40.7109544146806" lon="13.946512481197715">
        <ele>392.36000000000001</ele>
        <time>2018-09-24T08:52:13Z</time>
      </trkpt>
      <trkpt lat="40.710981404408813" lon="13.946473421528935">
        <ele>392.83999999999997</ele>
        <time>2018-09-24T08:52:24Z</time>
      </trkpt>
      <trkpt lat="40.710950391367078" lon="13.946432350203395">
        <ele>392.83999999999997</ele>
        <time>2018-09-24T08:52:36Z</time>
      </trkpt>
      <trkpt lat="40.710953744128346" lon="13.946364540606737">
        <ele>393.31999999999999</ele>
        <time>2018-09-24T08:52:49Z</time>
      </trkpt>
      <trkpt lat="40.711012333631516" lon="13.946350459009409">
        <ele>393.31999999999999</ele>
        <time>2018-09-24T08:53:02Z</time>
      </trkpt>
      <trkpt lat="40.711068827658892" lon="13.946256414055824">
        <ele>393.31999999999999</ele>
        <time>2018-09-24T08:53:14Z</time>
      </trkpt>
      <trkpt lat="40.711128925904632" lon="13.946139989420772">
        <ele>392.83999999999997</ele>
        <time>2018-09-24T08:53:26Z</time>
      </trkpt>
      <trkpt lat="40.711185000836849" lon="13.946030018851161">
        <ele>393.31999999999999</ele>
        <time>2018-09-24T08:53:38Z</time>
      </trkpt>
      <trkpt lat="40.711213834583759" lon="13.94596254453063">
        <ele>393.31999999999999</ele>
        <time>2018-09-24T08:53:49Z</time>
      </trkpt>
      <trkpt lat="40.711246859282255" lon="13.945897165685892">
        <ele>391.87</ele>
        <time>2018-09-24T08:54:02Z</time>
      </trkpt>
      <trkpt lat="40.711308214813471" lon="13.94582231529057">
        <ele>392.83999999999997</ele>
        <time>2018-09-24T08:54:13Z</time>
      </trkpt>
      <trkpt lat="40.711340988054872" lon="13.94578468054533">
        <ele>392.83999999999997</ele>
        <time>2018-09-24T08:54:25Z</time>
      </trkpt>
      <trkpt lat="40.711326319724321" lon="13.945710333064198">
        <ele>392.83999999999997</ele>
        <time>2018-09-24T08:54:38Z</time>
      </trkpt>
      <trkpt lat="40.711365044116974" lon="13.945635315030813">
        <ele>394.27999999999997</ele>
        <time>2018-09-24T08:54:51Z</time>
      </trkpt>
      <trkpt lat="40.711447019129992" lon="13.945548394694924">
        <ele>394.27999999999997</ele>
        <time>2018-09-24T08:55:02Z</time>
      </trkpt>
      <trkpt lat="40.711508877575397" lon="13.945507658645511">
        <ele>394.27999999999997</ele>
        <time>2018-09-24T08:55:14Z</time>
      </trkpt>
      <trkpt lat="40.711535448208451" lon="13.945431299507618">
        <ele>394.75999999999999</ele>
        <time>2018-09-24T08:55:25Z</time>
      </trkpt>
      <trkpt lat="40.711569814011455" lon="13.945372542366385">
        <ele>394.75999999999999</ele>
        <time>2018-09-24T08:55:35Z</time>
      </trkpt>
      <trkpt lat="40.711605520918965" lon="13.945203730836511">
        <ele>395.72000000000003</ele>
        <time>2018-09-24T08:55:48Z</time>
      </trkpt>
      <trkpt lat="40.711628822609782" lon="13.945102728903294">
        <ele>397.16000000000003</ele>
        <time>2018-09-24T08:55:58Z</time>
      </trkpt>
      <trkpt lat="40.711655560880899" lon="13.944976413622499">
        <ele>398.12</ele>
        <time>2018-09-24T08:56:10Z</time>
      </trkpt>
      <trkpt lat="40.711671570315957" lon="13.944876249879599">
        <ele>400.52999999999997</ele>
        <time>2018-09-24T08:56:23Z</time>
      </trkpt>
      <trkpt lat="40.711700404062867" lon="13.944765189662576">
        <ele>400.52999999999997</ele>
        <time>2018-09-24T08:56:32Z</time>
      </trkpt>
      <trkpt lat="40.711704846471548" lon="13.944648513570428">
        <ele>400.05000000000001</ele>
        <time>2018-09-24T08:56:43Z</time>
      </trkpt>
      <trkpt lat="40.711734350770712" lon="13.944625882431865">
        <ele>400.52999999999997</ele>
        <time>2018-09-24T08:56:51Z</time>
      </trkpt>
      <trkpt lat="40.711727226153016" lon="13.944608615711331">
        <ele>400.05000000000001</ele>
        <time>2018-09-24T08:57:08Z</time>
      </trkpt>
      <trkpt lat="40.711734686046839" lon="13.944604927673936">
        <ele>400.05000000000001</ele>
        <time>2018-09-24T08:57:24Z</time>
      </trkpt>
      <trkpt lat="40.711745750159025" lon="13.944623032584786">
        <ele>400.52999999999997</ele>
        <time>2018-09-24T08:57:46Z</time>
      </trkpt>
      <trkpt lat="40.711775338277221" lon="13.94470383413136">
        <ele>400.05000000000001</ele>
        <time>2018-09-24T08:57:55Z</time>
      </trkpt>
      <trkpt lat="40.7117884978652" lon="13.94469746388495">
        <ele>400.05000000000001</ele>
        <time>2018-09-24T08:58:06Z</time>
      </trkpt>
      <trkpt lat="40.711787575855851" lon="13.944722525775433">
        <ele>400.05000000000001</ele>
        <time>2018-09-24T08:58:29Z</time>
      </trkpt>
      <trkpt lat="40.711792353540659" lon="13.944701571017504">
        <ele>400.05000000000001</ele>
        <time>2018-09-24T08:58:52Z</time>
      </trkpt>
      <trkpt lat="40.711750779300928" lon="13.9446931052953">
        <ele>400.05000000000001</ele>
        <time>2018-09-24T08:59:11Z</time>
      </trkpt>
      <trkpt lat="40.71174600161612" lon="13.944682208821177">
        <ele>400.52999999999997</ele>
        <time>2018-09-24T08:59:33Z</time>
      </trkpt>
      <trkpt lat="40.711739882826805" lon="13.94468086771667">
        <ele>400.52999999999997</ele>
        <time>2018-09-24T08:59:55Z</time>
      </trkpt>
      <trkpt lat="40.711744157597423" lon="13.94468086771667">
        <ele>400.52999999999997</ele>
        <time>2018-09-24T09:00:12Z</time>
      </trkpt>
      <trkpt lat="40.711750444024801" lon="13.944686567410827">
        <ele>400.52999999999997</ele>
        <time>2018-09-24T09:00:26Z</time>
      </trkpt>
      <trkpt lat="40.711755305528641" lon="13.944719256833196">
        <ele>400.52999999999997</ele>
        <time>2018-09-24T09:00:43Z</time>
      </trkpt>
      <trkpt lat="40.711749102920294" lon="13.944735936820507">
        <ele>400.52999999999997</ele>
        <time>2018-09-24T09:01:01Z</time>
      </trkpt>
      <trkpt lat="40.711776930838823" lon="13.944739876314998">
        <ele>401.00999999999999</ele>
        <time>2018-09-24T09:01:15Z</time>
      </trkpt>
      <trkpt lat="40.711789336055517" lon="13.944739541038871">
        <ele>401.00999999999999</ele>
        <time>2018-09-24T09:01:31Z</time>
      </trkpt>
      <trkpt lat="40.71175480261445" lon="13.944755885750055">
        <ele>401.00999999999999</ele>
        <time>2018-09-24T09:01:46Z</time>
      </trkpt>
      <trkpt lat="40.71174792945385" lon="13.944709785282612">
        <ele>400.52999999999997</ele>
        <time>2018-09-24T09:02:01Z</time>
      </trkpt>
      <trkpt lat="40.711742816492915" lon="13.944709869101644">
        <ele>401.49000000000001</ele>
        <time>2018-09-24T09:02:14Z</time>
      </trkpt>
      <trkpt lat="40.711730159819126" lon="13.944714143872261">
        <ele>401.49000000000001</ele>
        <time>2018-09-24T09:02:26Z</time>
      </trkpt>
      <trkpt lat="40.711740888655186" lon="13.944699307903647">
        <ele>401.00999999999999</ele>
        <time>2018-09-24T09:02:45Z</time>
      </trkpt>
      <trkpt lat="40.71174306795001" lon="13.944721268489957">
        <ele>401.00999999999999</ele>
        <time>2018-09-24T09:03:02Z</time>
      </trkpt>
      <trkpt lat="40.711761591956019" lon="13.944730320945382">
        <ele>401.49000000000001</ele>
        <time>2018-09-24T09:03:17Z</time>
      </trkpt>
      <trkpt lat="40.711744073778391" lon="13.944736942648888">
        <ele>401.49000000000001</ele>
        <time>2018-09-24T09:03:32Z</time>
      </trkpt>
      <trkpt lat="40.711736530065536" lon="13.944745576009154">
        <ele>401.49000000000001</ele>
        <time>2018-09-24T09:03:52Z</time>
      </trkpt>
      <trkpt lat="40.711736781522632" lon="13.944766949862242">
        <ele>401.49000000000001</ele>
        <time>2018-09-24T09:04:14Z</time>
      </trkpt>
      <trkpt lat="40.711738038808107" lon="13.944779690355062">
        <ele>401.49000000000001</ele>
        <time>2018-09-24T09:04:39Z</time>
      </trkpt>
      <trkpt lat="40.711728567257524" lon="13.944753287360072">
        <ele>401.97000000000003</ele>
        <time>2018-09-24T09:04:55Z</time>
      </trkpt>
      <trkpt lat="40.71173476986587" lon="13.944769464433193">
        <ele>401.49000000000001</ele>
        <time>2018-09-24T09:05:11Z</time>
      </trkpt>
      <trkpt lat="40.711738625541329" lon="13.944764770567417">
        <ele>401.49000000000001</ele>
        <time>2018-09-24T09:05:33Z</time>
      </trkpt>
      <trkpt lat="40.711732925847173" lon="13.944742558524013">
        <ele>401.97000000000003</ele>
        <time>2018-09-24T09:05:51Z</time>
      </trkpt>
      <trkpt lat="40.711743570864201" lon="13.944747084751725">
        <ele>401.00999999999999</ele>
        <time>2018-09-24T09:06:09Z</time>
      </trkpt>
      <trkpt lat="40.711738374084234" lon="13.944759573787451">
        <ele>401.00999999999999</ele>
        <time>2018-09-24T09:06:22Z</time>
      </trkpt>
      <trkpt lat="40.711695374920964" lon="13.944773571565747">
        <ele>401.49000000000001</ele>
        <time>2018-09-24T09:06:27Z</time>
      </trkpt>
      <trkpt lat="40.711700739338994" lon="13.944793688133359">
        <ele>401.49000000000001</ele>
        <time>2018-09-24T09:06:37Z</time>
      </trkpt>
      <trkpt lat="40.711698476225138" lon="13.944785976782441">
        <ele>401.49000000000001</ele>
        <time>2018-09-24T09:06:39Z</time>
      </trkpt>
      <trkpt lat="40.711649022996426" lon="13.944686818867922">
        <ele>401.97000000000003</ele>
        <time>2018-09-24T09:06:50Z</time>
      </trkpt>
      <trkpt lat="40.711592445150018" lon="13.944707186892629">
        <ele>402.44999999999999</ele>
        <time>2018-09-24T09:06:57Z</time>
      </trkpt>
      <trkpt lat="40.711556067690253" lon="13.944720849394798">
        <ele>402.44999999999999</ele>
        <time>2018-09-24T09:07:00Z</time>
      </trkpt>
      <trkpt lat="40.711535615846515" lon="13.944697882980108">
        <ele>402.44999999999999</ele>
        <time>2018-09-24T09:07:13Z</time>
      </trkpt>
      <trkpt lat="40.711566880345345" lon="13.944702409207821">
        <ele>402.93000000000001</ele>
        <time>2018-09-24T09:07:41Z</time>
      </trkpt>
      <trkpt lat="40.711637958884239" lon="13.944659829139709">
        <ele>402.44999999999999</ele>
        <time>2018-09-24T09:07:51Z</time>
      </trkpt>
      <trkpt lat="40.711644077673554" lon="13.944656476378441">
        <ele>402.44999999999999</ele>
        <time>2018-09-24T09:07:52Z</time>
      </trkpt>
      <trkpt lat="40.711679868400097" lon="13.944664774462581">
        <ele>401.97000000000003</ele>
        <time>2018-09-24T09:07:57Z</time>
      </trkpt>
      <trkpt lat="40.711698392406106" lon="13.944714395329356">
        <ele>401.97000000000003</ele>
        <time>2018-09-24T09:08:07Z</time>
      </trkpt>
      <trkpt lat="40.711719933897257" lon="13.944744821637869">
        <ele>401.97000000000003</ele>
        <time>2018-09-24T09:08:19Z</time>
      </trkpt>
      <trkpt lat="40.711727729067206" lon="13.944749599322677">
        <ele>401.97000000000003</ele>
        <time>2018-09-24T09:08:31Z</time>
      </trkpt>
      <trkpt lat="40.711723538115621" lon="13.944745995104313">
        <ele>401.97000000000003</ele>
        <time>2018-09-24T09:08:47Z</time>
      </trkpt>
      <trkpt lat="40.711702331900597" lon="13.944663600996137">
        <ele>402.44999999999999</ele>
        <time>2018-09-24T09:08:59Z</time>
      </trkpt>
      <trkpt lat="40.711704678833485" lon="13.944626301527023">
        <ele>402.44999999999999</ele>
        <time>2018-09-24T09:09:02Z</time>
      </trkpt>
      <trkpt lat="40.71169663220644" lon="13.944590594619513">
        <ele>402.93000000000001</ele>
        <time>2018-09-24T09:09:13Z</time>
      </trkpt>
      <trkpt lat="40.711699901148677" lon="13.944595456123352">
        <ele>403.41000000000003</ele>
        <time>2018-09-24T09:09:27Z</time>
      </trkpt>
      <trkpt lat="40.711695961654186" lon="13.944586152210832">
        <ele>402.44999999999999</ele>
        <time>2018-09-24T09:09:48Z</time>
      </trkpt>
      <trkpt lat="40.711701577529311" lon="13.944595204666257">
        <ele>401.97000000000003</ele>
        <time>2018-09-24T09:10:02Z</time>
      </trkpt>
      <trkpt lat="40.711716497316957" lon="13.944600401446223">
        <ele>401.49000000000001</ele>
        <time>2018-09-24T09:10:22Z</time>
      </trkpt>
      <trkpt lat="40.711749354377389" lon="13.94462420605123">
        <ele>401.97000000000003</ele>
        <time>2018-09-24T09:10:34Z</time>
      </trkpt>
      <trkpt lat="40.71174742653966" lon="13.944656560197473">
        <ele>401.97000000000003</ele>
        <time>2018-09-24T09:10:46Z</time>
      </trkpt>
      <trkpt lat="40.711751198396087" lon="13.944663684815168">
        <ele>401.97000000000003</ele>
        <time>2018-09-24T09:11:05Z</time>
      </trkpt>
      <trkpt lat="40.711736362427473" lon="13.944621020928025">
        <ele>401.49000000000001</ele>
        <time>2018-09-24T09:11:16Z</time>
      </trkpt>
      <trkpt lat="40.711734183132648" lon="13.944612219929695">
        <ele>401.49000000000001</ele>
        <time>2018-09-24T09:11:35Z</time>
      </trkpt>
      <trkpt lat="40.711729153990746" lon="13.944610292091966">
        <ele>401.49000000000001</ele>
        <time>2018-09-24T09:11:56Z</time>
      </trkpt>
      <trkpt lat="40.711758909747005" lon="13.944669384509325">
        <ele>401.97000000000003</ele>
        <time>2018-09-24T09:12:12Z</time>
      </trkpt>
      <trkpt lat="40.711752120405436" lon="13.944751275703311">
        <ele>401.49000000000001</ele>
        <time>2018-09-24T09:12:23Z</time>
      </trkpt>
      <trkpt lat="40.71169713512063" lon="13.944778516888618">
        <ele>401.49000000000001</ele>
        <time>2018-09-24T09:12:34Z</time>
      </trkpt>
      <trkpt lat="40.711696213111281" lon="13.944816822186112">
        <ele>401.49000000000001</ele>
        <time>2018-09-24T09:12:43Z</time>
      </trkpt>
      <trkpt lat="40.711688166484237" lon="13.944893013685942">
        <ele>401.49000000000001</ele>
        <time>2018-09-24T09:12:56Z</time>
      </trkpt>
      <trkpt lat="40.711678862571716" lon="13.944911621510983">
        <ele>401.49000000000001</ele>
        <time>2018-09-24T09:13:07Z</time>
      </trkpt>
      <trkpt lat="40.711689926683903" lon="13.944952944293618">
        <ele>400.52999999999997</ele>
        <time>2018-09-24T09:13:20Z</time>
      </trkpt>
      <trkpt lat="40.711701242253184" lon="13.944962415844202">
        <ele>399.07999999999998</ele>
        <time>2018-09-24T09:13:31Z</time>
      </trkpt>
      <trkpt lat="40.711702918633819" lon="13.945011533796787">
        <ele>398.60000000000002</ele>
        <time>2018-09-24T09:13:43Z</time>
      </trkpt>
      <trkpt lat="40.711696883663535" lon="13.945031650364399">
        <ele>398.60000000000002</ele>
        <time>2018-09-24T09:13:57Z</time>
      </trkpt>
      <trkpt lat="40.711684059351683" lon="13.94503902643919">
        <ele>398.60000000000002</ele>
        <time>2018-09-24T09:14:11Z</time>
      </trkpt>
      <trkpt lat="40.711659668013453" lon="13.945066602900624">
        <ele>398.60000000000002</ele>
        <time>2018-09-24T09:14:29Z</time>
      </trkpt>
      <trkpt lat="40.711687579751015" lon="13.945048749446869">
        <ele>398.60000000000002</ele>
        <time>2018-09-24T09:14:43Z</time>
      </trkpt>
      <trkpt lat="40.711675174534321" lon="13.945054449141026">
        <ele>398.60000000000002</ele>
        <time>2018-09-24T09:14:55Z</time>
      </trkpt>
      <trkpt lat="40.711681209504604" lon="13.945091497153044">
        <ele>398.60000000000002</ele>
        <time>2018-09-24T09:15:12Z</time>
      </trkpt>
      <trkpt lat="40.71166436187923" lon="13.945216303691268">
        <ele>397.16000000000003</ele>
        <time>2018-09-24T09:15:24Z</time>
      </trkpt>
      <trkpt lat="40.711618093773723" lon="13.945371620357037">
        <ele>396.19999999999999</ele>
        <time>2018-09-24T09:15:38Z</time>
      </trkpt>
      <trkpt lat="40.711640389636159" lon="13.945487625896931">
        <ele>393.80000000000001</ele>
        <time>2018-09-24T09:15:49Z</time>
      </trkpt>
      <trkpt lat="40.711646089330316" lon="13.945528194308281">
        <ele>392.83999999999997</ele>
        <time>2018-09-24T09:15:52Z</time>
      </trkpt>
      <trkpt lat="40.711598144844174" lon="13.945635985583067">
        <ele>392.36000000000001</ele>
        <time>2018-09-24T09:16:03Z</time>
      </trkpt>
      <trkpt lat="40.711611052975059" lon="13.945660376921296">
        <ele>391.38999999999999</ele>
        <time>2018-09-24T09:16:17Z</time>
      </trkpt>
      <trkpt lat="40.711602084338665" lon="13.945737490430474">
        <ele>390.91000000000003</ele>
        <time>2018-09-24T09:16:28Z</time>
      </trkpt>
      <trkpt lat="40.711569814011455" lon="13.945839330554008">
        <ele>388.99000000000001</ele>
        <time>2018-09-24T09:16:38Z</time>
      </trkpt>
      <trkpt lat="40.711533520370722" lon="13.945982996374369">
        <ele>386.11000000000001</ele>
        <time>2018-09-24T09:16:52Z</time>
      </trkpt>
      <trkpt lat="40.71154709905386" lon="13.946103863418102">
        <ele>383.69999999999999</ele>
        <time>2018-09-24T09:17:05Z</time>
      </trkpt>
      <trkpt lat="40.71152513846755" lon="13.946203356608748">
        <ele>381.77999999999997</ele>
        <time>2018-09-24T09:17:13Z</time>
      </trkpt>
      <trkpt lat="40.711520528420806" lon="13.946333527565002">
        <ele>379.86000000000001</ele>
        <time>2018-09-24T09:17:24Z</time>
      </trkpt>
      <trkpt lat="40.711495466530323" lon="13.946484569460154">
        <ele>377.44999999999999</ele>
        <time>2018-09-24T09:17:36Z</time>
      </trkpt>
      <trkpt lat="40.711482809856534" lon="13.946605771780014">
        <ele>375.05000000000001</ele>
        <time>2018-09-24T09:17:47Z</time>
      </trkpt>
      <trkpt lat="40.711454059928656" lon="13.946735188364983">
        <ele>373.61000000000001</ele>
        <time>2018-09-24T09:17:59Z</time>
      </trkpt>
      <trkpt lat="40.711448276415467" lon="13.946840884163976">
        <ele>373.61000000000001</ele>
        <time>2018-09-24T09:18:07Z</time>
      </trkpt>
      <trkpt lat="40.711408630013466" lon="13.946957979351282">
        <ele>371.69</ele>
        <time>2018-09-24T09:18:17Z</time>
      </trkpt>
      <trkpt lat="40.711371582001448" lon="13.947097035124898">
        <ele>371.20999999999998</ele>
        <time>2018-09-24T09:18:27Z</time>
      </trkpt>
      <trkpt lat="40.71132036857307" lon="13.947263332083821">
        <ele>371.20999999999998</ele>
        <time>2018-09-24T09:18:40Z</time>
      </trkpt>
      <trkpt lat="40.711277956143022" lon="13.947332063689828">
        <ele>371.20999999999998</ele>
        <time>2018-09-24T09:18:47Z</time>
      </trkpt>
      <trkpt lat="40.711219450458884" lon="13.94749048165977">
        <ele>370.73000000000002</ele>
        <time>2018-09-24T09:19:01Z</time>
      </trkpt>
      <trkpt lat="40.711195981130004" lon="13.94757404923439">
        <ele>368.80000000000001</ele>
        <time>2018-09-24T09:19:11Z</time>
      </trkpt>
      <trkpt lat="40.711218696087599" lon="13.947680667042732">
        <ele>366.39999999999998</ele>
        <time>2018-09-24T09:19:21Z</time>
      </trkpt>
      <trkpt lat="40.711268652230501" lon="13.947789128869772">
        <ele>363.51999999999998</ele>
        <time>2018-09-24T09:19:34Z</time>
      </trkpt>
      <trkpt lat="40.711276363581419" lon="13.947801617905498">
        <ele>363.04000000000002</ele>
        <time>2018-09-24T09:19:35Z</time>
      </trkpt>
      <trkpt lat="40.711314585059881" lon="13.947905218228698">
        <ele>361.58999999999997</ele>
        <time>2018-09-24T09:19:43Z</time>
      </trkpt>
      <trkpt lat="40.711344173178077" lon="13.94803773611784">
        <ele>360.63</ele>
        <time>2018-09-24T09:19:54Z</time>
      </trkpt>
      <trkpt lat="40.711363116279244" lon="13.948156088590622">
        <ele>359.67000000000002</ele>
        <time>2018-09-24T09:20:04Z</time>
      </trkpt>
      <trkpt lat="40.711307544261217" lon="13.948224568739533">
        <ele>358.23000000000002</ele>
        <time>2018-09-24T09:20:13Z</time>
      </trkpt>
      <trkpt lat="40.711243003606796" lon="13.948278967291117">
        <ele>358.23000000000002</ele>
        <time>2018-09-24T09:20:22Z</time>
      </trkpt>
      <trkpt lat="40.711168153211474" lon="13.948328671976924">
        <ele>356.79000000000002</ele>
        <time>2018-09-24T09:20:34Z</time>
      </trkpt>
      <trkpt lat="40.711149629205465" lon="13.948340322822332">
        <ele>356.31</ele>
        <time>2018-09-24T09:20:47Z</time>
      </trkpt>
      <trkpt lat="40.711133033037186" lon="13.948354655876756">
        <ele>356.31</ele>
        <time>2018-09-24T09:21:00Z</time>
      </trkpt>
      <trkpt lat="40.71111811324954" lon="13.94837049767375">
        <ele>356.31</ele>
        <time>2018-09-24T09:21:13Z</time>
      </trkpt>
      <trkpt lat="40.711118699982762" lon="13.948367731645703">
        <ele>355.33999999999997</ele>
        <time>2018-09-24T09:21:32Z</time>
      </trkpt>
      <trkpt lat="40.711061200127006" lon="13.948392374441028">
        <ele>355.82999999999998</ele>
        <time>2018-09-24T09:21:48Z</time>
      </trkpt>
      <trkpt lat="40.711034294217825" lon="13.948457082733512">
        <ele>354.38</ele>
        <time>2018-09-24T09:21:59Z</time>
      </trkpt>
      <trkpt lat="40.711078550666571" lon="13.948478456586599">
        <ele>353.42000000000002</ele>
        <time>2018-09-24T09:22:06Z</time>
      </trkpt>
      <trkpt lat="40.711162369698286" lon="13.948592701926827">
        <ele>351.98000000000002</ele>
        <time>2018-09-24T09:22:20Z</time>
      </trkpt>
      <trkpt lat="40.711234286427498" lon="13.94869982264936">
        <ele>350.54000000000002</ele>
        <time>2018-09-24T09:22:32Z</time>
      </trkpt>
      <trkpt lat="40.71130963973701" lon="13.948810882866383">
        <ele>349.57999999999998</ele>
        <time>2018-09-24T09:22:43Z</time>
      </trkpt>
      <trkpt lat="40.7113550696522" lon="13.948884392157197">
        <ele>349.10000000000002</ele>
        <time>2018-09-24T09:22:51Z</time>
      </trkpt>
      <trkpt lat="40.711432602256536" lon="13.948991931974888">
        <ele>348.13</ele>
        <time>2018-09-24T09:23:02Z</time>
      </trkpt>
      <trkpt lat="40.711489347741008" lon="13.949089078232646">
        <ele>347.64999999999998</ele>
        <time>2018-09-24T09:23:12Z</time>
      </trkpt>
      <trkpt lat="40.711507117375731" lon="13.94913325086236">
        <ele>347.17000000000002</ele>
        <time>2018-09-24T09:23:18Z</time>
      </trkpt>
      <trkpt lat="40.711554475128651" lon="13.949246322736144">
        <ele>346.20999999999998</ele>
        <time>2018-09-24T09:23:29Z</time>
      </trkpt>
      <trkpt lat="40.711593283340335" lon="13.94937071017921">
        <ele>345.25</ele>
        <time>2018-09-24T09:23:42Z</time>
      </trkpt>
      <trkpt lat="40.711553050205112" lon="13.949482105672359">
        <ele>344.29000000000002</ele>
        <time>2018-09-24T09:23:54Z</time>
      </trkpt>
      <trkpt lat="40.711544333025813" lon="13.949598697945476">
        <ele>342.37</ele>
        <time>2018-09-24T09:24:05Z</time>
      </trkpt>
      <trkpt lat="40.711576687172055" lon="13.949664579704404">
        <ele>341.88999999999999</ele>
        <time>2018-09-24T09:24:11Z</time>
      </trkpt>
      <trkpt lat="40.711644999682903" lon="13.949759043753147">
        <ele>340.92000000000002</ele>
        <time>2018-09-24T09:24:24Z</time>
      </trkpt>
      <trkpt lat="40.711711551994085" lon="13.949818052351475">
        <ele>339.95999999999998</ele>
        <time>2018-09-24T09:24:36Z</time>
      </trkpt>
      <trkpt lat="40.71183979511261" lon="13.949888292700052">
        <ele>338.04000000000002</ele>
        <time>2018-09-24T09:24:51Z</time>
      </trkpt>
      <trkpt lat="40.71189989335835" lon="13.949927352368832">
        <ele>338.04000000000002</ele>
        <time>2018-09-24T09:25:03Z</time>
      </trkpt>
      <trkpt lat="40.711909029632807" lon="13.949940595775843">
        <ele>338.04000000000002</ele>
        <time>2018-09-24T09:25:15Z</time>
      </trkpt>
      <trkpt lat="40.711923949420452" lon="13.949939925223589">
        <ele>337.56</ele>
        <time>2018-09-24T09:25:34Z</time>
      </trkpt>
      <trkpt lat="40.711931744590402" lon="13.949961299076676">
        <ele>337.56</ele>
        <time>2018-09-24T09:25:50Z</time>
      </trkpt>
      <trkpt lat="40.711917076259851" lon="13.949960544705391">
        <ele>337.56</ele>
        <time>2018-09-24T09:26:05Z</time>
      </trkpt>
      <trkpt lat="40.711896205320954" lon="13.949989881366491">
        <ele>337.56</ele>
        <time>2018-09-24T09:26:21Z</time>
      </trkpt>
      <trkpt lat="40.711912214756012" lon="13.949973788112402">
        <ele>337.56</ele>
        <time>2018-09-24T09:26:36Z</time>
      </trkpt>
      <trkpt lat="40.711902575567365" lon="13.949983511120081">
        <ele>337.56</ele>
        <time>2018-09-24T09:26:51Z</time>
      </trkpt>
      <trkpt lat="40.711912214756012" lon="13.95002843812108">
        <ele>338.51999999999998</ele>
        <time>2018-09-24T09:27:01Z</time>
      </trkpt>
      <trkpt lat="40.711966697126627" lon="13.950095074251294">
        <ele>339.48000000000002</ele>
        <time>2018-09-24T09:27:12Z</time>
      </trkpt>
      <trkpt lat="40.711999302729964" lon="13.950167829170823">
        <ele>340.44</ele>
        <time>2018-09-24T09:27:23Z</time>
      </trkpt>
      <trkpt lat="40.712022185325623" lon="13.950211079791188">
        <ele>340.92000000000002</ele>
        <time>2018-09-24T09:27:33Z</time>
      </trkpt>
      <trkpt lat="40.712066693231463" lon="13.950357427820563">
        <ele>343.32999999999998</ele>
        <time>2018-09-24T09:27:47Z</time>
      </trkpt>
      <trkpt lat="40.712123438715935" lon="13.950484246015549">
        <ele>343.81</ele>
        <time>2018-09-24T09:28:01Z</time>
      </trkpt>
      <trkpt lat="40.712185129523277" lon="13.950622966513038">
        <ele>344.29000000000002</ele>
        <time>2018-09-24T09:28:15Z</time>
      </trkpt>
      <trkpt lat="40.712238857522607" lon="13.950795466080308">
        <ele>343.32999999999998</ele>
        <time>2018-09-24T09:28:28Z</time>
      </trkpt>
      <trkpt lat="40.712317563593388" lon="13.950872495770454">
        <ele>342.37</ele>
        <time>2018-09-24T09:28:40Z</time>
      </trkpt>
      <trkpt lat="40.712369866669178" lon="13.950919853523374">
        <ele>340.92000000000002</ele>
        <time>2018-09-24T09:28:52Z</time>
      </trkpt>
      <trkpt lat="40.712388893589377" lon="13.950934857130051">
        <ele>340.44</ele>
        <time>2018-09-24T09:28:58Z</time>
      </trkpt>
      <trkpt lat="40.712374895811081" lon="13.950998643413186">
        <ele>339.48000000000002</ele>
        <time>2018-09-24T09:29:08Z</time>
      </trkpt>
      <trkpt lat="40.712315887212753" lon="13.951067375019193">
        <ele>337.07999999999998</ele>
        <time>2018-09-24T09:29:20Z</time>
      </trkpt>
      <trkpt lat="40.712282527238131" lon="13.951126299798489">
        <ele>335.16000000000003</ele>
        <time>2018-09-24T09:29:30Z</time>
      </trkpt>
      <trkpt lat="40.712242545560002" lon="13.951174831017852">
        <ele>333.23000000000002</ele>
        <time>2018-09-24T09:29:40Z</time>
      </trkpt>
      <trkpt lat="40.712180184200406" lon="13.951222021132708">
        <ele>331.31</ele>
        <time>2018-09-24T09:29:51Z</time>
      </trkpt>
      <trkpt lat="40.712152607738972" lon="13.951253956183791">
        <ele>328.91000000000003</ele>
        <time>2018-09-24T09:30:00Z</time>
      </trkpt>
      <trkpt lat="40.712076248601079" lon="13.95128857344389">
        <ele>326.99000000000001</ele>
        <time>2018-09-24T09:30:12Z</time>
      </trkpt>
      <trkpt lat="40.712020928040147" lon="13.951318161562085">
        <ele>324.57999999999998</ele>
        <time>2018-09-24T09:30:25Z</time>
      </trkpt>
      <trkpt lat="40.711931241676211" lon="13.951334254816175">
        <ele>322.66000000000003</ele>
        <time>2018-09-24T09:30:37Z</time>
      </trkpt>
      <trkpt lat="40.711872233077884" lon="13.951344816014171">
        <ele>320.74000000000001</ele>
        <time>2018-09-24T09:30:50Z</time>
      </trkpt>
      <trkpt lat="40.711788246408105" lon="13.951406925916672">
        <ele>319.30000000000001</ele>
        <time>2018-09-24T09:31:01Z</time>
      </trkpt>
      <trkpt lat="40.711734686046839" lon="13.951518489047885">
        <ele>317.37</ele>
        <time>2018-09-24T09:31:13Z</time>
      </trkpt>
      <trkpt lat="40.711690932512283" lon="13.951650084927678">
        <ele>316.41000000000003</ele>
        <time>2018-09-24T09:31:25Z</time>
      </trkpt>
      <trkpt lat="40.711694536730647" lon="13.951716301962733">
        <ele>315.93000000000001</ele>
        <time>2018-09-24T09:31:31Z</time>
      </trkpt>
      <trkpt lat="40.71175673045218" lon="13.95184320397675">
        <ele>315.44999999999999</ele>
        <time>2018-09-24T09:31:44Z</time>
      </trkpt>
      <trkpt lat="40.711804758757353" lon="13.951901206746697">
        <ele>314.97000000000003</ele>
        <time>2018-09-24T09:31:52Z</time>
      </trkpt>
      <trkpt lat="40.711896037682891" lon="13.95201712846756">
        <ele>314.00999999999999</ele>
        <time>2018-09-24T09:32:05Z</time>
      </trkpt>
      <trkpt lat="40.711971055716276" lon="13.952125674113631">
        <ele>314.97000000000003</ele>
        <time>2018-09-24T09:32:17Z</time>
      </trkpt>
      <trkpt lat="40.711998045444489" lon="13.95221259444952">
        <ele>314.97000000000003</ele>
        <time>2018-09-24T09:32:23Z</time>
      </trkpt>
      <trkpt lat="40.712106255814433" lon="13.952291635796428">
        <ele>315.44999999999999</ele>
        <time>2018-09-24T09:32:34Z</time>
      </trkpt>
      <trkpt lat="40.712127964943647" lon="13.952297754585743">
        <ele>315.44999999999999</ele>
        <time>2018-09-24T09:32:36Z</time>
      </trkpt>
      <trkpt lat="40.712167946621776" lon="13.952337317168713">
        <ele>315.44999999999999</ele>
        <time>2018-09-24T09:32:40Z</time>
      </trkpt>
      <trkpt lat="40.712284371256828" lon="13.952489113435149">
        <ele>315.44999999999999</ele>
        <time>2018-09-24T09:32:54Z</time>
      </trkpt>
      <trkpt lat="40.712352767586708" lon="13.952602436766028">
        <ele>315.44999999999999</ele>
        <time>2018-09-24T09:33:04Z</time>
      </trkpt>
      <trkpt lat="40.712433652952313" lon="13.952687093988061">
        <ele>315.93000000000001</ele>
        <time>2018-09-24T09:33:16Z</time>
      </trkpt>
      <trkpt lat="40.712520154193044" lon="13.952821958810091">
        <ele>316.41000000000003</ele>
        <time>2018-09-24T09:33:29Z</time>
      </trkpt>
      <trkpt lat="40.712535157799721" lon="13.952838890254498">
        <ele>316.41000000000003</ele>
        <time>2018-09-24T09:33:31Z</time>
      </trkpt>
      <trkpt lat="40.712607996538281" lon="13.952921368181705">
        <ele>316.88999999999999</ele>
        <time>2018-09-24T09:33:42Z</time>
      </trkpt>
      <trkpt lat="40.712670106440783" lon="13.952990770339966">
        <ele>316.41000000000003</ele>
        <time>2018-09-24T09:33:52Z</time>
      </trkpt>
      <trkpt lat="40.712716374546289" lon="13.953031674027443">
        <ele>315.44999999999999</ele>
        <time>2018-09-24T09:34:01Z</time>
      </trkpt>
      <trkpt lat="40.712764570489526" lon="13.953079031780362">
        <ele>314.97000000000003</ele>
        <time>2018-09-24T09:34:12Z</time>
      </trkpt>
      <trkpt lat="40.712760714814067" lon="13.953131670132279">
        <ele>314.00999999999999</ele>
        <time>2018-09-24T09:34:24Z</time>
      </trkpt>
      <trkpt lat="40.712728193029761" lon="13.953195456415415">
        <ele>312.08999999999997</ele>
        <time>2018-09-24T09:34:36Z</time>
      </trkpt>
      <trkpt lat="40.712714195251465" lon="13.953242478892207">
        <ele>310.63999999999999</ele>
        <time>2018-09-24T09:34:47Z</time>
      </trkpt>
      <trkpt lat="40.712733557447791" lon="13.953282376751304">
        <ele>308.72000000000003</ele>
        <time>2018-09-24T09:34:58Z</time>
      </trkpt>
      <trkpt lat="40.712737748399377" lon="13.953339708968997">
        <ele>306.31999999999999</ele>
        <time>2018-09-24T09:35:11Z</time>
      </trkpt>
      <trkpt lat="40.712712937965989" lon="13.953399220481515">
        <ele>304.38999999999999</ele>
        <time>2018-09-24T09:35:22Z</time>
      </trkpt>
      <trkpt lat="40.712698772549629" lon="13.953473148867488">
        <ele>302.47000000000003</ele>
        <time>2018-09-24T09:35:33Z</time>
      </trkpt>
      <trkpt lat="40.712706986814737" lon="13.953564763069153">
        <ele>300.06999999999999</ele>
        <time>2018-09-24T09:35:44Z</time>
      </trkpt>
      <trkpt lat="40.712763899937272" lon="13.953583454713225">
        <ele>300.06999999999999</ele>
        <time>2018-09-24T09:35:51Z</time>
      </trkpt>
      <trkpt lat="40.712847216054797" lon="13.953541712835431">
        <ele>299.58999999999997</ele>
        <time>2018-09-24T09:36:02Z</time>
      </trkpt>
      <trkpt lat="40.712916366755962" lon="13.953529559075832">
        <ele>299.58999999999997</ele>
        <time>2018-09-24T09:36:12Z</time>
      </trkpt>
      <trkpt lat="40.71295777335763" lon="13.953525368124247">
        <ele>299.58999999999997</ele>
        <time>2018-09-24T09:36:22Z</time>
      </trkpt>
      <trkpt lat="40.713021056726575" lon="13.953545652329922">
        <ele>299.11000000000001</ele>
        <time>2018-09-24T09:36:31Z</time>
      </trkpt>
      <trkpt lat="40.713109569624066" lon="13.953580185770988">
        <ele>298.14999999999998</ele>
        <time>2018-09-24T09:36:43Z</time>
      </trkpt>
      <trkpt lat="40.71311853826046" lon="13.953598039224744">
        <ele>298.14999999999998</ele>
        <time>2018-09-24T09:36:55Z</time>
      </trkpt>
      <trkpt lat="40.713140331208706" lon="13.953627794981003">
        <ele>297.67000000000002</ele>
        <time>2018-09-24T09:37:09Z</time>
      </trkpt>
      <trkpt lat="40.713165728375316" lon="13.953699208796024">
        <ele>296.69999999999999</ele>
        <time>2018-09-24T09:37:20Z</time>
      </trkpt>
      <trkpt lat="40.713188862428069" lon="13.953711530193686">
        <ele>295.74000000000001</ele>
        <time>2018-09-24T09:37:32Z</time>
      </trkpt>
      <trkpt lat="40.713208392262459" lon="13.953736759722233">
        <ele>295.25999999999999</ele>
        <time>2018-09-24T09:37:45Z</time>
      </trkpt>
      <trkpt lat="40.713204285129905" lon="13.953753355890512">
        <ele>294.77999999999997</ele>
        <time>2018-09-24T09:38:03Z</time>
      </trkpt>
      <trkpt lat="40.713209565728903" lon="13.953773556277156">
        <ele>294.30000000000001</ele>
        <time>2018-09-24T09:38:12Z</time>
      </trkpt>
      <trkpt lat="40.7132529001683" lon="13.953806916251779">
        <ele>293.81999999999999</ele>
        <time>2018-09-24T09:38:24Z</time>
      </trkpt>
      <trkpt lat="40.713295647874475" lon="13.953813957050443">
        <ele>293.33999999999997</ele>
        <time>2018-09-24T09:38:34Z</time>
      </trkpt>
      <trkpt lat="40.713299922645092" lon="13.953840779140592">
        <ele>292.86000000000001</ele>
        <time>2018-09-24T09:38:47Z</time>
      </trkpt>
      <trkpt lat="40.713304197415709" lon="13.953860392794013">
        <ele>293.33999999999997</ele>
        <time>2018-09-24T09:39:04Z</time>
      </trkpt>
      <trkpt lat="40.713307466357946" lon="13.953865924850106">
        <ele>293.33999999999997</ele>
        <time>2018-09-24T09:39:07Z</time>
      </trkpt>
      <trkpt lat="40.71329690515995" lon="13.953882856294513">
        <ele>292.38</ele>
        <time>2018-09-24T09:39:16Z</time>
      </trkpt>
      <trkpt lat="40.713289612904191" lon="13.953872714191675">
        <ele>291.89999999999998</ele>
        <time>2018-09-24T09:39:30Z</time>
      </trkpt>
      <trkpt lat="40.713250637054443" lon="13.95386315882206">
        <ele>290.45999999999998</ele>
        <time>2018-09-24T09:39:42Z</time>
      </trkpt>
      <trkpt lat="40.713235717266798" lon="13.953864919021726">
        <ele>289.97000000000003</ele>
        <time>2018-09-24T09:39:52Z</time>
      </trkpt>
      <trkpt lat="40.713237142190337" lon="13.953877743333578">
        <ele>289.49000000000001</ele>
        <time>2018-09-24T09:39:55Z</time>
      </trkpt>
      <trkpt lat="40.713184168562293" lon="13.953929375857115">
        <ele>286.61000000000001</ele>
        <time>2018-09-24T09:40:03Z</time>
      </trkpt>
      <trkpt lat="40.713137062266469" lon="13.953925017267466">
        <ele>285.17000000000002</ele>
        <time>2018-09-24T09:40:14Z</time>
      </trkpt>
      <trkpt lat="40.713088279590011" lon="13.95393792539835">
        <ele>283.73000000000002</ele>
        <time>2018-09-24T09:40:26Z</time>
      </trkpt>
      <trkpt lat="40.713092302903533" lon="13.954012440517545">
        <ele>280.83999999999997</ele>
        <time>2018-09-24T09:40:37Z</time>
      </trkpt>
      <trkpt lat="40.713007561862469" lon="13.953968603163958">
        <ele>279.39999999999998</ele>
        <time>2018-09-24T09:40:44Z</time>
      </trkpt>
      <trkpt lat="40.712887197732925" lon="13.95402492955327">
        <ele>276.51999999999998</ele>
        <time>2018-09-24T09:40:55Z</time>
      </trkpt>
      <trkpt lat="40.712832044810057" lon="13.954060971736908">
        <ele>275.56</ele>
        <time>2018-09-24T09:41:05Z</time>
      </trkpt>
      <trkpt lat="40.712831960991025" lon="13.954061223194003">
        <ele>275.56</ele>
        <time>2018-09-24T09:41:16Z</time>
      </trkpt>
      <trkpt lat="40.712824501097202" lon="13.954060887917876">
        <ele>275.56</ele>
        <time>2018-09-24T09:41:36Z</time>
      </trkpt>
      <trkpt lat="40.712786028161645" lon="13.954085782170296">
        <ele>274.58999999999997</ele>
        <time>2018-09-24T09:41:45Z</time>
      </trkpt>
      <trkpt lat="40.712764654308558" lon="13.954094834625721">
        <ele>274.11000000000001</ele>
        <time>2018-09-24T09:41:55Z</time>
      </trkpt>
      <trkpt lat="40.712729953229427" lon="13.954126518219709">
        <ele>273.14999999999998</ele>
        <time>2018-09-24T09:42:06Z</time>
      </trkpt>
      <trkpt lat="40.712699610739946" lon="13.954125931486487">
        <ele>271.70999999999998</ele>
        <time>2018-09-24T09:42:15Z</time>
      </trkpt>
      <trkpt lat="40.712667927145958" lon="13.954167757183313">
        <ele>269.31</ele>
        <time>2018-09-24T09:42:26Z</time>
      </trkpt>
      <trkpt lat="40.712632304057479" lon="13.954210001975298">
        <ele>267.38</ele>
        <time>2018-09-24T09:42:36Z</time>
      </trkpt>
      <trkpt lat="40.712596429511905" lon="13.954239506274462">
        <ele>265.94</ele>
        <time>2018-09-24T09:42:48Z</time>
      </trkpt>
      <trkpt lat="40.712541025131941" lon="13.954355847090483">
        <ele>263.06</ele>
        <time>2018-09-24T09:43:03Z</time>
      </trkpt>
      <trkpt lat="40.712510934099555" lon="13.954427512362599">
        <ele>260.64999999999998</ele>
        <time>2018-09-24T09:43:15Z</time>
      </trkpt>
      <trkpt lat="40.712474975734949" lon="13.954457519575953">
        <ele>259.20999999999998</ele>
        <time>2018-09-24T09:43:26Z</time>
      </trkpt>
      <trkpt lat="40.712428037077188" lon="13.954502698034048">
        <ele>257.76999999999998</ele>
        <time>2018-09-24T09:43:39Z</time>
      </trkpt>
      <trkpt lat="40.71239878423512" lon="13.954596659168601">
        <ele>254.41</ele>
        <time>2018-09-24T09:43:51Z</time>
      </trkpt>
      <trkpt lat="40.71235042065382" lon="13.954639658331871">
        <ele>252</ele>
        <time>2018-09-24T09:44:02Z</time>
      </trkpt>
      <trkpt lat="40.712319742888212" lon="13.954711658880115">
        <ele>249.59999999999999</ele>
        <time>2018-09-24T09:44:16Z</time>
      </trkpt>
      <trkpt lat="40.712325191125274" lon="13.954760441556573">
        <ele>248.16</ele>
        <time>2018-09-24T09:44:28Z</time>
      </trkpt>
      <trkpt lat="40.712272636592388" lon="13.954786844551563">
        <ele>248.63999999999999</ele>
        <time>2018-09-24T09:44:40Z</time>
      </trkpt>
      <trkpt lat="40.712282108142972" lon="13.954775109887123">
        <ele>248.63999999999999</ele>
        <time>2018-09-24T09:44:54Z</time>
      </trkpt>
      <trkpt lat="40.712283700704575" lon="13.954779133200645">
        <ele>248.63999999999999</ele>
        <time>2018-09-24T09:45:06Z</time>
      </trkpt>
      <trkpt lat="40.71228495799005" lon="13.954775361344218">
        <ele>248.63999999999999</ele>
        <time>2018-09-24T09:45:19Z</time>
      </trkpt>
      <trkpt lat="40.712286047637463" lon="13.954790700227022">
        <ele>248.63999999999999</ele>
        <time>2018-09-24T09:45:36Z</time>
      </trkpt>
      <trkpt lat="40.712289735674858" lon="13.954762117937207">
        <ele>247.68000000000001</ele>
        <time>2018-09-24T09:45:43Z</time>
      </trkpt>
      <trkpt lat="40.712271463125944" lon="13.954754155129194">
        <ele>247.68000000000001</ele>
        <time>2018-09-24T09:46:08Z</time>
      </trkpt>
      <trkpt lat="40.712291914969683" lon="13.95476371049881">
        <ele>248.16</ele>
        <time>2018-09-24T09:46:19Z</time>
      </trkpt>
      <trkpt lat="40.712290909141302" lon="13.954773852601647">
        <ele>248.63999999999999</ele>
        <time>2018-09-24T09:46:27Z</time>
      </trkpt>
      <trkpt lat="40.712290741503239" lon="13.954775780439377">
        <ele>248.63999999999999</ele>
        <time>2018-09-24T09:46:42Z</time>
      </trkpt>
      <trkpt lat="40.712349498644471" lon="13.954751389101148">
        <ele>248.16</ele>
        <time>2018-09-24T09:46:55Z</time>
      </trkpt>
      <trkpt lat="40.712432479485869" lon="13.954761195927858">
        <ele>246.22999999999999</ele>
        <time>2018-09-24T09:47:08Z</time>
      </trkpt>
      <trkpt lat="40.712522752583027" lon="13.95473781041801">
        <ele>244.31</ele>
        <time>2018-09-24T09:47:21Z</time>
      </trkpt>
      <trkpt lat="40.712618222460151" lon="13.954748706892133">
        <ele>241.91</ele>
        <time>2018-09-24T09:47:33Z</time>
      </trkpt>
      <trkpt lat="40.712679410353303" lon="13.954693134874105">
        <ele>240.47</ele>
        <time>2018-09-24T09:47:46Z</time>
      </trkpt>
      <trkpt lat="40.712744873017073" lon="13.954678634181619">
        <ele>239.50999999999999</ele>
        <time>2018-09-24T09:47:59Z</time>
      </trkpt>
      <trkpt lat="40.712750907987356" lon="13.954719454050064">
        <ele>238.53999999999999</ele>
        <time>2018-09-24T09:48:11Z</time>
      </trkpt>
      <trkpt lat="40.712749902158976" lon="13.954723058268428">
        <ele>238.53999999999999</ele>
        <time>2018-09-24T09:48:12Z</time>
      </trkpt>
      <trkpt lat="40.712717212736607" lon="13.954728506505489">
        <ele>237.09999999999999</ele>
        <time>2018-09-24T09:48:19Z</time>
      </trkpt>
      <trkpt lat="40.712715284898877" lon="13.954728757962584">
        <ele>236.62</ele>
        <time>2018-09-24T09:48:30Z</time>
      </trkpt>
      <trkpt lat="40.712718805298209" lon="13.954715514555573">
        <ele>236.62</ele>
        <time>2018-09-24T09:48:56Z</time>
      </trkpt>
      <trkpt lat="40.712716290727258" lon="13.954701432958245">
        <ele>236.13999999999999</ele>
        <time>2018-09-24T09:49:20Z</time>
      </trkpt>
      <trkpt lat="40.712704472243786" lon="13.954687602818012">
        <ele>236.13999999999999</ele>
        <time>2018-09-24T09:49:43Z</time>
      </trkpt>
      <trkpt lat="40.712700197473168" lon="13.954704450443387">
        <ele>236.13999999999999</ele>
        <time>2018-09-24T09:50:03Z</time>
      </trkpt>
      <trkpt lat="40.712703131139278" lon="13.954701600596309">
        <ele>236.13999999999999</ele>
        <time>2018-09-24T09:50:28Z</time>
      </trkpt>
      <trkpt lat="40.712676309049129" lon="13.954720962792635">
        <ele>236.62</ele>
        <time>2018-09-24T09:50:51Z</time>
      </trkpt>
      <trkpt lat="40.712711848318577" lon="13.954704953357577">
        <ele>236.62</ele>
        <time>2018-09-24T09:51:17Z</time>
      </trkpt>
      <trkpt lat="40.712708830833435" lon="13.954707216471434">
        <ele>236.62</ele>
        <time>2018-09-24T09:51:41Z</time>
      </trkpt>
      <trkpt lat="40.712727773934603" lon="13.954722303897142">
        <ele>237.09999999999999</ele>
        <time>2018-09-24T09:52:04Z</time>
      </trkpt>
      <trkpt lat="40.712688965722919" lon="13.954710988327861">
        <ele>237.09999999999999</ele>
        <time>2018-09-24T09:52:33Z</time>
      </trkpt>
      <trkpt lat="40.712706232443452" lon="13.95475298166275">
        <ele>237.09999999999999</ele>
        <time>2018-09-24T09:52:57Z</time>
      </trkpt>
      <trkpt lat="40.712701957672834" lon="13.954755663871765">
        <ele>237.09999999999999</ele>
        <time>2018-09-24T09:53:17Z</time>
      </trkpt>
      <trkpt lat="40.712713859975338" lon="13.954783324152231">
        <ele>237.09999999999999</ele>
        <time>2018-09-24T09:53:38Z</time>
      </trkpt>
      <trkpt lat="40.712692905217409" lon="13.954696236178279">
        <ele>237.58000000000001</ele>
        <time>2018-09-24T09:53:56Z</time>
      </trkpt>
      <trkpt lat="40.712679326534271" lon="13.954673353582621">
        <ele>237.58000000000001</ele>
        <time>2018-09-24T09:54:12Z</time>
      </trkpt>
      <trkpt lat="40.712734395638108" lon="13.954755663871765">
        <ele>237.58000000000001</ele>
        <time>2018-09-24T09:54:28Z</time>
      </trkpt>
      <trkpt lat="40.712671028450131" lon="13.954709731042385">
        <ele>237.58000000000001</ele>
        <time>2018-09-24T09:54:54Z</time>
      </trkpt>
      <trkpt lat="40.712677733972669" lon="13.954702187329531">
        <ele>237.58000000000001</ele>
        <time>2018-09-24T09:55:15Z</time>
      </trkpt>
      <trkpt lat="40.712700700387359" lon="13.954734373837709">
        <ele>237.58000000000001</ele>
        <time>2018-09-24T09:55:40Z</time>
      </trkpt>
      <trkpt lat="40.712716290727258" lon="13.954708054661751">
        <ele>237.58000000000001</ele>
        <time>2018-09-24T09:56:03Z</time>
      </trkpt>
      <trkpt lat="40.712682092562318" lon="13.954707803204656">
        <ele>237.58000000000001</ele>
        <time>2018-09-24T09:56:29Z</time>
      </trkpt>
      <trkpt lat="40.71270078420639" lon="13.954690368846059">
        <ele>237.09999999999999</ele>
        <time>2018-09-24T09:56:50Z</time>
      </trkpt>
      <trkpt lat="40.712694497779012" lon="13.954715682193637">
        <ele>237.58000000000001</ele>
        <time>2018-09-24T09:57:11Z</time>
      </trkpt>
      <trkpt lat="40.712714279070497" lon="13.954716520383954">
        <ele>237.09999999999999</ele>
        <time>2018-09-24T09:57:28Z</time>
      </trkpt>
      <trkpt lat="40.71271394379437" lon="13.954749125987291">
        <ele>237.58000000000001</ele>
        <time>2018-09-24T09:57:48Z</time>
      </trkpt>
      <trkpt lat="40.712721906602383" lon="13.954738983884454">
        <ele>238.06</ele>
        <time>2018-09-24T09:57:56Z</time>
      </trkpt>
      <trkpt lat="40.712712518870831" lon="13.954714508727193">
        <ele>238.06</ele>
        <time>2018-09-24T09:58:08Z</time>
      </trkpt>
      <trkpt lat="40.71272324770689" lon="13.954735798761249">
        <ele>239.02000000000001</ele>
        <time>2018-09-24T09:58:27Z</time>
      </trkpt>
      <trkpt lat="40.71273791603744" lon="13.954739235341549">
        <ele>238.06</ele>
        <time>2018-09-24T09:58:48Z</time>
      </trkpt>
      <trkpt lat="40.71272861212492" lon="13.954708557575941">
        <ele>237.58000000000001</ele>
        <time>2018-09-24T09:59:02Z</time>
      </trkpt>
      <trkpt lat="40.71275694295764" lon="13.954731021076441">
        <ele>238.06</ele>
        <time>2018-09-24T09:59:16Z</time>
      </trkpt>
      <trkpt lat="40.712747722864151" lon="13.95472900941968">
        <ele>238.06</ele>
        <time>2018-09-24T09:59:41Z</time>
      </trkpt>
      <trkpt lat="40.712735820561647" lon="13.954736385494471">
        <ele>238.53999999999999</ele>
        <time>2018-09-24T10:00:03Z</time>
      </trkpt>
      <trkpt lat="40.712725762277842" lon="13.954716520383954">
        <ele>238.06</ele>
        <time>2018-09-24T10:00:17Z</time>
      </trkpt>
      <trkpt lat="40.712738586589694" lon="13.954722471535206">
        <ele>237.58000000000001</ele>
        <time>2018-09-24T10:00:35Z</time>
      </trkpt>
      <trkpt lat="40.712689133360982" lon="13.954722052440047">
        <ele>237.58000000000001</ele>
        <time>2018-09-24T10:00:49Z</time>
      </trkpt>
      <trkpt lat="40.712684942409396" lon="13.954710317775607">
        <ele>238.06</ele>
        <time>2018-09-24T10:01:03Z</time>
      </trkpt>
      <trkpt lat="40.712730539962649" lon="13.954737056046724">
        <ele>238.06</ele>
        <time>2018-09-24T10:01:19Z</time>
      </trkpt>
      <trkpt lat="40.712737077847123" lon="13.954731104895473">
        <ele>237.58000000000001</ele>
        <time>2018-09-24T10:01:36Z</time>
      </trkpt>
      <trkpt lat="40.712743112817407" lon="13.954713838174939">
        <ele>238.53999999999999</ele>
        <time>2018-09-24T10:01:53Z</time>
      </trkpt>
      <trkpt lat="40.712745878845453" lon="13.954710736870766">
        <ele>238.53999999999999</ele>
        <time>2018-09-24T10:02:09Z</time>
      </trkpt>
      <trkpt lat="40.712744956836104" lon="13.954733032733202">
        <ele>238.53999999999999</ele>
        <time>2018-09-24T10:02:20Z</time>
      </trkpt>
      <trkpt lat="40.71276088245213" lon="13.95473194308579">
        <ele>238.53999999999999</ele>
        <time>2018-09-24T10:02:43Z</time>
      </trkpt>
      <trkpt lat="40.712745459750295" lon="13.954752730205655">
        <ele>238.53999999999999</ele>
        <time>2018-09-24T10:03:03Z</time>
      </trkpt>
      <trkpt lat="40.712730372324586" lon="13.954750467091799">
        <ele>238.06</ele>
        <time>2018-09-24T10:03:19Z</time>
      </trkpt>
      <trkpt lat="40.712735233828425" lon="13.954736385494471">
        <ele>238.53999999999999</ele>
        <time>2018-09-24T10:03:39Z</time>
      </trkpt>
      <trkpt lat="40.712737496942282" lon="13.954737978056073">
        <ele>238.53999999999999</ele>
        <time>2018-09-24T10:03:59Z</time>
      </trkpt>
      <trkpt lat="40.712706735357642" lon="13.954727752134204">
        <ele>239.02000000000001</ele>
        <time>2018-09-24T10:04:15Z</time>
      </trkpt>
      <trkpt lat="40.712733808904886" lon="13.9547158498317">
        <ele>239.02000000000001</ele>
        <time>2018-09-24T10:04:35Z</time>
      </trkpt>
      <trkpt lat="40.712736742570996" lon="13.954715095460415">
        <ele>239.02000000000001</ele>
        <time>2018-09-24T10:04:58Z</time>
      </trkpt>
      <trkpt lat="40.712749985978007" lon="13.95473588258028">
        <ele>238.53999999999999</ele>
        <time>2018-09-24T10:05:09Z</time>
      </trkpt>
      <trkpt lat="40.712713776156306" lon="13.954733200371265">
        <ele>239.02000000000001</ele>
        <time>2018-09-24T10:05:30Z</time>
      </trkpt>
      <trkpt lat="40.712726432830095" lon="13.95473881624639">
        <ele>239.02000000000001</ele>
        <time>2018-09-24T10:05:50Z</time>
      </trkpt>
      <trkpt lat="40.712749734520912" lon="13.954740995541215">
        <ele>239.02000000000001</ele>
        <time>2018-09-24T10:06:04Z</time>
      </trkpt>
      <trkpt lat="40.712761888280511" lon="13.954715179279447">
        <ele>239.02000000000001</ele>
        <time>2018-09-24T10:06:23Z</time>
      </trkpt>
      <trkpt lat="40.712732886895537" lon="13.954707300290465">
        <ele>238.53999999999999</ele>
        <time>2018-09-24T10:06:49Z</time>
      </trkpt>
      <trkpt lat="40.712753422558308" lon="13.954747868701816">
        <ele>238.53999999999999</ele>
        <time>2018-09-24T10:07:10Z</time>
      </trkpt>
      <trkpt lat="40.712588215246797" lon="13.954854486510158">
        <ele>238.53999999999999</ele>
        <time>2018-09-24T10:07:45Z</time>
      </trkpt>
      <trkpt lat="40.712758954614401" lon="13.954704282805324">
        <ele>238.06</ele>
        <time>2018-09-24T10:08:02Z</time>
      </trkpt>
      <trkpt lat="40.712754931300879" lon="13.954712497070432">
        <ele>238.06</ele>
        <time>2018-09-24T10:08:16Z</time>
      </trkpt>
      <trkpt lat="40.712765660136938" lon="13.95472020842135">
        <ele>238.53999999999999</ele>
        <time>2018-09-24T10:08:28Z</time>
      </trkpt>
      <trkpt lat="40.712744202464819" lon="13.954721884801984">
        <ele>238.53999999999999</ele>
        <time>2018-09-24T10:08:47Z</time>
      </trkpt>
      <trkpt lat="40.712779490277171" lon="13.954719370231032">
        <ele>238.53999999999999</ele>
        <time>2018-09-24T10:09:08Z</time>
      </trkpt>
      <trkpt lat="40.712750488892198" lon="13.95469824783504">
        <ele>238.53999999999999</ele>
        <time>2018-09-24T10:09:31Z</time>
      </trkpt>
      <trkpt lat="40.712763145565987" lon="13.954723477363586">
        <ele>238.06</ele>
        <time>2018-09-24T10:09:52Z</time>
      </trkpt>
      <trkpt lat="40.712754763662815" lon="13.954762453213334">
        <ele>238.06</ele>
        <time>2018-09-24T10:10:13Z</time>
      </trkpt>
      <trkpt lat="40.712766330689192" lon="13.954729344695807">
        <ele>238.53999999999999</ele>
        <time>2018-09-24T10:10:34Z</time>
      </trkpt>
      <trkpt lat="40.712745543569326" lon="13.954760441556573">
        <ele>238.06</ele>
        <time>2018-09-24T10:10:52Z</time>
      </trkpt>
      <trkpt lat="40.712741436436772" lon="13.954711994156241">
        <ele>238.53999999999999</ele>
        <time>2018-09-24T10:11:12Z</time>
      </trkpt>
      <trkpt lat="40.712760798633099" lon="13.954698918387294">
        <ele>238.53999999999999</ele>
        <time>2018-09-24T10:11:28Z</time>
      </trkpt>
      <trkpt lat="40.712767085060477" lon="13.95470604300499">
        <ele>238.53999999999999</ele>
        <time>2018-09-24T10:11:54Z</time>
      </trkpt>
      <trkpt lat="40.712754931300879" lon="13.954710485413671">
        <ele>238.06</ele>
        <time>2018-09-24T10:12:18Z</time>
      </trkpt>
      <trkpt lat="40.712744873017073" lon="13.954718029126525">
        <ele>238.06</ele>
        <time>2018-09-24T10:12:41Z</time>
      </trkpt>
      <trkpt lat="40.712743112817407" lon="13.954710988327861">
        <ele>238.06</ele>
        <time>2018-09-24T10:13:02Z</time>
      </trkpt>
      <trkpt lat="40.712752919644117" lon="13.954722471535206">
        <ele>238.06</ele>
        <time>2018-09-24T10:13:19Z</time>
      </trkpt>
      <trkpt lat="40.712737077847123" lon="13.954762369394302">
        <ele>238.06</ele>
        <time>2018-09-24T10:13:45Z</time>
      </trkpt>
      <trkpt lat="40.712745292112231" lon="13.954757172614336">
        <ele>238.06</ele>
        <time>2018-09-24T10:14:06Z</time>
      </trkpt>
      <trkpt lat="40.712740011513233" lon="13.954769410192966">
        <ele>238.53999999999999</ele>
        <time>2018-09-24T10:14:21Z</time>
      </trkpt>
      <trkpt lat="40.712748058140278" lon="13.954768655821681">
        <ele>238.06</ele>
        <time>2018-09-24T10:14:44Z</time>
      </trkpt>
      <trkpt lat="40.712753506377339" lon="13.954742085188627">
        <ele>238.53999999999999</ele>
        <time>2018-09-24T10:15:01Z</time>
      </trkpt>
      <trkpt lat="40.712749231606722" lon="13.954742839559913">
        <ele>238.53999999999999</ele>
        <time>2018-09-24T10:15:21Z</time>
      </trkpt>
      <trkpt lat="40.712730539962649" lon="13.954700762405992">
        <ele>238.53999999999999</ele>
        <time>2018-09-24T10:15:39Z</time>
      </trkpt>
      <trkpt lat="40.712753338739276" lon="13.954749796539545">
        <ele>239.02000000000001</ele>
        <time>2018-09-24T10:15:59Z</time>
      </trkpt>
      <trkpt lat="40.71274621412158" lon="13.954738061875105">
        <ele>238.53999999999999</ele>
        <time>2018-09-24T10:16:17Z</time>
      </trkpt>
      <trkpt lat="40.712742609903216" lon="13.954715179279447">
        <ele>238.53999999999999</ele>
        <time>2018-09-24T10:16:32Z</time>
      </trkpt>
      <trkpt lat="40.712764067575336" lon="13.954700343310833">
        <ele>238.53999999999999</ele>
        <time>2018-09-24T10:16:47Z</time>
      </trkpt>
      <trkpt lat="40.712785692885518" lon="13.954694559797645">
        <ele>238.53999999999999</ele>
        <time>2018-09-24T10:16:59Z</time>
      </trkpt>
      <trkpt lat="40.712855011224747" lon="13.954737307503819">
        <ele>238.53999999999999</ele>
        <time>2018-09-24T10:17:11Z</time>
      </trkpt>
      <trkpt lat="40.712939500808716" lon="13.954747281968594">
        <ele>238.06</ele>
        <time>2018-09-24T10:17:22Z</time>
      </trkpt>
      <trkpt lat="40.713020302355289" lon="13.954741582274437">
        <ele>238.06</ele>
        <time>2018-09-24T10:17:33Z</time>
      </trkpt>
      <trkpt lat="40.713056763634086" lon="13.954760106280446">
        <ele>237.09999999999999</ele>
        <time>2018-09-24T10:17:45Z</time>
      </trkpt>
      <trkpt lat="40.713120466098189" lon="13.954802351072431">
        <ele>236.62</ele>
        <time>2018-09-24T10:17:56Z</time>
      </trkpt>
      <trkpt lat="40.713202776387334" lon="13.954819869250059">
        <ele>236.13999999999999</ele>
        <time>2018-09-24T10:18:06Z</time>
      </trkpt>
      <trkpt lat="40.713209481909871" lon="13.954853732138872">
        <ele>236.62</ele>
        <time>2018-09-24T10:18:13Z</time>
      </trkpt>
      <trkpt lat="40.713218869641423" lon="13.954848870635033">
        <ele>236.62</ele>
        <time>2018-09-24T10:18:22Z</time>
      </trkpt>
      <trkpt lat="40.713328840211034" lon="13.954961020499468">
        <ele>236.13999999999999</ele>
        <time>2018-09-24T10:18:34Z</time>
      </trkpt>
      <trkpt lat="40.713432775810361" lon="13.955142488703132">
        <ele>235.66</ele>
        <time>2018-09-24T10:18:48Z</time>
      </trkpt>
      <trkpt lat="40.713518857955933" lon="13.955257991328835">
        <ele>236.13999999999999</ele>
        <time>2018-09-24T10:19:01Z</time>
      </trkpt>
      <trkpt lat="40.713519025593996" lon="13.955461252480745">
        <ele>235.18000000000001</ele>
        <time>2018-09-24T10:19:14Z</time>
      </trkpt>
      <trkpt lat="40.713628828525543" lon="13.955613635480404">
        <ele>234.22</ele>
        <time>2018-09-24T10:19:27Z</time>
      </trkpt>
      <trkpt lat="40.713634695857763" lon="13.955618245527148">
        <ele>234.22</ele>
        <time>2018-09-24T10:19:28Z</time>
      </trkpt>
      <trkpt lat="40.713747180998325" lon="13.95566375926137">
        <ele>232.30000000000001</ele>
        <time>2018-09-24T10:19:39Z</time>
      </trkpt>
      <trkpt lat="40.713765537366271" lon="13.95574489608407">
        <ele>231.33000000000001</ele>
        <time>2018-09-24T10:19:48Z</time>
      </trkpt>
      <trkpt lat="40.713764615356922" lon="13.955776076763868">
        <ele>230.84999999999999</ele>
        <time>2018-09-24T10:20:02Z</time>
      </trkpt>
      <trkpt lat="40.713779535144567" lon="13.955815220251679">
        <ele>231.33000000000001</ele>
        <time>2018-09-24T10:20:15Z</time>
      </trkpt>
      <trkpt lat="40.71379579603672" lon="13.955839863047004">
        <ele>231.33000000000001</ele>
        <time>2018-09-24T10:20:28Z</time>
      </trkpt>
      <trkpt lat="40.71385539136827" lon="13.955890405923128">
        <ele>232.78</ele>
        <time>2018-09-24T10:20:38Z</time>
      </trkpt>
      <trkpt lat="40.713849775493145" lon="13.955907337367535">
        <ele>231.33000000000001</ele>
        <time>2018-09-24T10:20:53Z</time>
      </trkpt>
      <trkpt lat="40.713873244822025" lon="13.955935081467032">
        <ele>230.37</ele>
        <time>2018-09-24T10:21:06Z</time>
      </trkpt>
      <trkpt lat="40.713900066912174" lon="13.956052931025624">
        <ele>229.88999999999999</ele>
        <time>2018-09-24T10:21:17Z</time>
      </trkpt>
      <trkpt lat="40.713844997808337" lon="13.956121075898409">
        <ele>229.88999999999999</ele>
        <time>2018-09-24T10:21:25Z</time>
      </trkpt>
      <trkpt lat="40.713833766058087" lon="13.956286869943142">
        <ele>229.41</ele>
        <time>2018-09-24T10:21:39Z</time>
      </trkpt>
      <trkpt lat="40.713837873190641" lon="13.956390973180532">
        <ele>228.44999999999999</ele>
        <time>2018-09-24T10:21:50Z</time>
      </trkpt>
      <trkpt lat="40.713813649490476" lon="13.956439672037959">
        <ele>228.44999999999999</ele>
        <time>2018-09-24T10:22:00Z</time>
      </trkpt>
      <trkpt lat="40.713795460760593" lon="13.956550816074014">
        <ele>228.93000000000001</ele>
        <time>2018-09-24T10:22:12Z</time>
      </trkpt>
      <trkpt lat="40.713758999481797" lon="13.956669755280018">
        <ele>228.93000000000001</ele>
        <time>2018-09-24T10:22:23Z</time>
      </trkpt>
      <trkpt lat="40.713775595650077" lon="13.956776959821582">
        <ele>228.93000000000001</ele>
        <time>2018-09-24T10:22:34Z</time>
      </trkpt>
      <trkpt lat="40.713895540684462" lon="13.956968318670988">
        <ele>228.44999999999999</ele>
        <time>2018-09-24T10:22:48Z</time>
      </trkpt>
      <trkpt lat="40.713975168764591" lon="13.957106620073318">
        <ele>228.93000000000001</ele>
        <time>2018-09-24T10:23:01Z</time>
      </trkpt>
      <trkpt lat="40.714012049138546" lon="13.957077786326408">
        <ele>229.88999999999999</ele>
        <time>2018-09-24T10:23:12Z</time>
      </trkpt>
      <trkpt lat="40.714009618386626" lon="13.95717216655612">
        <ele>231.81</ele>
        <time>2018-09-24T10:23:24Z</time>
      </trkpt>
      <trkpt lat="40.714057227596641" lon="13.957287836819887">
        <ele>231.81</ele>
        <time>2018-09-24T10:23:35Z</time>
      </trkpt>
      <trkpt lat="40.714097125455737" lon="13.957371488213539">
        <ele>232.30000000000001</ele>
        <time>2018-09-24T10:23:46Z</time>
      </trkpt>
      <trkpt lat="40.714145237579942" lon="13.957434436306357">
        <ele>232.30000000000001</ele>
        <time>2018-09-24T10:23:58Z</time>
      </trkpt>
      <trkpt lat="40.714206593111157" lon="13.957505263388157">
        <ele>232.30000000000001</ele>
        <time>2018-09-24T10:24:10Z</time>
      </trkpt>
      <trkpt lat="40.714280940592289" lon="13.957575671374798">
        <ele>231.81</ele>
        <time>2018-09-24T10:24:23Z</time>
      </trkpt>
      <trkpt lat="40.71432838216424" lon="13.957639038562775">
        <ele>231.81</ele>
        <time>2018-09-24T10:24:34Z</time>
      </trkpt>
      <trkpt lat="40.714375237002969" lon="13.957784129306674">
        <ele>229.88999999999999</ele>
        <time>2018-09-24T10:24:48Z</time>
      </trkpt>
      <trkpt lat="40.714398119598627" lon="13.957812460139394">
        <ele>228.93000000000001</ele>
        <time>2018-09-24T10:24:58Z</time>
      </trkpt>
      <trkpt lat="40.714479675516486" lon="13.957887226715684">
        <ele>229.41</ele>
        <time>2018-09-24T10:25:10Z</time>
      </trkpt>
      <trkpt lat="40.714600123465061" lon="13.957963585853577">
        <ele>229.41</ele>
        <time>2018-09-24T10:25:24Z</time>
      </trkpt>
      <trkpt lat="40.714676566421986" lon="13.958081267774105">
        <ele>229.88999999999999</ele>
        <time>2018-09-24T10:25:37Z</time>
      </trkpt>
      <trkpt lat="40.714773712679744" lon="13.958187885582447">
        <ele>230.84999999999999</ele>
        <time>2018-09-24T10:25:50Z</time>
      </trkpt>
      <trkpt lat="40.714842611923814" lon="13.958228873088956">
        <ele>232.30000000000001</ele>
        <time>2018-09-24T10:25:59Z</time>
      </trkpt>
      <trkpt lat="40.714882845059037" lon="13.958286037668586">
        <ele>231.81</ele>
        <time>2018-09-24T10:26:09Z</time>
      </trkpt>
      <trkpt lat="40.714936573058367" lon="13.958379914984107">
        <ele>230.37</ele>
        <time>2018-09-24T10:26:22Z</time>
      </trkpt>
      <trkpt lat="40.71505157276988" lon="13.958468679338694">
        <ele>227.49000000000001</ele>
        <time>2018-09-24T10:26:38Z</time>
      </trkpt>
      <trkpt lat="40.715070348232985" lon="13.958427608013153">
        <ele>227.00999999999999</ele>
        <time>2018-09-24T10:26:51Z</time>
      </trkpt>
      <trkpt lat="40.715096080675721" lon="13.958421405404806">
        <ele>227.00999999999999</ele>
        <time>2018-09-24T10:26:58Z</time>
      </trkpt>
      <trkpt lat="40.715097757056355" lon="13.958411095663905">
        <ele>227.49000000000001</ele>
        <time>2018-09-24T10:27:09Z</time>
      </trkpt>
      <trkpt lat="40.715096835047007" lon="13.958411850035191">
        <ele>227.00999999999999</ele>
        <time>2018-09-24T10:27:22Z</time>
      </trkpt>
      <trkpt lat="40.715089878067374" lon="13.9584044739604">
        <ele>227.49000000000001</ele>
        <time>2018-09-24T10:27:36Z</time>
      </trkpt>
      <trkpt lat="40.715112676844001" lon="13.958367425948381">
        <ele>227.49000000000001</ele>
        <time>2018-09-24T10:27:50Z</time>
      </trkpt>
      <trkpt lat="40.715135140344501" lon="13.958340687677264">
        <ele>227.49000000000001</ele>
        <time>2018-09-24T10:27:54Z</time>
      </trkpt>
      <trkpt lat="40.715250223875046" lon="13.958258628845215">
        <ele>227.49000000000001</ele>
        <time>2018-09-24T10:28:09Z</time>
      </trkpt>
      <trkpt lat="40.715296911075711" lon="13.958221077919006">
        <ele>227.49000000000001</ele>
        <time>2018-09-24T10:28:22Z</time>
      </trkpt>
      <trkpt lat="40.715367402881384" lon="13.958230717107654">
        <ele>226.53</ele>
        <time>2018-09-24T10:28:35Z</time>
      </trkpt>
      <trkpt lat="40.715402942150831" lon="13.958273883908987">
        <ele>226.05000000000001</ele>
        <time>2018-09-24T10:28:40Z</time>
      </trkpt>
      <trkpt lat="40.715492879971862" lon="13.958337334915996">
        <ele>226.05000000000001</ele>
        <time>2018-09-24T10:28:52Z</time>
      </trkpt>
      <trkpt lat="40.715523054823279" lon="13.958378657698631">
        <ele>226.05000000000001</ele>
        <time>2018-09-24T10:28:58Z</time>
      </trkpt>
      <trkpt lat="40.715574854984879" lon="13.958547469228506">
        <ele>226.53</ele>
        <time>2018-09-24T10:29:12Z</time>
      </trkpt>
      <trkpt lat="40.715595306828618" lon="13.958659702911973">
        <ele>226.05000000000001</ele>
        <time>2018-09-24T10:29:24Z</time>
      </trkpt>
      <trkpt lat="40.715563287958503" lon="13.958731284365058">
        <ele>225.09</ele>
        <time>2018-09-24T10:29:31Z</time>
      </trkpt>
      <trkpt lat="40.715551637113094" lon="13.958830023184419">
        <ele>224.12</ele>
        <time>2018-09-24T10:29:43Z</time>
      </trkpt>
      <trkpt lat="40.715610310435295" lon="13.958956087008119">
        <ele>222.68000000000001</ele>
        <time>2018-09-24T10:29:56Z</time>
      </trkpt>
      <trkpt lat="40.71562422439456" lon="13.959021382033825">
        <ele>222.68000000000001</ele>
        <time>2018-09-24T10:30:02Z</time>
      </trkpt>
      <trkpt lat="40.715660266578197" lon="13.959063123911619">
        <ele>222.68000000000001</ele>
        <time>2018-09-24T10:30:07Z</time>
      </trkpt>
      <trkpt lat="40.715655907988548" lon="13.959079636260867">
        <ele>222.68000000000001</ele>
        <time>2018-09-24T10:30:19Z</time>
      </trkpt>
      <trkpt lat="40.71565548889339" lon="13.959102854132652">
        <ele>222.68000000000001</ele>
        <time>2018-09-24T10:30:41Z</time>
      </trkpt>
      <trkpt lat="40.715656410902739" lon="13.959113834425807">
        <ele>222.19999999999999</ele>
        <time>2018-09-24T10:31:04Z</time>
      </trkpt>
      <trkpt lat="40.715656159445643" lon="13.959099417552352">
        <ele>222.68000000000001</ele>
        <time>2018-09-24T10:31:20Z</time>
      </trkpt>
      <trkpt lat="40.715662697330117" lon="13.95908952690661">
        <ele>222.19999999999999</ele>
        <time>2018-09-24T10:31:39Z</time>
      </trkpt>
      <trkpt lat="40.715668480843306" lon="13.959097824990749">
        <ele>222.68000000000001</ele>
        <time>2018-09-24T10:31:59Z</time>
      </trkpt>
      <trkpt lat="40.715670073404908" lon="13.95906463265419">
        <ele>222.68000000000001</ele>
        <time>2018-09-24T10:32:12Z</time>
      </trkpt>
      <trkpt lat="40.715640569105744" lon="13.959044516086578">
        <ele>222.68000000000001</ele>
        <time>2018-09-24T10:32:16Z</time>
      </trkpt>
      <trkpt lat="40.715570664033294" lon="13.958985256031156">
        <ele>223.16</ele>
        <time>2018-09-24T10:32:26Z</time>
      </trkpt>
      <trkpt lat="40.715568065643311" lon="13.958976538851857">
        <ele>222.19999999999999</ele>
        <time>2018-09-24T10:32:34Z</time>
      </trkpt>
      <trkpt lat="40.71557292714715" lon="13.958984166383743">
        <ele>222.19999999999999</ele>
        <time>2018-09-24T10:32:51Z</time>
      </trkpt>
      <trkpt lat="40.715534286573529" lon="13.958987016230822">
        <ele>222.68000000000001</ele>
        <time>2018-09-24T10:33:06Z</time>
      </trkpt>
      <trkpt lat="40.715522468090057" lon="13.958997577428818">
        <ele>222.68000000000001</ele>
        <time>2018-09-24T10:33:17Z</time>
      </trkpt>
      <trkpt lat="40.715534538030624" lon="13.958992045372725">
        <ele>222.68000000000001</ele>
        <time>2018-09-24T10:33:45Z</time>
      </trkpt>
      <trkpt lat="40.71554752998054" lon="13.95899866707623">
        <ele>222.19999999999999</ele>
        <time>2018-09-24T10:34:07Z</time>
      </trkpt>
      <trkpt lat="40.715545602142811" lon="13.958996739238501">
        <ele>222.19999999999999</ele>
        <time>2018-09-24T10:34:19Z</time>
      </trkpt>
      <trkpt lat="40.715550379827619" lon="13.958984334021807">
        <ele>222.19999999999999</ele>
        <time>2018-09-24T10:34:47Z</time>
      </trkpt>
      <trkpt lat="40.715545015409589" lon="13.958954913541675">
        <ele>221.72</ele>
        <time>2018-09-24T10:35:14Z</time>
      </trkpt>
      <trkpt lat="40.715520121157169" lon="13.958963630720973">
        <ele>222.19999999999999</ele>
        <time>2018-09-24T10:35:42Z</time>
      </trkpt>
      <trkpt lat="40.715513415634632" lon="13.958970503881574">
        <ele>222.19999999999999</ele>
        <time>2018-09-24T10:36:13Z</time>
      </trkpt>
      <trkpt lat="40.715515008196235" lon="13.958971761167049">
        <ele>222.19999999999999</ele>
        <time>2018-09-24T10:36:37Z</time>
      </trkpt>
      <trkpt lat="40.715533196926117" lon="13.958972180262208">
        <ele>222.19999999999999</ele>
        <time>2018-09-24T10:36:59Z</time>
      </trkpt>
      <trkpt lat="40.71552062407136" lon="13.958968911319971">
        <ele>222.19999999999999</ele>
        <time>2018-09-24T10:37:25Z</time>
      </trkpt>
      <trkpt lat="40.715510062873363" lon="13.958993135020137">
        <ele>222.19999999999999</ele>
        <time>2018-09-24T10:37:49Z</time>
      </trkpt>
      <trkpt lat="40.715560186654329" lon="13.958977460861206">
        <ele>222.68000000000001</ele>
        <time>2018-09-24T10:38:06Z</time>
      </trkpt>
      <trkpt lat="40.715573765337467" lon="13.958970084786415">
        <ele>222.68000000000001</ele>
        <time>2018-09-24T10:38:20Z</time>
      </trkpt>
      <trkpt lat="40.715596312656999" lon="13.958970755338669">
        <ele>222.68000000000001</ele>
        <time>2018-09-24T10:38:34Z</time>
      </trkpt>
      <trkpt lat="40.715602682903409" lon="13.958970000967383">
        <ele>222.68000000000001</ele>
        <time>2018-09-24T10:38:49Z</time>
      </trkpt>
      <trkpt lat="40.71559782139957" lon="13.958975616842508">
        <ele>222.68000000000001</ele>
        <time>2018-09-24T10:39:06Z</time>
      </trkpt>
      <trkpt lat="40.715601090341806" lon="13.958978885784745">
        <ele>222.19999999999999</ele>
        <time>2018-09-24T10:39:27Z</time>
      </trkpt>
      <trkpt lat="40.715669235214591" lon="13.958985926583409">
        <ele>221.72</ele>
        <time>2018-09-24T10:39:40Z</time>
      </trkpt>
      <trkpt lat="40.715686250478029" lon="13.958990117534995">
        <ele>221.24000000000001</ele>
        <time>2018-09-24T10:39:49Z</time>
      </trkpt>
      <trkpt lat="40.71577082388103" lon="13.958990536630154">
        <ele>220.28</ele>
        <time>2018-09-24T10:40:01Z</time>
      </trkpt>
      <trkpt lat="40.715852547436953" lon="13.958960110321641">
        <ele>219.31999999999999</ele>
        <time>2018-09-24T10:40:13Z</time>
      </trkpt>
      <trkpt lat="40.715941814705729" lon="13.958929348737001">
        <ele>217.88</ele>
        <time>2018-09-24T10:40:24Z</time>
      </trkpt>
      <trkpt lat="40.716073326766491" lon="13.958935551345348">
        <ele>215.47</ele>
        <time>2018-09-24T10:40:38Z</time>
      </trkpt>
      <trkpt lat="40.716151027008891" lon="13.958998918533325">
        <ele>213.55000000000001</ele>
        <time>2018-09-24T10:40:49Z</time>
      </trkpt>
      <trkpt lat="40.716192601248622" lon="13.959121545776725">
        <ele>211.63</ele>
        <time>2018-09-24T10:41:02Z</time>
      </trkpt>
      <trkpt lat="40.716142226010561" lon="13.95909246057272">
        <ele>210.66999999999999</ele>
        <time>2018-09-24T10:41:07Z</time>
      </trkpt>
      <trkpt lat="40.716084642335773" lon="13.959041833877563">
        <ele>209.22</ele>
        <time>2018-09-24T10:41:15Z</time>
      </trkpt>
      <trkpt lat="40.716168042272329" lon="13.959154151380062">
        <ele>206.34</ele>
        <time>2018-09-24T10:41:26Z</time>
      </trkpt>
      <trkpt lat="40.716244066134095" lon="13.959265379235148">
        <ele>203.94</ele>
        <time>2018-09-24T10:41:37Z</time>
      </trkpt>
      <trkpt lat="40.716271139681339" lon="13.959295134991407">
        <ele>203.46000000000001</ele>
        <time>2018-09-24T10:41:41Z</time>
      </trkpt>
      <trkpt lat="40.716289998963475" lon="13.959437794983387">
        <ele>201.05000000000001</ele>
        <time>2018-09-24T10:41:53Z</time>
      </trkpt>
      <trkpt lat="40.716254040598869" lon="13.959577269852161">
        <ele>198.16999999999999</ele>
        <time>2018-09-24T10:42:04Z</time>
      </trkpt>
      <trkpt lat="40.716188997030258" lon="13.959710793569684">
        <ele>196.25</ele>
        <time>2018-09-24T10:42:17Z</time>
      </trkpt>
      <trkpt lat="40.716210454702377" lon="13.959802407771349">
        <ele>194.31999999999999</ele>
        <time>2018-09-24T10:42:26Z</time>
      </trkpt>
      <trkpt lat="40.716336769983172" lon="13.959822105243802">
        <ele>193.36000000000001</ele>
        <time>2018-09-24T10:42:39Z</time>
      </trkpt>
      <trkpt lat="40.716425618156791" lon="13.959810202941298">
        <ele>192.40000000000001</ele>
        <time>2018-09-24T10:42:49Z</time>
      </trkpt>
      <trkpt lat="40.716543216258287" lon="13.959793942049146">
        <ele>190</ele>
        <time>2018-09-24T10:43:01Z</time>
      </trkpt>
      <trkpt lat="40.716644888743758" lon="13.959767874330282">
        <ele>188.08000000000001</ele>
        <time>2018-09-24T10:43:12Z</time>
      </trkpt>
      <trkpt lat="40.716702220961452" lon="13.959751948714256">
        <ele>187.11000000000001</ele>
        <time>2018-09-24T10:43:18Z</time>
      </trkpt>
      <trkpt lat="40.716830883175135" lon="13.95970324985683">
        <ele>185.66999999999999</ele>
        <time>2018-09-24T10:43:31Z</time>
      </trkpt>
      <trkpt lat="40.716933477669954" lon="13.95969009026885">
        <ele>185.19</ele>
        <time>2018-09-24T10:43:40Z</time>
      </trkpt>
      <trkpt lat="40.716999107971787" lon="13.959874995052814">
        <ele>185.19</ele>
        <time>2018-09-24T10:43:53Z</time>
      </trkpt>
      <trkpt lat="40.717077059671283" lon="13.960024025291204">
        <ele>185.19</ele>
        <time>2018-09-24T10:44:05Z</time>
      </trkpt>
      <trkpt lat="40.717175463214517" lon="13.960182275623083">
        <ele>185.66999999999999</ele>
        <time>2018-09-24T10:44:19Z</time>
      </trkpt>
      <trkpt lat="40.717211002483964" lon="13.96029744297266">
        <ele>185.66999999999999</ele>
        <time>2018-09-24T10:44:27Z</time>
      </trkpt>
      <trkpt lat="40.717280320823193" lon="13.960492992773652">
        <ele>185.66999999999999</ele>
        <time>2018-09-24T10:44:41Z</time>
      </trkpt>
      <trkpt lat="40.71732172742486" lon="13.960603047162294">
        <ele>186.15000000000001</ele>
        <time>2018-09-24T10:44:50Z</time>
      </trkpt>
      <trkpt lat="40.717364642769098" lon="13.960669180378318">
        <ele>186.63</ele>
        <time>2018-09-24T10:44:56Z</time>
      </trkpt>
      <trkpt lat="40.717386938631535" lon="13.960691140964627">
        <ele>186.63</ele>
        <time>2018-09-24T10:44:59Z</time>
      </trkpt>
      <trkpt lat="40.717391464859247" lon="13.960714777931571">
        <ele>186.63</ele>
        <time>2018-09-24T10:45:01Z</time>
      </trkpt>
      <trkpt lat="40.717510906979442" lon="13.960833214223385">
        <ele>187.11000000000001</ele>
        <time>2018-09-24T10:45:16Z</time>
      </trkpt>
      <trkpt lat="40.717630265280604" lon="13.960892725735903">
        <ele>187.59</ele>
        <time>2018-09-24T10:45:28Z</time>
      </trkpt>
      <trkpt lat="40.717766471207142" lon="13.960919799283147">
        <ele>188.56</ele>
        <time>2018-09-24T10:45:40Z</time>
      </trkpt>
      <trkpt lat="40.717924134805799" lon="13.961004791781306">
        <ele>188.56</ele>
        <time>2018-09-24T10:45:54Z</time>
      </trkpt>
      <trkpt lat="40.718019101768732" lon="13.9610362239182">
        <ele>188.08000000000001</ele>
        <time>2018-09-24T10:46:06Z</time>
      </trkpt>
      <trkpt lat="40.718137621879578" lon="13.961075283586979">
        <ele>188.08000000000001</ele>
        <time>2018-09-24T10:46:20Z</time>
      </trkpt>
      <trkpt lat="40.718230661004782" lon="13.961071092635393">
        <ele>187.11000000000001</ele>
        <time>2018-09-24T10:46:32Z</time>
      </trkpt>
      <trkpt lat="40.718283466994762" lon="13.96105919033289">
        <ele>186.63</ele>
        <time>2018-09-24T10:46:38Z</time>
      </trkpt>
      <trkpt lat="40.718434760347009" lon="13.961017532274127">
        <ele>186.15000000000001</ele>
        <time>2018-09-24T10:46:52Z</time>
      </trkpt>
      <trkpt lat="40.71857750415802" lon="13.960946286097169">
        <ele>185.66999999999999</ele>
        <time>2018-09-24T10:47:07Z</time>
      </trkpt>
      <trkpt lat="40.718715554103255" lon="13.960923571139574">
        <ele>186.15000000000001</ele>
        <time>2018-09-24T10:47:19Z</time>
      </trkpt>
      <trkpt lat="40.71884086355567" lon="13.960874537006021">
        <ele>185.66999999999999</ele>
        <time>2018-09-24T10:47:31Z</time>
      </trkpt>
      <trkpt lat="40.718981763347983" lon="13.960846792906523">
        <ele>185.19</ele>
        <time>2018-09-24T10:47:44Z</time>
      </trkpt>
      <trkpt lat="40.719067510217428" lon="13.960837153717875">
        <ele>184.71000000000001</ele>
        <time>2018-09-24T10:47:56Z</time>
      </trkpt>
      <trkpt lat="40.719129787757993" lon="13.960816534236073">
        <ele>184.22999999999999</ele>
        <time>2018-09-24T10:48:06Z</time>
      </trkpt>
      <trkpt lat="40.719203297048807" lon="13.960806727409363">
        <ele>182.78999999999999</ele>
        <time>2018-09-24T10:48:18Z</time>
      </trkpt>
      <trkpt lat="40.719308573752642" lon="13.960783258080482">
        <ele>180.38</ele>
        <time>2018-09-24T10:48:30Z</time>
      </trkpt>
      <trkpt lat="40.719353333115578" lon="13.960732212290168">
        <ele>179.41999999999999</ele>
        <time>2018-09-24T10:48:38Z</time>
      </trkpt>
      <trkpt lat="40.719365319237113" lon="13.960687117651105">
        <ele>178.94</ele>
        <time>2018-09-24T10:48:41Z</time>
      </trkpt>
      <trkpt lat="40.719433128833771" lon="13.960634982213378">
        <ele>177.5</ele>
        <time>2018-09-24T10:48:50Z</time>
      </trkpt>
      <trkpt lat="40.719597078859806" lon="13.960716119036078">
        <ele>176.53999999999999</ele>
        <time>2018-09-24T10:49:01Z</time>
      </trkpt>
      <trkpt lat="40.719655584543943" lon="13.960656188428402">
        <ele>176.06</ele>
        <time>2018-09-24T10:49:11Z</time>
      </trkpt>
      <trkpt lat="40.719722807407379" lon="13.960588127374649">
        <ele>176.53999999999999</ele>
        <time>2018-09-24T10:49:21Z</time>
      </trkpt>
      <trkpt lat="40.719767902046442" lon="13.960570273920894">
        <ele>176.06</ele>
        <time>2018-09-24T10:49:30Z</time>
      </trkpt>
      <trkpt lat="40.719824731349945" lon="13.960507744923234">
        <ele>176.06</ele>
        <time>2018-09-24T10:49:39Z</time>
      </trkpt>
      <trkpt lat="40.719854654744267" lon="13.960466757416725">
        <ele>175.09999999999999</ele>
        <time>2018-09-24T10:49:44Z</time>
      </trkpt>
      <trkpt lat="40.719944424927235" lon="13.96039224229753">
        <ele>173.66</ele>
        <time>2018-09-24T10:49:56Z</time>
      </trkpt>
      <trkpt lat="40.720029920339584" lon="13.960353769361973">
        <ele>172.69</ele>
        <time>2018-09-24T10:50:05Z</time>
      </trkpt>
      <trkpt lat="40.720142405480146" lon="13.960279421880841">
        <ele>171.72999999999999</ele>
        <time>2018-09-24T10:50:19Z</time>
      </trkpt>
      <trkpt lat="40.720230080187321" lon="13.960215887054801">
        <ele>170.77000000000001</ele>
        <time>2018-09-24T10:50:30Z</time>
      </trkpt>
      <trkpt lat="40.720231169834733" lon="13.960210690274835">
        <ele>170.77000000000001</ele>
        <time>2018-09-24T10:50:35Z</time>
      </trkpt>
      <trkpt lat="40.720359412953258" lon="13.960093008354306">
        <ele>169.81</ele>
        <time>2018-09-24T10:50:49Z</time>
      </trkpt>
      <trkpt lat="40.720440717414021" lon="13.959998041391373">
        <ele>168.84999999999999</ele>
        <time>2018-09-24T10:51:00Z</time>
      </trkpt>
      <trkpt lat="40.720552196726203" lon="13.959888322278857">
        <ele>167.41</ele>
        <time>2018-09-24T10:51:15Z</time>
      </trkpt>
      <trkpt lat="40.72061313316226" lon="13.959803162142634">
        <ele>167.41</ele>
        <time>2018-09-24T10:51:25Z</time>
      </trkpt>
      <trkpt lat="40.720692845061421" lon="13.959669470787048">
        <ele>166.44999999999999</ele>
        <time>2018-09-24T10:51:37Z</time>
      </trkpt>
      <trkpt lat="40.720737604424357" lon="13.959594871848822">
        <ele>166.44999999999999</ele>
        <time>2018-09-24T10:51:46Z</time>
      </trkpt>
      <trkpt lat="40.720779849216342" lon="13.959511136636138">
        <ele>165.47999999999999</ele>
        <time>2018-09-24T10:51:53Z</time>
      </trkpt>
      <trkpt lat="40.720845395699143" lon="13.959433268755674">
        <ele>165.47999999999999</ele>
        <time>2018-09-24T10:52:03Z</time>
      </trkpt>
      <trkpt lat="40.720909852534533" lon="13.959323298186064">
        <ele>165</ele>
        <time>2018-09-24T10:52:16Z</time>
      </trkpt>
      <trkpt lat="40.720913792029023" lon="13.959332183003426">
        <ele>165</ele>
        <time>2018-09-24T10:52:27Z</time>
      </trkpt>
      <trkpt lat="40.720952264964581" lon="13.95928842946887">
        <ele>165</ele>
        <time>2018-09-24T10:52:36Z</time>
      </trkpt>
      <trkpt lat="40.72096936404705" lon="13.959296895191073">
        <ele>165</ele>
        <time>2018-09-24T10:52:55Z</time>
      </trkpt>
      <trkpt lat="40.720971543341875" lon="13.959315167739987">
        <ele>165</ele>
        <time>2018-09-24T10:53:14Z</time>
      </trkpt>
      <trkpt lat="40.720963748171926" lon="13.959284573793411">
        <ele>165</ele>
        <time>2018-09-24T10:53:27Z</time>
      </trkpt>
      <trkpt lat="40.720939356833696" lon="13.959209807217121">
        <ele>165.96000000000001</ele>
        <time>2018-09-24T10:53:37Z</time>
      </trkpt>
      <trkpt lat="40.720963329076767" lon="13.959248112514615">
        <ele>165</ele>
        <time>2018-09-24T10:53:48Z</time>
      </trkpt>
      <trkpt lat="40.720965759828687" lon="13.959209807217121">
        <ele>165</ele>
        <time>2018-09-24T10:53:58Z</time>
      </trkpt>
      <trkpt lat="40.720944050699472" lon="13.959246603772044">
        <ele>165</ele>
        <time>2018-09-24T10:54:07Z</time>
      </trkpt>
      <trkpt lat="40.720940865576267" lon="13.959227744489908">
        <ele>165.47999999999999</ele>
        <time>2018-09-24T10:54:23Z</time>
      </trkpt>
      <trkpt lat="40.720945475623012" lon="13.959247106686234">
        <ele>165</ele>
        <time>2018-09-24T10:54:32Z</time>
      </trkpt>
      <trkpt lat="40.720949415117502" lon="13.959253560751677">
        <ele>165</ele>
        <time>2018-09-24T10:54:42Z</time>
      </trkpt>
      <trkpt lat="40.720959724858403" lon="13.959192205220461">
        <ele>165</ele>
        <time>2018-09-24T10:54:52Z</time>
      </trkpt>
      <trkpt lat="40.720985373482108" lon="13.959132442250848">
        <ele>164.52000000000001</ele>
        <time>2018-09-24T10:55:04Z</time>
      </trkpt>
      <trkpt lat="40.72100255638361" lon="13.959041330963373">
        <ele>164.03999999999999</ele>
        <time>2018-09-24T10:55:15Z</time>
      </trkpt>
      <trkpt lat="40.720984451472759" lon="13.958988189697266">
        <ele>163.56</ele>
        <time>2018-09-24T10:55:27Z</time>
      </trkpt>
      <trkpt lat="40.720997443422675" lon="13.95896203815937">
        <ele>163.08000000000001</ele>
        <time>2018-09-24T10:55:36Z</time>
      </trkpt>
      <trkpt lat="40.720988810062408" lon="13.958925325423479">
        <ele>163.08000000000001</ele>
        <time>2018-09-24T10:55:49Z</time>
      </trkpt>
      <trkpt lat="40.720990486443043" lon="13.958914931863546">
        <ele>163.08000000000001</ele>
        <time>2018-09-24T10:55:50Z</time>
      </trkpt>
      <trkpt lat="40.721025858074427" lon="13.958907136693597">
        <ele>163.08000000000001</ele>
        <time>2018-09-24T10:56:01Z</time>
      </trkpt>
      <trkpt lat="40.721043795347214" lon="13.958933958783746">
        <ele>162.59999999999999</ele>
        <time>2018-09-24T10:56:12Z</time>
      </trkpt>
      <trkpt lat="40.721064750105143" lon="13.958954997360706">
        <ele>162.12</ele>
        <time>2018-09-24T10:56:32Z</time>
      </trkpt>
      <trkpt lat="40.72102946229279" lon="13.958935467526317">
        <ele>162.12</ele>
        <time>2018-09-24T10:56:53Z</time>
      </trkpt>
      <trkpt lat="40.721033569425344" lon="13.958962624892592">
        <ele>162.12</ele>
        <time>2018-09-24T10:57:04Z</time>
      </trkpt>
      <trkpt lat="40.721040861681104" lon="13.958989698439837">
        <ele>161.63999999999999</ele>
        <time>2018-09-24T10:57:24Z</time>
      </trkpt>
      <trkpt lat="40.721046393737197" lon="13.958959020674229">
        <ele>162.12</ele>
        <time>2018-09-24T10:57:37Z</time>
      </trkpt>
      <trkpt lat="40.721043292433023" lon="13.958952063694596">
        <ele>161.63999999999999</ele>
        <time>2018-09-24T10:57:52Z</time>
      </trkpt>
      <trkpt lat="40.721061145886779" lon="13.958957428112626">
        <ele>162.12</ele>
        <time>2018-09-24T10:58:09Z</time>
      </trkpt>
      <trkpt lat="40.721055110916495" lon="13.958973689004779">
        <ele>162.12</ele>
        <time>2018-09-24T10:58:38Z</time>
      </trkpt>
      <trkpt lat="40.721013620495796" lon="13.958933120593429">
        <ele>162.12</ele>
        <time>2018-09-24T10:59:06Z</time>
      </trkpt>
      <trkpt lat="40.720982104539871" lon="13.958862293511629">
        <ele>162.12</ele>
        <time>2018-09-24T10:59:12Z</time>
      </trkpt>
      <trkpt lat="40.720980428159237" lon="13.958818791434169">
        <ele>162.12</ele>
        <time>2018-09-24T10:59:15Z</time>
      </trkpt>
      <trkpt lat="40.720965173095465" lon="13.958789203315973">
        <ele>161.63999999999999</ele>
        <time>2018-09-24T10:59:26Z</time>
      </trkpt>
      <trkpt lat="40.720972800627351" lon="13.958780486136675">
        <ele>161.63999999999999</ele>
        <time>2018-09-24T10:59:42Z</time>
      </trkpt>
      <trkpt lat="40.72096249088645" lon="13.958776965737343">
        <ele>161.63999999999999</ele>
        <time>2018-09-24T11:00:02Z</time>
      </trkpt>
      <trkpt lat="40.720969447866082" lon="13.958761459216475">
        <ele>161.63999999999999</ele>
        <time>2018-09-24T11:00:04Z</time>
      </trkpt>
      <trkpt lat="40.720955617725849" lon="13.958658780902624">
        <ele>161.63999999999999</ele>
        <time>2018-09-24T11:00:13Z</time>
      </trkpt>
      <trkpt lat="40.720959641039371" lon="13.958644866943359">
        <ele>161.16</ele>
        <time>2018-09-24T11:00:20Z</time>
      </trkpt>
      <trkpt lat="40.720951678231359" lon="13.958532465621829">
        <ele>160.68000000000001</ele>
        <time>2018-09-24T11:00:29Z</time>
      </trkpt>
      <trkpt lat="40.72093759663403" lon="13.958339262753725">
        <ele>160.19999999999999</ele>
        <time>2018-09-24T11:00:42Z</time>
      </trkpt>
      <trkpt lat="40.720924604684114" lon="13.958138432353735">
        <ele>159.72</ele>
        <time>2018-09-24T11:00:56Z</time>
      </trkpt>
      <trkpt lat="40.7208769954741" lon="13.957937182858586">
        <ele>159.24000000000001</ele>
        <time>2018-09-24T11:01:11Z</time>
      </trkpt>
      <trkpt lat="40.720809185877442" lon="13.957788236439228">
        <ele>158.75</ele>
        <time>2018-09-24T11:01:23Z</time>
      </trkpt>
      <trkpt lat="40.72076459415257" lon="13.957692347466946">
        <ele>158.27000000000001</ele>
        <time>2018-09-24T11:01:31Z</time>
      </trkpt>
      <trkpt lat="40.720681445673108" lon="13.957511046901345">
        <ele>158.27000000000001</ele>
        <time>2018-09-24T11:01:44Z</time>
      </trkpt>
      <trkpt lat="40.720610953867435" lon="13.957323124632239">
        <ele>157.78999999999999</ele>
        <time>2018-09-24T11:01:57Z</time>
      </trkpt>
      <trkpt lat="40.720560494810343" lon="13.957134950906038">
        <ele>154.91</ele>
        <time>2018-09-24T11:02:12Z</time>
      </trkpt>
      <trkpt lat="40.720529230311513" lon="13.957037050276995">
        <ele>153.94999999999999</ele>
        <time>2018-09-24T11:02:22Z</time>
      </trkpt>
      <trkpt lat="40.720465695485473" lon="13.956847954541445">
        <ele>153.47</ele>
        <time>2018-09-24T11:02:35Z</time>
      </trkpt>
      <trkpt lat="40.720394952222705" lon="13.956645363941789">
        <ele>153.47</ele>
        <time>2018-09-24T11:02:49Z</time>
      </trkpt>
      <trkpt lat="40.720304762944579" lon="13.956509074196219">
        <ele>152.99000000000001</ele>
        <time>2018-09-24T11:03:00Z</time>
      </trkpt>
      <trkpt lat="40.720247346907854" lon="13.956318385899067">
        <ele>152.99000000000001</ele>
        <time>2018-09-24T11:03:13Z</time>
      </trkpt>
      <trkpt lat="40.720225051045418" lon="13.956156196072698">
        <ele>152.50999999999999</ele>
        <time>2018-09-24T11:03:24Z</time>
      </trkpt>
      <trkpt lat="40.720191188156605" lon="13.95597162656486">
        <ele>152.50999999999999</ele>
        <time>2018-09-24T11:03:37Z</time>
      </trkpt>
      <trkpt lat="40.720145590603352" lon="13.955759648233652">
        <ele>152.99000000000001</ele>
        <time>2018-09-24T11:03:51Z</time>
      </trkpt>
      <trkpt lat="40.720118265599012" lon="13.955648420378566">
        <ele>152.99000000000001</ele>
        <time>2018-09-24T11:04:02Z</time>
      </trkpt>
      <trkpt lat="40.720115164294839" lon="13.955632075667381">
        <ele>152.50999999999999</ele>
        <time>2018-09-24T11:04:22Z</time>
      </trkpt>
      <trkpt lat="40.720106614753604" lon="13.955587232485414">
        <ele>152.50999999999999</ele>
        <time>2018-09-24T11:04:32Z</time>
      </trkpt>
      <trkpt lat="40.720075853168964" lon="13.955493187531829">
        <ele>152.99000000000001</ele>
        <time>2018-09-24T11:04:42Z</time>
      </trkpt>
      <trkpt lat="40.720023047178984" lon="13.955324543640018">
        <ele>153.47</ele>
        <time>2018-09-24T11:04:56Z</time>
      </trkpt>
      <trkpt lat="40.720015419647098" lon="13.955278946086764">
        <ele>153.47</ele>
        <time>2018-09-24T11:04:59Z</time>
      </trkpt>
      <trkpt lat="40.720034781843424" lon="13.955105859786272">
        <ele>153.94999999999999</ele>
        <time>2018-09-24T11:05:11Z</time>
      </trkpt>
      <trkpt lat="40.720106447115541" lon="13.954983567818999">
        <ele>153.94999999999999</ele>
        <time>2018-09-24T11:05:23Z</time>
      </trkpt>
      <trkpt lat="40.720133688300848" lon="13.95487904548645">
        <ele>153.94999999999999</ele>
        <time>2018-09-24T11:05:32Z</time>
      </trkpt>
      <trkpt lat="40.720113655552268" lon="13.954746443778276">
        <ele>155.38999999999999</ele>
        <time>2018-09-24T11:05:43Z</time>
      </trkpt>
      <trkpt lat="40.720094880089164" lon="13.954691458493471">
        <ele>156.34999999999999</ele>
        <time>2018-09-24T11:05:53Z</time>
      </trkpt>
      <trkpt lat="40.720092281699181" lon="13.954679640009999">
        <ele>156.34999999999999</ele>
        <time>2018-09-24T11:06:05Z</time>
      </trkpt>
      <trkpt lat="40.720089515671134" lon="13.954608980566263">
        <ele>156.83000000000001</ele>
        <time>2018-09-24T11:06:13Z</time>
      </trkpt>
      <trkpt lat="40.720056826248765" lon="13.954478390514851">
        <ele>158.75</ele>
        <time>2018-09-24T11:06:24Z</time>
      </trkpt>
      <trkpt lat="40.720027992501855" lon="13.954396080225706">
        <ele>159.72</ele>
        <time>2018-09-24T11:06:33Z</time>
      </trkpt>
      <trkpt lat="40.720014749094844" lon="13.9543342217803">
        <ele>160.19999999999999</ele>
        <time>2018-09-24T11:06:42Z</time>
      </trkpt>
      <trkpt lat="40.720008462667465" lon="13.954180413857102">
        <ele>161.63999999999999</ele>
        <time>2018-09-24T11:06:53Z</time>
      </trkpt>
      <trkpt lat="40.719998236745596" lon="13.95411335863173">
        <ele>161.63999999999999</ele>
        <time>2018-09-24T11:06:58Z</time>
      </trkpt>
      <trkpt lat="40.719992537051439" lon="13.954045800492167">
        <ele>162.59999999999999</ele>
        <time>2018-09-24T11:07:04Z</time>
      </trkpt>
      <trkpt lat="40.719954399392009" lon="13.953975224867463">
        <ele>163.56</ele>
        <time>2018-09-24T11:07:11Z</time>
      </trkpt>
      <trkpt lat="40.719904694706202" lon="13.953857375308871">
        <ele>164.03999999999999</ele>
        <time>2018-09-24T11:07:21Z</time>
      </trkpt>
      <trkpt lat="40.71986404247582" lon="13.953731311485171">
        <ele>164.03999999999999</ele>
        <time>2018-09-24T11:07:33Z</time>
      </trkpt>
      <trkpt lat="40.719853732734919" lon="13.95369803532958">
        <ele>165.96000000000001</ele>
        <time>2018-09-24T11:07:37Z</time>
      </trkpt>
      <trkpt lat="40.71985088288784" lon="13.953684791922569">
        <ele>165.96000000000001</ele>
        <time>2018-09-24T11:07:38Z</time>
      </trkpt>
      <trkpt lat="40.71979321539402" lon="13.953540539368987">
        <ele>167.41</ele>
        <time>2018-09-24T11:07:51Z</time>
      </trkpt>
      <trkpt lat="40.719767482951283" lon="13.953369464725256">
        <ele>168.37</ele>
        <time>2018-09-24T11:08:08Z</time>
      </trkpt>
      <trkpt lat="40.719741750508547" lon="13.953248094767332">
        <ele>168.84999999999999</ele>
        <time>2018-09-24T11:08:18Z</time>
      </trkpt>
      <trkpt lat="40.719745019450784" lon="13.953084480017424">
        <ele>168.84999999999999</ele>
        <time>2018-09-24T11:08:32Z</time>
      </trkpt>
      <trkpt lat="40.719738900661469" lon="13.953058663755655">
        <ele>169.33000000000001</ele>
        <time>2018-09-24T11:08:42Z</time>
      </trkpt>
      <trkpt lat="40.719766477122903" lon="13.952987920492887">
        <ele>169.33000000000001</ele>
        <time>2018-09-24T11:08:56Z</time>
      </trkpt>
      <trkpt lat="40.719812158495188" lon="13.952913992106915">
        <ele>168.84999999999999</ele>
        <time>2018-09-24T11:09:05Z</time>
      </trkpt>
      <trkpt lat="40.719867898151278" lon="13.952896557748318">
        <ele>169.33000000000001</ele>
        <time>2018-09-24T11:09:18Z</time>
      </trkpt>
      <trkpt lat="40.7198616117239" lon="13.952877530828118">
        <ele>168.84999999999999</ele>
        <time>2018-09-24T11:09:25Z</time>
      </trkpt>
      <trkpt lat="40.719849206507206" lon="13.952877949923277">
        <ele>168.84999999999999</ele>
        <time>2018-09-24T11:09:35Z</time>
      </trkpt>
      <trkpt lat="40.719840992242098" lon="13.952901000156999">
        <ele>169.33000000000001</ele>
        <time>2018-09-24T11:09:53Z</time>
      </trkpt>
      <trkpt lat="40.719849625602365" lon="13.95287518389523">
        <ele>169.81</ele>
        <time>2018-09-24T11:10:10Z</time>
      </trkpt>
      <trkpt lat="40.719862030819058" lon="13.952855821698904">
        <ele>169.33000000000001</ele>
        <time>2018-09-24T11:10:30Z</time>
      </trkpt>
      <trkpt lat="40.719853648915887" lon="13.952870490029454">
        <ele>169.33000000000001</ele>
        <time>2018-09-24T11:10:50Z</time>
      </trkpt>
      <trkpt lat="40.719855325296521" lon="13.952892953529954">
        <ele>169.33000000000001</ele>
        <time>2018-09-24T11:11:12Z</time>
      </trkpt>
      <trkpt lat="40.719849122688174" lon="13.952856324613094">
        <ele>169.81</ele>
        <time>2018-09-24T11:11:32Z</time>
      </trkpt>
      <trkpt lat="40.719866640865803" lon="13.952847188338637">
        <ele>169.81</ele>
        <time>2018-09-24T11:11:49Z</time>
      </trkpt>
      <trkpt lat="40.719880638644099" lon="13.952845260500908">
        <ele>169.81</ele>
        <time>2018-09-24T11:12:12Z</time>
      </trkpt>
      <trkpt lat="40.719879297539592" lon="13.952844170853496">
        <ele>169.81</ele>
        <time>2018-09-24T11:12:36Z</time>
      </trkpt>
      <trkpt lat="40.719890864565969" lon="13.952842997387052">
        <ele>170.28999999999999</ele>
        <time>2018-09-24T11:13:05Z</time>
      </trkpt>
      <trkpt lat="40.719892960041761" lon="13.952845595777035">
        <ele>170.77000000000001</ele>
        <time>2018-09-24T11:13:33Z</time>
      </trkpt>
      <trkpt lat="40.719903688877821" lon="13.952854312956333">
        <ele>170.77000000000001</ele>
        <time>2018-09-24T11:14:01Z</time>
      </trkpt>
      <trkpt lat="40.719919446855783" lon="13.952863868325949">
        <ele>170.77000000000001</ele>
        <time>2018-09-24T11:14:22Z</time>
      </trkpt>
      <trkpt lat="40.719911903142929" lon="13.952853474766016">
        <ele>171.25</ele>
        <time>2018-09-24T11:14:47Z</time>
      </trkpt>
      <trkpt lat="40.719898408278823" lon="13.952831095084548">
        <ele>171.25</ele>
        <time>2018-09-24T11:15:11Z</time>
      </trkpt>
      <trkpt lat="40.719893714413047" lon="13.952843835577369">
        <ele>171.25</ele>
        <time>2018-09-24T11:15:39Z</time>
      </trkpt>
      <trkpt lat="40.719874687492847" lon="13.952839225530624">
        <ele>171.72999999999999</ele>
        <time>2018-09-24T11:16:07Z</time>
      </trkpt>
      <trkpt lat="40.719862869009376" lon="13.952819695696235">
        <ele>171.72999999999999</ele>
        <time>2018-09-24T11:16:34Z</time>
      </trkpt>
      <trkpt lat="40.719873094931245" lon="13.952835621312261">
        <ele>172.21000000000001</ele>
        <time>2018-09-24T11:17:01Z</time>
      </trkpt>
      <trkpt lat="40.719900587573647" lon="13.95284584723413">
        <ele>172.21000000000001</ele>
        <time>2018-09-24T11:17:30Z</time>
      </trkpt>
      <trkpt lat="40.719885248690844" lon="13.952858252450824">
        <ele>172.21000000000001</ele>
        <time>2018-09-24T11:17:57Z</time>
      </trkpt>
      <trkpt lat="40.719864126294851" lon="13.952833442017436">
        <ele>172.21000000000001</ele>
        <time>2018-09-24T11:18:32Z</time>
      </trkpt>
      <trkpt lat="40.719891032204032" lon="13.952830089256167">
        <ele>172.21000000000001</ele>
        <time>2018-09-24T11:18:56Z</time>
      </trkpt>
      <trkpt lat="40.71987628005445" lon="13.952844757586718">
        <ele>172.69</ele>
        <time>2018-09-24T11:19:29Z</time>
      </trkpt>
      <trkpt lat="40.719879548996687" lon="13.952823635190725">
        <ele>172.69</ele>
        <time>2018-09-24T11:19:52Z</time>
      </trkpt>
      <trkpt lat="40.719866640865803" lon="13.952809721231461">
        <ele>173.16999999999999</ele>
        <time>2018-09-24T11:20:20Z</time>
      </trkpt>
      <trkpt lat="40.719877872616053" lon="13.952824473381042">
        <ele>173.16999999999999</ele>
        <time>2018-09-24T11:20:50Z</time>
      </trkpt>
      <trkpt lat="40.719864796847105" lon="13.952829670161009">
        <ele>173.16999999999999</ele>
        <time>2018-09-24T11:21:15Z</time>
      </trkpt>
      <trkpt lat="40.719860941171646" lon="13.952837297692895">
        <ele>173.16999999999999</ele>
        <time>2018-09-24T11:21:44Z</time>
      </trkpt>
      <trkpt lat="40.719890026375651" lon="13.9528370462358">
        <ele>173.16999999999999</ele>
        <time>2018-09-24T11:22:08Z</time>
      </trkpt>
      <trkpt lat="40.719878375530243" lon="13.95284827798605">
        <ele>173.16999999999999</ele>
        <time>2018-09-24T11:22:30Z</time>
      </trkpt>
      <trkpt lat="40.719886505976319" lon="13.952844589948654">
        <ele>173.16999999999999</ele>
        <time>2018-09-24T11:22:54Z</time>
      </trkpt>
      <trkpt lat="40.719883069396019" lon="13.952833274379373">
        <ele>173.66</ele>
        <time>2018-09-24T11:23:20Z</time>
      </trkpt>
      <trkpt lat="40.719896899536252" lon="13.952851044014096">
        <ele>173.66</ele>
        <time>2018-09-24T11:23:47Z</time>
      </trkpt>
      <trkpt lat="40.719872340559959" lon="13.952856827527285">
        <ele>173.66</ele>
        <time>2018-09-24T11:24:14Z</time>
      </trkpt>
      <trkpt lat="40.719852223992348" lon="13.952870657667518">
        <ele>174.13999999999999</ele>
        <time>2018-09-24T11:24:43Z</time>
      </trkpt>
      <trkpt lat="40.719868065789342" lon="13.952854815870523">
        <ele>174.13999999999999</ele>
        <time>2018-09-24T11:25:15Z</time>
      </trkpt>
      <trkpt lat="40.719856498762965" lon="13.9528595097363">
        <ele>173.66</ele>
        <time>2018-09-24T11:25:39Z</time>
      </trkpt>
      <trkpt lat="40.71987384930253" lon="13.95285808481276">
        <ele>174.13999999999999</ele>
        <time>2018-09-24T11:26:06Z</time>
      </trkpt>
      <trkpt lat="40.719868652522564" lon="13.952834280207753">
        <ele>173.66</ele>
        <time>2018-09-24T11:26:33Z</time>
      </trkpt>
      <trkpt lat="40.719871670007706" lon="13.952840734273195">
        <ele>173.66</ele>
        <time>2018-09-24T11:27:02Z</time>
      </trkpt>
      <trkpt lat="40.719861444085836" lon="13.952860850840807">
        <ele>173.66</ele>
        <time>2018-09-24T11:27:32Z</time>
      </trkpt>
      <trkpt lat="40.719897067174315" lon="13.952868143096566">
        <ele>174.13999999999999</ele>
        <time>2018-09-24T11:27:58Z</time>
      </trkpt>
      <trkpt lat="40.719901844859123" lon="13.952865628525615">
        <ele>173.66</ele>
        <time>2018-09-24T11:28:22Z</time>
      </trkpt>
      <trkpt lat="40.719892708584666" lon="13.952857414260507">
        <ele>174.13999999999999</ele>
        <time>2018-09-24T11:28:49Z</time>
      </trkpt>
      <trkpt lat="40.719874352216721" lon="13.952821707352996">
        <ele>174.13999999999999</ele>
        <time>2018-09-24T11:29:17Z</time>
      </trkpt>
      <trkpt lat="40.719858007505536" lon="13.952800249680877">
        <ele>174.13999999999999</ele>
        <time>2018-09-24T11:29:47Z</time>
      </trkpt>
      <trkpt lat="40.719859097152948" lon="13.952822629362345">
        <ele>174.13999999999999</ele>
        <time>2018-09-24T11:30:17Z</time>
      </trkpt>
      <trkpt lat="40.719857001677155" lon="13.952849032357335">
        <ele>173.66</ele>
        <time>2018-09-24T11:30:46Z</time>
      </trkpt>
      <trkpt lat="40.719831101596355" lon="13.952909214422107">
        <ele>173.66</ele>
        <time>2018-09-24T11:31:04Z</time>
      </trkpt>
      <trkpt lat="40.719863371923566" lon="13.952912986278534">
        <ele>173.66</ele>
        <time>2018-09-24T11:31:29Z</time>
      </trkpt>
      <trkpt lat="40.719840489327908" lon="13.952899072319269">
        <ele>173.66</ele>
        <time>2018-09-24T11:31:47Z</time>
      </trkpt>
      <trkpt lat="40.719863120466471" lon="13.952868646010756">
        <ele>173.66</ele>
        <time>2018-09-24T11:32:17Z</time>
      </trkpt>
      <trkpt lat="40.719854319468141" lon="13.952885493636131">
        <ele>173.66</ele>
        <time>2018-09-24T11:32:44Z</time>
      </trkpt>
      <trkpt lat="40.719821210950613" lon="13.952872585505247">
        <ele>173.66</ele>
        <time>2018-09-24T11:33:15Z</time>
      </trkpt>
      <trkpt lat="40.719816852360964" lon="13.952858587726951">
        <ele>173.66</ele>
        <time>2018-09-24T11:33:44Z</time>
      </trkpt>
      <trkpt lat="40.719833699986339" lon="13.952865712344646">
        <ele>173.66</ele>
        <time>2018-09-24T11:34:14Z</time>
      </trkpt>
      <trkpt lat="40.719856582581997" lon="13.952867724001408">
        <ele>173.66</ele>
        <time>2018-09-24T11:34:37Z</time>
      </trkpt>
      <trkpt lat="40.719861192628741" lon="13.95285171456635">
        <ele>173.66</ele>
        <time>2018-09-24T11:34:57Z</time>
      </trkpt>
      <trkpt lat="40.719853900372982" lon="13.952850457280874">
        <ele>173.66</ele>
        <time>2018-09-24T11:35:21Z</time>
      </trkpt>
      <trkpt lat="40.719816852360964" lon="13.952867472544312">
        <ele>173.66</ele>
        <time>2018-09-24T11:35:47Z</time>
      </trkpt>
      <trkpt lat="40.719832442700863" lon="13.952884068712592">
        <ele>173.66</ele>
        <time>2018-09-24T11:36:13Z</time>
      </trkpt>
      <trkpt lat="40.719848955050111" lon="13.95286344923079">
        <ele>173.66</ele>
        <time>2018-09-24T11:36:35Z</time>
      </trkpt>
      <trkpt lat="40.719842500984669" lon="13.95287174731493">
        <ele>173.16999999999999</ele>
        <time>2018-09-24T11:36:57Z</time>
      </trkpt>
      <trkpt lat="40.719831185415387" lon="13.952855067327619">
        <ele>174.13999999999999</ele>
        <time>2018-09-24T11:37:20Z</time>
      </trkpt>
      <trkpt lat="40.719833364710212" lon="13.952895300462842">
        <ele>174.62</ele>
        <time>2018-09-24T11:37:42Z</time>
      </trkpt>
      <trkpt lat="40.719828587025404" lon="13.952910723164678">
        <ele>174.62</ele>
        <time>2018-09-24T11:37:52Z</time>
      </trkpt>
      <trkpt lat="40.719840740785003" lon="13.952924553304911">
        <ele>175.09999999999999</ele>
        <time>2018-09-24T11:38:06Z</time>
      </trkpt>
      <trkpt lat="40.719865802675486" lon="13.952873088419437">
        <ele>175.09999999999999</ele>
        <time>2018-09-24T11:38:17Z</time>
      </trkpt>
      <trkpt lat="40.719843842089176" lon="13.952862862497568">
        <ele>175.09999999999999</ele>
        <time>2018-09-24T11:38:35Z</time>
      </trkpt>
      <trkpt lat="40.719831855967641" lon="13.952887589111924">
        <ele>175.09999999999999</ele>
        <time>2018-09-24T11:38:45Z</time>
      </trkpt>
      <trkpt lat="40.719849038869143" lon="13.95290250889957">
        <ele>175.09999999999999</ele>
        <time>2018-09-24T11:39:00Z</time>
      </trkpt>
      <trkpt lat="40.719850296154618" lon="13.952860347926617">
        <ele>175.09999999999999</ele>
        <time>2018-09-24T11:39:13Z</time>
      </trkpt>
      <trkpt lat="40.719832358881831" lon="13.952903430908918">
        <ele>175.09999999999999</ele>
        <time>2018-09-24T11:39:26Z</time>
      </trkpt>
      <trkpt lat="40.719802184030414" lon="13.95287124440074">
        <ele>174.62</ele>
        <time>2018-09-24T11:39:37Z</time>
      </trkpt>
      <trkpt lat="40.719785671681166" lon="13.952864035964012">
        <ele>174.62</ele>
        <time>2018-09-24T11:39:45Z</time>
      </trkpt>
      <trkpt lat="40.719770919531584" lon="13.952878201380372">
        <ele>174.62</ele>
        <time>2018-09-24T11:39:57Z</time>
      </trkpt>
      <trkpt lat="40.719785923138261" lon="13.952777618542314">
        <ele>175.09999999999999</ele>
        <time>2018-09-24T11:40:10Z</time>
      </trkpt>
      <trkpt lat="40.7198166847229" lon="13.952683322131634">
        <ele>175.09999999999999</ele>
        <time>2018-09-24T11:40:22Z</time>
      </trkpt>
      <trkpt lat="40.719830179587007" lon="13.952542841434479">
        <ele>175.09999999999999</ele>
        <time>2018-09-24T11:40:35Z</time>
      </trkpt>
      <trkpt lat="40.719848116859794" lon="13.952428344637156">
        <ele>175.09999999999999</ele>
        <time>2018-09-24T11:40:47Z</time>
      </trkpt>
      <trkpt lat="40.719857839867473" lon="13.952288869768381">
        <ele>175.58000000000001</ele>
        <time>2018-09-24T11:41:00Z</time>
      </trkpt>
      <trkpt lat="40.719914501532912" lon="13.952150987461209">
        <ele>176.53999999999999</ele>
        <time>2018-09-24T11:41:13Z</time>
      </trkpt>
      <trkpt lat="40.720016341656446" lon="13.952013524249196">
        <ele>176.53999999999999</ele>
        <time>2018-09-24T11:41:24Z</time>
      </trkpt>
      <trkpt lat="40.720107285305858" lon="13.951905313879251">
        <ele>176.06</ele>
        <time>2018-09-24T11:41:37Z</time>
      </trkpt>
      <trkpt lat="40.720213232561946" lon="13.951718648895621">
        <ele>175.09999999999999</ele>
        <time>2018-09-24T11:41:50Z</time>
      </trkpt>
      <trkpt lat="40.720260422676802" lon="13.95158520899713">
        <ele>174.13999999999999</ele>
        <time>2018-09-24T11:42:03Z</time>
      </trkpt>
      <trkpt lat="40.720333009958267" lon="13.951551513746381">
        <ele>172.69</ele>
        <time>2018-09-24T11:42:15Z</time>
      </trkpt>
      <trkpt lat="40.72042646817863" lon="13.951532822102308">
        <ele>171.25</ele>
        <time>2018-09-24T11:42:28Z</time>
      </trkpt>
      <trkpt lat="40.720492769032717" lon="13.951488733291626">
        <ele>170.28999999999999</ele>
        <time>2018-09-24T11:42:40Z</time>
      </trkpt>
      <trkpt lat="40.720557393506169" lon="13.951443303376436">
        <ele>169.81</ele>
        <time>2018-09-24T11:42:49Z</time>
      </trkpt>
      <trkpt lat="40.720567032694817" lon="13.951433077454567">
        <ele>169.33000000000001</ele>
        <time>2018-09-24T11:42:50Z</time>
      </trkpt>
      <trkpt lat="40.720667196437716" lon="13.951295865699649">
        <ele>167.41</ele>
        <time>2018-09-24T11:43:01Z</time>
      </trkpt>
      <trkpt lat="40.72068982757628" lon="13.951235851272941">
        <ele>166.44999999999999</ele>
        <time>2018-09-24T11:43:06Z</time>
      </trkpt>
      <trkpt lat="40.720767108723521" lon="13.951133843511343">
        <ele>165</ele>
        <time>2018-09-24T11:43:18Z</time>
      </trkpt>
      <trkpt lat="40.72077389806509" lon="13.951127808541059">
        <ele>165</ele>
        <time>2018-09-24T11:43:19Z</time>
      </trkpt>
      <trkpt lat="40.720840869471431" lon="13.951039966195822">
        <ele>162.59999999999999</ele>
        <time>2018-09-24T11:43:29Z</time>
      </trkpt>
      <trkpt lat="40.720909181982279" lon="13.95099688321352">
        <ele>161.63999999999999</ele>
        <time>2018-09-24T11:43:40Z</time>
      </trkpt>
      <trkpt lat="40.720977829769254" lon="13.950917422771454">
        <ele>159.72</ele>
        <time>2018-09-24T11:43:51Z</time>
      </trkpt>
      <trkpt lat="40.7210548594594" lon="13.950858833268285">
        <ele>157.78999999999999</ele>
        <time>2018-09-24T11:44:02Z</time>
      </trkpt>
      <trkpt lat="40.721132224425673" lon="13.950827401131392">
        <ele>156.83000000000001</ele>
        <time>2018-09-24T11:44:12Z</time>
      </trkpt>
      <trkpt lat="40.721171954646707" lon="13.95095975138247">
        <ele>154.91</ele>
        <time>2018-09-24T11:44:25Z</time>
      </trkpt>
      <trkpt lat="40.72116575203836" lon="13.950979365035892">
        <ele>154.43000000000001</ele>
        <time>2018-09-24T11:44:27Z</time>
      </trkpt>
      <trkpt lat="40.721150832250714" lon="13.951121438294649">
        <ele>152.50999999999999</ele>
        <time>2018-09-24T11:44:40Z</time>
      </trkpt>
      <trkpt lat="40.721141193062067" lon="13.951251273974776">
        <ele>150.58000000000001</ele>
        <time>2018-09-24T11:44:52Z</time>
      </trkpt>
      <trkpt lat="40.721121160313487" lon="13.951389826834202">
        <ele>148.66</ele>
        <time>2018-09-24T11:45:05Z</time>
      </trkpt>
      <trkpt lat="40.721099032089114" lon="13.951516561210155">
        <ele>146.74000000000001</ele>
        <time>2018-09-24T11:45:16Z</time>
      </trkpt>
      <trkpt lat="40.721119903028011" lon="13.951613875105977">
        <ele>144.81999999999999</ele>
        <time>2018-09-24T11:45:27Z</time>
      </trkpt>
      <trkpt lat="40.721189556643367" lon="13.951654694974422">
        <ele>142.88999999999999</ele>
        <time>2018-09-24T11:45:38Z</time>
      </trkpt>
      <trkpt lat="40.721196429803967" lon="13.951657377183437">
        <ele>142.88999999999999</ele>
        <time>2018-09-24T11:45:39Z</time>
      </trkpt>
      <trkpt lat="40.721278069540858" lon="13.951725941151381">
        <ele>141.44999999999999</ele>
        <time>2018-09-24T11:45:50Z</time>
      </trkpt>
      <trkpt lat="40.721380915492773" lon="13.951823506504297">
        <ele>139.05000000000001</ele>
        <time>2018-09-24T11:46:03Z</time>
      </trkpt>
      <trkpt lat="40.721443025395274" lon="13.951889807358384">
        <ele>138.09</ele>
        <time>2018-09-24T11:46:14Z</time>
      </trkpt>
      <trkpt lat="40.721483677625656" lon="13.951948313042521">
        <ele>136.63999999999999</ele>
        <time>2018-09-24T11:46:21Z</time>
      </trkpt>
      <trkpt lat="40.721509661525488" lon="13.952113185077906">
        <ele>134.72</ele>
        <time>2018-09-24T11:46:34Z</time>
      </trkpt>
      <trkpt lat="40.721522318199277" lon="13.952255677431822">
        <ele>132.80000000000001</ele>
        <time>2018-09-24T11:46:46Z</time>
      </trkpt>
      <trkpt lat="40.721515277400613" lon="13.952395655214787">
        <ele>130.88</ele>
        <time>2018-09-24T11:46:58Z</time>
      </trkpt>
      <trkpt lat="40.721521563827991" lon="13.952491460368037">
        <ele>129.43000000000001</ele>
        <time>2018-09-24T11:47:07Z</time>
      </trkpt>
      <trkpt lat="40.721518462523818" lon="13.952570166438818">
        <ele>127.98999999999999</ele>
        <time>2018-09-24T11:47:13Z</time>
      </trkpt>
      <trkpt lat="40.721528520807624" lon="13.952649459242821">
        <ele>127.03</ele>
        <time>2018-09-24T11:47:19Z</time>
      </trkpt>
      <trkpt lat="40.721539165824652" lon="13.952721711248159">
        <ele>126.06999999999999</ele>
        <time>2018-09-24T11:47:29Z</time>
      </trkpt>
      <trkpt lat="40.721541931852698" lon="13.952730679884553">
        <ele>125.59</ele>
        <time>2018-09-24T11:47:44Z</time>
      </trkpt>
      <trkpt lat="40.721544111147523" lon="13.952742414548993">
        <ele>125.59</ele>
        <time>2018-09-24T11:47:50Z</time>
      </trkpt>
      <trkpt lat="40.721648298203945" lon="13.952844841405749">
        <ele>124.15000000000001</ele>
        <time>2018-09-24T11:48:02Z</time>
      </trkpt>
      <trkpt lat="40.721749300137162" lon="13.952947184443474">
        <ele>122.22</ele>
        <time>2018-09-24T11:48:15Z</time>
      </trkpt>
      <trkpt lat="40.72184300981462" lon="13.953031338751316">
        <ele>119.81999999999999</ele>
        <time>2018-09-24T11:48:27Z</time>
      </trkpt>
      <trkpt lat="40.721936468034983" lon="13.953046593815088">
        <ele>118.38</ele>
        <time>2018-09-24T11:48:36Z</time>
      </trkpt>
      <trkpt lat="40.721984328702092" lon="13.953045923262835">
        <ele>118.38</ele>
        <time>2018-09-24T11:48:40Z</time>
      </trkpt>
      <trkpt lat="40.722116846591234" lon="13.953067129477859">
        <ele>117.42</ele>
        <time>2018-09-24T11:48:52Z</time>
      </trkpt>
      <trkpt lat="40.722155570983887" lon="13.953070314601064">
        <ele>116.94</ele>
        <time>2018-09-24T11:48:56Z</time>
      </trkpt>
      <trkpt lat="40.722203934565187" lon="13.953062100335956">
        <ele>116.45999999999999</ele>
        <time>2018-09-24T11:49:00Z</time>
      </trkpt>
      <trkpt lat="40.722330333665013" lon="13.953065034002066">
        <ele>115.98</ele>
        <time>2018-09-24T11:49:12Z</time>
      </trkpt>
      <trkpt lat="40.722464611753821" lon="13.953089844435453">
        <ele>115.5</ele>
        <time>2018-09-24T11:49:25Z</time>
      </trkpt>
      <trkpt lat="40.722535103559494" lon="13.953078696504235">
        <ele>115.01000000000001</ele>
        <time>2018-09-24T11:49:36Z</time>
      </trkpt>
      <trkpt lat="40.722607774659991" lon="13.953066961839795">
        <ele>114.53</ele>
        <time>2018-09-24T11:49:49Z</time>
      </trkpt>
      <trkpt lat="40.7225935254246" lon="13.953089928254485">
        <ele>114.53</ele>
        <time>2018-09-24T11:49:59Z</time>
      </trkpt>
      <trkpt lat="40.722657814621925" lon="13.953067716211081">
        <ele>114.05</ele>
        <time>2018-09-24T11:50:07Z</time>
      </trkpt>
      <trkpt lat="40.722768791019917" lon="13.9530960470438">
        <ele>113.56999999999999</ele>
        <time>2018-09-24T11:50:18Z</time>
      </trkpt>
      <trkpt lat="40.722871385514736" lon="13.953088084235787">
        <ele>113.09</ele>
        <time>2018-09-24T11:50:27Z</time>
      </trkpt>
      <trkpt lat="40.723022930324078" lon="13.953071488067508">
        <ele>112.13</ele>
        <time>2018-09-24T11:50:41Z</time>
      </trkpt>
      <trkpt lat="40.723159639164805" lon="13.953038798645139">
        <ele>111.65000000000001</ele>
        <time>2018-09-24T11:50:53Z</time>
      </trkpt>
      <trkpt lat="40.723312357440591" lon="13.953013904392719">
        <ele>110.69</ele>
        <time>2018-09-24T11:51:08Z</time>
      </trkpt>
      <trkpt lat="40.723459962755442" lon="13.952990183606744">
        <ele>109.73</ele>
        <time>2018-09-24T11:51:20Z</time>
      </trkpt>
      <trkpt lat="40.723622487857938" lon="13.952969228848815">
        <ele>108.77</ele>
        <time>2018-09-24T11:51:34Z</time>
      </trkpt>
      <trkpt lat="40.723656266927719" lon="13.952957075089216">
        <ele>108.29000000000001</ele>
        <time>2018-09-24T11:51:38Z</time>
      </trkpt>
      <trkpt lat="40.723717287182808" lon="13.952966798096895">
        <ele>108.29000000000001</ele>
        <time>2018-09-24T11:51:43Z</time>
      </trkpt>
      <trkpt lat="40.723915686830878" lon="13.952965456992388">
        <ele>107.81</ele>
        <time>2018-09-24T11:51:59Z</time>
      </trkpt>
      <trkpt lat="40.724036721512675" lon="13.952933270484209">
        <ele>106.84</ele>
        <time>2018-09-24T11:52:13Z</time>
      </trkpt>
      <trkpt lat="40.724159516394138" lon="13.952926564961672">
        <ele>106.36</ele>
        <time>2018-09-24T11:52:25Z</time>
      </trkpt>
      <trkpt lat="40.724276611581445" lon="13.952859174460173">
        <ele>105.88</ele>
        <time>2018-09-24T11:52:37Z</time>
      </trkpt>
      <trkpt lat="40.724412817507982" lon="13.952814750373363">
        <ele>104.92</ele>
        <time>2018-09-24T11:52:48Z</time>
      </trkpt>
      <trkpt lat="40.724502755329013" lon="13.952769739553332">
        <ele>104.44</ele>
        <time>2018-09-24T11:53:00Z</time>
      </trkpt>
      <trkpt lat="40.724519770592451" lon="13.952739397063851">
        <ele>104.44</ele>
        <time>2018-09-24T11:53:16Z</time>
      </trkpt>
      <trkpt lat="40.724507700651884" lon="13.952755155041814">
        <ele>104.44</ele>
        <time>2018-09-24T11:53:31Z</time>
      </trkpt>
      <trkpt lat="40.724537456408143" lon="13.95275347866118">
        <ele>104.44</ele>
        <time>2018-09-24T11:53:35Z</time>
      </trkpt>
      <trkpt lat="40.724675925448537" lon="13.952841321006417">
        <ele>103.95999999999999</ele>
        <time>2018-09-24T11:53:49Z</time>
      </trkpt>
      <trkpt lat="40.724792936816812" lon="13.952882727608085">
        <ele>103</ele>
        <time>2018-09-24T11:54:02Z</time>
      </trkpt>
      <trkpt lat="40.72483099065721" lon="13.952878369018435">
        <ele>103</ele>
        <time>2018-09-24T11:54:06Z</time>
      </trkpt>
      <trkpt lat="40.724843814969063" lon="13.952884655445814">
        <ele>103.48</ele>
        <time>2018-09-24T11:54:08Z</time>
      </trkpt>
      <trkpt lat="40.724960658699274" lon="13.952874597162008">
        <ele>103</ele>
        <time>2018-09-24T11:54:20Z</time>
      </trkpt>
      <trkpt lat="40.725048081949353" lon="13.952890271320939">
        <ele>102.52</ele>
        <time>2018-09-24T11:54:28Z</time>
      </trkpt>
      <trkpt lat="40.725175905972719" lon="13.952956991270185">
        <ele>102.04000000000001</ele>
        <time>2018-09-24T11:54:43Z</time>
      </trkpt>
      <trkpt lat="40.725261066108942" lon="13.953050449490547">
        <ele>101.56</ele>
        <time>2018-09-24T11:54:53Z</time>
      </trkpt>
      <trkpt lat="40.725341700017452" lon="13.953062100335956">
        <ele>101.56</ele>
        <time>2018-09-24T11:55:05Z</time>
      </trkpt>
      <trkpt lat="40.725459717214108" lon="13.953088922426105">
        <ele>100.59999999999999</ele>
        <time>2018-09-24T11:55:17Z</time>
      </trkpt>
      <trkpt lat="40.725598437711596" lon="13.953165784478188">
        <ele>99.629999999999995</ele>
        <time>2018-09-24T11:55:30Z</time>
      </trkpt>
      <trkpt lat="40.725685693323612" lon="13.953212052583694">
        <ele>99.150000000000006</ele>
        <time>2018-09-24T11:55:41Z</time>
      </trkpt>
      <trkpt lat="40.725789126008749" lon="13.95326511003077">
        <ele>97.709999999999994</ele>
        <time>2018-09-24T11:55:52Z</time>
      </trkpt>
      <trkpt lat="40.725913681089878" lon="13.953320682048798">
        <ele>96.269999999999996</ele>
        <time>2018-09-24T11:56:05Z</time>
      </trkpt>
      <trkpt lat="40.726063633337617" lon="13.953385222703218">
        <ele>95.310000000000002</ele>
        <time>2018-09-24T11:56:22Z</time>
      </trkpt>
      <trkpt lat="40.72618056088686" lon="13.953380109742284">
        <ele>94.349999999999994</ele>
        <time>2018-09-24T11:56:33Z</time>
      </trkpt>
      <trkpt lat="40.726217441260815" lon="13.953363848850131">
        <ele>93.870000000000005</ele>
        <time>2018-09-24T11:56:36Z</time>
      </trkpt>
      <trkpt lat="40.726381978020072" lon="13.953380780294538">
        <ele>92.420000000000002</ele>
        <time>2018-09-24T11:56:50Z</time>
      </trkpt>
      <trkpt lat="40.726545006036758" lon="13.953353874385357">
        <ele>90.5</ele>
        <time>2018-09-24T11:57:05Z</time>
      </trkpt>
      <trkpt lat="40.726703507825732" lon="13.953327555209398">
        <ele>89.540000000000006</ele>
        <time>2018-09-24T11:57:20Z</time>
      </trkpt>
      <trkpt lat="40.726827057078481" lon="13.953319173306227">
        <ele>88.099999999999994</ele>
        <time>2018-09-24T11:57:32Z</time>
      </trkpt>
      <trkpt lat="40.726945996284485" lon="13.953287992626429">
        <ele>87.620000000000005</ele>
        <time>2018-09-24T11:57:44Z</time>
      </trkpt>
      <trkpt lat="40.726979440078139" lon="13.953274916857481">
        <ele>87.140000000000001</ele>
        <time>2018-09-24T11:57:47Z</time>
      </trkpt>
      <trkpt lat="40.727112460881472" lon="13.953254213556647">
        <ele>86.180000000000007</ele>
        <time>2018-09-24T11:57:59Z</time>
      </trkpt>
      <trkpt lat="40.727256629616022" lon="13.953237282112241">
        <ele>85.209999999999994</ele>
        <time>2018-09-24T11:58:12Z</time>
      </trkpt>
      <trkpt lat="40.727404737845063" lon="13.953225631266832">
        <ele>83.769999999999996</ele>
        <time>2018-09-24T11:58:25Z</time>
      </trkpt>
      <trkpt lat="40.727522922679782" lon="13.953228732571006">
        <ele>82.810000000000002</ele>
        <time>2018-09-24T11:58:38Z</time>
      </trkpt>
      <trkpt lat="40.727654602378607" lon="13.953257482498884">
        <ele>82.329999999999998</ele>
        <time>2018-09-24T11:58:52Z</time>
      </trkpt>
      <trkpt lat="40.727684441953897" lon="13.953270390629768">
        <ele>83.290000000000006</ele>
        <time>2018-09-24T11:58:55Z</time>
      </trkpt>
      <trkpt lat="40.727815786376595" lon="13.953291093930602">
        <ele>81.370000000000005</ele>
        <time>2018-09-24T11:59:08Z</time>
      </trkpt>
      <trkpt lat="40.727959955111146" lon="13.953332668170333">
        <ele>80.890000000000001</ele>
        <time>2018-09-24T11:59:22Z</time>
      </trkpt>
      <trkpt lat="40.728116361424327" lon="13.953396789729595">
        <ele>78.969999999999999</ele>
        <time>2018-09-24T11:59:36Z</time>
      </trkpt>
      <trkpt lat="40.728282909840345" lon="13.953477507457137">
        <ele>77.519999999999996</ele>
        <time>2018-09-24T11:59:50Z</time>
      </trkpt>
      <trkpt lat="40.728436298668385" lon="13.953548837453127">
        <ele>75.599999999999994</ele>
        <time>2018-09-24T12:00:05Z</time>
      </trkpt>
      <trkpt lat="40.728603014722466" lon="13.953572055324912">
        <ele>73.680000000000007</ele>
        <time>2018-09-24T12:00:19Z</time>
      </trkpt>
      <trkpt lat="40.728766294196248" lon="13.953581107780337">
        <ele>71.760000000000005</ele>
        <time>2018-09-24T12:00:33Z</time>
      </trkpt>
      <trkpt lat="40.728909624740481" lon="13.953605499118567">
        <ele>69.829999999999998</ele>
        <time>2018-09-24T12:00:46Z</time>
      </trkpt>
      <trkpt lat="40.728992521762848" lon="13.953657131642103">
        <ele>69.829999999999998</ele>
        <time>2018-09-24T12:00:56Z</time>
      </trkpt>
      <trkpt lat="40.729107186198235" lon="13.953724186867476">
        <ele>68.390000000000001</ele>
        <time>2018-09-24T12:01:07Z</time>
      </trkpt>
      <trkpt lat="40.729223107919097" lon="13.953830301761627">
        <ele>67.909999999999997</ele>
        <time>2018-09-24T12:01:19Z</time>
      </trkpt>
      <trkpt lat="40.729376915842295" lon="13.953969944268465">
        <ele>66.950000000000003</ele>
        <time>2018-09-24T12:01:34Z</time>
      </trkpt>
      <trkpt lat="40.729474732652307" lon="13.95405862480402">
        <ele>66.950000000000003</ele>
        <time>2018-09-24T12:01:44Z</time>
      </trkpt>
      <trkpt lat="40.729625942185521" lon="13.954197596758604">
        <ele>66.469999999999999</ele>
        <time>2018-09-24T12:02:00Z</time>
      </trkpt>
      <trkpt lat="40.729720992967486" lon="13.954242775216699">
        <ele>65.510000000000005</ele>
        <time>2018-09-24T12:02:11Z</time>
      </trkpt>
      <trkpt lat="40.729747395962477" lon="13.954234896227717">
        <ele>65.030000000000001</ele>
        <time>2018-09-24T12:02:19Z</time>
      </trkpt>
      <trkpt lat="40.729869687929749" lon="13.954223245382309">
        <ele>64.069999999999993</ele>
        <time>2018-09-24T12:02:32Z</time>
      </trkpt>
      <trkpt lat="40.730027938261628" lon="13.95427605137229">
        <ele>61.18</ele>
        <time>2018-09-24T12:02:47Z</time>
      </trkpt>
      <trkpt lat="40.730101531371474" lon="13.954319637268782">
        <ele>60.700000000000003</ele>
        <time>2018-09-24T12:02:54Z</time>
      </trkpt>
      <trkpt lat="40.730198929086328" lon="13.954427009448409">
        <ele>58.299999999999997</ele>
        <time>2018-09-24T12:03:06Z</time>
      </trkpt>
      <trkpt lat="40.730312755331397" lon="13.95457704551518">
        <ele>56.859999999999999</ele>
        <time>2018-09-24T12:03:20Z</time>
      </trkpt>
      <trkpt lat="40.730414427816868" lon="13.954734206199646">
        <ele>54.93</ele>
        <time>2018-09-24T12:03:35Z</time>
      </trkpt>
      <trkpt lat="40.730392886325717" lon="13.954794472083449">
        <ele>54.450000000000003</ele>
        <time>2018-09-24T12:03:45Z</time>
      </trkpt>
      <trkpt lat="40.730401519685984" lon="13.954819450154901">
        <ele>54.450000000000003</ele>
        <time>2018-09-24T12:04:03Z</time>
      </trkpt>
      <trkpt lat="40.730402357876301" lon="13.954840488731861">
        <ele>54.450000000000003</ele>
        <time>2018-09-24T12:04:23Z</time>
      </trkpt>
      <trkpt lat="40.730423564091325" lon="13.954839399084449">
        <ele>54.450000000000003</ele>
        <time>2018-09-24T12:04:42Z</time>
      </trkpt>
      <trkpt lat="40.730418786406517" lon="13.954844176769257">
        <ele>54.450000000000003</ele>
        <time>2018-09-24T12:05:00Z</time>
      </trkpt>
      <trkpt lat="40.730434628203511" lon="13.954839734360576">
        <ele>54.450000000000003</ele>
        <time>2018-09-24T12:05:12Z</time>
      </trkpt>
      <trkpt lat="40.730503695085645" lon="13.954885583370924">
        <ele>53.969999999999999</ele>
        <time>2018-09-24T12:05:21Z</time>
      </trkpt>
      <trkpt lat="40.730527332052588" lon="13.954884661361575">
        <ele>53.969999999999999</ele>
        <time>2018-09-24T12:05:25Z</time>
      </trkpt>
      <trkpt lat="40.73059388436377" lon="13.95493964664638">
        <ele>53.490000000000002</ele>
        <time>2018-09-24T12:05:34Z</time>
      </trkpt>
      <trkpt lat="40.730633698403835" lon="13.954964373260736">
        <ele>52.530000000000001</ele>
        <time>2018-09-24T12:05:40Z</time>
      </trkpt>
      <trkpt lat="40.730714164674282" lon="13.955057747662067">
        <ele>51.57</ele>
        <time>2018-09-24T12:05:50Z</time>
      </trkpt>
      <trkpt lat="40.730791362002492" lon="13.955142488703132">
        <ele>50.130000000000003</ele>
        <time>2018-09-24T12:06:02Z</time>
      </trkpt>
      <trkpt lat="40.730784656479955" lon="13.955124132335186">
        <ele>50.130000000000003</ele>
        <time>2018-09-24T12:06:17Z</time>
      </trkpt>
      <trkpt lat="40.73088264092803" lon="13.955206777900457">
        <ele>49.159999999999997</ele>
        <time>2018-09-24T12:06:28Z</time>
      </trkpt>
      <trkpt lat="40.730934189632535" lon="13.955257320776582">
        <ele>48.68</ele>
        <time>2018-09-24T12:06:34Z</time>
      </trkpt>
      <trkpt lat="40.730975344777107" lon="13.955291770398617">
        <ele>47.240000000000002</ele>
        <time>2018-09-24T12:06:45Z</time>
      </trkpt>
      <trkpt lat="40.730979284271598" lon="13.955294536426663">
        <ele>47.240000000000002</ele>
        <time>2018-09-24T12:06:46Z</time>
      </trkpt>
      <trkpt lat="40.731076346710324" lon="13.955342648550868">
        <ele>46.280000000000001</ele>
        <time>2018-09-24T12:06:56Z</time>
      </trkpt>
      <trkpt lat="40.731075508520007" lon="13.955349773168564">
        <ele>46.280000000000001</ele>
        <time>2018-09-24T12:06:57Z</time>
      </trkpt>
      <trkpt lat="40.731140300631523" lon="13.955356394872069">
        <ele>46.280000000000001</ele>
        <time>2018-09-24T12:07:06Z</time>
      </trkpt>
      <trkpt lat="40.73119780048728" lon="13.955420264974236">
        <ele>45.32</ele>
        <time>2018-09-24T12:07:17Z</time>
      </trkpt>
      <trkpt lat="40.731262005865574" lon="13.955463012680411">
        <ele>45.32</ele>
        <time>2018-09-24T12:07:25Z</time>
      </trkpt>
      <trkpt lat="40.731301987543702" lon="13.95550592802465">
        <ele>44.359999999999999</ele>
        <time>2018-09-24T12:07:34Z</time>
      </trkpt>
      <trkpt lat="40.731392512097955" lon="13.95556946285069">
        <ele>43.880000000000003</ele>
        <time>2018-09-24T12:07:44Z</time>
      </trkpt>
      <trkpt lat="40.731410617008805" lon="13.955595530569553">
        <ele>43.880000000000003</ele>
        <time>2018-09-24T12:07:46Z</time>
      </trkpt>
      <trkpt lat="40.731472223997116" lon="13.955651521682739">
        <ele>42.920000000000002</ele>
        <time>2018-09-24T12:07:52Z</time>
      </trkpt>
      <trkpt lat="40.73155889287591" lon="13.9557277970016">
        <ele>42.439999999999998</ele>
        <time>2018-09-24T12:08:03Z</time>
      </trkpt>
      <trkpt lat="40.731653943657875" lon="13.955868193879724">
        <ele>40.030000000000001</ele>
        <time>2018-09-24T12:08:17Z</time>
      </trkpt>
      <trkpt lat="40.731748240068555" lon="13.956010350957513">
        <ele>37.630000000000003</ele>
        <time>2018-09-24T12:08:31Z</time>
      </trkpt>
      <trkpt lat="40.731866005808115" lon="13.956132307648659">
        <ele>35.710000000000001</ele>
        <time>2018-09-24T12:08:46Z</time>
      </trkpt>
      <trkpt lat="40.731907328590751" lon="13.956169942393899">
        <ele>34.740000000000002</ele>
        <time>2018-09-24T12:08:51Z</time>
      </trkpt>
      <trkpt lat="40.732006905600429" lon="13.956242110580206">
        <ele>32.82</ele>
        <time>2018-09-24T12:09:03Z</time>
      </trkpt>
      <trkpt lat="40.732109835371375" lon="13.956299778074026">
        <ele>30.899999999999999</ele>
        <time>2018-09-24T12:09:15Z</time>
      </trkpt>
      <trkpt lat="40.732165742665529" lon="13.956335568800569">
        <ele>29.460000000000001</ele>
        <time>2018-09-24T12:09:22Z</time>
      </trkpt>
      <trkpt lat="40.732254004105926" lon="13.956363815814257">
        <ele>28.02</ele>
        <time>2018-09-24T12:09:33Z</time>
      </trkpt>
      <trkpt lat="40.732354838401079" lon="13.95636348053813">
        <ele>27.050000000000001</ele>
        <time>2018-09-24T12:09:44Z</time>
      </trkpt>
      <trkpt lat="40.732392473146319" lon="13.956375131383538">
        <ele>26.57</ele>
        <time>2018-09-24T12:09:48Z</time>
      </trkpt>
      <trkpt lat="40.732521638274193" lon="13.956346800550818">
        <ele>24.649999999999999</ele>
        <time>2018-09-24T12:10:02Z</time>
      </trkpt>
      <trkpt lat="40.732641750946641" lon="13.956368342041969">
        <ele>23.690000000000001</ele>
        <time>2018-09-24T12:10:16Z</time>
      </trkpt>
      <trkpt lat="40.732742417603731" lon="13.956423914059997">
        <ele>22.73</ele>
        <time>2018-09-24T12:10:28Z</time>
      </trkpt>
      <trkpt lat="40.732829086482525" lon="13.956513432785869">
        <ele>21.77</ele>
        <time>2018-09-24T12:10:39Z</time>
      </trkpt>
      <trkpt lat="40.732942828908563" lon="13.956604208797216">
        <ele>20.809999999999999</ele>
        <time>2018-09-24T12:10:53Z</time>
      </trkpt>
      <trkpt lat="40.733016841113567" lon="13.95664150826633">
        <ele>20.32</ele>
        <time>2018-09-24T12:11:04Z</time>
      </trkpt>
      <trkpt lat="40.733077693730593" lon="13.956696409732103">
        <ele>19.84</ele>
        <time>2018-09-24T12:11:11Z</time>
      </trkpt>
      <trkpt lat="40.733204847201705" lon="13.956820126622915">
        <ele>18.879999999999999</ele>
        <time>2018-09-24T12:11:23Z</time>
      </trkpt>
      <trkpt lat="40.733283804729581" lon="13.956912662833929">
        <ele>18.399999999999999</ele>
        <time>2018-09-24T12:11:36Z</time>
      </trkpt>
      <trkpt lat="40.733282463625073" lon="13.95694543607533">
        <ele>18.399999999999999</ele>
        <time>2018-09-24T12:11:46Z</time>
      </trkpt>
      <trkpt lat="40.733289504423738" lon="13.956963289529085">
        <ele>18.399999999999999</ele>
        <time>2018-09-24T12:12:02Z</time>
      </trkpt>
      <trkpt lat="40.733292270451784" lon="13.9569625351578">
        <ele>17.920000000000002</ele>
        <time>2018-09-24T12:12:19Z</time>
      </trkpt>
      <trkpt lat="40.733277853578329" lon="13.956973683089018">
        <ele>17.920000000000002</ele>
        <time>2018-09-24T12:12:33Z</time>
      </trkpt>
      <trkpt lat="40.733289001509547" lon="13.956965636461973">
        <ele>18.399999999999999</ele>
        <time>2018-09-24T12:12:42Z</time>
      </trkpt>
      <trkpt lat="40.733297886326909" lon="13.956981813535094">
        <ele>18.399999999999999</ele>
        <time>2018-09-24T12:12:54Z</time>
      </trkpt>
      <trkpt lat="40.733245583251119" lon="13.956993045285344">
        <ele>18.399999999999999</ele>
        <time>2018-09-24T12:13:07Z</time>
      </trkpt>
      <trkpt lat="40.733222113922238" lon="13.957030093297362">
        <ele>18.399999999999999</ele>
        <time>2018-09-24T12:13:17Z</time>
      </trkpt>
      <trkpt lat="40.733198812231421" lon="13.957023974508047">
        <ele>18.399999999999999</ele>
        <time>2018-09-24T12:13:38Z</time>
      </trkpt>
      <trkpt lat="40.733210882171988" lon="13.957102345302701">
        <ele>17.920000000000002</ele>
        <time>2018-09-24T12:13:51Z</time>
      </trkpt>
      <trkpt lat="40.733186658471823" lon="13.957153307273984">
        <ele>18.399999999999999</ele>
        <time>2018-09-24T12:14:00Z</time>
      </trkpt>
      <trkpt lat="40.733186658471823" lon="13.957135621458292">
        <ele>17.920000000000002</ele>
        <time>2018-09-24T12:14:10Z</time>
      </trkpt>
      <trkpt lat="40.733187831938267" lon="13.95715456455946">
        <ele>18.399999999999999</ele>
        <time>2018-09-24T12:14:27Z</time>
      </trkpt>
      <trkpt lat="40.733190011233091" lon="13.957167724147439">
        <ele>17.920000000000002</ele>
        <time>2018-09-24T12:14:45Z</time>
      </trkpt>
      <trkpt lat="40.733201410621405" lon="13.957163952291012">
        <ele>18.399999999999999</ele>
        <time>2018-09-24T12:15:00Z</time>
      </trkpt>
      <trkpt lat="40.733202835544944" lon="13.957230839878321">
        <ele>18.399999999999999</ele>
        <time>2018-09-24T12:15:09Z</time>
      </trkpt>
      <trkpt lat="40.733172576874495" lon="13.957331422716379">
        <ele>18.399999999999999</ele>
        <time>2018-09-24T12:15:19Z</time>
      </trkpt>
      <trkpt lat="40.733131254091859" lon="13.957432089373469">
        <ele>18.879999999999999</ele>
        <time>2018-09-24T12:15:28Z</time>
      </trkpt>
      <trkpt lat="40.733107952401042" lon="13.957553040236235">
        <ele>18.879999999999999</ele>
        <time>2018-09-24T12:15:38Z</time>
      </trkpt>
      <trkpt lat="40.733084985986352" lon="13.957598302513361">
        <ele>18.879999999999999</ele>
        <time>2018-09-24T12:15:47Z</time>
      </trkpt>
      <trkpt lat="40.733060846105218" lon="13.957650773227215">
        <ele>18.399999999999999</ele>
        <time>2018-09-24T12:15:52Z</time>
      </trkpt>
      <trkpt lat="40.732984570786357" lon="13.957790834829211">
        <ele>17.920000000000002</ele>
        <time>2018-09-24T12:16:04Z</time>
      </trkpt>
      <trkpt lat="40.73297593742609" lon="13.957802820950747">
        <ele>17.920000000000002</ele>
        <time>2018-09-24T12:16:05Z</time>
      </trkpt>
      <trkpt lat="40.732876276597381" lon="13.957919245585799">
        <ele>17.920000000000002</ele>
        <time>2018-09-24T12:16:16Z</time>
      </trkpt>
      <trkpt lat="40.732858758419752" lon="13.957988396286964">
        <ele>17.440000000000001</ele>
        <time>2018-09-24T12:16:27Z</time>
      </trkpt>
      <trkpt lat="40.732838977128267" lon="13.957944810390472">
        <ele>17.440000000000001</ele>
        <time>2018-09-24T12:16:45Z</time>
      </trkpt>
      <trkpt lat="40.732828918844461" lon="13.957946905866265">
        <ele>17.440000000000001</ele>
        <time>2018-09-24T12:17:02Z</time>
      </trkpt>
      <trkpt lat="40.732829170301557" lon="13.957936093211174">
        <ele>17.440000000000001</ele>
        <time>2018-09-24T12:17:17Z</time>
      </trkpt>
      <trkpt lat="40.732828499749303" lon="13.957941373810172">
        <ele>17.440000000000001</ele>
        <time>2018-09-24T12:17:32Z</time>
      </trkpt>
      <trkpt lat="40.732827158644795" lon="13.95791488699615">
        <ele>17.920000000000002</ele>
        <time>2018-09-24T12:17:47Z</time>
      </trkpt>
      <trkpt lat="40.732830259948969" lon="13.95791538991034">
        <ele>17.920000000000002</ele>
        <time>2018-09-24T12:17:49Z</time>
      </trkpt>
      <trkpt lat="40.73300083167851" lon="13.958011865615845">
        <ele>16.960000000000001</ele>
        <time>2018-09-24T12:18:04Z</time>
      </trkpt>
      <trkpt lat="40.733123878017068" lon="13.958105072379112">
        <ele>16.48</ele>
        <time>2018-09-24T12:18:15Z</time>
      </trkpt>
      <trkpt lat="40.733139887452126" lon="13.958215713500977">
        <ele>16.960000000000001</ele>
        <time>2018-09-24T12:18:23Z</time>
      </trkpt>
      <trkpt lat="40.7331049349159" lon="13.958347979933023">
        <ele>16.960000000000001</ele>
        <time>2018-09-24T12:18:36Z</time>
      </trkpt>
      <trkpt lat="40.73308733291924" lon="13.958403300493956">
        <ele>16.960000000000001</ele>
        <time>2018-09-24T12:18:48Z</time>
      </trkpt>
      <trkpt lat="40.733099905773997" lon="13.958394834771752">
        <ele>16.960000000000001</ele>
        <time>2018-09-24T12:18:59Z</time>
      </trkpt>
      <trkpt lat="40.733088590204716" lon="13.958436325192451">
        <ele>16.960000000000001</ele>
        <time>2018-09-24T12:19:08Z</time>
      </trkpt>
      <trkpt lat="40.733080543577671" lon="13.958436492830515">
        <ele>16.960000000000001</ele>
        <time>2018-09-24T12:19:27Z</time>
      </trkpt>
      <trkpt lat="40.733087500557303" lon="13.958430541679263">
        <ele>16.960000000000001</ele>
        <time>2018-09-24T12:19:43Z</time>
      </trkpt>
      <trkpt lat="40.733081549406052" lon="13.958436325192451">
        <ele>16.960000000000001</ele>
        <time>2018-09-24T12:19:59Z</time>
      </trkpt>
      <trkpt lat="40.73308146558702" lon="13.958436157554388">
        <ele>16.960000000000001</ele>
        <time>2018-09-24T12:20:18Z</time>
      </trkpt>
      <trkpt lat="40.733077358454466" lon="13.95843867212534">
        <ele>16.960000000000001</ele>
        <time>2018-09-24T12:20:29Z</time>
      </trkpt>
      <trkpt lat="40.733083309605718" lon="13.958433223888278">
        <ele>16.48</ele>
        <time>2018-09-24T12:20:43Z</time>
      </trkpt>
      <trkpt lat="40.733085237443447" lon="13.958434900268912">
        <ele>16.960000000000001</ele>
        <time>2018-09-24T12:20:59Z</time>
      </trkpt>
      <trkpt lat="40.733096469193697" lon="13.958429787307978">
        <ele>16.48</ele>
        <time>2018-09-24T12:21:16Z</time>
      </trkpt>
      <trkpt lat="40.733099151402712" lon="13.958420986309648">
        <ele>16.48</ele>
        <time>2018-09-24T12:21:34Z</time>
      </trkpt>
      <trkpt lat="40.733099989593029" lon="13.958423668518662">
        <ele>16.48</ele>
        <time>2018-09-24T12:21:45Z</time>
      </trkpt>
      <trkpt lat="40.733073251321912" lon="13.958457028493285">
        <ele>16.48</ele>
        <time>2018-09-24T12:21:56Z</time>
      </trkpt>
      <trkpt lat="40.733086410909891" lon="13.95846750587225">
        <ele>16.48</ele>
        <time>2018-09-24T12:22:19Z</time>
      </trkpt>
      <trkpt lat="40.733098480850458" lon="13.958483096212149">
        <ele>16.48</ele>
        <time>2018-09-24T12:22:39Z</time>
      </trkpt>
      <trkpt lat="40.733089512214065" lon="13.958467002958059">
        <ele>16.48</ele>
        <time>2018-09-24T12:23:06Z</time>
      </trkpt>
      <trkpt lat="40.733078867197037" lon="13.958472954109311">
        <ele>16.48</ele>
        <time>2018-09-24T12:23:26Z</time>
      </trkpt>
      <trkpt lat="40.733072329312563" lon="13.958449987694621">
        <ele>16.48</ele>
        <time>2018-09-24T12:23:46Z</time>
      </trkpt>
      <trkpt lat="40.733064450323582" lon="13.958446886390448">
        <ele>16.48</ele>
        <time>2018-09-24T12:24:10Z</time>
      </trkpt>
      <trkpt lat="40.733068305999041" lon="13.958454765379429">
        <ele>16.48</ele>
        <time>2018-09-24T12:24:29Z</time>
      </trkpt>
      <trkpt lat="40.733068305999041" lon="13.958462476730347">
        <ele>16.48</ele>
        <time>2018-09-24T12:24:54Z</time>
      </trkpt>
      <trkpt lat="40.733060762286186" lon="13.958469517529011">
        <ele>16.48</ele>
        <time>2018-09-24T12:25:10Z</time>
      </trkpt>
      <trkpt lat="40.733057074248791" lon="13.958472954109311">
        <ele>16.48</ele>
        <time>2018-09-24T12:25:29Z</time>
      </trkpt>
      <trkpt lat="40.733028994873166" lon="13.95850614644587">
        <ele>15.52</ele>
        <time>2018-09-24T12:25:43Z</time>
      </trkpt>
      <trkpt lat="40.733022624626756" lon="13.958584852516651">
        <ele>14.08</ele>
        <time>2018-09-24T12:25:52Z</time>
      </trkpt>
      <trkpt lat="40.733027989044785" lon="13.958594659343362">
        <ele>14.08</ele>
        <time>2018-09-24T12:25:53Z</time>
      </trkpt>
      <trkpt lat="40.732982726767659" lon="13.95871426910162">
        <ele>14.08</ele>
        <time>2018-09-24T12:26:02Z</time>
      </trkpt>
      <trkpt lat="40.732899494469166" lon="13.958808984607458">
        <ele>13.119999999999999</ele>
        <time>2018-09-24T12:26:12Z</time>
      </trkpt>
      <trkpt lat="40.732811903581023" lon="13.958936305716634">
        <ele>13.6</ele>
        <time>2018-09-24T12:26:26Z</time>
      </trkpt>
      <trkpt lat="40.732733784243464" lon="13.959034038707614">
        <ele>13.119999999999999</ele>
        <time>2018-09-24T12:26:38Z</time>
      </trkpt>
      <trkpt lat="40.732694389298558" lon="13.959072511643171">
        <ele>13.119999999999999</ele>
        <time>2018-09-24T12:26:43Z</time>
      </trkpt>
      <trkpt lat="40.732576791197062" lon="13.959206286817789">
        <ele>13.119999999999999</ele>
        <time>2018-09-24T12:26:56Z</time>
      </trkpt>
      <trkpt lat="40.732516525313258" lon="13.959283567965031">
        <ele>14.56</ele>
        <time>2018-09-24T12:27:04Z</time>
      </trkpt>
      <trkpt lat="40.732447374612093" lon="13.959402088075876">
        <ele>13.119999999999999</ele>
        <time>2018-09-24T12:27:15Z</time>
      </trkpt>
      <trkpt lat="40.732377385720611" lon="13.959548436105251">
        <ele>13.119999999999999</ele>
        <time>2018-09-24T12:27:28Z</time>
      </trkpt>
      <trkpt lat="40.732318880036473" lon="13.959717163816094">
        <ele>13.119999999999999</ele>
        <time>2018-09-24T12:27:42Z</time>
      </trkpt>
      <trkpt lat="40.732278814539313" lon="13.95983912050724">
        <ele>12.630000000000001</ele>
        <time>2018-09-24T12:27:52Z</time>
      </trkpt>
      <trkpt lat="40.732234641909599" lon="13.959991671144962">
        <ele>12.630000000000001</ele>
        <time>2018-09-24T12:28:04Z</time>
      </trkpt>
      <trkpt lat="40.732212932780385" lon="13.960022600367665">
        <ele>12.630000000000001</ele>
        <time>2018-09-24T12:28:07Z</time>
      </trkpt>
      <trkpt lat="40.732120648026466" lon="13.96015327423811">
        <ele>12.15</ele>
        <time>2018-09-24T12:28:20Z</time>
      </trkpt>
      <trkpt lat="40.732113271951675" lon="13.96016257815063">
        <ele>12.15</ele>
        <time>2018-09-24T12:28:21Z</time>
      </trkpt>
      <trkpt lat="40.732073122635484" lon="13.960238685831428">
        <ele>12.630000000000001</ele>
        <time>2018-09-24T12:28:28Z</time>
      </trkpt>
      <trkpt lat="40.732002463191748" lon="13.960362737998366">
        <ele>12.630000000000001</ele>
        <time>2018-09-24T12:28:41Z</time>
      </trkpt>
      <trkpt lat="40.731993326917291" lon="13.960470193997025">
        <ele>12.630000000000001</ele>
        <time>2018-09-24T12:28:50Z</time>
      </trkpt>
      <trkpt lat="40.73197178542614" lon="13.960577482357621">
        <ele>12.630000000000001</ele>
        <time>2018-09-24T12:29:02Z</time>
      </trkpt>
      <trkpt lat="40.73195711709559" lon="13.960634227842093">
        <ele>12.630000000000001</ele>
        <time>2018-09-24T12:29:13Z</time>
      </trkpt>
      <trkpt lat="40.731979580596089" lon="13.960635317489505">
        <ele>12.630000000000001</ele>
        <time>2018-09-24T12:29:35Z</time>
      </trkpt>
      <trkpt lat="40.731989974156022" lon="13.960630036890507">
        <ele>12.630000000000001</ele>
        <time>2018-09-24T12:29:59Z</time>
      </trkpt>
      <trkpt lat="40.731994332745671" lon="13.960641771554947">
        <ele>12.630000000000001</ele>
        <time>2018-09-24T12:30:19Z</time>
      </trkpt>
      <trkpt lat="40.73199818842113" lon="13.960641603916883">
        <ele>12.630000000000001</ele>
        <time>2018-09-24T12:30:37Z</time>
      </trkpt>
      <trkpt lat="40.73199181817472" lon="13.960653422400355">
        <ele>12.630000000000001</ele>
        <time>2018-09-24T12:30:51Z</time>
      </trkpt>
      <trkpt lat="40.731979999691248" lon="13.960756855085492">
        <ele>13.119999999999999</ele>
        <time>2018-09-24T12:31:00Z</time>
      </trkpt>
      <trkpt lat="40.731965582817793" lon="13.960905130952597">
        <ele>13.119999999999999</ele>
        <time>2018-09-24T12:31:11Z</time>
      </trkpt>
      <trkpt lat="40.731966504827142" lon="13.960919044911861">
        <ele>13.119999999999999</ele>
        <time>2018-09-24T12:31:12Z</time>
      </trkpt>
      <trkpt lat="40.731959547847509" lon="13.961078384891152">
        <ele>13.119999999999999</ele>
        <time>2018-09-24T12:31:24Z</time>
      </trkpt>
      <trkpt lat="40.731950411573052" lon="13.96122582256794">
        <ele>13.119999999999999</ele>
        <time>2018-09-24T12:31:35Z</time>
      </trkpt>
      <trkpt lat="40.731955524533987" lon="13.961284663528204">
        <ele>13.119999999999999</ele>
        <time>2018-09-24T12:31:39Z</time>
      </trkpt>
      <trkpt lat="40.731944125145674" lon="13.961466131731868">
        <ele>13.119999999999999</ele>
        <time>2018-09-24T12:31:54Z</time>
      </trkpt>
      <trkpt lat="40.731941442936659" lon="13.961529918015003">
        <ele>13.119999999999999</ele>
        <time>2018-09-24T12:31:59Z</time>
      </trkpt>
      <trkpt lat="40.731933563947678" lon="13.961569312959909">
        <ele>13.119999999999999</ele>
        <time>2018-09-24T12:32:02Z</time>
      </trkpt>
      <trkpt lat="40.731932641938329" lon="13.961591441184282">
        <ele>13.6</ele>
        <time>2018-09-24T12:32:04Z</time>
      </trkpt>
      <trkpt lat="40.731928031891584" lon="13.961643995717168">
        <ele>13.6</ele>
        <time>2018-09-24T12:32:08Z</time>
      </trkpt>
      <trkpt lat="40.731912273913622" lon="13.961806604638696">
        <ele>13.6</ele>
        <time>2018-09-24T12:32:21Z</time>
      </trkpt>
      <trkpt lat="40.731913279742002" lon="13.961956640705466">
        <ele>13.6</ele>
        <time>2018-09-24T12:32:32Z</time>
      </trkpt>
      <trkpt lat="40.731895593926311" lon="13.962099049240351">
        <ele>13.6</ele>
        <time>2018-09-24T12:32:43Z</time>
      </trkpt>
      <trkpt lat="40.731884948909283" lon="13.962265430018306">
        <ele>14.08</ele>
        <time>2018-09-24T12:32:55Z</time>
      </trkpt>
      <trkpt lat="40.731883607804775" lon="13.962277919054031">
        <ele>13.6</ele>
        <time>2018-09-24T12:32:56Z</time>
      </trkpt>
      <trkpt lat="40.731867011636496" lon="13.962444132193923">
        <ele>14.56</ele>
        <time>2018-09-24T12:33:09Z</time>
      </trkpt>
      <trkpt lat="40.731852008029819" lon="13.962587965652347">
        <ele>14.08</ele>
        <time>2018-09-24T12:33:19Z</time>
      </trkpt>
      <trkpt lat="40.731795514002442" lon="13.962776893749833">
        <ele>13.6</ele>
        <time>2018-09-24T12:33:32Z</time>
      </trkpt>
      <trkpt lat="40.731763243675232" lon="13.962945453822613">
        <ele>13.6</ele>
        <time>2018-09-24T12:33:44Z</time>
      </trkpt>
      <trkpt lat="40.731758298352361" lon="13.962967079132795">
        <ele>13.119999999999999</ele>
        <time>2018-09-24T12:33:48Z</time>
      </trkpt>
      <trkpt lat="40.731688477098942" lon="13.963110325857997">
        <ele>13.119999999999999</ele>
        <time>2018-09-24T12:34:00Z</time>
      </trkpt>
      <trkpt lat="40.731602478772402" lon="13.963243346661329">
        <ele>12.15</ele>
        <time>2018-09-24T12:34:13Z</time>
      </trkpt>
      <trkpt lat="40.731496531516314" lon="13.963371841236949">
        <ele>12.15</ele>
        <time>2018-09-24T12:34:26Z</time>
      </trkpt>
      <trkpt lat="40.731420004740357" lon="13.963470077142119">
        <ele>14.08</ele>
        <time>2018-09-24T12:34:37Z</time>
      </trkpt>
      <trkpt lat="40.731384549289942" lon="13.963554902002215">
        <ele>15.039999999999999</ele>
        <time>2018-09-24T12:34:50Z</time>
      </trkpt>
      <trkpt lat="40.731399217620492" lon="13.963571581989527">
        <ele>15.039999999999999</ele>
        <time>2018-09-24T12:35:00Z</time>
      </trkpt>
      <trkpt lat="40.731400810182095" lon="13.96362598054111">
        <ele>16.48</ele>
        <time>2018-09-24T12:35:09Z</time>
      </trkpt>
      <trkpt lat="40.731401983648539" lon="13.963615084066987">
        <ele>15.52</ele>
        <time>2018-09-24T12:35:24Z</time>
      </trkpt>
      <trkpt lat="40.731420507654548" lon="13.963573928922415">
        <ele>15.52</ele>
        <time>2018-09-24T12:35:41Z</time>
      </trkpt>
      <trkpt lat="40.7314108684659" lon="13.963578538969159">
        <ele>15.52</ele>
        <time>2018-09-24T12:35:59Z</time>
      </trkpt>
      <trkpt lat="40.731456549838185" lon="13.963566971942782">
        <ele>16</ele>
        <time>2018-09-24T12:36:22Z</time>
      </trkpt>
      <trkpt lat="40.731234010308981" lon="13.964159656316042">
        <ele>71.269999999999996</ele>
        <time>2018-09-24T12:38:26Z</time>
      </trkpt>
      <trkpt lat="40.731208277866244" lon="13.964182287454605">
        <ele>71.269999999999996</ele>
        <time>2018-09-24T12:38:31Z</time>
      </trkpt>
      <trkpt lat="40.731173828244209" lon="13.964178767055273">
        <ele>70.790000000000006</ele>
        <time>2018-09-24T12:38:41Z</time>
      </trkpt>
      <trkpt lat="40.731248511001468" lon="13.964144568890333">
        <ele>72.719999999999999</ele>
        <time>2018-09-24T12:38:53Z</time>
      </trkpt>
      <trkpt lat="40.731270471587777" lon="13.964122105389833">
        <ele>73.200000000000003</ele>
        <time>2018-09-24T12:38:56Z</time>
      </trkpt>
      <trkpt lat="40.731345657259226" lon="13.964198967441916">
        <ele>74.640000000000001</ele>
        <time>2018-09-24T12:39:05Z</time>
      </trkpt>
      <trkpt lat="40.731373485177755" lon="13.964219084009528">
        <ele>75.120000000000005</ele>
        <time>2018-09-24T12:39:15Z</time>
      </trkpt>
      <trkpt lat="40.731403408572078" lon="13.964260993525386">
        <ele>75.599999999999994</ele>
        <time>2018-09-24T12:39:20Z</time>
      </trkpt>
      <trkpt lat="40.731427129358053" lon="13.96428563632071">
        <ele>75.599999999999994</ele>
        <time>2018-09-24T12:39:31Z</time>
      </trkpt>
      <trkpt lat="40.731382537633181" lon="13.964115316048265">
        <ele>74.640000000000001</ele>
        <time>2018-09-24T12:39:42Z</time>
      </trkpt>
      <trkpt lat="40.731367953121662" lon="13.96410726942122">
        <ele>74.640000000000001</ele>
        <time>2018-09-24T12:40:06Z</time>
      </trkpt>
      <trkpt lat="40.731332749128342" lon="13.964198380708694">
        <ele>75.120000000000005</ele>
        <time>2018-09-24T12:40:17Z</time>
      </trkpt>
      <trkpt lat="40.7313262950629" lon="13.9642827026546">
        <ele>76.079999999999998</ele>
        <time>2018-09-24T12:40:27Z</time>
      </trkpt>
      <trkpt lat="40.731270303949714" lon="13.964351182803512">
        <ele>76.560000000000002</ele>
        <time>2018-09-24T12:40:39Z</time>
      </trkpt>
      <trkpt lat="40.731124626472592" lon="13.964562239125371">
        <ele>76.560000000000002</ele>
        <time>2018-09-24T12:41:15Z</time>
      </trkpt>
      <trkpt lat="40.731216911226511" lon="13.964125206694007">
        <ele>76.079999999999998</ele>
        <time>2018-09-24T12:42:23Z</time>
      </trkpt>
      <trkpt lat="40.731302658095956" lon="13.964355792850256">
        <ele>76.079999999999998</ele>
        <time>2018-09-24T12:42:28Z</time>
      </trkpt>
      <trkpt lat="40.731347752735019" lon="13.964349925518036">
        <ele>76.079999999999998</ele>
        <time>2018-09-24T12:42:39Z</time>
      </trkpt>
      <trkpt lat="40.731330066919327" lon="13.964231740683317">
        <ele>76.079999999999998</ele>
        <time>2018-09-24T12:42:50Z</time>
      </trkpt>
      <trkpt lat="40.731319757178426" lon="13.964226962998509">
        <ele>75.599999999999994</ele>
        <time>2018-09-24T12:43:01Z</time>
      </trkpt>
      <trkpt lat="40.7313331682235" lon="13.964236350730062">
        <ele>75.120000000000005</ele>
        <time>2018-09-24T12:43:16Z</time>
      </trkpt>
      <trkpt lat="40.731327049434185" lon="13.964224699884653">
        <ele>75.120000000000005</ele>
        <time>2018-09-24T12:43:36Z</time>
      </trkpt>
      <trkpt lat="40.731307854875922" lon="13.964233417063951">
        <ele>75.599999999999994</ele>
        <time>2018-09-24T12:43:50Z</time>
      </trkpt>
      <trkpt lat="40.731328055262566" lon="13.964197542518377">
        <ele>74.640000000000001</ele>
        <time>2018-09-24T12:44:06Z</time>
      </trkpt>
      <trkpt lat="40.731327971443534" lon="13.964195447042584">
        <ele>74.159999999999997</ele>
        <time>2018-09-24T12:44:23Z</time>
      </trkpt>
      <trkpt lat="40.73134783655405" lon="13.964192261919379">
        <ele>74.159999999999997</ele>
        <time>2018-09-24T12:44:41Z</time>
      </trkpt>
      <trkpt lat="40.731330988928676" lon="13.964194022119045">
        <ele>74.159999999999997</ele>
        <time>2018-09-24T12:44:59Z</time>
      </trkpt>
      <trkpt lat="40.731353452429175" lon="13.964193183928728">
        <ele>74.159999999999997</ele>
        <time>2018-09-24T12:45:20Z</time>
      </trkpt>
      <trkpt lat="40.731331408023834" lon="13.964197961613536">
        <ele>74.159999999999997</ele>
        <time>2018-09-24T12:45:34Z</time>
      </trkpt>
      <trkpt lat="40.731342220678926" lon="13.964198548346758">
        <ele>75.120000000000005</ele>
        <time>2018-09-24T12:45:41Z</time>
      </trkpt>
      <trkpt lat="40.731345070526004" lon="13.964200392365456">
        <ele>74.159999999999997</ele>
        <time>2018-09-24T12:46:09Z</time>
      </trkpt>
      <trkpt lat="40.731343561783433" lon="13.964196788147092">
        <ele>75.120000000000005</ele>
        <time>2018-09-24T12:46:26Z</time>
      </trkpt>
      <trkpt lat="40.73135320097208" lon="13.964215982705355">
        <ele>74.640000000000001</ele>
        <time>2018-09-24T12:46:43Z</time>
      </trkpt>
      <trkpt lat="40.731380693614483" lon="13.964212713763118">
        <ele>75.120000000000005</ele>
        <time>2018-09-24T12:47:08Z</time>
      </trkpt>
      <trkpt lat="40.731363343074918" lon="13.964180611073971">
        <ele>75.120000000000005</ele>
        <time>2018-09-24T12:47:29Z</time>
      </trkpt>
      <trkpt lat="40.731356889009476" lon="13.964192848652601">
        <ele>75.120000000000005</ele>
        <time>2018-09-24T12:47:52Z</time>
      </trkpt>
      <trkpt lat="40.731361666694283" lon="13.9641791023314">
        <ele>75.120000000000005</ele>
        <time>2018-09-24T12:48:05Z</time>
      </trkpt>
      <trkpt lat="40.731361834332347" lon="13.964180108159781">
        <ele>75.120000000000005</ele>
        <time>2018-09-24T12:48:25Z</time>
      </trkpt>
      <trkpt lat="40.731351356953382" lon="13.964190585538745">
        <ele>75.120000000000005</ele>
        <time>2018-09-24T12:48:45Z</time>
      </trkpt>
      <trkpt lat="40.731355631724" lon="13.964176252484322">
        <ele>75.120000000000005</ele>
        <time>2018-09-24T12:49:01Z</time>
      </trkpt>
      <trkpt lat="40.731361918151379" lon="13.964189160615206">
        <ele>75.120000000000005</ele>
        <time>2018-09-24T12:49:24Z</time>
      </trkpt>
      <trkpt lat="40.731358146294951" lon="13.964178767055273">
        <ele>76.079999999999998</ele>
        <time>2018-09-24T12:49:40Z</time>
      </trkpt>
      <trkpt lat="40.731353703886271" lon="13.96414540708065">
        <ele>75.599999999999994</ele>
        <time>2018-09-24T12:49:50Z</time>
      </trkpt>
      <trkpt lat="40.73134783655405" lon="13.964155465364456">
        <ele>76.079999999999998</ele>
        <time>2018-09-24T12:50:01Z</time>
      </trkpt>
      <trkpt lat="40.731360074132681" lon="13.964118165895343">
        <ele>76.079999999999998</ele>
        <time>2018-09-24T12:50:12Z</time>
      </trkpt>
      <trkpt lat="40.73137859813869" lon="13.964102324098349">
        <ele>76.079999999999998</ele>
        <time>2018-09-24T12:50:27Z</time>
      </trkpt>
      <trkpt lat="40.731358397752047" lon="13.964104419574142">
        <ele>76.079999999999998</ele>
        <time>2018-09-24T12:50:43Z</time>
      </trkpt>
      <trkpt lat="40.731360912322998" lon="13.964087571948767">
        <ele>76.079999999999998</ele>
        <time>2018-09-24T12:50:52Z</time>
      </trkpt>
      <trkpt lat="40.731400642544031" lon="13.964135013520718">
        <ele>75.599999999999994</ele>
        <time>2018-09-24T12:51:09Z</time>
      </trkpt>
      <trkpt lat="40.731408353894949" lon="13.964095450937748">
        <ele>76.079999999999998</ele>
        <time>2018-09-24T12:51:27Z</time>
      </trkpt>
      <trkpt lat="40.731389243155718" lon="13.964092181995511">
        <ele>75.599999999999994</ele>
        <time>2018-09-24T12:51:45Z</time>
      </trkpt>
      <trkpt lat="40.731396116316319" lon="13.964086817577481">
        <ele>76.079999999999998</ele>
        <time>2018-09-24T12:52:01Z</time>
      </trkpt>
      <trkpt lat="40.731377927586436" lon="13.964075921103358">
        <ele>76.079999999999998</ele>
        <time>2018-09-24T12:52:22Z</time>
      </trkpt>
      <trkpt lat="40.731383040547371" lon="13.964076843112707">
        <ele>75.599999999999994</ele>
        <time>2018-09-24T12:52:40Z</time>
      </trkpt>
      <trkpt lat="40.731384549289942" lon="13.964085392653942">
        <ele>75.599999999999994</ele>
        <time>2018-09-24T12:52:54Z</time>
      </trkpt>
      <trkpt lat="40.7313815318048" lon="13.96410777233541">
        <ele>75.599999999999994</ele>
        <time>2018-09-24T12:53:17Z</time>
      </trkpt>
      <trkpt lat="40.731367534026504" lon="13.964223777875304">
        <ele>76.079999999999998</ele>
        <time>2018-09-24T12:53:32Z</time>
      </trkpt>
      <trkpt lat="40.731379687786102" lon="13.96427339874208">
        <ele>76.079999999999998</ele>
        <time>2018-09-24T12:53:44Z</time>
      </trkpt>
      <trkpt lat="40.73141816072166" lon="13.964284965768456">
        <ele>78.480000000000004</ele>
        <time>2018-09-24T12:54:00Z</time>
      </trkpt>
      <trkpt lat="40.731783611699939" lon="13.964129816740751">
        <ele>76.079999999999998</ele>
        <time>2018-09-24T12:54:52Z</time>
      </trkpt>
      <trkpt lat="40.731726447120309" lon="13.964139875024557">
        <ele>75.599999999999994</ele>
        <time>2018-09-24T12:55:03Z</time>
      </trkpt>
      <trkpt lat="40.731731727719307" lon="13.964138785377145">
        <ele>75.599999999999994</ele>
        <time>2018-09-24T12:55:14Z</time>
      </trkpt>
      <trkpt lat="40.731736170127988" lon="13.964127218350768">
        <ele>75.599999999999994</ele>
        <time>2018-09-24T12:55:43Z</time>
      </trkpt>
      <trkpt lat="40.731737427413464" lon="13.964125793427229">
        <ele>75.599999999999994</ele>
        <time>2018-09-24T12:56:04Z</time>
      </trkpt>
      <trkpt lat="40.731728626415133" lon="13.964133337140083">
        <ele>75.599999999999994</ele>
        <time>2018-09-24T12:56:23Z</time>
      </trkpt>
      <trkpt lat="40.731735667213798" lon="13.964129146188498">
        <ele>76.079999999999998</ele>
        <time>2018-09-24T12:56:39Z</time>
      </trkpt>
      <trkpt lat="40.73174262419343" lon="13.964115902781487">
        <ele>75.599999999999994</ele>
        <time>2018-09-24T12:56:58Z</time>
      </trkpt>
      <trkpt lat="40.731744300574064" lon="13.964123446494341">
        <ele>76.079999999999998</ele>
        <time>2018-09-24T12:57:27Z</time>
      </trkpt>
      <trkpt lat="40.731746312230825" lon="13.964130822569132">
        <ele>76.079999999999998</ele>
        <time>2018-09-24T12:57:54Z</time>
      </trkpt>
      <trkpt lat="40.731723597273231" lon="13.964137360453606">
        <ele>76.079999999999998</ele>
        <time>2018-09-24T12:58:22Z</time>
      </trkpt>
      <trkpt lat="40.731724770739675" lon="13.964175330474973">
        <ele>76.079999999999998</ele>
        <time>2018-09-24T12:58:32Z</time>
      </trkpt>
      <trkpt lat="40.731688058003783" lon="13.96421967074275">
        <ele>77.040000000000006</ele>
        <time>2018-09-24T12:58:43Z</time>
      </trkpt>
      <trkpt lat="40.731668528169394" lon="13.96416837349534">
        <ele>76.560000000000002</ele>
        <time>2018-09-24T12:59:02Z</time>
      </trkpt>
      <trkpt lat="40.731760812923312" lon="13.964109951630235">
        <ele>76.560000000000002</ele>
        <time>2018-09-24T12:59:12Z</time>
      </trkpt>
      <trkpt lat="40.731770368292928" lon="13.96412679925561">
        <ele>76.560000000000002</ele>
        <time>2018-09-24T12:59:34Z</time>
      </trkpt>
      <trkpt lat="40.731714544817805" lon="13.964179772883654">
        <ele>76.560000000000002</ele>
        <time>2018-09-24T12:59:50Z</time>
      </trkpt>
      <trkpt lat="40.73169182986021" lon="13.964173821732402">
        <ele>77.040000000000006</ele>
        <time>2018-09-24T13:00:03Z</time>
      </trkpt>
      <trkpt lat="40.73166492395103" lon="13.964193686842918">
        <ele>76.560000000000002</ele>
        <time>2018-09-24T13:00:15Z</time>
      </trkpt>
      <trkpt lat="40.731682609766722" lon="13.96419913507998">
        <ele>76.560000000000002</ele>
        <time>2018-09-24T13:00:25Z</time>
      </trkpt>
      <trkpt lat="40.731693422421813" lon="13.964186813682318">
        <ele>76.560000000000002</ele>
        <time>2018-09-24T13:00:47Z</time>
      </trkpt>
      <trkpt lat="40.731694595888257" lon="13.964189579710364">
        <ele>77.040000000000006</ele>
        <time>2018-09-24T13:01:09Z</time>
      </trkpt>
      <trkpt lat="40.731705743819475" lon="13.964169295504689">
        <ele>75.599999999999994</ele>
        <time>2018-09-24T13:01:21Z</time>
      </trkpt>
      <trkpt lat="40.731700966134667" lon="13.964168624952435">
        <ele>77.040000000000006</ele>
        <time>2018-09-24T13:01:24Z</time>
      </trkpt>
      <trkpt lat="40.731681184843183" lon="13.964194022119045">
        <ele>77.040000000000006</ele>
        <time>2018-09-24T13:01:42Z</time>
      </trkpt>
      <trkpt lat="40.731681436300278" lon="13.9641791023314">
        <ele>77.519999999999996</ele>
        <time>2018-09-24T13:02:04Z</time>
      </trkpt>
      <trkpt lat="40.731683699414134" lon="13.964209947735071">
        <ele>77.040000000000006</ele>
        <time>2018-09-24T13:02:19Z</time>
      </trkpt>
      <trkpt lat="40.731652099639177" lon="13.964238110929728">
        <ele>77.519999999999996</ele>
        <time>2018-09-24T13:02:30Z</time>
      </trkpt>
      <trkpt lat="40.731490328907967" lon="13.964489819481969">
        <ele>82.329999999999998</ele>
        <time>2018-09-24T13:09:29Z</time>
      </trkpt>
      <trkpt lat="40.731488820165396" lon="13.964494932442904">
        <ele>82.329999999999998</ele>
        <time>2018-09-24T13:09:30Z</time>
      </trkpt>
      <trkpt lat="40.731457388028502" lon="13.964483784511685">
        <ele>82.329999999999998</ele>
        <time>2018-09-24T13:09:47Z</time>
      </trkpt>
      <trkpt lat="40.731363175436854" lon="13.964302148669958">
        <ele>81.370000000000005</ele>
        <time>2018-09-24T13:10:10Z</time>
      </trkpt>
      <trkpt lat="40.73137566447258" lon="13.964282115921378">
        <ele>80.409999999999997</ele>
        <time>2018-09-24T13:10:19Z</time>
      </trkpt>
      <trkpt lat="40.731352530419827" lon="13.964200476184487">
        <ele>79.930000000000007</ele>
        <time>2018-09-24T13:10:30Z</time>
      </trkpt>
      <trkpt lat="40.731353368610144" lon="13.964224029332399">
        <ele>79.930000000000007</ele>
        <time>2018-09-24T13:10:42Z</time>
      </trkpt>
      <trkpt lat="40.731353536248207" lon="13.964217156171799">
        <ele>80.409999999999997</ele>
        <time>2018-09-24T13:10:55Z</time>
      </trkpt>
      <trkpt lat="40.731341382488608" lon="13.96421673707664">
        <ele>79.930000000000007</ele>
        <time>2018-09-24T13:11:15Z</time>
      </trkpt>
      <trkpt lat="40.731350937858224" lon="13.964232243597507">
        <ele>79.450000000000003</ele>
        <time>2018-09-24T13:11:26Z</time>
      </trkpt>
      <trkpt lat="40.731360157951713" lon="13.964251019060612">
        <ele>79.450000000000003</ele>
        <time>2018-09-24T13:11:47Z</time>
      </trkpt>
      <trkpt lat="40.73136493563652" lon="13.964231489226222">
        <ele>79.450000000000003</ele>
        <time>2018-09-24T13:12:13Z</time>
      </trkpt>
      <trkpt lat="40.731322858482599" lon="13.964229477569461">
        <ele>78.969999999999999</ele>
        <time>2018-09-24T13:12:38Z</time>
      </trkpt>
      <trkpt lat="40.731323696672916" lon="13.964234422892332">
        <ele>79.450000000000003</ele>
        <time>2018-09-24T13:13:05Z</time>
      </trkpt>
      <trkpt lat="40.731337862089276" lon="13.964224029332399">
        <ele>79.450000000000003</ele>
        <time>2018-09-24T13:13:33Z</time>
      </trkpt>
      <trkpt lat="40.731309531256557" lon="13.964191423729062">
        <ele>78.969999999999999</ele>
        <time>2018-09-24T13:13:56Z</time>
      </trkpt>
      <trkpt lat="40.731306849047542" lon="13.964213971048594">
        <ele>78.969999999999999</ele>
        <time>2018-09-24T13:14:24Z</time>
      </trkpt>
      <trkpt lat="40.731335347518325" lon="13.964210534468293">
        <ele>78.969999999999999</ele>
        <time>2018-09-24T13:14:50Z</time>
      </trkpt>
      <trkpt lat="40.731356721371412" lon="13.964251354336739">
        <ele>78.969999999999999</ele>
        <time>2018-09-24T13:15:15Z</time>
      </trkpt>
      <trkpt lat="40.731375832110643" lon="13.964263089001179">
        <ele>78.480000000000004</ele>
        <time>2018-09-24T13:15:50Z</time>
      </trkpt>
      <trkpt lat="40.73134490288794" lon="13.964238194748759">
        <ele>78.480000000000004</ele>
        <time>2018-09-24T13:16:18Z</time>
      </trkpt>
      <trkpt lat="40.731333503499627" lon="13.96425923332572">
        <ele>78</ele>
        <time>2018-09-24T13:16:39Z</time>
      </trkpt>
      <trkpt lat="40.731313638389111" lon="13.964241966605186">
        <ele>78</ele>
        <time>2018-09-24T13:17:04Z</time>
      </trkpt>
      <trkpt lat="40.731341298669577" lon="13.964261496439576">
        <ele>78</ele>
        <time>2018-09-24T13:17:19Z</time>
      </trkpt>
      <trkpt lat="40.731397457420826" lon="13.964275661855936">
        <ele>77.519999999999996</ele>
        <time>2018-09-24T13:17:45Z</time>
      </trkpt>
      <trkpt lat="40.731353536248207" lon="13.964247750118375">
        <ele>78.480000000000004</ele>
        <time>2018-09-24T13:17:56Z</time>
      </trkpt>
      <trkpt lat="40.731360744684935" lon="13.964184550568461">
        <ele>77.519999999999996</ele>
        <time>2018-09-24T13:18:07Z</time>
      </trkpt>
      <trkpt lat="40.731324199587107" lon="13.964140880852938">
        <ele>76.560000000000002</ele>
        <time>2018-09-24T13:18:18Z</time>
      </trkpt>
      <trkpt lat="40.731233423575759" lon="13.964156052097678">
        <ele>75.120000000000005</ele>
        <time>2018-09-24T13:18:30Z</time>
      </trkpt>
      <trkpt lat="40.731177013367414" lon="13.964189998805523">
        <ele>73.200000000000003</ele>
        <time>2018-09-24T13:18:41Z</time>
      </trkpt>
      <trkpt lat="40.731095122173429" lon="13.964251019060612">
        <ele>73.680000000000007</ele>
        <time>2018-09-24T13:18:55Z</time>
      </trkpt>
      <trkpt lat="40.731057235971093" lon="13.964289659634233">
        <ele>73.200000000000003</ele>
        <time>2018-09-24T13:19:08Z</time>
      </trkpt>
      <trkpt lat="40.73105807416141" lon="13.964324863627553">
        <ele>73.200000000000003</ele>
        <time>2018-09-24T13:19:21Z</time>
      </trkpt>
      <trkpt lat="40.730951791629195" lon="13.964414549991488">
        <ele>77.519999999999996</ele>
        <time>2018-09-24T13:20:10Z</time>
      </trkpt>
      <trkpt lat="40.730969812721014" lon="13.964349674060941">
        <ele>77.519999999999996</ele>
        <time>2018-09-24T13:20:19Z</time>
      </trkpt>
      <trkpt lat="40.731007279828191" lon="13.96430759690702">
        <ele>77.040000000000006</ele>
        <time>2018-09-24T13:20:28Z</time>
      </trkpt>
      <trkpt lat="40.731015577912331" lon="13.964325534179807">
        <ele>76.560000000000002</ele>
        <time>2018-09-24T13:20:35Z</time>
      </trkpt>
      <trkpt lat="40.730984732508659" lon="13.964380519464612">
        <ele>77.519999999999996</ele>
        <time>2018-09-24T13:20:42Z</time>
      </trkpt>
      <trkpt lat="40.730927567929029" lon="13.964433493092656">
        <ele>77.040000000000006</ele>
        <time>2018-09-24T13:20:50Z</time>
      </trkpt>
      <trkpt lat="40.730845676735044" lon="13.964418070390821">
        <ele>77.519999999999996</ele>
        <time>2018-09-24T13:21:03Z</time>
      </trkpt>
      <trkpt lat="40.73085187934339" lon="13.964411867782474">
        <ele>77.519999999999996</ele>
        <time>2018-09-24T13:21:21Z</time>
      </trkpt>
      <trkpt lat="40.730888256803155" lon="13.964364845305681">
        <ele>77.519999999999996</ele>
        <time>2018-09-24T13:21:36Z</time>
      </trkpt>
      <trkpt lat="40.730883227661252" lon="13.964346656575799">
        <ele>77.519999999999996</ele>
        <time>2018-09-24T13:21:46Z</time>
      </trkpt>
      <trkpt lat="40.730899069458246" lon="13.964318996295333">
        <ele>77.040000000000006</ele>
        <time>2018-09-24T13:21:58Z</time>
      </trkpt>
      <trkpt lat="40.730911307036877" lon="13.964327545836568">
        <ele>77.519999999999996</ele>
        <time>2018-09-24T13:22:19Z</time>
      </trkpt>
      <trkpt lat="40.73090611025691" lon="13.964380016550422">
        <ele>77.519999999999996</ele>
        <time>2018-09-24T13:22:28Z</time>
      </trkpt>
      <trkpt lat="40.730900410562754" lon="13.964359480887651">
        <ele>77.519999999999996</ele>
        <time>2018-09-24T13:22:41Z</time>
      </trkpt>
      <trkpt lat="40.730908373370767" lon="13.964367192238569">
        <ele>78</ele>
        <time>2018-09-24T13:22:56Z</time>
      </trkpt>
      <trkpt lat="40.730923796072602" lon="13.964404659345746">
        <ele>77.519999999999996</ele>
        <time>2018-09-24T13:23:08Z</time>
      </trkpt>
      <trkpt lat="40.730897476896644" lon="13.964467355981469">
        <ele>77.519999999999996</ele>
        <time>2018-09-24T13:23:21Z</time>
      </trkpt>
      <trkpt lat="40.730893705040216" lon="13.964365599676967">
        <ele>77.519999999999996</ele>
        <time>2018-09-24T13:23:32Z</time>
      </trkpt>
      <trkpt lat="40.73090024292469" lon="13.964334586635232">
        <ele>77.519999999999996</ele>
        <time>2018-09-24T13:23:45Z</time>
      </trkpt>
      <trkpt lat="40.73090024292469" lon="13.964356295764446">
        <ele>77.519999999999996</ele>
        <time>2018-09-24T13:23:56Z</time>
      </trkpt>
      <trkpt lat="40.730903344228864" lon="13.964349506422877">
        <ele>77.519999999999996</ele>
        <time>2018-09-24T13:24:11Z</time>
      </trkpt>
      <trkpt lat="40.730895297601819" lon="13.964360905811191">
        <ele>77.040000000000006</ele>
        <time>2018-09-24T13:24:35Z</time>
      </trkpt>
      <trkpt lat="40.730896638706326" lon="13.964344477280974">
        <ele>77.040000000000006</ele>
        <time>2018-09-24T13:24:56Z</time>
      </trkpt>
      <trkpt lat="40.730892196297646" lon="13.964349422603846">
        <ele>77.040000000000006</ele>
        <time>2018-09-24T13:25:16Z</time>
      </trkpt>
      <trkpt lat="40.730898901820183" lon="13.964346824213862">
        <ele>77.040000000000006</ele>
        <time>2018-09-24T13:25:37Z</time>
      </trkpt>
      <trkpt lat="40.73089043609798" lon="13.964358223602176">
        <ele>76.560000000000002</ele>
        <time>2018-09-24T13:25:53Z</time>
      </trkpt>
      <trkpt lat="40.730904014781117" lon="13.964355625212193">
        <ele>76.560000000000002</ele>
        <time>2018-09-24T13:26:11Z</time>
      </trkpt>
      <trkpt lat="40.730898482725024" lon="13.96436283364892">
        <ele>76.560000000000002</ele>
        <time>2018-09-24T13:26:41Z</time>
      </trkpt>
      <trkpt lat="40.730898147448897" lon="13.964345483109355">
        <ele>76.560000000000002</ele>
        <time>2018-09-24T13:27:08Z</time>
      </trkpt>
      <trkpt lat="40.730901416391134" lon="13.964338023215532">
        <ele>76.560000000000002</ele>
        <time>2018-09-24T13:27:29Z</time>
      </trkpt>
      <trkpt lat="40.730902757495642" lon="13.964350847527385">
        <ele>76.560000000000002</ele>
        <time>2018-09-24T13:28:00Z</time>
      </trkpt>
      <trkpt lat="40.730898231267929" lon="13.964350512251258">
        <ele>76.079999999999998</ele>
        <time>2018-09-24T13:28:29Z</time>
      </trkpt>
      <trkpt lat="40.730890771374106" lon="13.964353110641241">
        <ele>76.079999999999998</ele>
        <time>2018-09-24T13:28:59Z</time>
      </trkpt>
      <trkpt lat="40.730902841314673" lon="13.964343890547752">
        <ele>76.079999999999998</ele>
        <time>2018-09-24T13:29:27Z</time>
      </trkpt>
      <trkpt lat="40.730898398905993" lon="13.964354954659939">
        <ele>76.079999999999998</ele>
        <time>2018-09-24T13:29:41Z</time>
      </trkpt>
      <trkpt lat="40.730890603736043" lon="13.964342046529055">
        <ele>76.079999999999998</ele>
        <time>2018-09-24T13:29:50Z</time>
      </trkpt>
      <trkpt lat="40.730898650363088" lon="13.96434866823256">
        <ele>76.079999999999998</ele>
        <time>2018-09-24T13:30:06Z</time>
      </trkpt>
      <trkpt lat="40.730893788859248" lon="13.964351685717702">
        <ele>75.599999999999994</ele>
        <time>2018-09-24T13:30:29Z</time>
      </trkpt>
      <trkpt lat="40.730889849364758" lon="13.964352691546082">
        <ele>75.599999999999994</ele>
        <time>2018-09-24T13:30:47Z</time>
      </trkpt>
      <trkpt lat="40.730889933183789" lon="13.964346908032894">
        <ele>75.599999999999994</ele>
        <time>2018-09-24T13:31:01Z</time>
      </trkpt>
      <trkpt lat="40.730916922912002" lon="13.964411867782474">
        <ele>76.079999999999998</ele>
        <time>2018-09-24T13:31:12Z</time>
      </trkpt>
      <trkpt lat="40.730925807729363" lon="13.964499123394489">
        <ele>75.599999999999994</ele>
        <time>2018-09-24T13:31:22Z</time>
      </trkpt>
      <trkpt lat="40.730935698375106" lon="13.964486215263605">
        <ele>75.120000000000005</ele>
        <time>2018-09-24T13:31:32Z</time>
      </trkpt>
      <trkpt lat="40.730977104976773" lon="13.964407257735729">
        <ele>76.079999999999998</ele>
        <time>2018-09-24T13:31:42Z</time>
      </trkpt>
      <trkpt lat="40.731085315346718" lon="13.964402228593826">
        <ele>72.719999999999999</ele>
        <time>2018-09-24T13:31:58Z</time>
      </trkpt>
      <trkpt lat="40.73091340251267" lon="13.964513540267944">
        <ele>71.760000000000005</ele>
        <time>2018-09-24T13:32:12Z</time>
      </trkpt>
      <trkpt lat="40.730891693383455" lon="13.964551342651248">
        <ele>71.269999999999996</ele>
        <time>2018-09-24T13:32:21Z</time>
      </trkpt>
      <trkpt lat="40.730848778039217" lon="13.964600628241897">
        <ele>71.269999999999996</ele>
        <time>2018-09-24T13:32:32Z</time>
      </trkpt>
      <trkpt lat="40.730842910706997" lon="13.964633652940392">
        <ele>71.269999999999996</ele>
        <time>2018-09-24T13:32:35Z</time>
      </trkpt>
      <trkpt lat="40.730755990371108" lon="13.964677322655916">
        <ele>70.790000000000006</ele>
        <time>2018-09-24T13:32:49Z</time>
      </trkpt>
      <trkpt lat="40.730715841054916" lon="13.964733565226197">
        <ele>70.790000000000006</ele>
        <time>2018-09-24T13:33:00Z</time>
      </trkpt>
      <trkpt lat="40.730711985379457" lon="13.964750915765762">
        <ele>70.790000000000006</ele>
        <time>2018-09-24T13:33:11Z</time>
      </trkpt>
      <trkpt lat="40.730669153854251" lon="13.96477036178112">
        <ele>70.790000000000006</ele>
        <time>2018-09-24T13:33:23Z</time>
      </trkpt>
      <trkpt lat="40.730711566284299" lon="13.964786119759083">
        <ele>70.790000000000006</ele>
        <time>2018-09-24T13:33:38Z</time>
      </trkpt>
      <trkpt lat="40.730691198259592" lon="13.964727446436882">
        <ele>70.790000000000006</ele>
        <time>2018-09-24T13:33:47Z</time>
      </trkpt>
      <trkpt lat="40.730673680081964" lon="13.964703558012843">
        <ele>69.829999999999998</ele>
        <time>2018-09-24T13:33:56Z</time>
      </trkpt>
      <trkpt lat="40.730633027851582" lon="13.964679585769773">
        <ele>66.469999999999999</ele>
        <time>2018-09-24T13:34:07Z</time>
      </trkpt>
      <trkpt lat="40.730636632069945" lon="13.964672209694982">
        <ele>65.989999999999995</ele>
        <time>2018-09-24T13:34:19Z</time>
      </trkpt>
      <trkpt lat="40.730633866041899" lon="13.964677238836884">
        <ele>65.989999999999995</ele>
        <time>2018-09-24T13:34:20Z</time>
      </trkpt>
      <trkpt lat="40.730606289580464" lon="13.964676568284631">
        <ele>65.989999999999995</ele>
        <time>2018-09-24T13:34:33Z</time>
      </trkpt>
      <trkpt lat="40.730597237125039" lon="13.964641951024532">
        <ele>65.030000000000001</ele>
        <time>2018-09-24T13:34:46Z</time>
      </trkpt>
      <trkpt lat="40.730530517175794" lon="13.964656116440892">
        <ele>63.579999999999998</ele>
        <time>2018-09-24T13:34:57Z</time>
      </trkpt>
      <trkpt lat="40.730524817481637" lon="13.964589647948742">
        <ele>62.619999999999997</ele>
        <time>2018-09-24T13:35:05Z</time>
      </trkpt>
      <trkpt lat="40.730569493025541" lon="13.964501805603504">
        <ele>62.619999999999997</ele>
        <time>2018-09-24T13:35:16Z</time>
      </trkpt>
      <trkpt lat="40.730579718947411" lon="13.964439444243908">
        <ele>63.100000000000001</ele>
        <time>2018-09-24T13:35:27Z</time>
      </trkpt>
      <trkpt lat="40.730602014809847" lon="13.964375406503677">
        <ele>63.579999999999998</ele>
        <time>2018-09-24T13:35:37Z</time>
      </trkpt>
      <trkpt lat="40.730628417804837" lon="13.96434523165226">
        <ele>64.549999999999997</ele>
        <time>2018-09-24T13:35:49Z</time>
      </trkpt>
      <trkpt lat="40.730636212974787" lon="13.96434229798615">
        <ele>64.549999999999997</ele>
        <time>2018-09-24T13:35:50Z</time>
      </trkpt>
      <trkpt lat="40.730708800256252" lon="13.964356714859605">
        <ele>65.510000000000005</ele>
        <time>2018-09-24T13:36:00Z</time>
      </trkpt>
      <trkpt lat="40.730744088068604" lon="13.964416813105345">
        <ele>65.989999999999995</ele>
        <time>2018-09-24T13:36:11Z</time>
      </trkpt>
      <trkpt lat="40.730736125260592" lon="13.96453726105392">
        <ele>67.909999999999997</ele>
        <time>2018-09-24T13:36:27Z</time>
      </trkpt>
      <trkpt lat="40.730797313153744" lon="13.964570118114352">
        <ele>70.790000000000006</ele>
        <time>2018-09-24T13:36:51Z</time>
      </trkpt>
      <trkpt lat="40.730872163549066" lon="13.964568022638559">
        <ele>70.790000000000006</ele>
        <time>2018-09-24T13:37:02Z</time>
      </trkpt>
      <trkpt lat="40.730918431654572" lon="13.964482108131051">
        <ele>70.790000000000006</ele>
        <time>2018-09-24T13:37:14Z</time>
      </trkpt>
      <trkpt lat="40.730972159653902" lon="13.964414214715362">
        <ele>71.269999999999996</ele>
        <time>2018-09-24T13:37:32Z</time>
      </trkpt>
      <trkpt lat="40.730974758043885" lon="13.964431816712022">
        <ele>71.269999999999996</ele>
        <time>2018-09-24T13:37:45Z</time>
      </trkpt>
      <trkpt lat="40.730961263179779" lon="13.964347410947084">
        <ele>71.269999999999996</ele>
        <time>2018-09-24T13:37:54Z</time>
      </trkpt>
      <trkpt lat="40.731075424700975" lon="13.964587384834886">
        <ele>72.239999999999995</ele>
        <time>2018-09-24T13:38:20Z</time>
      </trkpt>
      <trkpt lat="40.731006106361747" lon="13.964283959940076">
        <ele>69.349999999999994</ele>
        <time>2018-09-24T13:38:26Z</time>
      </trkpt>
      <trkpt lat="40.730933099985123" lon="13.96425386890769">
        <ele>66.950000000000003</ele>
        <time>2018-09-24T13:38:39Z</time>
      </trkpt>
      <trkpt lat="40.730929495766759" lon="13.964176336303353">
        <ele>67.430000000000007</ele>
        <time>2018-09-24T13:38:50Z</time>
      </trkpt>
      <trkpt lat="40.730918347835541" lon="13.964147502556443">
        <ele>67.430000000000007</ele>
        <time>2018-09-24T13:39:03Z</time>
      </trkpt>
      <trkpt lat="40.730881551280618" lon="13.964118836447597">
        <ele>65.030000000000001</ele>
        <time>2018-09-24T13:39:13Z</time>
      </trkpt>
      <trkpt lat="40.730690779164433" lon="13.964155297726393">
        <ele>62.619999999999997</ele>
        <time>2018-09-24T13:39:39Z</time>
      </trkpt>
      <trkpt lat="40.730852466076612" lon="13.96413903683424">
        <ele>65.510000000000005</ele>
        <time>2018-09-24T13:46:20Z</time>
      </trkpt>
      <trkpt lat="40.730869732797146" lon="13.964048344641924">
        <ele>64.549999999999997</ele>
        <time>2018-09-24T13:46:30Z</time>
      </trkpt>
      <trkpt lat="40.730846598744392" lon="13.963969051837921">
        <ele>63.100000000000001</ele>
        <time>2018-09-24T13:46:42Z</time>
      </trkpt>
      <trkpt lat="40.730841318145394" lon="13.963968716561794">
        <ele>63.100000000000001</ele>
        <time>2018-09-24T13:46:51Z</time>
      </trkpt>
      <trkpt lat="40.730817010626197" lon="13.9639753382653">
        <ele>62.619999999999997</ele>
        <time>2018-09-24T13:47:01Z</time>
      </trkpt>
      <trkpt lat="40.730734029784799" lon="13.964025378227234">
        <ele>59.740000000000002</ele>
        <time>2018-09-24T13:47:11Z</time>
      </trkpt>
      <trkpt lat="40.730641828849912" lon="13.964067036285996">
        <ele>57.82</ele>
        <time>2018-09-24T13:47:23Z</time>
      </trkpt>
      <trkpt lat="40.730590783059597" lon="13.964143227785826">
        <ele>56.369999999999997</ele>
        <time>2018-09-24T13:47:34Z</time>
      </trkpt>
      <trkpt lat="40.730532109737396" lon="13.964140880852938">
        <ele>54.93</ele>
        <time>2018-09-24T13:47:44Z</time>
      </trkpt>
      <trkpt lat="40.730581060051918" lon="13.964074160903692">
        <ele>53.969999999999999</ele>
        <time>2018-09-24T13:47:53Z</time>
      </trkpt>
      <trkpt lat="40.730594303458929" lon="13.964052451774478">
        <ele>53.490000000000002</ele>
        <time>2018-09-24T13:47:56Z</time>
      </trkpt>
      <trkpt lat="40.730701675638556" lon="13.963925298303366">
        <ele>52.049999999999997</ele>
        <time>2018-09-24T13:48:10Z</time>
      </trkpt>
      <trkpt lat="40.730727408081293" lon="13.963899062946439">
        <ele>51.57</ele>
        <time>2018-09-24T13:48:13Z</time>
      </trkpt>
      <trkpt lat="40.730774262920022" lon="13.963811388239264">
        <ele>51.090000000000003</ele>
        <time>2018-09-24T13:48:25Z</time>
      </trkpt>
      <trkpt lat="40.730818770825863" lon="13.963788505643606">
        <ele>49.159999999999997</ele>
        <time>2018-09-24T13:48:31Z</time>
      </trkpt>
      <trkpt lat="40.730880796909332" lon="13.963758666068316">
        <ele>47.240000000000002</ele>
        <time>2018-09-24T13:48:38Z</time>
      </trkpt>
      <trkpt lat="40.730966040864587" lon="13.963716002181172">
        <ele>44.840000000000003</ele>
        <time>2018-09-24T13:48:49Z</time>
      </trkpt>
      <trkpt lat="40.731064444407821" lon="13.963712649419904">
        <ele>43.880000000000003</ele>
        <time>2018-09-24T13:49:13Z</time>
      </trkpt>
      <trkpt lat="40.733350273221731" lon="13.957139477133751">
        <ele>25.129999999999999</ele>
        <time>2018-09-24T14:12:30Z</time>
      </trkpt>
      <trkpt lat="40.733312051743269" lon="13.957162695005536">
        <ele>25.129999999999999</ele>
        <time>2018-09-24T14:12:31Z</time>
      </trkpt>
      <trkpt lat="40.733210127800703" lon="13.957135789096355">
        <ele>25.129999999999999</ele>
        <time>2018-09-24T14:12:44Z</time>
      </trkpt>
      <trkpt lat="40.73322806507349" lon="13.95704660564661">
        <ele>25.129999999999999</ele>
        <time>2018-09-24T14:12:57Z</time>
      </trkpt>
      <trkpt lat="40.733220856636763" lon="13.957036715000868">
        <ele>25.129999999999999</ele>
        <time>2018-09-24T14:13:16Z</time>
      </trkpt>
      <trkpt lat="40.733213732019067" lon="13.957022298127413">
        <ele>24.649999999999999</ele>
        <time>2018-09-24T14:13:32Z</time>
      </trkpt>
      <trkpt lat="40.7332275621593" lon="13.957005282863975">
        <ele>24.649999999999999</ele>
        <time>2018-09-24T14:13:44Z</time>
      </trkpt>
      <trkpt lat="40.733226304873824" lon="13.956975024193525">
        <ele>25.129999999999999</ele>
        <time>2018-09-24T14:13:56Z</time>
      </trkpt>
      <trkpt lat="40.733226807788014" lon="13.95700360648334">
        <ele>24.649999999999999</ele>
        <time>2018-09-24T14:14:07Z</time>
      </trkpt>
      <trkpt lat="40.733268046751618" lon="13.956972509622574">
        <ele>25.129999999999999</ele>
        <time>2018-09-24T14:14:20Z</time>
      </trkpt>
      <trkpt lat="40.733334766700864" lon="13.956908136606216">
        <ele>25.129999999999999</ele>
        <time>2018-09-24T14:14:32Z</time>
      </trkpt>
      <trkpt lat="40.733402157202363" lon="13.956833034753799">
        <ele>25.129999999999999</ele>
        <time>2018-09-24T14:14:43Z</time>
      </trkpt>
      <trkpt lat="40.733469547703862" lon="13.956771763041615">
        <ele>25.609999999999999</ele>
        <time>2018-09-24T14:14:54Z</time>
      </trkpt>
      <trkpt lat="40.733507517725229" lon="13.956699259579182">
        <ele>26.09</ele>
        <time>2018-09-24T14:15:04Z</time>
      </trkpt>
      <trkpt lat="40.733553031459451" lon="13.956589121371508">
        <ele>26.57</ele>
        <time>2018-09-24T14:15:16Z</time>
      </trkpt>
      <trkpt lat="40.733601730316877" lon="13.956475546583533">
        <ele>27.050000000000001</ele>
        <time>2018-09-24T14:15:30Z</time>
      </trkpt>
      <trkpt lat="40.733645064756274" lon="13.956347806379199">
        <ele>27.530000000000001</ele>
        <time>2018-09-24T14:15:41Z</time>
      </trkpt>
      <trkpt lat="40.733712036162615" lon="13.956232387572527">
        <ele>27.050000000000001</ele>
        <time>2018-09-24T14:15:53Z</time>
      </trkpt>
      <trkpt lat="40.733704995363951" lon="13.956115962937474">
        <ele>27.050000000000001</ele>
        <time>2018-09-24T14:16:05Z</time>
      </trkpt>
      <trkpt lat="40.733713461086154" lon="13.95606642588973">
        <ele>27.050000000000001</ele>
        <time>2018-09-24T14:16:10Z</time>
      </trkpt>
      <trkpt lat="40.733770709484816" lon="13.955963915213943">
        <ele>27.050000000000001</ele>
        <time>2018-09-24T14:16:22Z</time>
      </trkpt>
      <trkpt lat="40.733812786638737" lon="13.955877246335149">
        <ele>26.57</ele>
        <time>2018-09-24T14:16:31Z</time>
      </trkpt>
      <trkpt lat="40.73385545052588" lon="13.955817399546504">
        <ele>26.57</ele>
        <time>2018-09-24T14:16:38Z</time>
      </trkpt>
      <trkpt lat="40.733917057514191" lon="13.955731317400932">
        <ele>26.57</ele>
        <time>2018-09-24T14:16:49Z</time>
      </trkpt>
      <trkpt lat="40.733871543779969" lon="13.955609612166882">
        <ele>26.09</ele>
        <time>2018-09-24T14:17:01Z</time>
      </trkpt>
      <trkpt lat="40.733871795237064" lon="13.955530151724815">
        <ele>26.09</ele>
        <time>2018-09-24T14:17:07Z</time>
      </trkpt>
      <trkpt lat="40.733895348384976" lon="13.955407440662384">
        <ele>26.09</ele>
        <time>2018-09-24T14:17:19Z</time>
      </trkpt>
      <trkpt lat="40.733942035585642" lon="13.95530316978693">
        <ele>26.57</ele>
        <time>2018-09-24T14:17:32Z</time>
      </trkpt>
      <trkpt lat="40.733975395560265" lon="13.955211723223329">
        <ele>27.050000000000001</ele>
        <time>2018-09-24T14:17:43Z</time>
      </trkpt>
      <trkpt lat="40.733972461894155" lon="13.955107787624002">
        <ele>26.57</ele>
        <time>2018-09-24T14:17:54Z</time>
      </trkpt>
      <trkpt lat="40.733997356146574" lon="13.955008629709482">
        <ele>27.050000000000001</ele>
        <time>2018-09-24T14:18:06Z</time>
      </trkpt>
      <trkpt lat="40.734007162973285" lon="13.955005025491118">
        <ele>27.050000000000001</ele>
        <time>2018-09-24T14:18:20Z</time>
      </trkpt>
      <trkpt lat="40.734024094417691" lon="13.955008462071419">
        <ele>26.57</ele>
        <time>2018-09-24T14:18:50Z</time>
      </trkpt>
      <trkpt lat="40.734010431915522" lon="13.955003265291452">
        <ele>26.57</ele>
        <time>2018-09-24T14:19:07Z</time>
      </trkpt>
      <trkpt lat="40.734031889587641" lon="13.955019526183605">
        <ele>26.57</ele>
        <time>2018-09-24T14:19:31Z</time>
      </trkpt>
      <trkpt lat="40.734032727777958" lon="13.955027321353555">
        <ele>26.57</ele>
        <time>2018-09-24T14:19:51Z</time>
      </trkpt>
      <trkpt lat="40.73403968475759" lon="13.955015335232019">
        <ele>26.57</ele>
        <time>2018-09-24T14:20:09Z</time>
      </trkpt>
      <trkpt lat="40.734041361138225" lon="13.955009048804641">
        <ele>27.050000000000001</ele>
        <time>2018-09-24T14:20:27Z</time>
      </trkpt>
      <trkpt lat="40.734041864052415" lon="13.955002594739199">
        <ele>26.09</ele>
        <time>2018-09-24T14:20:46Z</time>
      </trkpt>
      <trkpt lat="40.734025770798326" lon="13.955004438757896">
        <ele>26.09</ele>
        <time>2018-09-24T14:21:05Z</time>
      </trkpt>
      <trkpt lat="40.73404454626143" lon="13.955004187300801">
        <ele>26.09</ele>
        <time>2018-09-24T14:21:33Z</time>
      </trkpt>
      <trkpt lat="40.734045468270779" lon="13.955003684386611">
        <ele>26.09</ele>
        <time>2018-09-24T14:21:54Z</time>
      </trkpt>
      <trkpt lat="40.734043791890144" lon="13.955005696043372">
        <ele>26.09</ele>
        <time>2018-09-24T14:22:18Z</time>
      </trkpt>
      <trkpt lat="40.734018813818693" lon="13.955005444586277">
        <ele>26.09</ele>
        <time>2018-09-24T14:22:43Z</time>
      </trkpt>
      <trkpt lat="40.734032476320863" lon="13.955010892823339">
        <ele>25.609999999999999</ele>
        <time>2018-09-24T14:23:01Z</time>
      </trkpt>
      <trkpt lat="40.734037589281797" lon="13.955007456243038">
        <ele>25.609999999999999</ele>
        <time>2018-09-24T14:23:27Z</time>
      </trkpt>
      <trkpt lat="40.734033230692148" lon="13.955001337453723">
        <ele>25.609999999999999</ele>
        <time>2018-09-24T14:23:51Z</time>
      </trkpt>
      <trkpt lat="40.734029207378626" lon="13.955010222271085">
        <ele>25.609999999999999</ele>
        <time>2018-09-24T14:24:10Z</time>
      </trkpt>
      <trkpt lat="40.734018310904503" lon="13.955006198957562">
        <ele>25.609999999999999</ele>
        <time>2018-09-24T14:24:33Z</time>
      </trkpt>
      <trkpt lat="40.734012611210346" lon="13.955001337453723">
        <ele>25.129999999999999</ele>
        <time>2018-09-24T14:24:56Z</time>
      </trkpt>
      <trkpt lat="40.734030045568943" lon="13.954948615282774">
        <ele>25.609999999999999</ele>
        <time>2018-09-24T14:25:07Z</time>
      </trkpt>
      <trkpt lat="40.734031470492482" lon="13.954937551170588">
        <ele>25.609999999999999</ele>
        <time>2018-09-24T14:25:08Z</time>
      </trkpt>
      <trkpt lat="40.73406265117228" lon="13.9547832403332">
        <ele>26.09</ele>
        <time>2018-09-24T14:25:22Z</time>
      </trkpt>
      <trkpt lat="40.73412274941802" lon="13.954644603654742">
        <ele>26.57</ele>
        <time>2018-09-24T14:25:35Z</time>
      </trkpt>
      <trkpt lat="40.734149990603328" lon="13.954480402171612">
        <ele>27.050000000000001</ele>
        <time>2018-09-24T14:25:48Z</time>
      </trkpt>
      <trkpt lat="40.734144039452076" lon="13.954444443807006">
        <ele>27.050000000000001</ele>
        <time>2018-09-24T14:25:52Z</time>
      </trkpt>
      <trkpt lat="40.734144961461425" lon="13.954411083832383">
        <ele>27.050000000000001</ele>
        <time>2018-09-24T14:25:55Z</time>
      </trkpt>
      <trkpt lat="40.7342170458287" lon="13.954290635883808">
        <ele>27.530000000000001</ele>
        <time>2018-09-24T14:26:06Z</time>
      </trkpt>
      <trkpt lat="40.734226014465094" lon="13.954259706661105">
        <ele>27.050000000000001</ele>
        <time>2018-09-24T14:26:17Z</time>
      </trkpt>
      <trkpt lat="40.734235234558582" lon="13.954270435497165">
        <ele>27.530000000000001</ele>
        <time>2018-09-24T14:26:25Z</time>
      </trkpt>
      <trkpt lat="40.734236491844058" lon="13.954238584265113">
        <ele>27.530000000000001</ele>
        <time>2018-09-24T14:26:38Z</time>
      </trkpt>
      <trkpt lat="40.734250908717513" lon="13.954250067472458">
        <ele>26.57</ele>
        <time>2018-09-24T14:26:47Z</time>
      </trkpt>
      <trkpt lat="40.734267085790634" lon="13.954247552901506">
        <ele>27.050000000000001</ele>
        <time>2018-09-24T14:26:57Z</time>
      </trkpt>
      <trkpt lat="40.734306899830699" lon="13.954281751066446">
        <ele>28.02</ele>
        <time>2018-09-24T14:27:12Z</time>
      </trkpt>
      <trkpt lat="40.734349228441715" lon="13.954223832115531">
        <ele>28.02</ele>
        <time>2018-09-24T14:27:26Z</time>
      </trkpt>
      <trkpt lat="40.734347887337208" lon="13.954250486567616">
        <ele>27.530000000000001</ele>
        <time>2018-09-24T14:27:48Z</time>
      </trkpt>
      <trkpt lat="40.734221152961254" lon="13.954426255077124">
        <ele>27.530000000000001</ele>
        <time>2018-09-24T14:28:01Z</time>
      </trkpt>
      <trkpt lat="40.73421117849648" lon="13.954452238976955">
        <ele>27.050000000000001</ele>
        <time>2018-09-24T14:28:07Z</time>
      </trkpt>
      <trkpt lat="40.734260631725192" lon="13.954358110204339">
        <ele>27.050000000000001</ele>
        <time>2018-09-24T14:28:16Z</time>
      </trkpt>
      <trkpt lat="40.734302289783955" lon="13.954209834337234">
        <ele>27.050000000000001</ele>
        <time>2018-09-24T14:28:20Z</time>
      </trkpt>
      <trkpt lat="40.734061310067773" lon="13.949521500617266">
        <ele>-34.469999999999999</ele>
        <time>2018-09-25T06:54:12Z</time>
      </trkpt>
      <trkpt lat="40.734023591503501" lon="13.949494427070022">
        <ele>-34.469999999999999</ele>
        <time>2018-09-25T06:54:21Z</time>
      </trkpt>
      <trkpt lat="40.734031554311514" lon="13.94948948174715">
        <ele>-34.469999999999999</ele>
        <time>2018-09-25T06:54:23Z</time>
      </trkpt>
      <trkpt lat="40.73408561758697" lon="13.94938638433814">
        <ele>-34.950000000000003</ele>
        <time>2018-09-25T06:54:32Z</time>
      </trkpt>
      <trkpt lat="40.734149403870106" lon="13.949284376576543">
        <ele>-29.66</ele>
        <time>2018-09-25T06:54:42Z</time>
      </trkpt>
      <trkpt lat="40.734160803258419" lon="13.949262164533138">
        <ele>-23.899999999999999</ele>
        <time>2018-09-25T06:54:44Z</time>
      </trkpt>
      <trkpt lat="40.734170274809003" lon="13.949246658012271">
        <ele>-19.09</ele>
        <time>2018-09-25T06:54:46Z</time>
      </trkpt>
      <trkpt lat="40.734179243445396" lon="13.949226038530469">
        <ele>-14.279999999999999</ele>
        <time>2018-09-25T06:54:48Z</time>
      </trkpt>
      <trkpt lat="40.734142363071442" lon="13.949125874787569">
        <ele>-8.029999999999999</ele>
        <time>2018-09-25T06:54:50Z</time>
      </trkpt>
      <trkpt lat="40.734142363071442" lon="13.949103327468038">
        <ele>-8.029999999999999</ele>
        <time>2018-09-25T06:54:51Z</time>
      </trkpt>
      <trkpt lat="40.734143955633044" lon="13.94907658919692">
        <ele>-4.19</ele>
        <time>2018-09-25T06:54:53Z</time>
      </trkpt>
      <trkpt lat="40.734149236232042" lon="13.949048677459359">
        <ele>-1.3</ele>
        <time>2018-09-25T06:54:55Z</time>
      </trkpt>
      <trkpt lat="40.734149822965264" lon="13.949005175381899">
        <ele>3.02</ele>
        <time>2018-09-25T06:54:58Z</time>
      </trkpt>
      <trkpt lat="40.734154852107167" lon="13.948969384655356">
        <ele>6.39</ele>
        <time>2018-09-25T06:55:01Z</time>
      </trkpt>
      <trkpt lat="40.734157534316182" lon="13.948932839557528">
        <ele>10.23</ele>
        <time>2018-09-25T06:55:04Z</time>
      </trkpt>
      <trkpt lat="40.73416038416326" lon="13.948893025517464">
        <ele>13.6</ele>
        <time>2018-09-25T06:55:07Z</time>
      </trkpt>
      <trkpt lat="40.73416231200099" lon="13.948866622522473">
        <ele>17.440000000000001</ele>
        <time>2018-09-25T06:55:11Z</time>
      </trkpt>
      <trkpt lat="40.734161641448736" lon="13.948864610865712">
        <ele>20.32</ele>
        <time>2018-09-25T06:55:15Z</time>
      </trkpt>
      <trkpt lat="40.734160887077451" lon="13.948862934485078">
        <ele>21.77</ele>
        <time>2018-09-25T06:55:17Z</time>
      </trkpt>
    </trkseg>
  </trk>

  <trk>
    <name>2018-09-25 13:28:24</name>
    <extensions>
      <gpxx:TrackExtension>
        <gpxx:DisplayColor>Yellow</gpxx:DisplayColor>
      </gpxx:TrackExtension>
      <gpxtrkx:TrackStatsExtension xmlns:gpxtrkx="http://www.garmin.com/xmlschemas/TrackStatsExtension/v1">
        <gpxtrkx:Distance>9711</gpxtrkx:Distance>
        <gpxtrkx:TotalElapsedTime>14097</gpxtrkx:TotalElapsedTime>
        <gpxtrkx:MovingTime>10338</gpxtrkx:MovingTime>
        <gpxtrkx:StoppedTime>3753</gpxtrkx:StoppedTime>
        <gpxtrkx:MovingSpeed>1</gpxtrkx:MovingSpeed>
        <gpxtrkx:MaxSpeed>2</gpxtrkx:MaxSpeed>
        <gpxtrkx:MaxElevation>466</gpxtrkx:MaxElevation>
        <gpxtrkx:MinElevation>24</gpxtrkx:MinElevation>
        <gpxtrkx:Ascent>383</gpxtrkx:Ascent>
        <gpxtrkx:Descent>590</gpxtrkx:Descent>
        <gpxtrkx:AvgAscentRate>0</gpxtrkx:AvgAscentRate>
        <gpxtrkx:MaxAscentRate>1</gpxtrkx:MaxAscentRate>
        <gpxtrkx:AvgDescentRate>0</gpxtrkx:AvgDescentRate>
        <gpxtrkx:MaxDescentRate>-1</gpxtrkx:MaxDescentRate>
      </gpxtrkx:TrackStatsExtension>
    </extensions>
    <trkseg>
      <trkpt lat="40.740626351907849" lon="13.920003455132246">
        <ele>234.69999999999999</ele>
        <time>2018-09-25T07:33:30Z</time>
      </trkpt>
      <trkpt lat="40.74063272215426" lon="13.920012256130576">
        <ele>234.69999999999999</ele>
        <time>2018-09-25T07:33:31Z</time>
      </trkpt>
      <trkpt lat="40.740651246160269" lon="13.920036144554615">
        <ele>232.78</ele>
        <time>2018-09-25T07:33:35Z</time>
      </trkpt>
      <trkpt lat="40.740658286958933" lon="13.920057015493512">
        <ele>234.22</ele>
        <time>2018-09-25T07:33:38Z</time>
      </trkpt>
      <trkpt lat="40.740713691338897" lon="13.920155251398683">
        <ele>234.69999999999999</ele>
        <time>2018-09-25T07:33:51Z</time>
      </trkpt>
      <trkpt lat="40.740746045485139" lon="13.920272262766957">
        <ele>235.18000000000001</ele>
        <time>2018-09-25T07:34:03Z</time>
      </trkpt>
      <trkpt lat="40.740745291113853" lon="13.920411569997668">
        <ele>236.13999999999999</ele>
        <time>2018-09-25T07:34:18Z</time>
      </trkpt>
      <trkpt lat="40.740757277235389" lon="13.920602593570948">
        <ele>236.62</ele>
        <time>2018-09-25T07:34:35Z</time>
      </trkpt>
      <trkpt lat="40.740747470408678" lon="13.920770902186632">
        <ele>238.06</ele>
        <time>2018-09-25T07:34:47Z</time>
      </trkpt>
      <trkpt lat="40.740735987201333" lon="13.92091054469347">
        <ele>237.58000000000001</ele>
        <time>2018-09-25T07:35:02Z</time>
      </trkpt>
      <trkpt lat="40.740784769877791" lon="13.920980030670762">
        <ele>237.58000000000001</ele>
        <time>2018-09-25T07:35:14Z</time>
      </trkpt>
      <trkpt lat="40.740816202014685" lon="13.921043314039707">
        <ele>236.13999999999999</ele>
        <time>2018-09-25T07:35:28Z</time>
      </trkpt>
      <trkpt lat="40.740884011611342" lon="13.921045660972595">
        <ele>236.13999999999999</ele>
        <time>2018-09-25T07:35:40Z</time>
      </trkpt>
      <trkpt lat="40.740911420434713" lon="13.921060496941209">
        <ele>236.13999999999999</ele>
        <time>2018-09-25T07:35:49Z</time>
      </trkpt>
      <trkpt lat="40.740918293595314" lon="13.921042811125517">
        <ele>235.66</ele>
        <time>2018-09-25T07:36:03Z</time>
      </trkpt>
      <trkpt lat="40.74092298746109" lon="13.921052031219006">
        <ele>235.66</ele>
        <time>2018-09-25T07:36:14Z</time>
      </trkpt>
      <trkpt lat="40.740924999117851" lon="13.921049768105149">
        <ele>235.66</ele>
        <time>2018-09-25T07:36:23Z</time>
      </trkpt>
      <trkpt lat="40.740937571972609" lon="13.921037446707487">
        <ele>235.18000000000001</ele>
        <time>2018-09-25T07:36:36Z</time>
      </trkpt>
      <trkpt lat="40.740926340222359" lon="13.921045158058405">
        <ele>234.69999999999999</ele>
        <time>2018-09-25T07:36:57Z</time>
      </trkpt>
      <trkpt lat="40.740947378799319" lon="13.921025544404984">
        <ele>235.66</ele>
        <time>2018-09-25T07:37:07Z</time>
      </trkpt>
      <trkpt lat="40.740928268060088" lon="13.921036357060075">
        <ele>235.66</ele>
        <time>2018-09-25T07:37:15Z</time>
      </trkpt>
      <trkpt lat="40.740876635536551" lon="13.921122858300805">
        <ele>236.13999999999999</ele>
        <time>2018-09-25T07:37:26Z</time>
      </trkpt>
      <trkpt lat="40.740887532010674" lon="13.92120810225606">
        <ele>236.62</ele>
        <time>2018-09-25T07:37:38Z</time>
      </trkpt>
      <trkpt lat="40.740913264453411" lon="13.921256633475423">
        <ele>237.09999999999999</ele>
        <time>2018-09-25T07:37:48Z</time>
      </trkpt>
      <trkpt lat="40.7409224845469" lon="13.921280521899462">
        <ele>238.06</ele>
        <time>2018-09-25T07:37:59Z</time>
      </trkpt>
      <trkpt lat="40.740920221433043" lon="13.921315306797624">
        <ele>237.58000000000001</ele>
        <time>2018-09-25T07:38:11Z</time>
      </trkpt>
      <trkpt lat="40.740886442363262" lon="13.921344894915819">
        <ele>237.58000000000001</ele>
        <time>2018-09-25T07:38:28Z</time>
      </trkpt>
      <trkpt lat="40.740910079330206" lon="13.921319665387273">
        <ele>236.62</ele>
        <time>2018-09-25T07:38:40Z</time>
      </trkpt>
      <trkpt lat="40.740936901420355" lon="13.921342380344868">
        <ele>238.06</ele>
        <time>2018-09-25T07:38:51Z</time>
      </trkpt>
      <trkpt lat="40.740948049351573" lon="13.92134053632617">
        <ele>238.06</ele>
        <time>2018-09-25T07:39:02Z</time>
      </trkpt>
      <trkpt lat="40.740928770974278" lon="13.921362748369575">
        <ele>238.06</ele>
        <time>2018-09-25T07:39:15Z</time>
      </trkpt>
      <trkpt lat="40.740940757095814" lon="13.921474311500788">
        <ele>238.53999999999999</ele>
        <time>2018-09-25T07:39:27Z</time>
      </trkpt>
      <trkpt lat="40.740982666611671" lon="13.921565758064389">
        <ele>239.02000000000001</ele>
        <time>2018-09-25T07:39:41Z</time>
      </trkpt>
      <trkpt lat="40.741033544763923" lon="13.921688385307789">
        <ele>240.94999999999999</ele>
        <time>2018-09-25T07:39:53Z</time>
      </trkpt>
      <trkpt lat="40.741060199216008" lon="13.921804809942842">
        <ele>242.38999999999999</ele>
        <time>2018-09-25T07:40:06Z</time>
      </trkpt>
      <trkpt lat="40.741075370460749" lon="13.921851748600602">
        <ele>242.38999999999999</ele>
        <time>2018-09-25T07:40:18Z</time>
      </trkpt>
      <trkpt lat="40.741095403209329" lon="13.921916708350182">
        <ele>243.34999999999999</ele>
        <time>2018-09-25T07:40:31Z</time>
      </trkpt>
      <trkpt lat="40.741097331047058" lon="13.921972448006272">
        <ele>243.34999999999999</ele>
        <time>2018-09-25T07:40:45Z</time>
      </trkpt>
      <trkpt lat="40.741140581667423" lon="13.921993402764201">
        <ele>243.83000000000001</ele>
        <time>2018-09-25T07:41:03Z</time>
      </trkpt>
      <trkpt lat="40.741200260818005" lon="13.922125082463026">
        <ele>245.27000000000001</ele>
        <time>2018-09-25T07:41:17Z</time>
      </trkpt>
      <trkpt lat="40.74123764410615" lon="13.922191634774208">
        <ele>246.22999999999999</ele>
        <time>2018-09-25T07:41:28Z</time>
      </trkpt>
      <trkpt lat="40.741265052929521" lon="13.922314932569861">
        <ele>246.22999999999999</ele>
        <time>2018-09-25T07:41:39Z</time>
      </trkpt>
      <trkpt lat="40.741306794807315" lon="13.922458766028285">
        <ele>247.19999999999999</ele>
        <time>2018-09-25T07:41:52Z</time>
      </trkpt>
      <trkpt lat="40.741311404854059" lon="13.922489192336798">
        <ele>247.19999999999999</ele>
        <time>2018-09-25T07:41:54Z</time>
      </trkpt>
      <trkpt lat="40.741349039599299" lon="13.922652471810579">
        <ele>247.19999999999999</ele>
        <time>2018-09-25T07:42:07Z</time>
      </trkpt>
      <trkpt lat="40.741378208622336" lon="13.922819020226598">
        <ele>247.68000000000001</ele>
        <time>2018-09-25T07:42:20Z</time>
      </trkpt>
      <trkpt lat="40.741405952721834" lon="13.922980288043618">
        <ele>247.68000000000001</ele>
        <time>2018-09-25T07:42:33Z</time>
      </trkpt>
      <trkpt lat="40.741423387080431" lon="13.923169886693358">
        <ele>247.68000000000001</ele>
        <time>2018-09-25T07:42:48Z</time>
      </trkpt>
      <trkpt lat="40.741476444527507" lon="13.923303913325071">
        <ele>247.68000000000001</ele>
        <time>2018-09-25T07:42:59Z</time>
      </trkpt>
      <trkpt lat="40.741544840857387" lon="13.923417823389173">
        <ele>248.16</ele>
        <time>2018-09-25T07:43:11Z</time>
      </trkpt>
      <trkpt lat="40.741614243015647" lon="13.923529386520386">
        <ele>249.12</ele>
        <time>2018-09-25T07:43:24Z</time>
      </trkpt>
      <trkpt lat="40.741692865267396" lon="13.923588898032904">
        <ele>250.08000000000001</ele>
        <time>2018-09-25T07:43:35Z</time>
      </trkpt>
      <trkpt lat="40.74177073314786" lon="13.923681182786822">
        <ele>251.52000000000001</ele>
        <time>2018-09-25T07:43:48Z</time>
      </trkpt>
      <trkpt lat="40.741833513602614" lon="13.923754021525383">
        <ele>252.96000000000001</ele>
        <time>2018-09-25T07:44:00Z</time>
      </trkpt>
      <trkpt lat="40.74191783554852" lon="13.923829961568117">
        <ele>253.93000000000001</ele>
        <time>2018-09-25T07:44:11Z</time>
      </trkpt>
      <trkpt lat="40.741971060633659" lon="13.923951247707009">
        <ele>255.37</ele>
        <time>2018-09-25T07:44:24Z</time>
      </trkpt>
      <trkpt lat="40.741969719529152" lon="13.924018051475286">
        <ele>255.84999999999999</ele>
        <time>2018-09-25T07:44:30Z</time>
      </trkpt>
      <trkpt lat="40.741962511092424" lon="13.924058703705668">
        <ele>255.84999999999999</ele>
        <time>2018-09-25T07:44:41Z</time>
      </trkpt>
      <trkpt lat="40.741931665688753" lon="13.924094242975116">
        <ele>255.84999999999999</ele>
        <time>2018-09-25T07:44:53Z</time>
      </trkpt>
      <trkpt lat="40.741887995973229" lon="13.924131626263261">
        <ele>255.37</ele>
        <time>2018-09-25T07:45:10Z</time>
      </trkpt>
      <trkpt lat="40.741794286295772" lon="13.924193065613508">
        <ele>254.88999999999999</ele>
        <time>2018-09-25T07:45:26Z</time>
      </trkpt>
      <trkpt lat="40.741689428687096" lon="13.924257103353739">
        <ele>253.93000000000001</ele>
        <time>2018-09-25T07:45:37Z</time>
      </trkpt>
      <trkpt lat="40.741592533886433" lon="13.924308400601149">
        <ele>253.93000000000001</ele>
        <time>2018-09-25T07:45:49Z</time>
      </trkpt>
      <trkpt lat="40.741523550823331" lon="13.924373108893633">
        <ele>253.93000000000001</ele>
        <time>2018-09-25T07:46:00Z</time>
      </trkpt>
      <trkpt lat="40.741455908864737" lon="13.924464471638203">
        <ele>254.41</ele>
        <time>2018-09-25T07:46:10Z</time>
      </trkpt>
      <trkpt lat="40.741414753720164" lon="13.924503615126014">
        <ele>255.37</ele>
        <time>2018-09-25T07:46:17Z</time>
      </trkpt>
      <trkpt lat="40.741340825334191" lon="13.924602270126343">
        <ele>255.84999999999999</ele>
        <time>2018-09-25T07:46:28Z</time>
      </trkpt>
      <trkpt lat="40.741291707381606" lon="13.924675695598125">
        <ele>257.29000000000002</ele>
        <time>2018-09-25T07:46:39Z</time>
      </trkpt>
      <trkpt lat="40.741249211132526" lon="13.924776446074247">
        <ele>257.76999999999998</ele>
        <time>2018-09-25T07:46:52Z</time>
      </trkpt>
      <trkpt lat="40.741232112050056" lon="13.924870239570737">
        <ele>259.69</ele>
        <time>2018-09-25T07:47:04Z</time>
      </trkpt>
      <trkpt lat="40.741204284131527" lon="13.924978449940681">
        <ele>262.10000000000002</ele>
        <time>2018-09-25T07:47:18Z</time>
      </trkpt>
      <trkpt lat="40.741148795932531" lon="13.925072830170393">
        <ele>264.5</ele>
        <time>2018-09-25T07:47:31Z</time>
      </trkpt>
      <trkpt lat="40.741097498685122" lon="13.925146255642176">
        <ele>265.45999999999998</ele>
        <time>2018-09-25T07:47:41Z</time>
      </trkpt>
      <trkpt lat="40.741026923060417" lon="13.92522320151329">
        <ele>266.89999999999998</ele>
        <time>2018-09-25T07:47:52Z</time>
      </trkpt>
      <trkpt lat="40.740934386849403" lon="13.925259746611118">
        <ele>268.35000000000002</ele>
        <time>2018-09-25T07:48:03Z</time>
      </trkpt>
      <trkpt lat="40.740840006619692" lon="13.925297632813454">
        <ele>269.79000000000002</ele>
        <time>2018-09-25T07:48:15Z</time>
      </trkpt>
      <trkpt lat="40.740772616118193" lon="13.925341302528977">
        <ele>270.75</ele>
        <time>2018-09-25T07:48:25Z</time>
      </trkpt>
      <trkpt lat="40.740725677460432" lon="13.925413889810443">
        <ele>272.19</ele>
        <time>2018-09-25T07:48:35Z</time>
      </trkpt>
      <trkpt lat="40.740648731589317" lon="13.925487566739321">
        <ele>273.63</ele>
        <time>2018-09-25T07:48:46Z</time>
      </trkpt>
      <trkpt lat="40.740617299452424" lon="13.925513299182057">
        <ele>274.11000000000001</ele>
        <time>2018-09-25T07:48:59Z</time>
      </trkpt>
      <trkpt lat="40.7405960932374" lon="13.925503995269537">
        <ele>273.63</ele>
        <time>2018-09-25T07:49:15Z</time>
      </trkpt>
      <trkpt lat="40.740589890629053" lon="13.925581863150001">
        <ele>275.06999999999999</ele>
        <time>2018-09-25T07:49:28Z</time>
      </trkpt>
      <trkpt lat="40.740568684414029" lon="13.925659647211432">
        <ele>277</ele>
        <time>2018-09-25T07:49:41Z</time>
      </trkpt>
      <trkpt lat="40.740513447672129" lon="13.925703736022115">
        <ele>278.92000000000002</ele>
        <time>2018-09-25T07:49:53Z</time>
      </trkpt>
      <trkpt lat="40.740427868440747" lon="13.925766181200743">
        <ele>280.83999999999997</ele>
        <time>2018-09-25T07:50:05Z</time>
      </trkpt>
      <trkpt lat="40.740427197888494" lon="13.925864500924945">
        <ele>282.76999999999998</ele>
        <time>2018-09-25T07:50:17Z</time>
      </trkpt>
      <trkpt lat="40.740420157089829" lon="13.925944212824106">
        <ele>282.27999999999997</ele>
        <time>2018-09-25T07:50:27Z</time>
      </trkpt>
      <trkpt lat="40.74038453400135" lon="13.926041275262833">
        <ele>280.83999999999997</ele>
        <time>2018-09-25T07:50:39Z</time>
      </trkpt>
      <trkpt lat="40.740336170420051" lon="13.926044041290879">
        <ele>281.80000000000001</ele>
        <time>2018-09-25T07:50:55Z</time>
      </trkpt>
      <trkpt lat="40.740314293652773" lon="13.926075808703899">
        <ele>280.83999999999997</ele>
        <time>2018-09-25T07:50:59Z</time>
      </trkpt>
      <trkpt lat="40.740262242034078" lon="13.926073210313916">
        <ele>279.88</ele>
        <time>2018-09-25T07:51:08Z</time>
      </trkpt>
      <trkpt lat="40.740215387195349" lon="13.926067007705569">
        <ele>279.88</ele>
        <time>2018-09-25T07:51:33Z</time>
      </trkpt>
      <trkpt lat="40.740331225097179" lon="13.926061140373349">
        <ele>280.83999999999997</ele>
        <time>2018-09-25T07:51:46Z</time>
      </trkpt>
      <trkpt lat="40.7403923291713" lon="13.926049573346972">
        <ele>281.31999999999999</ele>
        <time>2018-09-25T07:51:57Z</time>
      </trkpt>
      <trkpt lat="40.740441614761949" lon="13.926035743206739">
        <ele>282.76999999999998</ele>
        <time>2018-09-25T07:52:16Z</time>
      </trkpt>
      <trkpt lat="40.740536330267787" lon="13.926013363525271">
        <ele>284.20999999999998</ele>
        <time>2018-09-25T07:52:27Z</time>
      </trkpt>
      <trkpt lat="40.740603134036064" lon="13.926040437072515">
        <ele>284.20999999999998</ele>
        <time>2018-09-25T07:52:36Z</time>
      </trkpt>
      <trkpt lat="40.740675888955593" lon="13.926047058776021">
        <ele>285.17000000000002</ele>
        <time>2018-09-25T07:52:46Z</time>
      </trkpt>
      <trkpt lat="40.740710338577628" lon="13.926049238070846">
        <ele>285.17000000000002</ele>
        <time>2018-09-25T07:52:58Z</time>
      </trkpt>
      <trkpt lat="40.740772448480129" lon="13.926083520054817">
        <ele>284.69</ele>
        <time>2018-09-25T07:53:13Z</time>
      </trkpt>
      <trkpt lat="40.740743111819029" lon="13.926189551129937">
        <ele>283.25</ele>
        <time>2018-09-25T07:53:30Z</time>
      </trkpt>
      <trkpt lat="40.740785356611013" lon="13.926228946074843">
        <ele>282.76999999999998</ele>
        <time>2018-09-25T07:53:49Z</time>
      </trkpt>
      <trkpt lat="40.740841096267104" lon="13.926247470080853">
        <ele>281.31999999999999</ele>
        <time>2018-09-25T07:54:03Z</time>
      </trkpt>
      <trkpt lat="40.740842269733548" lon="13.926314106211066">
        <ele>279.88</ele>
        <time>2018-09-25T07:54:16Z</time>
      </trkpt>
      <trkpt lat="40.740833217278123" lon="13.926341431215405">
        <ele>277.95999999999998</ele>
        <time>2018-09-25T07:54:30Z</time>
      </trkpt>
      <trkpt lat="40.740844449028373" lon="13.926370684057474">
        <ele>277</ele>
        <time>2018-09-25T07:54:44Z</time>
      </trkpt>
      <trkpt lat="40.740852244198322" lon="13.926390213891864">
        <ele>276.04000000000002</ele>
        <time>2018-09-25T07:54:58Z</time>
      </trkpt>
      <trkpt lat="40.74086582288146" lon="13.926418544724584">
        <ele>275.56</ele>
        <time>2018-09-25T07:55:14Z</time>
      </trkpt>
      <trkpt lat="40.740872947499156" lon="13.92641200684011">
        <ele>274.58999999999997</ele>
        <time>2018-09-25T07:55:28Z</time>
      </trkpt>
      <trkpt lat="40.74088191613555" lon="13.926436565816402">
        <ele>274.58999999999997</ele>
        <time>2018-09-25T07:55:41Z</time>
      </trkpt>
      <trkpt lat="40.740869594737887" lon="13.926459783688188">
        <ele>273.63</ele>
        <time>2018-09-25T07:55:58Z</time>
      </trkpt>
      <trkpt lat="40.74091125279665" lon="13.926479481160641">
        <ele>272.67000000000002</ele>
        <time>2018-09-25T07:56:13Z</time>
      </trkpt>
      <trkpt lat="40.740893566980958" lon="13.92652491107583">
        <ele>271.70999999999998</ele>
        <time>2018-09-25T07:56:25Z</time>
      </trkpt>
      <trkpt lat="40.740869762375951" lon="13.926588362082839">
        <ele>270.26999999999998</ele>
        <time>2018-09-25T07:56:37Z</time>
      </trkpt>
      <trkpt lat="40.740820644423366" lon="13.92663286998868">
        <ele>269.31</ele>
        <time>2018-09-25T07:56:49Z</time>
      </trkpt>
      <trkpt lat="40.740850819274783" lon="13.926672767847776">
        <ele>269.31</ele>
        <time>2018-09-25T07:57:00Z</time>
      </trkpt>
      <trkpt lat="40.740837743505836" lon="13.926707301288843">
        <ele>265.94</ele>
        <time>2018-09-25T07:57:13Z</time>
      </trkpt>
      <trkpt lat="40.740864984691143" lon="13.92677846364677">
        <ele>263.54000000000002</ele>
        <time>2018-09-25T07:57:24Z</time>
      </trkpt>
      <trkpt lat="40.740844113752246" lon="13.926782654598355">
        <ele>262.10000000000002</ele>
        <time>2018-09-25T07:57:28Z</time>
      </trkpt>
      <trkpt lat="40.740882670506835" lon="13.92673647031188">
        <ele>262.10000000000002</ele>
        <time>2018-09-25T07:57:37Z</time>
      </trkpt>
      <trkpt lat="40.740942349657416" lon="13.926727920770645">
        <ele>261.13999999999999</ele>
        <time>2018-09-25T07:57:48Z</time>
      </trkpt>
      <trkpt lat="40.740983169525862" lon="13.92671593464911">
        <ele>261.62</ele>
        <time>2018-09-25T07:57:57Z</time>
      </trkpt>
      <trkpt lat="40.741023235023022" lon="13.926748791709542">
        <ele>261.62</ele>
        <time>2018-09-25T07:58:14Z</time>
      </trkpt>
      <trkpt lat="40.740993227809668" lon="13.926769243553281">
        <ele>261.13999999999999</ele>
        <time>2018-09-25T07:58:29Z</time>
      </trkpt>
      <trkpt lat="40.740992976352572" lon="13.926824061200023">
        <ele>260.64999999999998</ele>
        <time>2018-09-25T07:58:49Z</time>
      </trkpt>
      <trkpt lat="40.740991719067097" lon="13.926807465031743">
        <ele>259.69</ele>
        <time>2018-09-25T07:59:00Z</time>
      </trkpt>
      <trkpt lat="40.74098308570683" lon="13.926734291017056">
        <ele>260.17000000000002</ele>
        <time>2018-09-25T07:59:13Z</time>
      </trkpt>
      <trkpt lat="40.740998843684793" lon="13.926736554130912">
        <ele>260.64999999999998</ele>
        <time>2018-09-25T07:59:24Z</time>
      </trkpt>
      <trkpt lat="40.74094058945775" lon="13.92671694047749">
        <ele>261.13999999999999</ele>
        <time>2018-09-25T07:59:40Z</time>
      </trkpt>
      <trkpt lat="40.740875378251076" lon="13.92673403955996">
        <ele>261.62</ele>
        <time>2018-09-25T07:59:50Z</time>
      </trkpt>
      <trkpt lat="40.740765407681465" lon="13.926737308502197">
        <ele>262.10000000000002</ele>
        <time>2018-09-25T08:00:03Z</time>
      </trkpt>
      <trkpt lat="40.740665243938565" lon="13.92672129906714">
        <ele>263.06</ele>
        <time>2018-09-25T08:00:16Z</time>
      </trkpt>
      <trkpt lat="40.740565499290824" lon="13.926702607423067">
        <ele>264.01999999999998</ele>
        <time>2018-09-25T08:00:27Z</time>
      </trkpt>
      <trkpt lat="40.740464078262448" lon="13.926648208871484">
        <ele>264.98000000000002</ele>
        <time>2018-09-25T08:00:38Z</time>
      </trkpt>
      <trkpt lat="40.740453014150262" lon="13.926644353196025">
        <ele>264.98000000000002</ele>
        <time>2018-09-25T08:00:39Z</time>
      </trkpt>
      <trkpt lat="40.740344887599349" lon="13.926597749814391">
        <ele>266.42000000000002</ele>
        <time>2018-09-25T08:00:52Z</time>
      </trkpt>
      <trkpt lat="40.740238856524229" lon="13.926540585234761">
        <ele>267.38</ele>
        <time>2018-09-25T08:01:03Z</time>
      </trkpt>
      <trkpt lat="40.740161910653114" lon="13.926468919962645">
        <ele>266.89999999999998</ele>
        <time>2018-09-25T08:01:13Z</time>
      </trkpt>
      <trkpt lat="40.740116229280829" lon="13.926422987133265">
        <ele>267.86000000000001</ele>
        <time>2018-09-25T08:01:22Z</time>
      </trkpt>
      <trkpt lat="40.740057472139597" lon="13.926400858908892">
        <ele>267.86000000000001</ele>
        <time>2018-09-25T08:01:32Z</time>
      </trkpt>
      <trkpt lat="40.73995596729219" lon="13.926307987421751">
        <ele>267.38</ele>
        <time>2018-09-25T08:01:45Z</time>
      </trkpt>
      <trkpt lat="40.739847589284182" lon="13.926204470917583">
        <ele>267.86000000000001</ele>
        <time>2018-09-25T08:01:58Z</time>
      </trkpt>
      <trkpt lat="40.739802913740277" lon="13.926077820360661">
        <ele>267.86000000000001</ele>
        <time>2018-09-25T08:02:11Z</time>
      </trkpt>
      <trkpt lat="40.739708701148629" lon="13.925935328006744">
        <ele>269.31</ele>
        <time>2018-09-25T08:02:25Z</time>
      </trkpt>
      <trkpt lat="40.739617589861155" lon="13.925922755151987">
        <ele>267.86000000000001</ele>
        <time>2018-09-25T08:02:36Z</time>
      </trkpt>
      <trkpt lat="40.739520192146301" lon="13.9259272813797">
        <ele>267.38</ele>
        <time>2018-09-25T08:02:46Z</time>
      </trkpt>
      <trkpt lat="40.739451376721263" lon="13.925943206995726">
        <ele>266.89999999999998</ele>
        <time>2018-09-25T08:02:56Z</time>
      </trkpt>
      <trkpt lat="40.739335538819432" lon="13.925995090976357">
        <ele>266.42000000000002</ele>
        <time>2018-09-25T08:03:08Z</time>
      </trkpt>
      <trkpt lat="40.73932958766818" lon="13.926001209765673">
        <ele>266.42000000000002</ele>
        <time>2018-09-25T08:03:09Z</time>
      </trkpt>
      <trkpt lat="40.739189945161343" lon="13.926093494519591">
        <ele>265.94</ele>
        <time>2018-09-25T08:03:23Z</time>
      </trkpt>
      <trkpt lat="40.739059187471867" lon="13.926118304952979">
        <ele>265.45999999999998</ele>
        <time>2018-09-25T08:03:35Z</time>
      </trkpt>
      <trkpt lat="40.738899931311607" lon="13.926176726818085">
        <ele>264.01999999999998</ele>
        <time>2018-09-25T08:03:50Z</time>
      </trkpt>
      <trkpt lat="40.73882625438273" lon="13.92621411010623">
        <ele>262.10000000000002</ele>
        <time>2018-09-25T08:04:02Z</time>
      </trkpt>
      <trkpt lat="40.738756265491247" lon="13.926266245543957">
        <ele>260.17000000000002</ele>
        <time>2018-09-25T08:04:15Z</time>
      </trkpt>
      <trkpt lat="40.738625507801771" lon="13.926333887502551">
        <ele>258.73000000000002</ele>
        <time>2018-09-25T08:04:28Z</time>
      </trkpt>
      <trkpt lat="40.738498941063881" lon="13.926369175314903">
        <ele>257.76999999999998</ele>
        <time>2018-09-25T08:04:41Z</time>
      </trkpt>
      <trkpt lat="40.738369356840849" lon="13.926344616338611">
        <ele>257.29000000000002</ele>
        <time>2018-09-25T08:04:54Z</time>
      </trkpt>
      <trkpt lat="40.738235330209136" lon="13.926363391801715">
        <ele>257.76999999999998</ele>
        <time>2018-09-25T08:05:07Z</time>
      </trkpt>
      <trkpt lat="40.738114379346371" lon="13.926400858908892">
        <ele>256.32999999999998</ele>
        <time>2018-09-25T08:05:19Z</time>
      </trkpt>
      <trkpt lat="40.737994937226176" lon="13.926406474784017">
        <ele>256.32999999999998</ele>
        <time>2018-09-25T08:05:31Z</time>
      </trkpt>
      <trkpt lat="40.737898461520672" lon="13.926344281062484">
        <ele>256.81</ele>
        <time>2018-09-25T08:05:42Z</time>
      </trkpt>
      <trkpt lat="40.737828724086285" lon="13.926235986873507">
        <ele>256.81</ele>
        <time>2018-09-25T08:05:52Z</time>
      </trkpt>
      <trkpt lat="40.737775079905987" lon="13.926139594987035">
        <ele>256.81</ele>
        <time>2018-09-25T08:06:01Z</time>
      </trkpt>
      <trkpt lat="40.737708192318678" lon="13.925999198108912">
        <ele>256.81</ele>
        <time>2018-09-25T08:06:13Z</time>
      </trkpt>
      <trkpt lat="40.737653793767095" lon="13.925876654684544">
        <ele>256.81</ele>
        <time>2018-09-25T08:06:23Z</time>
      </trkpt>
      <trkpt lat="40.737607609480619" lon="13.925760565325618">
        <ele>257.29000000000002</ele>
        <time>2018-09-25T08:06:32Z</time>
      </trkpt>
      <trkpt lat="40.737546589225531" lon="13.925615726038814">
        <ele>256.81</ele>
        <time>2018-09-25T08:06:45Z</time>
      </trkpt>
      <trkpt lat="40.737530579790473" lon="13.925485806539655">
        <ele>256.32999999999998</ele>
        <time>2018-09-25T08:06:56Z</time>
      </trkpt>
      <trkpt lat="40.737495794892311" lon="13.925401316955686">
        <ele>256.81</ele>
        <time>2018-09-25T08:07:05Z</time>
      </trkpt>
      <trkpt lat="40.737486826255918" lon="13.925281791016459">
        <ele>256.81</ele>
        <time>2018-09-25T08:07:17Z</time>
      </trkpt>
      <trkpt lat="40.737470397725701" lon="13.925257315859199">
        <ele>256.81</ele>
        <time>2018-09-25T08:07:27Z</time>
      </trkpt>
      <trkpt lat="40.737472325563431" lon="13.925250945612788">
        <ele>257.29000000000002</ele>
        <time>2018-09-25T08:07:40Z</time>
      </trkpt>
      <trkpt lat="40.737429158762097" lon="13.925165869295597">
        <ele>258.25</ele>
        <time>2018-09-25T08:07:56Z</time>
      </trkpt>
      <trkpt lat="40.737370066344738" lon="13.925037961453199">
        <ele>258.25</ele>
        <time>2018-09-25T08:08:09Z</time>
      </trkpt>
      <trkpt lat="40.737329330295324" lon="13.924931846559048">
        <ele>258.25</ele>
        <time>2018-09-25T08:08:19Z</time>
      </trkpt>
      <trkpt lat="40.737287169322371" lon="13.924810728058219">
        <ele>259.20999999999998</ele>
        <time>2018-09-25T08:08:32Z</time>
      </trkpt>
      <trkpt lat="40.737258503213525" lon="13.924686340615153">
        <ele>259.20999999999998</ele>
        <time>2018-09-25T08:08:44Z</time>
      </trkpt>
      <trkpt lat="40.737254898995161" lon="13.924509398639202">
        <ele>259.20999999999998</ele>
        <time>2018-09-25T08:08:56Z</time>
      </trkpt>
      <trkpt lat="40.737232184037566" lon="13.924363804981112">
        <ele>259.20999999999998</ele>
        <time>2018-09-25T08:09:08Z</time>
      </trkpt>
      <trkpt lat="40.737222293391824" lon="13.924302030354738">
        <ele>259.69</ele>
        <time>2018-09-25T08:09:13Z</time>
      </trkpt>
      <trkpt lat="40.737211983650923" lon="13.924114946275949">
        <ele>259.20999999999998</ele>
        <time>2018-09-25T08:09:27Z</time>
      </trkpt>
      <trkpt lat="40.737200081348419" lon="13.924021404236555">
        <ele>259.20999999999998</ele>
        <time>2018-09-25T08:09:33Z</time>
      </trkpt>
      <trkpt lat="40.737187173217535" lon="13.923831470310688">
        <ele>259.20999999999998</ele>
        <time>2018-09-25T08:09:46Z</time>
      </trkpt>
      <trkpt lat="40.737172923982143" lon="13.923628376796842">
        <ele>259.69</ele>
        <time>2018-09-25T08:09:58Z</time>
      </trkpt>
      <trkpt lat="40.737167475745082" lon="13.923443974927068">
        <ele>260.64999999999998</ele>
        <time>2018-09-25T08:10:12Z</time>
      </trkpt>
      <trkpt lat="40.737099917605519" lon="13.92336837016046">
        <ele>260.64999999999998</ele>
        <time>2018-09-25T08:10:24Z</time>
      </trkpt>
      <trkpt lat="40.737084578722715" lon="13.92337859608233">
        <ele>260.64999999999998</ele>
        <time>2018-09-25T08:10:26Z</time>
      </trkpt>
      <trkpt lat="40.736955916509032" lon="13.923531314358115">
        <ele>261.62</ele>
        <time>2018-09-25T08:10:42Z</time>
      </trkpt>
      <trkpt lat="40.736844101920724" lon="13.92360339872539">
        <ele>262.57999999999998</ele>
        <time>2018-09-25T08:10:55Z</time>
      </trkpt>
      <trkpt lat="40.736742177978158" lon="13.92363416031003">
        <ele>262.57999999999998</ele>
        <time>2018-09-25T08:11:09Z</time>
      </trkpt>
      <trkpt lat="40.736681576818228" lon="13.923621587455273">
        <ele>262.10000000000002</ele>
        <time>2018-09-25T08:11:21Z</time>
      </trkpt>
      <trkpt lat="40.736632291227579" lon="13.923638518899679">
        <ele>261.62</ele>
        <time>2018-09-25T08:11:33Z</time>
      </trkpt>
      <trkpt lat="40.736615611240268" lon="13.923644050955772">
        <ele>262.10000000000002</ele>
        <time>2018-09-25T08:11:41Z</time>
      </trkpt>
      <trkpt lat="40.736569846048951" lon="13.923629969358444">
        <ele>262.10000000000002</ele>
        <time>2018-09-25T08:11:51Z</time>
      </trkpt>
      <trkpt lat="40.736495666205883" lon="13.923603147268295">
        <ele>262.10000000000002</ele>
        <time>2018-09-25T08:12:00Z</time>
      </trkpt>
      <trkpt lat="40.736352000385523" lon="13.923546653240919">
        <ele>262.57999999999998</ele>
        <time>2018-09-25T08:12:14Z</time>
      </trkpt>
      <trkpt lat="40.736344121396542" lon="13.923540953546762">
        <ele>262.57999999999998</ele>
        <time>2018-09-25T08:12:15Z</time>
      </trkpt>
      <trkpt lat="40.736214285716414" lon="13.923455039039254">
        <ele>262.57999999999998</ele>
        <time>2018-09-25T08:12:30Z</time>
      </trkpt>
      <trkpt lat="40.736098783090711" lon="13.923346409574151">
        <ele>263.06</ele>
        <time>2018-09-25T08:12:43Z</time>
      </trkpt>
      <trkpt lat="40.736000631004572" lon="13.923255298286676">
        <ele>263.54000000000002</ele>
        <time>2018-09-25T08:12:55Z</time>
      </trkpt>
      <trkpt lat="40.735927540808916" lon="13.923168294131756">
        <ele>263.54000000000002</ele>
        <time>2018-09-25T08:13:06Z</time>
      </trkpt>
      <trkpt lat="40.735886804759502" lon="13.923137281090021">
        <ele>264.01999999999998</ele>
        <time>2018-09-25T08:13:15Z</time>
      </trkpt>
      <trkpt lat="40.735870040953159" lon="13.923143483698368">
        <ele>264.5</ele>
        <time>2018-09-25T08:13:26Z</time>
      </trkpt>
      <trkpt lat="40.735860569402575" lon="13.923113811761141">
        <ele>264.5</ele>
        <time>2018-09-25T08:13:34Z</time>
      </trkpt>
      <trkpt lat="40.735799381509423" lon="13.92304876819253">
        <ele>264.98000000000002</ele>
        <time>2018-09-25T08:13:45Z</time>
      </trkpt>
      <trkpt lat="40.735743055120111" lon="13.923002248629928">
        <ele>265.45999999999998</ele>
        <time>2018-09-25T08:13:54Z</time>
      </trkpt>
      <trkpt lat="40.735641801729798" lon="13.922957573086023">
        <ele>265.94</ele>
        <time>2018-09-25T08:14:06Z</time>
      </trkpt>
      <trkpt lat="40.735516408458352" lon="13.92293150536716">
        <ele>266.42000000000002</ele>
        <time>2018-09-25T08:14:18Z</time>
      </trkpt>
      <trkpt lat="40.735390176996589" lon="13.922928152605891">
        <ele>266.89999999999998</ele>
        <time>2018-09-25T08:14:32Z</time>
      </trkpt>
      <trkpt lat="40.735358828678727" lon="13.922950364649296">
        <ele>267.38</ele>
        <time>2018-09-25T08:14:36Z</time>
      </trkpt>
      <trkpt lat="40.73526319116354" lon="13.923073327168822">
        <ele>267.86000000000001</ele>
        <time>2018-09-25T08:14:49Z</time>
      </trkpt>
      <trkpt lat="40.735192950814962" lon="13.923180028796196">
        <ele>267.86000000000001</ele>
        <time>2018-09-25T08:15:02Z</time>
      </trkpt>
      <trkpt lat="40.735179120674729" lon="13.923205174505711">
        <ele>267.86000000000001</ele>
        <time>2018-09-25T08:15:05Z</time>
      </trkpt>
      <trkpt lat="40.735165039077401" lon="13.923206850886345">
        <ele>267.86000000000001</ele>
        <time>2018-09-25T08:15:06Z</time>
      </trkpt>
      <trkpt lat="40.735075101256371" lon="13.923392174765468">
        <ele>267.38</ele>
        <time>2018-09-25T08:15:19Z</time>
      </trkpt>
      <trkpt lat="40.734961023554206" lon="13.923593256622553">
        <ele>267.38</ele>
        <time>2018-09-25T08:15:35Z</time>
      </trkpt>
      <trkpt lat="40.734849460422993" lon="13.923735916614532">
        <ele>266.89999999999998</ele>
        <time>2018-09-25T08:15:49Z</time>
      </trkpt>
      <trkpt lat="40.734768155962229" lon="13.923875475302339">
        <ele>266.89999999999998</ele>
        <time>2018-09-25T08:16:01Z</time>
      </trkpt>
      <trkpt lat="40.734715685248375" lon="13.923962311819196">
        <ele>266.89999999999998</ele>
        <time>2018-09-25T08:16:11Z</time>
      </trkpt>
      <trkpt lat="40.734628764912486" lon="13.924094242975116">
        <ele>265.45999999999998</ele>
        <time>2018-09-25T08:16:25Z</time>
      </trkpt>
      <trkpt lat="40.734549472108483" lon="13.9242297783494">
        <ele>265.45999999999998</ele>
        <time>2018-09-25T08:16:38Z</time>
      </trkpt>
      <trkpt lat="40.73443396948278" lon="13.924295324832201">
        <ele>264.98000000000002</ele>
        <time>2018-09-25T08:16:51Z</time>
      </trkpt>
      <trkpt lat="40.734418043866754" lon="13.924317117780447">
        <ele>264.98000000000002</ele>
        <time>2018-09-25T08:17:01Z</time>
      </trkpt>
      <trkpt lat="40.734417121857405" lon="13.924332289025187">
        <ele>264.98000000000002</ele>
        <time>2018-09-25T08:17:17Z</time>
      </trkpt>
      <trkpt lat="40.734419636428356" lon="13.924346286803484">
        <ele>264.98000000000002</ele>
        <time>2018-09-25T08:17:31Z</time>
      </trkpt>
      <trkpt lat="40.73440857231617" lon="13.9243368152529">
        <ele>263.54000000000002</ele>
        <time>2018-09-25T08:17:51Z</time>
      </trkpt>
      <trkpt lat="40.734389126300812" lon="13.924347460269928">
        <ele>264.5</ele>
        <time>2018-09-25T08:18:09Z</time>
      </trkpt>
      <trkpt lat="40.73435970582068" lon="13.924328433349729">
        <ele>265.45999999999998</ele>
        <time>2018-09-25T08:18:21Z</time>
      </trkpt>
      <trkpt lat="40.734230121597648" lon="13.92433631233871">
        <ele>266.42000000000002</ele>
        <time>2018-09-25T08:18:35Z</time>
      </trkpt>
      <trkpt lat="40.73410808108747" lon="13.924341090023518">
        <ele>265.45999999999998</ele>
        <time>2018-09-25T08:18:47Z</time>
      </trkpt>
      <trkpt lat="40.733984364196658" lon="13.924342263489962">
        <ele>266.89999999999998</ele>
        <time>2018-09-25T08:18:59Z</time>
      </trkpt>
      <trkpt lat="40.733884703367949" lon="13.924368163570762">
        <ele>267.38</ele>
        <time>2018-09-25T08:19:08Z</time>
      </trkpt>
      <trkpt lat="40.733780767768621" lon="13.92433580942452">
        <ele>266.89999999999998</ele>
        <time>2018-09-25T08:19:20Z</time>
      </trkpt>
      <trkpt lat="40.733671635389328" lon="13.924342934042215">
        <ele>267.86000000000001</ele>
        <time>2018-09-25T08:19:31Z</time>
      </trkpt>
      <trkpt lat="40.733559317886829" lon="13.924356261268258">
        <ele>269.31</ele>
        <time>2018-09-25T08:19:43Z</time>
      </trkpt>
      <trkpt lat="40.733507098630071" lon="13.924348466098309">
        <ele>269.31</ele>
        <time>2018-09-25T08:19:54Z</time>
      </trkpt>
      <trkpt lat="40.733358319848776" lon="13.924309322610497">
        <ele>271.70999999999998</ele>
        <time>2018-09-25T08:20:08Z</time>
      </trkpt>
      <trkpt lat="40.733212139457464" lon="13.924289038404822">
        <ele>272.67000000000002</ele>
        <time>2018-09-25T08:20:22Z</time>
      </trkpt>
      <trkpt lat="40.733085907995701" lon="13.924274453893304">
        <ele>272.67000000000002</ele>
        <time>2018-09-25T08:20:34Z</time>
      </trkpt>
      <trkpt lat="40.732944002375007" lon="13.924297587946057">
        <ele>272.67000000000002</ele>
        <time>2018-09-25T08:20:47Z</time>
      </trkpt>
      <trkpt lat="40.732801258563995" lon="13.924322314560413">
        <ele>271.23000000000002</ele>
        <time>2018-09-25T08:21:02Z</time>
      </trkpt>
      <trkpt lat="40.732666980475187" lon="13.924362380057573">
        <ele>272.67000000000002</ele>
        <time>2018-09-25T08:21:16Z</time>
      </trkpt>
      <trkpt lat="40.732540916651487" lon="13.924402361735702">
        <ele>271.23000000000002</ele>
        <time>2018-09-25T08:21:28Z</time>
      </trkpt>
      <trkpt lat="40.732421306893229" lon="13.924443684518337">
        <ele>270.75</ele>
        <time>2018-09-25T08:21:40Z</time>
      </trkpt>
      <trkpt lat="40.732283005490899" lon="13.924497663974762">
        <ele>270.75</ele>
        <time>2018-09-25T08:21:53Z</time>
      </trkpt>
      <trkpt lat="40.732175465673208" lon="13.924533957615495">
        <ele>271.23000000000002</ele>
        <time>2018-09-25T08:22:04Z</time>
      </trkpt>
      <trkpt lat="40.732113858684897" lon="13.924538902938366">
        <ele>271.70999999999998</ele>
        <time>2018-09-25T08:22:14Z</time>
      </trkpt>
      <trkpt lat="40.732112769037485" lon="13.924539238214493">
        <ele>271.70999999999998</ele>
        <time>2018-09-25T08:22:24Z</time>
      </trkpt>
      <trkpt lat="40.732105141505599" lon="13.924540579319">
        <ele>273.14999999999998</ele>
        <time>2018-09-25T08:22:31Z</time>
      </trkpt>
      <trkpt lat="40.732111679390073" lon="13.924521971493959">
        <ele>271.23000000000002</ele>
        <time>2018-09-25T08:22:45Z</time>
      </trkpt>
      <trkpt lat="40.732115702703595" lon="13.924530101940036">
        <ele>271.23000000000002</ele>
        <time>2018-09-25T08:23:05Z</time>
      </trkpt>
      <trkpt lat="40.732109500095248" lon="13.924527671188116">
        <ele>271.23000000000002</ele>
        <time>2018-09-25T08:23:19Z</time>
      </trkpt>
      <trkpt lat="40.732105225324631" lon="13.924544099718332">
        <ele>271.70999999999998</ele>
        <time>2018-09-25T08:23:33Z</time>
      </trkpt>
      <trkpt lat="40.732086366042495" lon="13.92455181106925">
        <ele>273.14999999999998</ele>
        <time>2018-09-25T08:23:46Z</time>
      </trkpt>
      <trkpt lat="40.732024507597089" lon="13.924546614289284">
        <ele>273.14999999999998</ele>
        <time>2018-09-25T08:23:53Z</time>
      </trkpt>
      <trkpt lat="40.731925684958696" lon="13.924552062526345">
        <ele>272.19</ele>
        <time>2018-09-25T08:24:04Z</time>
      </trkpt>
      <trkpt lat="40.73182518593967" lon="13.924563713371754">
        <ele>273.63</ele>
        <time>2018-09-25T08:24:15Z</time>
      </trkpt>
      <trkpt lat="40.731734577566385" lon="13.924577878788114">
        <ele>273.14999999999998</ele>
        <time>2018-09-25T08:24:24Z</time>
      </trkpt>
      <trkpt lat="40.731616811826825" lon="13.924571173265576">
        <ele>274.58999999999997</ele>
        <time>2018-09-25T08:24:36Z</time>
      </trkpt>
      <trkpt lat="40.731440624222159" lon="13.924568574875593">
        <ele>275.06999999999999</ele>
        <time>2018-09-25T08:24:52Z</time>
      </trkpt>
      <trkpt lat="40.731308609247208" lon="13.924567904323339">
        <ele>276.04000000000002</ele>
        <time>2018-09-25T08:25:05Z</time>
      </trkpt>
      <trkpt lat="40.73118070140481" lon="13.924580560997128">
        <ele>276.04000000000002</ele>
        <time>2018-09-25T08:25:17Z</time>
      </trkpt>
      <trkpt lat="40.731039382517338" lon="13.9246114064008">
        <ele>277.48000000000002</ele>
        <time>2018-09-25T08:25:31Z</time>
      </trkpt>
      <trkpt lat="40.730948690325022" lon="13.924628589302301">
        <ele>278.44</ele>
        <time>2018-09-25T08:25:41Z</time>
      </trkpt>
      <trkpt lat="40.730850202962756" lon="13.924628924578428">
        <ele>278.92000000000002</ele>
        <time>2018-09-25T08:25:50Z</time>
      </trkpt>
      <trkpt lat="40.730738723650575" lon="13.92466907389462">
        <ele>279.88</ele>
        <time>2018-09-25T08:26:00Z</time>
      </trkpt>
      <trkpt lat="40.730627831071615" lon="13.924705116078258">
        <ele>279.88</ele>
        <time>2018-09-25T08:26:13Z</time>
      </trkpt>
      <trkpt lat="40.730615258216858" lon="13.92466270364821">
        <ele>281.31999999999999</ele>
        <time>2018-09-25T08:26:21Z</time>
      </trkpt>
      <trkpt lat="40.730658676475286" lon="13.924639318138361">
        <ele>279.88</ele>
        <time>2018-09-25T08:26:33Z</time>
      </trkpt>
      <trkpt lat="40.730699161067605" lon="13.924620039761066">
        <ele>279.88</ele>
        <time>2018-09-25T08:26:44Z</time>
      </trkpt>
      <trkpt lat="40.730699328705668" lon="13.92462414689362">
        <ele>280.83999999999997</ele>
        <time>2018-09-25T08:26:56Z</time>
      </trkpt>
      <trkpt lat="40.730711650103331" lon="13.924648035317659">
        <ele>280.36000000000001</ele>
        <time>2018-09-25T08:27:10Z</time>
      </trkpt>
      <trkpt lat="40.73078004643321" lon="13.924551391974092">
        <ele>280.83999999999997</ele>
        <time>2018-09-25T08:27:23Z</time>
      </trkpt>
      <trkpt lat="40.730903008952737" lon="13.924488443881273">
        <ele>281.31999999999999</ele>
        <time>2018-09-25T08:27:35Z</time>
      </trkpt>
      <trkpt lat="40.731052793562412" lon="13.924389034509659">
        <ele>283.73000000000002</ele>
        <time>2018-09-25T08:27:50Z</time>
      </trkpt>
      <trkpt lat="40.731139797717333" lon="13.924340670928359">
        <ele>284.20999999999998</ele>
        <time>2018-09-25T08:28:01Z</time>
      </trkpt>
      <trkpt lat="40.731292432174087" lon="13.924238746985793">
        <ele>286.13</ele>
        <time>2018-09-25T08:28:20Z</time>
      </trkpt>
      <trkpt lat="40.73140206746757" lon="13.924190970137715">
        <ele>288.52999999999997</ele>
        <time>2018-09-25T08:28:34Z</time>
      </trkpt>
      <trkpt lat="40.731533328071237" lon="13.924144869670272">
        <ele>289.49000000000001</ele>
        <time>2018-09-25T08:28:48Z</time>
      </trkpt>
      <trkpt lat="40.731640113517642" lon="13.924112599343061">
        <ele>290.94</ele>
        <time>2018-09-25T08:29:01Z</time>
      </trkpt>
      <trkpt lat="40.731752933934331" lon="13.924039760604501">
        <ele>292.86000000000001</ele>
        <time>2018-09-25T08:29:16Z</time>
      </trkpt>
      <trkpt lat="40.731864245608449" lon="13.924005897715688">
        <ele>294.30000000000001</ele>
        <time>2018-09-25T08:29:30Z</time>
      </trkpt>
      <trkpt lat="40.731950495392084" lon="13.923956276848912">
        <ele>295.74000000000001</ele>
        <time>2018-09-25T08:29:43Z</time>
      </trkpt>
      <trkpt lat="40.732023920863867" lon="13.923935322090983">
        <ele>297.67000000000002</ele>
        <time>2018-09-25T08:29:55Z</time>
      </trkpt>
      <trkpt lat="40.732018891721964" lon="13.923953510820866">
        <ele>298.63</ele>
        <time>2018-09-25T08:30:09Z</time>
      </trkpt>
      <trkpt lat="40.732031129300594" lon="13.923979578539729">
        <ele>299.58999999999997</ele>
        <time>2018-09-25T08:30:24Z</time>
      </trkpt>
      <trkpt lat="40.732027273625135" lon="13.923994582146406">
        <ele>298.14999999999998</ele>
        <time>2018-09-25T08:30:37Z</time>
      </trkpt>
      <trkpt lat="40.732025345787406" lon="13.923959545791149">
        <ele>299.58999999999997</ele>
        <time>2018-09-25T08:30:52Z</time>
      </trkpt>
      <trkpt lat="40.732016796246171" lon="13.923972370103002">
        <ele>299.11000000000001</ele>
        <time>2018-09-25T08:31:10Z</time>
      </trkpt>
      <trkpt lat="40.732055604457855" lon="13.923963150009513">
        <ele>300.06999999999999</ele>
        <time>2018-09-25T08:31:28Z</time>
      </trkpt>
      <trkpt lat="40.732083097100258" lon="13.92393758520484">
        <ele>300.06999999999999</ele>
        <time>2018-09-25T08:31:43Z</time>
      </trkpt>
      <trkpt lat="40.732161048799753" lon="13.923867093399167">
        <ele>301.99000000000001</ele>
        <time>2018-09-25T08:31:55Z</time>
      </trkpt>
      <trkpt lat="40.732233887538314" lon="13.923818897455931">
        <ele>303.91000000000003</ele>
        <time>2018-09-25T08:32:06Z</time>
      </trkpt>
      <trkpt lat="40.732293734326959" lon="13.923742789775133">
        <ele>305.83999999999997</ele>
        <time>2018-09-25T08:32:19Z</time>
      </trkpt>
      <trkpt lat="40.732345031574368" lon="13.923679925501347">
        <ele>308.24000000000001</ele>
        <time>2018-09-25T08:32:31Z</time>
      </trkpt>
      <trkpt lat="40.732450475916266" lon="13.923615049570799">
        <ele>311.12</ele>
        <time>2018-09-25T08:32:45Z</time>
      </trkpt>
      <trkpt lat="40.732544185593724" lon="13.923544138669968">
        <ele>311.60000000000002</ele>
        <time>2018-09-25T08:32:58Z</time>
      </trkpt>
      <trkpt lat="40.732613503932953" lon="13.923502480611205">
        <ele>313.52999999999997</ele>
        <time>2018-09-25T08:33:08Z</time>
      </trkpt>
      <trkpt lat="40.73268374428153" lon="13.923466354608536">
        <ele>314.97000000000003</ele>
        <time>2018-09-25T08:33:18Z</time>
      </trkpt>
      <trkpt lat="40.73273696936667" lon="13.923428133130074">
        <ele>315.93000000000001</ele>
        <time>2018-09-25T08:33:28Z</time>
      </trkpt>
      <trkpt lat="40.732819614931941" lon="13.923397539183497">
        <ele>317.85000000000002</ele>
        <time>2018-09-25T08:33:40Z</time>
      </trkpt>
      <trkpt lat="40.732891699299216" lon="13.923348085954785">
        <ele>320.25999999999999</ele>
        <time>2018-09-25T08:33:53Z</time>
      </trkpt>
      <trkpt lat="40.732991611585021" lon="13.923316486179829">
        <ele>321.22000000000003</ele>
        <time>2018-09-25T08:34:05Z</time>
      </trkpt>
      <trkpt lat="40.73305849917233" lon="13.923285137861967">
        <ele>322.66000000000003</ele>
        <time>2018-09-25T08:34:15Z</time>
      </trkpt>
      <trkpt lat="40.73316260240972" lon="13.923258651047945">
        <ele>323.62</ele>
        <time>2018-09-25T08:34:28Z</time>
      </trkpt>
      <trkpt lat="40.733259664848447" lon="13.923212299123406">
        <ele>325.54000000000002</ele>
        <time>2018-09-25T08:34:40Z</time>
      </trkpt>
      <trkpt lat="40.733334515243769" lon="13.92318120226264">
        <ele>325.54000000000002</ele>
        <time>2018-09-25T08:34:51Z</time>
      </trkpt>
      <trkpt lat="40.733364019542933" lon="13.92316460609436">
        <ele>327.47000000000003</ele>
        <time>2018-09-25T08:34:55Z</time>
      </trkpt>
      <trkpt lat="40.73337072506547" lon="13.923152117058635">
        <ele>327.94999999999999</ele>
        <time>2018-09-25T08:35:08Z</time>
      </trkpt>
      <trkpt lat="40.733399223536253" lon="13.923127138987184">
        <ele>328.91000000000003</ele>
        <time>2018-09-25T08:35:22Z</time>
      </trkpt>
      <trkpt lat="40.733400145545602" lon="13.923174245283008">
        <ele>328.91000000000003</ele>
        <time>2018-09-25T08:35:38Z</time>
      </trkpt>
      <trkpt lat="40.733403917402029" lon="13.923185728490353">
        <ele>327.94999999999999</ele>
        <time>2018-09-25T08:35:58Z</time>
      </trkpt>
      <trkpt lat="40.733394278213382" lon="13.923190422356129">
        <ele>327.47000000000003</ele>
        <time>2018-09-25T08:36:16Z</time>
      </trkpt>
      <trkpt lat="40.733405174687505" lon="13.923182208091021">
        <ele>326.99000000000001</ele>
        <time>2018-09-25T08:36:36Z</time>
      </trkpt>
      <trkpt lat="40.733406264334917" lon="13.923185560852289">
        <ele>328.43000000000001</ele>
        <time>2018-09-25T08:36:56Z</time>
      </trkpt>
      <trkpt lat="40.733387740328908" lon="13.923173490911722">
        <ele>328.91000000000003</ele>
        <time>2018-09-25T08:37:12Z</time>
      </trkpt>
      <trkpt lat="40.733390506356955" lon="13.923164354637265">
        <ele>330.35000000000002</ele>
        <time>2018-09-25T08:37:29Z</time>
      </trkpt>
      <trkpt lat="40.733392937108874" lon="13.923168042674661">
        <ele>330.35000000000002</ele>
        <time>2018-09-25T08:37:46Z</time>
      </trkpt>
      <trkpt lat="40.733391596004367" lon="13.923187823966146">
        <ele>329.87</ele>
        <time>2018-09-25T08:38:03Z</time>
      </trkpt>
      <trkpt lat="40.733391344547272" lon="13.923194110393524">
        <ele>329.38999999999999</ele>
        <time>2018-09-25T08:38:26Z</time>
      </trkpt>
      <trkpt lat="40.733394613489509" lon="13.923189248889685">
        <ele>328.43000000000001</ele>
        <time>2018-09-25T08:38:39Z</time>
      </trkpt>
      <trkpt lat="40.73340249247849" lon="13.923173742368817">
        <ele>327.94999999999999</ele>
        <time>2018-09-25T08:38:59Z</time>
      </trkpt>
      <trkpt lat="40.733418669551611" lon="13.923167288303375">
        <ele>328.91000000000003</ele>
        <time>2018-09-25T08:39:13Z</time>
      </trkpt>
      <trkpt lat="40.733416993170977" lon="13.923136610537767">
        <ele>329.87</ele>
        <time>2018-09-25T08:39:36Z</time>
      </trkpt>
      <trkpt lat="40.733444485813379" lon="13.923088917508721">
        <ele>329.38999999999999</ele>
        <time>2018-09-25T08:39:53Z</time>
      </trkpt>
      <trkpt lat="40.733455214649439" lon="13.923017252236605">
        <ele>330.82999999999998</ele>
        <time>2018-09-25T08:40:01Z</time>
      </trkpt>
      <trkpt lat="40.733428476378322" lon="13.922952124848962">
        <ele>333.70999999999998</ele>
        <time>2018-09-25T08:40:07Z</time>
      </trkpt>
      <trkpt lat="40.733427554368973" lon="13.922944245859981">
        <ele>333.23000000000002</ele>
        <time>2018-09-25T08:40:08Z</time>
      </trkpt>
      <trkpt lat="40.733389835804701" lon="13.922818601131439">
        <ele>332.75</ele>
        <time>2018-09-25T08:40:19Z</time>
      </trkpt>
      <trkpt lat="40.733352117240429" lon="13.922708295285702">
        <ele>332.75</ele>
        <time>2018-09-25T08:40:30Z</time>
      </trkpt>
      <trkpt lat="40.73334046639502" lon="13.922677198424935">
        <ele>334.19999999999999</ele>
        <time>2018-09-25T08:40:33Z</time>
      </trkpt>
      <trkpt lat="40.733305178582668" lon="13.922603102400899">
        <ele>335.63999999999999</ele>
        <time>2018-09-25T08:40:45Z</time>
      </trkpt>
      <trkpt lat="40.733273662626743" lon="13.922507632523775">
        <ele>337.07999999999998</ele>
        <time>2018-09-25T08:40:57Z</time>
      </trkpt>
      <trkpt lat="40.733239380642772" lon="13.922418365254998">
        <ele>337.56</ele>
        <time>2018-09-25T08:41:07Z</time>
      </trkpt>
      <trkpt lat="40.73318162932992" lon="13.922323565930128">
        <ele>338.51999999999998</ele>
        <time>2018-09-25T08:41:17Z</time>
      </trkpt>
      <trkpt lat="40.733137791976333" lon="13.922268496826291">
        <ele>338.04000000000002</ele>
        <time>2018-09-25T08:41:24Z</time>
      </trkpt>
      <trkpt lat="40.7331014983356" lon="13.922176882624626">
        <ele>339.48000000000002</ele>
        <time>2018-09-25T08:41:35Z</time>
      </trkpt>
      <trkpt lat="40.733059756457806" lon="13.922077473253012">
        <ele>340.92000000000002</ele>
        <time>2018-09-25T08:41:46Z</time>
      </trkpt>
      <trkpt lat="40.733025223016739" lon="13.92199675552547">
        <ele>343.32999999999998</ele>
        <time>2018-09-25T08:41:56Z</time>
      </trkpt>
      <trkpt lat="40.73297350667417" lon="13.92194545827806">
        <ele>343.81</ele>
        <time>2018-09-25T08:42:10Z</time>
      </trkpt>
      <trkpt lat="40.732994880527258" lon="13.921918300911784">
        <ele>343.32999999999998</ele>
        <time>2018-09-25T08:42:32Z</time>
      </trkpt>
      <trkpt lat="40.733037628233433" lon="13.921940848231316">
        <ele>345.73000000000002</ele>
        <time>2018-09-25T08:42:52Z</time>
      </trkpt>
      <trkpt lat="40.73300376534462" lon="13.921901453286409">
        <ele>345.25</ele>
        <time>2018-09-25T08:43:11Z</time>
      </trkpt>
      <trkpt lat="40.732942409813404" lon="13.921807324513793">
        <ele>345.25</ele>
        <time>2018-09-25T08:43:21Z</time>
      </trkpt>
      <trkpt lat="40.732909804210067" lon="13.921716129407287">
        <ele>345.73000000000002</ele>
        <time>2018-09-25T08:43:32Z</time>
      </trkpt>
      <trkpt lat="40.732876192778349" lon="13.921630550175905">
        <ele>347.17000000000002</ele>
        <time>2018-09-25T08:43:42Z</time>
      </trkpt>
      <trkpt lat="40.732819950208068" lon="13.921503480523825">
        <ele>350.54000000000002</ele>
        <time>2018-09-25T08:43:54Z</time>
      </trkpt>
      <trkpt lat="40.732799498364329" lon="13.921457380056381">
        <ele>353.89999999999998</ele>
        <time>2018-09-25T08:44:01Z</time>
      </trkpt>
      <trkpt lat="40.732770077884197" lon="13.921364424750209">
        <ele>355.82999999999998</ele>
        <time>2018-09-25T08:44:11Z</time>
      </trkpt>
      <trkpt lat="40.732736550271511" lon="13.921278091147542">
        <ele>355.82999999999998</ele>
        <time>2018-09-25T08:44:22Z</time>
      </trkpt>
      <trkpt lat="40.732698328793049" lon="13.921169461682439">
        <ele>358.70999999999998</ele>
        <time>2018-09-25T08:44:35Z</time>
      </trkpt>
      <trkpt lat="40.732660610228777" lon="13.921077847480774">
        <ele>361.11000000000001</ele>
        <time>2018-09-25T08:44:48Z</time>
      </trkpt>
      <trkpt lat="40.73260260745883" lon="13.920976426452398">
        <ele>362.06999999999999</ele>
        <time>2018-09-25T08:45:00Z</time>
      </trkpt>
      <trkpt lat="40.732600344344974" lon="13.920831000432372">
        <ele>364.95999999999998</ele>
        <time>2018-09-25T08:45:13Z</time>
      </trkpt>
      <trkpt lat="40.732623059302568" lon="13.920734943822026">
        <ele>366.88</ele>
        <time>2018-09-25T08:45:23Z</time>
      </trkpt>
      <trkpt lat="40.732625406235456" lon="13.920696219429374">
        <ele>368.31999999999999</ele>
        <time>2018-09-25T08:45:33Z</time>
      </trkpt>
      <trkpt lat="40.732661783695221" lon="13.920701164752245">
        <ele>368.80000000000001</ele>
        <time>2018-09-25T08:45:45Z</time>
      </trkpt>
      <trkpt lat="40.732676452025771" lon="13.920692950487137">
        <ele>369.27999999999997</ele>
        <time>2018-09-25T08:45:59Z</time>
      </trkpt>
      <trkpt lat="40.732712829485536" lon="13.920658333227038">
        <ele>369.27999999999997</ele>
        <time>2018-09-25T08:46:09Z</time>
      </trkpt>
      <trkpt lat="40.732696652412415" lon="13.9206672180444">
        <ele>369.27999999999997</ele>
        <time>2018-09-25T08:46:25Z</time>
      </trkpt>
      <trkpt lat="40.732736466452479" lon="13.920685155317187">
        <ele>368.80000000000001</ele>
        <time>2018-09-25T08:46:38Z</time>
      </trkpt>
      <trkpt lat="40.73272573761642" lon="13.920670486986637">
        <ele>369.27999999999997</ele>
        <time>2018-09-25T08:46:52Z</time>
      </trkpt>
      <trkpt lat="40.732719451189041" lon="13.920669397339225">
        <ele>368.80000000000001</ele>
        <time>2018-09-25T08:47:06Z</time>
      </trkpt>
      <trkpt lat="40.73267100378871" lon="13.920706948265433">
        <ele>368.31999999999999</ele>
        <time>2018-09-25T08:47:19Z</time>
      </trkpt>
      <trkpt lat="40.732659101486206" lon="13.920725388452411">
        <ele>367.83999999999997</ele>
        <time>2018-09-25T08:47:40Z</time>
      </trkpt>
      <trkpt lat="40.732689360156655" lon="13.920717760920525">
        <ele>368.80000000000001</ele>
        <time>2018-09-25T08:47:53Z</time>
      </trkpt>
      <trkpt lat="40.732699166983366" lon="13.920712480321527">
        <ele>368.31999999999999</ele>
        <time>2018-09-25T08:48:04Z</time>
      </trkpt>
      <trkpt lat="40.732722384855151" lon="13.92073217779398">
        <ele>367.83999999999997</ele>
        <time>2018-09-25T08:48:24Z</time>
      </trkpt>
      <trkpt lat="40.732727330178022" lon="13.920701751485467">
        <ele>369.27999999999997</ele>
        <time>2018-09-25T08:48:40Z</time>
      </trkpt>
      <trkpt lat="40.732751553878188" lon="13.920686999335885">
        <ele>368.80000000000001</ele>
        <time>2018-09-25T08:48:57Z</time>
      </trkpt>
      <trkpt lat="40.732755661010742" lon="13.920704517513514">
        <ele>369.27999999999997</ele>
        <time>2018-09-25T08:49:10Z</time>
      </trkpt>
      <trkpt lat="40.732786757871509" lon="13.920596307143569">
        <ele>369.75999999999999</ele>
        <time>2018-09-25T08:49:23Z</time>
      </trkpt>
      <trkpt lat="40.732796061784029" lon="13.920474015176296">
        <ele>371.20999999999998</ele>
        <time>2018-09-25T08:49:35Z</time>
      </trkpt>
      <trkpt lat="40.732775861397386" lon="13.920406708493829">
        <ele>371.20999999999998</ele>
        <time>2018-09-25T08:49:47Z</time>
      </trkpt>
      <trkpt lat="40.732801510021091" lon="13.920390866696835">
        <ele>371.20999999999998</ele>
        <time>2018-09-25T08:50:03Z</time>
      </trkpt>
      <trkpt lat="40.732809221372008" lon="13.920369325205684">
        <ele>371.69</ele>
        <time>2018-09-25T08:50:20Z</time>
      </trkpt>
      <trkpt lat="40.732776531949639" lon="13.920311825349927">
        <ele>372.17000000000002</ele>
        <time>2018-09-25T08:50:38Z</time>
      </trkpt>
      <trkpt lat="40.732752056792378" lon="13.920213924720883">
        <ele>372.64999999999998</ele>
        <time>2018-09-25T08:50:49Z</time>
      </trkpt>
      <trkpt lat="40.732774017378688" lon="13.920094650238752">
        <ele>374.08999999999997</ele>
        <time>2018-09-25T08:51:01Z</time>
      </trkpt>
      <trkpt lat="40.732802683487535" lon="13.919990127906203">
        <ele>375.05000000000001</ele>
        <time>2018-09-25T08:51:11Z</time>
      </trkpt>
      <trkpt lat="40.73283520527184" lon="13.919924749061465">
        <ele>376.00999999999999</ele>
        <time>2018-09-25T08:51:19Z</time>
      </trkpt>
      <trkpt lat="40.73282984085381" lon="13.919848054647446">
        <ele>377.44999999999999</ele>
        <time>2018-09-25T08:51:29Z</time>
      </trkpt>
      <trkpt lat="40.73283520527184" lon="13.919774629175663">
        <ele>378.42000000000002</ele>
        <time>2018-09-25T08:51:37Z</time>
      </trkpt>
      <trkpt lat="40.732838558033109" lon="13.919730959460139">
        <ele>379.38</ele>
        <time>2018-09-25T08:51:42Z</time>
      </trkpt>
      <trkpt lat="40.732847023755312" lon="13.919650577008724">
        <ele>380.81999999999999</ele>
        <time>2018-09-25T08:51:52Z</time>
      </trkpt>
      <trkpt lat="40.732853394001722" lon="13.919554939493537">
        <ele>381.77999999999997</ele>
        <time>2018-09-25T08:52:02Z</time>
      </trkpt>
      <trkpt lat="40.732842832803726" lon="13.919502720236778">
        <ele>382.25999999999999</ele>
        <time>2018-09-25T08:52:12Z</time>
      </trkpt>
      <trkpt lat="40.732858926057816" lon="13.919465336948633">
        <ele>382.74000000000001</ele>
        <time>2018-09-25T08:52:23Z</time>
      </trkpt>
      <trkpt lat="40.732896225526929" lon="13.919390738010406">
        <ele>385.63</ele>
        <time>2018-09-25T08:52:35Z</time>
      </trkpt>
      <trkpt lat="40.732903350144625" lon="13.919321419671178">
        <ele>386.11000000000001</ele>
        <time>2018-09-25T08:52:46Z</time>
      </trkpt>
      <trkpt lat="40.732876863330603" lon="13.919257549569011">
        <ele>386.58999999999997</ele>
        <time>2018-09-25T08:52:56Z</time>
      </trkpt>
      <trkpt lat="40.732858339324594" lon="13.919205665588379">
        <ele>388.02999999999997</ele>
        <time>2018-09-25T08:53:05Z</time>
      </trkpt>
      <trkpt lat="40.732807712629437" lon="13.919071890413761">
        <ele>389.47000000000003</ele>
        <time>2018-09-25T08:53:18Z</time>
      </trkpt>
      <trkpt lat="40.732785416767001" lon="13.919010367244482">
        <ele>391.87</ele>
        <time>2018-09-25T08:53:29Z</time>
      </trkpt>
      <trkpt lat="40.732746860012412" lon="13.918883046135306">
        <ele>393.80000000000001</ele>
        <time>2018-09-25T08:53:45Z</time>
      </trkpt>
      <trkpt lat="40.732697574421763" lon="13.918792102485895">
        <ele>395.72000000000003</ele>
        <time>2018-09-25T08:53:58Z</time>
      </trkpt>
      <trkpt lat="40.732638984918594" lon="13.918708702549338">
        <ele>395.24000000000001</ele>
        <time>2018-09-25T08:54:10Z</time>
      </trkpt>
      <trkpt lat="40.732572264969349" lon="13.918643826618791">
        <ele>398.60000000000002</ele>
        <time>2018-09-25T08:54:22Z</time>
      </trkpt>
      <trkpt lat="40.732553405687213" lon="13.918579872697592">
        <ele>399.56999999999999</ele>
        <time>2018-09-25T08:54:36Z</time>
      </trkpt>
      <trkpt lat="40.732540329918265" lon="13.918556235730648">
        <ele>399.56999999999999</ele>
        <time>2018-09-25T08:54:49Z</time>
      </trkpt>
      <trkpt lat="40.732544520869851" lon="13.918580627068877">
        <ele>399.56999999999999</ele>
        <time>2018-09-25T08:55:01Z</time>
      </trkpt>
      <trkpt lat="40.732558015733957" lon="13.918589763343334">
        <ele>399.07999999999998</ele>
        <time>2018-09-25T08:55:18Z</time>
      </trkpt>
      <trkpt lat="40.732544185593724" lon="13.918583309277892">
        <ele>397.63999999999999</ele>
        <time>2018-09-25T08:55:31Z</time>
      </trkpt>
      <trkpt lat="40.732556590810418" lon="13.918595295399427">
        <ele>399.07999999999998</ele>
        <time>2018-09-25T08:55:45Z</time>
      </trkpt>
      <trkpt lat="40.73256547562778" lon="13.918607281520963">
        <ele>399.56999999999999</ele>
        <time>2018-09-25T08:56:01Z</time>
      </trkpt>
      <trkpt lat="40.732552064582705" lon="13.918543830513954">
        <ele>400.52999999999997</ele>
        <time>2018-09-25T08:56:16Z</time>
      </trkpt>
      <trkpt lat="40.732573857530951" lon="13.91852748580277">
        <ele>400.05000000000001</ele>
        <time>2018-09-25T08:56:35Z</time>
      </trkpt>
      <trkpt lat="40.732566649094224" lon="13.918511644005775">
        <ele>398.60000000000002</ele>
        <time>2018-09-25T08:56:49Z</time>
      </trkpt>
      <trkpt lat="40.732541922479868" lon="13.918478870764375">
        <ele>398.60000000000002</ele>
        <time>2018-09-25T08:57:05Z</time>
      </trkpt>
      <trkpt lat="40.732543179765344" lon="13.91843855381012">
        <ele>400.52999999999997</ele>
        <time>2018-09-25T08:57:23Z</time>
      </trkpt>
      <trkpt lat="40.732538402080536" lon="13.918403098359704">
        <ele>399.56999999999999</ele>
        <time>2018-09-25T08:57:27Z</time>
      </trkpt>
      <trkpt lat="40.732576958835125" lon="13.918430507183075">
        <ele>397.63999999999999</ele>
        <time>2018-09-25T08:57:31Z</time>
      </trkpt>
      <trkpt lat="40.732593135908246" lon="13.91851918771863">
        <ele>396.19999999999999</ele>
        <time>2018-09-25T08:57:42Z</time>
      </trkpt>
      <trkpt lat="40.732590621337295" lon="13.918515583500266">
        <ele>395.72000000000003</ele>
        <time>2018-09-25T08:57:49Z</time>
      </trkpt>
      <trkpt lat="40.732588525861502" lon="13.918509129434824">
        <ele>395.24000000000001</ele>
        <time>2018-09-25T08:58:05Z</time>
      </trkpt>
      <trkpt lat="40.732576791197062" lon="13.918517595157027">
        <ele>396.68000000000001</ele>
        <time>2018-09-25T08:58:17Z</time>
      </trkpt>
      <trkpt lat="40.732567990198731" lon="13.918445762246847">
        <ele>397.63999999999999</ele>
        <time>2018-09-25T08:58:26Z</time>
      </trkpt>
      <trkpt lat="40.73255768045783" lon="13.918478367850184">
        <ele>397.16000000000003</ele>
        <time>2018-09-25T08:58:40Z</time>
      </trkpt>
      <trkpt lat="40.732555333524942" lon="13.918486749753356">
        <ele>399.07999999999998</ele>
        <time>2018-09-25T08:58:52Z</time>
      </trkpt>
      <trkpt lat="40.732554495334625" lon="13.918485911563039">
        <ele>400.52999999999997</ele>
        <time>2018-09-25T08:58:54Z</time>
      </trkpt>
      <trkpt lat="40.732550974935293" lon="13.918506950139999">
        <ele>397.16000000000003</ele>
        <time>2018-09-25T08:59:01Z</time>
      </trkpt>
      <trkpt lat="40.73253764770925" lon="13.918554307892919">
        <ele>399.56999999999999</ele>
        <time>2018-09-25T08:59:16Z</time>
      </trkpt>
      <trkpt lat="40.732526248320937" lon="13.9184585865587">
        <ele>401.49000000000001</ele>
        <time>2018-09-25T08:59:29Z</time>
      </trkpt>
      <trkpt lat="40.732510071247816" lon="13.918344676494598">
        <ele>402.44999999999999</ele>
        <time>2018-09-25T08:59:40Z</time>
      </trkpt>
      <trkpt lat="40.732464138418436" lon="13.918200843036175">
        <ele>402.93000000000001</ele>
        <time>2018-09-25T08:59:53Z</time>
      </trkpt>
      <trkpt lat="40.732458438724279" lon="13.918191874399781">
        <ele>402.93000000000001</ele>
        <time>2018-09-25T08:59:54Z</time>
      </trkpt>
      <trkpt lat="40.732387192547321" lon="13.918127920478582">
        <ele>402.93000000000001</ele>
        <time>2018-09-25T09:00:07Z</time>
      </trkpt>
      <trkpt lat="40.732334805652499" lon="13.918099841102958">
        <ele>403.88999999999999</ele>
        <time>2018-09-25T09:00:19Z</time>
      </trkpt>
      <trkpt lat="40.732284262776375" lon="13.918089363723993">
        <ele>404.85000000000002</ele>
        <time>2018-09-25T09:00:30Z</time>
      </trkpt>
      <trkpt lat="40.732228271663189" lon="13.91799976117909">
        <ele>406.29000000000002</ele>
        <time>2018-09-25T09:00:43Z</time>
      </trkpt>
      <trkpt lat="40.732204550877213" lon="13.917950559407473">
        <ele>408.69999999999999</ele>
        <time>2018-09-25T09:00:51Z</time>
      </trkpt>
      <trkpt lat="40.732144620269537" lon="13.917907895520329">
        <ele>410.13999999999999</ele>
        <time>2018-09-25T09:01:00Z</time>
      </trkpt>
      <trkpt lat="40.732090221717954" lon="13.917799685150385">
        <ele>408.22000000000003</ele>
        <time>2018-09-25T09:01:11Z</time>
      </trkpt>
      <trkpt lat="40.732061974704266" lon="13.917685188353062">
        <ele>408.69999999999999</ele>
        <time>2018-09-25T09:01:24Z</time>
      </trkpt>
      <trkpt lat="40.732056023553014" lon="13.917519310489297">
        <ele>408.22000000000003</ele>
        <time>2018-09-25T09:01:37Z</time>
      </trkpt>
      <trkpt lat="40.732016041874886" lon="13.917385283857584">
        <ele>408.22000000000003</ele>
        <time>2018-09-25T09:01:49Z</time>
      </trkpt>
      <trkpt lat="40.732015538960695" lon="13.917253604158759">
        <ele>407.25999999999999</ele>
        <time>2018-09-25T09:02:02Z</time>
      </trkpt>
      <trkpt lat="40.732031213119626" lon="13.917139526456594">
        <ele>406.29000000000002</ele>
        <time>2018-09-25T09:02:11Z</time>
      </trkpt>
      <trkpt lat="40.732021406292915" lon="13.917002063244581">
        <ele>407.25999999999999</ele>
        <time>2018-09-25T09:02:24Z</time>
      </trkpt>
      <trkpt lat="40.732039762660861" lon="13.916875328868628">
        <ele>406.76999999999998</ele>
        <time>2018-09-25T09:02:37Z</time>
      </trkpt>
      <trkpt lat="40.732049066573381" lon="13.916858732700348">
        <ele>405.81</ele>
        <time>2018-09-25T09:02:39Z</time>
      </trkpt>
      <trkpt lat="40.732081336900592" lon="13.916769046336412">
        <ele>403.88999999999999</ele>
        <time>2018-09-25T09:02:51Z</time>
      </trkpt>
      <trkpt lat="40.732094664126635" lon="13.916677935048938">
        <ele>402.44999999999999</ele>
        <time>2018-09-25T09:03:00Z</time>
      </trkpt>
      <trkpt lat="40.732091143727303" lon="13.91662135720253">
        <ele>401.00999999999999</ele>
        <time>2018-09-25T09:03:04Z</time>
      </trkpt>
      <trkpt lat="40.732096340507269" lon="13.916568048298359">
        <ele>400.05000000000001</ele>
        <time>2018-09-25T09:03:08Z</time>
      </trkpt>
      <trkpt lat="40.732060968875885" lon="13.916450282558799">
        <ele>400.05000000000001</ele>
        <time>2018-09-25T09:03:18Z</time>
      </trkpt>
      <trkpt lat="40.731970611959696" lon="13.916380209848285">
        <ele>400.52999999999997</ele>
        <time>2018-09-25T09:03:29Z</time>
      </trkpt>
      <trkpt lat="40.731873298063874" lon="13.916338635608554">
        <ele>402.44999999999999</ele>
        <time>2018-09-25T09:03:42Z</time>
      </trkpt>
      <trkpt lat="40.73178612627089" lon="13.916264455765486">
        <ele>401.00999999999999</ele>
        <time>2018-09-25T09:03:55Z</time>
      </trkpt>
      <trkpt lat="40.73173625394702" lon="13.916247356683016">
        <ele>402.93000000000001</ele>
        <time>2018-09-25T09:04:08Z</time>
      </trkpt>
      <trkpt lat="40.731669617816806" lon="13.916235035285354">
        <ele>404.85000000000002</ele>
        <time>2018-09-25T09:04:23Z</time>
      </trkpt>
      <trkpt lat="40.731608597561717" lon="13.916223887354136">
        <ele>405.32999999999998</ele>
        <time>2018-09-25T09:04:37Z</time>
      </trkpt>
      <trkpt lat="40.731507847085595" lon="13.916146606206894">
        <ele>405.32999999999998</ele>
        <time>2018-09-25T09:04:49Z</time>
      </trkpt>
      <trkpt lat="40.731437020003796" lon="13.916144426912069">
        <ele>405.81</ele>
        <time>2018-09-25T09:05:01Z</time>
      </trkpt>
      <trkpt lat="40.731422267854214" lon="13.916143923997879">
        <ele>406.29000000000002</ele>
        <time>2018-09-25T09:05:13Z</time>
      </trkpt>
      <trkpt lat="40.731432577595115" lon="13.916221456602216">
        <ele>409.18000000000001</ele>
        <time>2018-09-25T09:05:27Z</time>
      </trkpt>
      <trkpt lat="40.731416651979089" lon="13.916264623403549">
        <ele>411.57999999999998</ele>
        <time>2018-09-25T09:05:38Z</time>
      </trkpt>
      <trkpt lat="40.731394607573748" lon="13.916314914822578">
        <ele>413.01999999999998</ele>
        <time>2018-09-25T09:05:49Z</time>
      </trkpt>
      <trkpt lat="40.731301652267575" lon="13.916371408849955">
        <ele>413.5</ele>
        <time>2018-09-25T09:06:03Z</time>
      </trkpt>
      <trkpt lat="40.731225376948714" lon="13.916347855702043">
        <ele>415.43000000000001</ele>
        <time>2018-09-25T09:06:13Z</time>
      </trkpt>
      <trkpt lat="40.731129571795464" lon="13.916288511827588">
        <ele>415.91000000000003</ele>
        <time>2018-09-25T09:06:25Z</time>
      </trkpt>
      <trkpt lat="40.73103703558445" lon="13.916370989754796">
        <ele>416.87</ele>
        <time>2018-09-25T09:06:37Z</time>
      </trkpt>
      <trkpt lat="40.730981379747391" lon="13.916399655863643">
        <ele>416.38999999999999</ele>
        <time>2018-09-25T09:06:46Z</time>
      </trkpt>
      <trkpt lat="40.730919018387794" lon="13.916397141292691">
        <ele>418.31</ele>
        <time>2018-09-25T09:06:58Z</time>
      </trkpt>
      <trkpt lat="40.73086311109364" lon="13.916399320587516">
        <ele>418.31</ele>
        <time>2018-09-25T09:07:14Z</time>
      </trkpt>
      <trkpt lat="40.730827655643225" lon="13.916276609525084">
        <ele>418.31</ele>
        <time>2018-09-25T09:07:25Z</time>
      </trkpt>
      <trkpt lat="40.730824219062924" lon="13.91616202890873">
        <ele>419.75</ele>
        <time>2018-09-25T09:07:38Z</time>
      </trkpt>
      <trkpt lat="40.730779292061925" lon="13.916014255955815">
        <ele>420.70999999999998</ele>
        <time>2018-09-25T09:07:53Z</time>
      </trkpt>
      <trkpt lat="40.730768060311675" lon="13.915935214608908">
        <ele>422.16000000000003</ele>
        <time>2018-09-25T09:08:05Z</time>
      </trkpt>
      <trkpt lat="40.730732269585133" lon="13.915868243202567">
        <ele>423.60000000000002</ele>
        <time>2018-09-25T09:08:17Z</time>
      </trkpt>
      <trkpt lat="40.730692623183131" lon="13.915802445262671">
        <ele>424.56</ele>
        <time>2018-09-25T09:08:30Z</time>
      </trkpt>
      <trkpt lat="40.730647528544068" lon="13.915742682293057">
        <ele>425.04000000000002</ele>
        <time>2018-09-25T09:08:41Z</time>
      </trkpt>
      <trkpt lat="40.730630429461598" lon="13.91566707752645">
        <ele>424.56</ele>
        <time>2018-09-25T09:08:52Z</time>
      </trkpt>
      <trkpt lat="40.730606457218528" lon="13.915593987330794">
        <ele>424.56</ele>
        <time>2018-09-25T09:09:05Z</time>
      </trkpt>
      <trkpt lat="40.730590531602502" lon="13.915564063936472">
        <ele>428.88999999999999</ele>
        <time>2018-09-25T09:09:14Z</time>
      </trkpt>
      <trkpt lat="40.730585586279631" lon="13.915560627356172">
        <ele>428.88999999999999</ele>
        <time>2018-09-25T09:09:15Z</time>
      </trkpt>
      <trkpt lat="40.730571839958429" lon="13.915512599050999">
        <ele>430.32999999999998</ele>
        <time>2018-09-25T09:09:23Z</time>
      </trkpt>
      <trkpt lat="40.730518782511353" lon="13.915408831089735">
        <ele>430.81</ele>
        <time>2018-09-25T09:09:34Z</time>
      </trkpt>
      <trkpt lat="40.73047854937613" lon="13.91535091213882">
        <ele>431.76999999999998</ele>
        <time>2018-09-25T09:09:43Z</time>
      </trkpt>
      <trkpt lat="40.730436304584146" lon="13.915274972096086">
        <ele>433.20999999999998</ele>
        <time>2018-09-25T09:09:55Z</time>
      </trkpt>
      <trkpt lat="40.730456253513694" lon="13.915204145014286">
        <ele>434.17000000000002</ele>
        <time>2018-09-25T09:10:06Z</time>
      </trkpt>
      <trkpt lat="40.730483327060938" lon="13.915140610188246">
        <ele>434.64999999999998</ele>
        <time>2018-09-25T09:10:18Z</time>
      </trkpt>
      <trkpt lat="40.730516435578465" lon="13.915123511105776">
        <ele>435.13</ele>
        <time>2018-09-25T09:10:32Z</time>
      </trkpt>
      <trkpt lat="40.730449547991157" lon="13.915072046220303">
        <ele>436.57999999999998</ele>
        <time>2018-09-25T09:10:45Z</time>
      </trkpt>
      <trkpt lat="40.73042725212872" lon="13.915038350969553">
        <ele>437.06</ele>
        <time>2018-09-25T09:10:54Z</time>
      </trkpt>
      <trkpt lat="40.730396909639239" lon="13.915011193603277">
        <ele>438.01999999999998</ele>
        <time>2018-09-25T09:11:04Z</time>
      </trkpt>
      <trkpt lat="40.730367070063949" lon="13.91496148891747">
        <ele>439.94</ele>
        <time>2018-09-25T09:11:14Z</time>
      </trkpt>
      <trkpt lat="40.730349719524384" lon="13.914874317124486">
        <ele>441.38</ele>
        <time>2018-09-25T09:11:24Z</time>
      </trkpt>
      <trkpt lat="40.730321975424886" lon="13.91478119418025">
        <ele>442.81999999999999</ele>
        <time>2018-09-25T09:11:36Z</time>
      </trkpt>
      <trkpt lat="40.730279143899679" lon="13.914761580526829">
        <ele>443.79000000000002</ele>
        <time>2018-09-25T09:11:47Z</time>
      </trkpt>
      <trkpt lat="40.730244610458612" lon="13.914706176146865">
        <ele>445.23000000000002</ele>
        <time>2018-09-25T09:11:57Z</time>
      </trkpt>
      <trkpt lat="40.730222901329398" lon="13.914680108428001">
        <ele>446.19</ele>
        <time>2018-09-25T09:12:09Z</time>
      </trkpt>
      <trkpt lat="40.730222314596176" lon="13.914606096222997">
        <ele>448.11000000000001</ele>
        <time>2018-09-25T09:12:21Z</time>
      </trkpt>
      <trkpt lat="40.73017805814743" lon="13.914536191150546">
        <ele>449.55000000000001</ele>
        <time>2018-09-25T09:12:32Z</time>
      </trkpt>
      <trkpt lat="40.730138411745429" lon="13.914498724043369">
        <ele>451.95999999999998</ele>
        <time>2018-09-25T09:12:45Z</time>
      </trkpt>
      <trkpt lat="40.730111170560122" lon="13.914464693516493">
        <ele>452.92000000000002</ele>
        <time>2018-09-25T09:12:57Z</time>
      </trkpt>
      <trkpt lat="40.730114607140422" lon="13.914390346035361">
        <ele>453.39999999999998</ele>
        <time>2018-09-25T09:13:08Z</time>
      </trkpt>
      <trkpt lat="40.730133214965463" lon="13.914348855614662">
        <ele>454.83999999999997</ele>
        <time>2018-09-25T09:13:21Z</time>
      </trkpt>
      <trkpt lat="40.730129610747099" lon="13.914294540882111">
        <ele>456.27999999999997</ele>
        <time>2018-09-25T09:13:31Z</time>
      </trkpt>
      <trkpt lat="40.730120223015547" lon="13.914234358817339">
        <ele>457.24000000000001</ele>
        <time>2018-09-25T09:13:41Z</time>
      </trkpt>
      <trkpt lat="40.730113768950105" lon="13.914260845631361">
        <ele>457.72000000000003</ele>
        <time>2018-09-25T09:13:44Z</time>
      </trkpt>
      <trkpt lat="40.730042355135083" lon="13.91443477012217">
        <ele>457.72000000000003</ele>
        <time>2018-09-25T09:13:59Z</time>
      </trkpt>
      <trkpt lat="40.730086611583829" lon="13.914564605802298">
        <ele>457.72000000000003</ele>
        <time>2018-09-25T09:14:11Z</time>
      </trkpt>
      <trkpt lat="40.730104381218553" lon="13.914618752896786">
        <ele>458.20999999999998</ele>
        <time>2018-09-25T09:14:21Z</time>
      </trkpt>
      <trkpt lat="40.730103207752109" lon="13.914648843929172">
        <ele>458.20999999999998</ele>
        <time>2018-09-25T09:14:31Z</time>
      </trkpt>
      <trkpt lat="40.730081833899021" lon="13.914665104821324">
        <ele>457.72000000000003</ele>
        <time>2018-09-25T09:14:48Z</time>
      </trkpt>
      <trkpt lat="40.730065908282995" lon="13.914707936346531">
        <ele>457.24000000000001</ele>
        <time>2018-09-25T09:15:04Z</time>
      </trkpt>
      <trkpt lat="40.730057023465633" lon="13.914836514741182">
        <ele>458.20999999999998</ele>
        <time>2018-09-25T09:15:17Z</time>
      </trkpt>
      <trkpt lat="40.73004612699151" lon="13.914895188063383">
        <ele>458.20999999999998</ele>
        <time>2018-09-25T09:15:26Z</time>
      </trkpt>
      <trkpt lat="40.729987369850278" lon="13.914970709010959">
        <ele>457.24000000000001</ele>
        <time>2018-09-25T09:15:37Z</time>
      </trkpt>
      <trkpt lat="40.729941269382834" lon="13.915048493072391">
        <ele>457.24000000000001</ele>
        <time>2018-09-25T09:15:48Z</time>
      </trkpt>
      <trkpt lat="40.729931881651282" lon="13.915145639330149">
        <ele>457.24000000000001</ele>
        <time>2018-09-25T09:16:00Z</time>
      </trkpt>
      <trkpt lat="40.729880752041936" lon="13.915208084508777">
        <ele>457.24000000000001</ele>
        <time>2018-09-25T09:16:11Z</time>
      </trkpt>
      <trkpt lat="40.72982962243259" lon="13.915252089500427">
        <ele>457.24000000000001</ele>
        <time>2018-09-25T09:16:25Z</time>
      </trkpt>
      <trkpt lat="40.729765836149454" lon="13.915292071178555">
        <ele>456.75999999999999</ele>
        <time>2018-09-25T09:16:36Z</time>
      </trkpt>
      <trkpt lat="40.729688890278339" lon="13.915349571034312">
        <ele>455.80000000000001</ele>
        <time>2018-09-25T09:16:47Z</time>
      </trkpt>
      <trkpt lat="40.729683190584183" lon="13.915359964594245">
        <ele>455.80000000000001</ele>
        <time>2018-09-25T09:16:48Z</time>
      </trkpt>
      <trkpt lat="40.729635581374168" lon="13.915475131943822">
        <ele>455.80000000000001</ele>
        <time>2018-09-25T09:16:59Z</time>
      </trkpt>
      <trkpt lat="40.729597443714738" lon="13.915600357577205">
        <ele>457.24000000000001</ele>
        <time>2018-09-25T09:17:11Z</time>
      </trkpt>
      <trkpt lat="40.729509182274342" lon="13.915729271247983">
        <ele>458.69</ele>
        <time>2018-09-25T09:17:25Z</time>
      </trkpt>
      <trkpt lat="40.729397451505065" lon="13.915778053924441">
        <ele>458.69</ele>
        <time>2018-09-25T09:17:37Z</time>
      </trkpt>
      <trkpt lat="40.72928873822093" lon="13.91579263843596">
        <ele>457.24000000000001</ele>
        <time>2018-09-25T09:17:50Z</time>
      </trkpt>
      <trkpt lat="40.729187401011586" lon="13.915786603465676">
        <ele>456.27999999999997</ele>
        <time>2018-09-25T09:18:00Z</time>
      </trkpt>
      <trkpt lat="40.729053877294064" lon="13.91578140668571">
        <ele>455.80000000000001</ele>
        <time>2018-09-25T09:18:12Z</time>
      </trkpt>
      <trkpt lat="40.728944828733802" lon="13.915792554616928">
        <ele>456.27999999999997</ele>
        <time>2018-09-25T09:18:24Z</time>
      </trkpt>
      <trkpt lat="40.728871989995241" lon="13.915809988975525">
        <ele>456.75999999999999</ele>
        <time>2018-09-25T09:18:34Z</time>
      </trkpt>
      <trkpt lat="40.728811472654343" lon="13.915784759446979">
        <ele>457.24000000000001</ele>
        <time>2018-09-25T09:18:45Z</time>
      </trkpt>
      <trkpt lat="40.728782974183559" lon="13.915846785530448">
        <ele>457.24000000000001</ele>
        <time>2018-09-25T09:18:58Z</time>
      </trkpt>
      <trkpt lat="40.728783644735813" lon="13.915848294273019">
        <ele>456.75999999999999</ele>
        <time>2018-09-25T09:19:11Z</time>
      </trkpt>
      <trkpt lat="40.728778783231974" lon="13.915801271796227">
        <ele>456.75999999999999</ele>
        <time>2018-09-25T09:19:30Z</time>
      </trkpt>
      <trkpt lat="40.7287981454283" lon="13.915792386978865">
        <ele>456.75999999999999</ele>
        <time>2018-09-25T09:19:48Z</time>
      </trkpt>
      <trkpt lat="40.728819770738482" lon="13.915801690891385">
        <ele>456.75999999999999</ele>
        <time>2018-09-25T09:20:10Z</time>
      </trkpt>
      <trkpt lat="40.728829661384225" lon="13.915789956226945">
        <ele>457.24000000000001</ele>
        <time>2018-09-25T09:20:24Z</time>
      </trkpt>
      <trkpt lat="40.728823291137815" lon="13.915793057531118">
        <ele>456.75999999999999</ele>
        <time>2018-09-25T09:20:35Z</time>
      </trkpt>
      <trkpt lat="40.728788590058684" lon="13.915772354230285">
        <ele>456.27999999999997</ele>
        <time>2018-09-25T09:20:45Z</time>
      </trkpt>
      <trkpt lat="40.72876688092947" lon="13.915706304833293">
        <ele>456.27999999999997</ele>
        <time>2018-09-25T09:21:04Z</time>
      </trkpt>
      <trkpt lat="40.728775765746832" lon="13.915689373388886">
        <ele>457.24000000000001</ele>
        <time>2018-09-25T09:21:23Z</time>
      </trkpt>
      <trkpt lat="40.728782890364528" lon="13.915682919323444">
        <ele>457.24000000000001</ele>
        <time>2018-09-25T09:21:45Z</time>
      </trkpt>
      <trkpt lat="40.728770988062024" lon="13.915664395317435">
        <ele>457.24000000000001</ele>
        <time>2018-09-25T09:22:13Z</time>
      </trkpt>
      <trkpt lat="40.728752044960856" lon="13.915645536035299">
        <ele>457.24000000000001</ele>
        <time>2018-09-25T09:22:34Z</time>
      </trkpt>
      <trkpt lat="40.728719690814614" lon="13.915609074756503">
        <ele>457.72000000000003</ele>
        <time>2018-09-25T09:22:54Z</time>
      </trkpt>
      <trkpt lat="40.728704771026969" lon="13.915563309565187">
        <ele>458.20999999999998</ele>
        <time>2018-09-25T09:23:17Z</time>
      </trkpt>
      <trkpt lat="40.728702507913113" lon="13.915545623749495">
        <ele>458.20999999999998</ele>
        <time>2018-09-25T09:23:39Z</time>
      </trkpt>
      <trkpt lat="40.72872337885201" lon="13.915568171069026">
        <ele>459.17000000000002</ele>
        <time>2018-09-25T09:24:03Z</time>
      </trkpt>
      <trkpt lat="40.72873025201261" lon="13.915596082806587">
        <ele>459.17000000000002</ele>
        <time>2018-09-25T09:24:29Z</time>
      </trkpt>
      <trkpt lat="40.728734945878386" lon="13.915589544922113">
        <ele>459.17000000000002</ele>
        <time>2018-09-25T09:24:51Z</time>
      </trkpt>
      <trkpt lat="40.728719690814614" lon="13.915603961795568">
        <ele>459.64999999999998</ele>
        <time>2018-09-25T09:25:13Z</time>
      </trkpt>
      <trkpt lat="40.728707704693079" lon="13.915593232959509">
        <ele>460.61000000000001</ele>
        <time>2018-09-25T09:25:36Z</time>
      </trkpt>
      <trkpt lat="40.72869018651545" lon="13.915654337033629">
        <ele>459.64999999999998</ele>
        <time>2018-09-25T09:25:50Z</time>
      </trkpt>
      <trkpt lat="40.728701250627637" lon="13.915668670088053">
        <ele>460.61000000000001</ele>
        <time>2018-09-25T09:26:09Z</time>
      </trkpt>
      <trkpt lat="40.728689264506102" lon="13.915718207135797">
        <ele>461.08999999999997</ele>
        <time>2018-09-25T09:26:35Z</time>
      </trkpt>
      <trkpt lat="40.728720780462027" lon="13.91572717577219">
        <ele>460.61000000000001</ele>
        <time>2018-09-25T09:27:00Z</time>
      </trkpt>
      <trkpt lat="40.728711979463696" lon="13.915735222399235">
        <ele>461.56999999999999</ele>
        <time>2018-09-25T09:27:21Z</time>
      </trkpt>
      <trkpt lat="40.728706615045667" lon="13.915706388652325">
        <ele>462.05000000000001</ele>
        <time>2018-09-25T09:27:37Z</time>
      </trkpt>
      <trkpt lat="40.728691695258021" lon="13.915679818019271">
        <ele>462.05000000000001</ele>
        <time>2018-09-25T09:28:01Z</time>
      </trkpt>
      <trkpt lat="40.728698568418622" lon="13.915669675916433">
        <ele>462.52999999999997</ele>
        <time>2018-09-25T09:28:26Z</time>
      </trkpt>
      <trkpt lat="40.72872438468039" lon="13.915668083354831">
        <ele>463.00999999999999</ele>
        <time>2018-09-25T09:28:47Z</time>
      </trkpt>
      <trkpt lat="40.728707956150174" lon="13.915634388104081">
        <ele>463.00999999999999</ele>
        <time>2018-09-25T09:29:10Z</time>
      </trkpt>
      <trkpt lat="40.728732934221625" lon="13.915642183274031">
        <ele>463.00999999999999</ele>
        <time>2018-09-25T09:29:31Z</time>
      </trkpt>
      <trkpt lat="40.728714829310775" lon="13.915658444166183">
        <ele>463.49000000000001</ele>
        <time>2018-09-25T09:29:50Z</time>
      </trkpt>
      <trkpt lat="40.728746177628636" lon="13.915685517713428">
        <ele>463.97000000000003</ele>
        <time>2018-09-25T09:30:08Z</time>
      </trkpt>
      <trkpt lat="40.728765958920121" lon="13.915722901001573">
        <ele>464.44999999999999</ele>
        <time>2018-09-25T09:30:26Z</time>
      </trkpt>
      <trkpt lat="40.728782890364528" lon="13.91571007668972">
        <ele>463.49000000000001</ele>
        <time>2018-09-25T09:30:41Z</time>
      </trkpt>
      <trkpt lat="40.728709800168872" lon="13.915676213800907">
        <ele>463.97000000000003</ele>
        <time>2018-09-25T09:31:00Z</time>
      </trkpt>
      <trkpt lat="40.728724636137486" lon="13.915670262649655">
        <ele>464.93000000000001</ele>
        <time>2018-09-25T09:31:10Z</time>
      </trkpt>
      <trkpt lat="40.728676021099091" lon="13.91561871394515">
        <ele>464.93000000000001</ele>
        <time>2018-09-25T09:31:23Z</time>
      </trkpt>
      <trkpt lat="40.728701753541827" lon="13.915639501065016">
        <ele>465.89999999999998</ele>
        <time>2018-09-25T09:31:35Z</time>
      </trkpt>
      <trkpt lat="40.728705525398254" lon="13.915681075304747">
        <ele>464.44999999999999</ele>
        <time>2018-09-25T09:31:50Z</time>
      </trkpt>
      <trkpt lat="40.728702591732144" lon="13.915741927921772">
        <ele>464.93000000000001</ele>
        <time>2018-09-25T09:32:05Z</time>
      </trkpt>
      <trkpt lat="40.728729162365198" lon="13.915703119710088">
        <ele>464.93000000000001</ele>
        <time>2018-09-25T09:32:14Z</time>
      </trkpt>
      <trkpt lat="40.728700328618288" lon="13.915593819692731">
        <ele>465.89999999999998</ele>
        <time>2018-09-25T09:32:26Z</time>
      </trkpt>
      <trkpt lat="40.728618269786239" lon="13.915554508566856">
        <ele>463.97000000000003</ele>
        <time>2018-09-25T09:32:39Z</time>
      </trkpt>
      <trkpt lat="40.728584742173553" lon="13.915424002334476">
        <ele>462.52999999999997</ele>
        <time>2018-09-25T09:32:52Z</time>
      </trkpt>
      <trkpt lat="40.728563368320465" lon="13.915313025936484">
        <ele>461.56999999999999</ele>
        <time>2018-09-25T09:33:03Z</time>
      </trkpt>
      <trkpt lat="40.728536127135158" lon="13.915246473625302">
        <ele>462.05000000000001</ele>
        <time>2018-09-25T09:33:09Z</time>
      </trkpt>
      <trkpt lat="40.728495977818966" lon="13.915203893557191">
        <ele>463.00999999999999</ele>
        <time>2018-09-25T09:33:14Z</time>
      </trkpt>
      <trkpt lat="40.728396736085415" lon="13.91519014723599">
        <ele>460.61000000000001</ele>
        <time>2018-09-25T09:33:26Z</time>
      </trkpt>
      <trkpt lat="40.728310737758875" lon="13.915180675685406">
        <ele>460.13</ele>
        <time>2018-09-25T09:33:35Z</time>
      </trkpt>
      <trkpt lat="40.728214010596275" lon="13.915212107822299">
        <ele>460.13</ele>
        <time>2018-09-25T09:33:49Z</time>
      </trkpt>
      <trkpt lat="40.728124575689435" lon="13.915229290723801">
        <ele>458.20999999999998</ele>
        <time>2018-09-25T09:34:00Z</time>
      </trkpt>
      <trkpt lat="40.728067494928837" lon="13.915226189419627">
        <ele>458.69</ele>
        <time>2018-09-25T09:34:07Z</time>
      </trkpt>
      <trkpt lat="40.727959368377924" lon="13.915248401463032">
        <ele>457.72000000000003</ele>
        <time>2018-09-25T09:34:18Z</time>
      </trkpt>
      <trkpt lat="40.727855013683438" lon="13.915247479453683">
        <ele>456.75999999999999</ele>
        <time>2018-09-25T09:34:28Z</time>
      </trkpt>
      <trkpt lat="40.727727608755231" lon="13.915234487503767">
        <ele>456.75999999999999</ele>
        <time>2018-09-25T09:34:40Z</time>
      </trkpt>
      <trkpt lat="40.727587379515171" lon="13.915283186361194">
        <ele>456.27999999999997</ele>
        <time>2018-09-25T09:34:55Z</time>
      </trkpt>
      <trkpt lat="40.727544212713838" lon="13.915308751165867">
        <ele>455.80000000000001</ele>
        <time>2018-09-25T09:34:58Z</time>
      </trkpt>
      <trkpt lat="40.727450586855412" lon="13.915456607937813">
        <ele>455.31999999999999</ele>
        <time>2018-09-25T09:35:11Z</time>
      </trkpt>
      <trkpt lat="40.727373389527202" lon="13.915553335100412">
        <ele>455.31999999999999</ele>
        <time>2018-09-25T09:35:21Z</time>
      </trkpt>
      <trkpt lat="40.727291414514184" lon="13.915651235729456">
        <ele>453.88</ele>
        <time>2018-09-25T09:35:32Z</time>
      </trkpt>
      <trkpt lat="40.727276746183634" lon="13.915665149688721">
        <ele>453.39999999999998</ele>
        <time>2018-09-25T09:35:34Z</time>
      </trkpt>
      <trkpt lat="40.727192256599665" lon="13.915738575160503">
        <ele>451.95999999999998</ele>
        <time>2018-09-25T09:35:46Z</time>
      </trkpt>
      <trkpt lat="40.727117238566279" lon="13.915779562667012">
        <ele>451.48000000000002</ele>
        <time>2018-09-25T09:35:54Z</time>
      </trkpt>
      <trkpt lat="40.726981954649091" lon="13.915933705866337">
        <ele>451</ele>
        <time>2018-09-25T09:36:10Z</time>
      </trkpt>
      <trkpt lat="40.726877516135573" lon="13.916003778576851">
        <ele>450.51999999999998</ele>
        <time>2018-09-25T09:36:22Z</time>
      </trkpt>
      <trkpt lat="40.726810209453106" lon="13.916050884872675">
        <ele>449.55000000000001</ele>
        <time>2018-09-25T09:36:31Z</time>
      </trkpt>
      <trkpt lat="40.726680122315884" lon="13.916101763024926">
        <ele>449.06999999999999</ele>
        <time>2018-09-25T09:36:46Z</time>
      </trkpt>
      <trkpt lat="40.726528912782669" lon="13.916126489639282">
        <ele>446.67000000000002</ele>
        <time>2018-09-25T09:36:58Z</time>
      </trkpt>
      <trkpt lat="40.726518016308546" lon="13.916128417477012">
        <ele>447.14999999999998</ele>
        <time>2018-09-25T09:36:59Z</time>
      </trkpt>
      <trkpt lat="40.726398155093193" lon="13.916146354749799">
        <ele>446.19</ele>
        <time>2018-09-25T09:37:12Z</time>
      </trkpt>
      <trkpt lat="40.726294806227088" lon="13.916159933432937">
        <ele>446.19</ele>
        <time>2018-09-25T09:37:24Z</time>
      </trkpt>
      <trkpt lat="40.726207969710231" lon="13.916204525157809">
        <ele>445.23000000000002</ele>
        <time>2018-09-25T09:37:35Z</time>
      </trkpt>
      <trkpt lat="40.726119540631771" lon="13.916230592876673">
        <ele>444.75</ele>
        <time>2018-09-25T09:37:44Z</time>
      </trkpt>
      <trkpt lat="40.726017281413078" lon="13.916290607303381">
        <ele>443.79000000000002</ele>
        <time>2018-09-25T09:37:55Z</time>
      </trkpt>
      <trkpt lat="40.725908819586039" lon="13.916296223178506">
        <ele>441.86000000000001</ele>
        <time>2018-09-25T09:38:08Z</time>
      </trkpt>
      <trkpt lat="40.72584587149322" lon="13.916311645880342">
        <ele>441.86000000000001</ele>
        <time>2018-09-25T09:38:15Z</time>
      </trkpt>
      <trkpt lat="40.725743025541306" lon="13.916319021955132">
        <ele>441.38</ele>
        <time>2018-09-25T09:38:26Z</time>
      </trkpt>
      <trkpt lat="40.7256362400949" lon="13.916365960612893">
        <ele>440.89999999999998</ele>
        <time>2018-09-25T09:38:37Z</time>
      </trkpt>
      <trkpt lat="40.725555857643485" lon="13.916401332244277">
        <ele>439.45999999999998</ele>
        <time>2018-09-25T09:38:46Z</time>
      </trkpt>
      <trkpt lat="40.725445216521621" lon="13.916429160162807">
        <ele>438.5</ele>
        <time>2018-09-25T09:39:00Z</time>
      </trkpt>
      <trkpt lat="40.725360391661525" lon="13.916453635320067">
        <ele>436.57999999999998</ele>
        <time>2018-09-25T09:39:11Z</time>
      </trkpt>
      <trkpt lat="40.725295599550009" lon="13.916481463238597">
        <ele>435.61000000000001</ele>
        <time>2018-09-25T09:39:21Z</time>
      </trkpt>
      <trkpt lat="40.725299203768373" lon="13.916491605341434">
        <ele>434.64999999999998</ele>
        <time>2018-09-25T09:39:34Z</time>
      </trkpt>
      <trkpt lat="40.725299455225468" lon="13.916480792686343">
        <ele>433.20999999999998</ele>
        <time>2018-09-25T09:39:48Z</time>
      </trkpt>
      <trkpt lat="40.725302640348673" lon="13.91648892313242">
        <ele>434.17000000000002</ele>
        <time>2018-09-25T09:40:08Z</time>
      </trkpt>
      <trkpt lat="40.72527464479208" lon="13.916475176811218">
        <ele>435.61000000000001</ele>
        <time>2018-09-25T09:40:17Z</time>
      </trkpt>
      <trkpt lat="40.725239440798759" lon="13.916500322520733">
        <ele>433.69</ele>
        <time>2018-09-25T09:40:26Z</time>
      </trkpt>
      <trkpt lat="40.725229298695922" lon="13.916492108255625">
        <ele>432.73000000000002</ele>
        <time>2018-09-25T09:40:28Z</time>
      </trkpt>
      <trkpt lat="40.725199542939663" lon="13.916425220668316">
        <ele>430.81</ele>
        <time>2018-09-25T09:40:40Z</time>
      </trkpt>
      <trkpt lat="40.725129721686244" lon="13.916491186246276">
        <ele>428.88999999999999</ele>
        <time>2018-09-25T09:40:51Z</time>
      </trkpt>
      <trkpt lat="40.725058643147349" lon="13.916568551212549">
        <ele>426.48000000000002</ele>
        <time>2018-09-25T09:41:05Z</time>
      </trkpt>
      <trkpt lat="40.724974740296602" lon="13.91656905412674">
        <ele>424.56</ele>
        <time>2018-09-25T09:41:18Z</time>
      </trkpt>
      <trkpt lat="40.724904499948025" lon="13.916584141552448">
        <ele>421.68000000000001</ele>
        <time>2018-09-25T09:41:29Z</time>
      </trkpt>
      <trkpt lat="40.724899051710963" lon="13.916586320847273">
        <ele>421.68000000000001</ele>
        <time>2018-09-25T09:41:30Z</time>
      </trkpt>
      <trkpt lat="40.724842390045524" lon="13.916592858731747">
        <ele>420.23000000000002</ele>
        <time>2018-09-25T09:41:42Z</time>
      </trkpt>
      <trkpt lat="40.724757816642523" lon="13.916614735499024">
        <ele>417.35000000000002</ele>
        <time>2018-09-25T09:41:53Z</time>
      </trkpt>
      <trkpt lat="40.724704507738352" lon="13.916629571467638">
        <ele>416.87</ele>
        <time>2018-09-25T09:42:05Z</time>
      </trkpt>
      <trkpt lat="40.724677434191108" lon="13.916596295312047">
        <ele>416.38999999999999</ele>
        <time>2018-09-25T09:42:16Z</time>
      </trkpt>
      <trkpt lat="40.724635943770409" lon="13.916591936722398">
        <ele>414.94999999999999</ele>
        <time>2018-09-25T09:42:29Z</time>
      </trkpt>
      <trkpt lat="40.724690677598119" lon="13.916538376361132">
        <ele>413.98000000000002</ele>
        <time>2018-09-25T09:42:39Z</time>
      </trkpt>
      <trkpt lat="40.724756140261889" lon="13.916476517915726">
        <ele>412.54000000000002</ele>
        <time>2018-09-25T09:42:49Z</time>
      </trkpt>
      <trkpt lat="40.724740969017148" lon="13.916441230103374">
        <ele>410.62</ele>
        <time>2018-09-25T09:42:59Z</time>
      </trkpt>
      <trkpt lat="40.724690174683928" lon="13.916454641148448">
        <ele>409.66000000000003</ele>
        <time>2018-09-25T09:43:10Z</time>
      </trkpt>
      <trkpt lat="40.724639799445868" lon="13.916462687775493">
        <ele>407.74000000000001</ele>
        <time>2018-09-25T09:43:20Z</time>
      </trkpt>
      <trkpt lat="40.724616246297956" lon="13.916400326415896">
        <ele>405.32999999999998</ele>
        <time>2018-09-25T09:43:32Z</time>
      </trkpt>
      <trkpt lat="40.724595542997122" lon="13.916396135464311">
        <ele>404.37</ele>
        <time>2018-09-25T09:43:35Z</time>
      </trkpt>
      <trkpt lat="40.72451775893569" lon="13.916353555396199">
        <ele>402.93000000000001</ele>
        <time>2018-09-25T09:43:45Z</time>
      </trkpt>
      <trkpt lat="40.724491104483604" lon="13.9163828920573">
        <ele>400.52999999999997</ele>
        <time>2018-09-25T09:43:55Z</time>
      </trkpt>
      <trkpt lat="40.724453805014491" lon="13.916432932019234">
        <ele>399.07999999999998</ele>
        <time>2018-09-25T09:44:04Z</time>
      </trkpt>
      <trkpt lat="40.724405441433191" lon="13.916475092992187">
        <ele>397.16000000000003</ele>
        <time>2018-09-25T09:44:14Z</time>
      </trkpt>
      <trkpt lat="40.724323550239205" lon="13.91645472496748">
        <ele>395.72000000000003</ele>
        <time>2018-09-25T09:44:23Z</time>
      </trkpt>
      <trkpt lat="40.724255656823516" lon="13.916467297822237">
        <ele>393.31999999999999</ele>
        <time>2018-09-25T09:44:33Z</time>
      </trkpt>
      <trkpt lat="40.724188853055239" lon="13.916492024436593">
        <ele>391.87</ele>
        <time>2018-09-25T09:44:44Z</time>
      </trkpt>
      <trkpt lat="40.724106123670936" lon="13.91658078879118">
        <ele>389.47000000000003</ele>
        <time>2018-09-25T09:44:55Z</time>
      </trkpt>
      <trkpt lat="40.724042169749737" lon="13.916672738268971">
        <ele>388.99000000000001</ele>
        <time>2018-09-25T09:45:06Z</time>
      </trkpt>
      <trkpt lat="40.724022472277284" lon="13.916707690805197">
        <ele>388.50999999999999</ele>
        <time>2018-09-25T09:45:10Z</time>
      </trkpt>
      <trkpt lat="40.723932534456253" lon="13.916773740202188">
        <ele>388.02999999999997</ele>
        <time>2018-09-25T09:45:21Z</time>
      </trkpt>
      <trkpt lat="40.72385810315609" lon="13.916791258379817">
        <ele>388.50999999999999</ele>
        <time>2018-09-25T09:45:28Z</time>
      </trkpt>
      <trkpt lat="40.723758861422539" lon="13.916785223409534">
        <ele>388.02999999999997</ele>
        <time>2018-09-25T09:45:37Z</time>
      </trkpt>
      <trkpt lat="40.723628271371126" lon="13.916805256158113">
        <ele>387.06999999999999</ele>
        <time>2018-09-25T09:45:50Z</time>
      </trkpt>
      <trkpt lat="40.72354638017714" lon="13.916872479021549">
        <ele>386.11000000000001</ele>
        <time>2018-09-25T09:46:00Z</time>
      </trkpt>
      <trkpt lat="40.72338905185461" lon="13.916978929191828">
        <ele>385.14999999999998</ele>
        <time>2018-09-25T09:46:15Z</time>
      </trkpt>
      <trkpt lat="40.723381591960788" lon="13.91698295250535">
        <ele>385.14999999999998</ele>
        <time>2018-09-25T09:46:16Z</time>
      </trkpt>
      <trkpt lat="40.723275225609541" lon="13.917093174532056">
        <ele>384.66000000000003</ele>
        <time>2018-09-25T09:46:30Z</time>
      </trkpt>
      <trkpt lat="40.723185455426574" lon="13.91713147982955">
        <ele>385.63</ele>
        <time>2018-09-25T09:46:40Z</time>
      </trkpt>
      <trkpt lat="40.723139857873321" lon="13.917150255292654">
        <ele>385.14999999999998</ele>
        <time>2018-09-25T09:46:52Z</time>
      </trkpt>
      <trkpt lat="40.723106665536761" lon="13.917205156758428">
        <ele>384.18000000000001</ele>
        <time>2018-09-25T09:47:06Z</time>
      </trkpt>
      <trkpt lat="40.72311001829803" lon="13.917215131223202">
        <ele>383.69999999999999</ele>
        <time>2018-09-25T09:47:10Z</time>
      </trkpt>
      <trkpt lat="40.723113957792521" lon="13.91724681481719">
        <ele>383.22000000000003</ele>
        <time>2018-09-25T09:47:12Z</time>
      </trkpt>
      <trkpt lat="40.723067857325077" lon="13.917285036295652">
        <ele>382.74000000000001</ele>
        <time>2018-09-25T09:47:17Z</time>
      </trkpt>
      <trkpt lat="40.722933914512396" lon="13.917354019358754">
        <ele>381.30000000000001</ele>
        <time>2018-09-25T09:47:28Z</time>
      </trkpt>
      <trkpt lat="40.722841378301382" lon="13.917425852268934">
        <ele>381.77999999999997</ele>
        <time>2018-09-25T09:47:36Z</time>
      </trkpt>
      <trkpt lat="40.722752613946795" lon="13.917457535862923">
        <ele>381.30000000000001</ele>
        <time>2018-09-25T09:47:46Z</time>
      </trkpt>
      <trkpt lat="40.722731743007898" lon="13.917540768161416">
        <ele>380.81999999999999</ele>
        <time>2018-09-25T09:47:56Z</time>
      </trkpt>
      <trkpt lat="40.722696706652641" lon="13.91760841012001">
        <ele>381.77999999999997</ele>
        <time>2018-09-25T09:48:07Z</time>
      </trkpt>
      <trkpt lat="40.722696287557483" lon="13.917634561657906">
        <ele>381.77999999999997</ele>
        <time>2018-09-25T09:48:10Z</time>
      </trkpt>
      <trkpt lat="40.722624035552144" lon="13.91763866879046">
        <ele>380.81999999999999</ele>
        <time>2018-09-25T09:48:19Z</time>
      </trkpt>
      <trkpt lat="40.722570726647973" lon="13.917676052078605">
        <ele>382.25999999999999</ele>
        <time>2018-09-25T09:48:31Z</time>
      </trkpt>
      <trkpt lat="40.72253979742527" lon="13.917699940502644">
        <ele>382.74000000000001</ele>
        <time>2018-09-25T09:48:39Z</time>
      </trkpt>
      <trkpt lat="40.722504341974854" lon="13.917775629088283">
        <ele>383.69999999999999</ele>
        <time>2018-09-25T09:48:49Z</time>
      </trkpt>
      <trkpt lat="40.722501743584871" lon="13.917826088145375">
        <ele>383.69999999999999</ele>
        <time>2018-09-25T09:48:57Z</time>
      </trkpt>
      <trkpt lat="40.722487159073353" lon="13.917787531390786">
        <ele>382.74000000000001</ele>
        <time>2018-09-25T09:49:05Z</time>
      </trkpt>
      <trkpt lat="40.722491098567843" lon="13.917795494198799">
        <ele>383.69999999999999</ele>
        <time>2018-09-25T09:49:19Z</time>
      </trkpt>
      <trkpt lat="40.722495373338461" lon="13.917787782847881">
        <ele>381.77999999999997</ele>
        <time>2018-09-25T09:49:42Z</time>
      </trkpt>
      <trkpt lat="40.722525548189878" lon="13.91778476536274">
        <ele>380.33999999999997</ele>
        <time>2018-09-25T09:50:01Z</time>
      </trkpt>
      <trkpt lat="40.72252169251442" lon="13.917792979627848">
        <ele>382.25999999999999</ele>
        <time>2018-09-25T09:50:22Z</time>
      </trkpt>
      <trkpt lat="40.722526889294386" lon="13.917796751484275">
        <ele>383.22000000000003</ele>
        <time>2018-09-25T09:50:40Z</time>
      </trkpt>
      <trkpt lat="40.722517669200897" lon="13.917809994891286">
        <ele>377.94</ele>
        <time>2018-09-25T09:50:47Z</time>
      </trkpt>
      <trkpt lat="40.722517417743802" lon="13.91780873760581">
        <ele>381.77999999999997</ele>
        <time>2018-09-25T09:50:48Z</time>
      </trkpt>
      <trkpt lat="40.722515238448977" lon="13.917804546654224">
        <ele>382.25999999999999</ele>
        <time>2018-09-25T09:50:50Z</time>
      </trkpt>
      <trkpt lat="40.722488248720765" lon="13.917792728170753">
        <ele>380.81999999999999</ele>
        <time>2018-09-25T09:51:14Z</time>
      </trkpt>
      <trkpt lat="40.722500989213586" lon="13.917789878323674">
        <ele>381.30000000000001</ele>
        <time>2018-09-25T09:51:39Z</time>
      </trkpt>
      <trkpt lat="40.722495960071683" lon="13.917782418429852">
        <ele>382.25999999999999</ele>
        <time>2018-09-25T09:51:43Z</time>
      </trkpt>
      <trkpt lat="40.722482968121767" lon="13.917784262448549">
        <ele>388.99000000000001</ele>
        <time>2018-09-25T09:51:54Z</time>
      </trkpt>
      <trkpt lat="40.722495540976524" lon="13.917779484763741">
        <ele>381.77999999999997</ele>
        <time>2018-09-25T09:51:55Z</time>
      </trkpt>
      <trkpt lat="40.722506688907743" lon="13.917800355702639">
        <ele>382.25999999999999</ele>
        <time>2018-09-25T09:52:03Z</time>
      </trkpt>
      <trkpt lat="40.7225226983428" lon="13.917820304632187">
        <ele>381.77999999999997</ele>
        <time>2018-09-25T09:52:13Z</time>
      </trkpt>
      <trkpt lat="40.722518842667341" lon="13.917832626029849">
        <ele>382.25999999999999</ele>
        <time>2018-09-25T09:52:35Z</time>
      </trkpt>
      <trkpt lat="40.722542814910412" lon="13.917826758697629">
        <ele>382.74000000000001</ele>
        <time>2018-09-25T09:52:58Z</time>
      </trkpt>
      <trkpt lat="40.722538959234953" lon="13.917844025418162">
        <ele>381.77999999999997</ele>
        <time>2018-09-25T09:53:18Z</time>
      </trkpt>
      <trkpt lat="40.722533175721765" lon="13.917860286310315">
        <ele>381.77999999999997</ele>
        <time>2018-09-25T09:53:43Z</time>
      </trkpt>
      <trkpt lat="40.722534852102399" lon="13.91786003485322">
        <ele>381.77999999999997</ele>
        <time>2018-09-25T09:54:09Z</time>
      </trkpt>
      <trkpt lat="40.722519680857658" lon="13.91781996935606">
        <ele>379.38</ele>
        <time>2018-09-25T09:54:28Z</time>
      </trkpt>
      <trkpt lat="40.72249922901392" lon="13.917815862223506">
        <ele>382.74000000000001</ele>
        <time>2018-09-25T09:54:37Z</time>
      </trkpt>
      <trkpt lat="40.722505934536457" lon="13.917824747040868">
        <ele>382.25999999999999</ele>
        <time>2018-09-25T09:54:49Z</time>
      </trkpt>
      <trkpt lat="40.722506772726774" lon="13.917777137830853">
        <ele>381.30000000000001</ele>
        <time>2018-09-25T09:55:05Z</time>
      </trkpt>
      <trkpt lat="40.722492355853319" lon="13.917798846960068">
        <ele>382.25999999999999</ele>
        <time>2018-09-25T09:55:23Z</time>
      </trkpt>
      <trkpt lat="40.722473412752151" lon="13.917757691815495">
        <ele>384.66000000000003</ele>
        <time>2018-09-25T09:55:34Z</time>
      </trkpt>
      <trkpt lat="40.722474250942469" lon="13.917747465893626">
        <ele>383.22000000000003</ele>
        <time>2018-09-25T09:55:35Z</time>
      </trkpt>
      <trkpt lat="40.722476178780198" lon="13.917729612439871">
        <ele>382.74000000000001</ele>
        <time>2018-09-25T09:55:37Z</time>
      </trkpt>
      <trkpt lat="40.722477436065674" lon="13.917706059291959">
        <ele>381.77999999999997</ele>
        <time>2018-09-25T09:55:48Z</time>
      </trkpt>
      <trkpt lat="40.722521189600229" lon="13.917678231373429">
        <ele>380.81999999999999</ele>
        <time>2018-09-25T09:55:59Z</time>
      </trkpt>
      <trkpt lat="40.722550023347139" lon="13.917657192796469">
        <ele>380.33999999999997</ele>
        <time>2018-09-25T09:56:07Z</time>
      </trkpt>
      <trkpt lat="40.722555806860328" lon="13.917611427605152">
        <ele>379.86000000000001</ele>
        <time>2018-09-25T09:56:19Z</time>
      </trkpt>
      <trkpt lat="40.722547844052315" lon="13.91760254278779">
        <ele>380.33999999999997</ele>
        <time>2018-09-25T09:56:21Z</time>
      </trkpt>
      <trkpt lat="40.722531164065003" lon="13.917522244155407">
        <ele>379.86000000000001</ele>
        <time>2018-09-25T09:56:32Z</time>
      </trkpt>
      <trkpt lat="40.722508197650313" lon="13.917431551963091">
        <ele>381.30000000000001</ele>
        <time>2018-09-25T09:56:44Z</time>
      </trkpt>
      <trkpt lat="40.722509371116757" lon="13.917368184775114">
        <ele>381.30000000000001</ele>
        <time>2018-09-25T09:56:55Z</time>
      </trkpt>
      <trkpt lat="40.722515489906073" lon="13.917288556694984">
        <ele>382.74000000000001</ele>
        <time>2018-09-25T09:57:05Z</time>
      </trkpt>
      <trkpt lat="40.722492188215256" lon="13.917280426248908">
        <ele>383.22000000000003</ele>
        <time>2018-09-25T09:57:17Z</time>
      </trkpt>
      <trkpt lat="40.722450949251652" lon="13.917299285531044">
        <ele>385.63</ele>
        <time>2018-09-25T09:57:22Z</time>
      </trkpt>
      <trkpt lat="40.722437622025609" lon="13.91730397939682">
        <ele>384.66000000000003</ele>
        <time>2018-09-25T09:57:24Z</time>
      </trkpt>
      <trkpt lat="40.722357155755162" lon="13.917269948869944">
        <ele>384.66000000000003</ele>
        <time>2018-09-25T09:57:35Z</time>
      </trkpt>
      <trkpt lat="40.722295045852661" lon="13.917272547259927">
        <ele>386.58999999999997</ele>
        <time>2018-09-25T09:57:42Z</time>
      </trkpt>
      <trkpt lat="40.72224173694849" lon="13.917285539209843">
        <ele>388.50999999999999</ele>
        <time>2018-09-25T09:57:47Z</time>
      </trkpt>
      <trkpt lat="40.722163869068027" lon="13.91727271489799">
        <ele>389.47000000000003</ele>
        <time>2018-09-25T09:57:55Z</time>
      </trkpt>
      <trkpt lat="40.722070494666696" lon="13.917250251397491">
        <ele>389.94999999999999</ele>
        <time>2018-09-25T09:58:06Z</time>
      </trkpt>
      <trkpt lat="40.72203847579658" lon="13.917221836745739">
        <ele>391.87</ele>
        <time>2018-09-25T09:58:17Z</time>
      </trkpt>
      <trkpt lat="40.72197200730443" lon="13.917163331061602">
        <ele>393.31999999999999</ele>
        <time>2018-09-25T09:58:29Z</time>
      </trkpt>
      <trkpt lat="40.721943592652678" lon="13.91707138158381">
        <ele>395.24000000000001</ele>
        <time>2018-09-25T09:58:40Z</time>
      </trkpt>
      <trkpt lat="40.721936551854014" lon="13.916996363550425">
        <ele>396.68000000000001</ele>
        <time>2018-09-25T09:58:51Z</time>
      </trkpt>
      <trkpt lat="40.72193780913949" lon="13.916921261698008">
        <ele>399.07999999999998</ele>
        <time>2018-09-25T09:59:03Z</time>
      </trkpt>
      <trkpt lat="40.721928756684065" lon="13.916930230334401">
        <ele>401.00999999999999</ele>
        <time>2018-09-25T09:59:14Z</time>
      </trkpt>
      <trkpt lat="40.72191433981061" lon="13.916982114315033">
        <ele>401.00999999999999</ele>
        <time>2018-09-25T09:59:24Z</time>
      </trkpt>
      <trkpt lat="40.721867149695754" lon="13.917004158720374">
        <ele>403.41000000000003</ele>
        <time>2018-09-25T09:59:31Z</time>
      </trkpt>
      <trkpt lat="40.721804704517126" lon="13.917033914476633">
        <ele>403.41000000000003</ele>
        <time>2018-09-25T09:59:42Z</time>
      </trkpt>
      <trkpt lat="40.721729770302773" lon="13.917080350220203">
        <ele>407.25999999999999</ele>
        <time>2018-09-25T09:59:53Z</time>
      </trkpt>
      <trkpt lat="40.721686100587249" lon="13.9170977845788">
        <ele>406.29000000000002</ele>
        <time>2018-09-25T10:00:00Z</time>
      </trkpt>
      <trkpt lat="40.721634216606617" lon="13.91712267883122">
        <ele>403.41000000000003</ele>
        <time>2018-09-25T10:00:05Z</time>
      </trkpt>
      <trkpt lat="40.721591468900442" lon="13.917136257514358">
        <ele>405.81</ele>
        <time>2018-09-25T10:00:11Z</time>
      </trkpt>
      <trkpt lat="40.721525754779577" lon="13.917154110968113">
        <ele>408.22000000000003</ele>
        <time>2018-09-25T10:00:22Z</time>
      </trkpt>
      <trkpt lat="40.721525503322482" lon="13.917155368253589">
        <ele>408.22000000000003</ele>
        <time>2018-09-25T10:00:23Z</time>
      </trkpt>
      <trkpt lat="40.721523659303784" lon="13.917161654680967">
        <ele>405.32999999999998</ele>
        <time>2018-09-25T10:00:29Z</time>
      </trkpt>
      <trkpt lat="40.72150438092649" lon="13.917168024927378">
        <ele>403.88999999999999</ele>
        <time>2018-09-25T10:00:33Z</time>
      </trkpt>
      <trkpt lat="40.72148677892983" lon="13.917167689651251">
        <ele>405.32999999999998</ele>
        <time>2018-09-25T10:00:35Z</time>
      </trkpt>
      <trkpt lat="40.721477223560214" lon="13.917165175080299">
        <ele>406.29000000000002</ele>
        <time>2018-09-25T10:00:43Z</time>
      </trkpt>
      <trkpt lat="40.7214623875916" lon="13.917169785127044">
        <ele>405.32999999999998</ele>
        <time>2018-09-25T10:00:49Z</time>
      </trkpt>
      <trkpt lat="40.721369180828333" lon="13.917193170636892">
        <ele>405.81</ele>
        <time>2018-09-25T10:01:00Z</time>
      </trkpt>
      <trkpt lat="40.72126641869545" lon="13.917202893644571">
        <ele>405.81</ele>
        <time>2018-09-25T10:01:12Z</time>
      </trkpt>
      <trkpt lat="40.721217049285769" lon="13.91722091473639">
        <ele>405.81</ele>
        <time>2018-09-25T10:01:17Z</time>
      </trkpt>
      <trkpt lat="40.721173631027341" lon="13.917231978848577">
        <ele>402.44999999999999</ele>
        <time>2018-09-25T10:01:21Z</time>
      </trkpt>
      <trkpt lat="40.721164494752884" lon="13.917233571410179">
        <ele>402.93000000000001</ele>
        <time>2018-09-25T10:01:22Z</time>
      </trkpt>
      <trkpt lat="40.721127111464739" lon="13.917235415428877">
        <ele>402.93000000000001</ele>
        <time>2018-09-25T10:01:34Z</time>
      </trkpt>
      <trkpt lat="40.721100540831685" lon="13.917248994112015">
        <ele>403.41000000000003</ele>
        <time>2018-09-25T10:01:46Z</time>
      </trkpt>
      <trkpt lat="40.72108268737793" lon="13.917265590280294">
        <ele>402.93000000000001</ele>
        <time>2018-09-25T10:02:08Z</time>
      </trkpt>
      <trkpt lat="40.721050417050719" lon="13.917270116508007">
        <ele>402.93000000000001</ele>
        <time>2018-09-25T10:02:19Z</time>
      </trkpt>
      <trkpt lat="40.721057709306479" lon="13.917241534218192">
        <ele>402.93000000000001</ele>
        <time>2018-09-25T10:02:35Z</time>
      </trkpt>
      <trkpt lat="40.721057038754225" lon="13.917244635522366">
        <ele>404.37</ele>
        <time>2018-09-25T10:02:42Z</time>
      </trkpt>
      <trkpt lat="40.721051674336195" lon="13.917242037132382">
        <ele>402.44999999999999</ele>
        <time>2018-09-25T10:02:54Z</time>
      </trkpt>
      <trkpt lat="40.721041951328516" lon="13.917229380458593">
        <ele>403.41000000000003</ele>
        <time>2018-09-25T10:03:21Z</time>
      </trkpt>
      <trkpt lat="40.721046980470419" lon="13.917237929999828">
        <ele>403.41000000000003</ele>
        <time>2018-09-25T10:03:42Z</time>
      </trkpt>
      <trkpt lat="40.721042705699801" lon="13.917241869494319">
        <ele>402.44999999999999</ele>
        <time>2018-09-25T10:04:00Z</time>
      </trkpt>
      <trkpt lat="40.72101772762835" lon="13.917253687977791">
        <ele>401.97000000000003</ele>
        <time>2018-09-25T10:04:13Z</time>
      </trkpt>
      <trkpt lat="40.72098302654922" lon="13.917279085144401">
        <ele>401.49000000000001</ele>
        <time>2018-09-25T10:04:23Z</time>
      </trkpt>
      <trkpt lat="40.72093902155757" lon="13.917293166741729">
        <ele>401.49000000000001</ele>
        <time>2018-09-25T10:04:33Z</time>
      </trkpt>
      <trkpt lat="40.720870876684785" lon="13.917314540594816">
        <ele>400.52999999999997</ele>
        <time>2018-09-25T10:04:41Z</time>
      </trkpt>
      <trkpt lat="40.720807509496808" lon="13.917323090136051">
        <ele>400.05000000000001</ele>
        <time>2018-09-25T10:04:51Z</time>
      </trkpt>
      <trkpt lat="40.720701646059752" lon="13.917356366291642">
        <ele>397.16000000000003</ele>
        <time>2018-09-25T10:05:04Z</time>
      </trkpt>
      <trkpt lat="40.720600811764598" lon="13.917429121211171">
        <ele>396.68000000000001</ele>
        <time>2018-09-25T10:05:16Z</time>
      </trkpt>
      <trkpt lat="40.72053593583405" lon="13.917466504499316">
        <ele>396.19999999999999</ele>
        <time>2018-09-25T10:05:26Z</time>
      </trkpt>
      <trkpt lat="40.720523111522198" lon="13.917468599975109">
        <ele>395.72000000000003</ele>
        <time>2018-09-25T10:05:32Z</time>
      </trkpt>
      <trkpt lat="40.720479777082801" lon="13.917505145072937">
        <ele>396.19999999999999</ele>
        <time>2018-09-25T10:05:42Z</time>
      </trkpt>
      <trkpt lat="40.720452452078462" lon="13.917533308267593">
        <ele>394.75999999999999</ele>
        <time>2018-09-25T10:05:58Z</time>
      </trkpt>
      <trkpt lat="40.72040107101202" lon="13.917582677677274">
        <ele>395.24000000000001</ele>
        <time>2018-09-25T10:06:09Z</time>
      </trkpt>
      <trkpt lat="40.720349941402674" lon="13.917586617171764">
        <ele>393.31999999999999</ele>
        <time>2018-09-25T10:06:15Z</time>
      </trkpt>
      <trkpt lat="40.720253633335233" lon="13.917636824771762">
        <ele>392.36000000000001</ele>
        <time>2018-09-25T10:06:27Z</time>
      </trkpt>
      <trkpt lat="40.720196217298508" lon="13.917658952996135">
        <ele>391.38999999999999</ele>
        <time>2018-09-25T10:06:35Z</time>
      </trkpt>
      <trkpt lat="40.720141064375639" lon="13.917655684053898">
        <ele>391.38999999999999</ele>
        <time>2018-09-25T10:06:44Z</time>
      </trkpt>
      <trkpt lat="40.720106111839414" lon="13.917664736509323">
        <ele>390.91000000000003</ele>
        <time>2018-09-25T10:06:53Z</time>
      </trkpt>
      <trkpt lat="40.720069231465459" lon="13.917642859742045">
        <ele>388.50999999999999</ele>
        <time>2018-09-25T10:07:00Z</time>
      </trkpt>
      <trkpt lat="40.720053976401687" lon="13.917646966874599">
        <ele>390.43000000000001</ele>
        <time>2018-09-25T10:07:03Z</time>
      </trkpt>
      <trkpt lat="40.719999661669135" lon="13.917663227766752">
        <ele>388.99000000000001</ele>
        <time>2018-09-25T10:07:14Z</time>
      </trkpt>
      <trkpt lat="40.719970241189003" lon="13.917687200009823">
        <ele>388.99000000000001</ele>
        <time>2018-09-25T10:07:21Z</time>
      </trkpt>
      <trkpt lat="40.719943502917886" lon="13.917707819491625">
        <ele>389.94999999999999</ele>
        <time>2018-09-25T10:07:31Z</time>
      </trkpt>
      <trkpt lat="40.719934701919556" lon="13.917725421488285">
        <ele>389.94999999999999</ele>
        <time>2018-09-25T10:07:42Z</time>
      </trkpt>
      <trkpt lat="40.719917016103864" lon="13.917743694037199">
        <ele>388.50999999999999</ele>
        <time>2018-09-25T10:07:48Z</time>
      </trkpt>
      <trkpt lat="40.719869490712881" lon="13.917821645736694">
        <ele>388.99000000000001</ele>
        <time>2018-09-25T10:07:58Z</time>
      </trkpt>
      <trkpt lat="40.719842836260796" lon="13.917864225804806">
        <ele>387.55000000000001</ele>
        <time>2018-09-25T10:08:07Z</time>
      </trkpt>
      <trkpt lat="40.71979564614594" lon="13.917864058166742">
        <ele>387.06999999999999</ele>
        <time>2018-09-25T10:08:17Z</time>
      </trkpt>
      <trkpt lat="40.719742421060801" lon="13.917860202491283">
        <ele>386.11000000000001</ele>
        <time>2018-09-25T10:08:28Z</time>
      </trkpt>
      <trkpt lat="40.719705121591687" lon="13.917861962690949">
        <ele>384.66000000000003</ele>
        <time>2018-09-25T10:08:39Z</time>
      </trkpt>
      <trkpt lat="40.719648543745279" lon="13.917872523888946">
        <ele>384.18000000000001</ele>
        <time>2018-09-25T10:08:47Z</time>
      </trkpt>
      <trkpt lat="40.719552654772997" lon="13.917929772287607">
        <ele>384.18000000000001</ele>
        <time>2018-09-25T10:08:59Z</time>
      </trkpt>
      <trkpt lat="40.719517283141613" lon="13.917943686246872">
        <ele>385.14999999999998</ele>
        <time>2018-09-25T10:09:08Z</time>
      </trkpt>
      <trkpt lat="40.719478307291865" lon="13.917950140312314">
        <ele>385.63</ele>
        <time>2018-09-25T10:09:15Z</time>
      </trkpt>
      <trkpt lat="40.7194540835917" lon="13.917946703732014">
        <ele>384.66000000000003</ele>
        <time>2018-09-25T10:09:26Z</time>
      </trkpt>
      <trkpt lat="40.719409994781017" lon="13.917975788936019">
        <ele>384.66000000000003</ele>
        <time>2018-09-25T10:09:36Z</time>
      </trkpt>
      <trkpt lat="40.719390548765659" lon="13.917988277971745">
        <ele>382.25999999999999</ele>
        <time>2018-09-25T10:09:40Z</time>
      </trkpt>
      <trkpt lat="40.719365738332272" lon="13.918018201366067">
        <ele>383.69999999999999</ele>
        <time>2018-09-25T10:09:48Z</time>
      </trkpt>
      <trkpt lat="40.719308406114578" lon="13.918059775605798">
        <ele>382.74000000000001</ele>
        <time>2018-09-25T10:09:57Z</time>
      </trkpt>
      <trkpt lat="40.719257276505232" lon="13.918076790869236">
        <ele>383.69999999999999</ele>
        <time>2018-09-25T10:10:07Z</time>
      </trkpt>
      <trkpt lat="40.719219809398055" lon="13.918097829446197">
        <ele>382.25999999999999</ele>
        <time>2018-09-25T10:10:12Z</time>
      </trkpt>
      <trkpt lat="40.719186197966337" lon="13.918104618787766">
        <ele>383.22000000000003</ele>
        <time>2018-09-25T10:10:17Z</time>
      </trkpt>
      <trkpt lat="40.719132889062166" lon="13.918137140572071">
        <ele>384.18000000000001</ele>
        <time>2018-09-25T10:10:28Z</time>
      </trkpt>
      <trkpt lat="40.719115287065506" lon="13.918173434212804">
        <ele>383.22000000000003</ele>
        <time>2018-09-25T10:10:32Z</time>
      </trkpt>
      <trkpt lat="40.719080083072186" lon="13.918204447254539">
        <ele>382.25999999999999</ele>
        <time>2018-09-25T10:10:42Z</time>
      </trkpt>
      <trkpt lat="40.71908519603312" lon="13.918193634599447">
        <ele>382.74000000000001</ele>
        <time>2018-09-25T10:10:48Z</time>
      </trkpt>
      <trkpt lat="40.719087375327945" lon="13.918186007067561">
        <ele>381.30000000000001</ele>
        <time>2018-09-25T10:11:03Z</time>
      </trkpt>
      <trkpt lat="40.719083687290549" lon="13.918181983754039">
        <ele>381.30000000000001</ele>
        <time>2018-09-25T10:11:04Z</time>
      </trkpt>
      <trkpt lat="40.719070695340633" lon="13.918157089501619">
        <ele>383.69999999999999</ele>
        <time>2018-09-25T10:11:07Z</time>
      </trkpt>
      <trkpt lat="40.719045884907246" lon="13.918111911043525">
        <ele>383.22000000000003</ele>
        <time>2018-09-25T10:11:12Z</time>
      </trkpt>
      <trkpt lat="40.719009507447481" lon="13.91816689632833">
        <ele>386.11000000000001</ele>
        <time>2018-09-25T10:11:21Z</time>
      </trkpt>
      <trkpt lat="40.718985702842474" lon="13.918223977088928">
        <ele>382.74000000000001</ele>
        <time>2018-09-25T10:11:28Z</time>
      </trkpt>
      <trkpt lat="40.718976482748985" lon="13.918235711753368">
        <ele>385.63</ele>
        <time>2018-09-25T10:11:31Z</time>
      </trkpt>
      <trkpt lat="40.718918144702911" lon="13.918280135840178">
        <ele>382.74000000000001</ele>
        <time>2018-09-25T10:11:41Z</time>
      </trkpt>
      <trkpt lat="40.718884281814098" lon="13.918300587683916">
        <ele>384.18000000000001</ele>
        <time>2018-09-25T10:11:46Z</time>
      </trkpt>
      <trkpt lat="40.71881890296936" lon="13.918346520513296">
        <ele>384.66000000000003</ele>
        <time>2018-09-25T10:11:57Z</time>
      </trkpt>
      <trkpt lat="40.718805240467191" lon="13.918363284319639">
        <ele>384.66000000000003</ele>
        <time>2018-09-25T10:11:59Z</time>
      </trkpt>
      <trkpt lat="40.718791075050831" lon="13.918374013155699">
        <ele>386.11000000000001</ele>
        <time>2018-09-25T10:12:01Z</time>
      </trkpt>
      <trkpt lat="40.718714380636811" lon="13.918380718678236">
        <ele>387.06999999999999</ele>
        <time>2018-09-25T10:12:11Z</time>
      </trkpt>
      <trkpt lat="40.718657383695245" lon="13.918426735326648">
        <ele>388.02999999999997</ele>
        <time>2018-09-25T10:12:21Z</time>
      </trkpt>
      <trkpt lat="40.718627292662859" lon="13.91845959238708">
        <ele>389.94999999999999</ele>
        <time>2018-09-25T10:12:26Z</time>
      </trkpt>
      <trkpt lat="40.718593597412109" lon="13.918475518003106">
        <ele>388.99000000000001</ele>
        <time>2018-09-25T10:12:30Z</time>
      </trkpt>
      <trkpt lat="40.718535427004099" lon="13.918477948755026">
        <ele>389.94999999999999</ele>
        <time>2018-09-25T10:12:36Z</time>
      </trkpt>
      <trkpt lat="40.718452949076891" lon="13.918378371745348">
        <ele>391.38999999999999</ele>
        <time>2018-09-25T10:12:49Z</time>
      </trkpt>
      <trkpt lat="40.718437107279897" lon="13.918389016762376">
        <ele>393.31999999999999</ele>
        <time>2018-09-25T10:12:52Z</time>
      </trkpt>
      <trkpt lat="40.718386983498931" lon="13.91835113056004">
        <ele>394.75999999999999</ele>
        <time>2018-09-25T10:13:02Z</time>
      </trkpt>
      <trkpt lat="40.718317329883575" lon="13.91832129098475">
        <ele>394.75999999999999</ele>
        <time>2018-09-25T10:13:11Z</time>
      </trkpt>
      <trkpt lat="40.718283802270889" lon="13.918312741443515">
        <ele>394.27999999999997</ele>
        <time>2018-09-25T10:13:22Z</time>
      </trkpt>
      <trkpt lat="40.718271816149354" lon="13.918313160538673">
        <ele>394.75999999999999</ele>
        <time>2018-09-25T10:13:38Z</time>
      </trkpt>
      <trkpt lat="40.718261925503612" lon="13.918335288763046">
        <ele>394.75999999999999</ele>
        <time>2018-09-25T10:13:50Z</time>
      </trkpt>
      <trkpt lat="40.718262512236834" lon="13.918340317904949">
        <ele>392.83999999999997</ele>
        <time>2018-09-25T10:14:04Z</time>
      </trkpt>
      <trkpt lat="40.718264020979404" lon="13.918340904638171">
        <ele>393.31999999999999</ele>
        <time>2018-09-25T10:14:05Z</time>
      </trkpt>
      <trkpt lat="40.718268631026149" lon="13.91834182664752">
        <ele>395.24000000000001</ele>
        <time>2018-09-25T10:14:08Z</time>
      </trkpt>
      <trkpt lat="40.718255219981074" lon="13.918329840525985">
        <ele>393.80000000000001</ele>
        <time>2018-09-25T10:14:24Z</time>
      </trkpt>
      <trkpt lat="40.718242563307285" lon="13.9183393958956">
        <ele>393.31999999999999</ele>
        <time>2018-09-25T10:14:33Z</time>
      </trkpt>
      <trkpt lat="40.718225045129657" lon="13.918337719514966">
        <ele>395.24000000000001</ele>
        <time>2018-09-25T10:14:38Z</time>
      </trkpt>
      <trkpt lat="40.718215992674232" lon="13.918340569362044">
        <ele>394.27999999999997</ele>
        <time>2018-09-25T10:14:41Z</time>
      </trkpt>
      <trkpt lat="40.718221860006452" lon="13.918332690373063">
        <ele>394.75999999999999</ele>
        <time>2018-09-25T10:14:54Z</time>
      </trkpt>
      <trkpt lat="40.718254130333662" lon="13.918318776413798">
        <ele>394.75999999999999</ele>
        <time>2018-09-25T10:15:08Z</time>
      </trkpt>
      <trkpt lat="40.718252034857869" lon="13.918319446966052">
        <ele>392.83999999999997</ele>
        <time>2018-09-25T10:15:15Z</time>
      </trkpt>
      <trkpt lat="40.718245413154364" lon="13.918321877717972">
        <ele>393.31999999999999</ele>
        <time>2018-09-25T10:15:21Z</time>
      </trkpt>
      <trkpt lat="40.718237869441509" lon="13.918322632089257">
        <ele>391.87</ele>
        <time>2018-09-25T10:15:31Z</time>
      </trkpt>
      <trkpt lat="40.718238707631826" lon="13.918328415602446">
        <ele>393.80000000000001</ele>
        <time>2018-09-25T10:15:36Z</time>
      </trkpt>
      <trkpt lat="40.718232421204448" lon="13.918325817212462">
        <ele>393.31999999999999</ele>
        <time>2018-09-25T10:15:46Z</time>
      </trkpt>
      <trkpt lat="40.718248263001442" lon="13.91830226406455">
        <ele>393.80000000000001</ele>
        <time>2018-09-25T10:15:58Z</time>
      </trkpt>
      <trkpt lat="40.718235522508621" lon="13.918327074497938">
        <ele>393.80000000000001</ele>
        <time>2018-09-25T10:16:02Z</time>
      </trkpt>
      <trkpt lat="40.718200067058206" lon="13.918308550491929">
        <ele>393.31999999999999</ele>
        <time>2018-09-25T10:16:06Z</time>
      </trkpt>
      <trkpt lat="40.718146003782749" lon="13.918261444196105">
        <ele>392.36000000000001</ele>
        <time>2018-09-25T10:16:15Z</time>
      </trkpt>
      <trkpt lat="40.718130078166723" lon="13.918244848027825">
        <ele>394.75999999999999</ele>
        <time>2018-09-25T10:16:18Z</time>
      </trkpt>
      <trkpt lat="40.718137789517641" lon="13.918241998180747">
        <ele>393.31999999999999</ele>
        <time>2018-09-25T10:16:30Z</time>
      </trkpt>
      <trkpt lat="40.718105351552367" lon="13.918242417275906">
        <ele>392.83999999999997</ele>
        <time>2018-09-25T10:16:39Z</time>
      </trkpt>
      <trkpt lat="40.718060508370399" lon="13.918203944340348">
        <ele>393.31999999999999</ele>
        <time>2018-09-25T10:16:51Z</time>
      </trkpt>
      <trkpt lat="40.718011306598783" lon="13.918126160278916">
        <ele>391.38999999999999</ele>
        <time>2018-09-25T10:17:01Z</time>
      </trkpt>
      <trkpt lat="40.717990100383759" lon="13.918090621009469">
        <ele>392.83999999999997</ele>
        <time>2018-09-25T10:17:08Z</time>
      </trkpt>
      <trkpt lat="40.717952800914645" lon="13.918050471693277">
        <ele>391.38999999999999</ele>
        <time>2018-09-25T10:17:18Z</time>
      </trkpt>
      <trkpt lat="40.717934863641858" lon="13.918036222457886">
        <ele>390.43000000000001</ele>
        <time>2018-09-25T10:17:28Z</time>
      </trkpt>
      <trkpt lat="40.717876525595784" lon="13.918012334033847">
        <ele>388.02999999999997</ele>
        <time>2018-09-25T10:17:39Z</time>
      </trkpt>
      <trkpt lat="40.717770997434855" lon="13.917957348749042">
        <ele>386.11000000000001</ele>
        <time>2018-09-25T10:17:53Z</time>
      </trkpt>
      <trkpt lat="40.717652477324009" lon="13.917939579114318">
        <ele>385.14999999999998</ele>
        <time>2018-09-25T10:18:07Z</time>
      </trkpt>
      <trkpt lat="40.717599168419838" lon="13.917925916612148">
        <ele>383.22000000000003</ele>
        <time>2018-09-25T10:18:13Z</time>
      </trkpt>
      <trkpt lat="40.717454832047224" lon="13.917897250503302">
        <ele>382.74000000000001</ele>
        <time>2018-09-25T10:18:26Z</time>
      </trkpt>
      <trkpt lat="40.717357266694307" lon="13.91787763684988">
        <ele>383.22000000000003</ele>
        <time>2018-09-25T10:18:37Z</time>
      </trkpt>
      <trkpt lat="40.717297922819853" lon="13.917856095358729">
        <ele>382.74000000000001</ele>
        <time>2018-09-25T10:18:49Z</time>
      </trkpt>
      <trkpt lat="40.717223742976785" lon="13.91788836568594">
        <ele>383.69999999999999</ele>
        <time>2018-09-25T10:19:01Z</time>
      </trkpt>
      <trkpt lat="40.717191472649574" lon="13.917989702895284">
        <ele>382.25999999999999</ele>
        <time>2018-09-25T10:19:11Z</time>
      </trkpt>
      <trkpt lat="40.717143109068274" lon="13.918006550520658">
        <ele>382.25999999999999</ele>
        <time>2018-09-25T10:19:16Z</time>
      </trkpt>
      <trkpt lat="40.71698997169733" lon="13.918041922152042">
        <ele>383.69999999999999</ele>
        <time>2018-09-25T10:19:30Z</time>
      </trkpt>
      <trkpt lat="40.716972537338734" lon="13.918045442551374">
        <ele>382.74000000000001</ele>
        <time>2018-09-25T10:19:32Z</time>
      </trkpt>
      <trkpt lat="40.716929873451591" lon="13.918053824454546">
        <ele>382.74000000000001</ele>
        <time>2018-09-25T10:19:38Z</time>
      </trkpt>
      <trkpt lat="40.716910175979137" lon="13.918051980435848">
        <ele>384.18000000000001</ele>
        <time>2018-09-25T10:19:40Z</time>
      </trkpt>
      <trkpt lat="40.716864746063948" lon="13.918037312105298">
        <ele>385.14999999999998</ele>
        <time>2018-09-25T10:19:45Z</time>
      </trkpt>
      <trkpt lat="40.716729462146759" lon="13.918076287955046">
        <ele>386.11000000000001</ele>
        <time>2018-09-25T10:19:58Z</time>
      </trkpt>
      <trkpt lat="40.716657042503357" lon="13.918129596859217">
        <ele>389.47000000000003</ele>
        <time>2018-09-25T10:20:09Z</time>
      </trkpt>
      <trkpt lat="40.716659389436245" lon="13.918123142793775">
        <ele>388.50999999999999</ele>
        <time>2018-09-25T10:20:10Z</time>
      </trkpt>
      <trkpt lat="40.71666844189167" lon="13.918126160278916">
        <ele>387.55000000000001</ele>
        <time>2018-09-25T10:20:22Z</time>
      </trkpt>
      <trkpt lat="40.716674393042922" lon="13.918141666799784">
        <ele>386.58999999999997</ele>
        <time>2018-09-25T10:20:24Z</time>
      </trkpt>
      <trkpt lat="40.716599794104695" lon="13.918216517195106">
        <ele>385.63</ele>
        <time>2018-09-25T10:20:31Z</time>
      </trkpt>
      <trkpt lat="40.716508515179157" lon="13.918296983465552">
        <ele>386.58999999999997</ele>
        <time>2018-09-25T10:20:42Z</time>
      </trkpt>
      <trkpt lat="40.716478088870645" lon="13.918316932395101">
        <ele>388.50999999999999</ele>
        <time>2018-09-25T10:20:52Z</time>
      </trkpt>
      <trkpt lat="40.716451099142432" lon="13.918345682322979">
        <ele>387.55000000000001</ele>
        <time>2018-09-25T10:21:01Z</time>
      </trkpt>
      <trkpt lat="40.716450847685337" lon="13.918354315683246">
        <ele>386.11000000000001</ele>
        <time>2018-09-25T10:21:13Z</time>
      </trkpt>
      <trkpt lat="40.716381277889013" lon="13.918406199663877">
        <ele>388.99000000000001</ele>
        <time>2018-09-25T10:21:23Z</time>
      </trkpt>
      <trkpt lat="40.716370716691017" lon="13.918410893529654">
        <ele>386.58999999999997</ele>
        <time>2018-09-25T10:21:24Z</time>
      </trkpt>
      <trkpt lat="40.716353617608547" lon="13.918429501354694">
        <ele>388.50999999999999</ele>
        <time>2018-09-25T10:21:26Z</time>
      </trkpt>
      <trkpt lat="40.716203665360808" lon="13.918587081134319">
        <ele>387.55000000000001</ele>
        <time>2018-09-25T10:21:40Z</time>
      </trkpt>
      <trkpt lat="40.716041643172503" lon="13.918690262362361">
        <ele>388.02999999999997</ele>
        <time>2018-09-25T10:21:55Z</time>
      </trkpt>
      <trkpt lat="40.715999901294708" lon="13.918733932077885">
        <ele>387.55000000000001</ele>
        <time>2018-09-25T10:22:00Z</time>
      </trkpt>
      <trkpt lat="40.716047929599881" lon="13.918854212388396">
        <ele>385.63</ele>
        <time>2018-09-25T10:22:09Z</time>
      </trkpt>
      <trkpt lat="40.71600828319788" lon="13.91884314827621">
        <ele>388.02999999999997</ele>
        <time>2018-09-25T10:22:12Z</time>
      </trkpt>
      <trkpt lat="40.715980622917414" lon="13.918832838535309">
        <ele>387.06999999999999</ele>
        <time>2018-09-25T10:22:22Z</time>
      </trkpt>
      <trkpt lat="40.715925637632608" lon="13.91884851269424">
        <ele>384.66000000000003</ele>
        <time>2018-09-25T10:22:33Z</time>
      </trkpt>
      <trkpt lat="40.715926727280021" lon="13.918929817155004">
        <ele>383.22000000000003</ele>
        <time>2018-09-25T10:22:42Z</time>
      </trkpt>
      <trkpt lat="40.715917507186532" lon="13.918944066390395">
        <ele>383.22000000000003</ele>
        <time>2018-09-25T10:22:44Z</time>
      </trkpt>
      <trkpt lat="40.715910801663995" lon="13.918961752206087">
        <ele>380.81999999999999</ele>
        <time>2018-09-25T10:22:46Z</time>
      </trkpt>
      <trkpt lat="40.71592035703361" lon="13.918983293697238">
        <ele>384.66000000000003</ele>
        <time>2018-09-25T10:22:51Z</time>
      </trkpt>
      <trkpt lat="40.715904766693711" lon="13.918970469385386">
        <ele>383.69999999999999</ele>
        <time>2018-09-25T10:23:01Z</time>
      </trkpt>
      <trkpt lat="40.715848105028272" lon="13.918885393068194">
        <ele>382.25999999999999</ele>
        <time>2018-09-25T10:23:11Z</time>
      </trkpt>
      <trkpt lat="40.715830251574516" lon="13.918828060850501">
        <ele>382.74000000000001</ele>
        <time>2018-09-25T10:23:16Z</time>
      </trkpt>
      <trkpt lat="40.715809632092714" lon="13.918793359771371">
        <ele>382.25999999999999</ele>
        <time>2018-09-25T10:23:28Z</time>
      </trkpt>
      <trkpt lat="40.715858582407236" lon="13.918786235153675">
        <ele>383.22000000000003</ele>
        <time>2018-09-25T10:23:37Z</time>
      </trkpt>
      <trkpt lat="40.715844919905066" lon="13.918809704482555">
        <ele>382.74000000000001</ele>
        <time>2018-09-25T10:23:53Z</time>
      </trkpt>
      <trkpt lat="40.715785408392549" lon="13.918783888220787">
        <ele>383.22000000000003</ele>
        <time>2018-09-25T10:24:04Z</time>
      </trkpt>
      <trkpt lat="40.715796640142798" lon="13.918766286224127">
        <ele>383.69999999999999</ele>
        <time>2018-09-25T10:24:14Z</time>
      </trkpt>
      <trkpt lat="40.71580158546567" lon="13.918768465518951">
        <ele>382.25999999999999</ele>
        <time>2018-09-25T10:24:17Z</time>
      </trkpt>
      <trkpt lat="40.715783145278692" lon="13.91876838169992">
        <ele>381.30000000000001</ele>
        <time>2018-09-25T10:24:35Z</time>
      </trkpt>
      <trkpt lat="40.71579328738153" lon="13.918766872957349">
        <ele>382.74000000000001</ele>
        <time>2018-09-25T10:24:47Z</time>
      </trkpt>
      <trkpt lat="40.715807871893048" lon="13.918764190748334">
        <ele>382.74000000000001</ele>
        <time>2018-09-25T10:25:08Z</time>
      </trkpt>
      <trkpt lat="40.715813152492046" lon="13.918764358386397">
        <ele>382.25999999999999</ele>
        <time>2018-09-25T10:25:29Z</time>
      </trkpt>
      <trkpt lat="40.71581139229238" lon="13.918763184919953">
        <ele>381.30000000000001</ele>
        <time>2018-09-25T10:25:37Z</time>
      </trkpt>
      <trkpt lat="40.715795047581196" lon="13.918764023110271">
        <ele>381.30000000000001</ele>
        <time>2018-09-25T10:25:50Z</time>
      </trkpt>
      <trkpt lat="40.715734446421266" lon="13.918696297332644">
        <ele>380.33999999999997</ele>
        <time>2018-09-25T10:26:02Z</time>
      </trkpt>
      <trkpt lat="40.715653309598565" lon="13.918518014252186">
        <ele>378.89999999999998</ele>
        <time>2018-09-25T10:26:17Z</time>
      </trkpt>
      <trkpt lat="40.715603185817599" lon="13.918326403945684">
        <ele>378.89999999999998</ele>
        <time>2018-09-25T10:26:31Z</time>
      </trkpt>
      <trkpt lat="40.715617518872023" lon="13.91832715831697">
        <ele>379.86000000000001</ele>
        <time>2018-09-25T10:26:45Z</time>
      </trkpt>
      <trkpt lat="40.715602766722441" lon="13.918332522735">
        <ele>379.38</ele>
        <time>2018-09-25T10:26:47Z</time>
      </trkpt>
      <trkpt lat="40.715560521930456" lon="13.918240573257208">
        <ele>380.33999999999997</ele>
        <time>2018-09-25T10:26:58Z</time>
      </trkpt>
      <trkpt lat="40.715542836114764" lon="13.918255073949695">
        <ele>379.38</ele>
        <time>2018-09-25T10:27:05Z</time>
      </trkpt>
      <trkpt lat="40.715531604364514" lon="13.918180977925658">
        <ele>378.89999999999998</ele>
        <time>2018-09-25T10:27:19Z</time>
      </trkpt>
      <trkpt lat="40.715464046224952" lon="13.917983919382095">
        <ele>376.97000000000003</ele>
        <time>2018-09-25T10:27:32Z</time>
      </trkpt>
      <trkpt lat="40.715457173064351" lon="13.917967574670911">
        <ele>376.97000000000003</ele>
        <time>2018-09-25T10:27:33Z</time>
      </trkpt>
      <trkpt lat="40.7153613679111" lon="13.917864812538028">
        <ele>375.05000000000001</ele>
        <time>2018-09-25T10:27:45Z</time>
      </trkpt>
      <trkpt lat="40.71533253416419" lon="13.917850563302636">
        <ele>374.08999999999997</ele>
        <time>2018-09-25T10:27:49Z</time>
      </trkpt>
      <trkpt lat="40.715284170582891" lon="13.917826255783439">
        <ele>372.64999999999998</ele>
        <time>2018-09-25T10:27:53Z</time>
      </trkpt>
      <trkpt lat="40.715204793959856" lon="13.91776624135673">
        <ele>370.24000000000001</ele>
        <time>2018-09-25T10:28:00Z</time>
      </trkpt>
      <trkpt lat="40.715129692107439" lon="13.917617881670594">
        <ele>369.27999999999997</ele>
        <time>2018-09-25T10:28:12Z</time>
      </trkpt>
      <trkpt lat="40.715081412345171" lon="13.917566584423184">
        <ele>367.83999999999997</ele>
        <time>2018-09-25T10:28:19Z</time>
      </trkpt>
      <trkpt lat="40.715007483959198" lon="13.917493326589465">
        <ele>365.44</ele>
        <time>2018-09-25T10:28:28Z</time>
      </trkpt>
      <trkpt lat="40.714989881962538" lon="13.917471030727029">
        <ele>364.95999999999998</ele>
        <time>2018-09-25T10:28:30Z</time>
      </trkpt>
      <trkpt lat="40.715001784265041" lon="13.917399365454912">
        <ele>363.51999999999998</ele>
        <time>2018-09-25T10:28:39Z</time>
      </trkpt>
      <trkpt lat="40.714965825900435" lon="13.917343709617853">
        <ele>361.58999999999997</ele>
        <time>2018-09-25T10:28:49Z</time>
      </trkpt>
      <trkpt lat="40.714941099286079" lon="13.917316049337387">
        <ele>360.63</ele>
        <time>2018-09-25T10:28:59Z</time>
      </trkpt>
      <trkpt lat="40.714920898899436" lon="13.917268356308341">
        <ele>358.70999999999998</ele>
        <time>2018-09-25T10:29:08Z</time>
      </trkpt>
      <trkpt lat="40.714936656877398" lon="13.917274307459593">
        <ele>358.70999999999998</ele>
        <time>2018-09-25T10:29:19Z</time>
      </trkpt>
      <trkpt lat="40.71490254253149" lon="13.917235163971782">
        <ele>357.26999999999998</ele>
        <time>2018-09-25T10:29:30Z</time>
      </trkpt>
      <trkpt lat="40.714827859774232" lon="13.917142963036895">
        <ele>353.42000000000002</ele>
        <time>2018-09-25T10:29:40Z</time>
      </trkpt>
      <trkpt lat="40.714815035462379" lon="13.917119074612856">
        <ele>352.94</ele>
        <time>2018-09-25T10:29:42Z</time>
      </trkpt>
      <trkpt lat="40.714748650789261" lon="13.917040703818202">
        <ele>350.06</ele>
        <time>2018-09-25T10:29:54Z</time>
      </trkpt>
      <trkpt lat="40.714771868661046" lon="13.917010445147753">
        <ele>350.06</ele>
        <time>2018-09-25T10:30:04Z</time>
      </trkpt>
      <trkpt lat="40.714682936668396" lon="13.916965518146753">
        <ele>350.06</ele>
        <time>2018-09-25T10:30:15Z</time>
      </trkpt>
      <trkpt lat="40.714659551158547" lon="13.916968116536736">
        <ele>350.06</ele>
        <time>2018-09-25T10:30:26Z</time>
      </trkpt>
      <trkpt lat="40.71466114372015" lon="13.916972810402513">
        <ele>349.10000000000002</ele>
        <time>2018-09-25T10:30:53Z</time>
      </trkpt>
      <trkpt lat="40.714656868949533" lon="13.916971301659942">
        <ele>350.54000000000002</ele>
        <time>2018-09-25T10:31:09Z</time>
      </trkpt>
      <trkpt lat="40.714658545330167" lon="13.916977504268289">
        <ele>350.06</ele>
        <time>2018-09-25T10:31:31Z</time>
      </trkpt>
      <trkpt lat="40.714661981910467" lon="13.916976246982813">
        <ele>350.54000000000002</ele>
        <time>2018-09-25T10:31:55Z</time>
      </trkpt>
      <trkpt lat="40.714643793180585" lon="13.91697465442121">
        <ele>350.54000000000002</ele>
        <time>2018-09-25T10:32:11Z</time>
      </trkpt>
      <trkpt lat="40.714577408507466" lon="13.91691162250936">
        <ele>349.57999999999998</ele>
        <time>2018-09-25T10:32:22Z</time>
      </trkpt>
      <trkpt lat="40.71456391364336" lon="13.91687591560185">
        <ele>350.06</ele>
        <time>2018-09-25T10:32:25Z</time>
      </trkpt>
      <trkpt lat="40.714517561718822" lon="13.916789749637246">
        <ele>349.57999999999998</ele>
        <time>2018-09-25T10:32:36Z</time>
      </trkpt>
      <trkpt lat="40.714452853426337" lon="13.916717749089003">
        <ele>349.57999999999998</ele>
        <time>2018-09-25T10:32:51Z</time>
      </trkpt>
      <trkpt lat="40.714405244216323" lon="13.916694112122059">
        <ele>349.10000000000002</ele>
        <time>2018-09-25T10:32:57Z</time>
      </trkpt>
      <trkpt lat="40.714392336085439" lon="13.916633427143097">
        <ele>349.57999999999998</ele>
        <time>2018-09-25T10:33:10Z</time>
      </trkpt>
      <trkpt lat="40.714363921433687" lon="13.916620351374149">
        <ele>349.57999999999998</ele>
        <time>2018-09-25T10:33:22Z</time>
      </trkpt>
      <trkpt lat="40.714343218132854" lon="13.916600234806538">
        <ele>350.06</ele>
        <time>2018-09-25T10:33:25Z</time>
      </trkpt>
      <trkpt lat="40.71432787925005" lon="13.916569389402866">
        <ele>350.06</ele>
        <time>2018-09-25T10:33:37Z</time>
      </trkpt>
      <trkpt lat="40.714346151798964" lon="13.91659788787365">
        <ele>349.57999999999998</ele>
        <time>2018-09-25T10:33:48Z</time>
      </trkpt>
      <trkpt lat="40.714354030787945" lon="13.916607107967138">
        <ele>350.54000000000002</ele>
        <time>2018-09-25T10:34:02Z</time>
      </trkpt>
      <trkpt lat="40.714366436004639" lon="13.916608449071646">
        <ele>350.06</ele>
        <time>2018-09-25T10:34:17Z</time>
      </trkpt>
      <trkpt lat="40.714350258931518" lon="13.916610041633248">
        <ele>349.10000000000002</ele>
        <time>2018-09-25T10:34:31Z</time>
      </trkpt>
      <trkpt lat="40.714367274194956" lon="13.916608113795519">
        <ele>350.54000000000002</ele>
        <time>2018-09-25T10:34:40Z</time>
      </trkpt>
      <trkpt lat="40.714428210631013" lon="13.916631499305367">
        <ele>349.10000000000002</ele>
        <time>2018-09-25T10:34:50Z</time>
      </trkpt>
      <trkpt lat="40.714443465694785" lon="13.91663258895278">
        <ele>348.62</ele>
        <time>2018-09-25T10:35:04Z</time>
      </trkpt>
      <trkpt lat="40.714428210631013" lon="13.916619345545769">
        <ele>349.57999999999998</ele>
        <time>2018-09-25T10:35:14Z</time>
      </trkpt>
      <trkpt lat="40.714422008022666" lon="13.916619261726737">
        <ele>349.57999999999998</ele>
        <time>2018-09-25T10:35:38Z</time>
      </trkpt>
      <trkpt lat="40.714424857869744" lon="13.916624877601862">
        <ele>348.62</ele>
        <time>2018-09-25T10:35:45Z</time>
      </trkpt>
      <trkpt lat="40.714372554793954" lon="13.916668463498354">
        <ele>348.13</ele>
        <time>2018-09-25T10:35:54Z</time>
      </trkpt>
      <trkpt lat="40.714348582550883" lon="13.916662512347102">
        <ele>348.13</ele>
        <time>2018-09-25T10:35:56Z</time>
      </trkpt>
      <trkpt lat="40.714225955307484" lon="13.916613142937422">
        <ele>344.76999999999998</ele>
        <time>2018-09-25T10:36:09Z</time>
      </trkpt>
      <trkpt lat="40.714109782129526" lon="13.916565114632249">
        <ele>342.85000000000002</ele>
        <time>2018-09-25T10:36:21Z</time>
      </trkpt>
      <trkpt lat="40.714014731347561" lon="13.916526809334755">
        <ele>338.04000000000002</ele>
        <time>2018-09-25T10:36:30Z</time>
      </trkpt>
      <trkpt lat="40.714004589244723" lon="13.916524462401867">
        <ele>341.88999999999999</ele>
        <time>2018-09-25T10:36:31Z</time>
      </trkpt>
      <trkpt lat="40.713861510157585" lon="13.916463861241937">
        <ele>338.51999999999998</ele>
        <time>2018-09-25T10:36:44Z</time>
      </trkpt>
      <trkpt lat="40.713767046108842" lon="13.916442906484008">
        <ele>337.56</ele>
        <time>2018-09-25T10:36:56Z</time>
      </trkpt>
      <trkpt lat="40.713691860437393" lon="13.916375515982509">
        <ele>336.60000000000002</ele>
        <time>2018-09-25T10:37:07Z</time>
      </trkpt>
      <trkpt lat="40.713688172399998" lon="13.916357746347785">
        <ele>336.60000000000002</ele>
        <time>2018-09-25T10:37:18Z</time>
      </trkpt>
      <trkpt lat="40.713666714727879" lon="13.916371744126081">
        <ele>336.12</ele>
        <time>2018-09-25T10:37:40Z</time>
      </trkpt>
      <trkpt lat="40.713582057505846" lon="13.916343161836267">
        <ele>335.16000000000003</ele>
        <time>2018-09-25T10:37:52Z</time>
      </trkpt>
      <trkpt lat="40.713481307029724" lon="13.916312819346786">
        <ele>333.23000000000002</ele>
        <time>2018-09-25T10:38:01Z</time>
      </trkpt>
      <trkpt lat="40.713325571268797" lon="13.916251379996538">
        <ele>332.26999999999998</ele>
        <time>2018-09-25T10:38:14Z</time>
      </trkpt>
      <trkpt lat="40.713305454701185" lon="13.916244925931096">
        <ele>332.75</ele>
        <time>2018-09-25T10:38:16Z</time>
      </trkpt>
      <trkpt lat="40.713175367563963" lon="13.916193209588528">
        <ele>332.26999999999998</ele>
        <time>2018-09-25T10:38:27Z</time>
      </trkpt>
      <trkpt lat="40.713016865774989" lon="13.916132356971502">
        <ele>331.31</ele>
        <time>2018-09-25T10:38:39Z</time>
      </trkpt>
      <trkpt lat="40.712849060073495" lon="13.916087010875344">
        <ele>333.70999999999998</ele>
        <time>2018-09-25T10:38:52Z</time>
      </trkpt>
      <trkpt lat="40.712821064516902" lon="13.916089776903391">
        <ele>331.79000000000002</ele>
        <time>2018-09-25T10:38:54Z</time>
      </trkpt>
      <trkpt lat="40.712663317099214" lon="13.916128249838948">
        <ele>330.35000000000002</ele>
        <time>2018-09-25T10:39:07Z</time>
      </trkpt>
      <trkpt lat="40.712468270212412" lon="13.916178205981851">
        <ele>330.35000000000002</ele>
        <time>2018-09-25T10:39:22Z</time>
      </trkpt>
      <trkpt lat="40.712315468117595" lon="13.916256744414568">
        <ele>328.91000000000003</ele>
        <time>2018-09-25T10:39:35Z</time>
      </trkpt>
      <trkpt lat="40.712220584973693" lon="13.916296139359474">
        <ele>327.94999999999999</ele>
        <time>2018-09-25T10:39:47Z</time>
      </trkpt>
      <trkpt lat="40.712189236655831" lon="13.916311897337437">
        <ele>327.94999999999999</ele>
        <time>2018-09-25T10:39:55Z</time>
      </trkpt>
      <trkpt lat="40.712158810347319" lon="13.916322039440274">
        <ele>326.99000000000001</ele>
        <time>2018-09-25T10:40:06Z</time>
      </trkpt>
      <trkpt lat="40.712125618010759" lon="13.916312986984849">
        <ele>325.54000000000002</ele>
        <time>2018-09-25T10:40:20Z</time>
      </trkpt>
      <trkpt lat="40.712052611634135" lon="13.916350370272994">
        <ele>322.18000000000001</ele>
        <time>2018-09-25T10:40:33Z</time>
      </trkpt>
      <trkpt lat="40.711989998817444" lon="13.916374677792192">
        <ele>321.22000000000003</ele>
        <time>2018-09-25T10:40:46Z</time>
      </trkpt>
      <trkpt lat="40.711976084858179" lon="13.916442906484008">
        <ele>319.30000000000001</ele>
        <time>2018-09-25T10:40:56Z</time>
      </trkpt>
      <trkpt lat="40.711985137313604" lon="13.916450114920735">
        <ele>318.81</ele>
        <time>2018-09-25T10:41:04Z</time>
      </trkpt>
      <trkpt lat="40.711972564458847" lon="13.916493616998196">
        <ele>316.88999999999999</ele>
        <time>2018-09-25T10:41:13Z</time>
      </trkpt>
      <trkpt lat="40.711964936926961" lon="13.916531335562468">
        <ele>315.44999999999999</ele>
        <time>2018-09-25T10:41:22Z</time>
      </trkpt>
      <trkpt lat="40.711954040452838" lon="13.916576094925404">
        <ele>314.49000000000001</ele>
        <time>2018-09-25T10:41:32Z</time>
      </trkpt>
      <trkpt lat="40.71195412427187" lon="13.916620016098022">
        <ele>313.05000000000001</ele>
        <time>2018-09-25T10:41:38Z</time>
      </trkpt>
      <trkpt lat="40.711938366293907" lon="13.916665697470307">
        <ele>310.63999999999999</ele>
        <time>2018-09-25T10:41:45Z</time>
      </trkpt>
      <trkpt lat="40.711941048502922" lon="13.91669612377882">
        <ele>309.19999999999999</ele>
        <time>2018-09-25T10:41:54Z</time>
      </trkpt>
      <trkpt lat="40.711937947198749" lon="13.916719341650605">
        <ele>308.24000000000001</ele>
        <time>2018-09-25T10:41:58Z</time>
      </trkpt>
      <trkpt lat="40.711933588609099" lon="13.916735015809536">
        <ele>307.27999999999997</ele>
        <time>2018-09-25T10:42:00Z</time>
      </trkpt>
      <trkpt lat="40.711934342980385" lon="13.916791258379817">
        <ele>304.88</ele>
        <time>2018-09-25T10:42:08Z</time>
      </trkpt>
      <trkpt lat="40.711945155635476" lon="13.916833838447928">
        <ele>304.38999999999999</ele>
        <time>2018-09-25T10:42:16Z</time>
      </trkpt>
      <trkpt lat="40.711942138150334" lon="13.9168905839324">
        <ele>301.99000000000001</ele>
        <time>2018-09-25T10:42:26Z</time>
      </trkpt>
      <trkpt lat="40.711935516446829" lon="13.916973061859608">
        <ele>301.02999999999997</ele>
        <time>2018-09-25T10:42:36Z</time>
      </trkpt>
      <trkpt lat="40.711927972733974" lon="13.917018491774797">
        <ele>299.11000000000001</ele>
        <time>2018-09-25T10:42:41Z</time>
      </trkpt>
      <trkpt lat="40.711926547810435" lon="13.917065849527717">
        <ele>296.69999999999999</ele>
        <time>2018-09-25T10:42:45Z</time>
      </trkpt>
      <trkpt lat="40.711927302181721" lon="13.91715444624424">
        <ele>294.30000000000001</ele>
        <time>2018-09-25T10:42:54Z</time>
      </trkpt>
      <trkpt lat="40.711950603872538" lon="13.917250586673617">
        <ele>290.45999999999998</ele>
        <time>2018-09-25T10:43:01Z</time>
      </trkpt>
      <trkpt lat="40.711951358243823" lon="13.917291825637221">
        <ele>289.00999999999999</ele>
        <time>2018-09-25T10:43:04Z</time>
      </trkpt>
      <trkpt lat="40.711946245282888" lon="13.917402550578117">
        <ele>285.64999999999998</ele>
        <time>2018-09-25T10:43:12Z</time>
      </trkpt>
      <trkpt lat="40.711954040452838" lon="13.917451417073607">
        <ele>285.17000000000002</ele>
        <time>2018-09-25T10:43:16Z</time>
      </trkpt>
      <trkpt lat="40.711966697126627" lon="13.917496092617512">
        <ele>283.73000000000002</ele>
        <time>2018-09-25T10:43:19Z</time>
      </trkpt>
      <trkpt lat="40.711980191990733" lon="13.917644787579775">
        <ele>280.83999999999997</ele>
        <time>2018-09-25T10:43:32Z</time>
      </trkpt>
      <trkpt lat="40.711967451497912" lon="13.917679153382778">
        <ele>278.92000000000002</ele>
        <time>2018-09-25T10:43:36Z</time>
      </trkpt>
      <trkpt lat="40.711964350193739" lon="13.917721062898636">
        <ele>279.88</ele>
        <time>2018-09-25T10:43:44Z</time>
      </trkpt>
      <trkpt lat="40.711924619972706" lon="13.917781664058566">
        <ele>278.44</ele>
        <time>2018-09-25T10:43:55Z</time>
      </trkpt>
      <trkpt lat="40.711919674649835" lon="13.917786609381437">
        <ele>277.48000000000002</ele>
        <time>2018-09-25T10:43:56Z</time>
      </trkpt>
      <trkpt lat="40.711869467049837" lon="13.917944859713316">
        <ele>273.63</ele>
        <time>2018-09-25T10:44:05Z</time>
      </trkpt>
      <trkpt lat="40.711864018812776" lon="13.917959360405803">
        <ele>272.67000000000002</ele>
        <time>2018-09-25T10:44:06Z</time>
      </trkpt>
      <trkpt lat="40.711845997720957" lon="13.918085591867566">
        <ele>269.31</ele>
        <time>2018-09-25T10:44:12Z</time>
      </trkpt>
      <trkpt lat="40.711833257228136" lon="13.91823043115437">
        <ele>267.38</ele>
        <time>2018-09-25T10:44:18Z</time>
      </trkpt>
      <trkpt lat="40.711813308298588" lon="13.918365882709622">
        <ele>265.45999999999998</ele>
        <time>2018-09-25T10:44:25Z</time>
      </trkpt>
      <trkpt lat="40.711807524785399" lon="13.918404942378402">
        <ele>264.5</ele>
        <time>2018-09-25T10:44:27Z</time>
      </trkpt>
      <trkpt lat="40.71176553145051" lon="13.918633433058858">
        <ele>264.01999999999998</ele>
        <time>2018-09-25T10:44:40Z</time>
      </trkpt>
      <trkpt lat="40.711739715188742" lon="13.918736111372709">
        <ele>264.01999999999998</ele>
        <time>2018-09-25T10:44:46Z</time>
      </trkpt>
      <trkpt lat="40.711728148162365" lon="13.918764023110271">
        <ele>260.64999999999998</ele>
        <time>2018-09-25T10:44:48Z</time>
      </trkpt>
      <trkpt lat="40.711601078510284" lon="13.918825965374708">
        <ele>257.29000000000002</ele>
        <time>2018-09-25T10:44:58Z</time>
      </trkpt>
      <trkpt lat="40.711571490392089" lon="13.91882554627955">
        <ele>256.32999999999998</ele>
        <time>2018-09-25T10:45:00Z</time>
      </trkpt>
      <trkpt lat="40.711415000259876" lon="13.918843902647495">
        <ele>253.44</ele>
        <time>2018-09-25T10:45:11Z</time>
      </trkpt>
      <trkpt lat="40.711244093254209" lon="13.918912382796407">
        <ele>252</ele>
        <time>2018-09-25T10:45:25Z</time>
      </trkpt>
      <trkpt lat="40.711215091869235" lon="13.918926967307925">
        <ele>254.88999999999999</ele>
        <time>2018-09-25T10:45:28Z</time>
      </trkpt>
      <trkpt lat="40.711166141554713" lon="13.918946161866188">
        <ele>251.52000000000001</ele>
        <time>2018-09-25T10:45:33Z</time>
      </trkpt>
      <trkpt lat="40.711067989468575" lon="13.918970301747322">
        <ele>248.16</ele>
        <time>2018-09-25T10:45:42Z</time>
      </trkpt>
      <trkpt lat="40.710995821282268" lon="13.91900341026485">
        <ele>246.72</ele>
        <time>2018-09-25T10:45:48Z</time>
      </trkpt>
      <trkpt lat="40.710916528478265" lon="13.919039620086551">
        <ele>243.83000000000001</ele>
        <time>2018-09-25T10:45:56Z</time>
      </trkpt>
      <trkpt lat="40.710786273702979" lon="13.91909284517169">
        <ele>241.91</ele>
        <time>2018-09-25T10:46:08Z</time>
      </trkpt>
      <trkpt lat="40.710626179352403" lon="13.919106172397733">
        <ele>240.47</ele>
        <time>2018-09-25T10:46:21Z</time>
      </trkpt>
      <trkpt lat="40.710489051416516" lon="13.919081697240472">
        <ele>238.06</ele>
        <time>2018-09-25T10:46:32Z</time>
      </trkpt>
      <trkpt lat="40.710396682843566" lon="13.919075075536966">
        <ele>237.58000000000001</ele>
        <time>2018-09-25T10:46:42Z</time>
      </trkpt>
      <trkpt lat="40.710354605689645" lon="13.919035093858838">
        <ele>237.58000000000001</ele>
        <time>2018-09-25T10:46:48Z</time>
      </trkpt>
      <trkpt lat="40.710210101678967" lon="13.919006008654833">
        <ele>236.13999999999999</ele>
        <time>2018-09-25T10:47:00Z</time>
      </trkpt>
      <trkpt lat="40.710101388394833" lon="13.918942641466856">
        <ele>235.18000000000001</ele>
        <time>2018-09-25T10:47:08Z</time>
      </trkpt>
      <trkpt lat="40.710029304027557" lon="13.918927051126957">
        <ele>234.22</ele>
        <time>2018-09-25T10:47:15Z</time>
      </trkpt>
      <trkpt lat="40.709919836372137" lon="13.918848177418113">
        <ele>232.78</ele>
        <time>2018-09-25T10:47:26Z</time>
      </trkpt>
      <trkpt lat="40.709811542183161" lon="13.918852871283889">
        <ele>231.81</ele>
        <time>2018-09-25T10:47:36Z</time>
      </trkpt>
      <trkpt lat="40.709671480581164" lon="13.918926380574703">
        <ele>229.88999999999999</ele>
        <time>2018-09-25T10:47:49Z</time>
      </trkpt>
      <trkpt lat="40.709574753418565" lon="13.91897558234632">
        <ele>229.88999999999999</ele>
        <time>2018-09-25T10:48:00Z</time>
      </trkpt>
      <trkpt lat="40.709491604939103" lon="13.919015312567353">
        <ele>230.37</ele>
        <time>2018-09-25T10:48:09Z</time>
      </trkpt>
      <trkpt lat="40.709488419815898" lon="13.918996956199408">
        <ele>230.37</ele>
        <time>2018-09-25T10:48:19Z</time>
      </trkpt>
      <trkpt lat="40.709481462836266" lon="13.919003577902913">
        <ele>229.88999999999999</ele>
        <time>2018-09-25T10:48:36Z</time>
      </trkpt>
      <trkpt lat="40.709445169195533" lon="13.91901858150959">
        <ele>229.41</ele>
        <time>2018-09-25T10:48:45Z</time>
      </trkpt>
      <trkpt lat="40.70942597463727" lon="13.919016402214766">
        <ele>229.41</ele>
        <time>2018-09-25T10:48:53Z</time>
      </trkpt>
      <trkpt lat="40.709417341277003" lon="13.919018916785717">
        <ele>228.93000000000001</ele>
        <time>2018-09-25T10:49:06Z</time>
      </trkpt>
      <trkpt lat="40.709415413439274" lon="13.919019335880876">
        <ele>228.93000000000001</ele>
        <time>2018-09-25T10:49:07Z</time>
      </trkpt>
      <trkpt lat="40.709407953545451" lon="13.918959992006421">
        <ele>229.88999999999999</ele>
        <time>2018-09-25T10:49:15Z</time>
      </trkpt>
      <trkpt lat="40.709426896646619" lon="13.918971894308925">
        <ele>229.88999999999999</ele>
        <time>2018-09-25T10:49:26Z</time>
      </trkpt>
      <trkpt lat="40.709447097033262" lon="13.91895848326385">
        <ele>229.88999999999999</ele>
        <time>2018-09-25T10:49:42Z</time>
      </trkpt>
      <trkpt lat="40.709449695423245" lon="13.918979857116938">
        <ele>230.37</ele>
        <time>2018-09-25T10:49:58Z</time>
      </trkpt>
      <trkpt lat="40.709444498643279" lon="13.918994776904583">
        <ele>230.37</ele>
        <time>2018-09-25T10:50:14Z</time>
      </trkpt>
      <trkpt lat="40.709410719573498" lon="13.918997459113598">
        <ele>229.88999999999999</ele>
        <time>2018-09-25T10:50:31Z</time>
      </trkpt>
      <trkpt lat="40.709386579692364" lon="13.919002069160342">
        <ele>228.44999999999999</ele>
        <time>2018-09-25T10:50:35Z</time>
      </trkpt>
      <trkpt lat="40.709294378757477" lon="13.91903861425817">
        <ele>227.97</ele>
        <time>2018-09-25T10:50:46Z</time>
      </trkpt>
      <trkpt lat="40.709286332130432" lon="13.919045403599739">
        <ele>227.97</ele>
        <time>2018-09-25T10:50:47Z</time>
      </trkpt>
      <trkpt lat="40.709187677130103" lon="13.919049929827452">
        <ele>227.97</ele>
        <time>2018-09-25T10:50:58Z</time>
      </trkpt>
      <trkpt lat="40.709054572507739" lon="13.919056719169021">
        <ele>227.00999999999999</ele>
        <time>2018-09-25T10:51:12Z</time>
      </trkpt>
      <trkpt lat="40.708913002163172" lon="13.919043140485883">
        <ele>226.05000000000001</ele>
        <time>2018-09-25T10:51:27Z</time>
      </trkpt>
      <trkpt lat="40.708796912804246" lon="13.919045738875866">
        <ele>226.05000000000001</ele>
        <time>2018-09-25T10:51:40Z</time>
      </trkpt>
      <trkpt lat="40.708747124299407" lon="13.919063173234463">
        <ele>226.05000000000001</ele>
        <time>2018-09-25T10:51:45Z</time>
      </trkpt>
      <trkpt lat="40.708644194528461" lon="13.91912754625082">
        <ele>225.09</ele>
        <time>2018-09-25T10:51:56Z</time>
      </trkpt>
      <trkpt lat="40.708560710772872" lon="13.919164761900902">
        <ele>224.12</ele>
        <time>2018-09-25T10:52:06Z</time>
      </trkpt>
      <trkpt lat="40.708482004702091" lon="13.91920717433095">
        <ele>223.16</ele>
        <time>2018-09-25T10:52:14Z</time>
      </trkpt>
      <trkpt lat="40.708381254225969" lon="13.919294429942966">
        <ele>223.63999999999999</ele>
        <time>2018-09-25T10:52:25Z</time>
      </trkpt>
      <trkpt lat="40.708361892029643" lon="13.919309852644801">
        <ele>223.16</ele>
        <time>2018-09-25T10:52:27Z</time>
      </trkpt>
      <trkpt lat="40.708218393847346" lon="13.919316222891212">
        <ele>222.19999999999999</ele>
        <time>2018-09-25T10:52:40Z</time>
      </trkpt>
      <trkpt lat="40.708101047202945" lon="13.919406244531274">
        <ele>222.19999999999999</ele>
        <time>2018-09-25T10:52:53Z</time>
      </trkpt>
      <trkpt lat="40.708049666136503" lon="13.919490817934275">
        <ele>222.19999999999999</ele>
        <time>2018-09-25T10:53:03Z</time>
      </trkpt>
      <trkpt lat="40.708000129088759" lon="13.919638423249125">
        <ele>221.72</ele>
        <time>2018-09-25T10:53:16Z</time>
      </trkpt>
      <trkpt lat="40.707960063591599" lon="13.919719392433763">
        <ele>221.24000000000001</ele>
        <time>2018-09-25T10:53:27Z</time>
      </trkpt>
      <trkpt lat="40.707920920103788" lon="13.91989859752357">
        <ele>220.75999999999999</ele>
        <time>2018-09-25T10:53:41Z</time>
      </trkpt>
      <trkpt lat="40.707923769950867" lon="13.919951487332582">
        <ele>221.72</ele>
        <time>2018-09-25T10:53:45Z</time>
      </trkpt>
      <trkpt lat="40.707939444109797" lon="13.920046370476484">
        <ele>221.24000000000001</ele>
        <time>2018-09-25T10:53:53Z</time>
      </trkpt>
      <trkpt lat="40.707929385825992" lon="13.920081490650773">
        <ele>220.28</ele>
        <time>2018-09-25T10:54:00Z</time>
      </trkpt>
      <trkpt lat="40.707876747474074" lon="13.919954672455788">
        <ele>219.31999999999999</ele>
        <time>2018-09-25T10:54:11Z</time>
      </trkpt>
      <trkpt lat="40.707864258438349" lon="13.919860376045108">
        <ele>215.94999999999999</ele>
        <time>2018-09-25T10:54:21Z</time>
      </trkpt>
      <trkpt lat="40.707844560965896" lon="13.919850988313556">
        <ele>215.47</ele>
        <time>2018-09-25T10:54:27Z</time>
      </trkpt>
      <trkpt lat="40.707788737490773" lon="13.91990496776998">
        <ele>212.59</ele>
        <time>2018-09-25T10:54:36Z</time>
      </trkpt>
      <trkpt lat="40.707722185179591" lon="13.919896921142936">
        <ele>210.66999999999999</ele>
        <time>2018-09-25T10:54:45Z</time>
      </trkpt>
      <trkpt lat="40.707679018378258" lon="13.919911421835423">
        <ele>208.25999999999999</ele>
        <time>2018-09-25T10:54:55Z</time>
      </trkpt>
      <trkpt lat="40.707709779962897" lon="13.919880157336593">
        <ele>207.30000000000001</ele>
        <time>2018-09-25T10:55:00Z</time>
      </trkpt>
      <trkpt lat="40.707807848230004" lon="13.919766582548618">
        <ele>204.41999999999999</ele>
        <time>2018-09-25T10:55:13Z</time>
      </trkpt>
      <trkpt lat="40.707825198769569" lon="13.919741688296199">
        <ele>202.97999999999999</ele>
        <time>2018-09-25T10:55:25Z</time>
      </trkpt>
      <trkpt lat="40.707787899300456" lon="13.919748980551958">
        <ele>202.00999999999999</ele>
        <time>2018-09-25T10:55:30Z</time>
      </trkpt>
      <trkpt lat="40.707725454121828" lon="13.919763648882508">
        <ele>198.16999999999999</ele>
        <time>2018-09-25T10:55:41Z</time>
      </trkpt>
      <trkpt lat="40.707676000893116" lon="13.919779406860471">
        <ele>194.80000000000001</ele>
        <time>2018-09-25T10:55:53Z</time>
      </trkpt>
      <trkpt lat="40.707621602341533" lon="13.919764570891857">
        <ele>192.88</ele>
        <time>2018-09-25T10:56:01Z</time>
      </trkpt>
      <trkpt lat="40.70749637670815" lon="13.919715620577335">
        <ele>192.88</ele>
        <time>2018-09-25T10:56:14Z</time>
      </trkpt>
      <trkpt lat="40.707490090280771" lon="13.919711178168654">
        <ele>189.03999999999999</ele>
        <time>2018-09-25T10:56:17Z</time>
      </trkpt>
      <trkpt lat="40.707476260140538" lon="13.919712267816067">
        <ele>188.56</ele>
        <time>2018-09-25T10:56:29Z</time>
      </trkpt>
      <trkpt lat="40.707485731691122" lon="13.919698353856802">
        <ele>187.59</ele>
        <time>2018-09-25T10:56:41Z</time>
      </trkpt>
      <trkpt lat="40.707487491890788" lon="13.919703215360641">
        <ele>188.08000000000001</ele>
        <time>2018-09-25T10:56:52Z</time>
      </trkpt>
      <trkpt lat="40.707477098330855" lon="13.91970413736999">
        <ele>187.59</ele>
        <time>2018-09-25T10:57:10Z</time>
      </trkpt>
      <trkpt lat="40.707462849095464" lon="13.919705646112561">
        <ele>187.59</ele>
        <time>2018-09-25T10:57:26Z</time>
      </trkpt>
      <trkpt lat="40.707440888509154" lon="13.919581510126591">
        <ele>187.11000000000001</ele>
        <time>2018-09-25T10:57:37Z</time>
      </trkpt>
      <trkpt lat="40.70742504671216" lon="13.919553095474839">
        <ele>187.11000000000001</ele>
        <time>2018-09-25T10:57:40Z</time>
      </trkpt>
      <trkpt lat="40.707320189103484" lon="13.919435748830438">
        <ele>185.19</ele>
        <time>2018-09-25T10:57:54Z</time>
      </trkpt>
      <trkpt lat="40.707233184948564" lon="13.919369447976351">
        <ele>182.78999999999999</ele>
        <time>2018-09-25T10:58:05Z</time>
      </trkpt>
      <trkpt lat="40.707140229642391" lon="13.919298201799393">
        <ele>182.78999999999999</ele>
        <time>2018-09-25T10:58:16Z</time>
      </trkpt>
      <trkpt lat="40.707056997343898" lon="13.919228967279196">
        <ele>180.38</ele>
        <time>2018-09-25T10:58:27Z</time>
      </trkpt>
      <trkpt lat="40.706932190805674" lon="13.919111872091889">
        <ele>178.46000000000001</ele>
        <time>2018-09-25T10:58:42Z</time>
      </trkpt>
      <trkpt lat="40.706912409514189" lon="13.919106172397733">
        <ele>177.97999999999999</ele>
        <time>2018-09-25T10:58:44Z</time>
      </trkpt>
      <trkpt lat="40.70686949416995" lon="13.919071471318603">
        <ele>177.5</ele>
        <time>2018-09-25T10:58:49Z</time>
      </trkpt>
      <trkpt lat="40.70676488801837" lon="13.918995028361678">
        <ele>176.06</ele>
        <time>2018-09-25T10:59:01Z</time>
      </trkpt>
      <trkpt lat="40.706650139763951" lon="13.918911796063185">
        <ele>173.66</ele>
        <time>2018-09-25T10:59:13Z</time>
      </trkpt>
      <trkpt lat="40.70654503069818" lon="13.918860917910933">
        <ele>172.21000000000001</ele>
        <time>2018-09-25T10:59:24Z</time>
      </trkpt>
      <trkpt lat="40.706419134512544" lon="13.918881202116609">
        <ele>170.77000000000001</ele>
        <time>2018-09-25T10:59:36Z</time>
      </trkpt>
      <trkpt lat="40.706324251368642" lon="13.918862594291568">
        <ele>170.28999999999999</ele>
        <time>2018-09-25T10:59:46Z</time>
      </trkpt>
      <trkpt lat="40.706250993534923" lon="13.918865444138646">
        <ele>169.33000000000001</ele>
        <time>2018-09-25T10:59:54Z</time>
      </trkpt>
      <trkpt lat="40.706114452332258" lon="13.918865527957678">
        <ele>168.84999999999999</ele>
        <time>2018-09-25T11:00:06Z</time>
      </trkpt>
      <trkpt lat="40.705962907522917" lon="13.918856307864189">
        <ele>167.88999999999999</ele>
        <time>2018-09-25T11:00:20Z</time>
      </trkpt>
      <trkpt lat="40.705829132348299" lon="13.918859995901585">
        <ele>166.93000000000001</ele>
        <time>2018-09-25T11:00:31Z</time>
      </trkpt>
      <trkpt lat="40.705689657479525" lon="13.918842980638146">
        <ele>168.37</ele>
        <time>2018-09-25T11:00:45Z</time>
      </trkpt>
      <trkpt lat="40.705680102109909" lon="13.918845243752003">
        <ele>168.37</ele>
        <time>2018-09-25T11:00:46Z</time>
      </trkpt>
      <trkpt lat="40.70558094419539" lon="13.918832670897245">
        <ele>167.41</ele>
        <time>2018-09-25T11:00:53Z</time>
      </trkpt>
      <trkpt lat="40.705561162903905" lon="13.918826719745994">
        <ele>167.41</ele>
        <time>2018-09-25T11:00:55Z</time>
      </trkpt>
      <trkpt lat="40.705545404925942" lon="13.918840382248163">
        <ele>166.93000000000001</ele>
        <time>2018-09-25T11:00:57Z</time>
      </trkpt>
      <trkpt lat="40.705517828464508" lon="13.918870976194739">
        <ele>166.93000000000001</ele>
        <time>2018-09-25T11:01:01Z</time>
      </trkpt>
      <trkpt lat="40.705400984734297" lon="13.91891841776669">
        <ele>165</ele>
        <time>2018-09-25T11:01:14Z</time>
      </trkpt>
      <trkpt lat="40.705320853739977" lon="13.918955968692899">
        <ele>165.96000000000001</ele>
        <time>2018-09-25T11:01:24Z</time>
      </trkpt>
      <trkpt lat="40.705312304198742" lon="13.918959321454167">
        <ele>165</ele>
        <time>2018-09-25T11:01:25Z</time>
      </trkpt>
      <trkpt lat="40.70520032197237" lon="13.918997878208756">
        <ele>165.47999999999999</ele>
        <time>2018-09-25T11:01:35Z</time>
      </trkpt>
      <trkpt lat="40.705129913985729" lon="13.919011289253831">
        <ele>164.52000000000001</ele>
        <time>2018-09-25T11:01:41Z</time>
      </trkpt>
      <trkpt lat="40.705057242885232" lon="13.919020760804415">
        <ele>165.96000000000001</ele>
        <time>2018-09-25T11:01:47Z</time>
      </trkpt>
      <trkpt lat="40.704937381669879" lon="13.919026711955667">
        <ele>166.44999999999999</ele>
        <time>2018-09-25T11:01:58Z</time>
      </trkpt>
      <trkpt lat="40.70487636141479" lon="13.919034339487553">
        <ele>164.52000000000001</ele>
        <time>2018-09-25T11:02:04Z</time>
      </trkpt>
      <trkpt lat="40.704828500747681" lon="13.919060993939638">
        <ele>165.96000000000001</ele>
        <time>2018-09-25T11:02:09Z</time>
      </trkpt>
      <trkpt lat="40.704765804111958" lon="13.919097371399403">
        <ele>168.37</ele>
        <time>2018-09-25T11:02:14Z</time>
      </trkpt>
      <trkpt lat="40.704752476885915" lon="13.919102987274528">
        <ele>168.84999999999999</ele>
        <time>2018-09-25T11:02:15Z</time>
      </trkpt>
      <trkpt lat="40.704695479944348" lon="13.919129557907581">
        <ele>170.28999999999999</ele>
        <time>2018-09-25T11:02:21Z</time>
      </trkpt>
      <trkpt lat="40.704619958996773" lon="13.919137772172689">
        <ele>173.66</ele>
        <time>2018-09-25T11:02:29Z</time>
      </trkpt>
      <trkpt lat="40.704604536294937" lon="13.919111536815763">
        <ele>175.09999999999999</ele>
        <time>2018-09-25T11:02:31Z</time>
      </trkpt>
      <trkpt lat="40.704603949561715" lon="13.919095359742641">
        <ele>174.62</ele>
        <time>2018-09-25T11:02:32Z</time>
      </trkpt>
      <trkpt lat="40.704534966498613" lon="13.918989999219775">
        <ele>174.62</ele>
        <time>2018-09-25T11:02:44Z</time>
      </trkpt>
      <trkpt lat="40.704539241269231" lon="13.918979102745652">
        <ele>174.62</ele>
        <time>2018-09-25T11:02:45Z</time>
      </trkpt>
      <trkpt lat="40.704536391422153" lon="13.918922524899244">
        <ele>174.62</ele>
        <time>2018-09-25T11:02:55Z</time>
      </trkpt>
      <trkpt lat="40.704530691727996" lon="13.918938282877207">
        <ele>174.13999999999999</ele>
        <time>2018-09-25T11:03:10Z</time>
      </trkpt>
      <trkpt lat="40.704541085287929" lon="13.918942222371697">
        <ele>174.13999999999999</ele>
        <time>2018-09-25T11:03:25Z</time>
      </trkpt>
      <trkpt lat="40.704550808295608" lon="13.918939875438809">
        <ele>173.66</ele>
        <time>2018-09-25T11:03:44Z</time>
      </trkpt>
      <trkpt lat="40.704590454697609" lon="13.918833006173372">
        <ele>176.06</ele>
        <time>2018-09-25T11:03:56Z</time>
      </trkpt>
      <trkpt lat="40.7046012673527" lon="13.918764106929302">
        <ele>177.97999999999999</ele>
        <time>2018-09-25T11:04:03Z</time>
      </trkpt>
      <trkpt lat="40.70462322793901" lon="13.918670313432813">
        <ele>177.97999999999999</ele>
        <time>2018-09-25T11:04:10Z</time>
      </trkpt>
      <trkpt lat="40.704661700874567" lon="13.918521534651518">
        <ele>178.46000000000001</ele>
        <time>2018-09-25T11:04:22Z</time>
      </trkpt>
      <trkpt lat="40.704680979251862" lon="13.918383568525314">
        <ele>177.02000000000001</ele>
        <time>2018-09-25T11:04:35Z</time>
      </trkpt>
      <trkpt lat="40.704649798572063" lon="13.918289858847857">
        <ele>177.5</ele>
        <time>2018-09-25T11:04:44Z</time>
      </trkpt>
      <trkpt lat="40.704631777480245" lon="13.918074779212475">
        <ele>176.53999999999999</ele>
        <time>2018-09-25T11:04:58Z</time>
      </trkpt>
      <trkpt lat="40.704618450254202" lon="13.917915103957057">
        <ele>175.58000000000001</ele>
        <time>2018-09-25T11:05:09Z</time>
      </trkpt>
      <trkpt lat="40.704551478847861" lon="13.917676387354732">
        <ele>173.66</ele>
        <time>2018-09-25T11:05:24Z</time>
      </trkpt>
      <trkpt lat="40.704557513818145" lon="13.917633388191462">
        <ele>173.66</ele>
        <time>2018-09-25T11:05:27Z</time>
      </trkpt>
      <trkpt lat="40.704552317038178" lon="13.917588545009494">
        <ele>175.09999999999999</ele>
        <time>2018-09-25T11:05:30Z</time>
      </trkpt>
      <trkpt lat="40.704566733911633" lon="13.91738997772336">
        <ele>172.21000000000001</ele>
        <time>2018-09-25T11:05:43Z</time>
      </trkpt>
      <trkpt lat="40.70456363260746" lon="13.917347649112344">
        <ele>172.21000000000001</ele>
        <time>2018-09-25T11:05:46Z</time>
      </trkpt>
      <trkpt lat="40.704574612900615" lon="13.917101891711354">
        <ele>169.81</ele>
        <time>2018-09-25T11:06:03Z</time>
      </trkpt>
      <trkpt lat="40.704612666741014" lon="13.916929140686989">
        <ele>168.84999999999999</ele>
        <time>2018-09-25T11:06:16Z</time>
      </trkpt>
      <trkpt lat="40.70466136559844" lon="13.916749684140086">
        <ele>168.37</ele>
        <time>2018-09-25T11:06:29Z</time>
      </trkpt>
      <trkpt lat="40.704674106091261" lon="13.916551200672984">
        <ele>169.81</ele>
        <time>2018-09-25T11:06:43Z</time>
      </trkpt>
      <trkpt lat="40.704671759158373" lon="13.916538963094354">
        <ele>169.81</ele>
        <time>2018-09-25T11:06:44Z</time>
      </trkpt>
      <trkpt lat="40.704682152718306" lon="13.916383981704712">
        <ele>169.33000000000001</ele>
        <time>2018-09-25T11:06:56Z</time>
      </trkpt>
      <trkpt lat="40.704705286771059" lon="13.916211985051632">
        <ele>168.84999999999999</ele>
        <time>2018-09-25T11:07:09Z</time>
      </trkpt>
      <trkpt lat="40.704702604562044" lon="13.916021129116416">
        <ele>166.44999999999999</ele>
        <time>2018-09-25T11:07:24Z</time>
      </trkpt>
      <trkpt lat="40.704709561541677" lon="13.915834715589881">
        <ele>165.47999999999999</ele>
        <time>2018-09-25T11:07:36Z</time>
      </trkpt>
      <trkpt lat="40.704698162153363" lon="13.915673363953829">
        <ele>165.47999999999999</ele>
        <time>2018-09-25T11:07:47Z</time>
      </trkpt>
      <trkpt lat="40.704696234315634" lon="13.915613433346152">
        <ele>165.47999999999999</ele>
        <time>2018-09-25T11:07:51Z</time>
      </trkpt>
      <trkpt lat="40.704693971201777" lon="13.915429953485727">
        <ele>166.44999999999999</ele>
        <time>2018-09-25T11:08:04Z</time>
      </trkpt>
      <trkpt lat="40.704700509086251" lon="13.915264997631311">
        <ele>166.44999999999999</ele>
        <time>2018-09-25T11:08:16Z</time>
      </trkpt>
      <trkpt lat="40.704701766371727" lon="13.915072130039334">
        <ele>165</ele>
        <time>2018-09-25T11:08:30Z</time>
      </trkpt>
      <trkpt lat="40.704716350883245" lon="13.914931062608957">
        <ele>162.59999999999999</ele>
        <time>2018-09-25T11:08:42Z</time>
      </trkpt>
      <trkpt lat="40.704705538228154" lon="13.914804831147194">
        <ele>161.63999999999999</ele>
        <time>2018-09-25T11:08:54Z</time>
      </trkpt>
      <trkpt lat="40.704683158546686" lon="13.914716988801956">
        <ele>159.72</ele>
        <time>2018-09-25T11:09:03Z</time>
      </trkpt>
      <trkpt lat="40.70462130010128" lon="13.914634259417653">
        <ele>157.78999999999999</ele>
        <time>2018-09-25T11:09:14Z</time>
      </trkpt>
      <trkpt lat="40.704617444425821" lon="13.914621602743864">
        <ele>158.27000000000001</ele>
        <time>2018-09-25T11:09:17Z</time>
      </trkpt>
      <trkpt lat="40.70455240085721" lon="13.914604419842362">
        <ele>156.34999999999999</ele>
        <time>2018-09-25T11:09:27Z</time>
      </trkpt>
      <trkpt lat="40.704474030062556" lon="13.914585560560226">
        <ele>153.47</ele>
        <time>2018-09-25T11:09:39Z</time>
      </trkpt>
      <trkpt lat="40.704369507730007" lon="13.914539963006973">
        <ele>151.06</ele>
        <time>2018-09-25T11:09:51Z</time>
      </trkpt>
      <trkpt lat="40.704274037852883" lon="13.914429740980268">
        <ele>148.66</ele>
        <time>2018-09-25T11:10:02Z</time>
      </trkpt>
      <trkpt lat="40.704184686765075" lon="13.914338294416666">
        <ele>146.25999999999999</ele>
        <time>2018-09-25T11:10:15Z</time>
      </trkpt>
      <trkpt lat="40.704110758379102" lon="13.914260175079107">
        <ele>143.84999999999999</ele>
        <time>2018-09-25T11:10:27Z</time>
      </trkpt>
      <trkpt lat="40.704043367877603" lon="13.914165794849396">
        <ele>140.49000000000001</ele>
        <time>2018-09-25T11:10:40Z</time>
      </trkpt>
      <trkpt lat="40.703996177762747" lon="13.914119694381952">
        <ele>138.09</ele>
        <time>2018-09-25T11:10:50Z</time>
      </trkpt>
      <trkpt lat="40.703917555510998" lon="13.914029421284795">
        <ele>136.16</ele>
        <time>2018-09-25T11:11:02Z</time>
      </trkpt>
      <trkpt lat="40.703893415629864" lon="13.913982231169939">
        <ele>134.72</ele>
        <time>2018-09-25T11:11:08Z</time>
      </trkpt>
      <trkpt lat="40.703849913552403" lon="13.913886342197657">
        <ele>131.36000000000001</ele>
        <time>2018-09-25T11:11:19Z</time>
      </trkpt>
      <trkpt lat="40.70384974591434" lon="13.9138547424227">
        <ele>130.88</ele>
        <time>2018-09-25T11:11:32Z</time>
      </trkpt>
      <trkpt lat="40.703828455880284" lon="13.91374921426177">
        <ele>129.43000000000001</ele>
        <time>2018-09-25T11:11:43Z</time>
      </trkpt>
      <trkpt lat="40.703801969066262" lon="13.913672184571624">
        <ele>127.98999999999999</ele>
        <time>2018-09-25T11:11:54Z</time>
      </trkpt>
      <trkpt lat="40.703776236623526" lon="13.91362608410418">
        <ele>126.55</ele>
        <time>2018-09-25T11:11:59Z</time>
      </trkpt>
      <trkpt lat="40.703789228573442" lon="13.913496499881148">
        <ele>126.06999999999999</ele>
        <time>2018-09-25T11:12:10Z</time>
      </trkpt>
      <trkpt lat="40.703735249117017" lon="13.913411507382989">
        <ele>125.59</ele>
        <time>2018-09-25T11:12:21Z</time>
      </trkpt>
      <trkpt lat="40.703729465603828" lon="13.913415782153606">
        <ele>125.11</ele>
        <time>2018-09-25T11:12:33Z</time>
      </trkpt>
      <trkpt lat="40.703757293522358" lon="13.913428606465459">
        <ele>125.11</ele>
        <time>2018-09-25T11:12:49Z</time>
      </trkpt>
      <trkpt lat="40.703810267150402" lon="13.913503792136908">
        <ele>126.06999999999999</ele>
        <time>2018-09-25T11:12:59Z</time>
      </trkpt>
      <trkpt lat="40.703805154189467" lon="13.913483759388328">
        <ele>125.11</ele>
        <time>2018-09-25T11:13:09Z</time>
      </trkpt>
      <trkpt lat="40.703807584941387" lon="13.913478897884488">
        <ele>125.11</ele>
        <time>2018-09-25T11:13:20Z</time>
      </trkpt>
      <trkpt lat="40.703807082027197" lon="13.913472360000014">
        <ele>125.11</ele>
        <time>2018-09-25T11:13:31Z</time>
      </trkpt>
      <trkpt lat="40.703802807256579" lon="13.913464481011033">
        <ele>125.59</ele>
        <time>2018-09-25T11:13:43Z</time>
      </trkpt>
      <trkpt lat="40.703807836398482" lon="13.913478059694171">
        <ele>125.59</ele>
        <time>2018-09-25T11:13:52Z</time>
      </trkpt>
      <trkpt lat="40.703811356797814" lon="13.913494655862451">
        <ele>125.11</ele>
        <time>2018-09-25T11:13:55Z</time>
      </trkpt>
      <trkpt lat="40.703808506950736" lon="13.913483591750264">
        <ele>125.11</ele>
        <time>2018-09-25T11:14:04Z</time>
      </trkpt>
      <trkpt lat="40.703814290463924" lon="13.913458781316876">
        <ele>124.15000000000001</ele>
        <time>2018-09-25T11:14:28Z</time>
      </trkpt>
      <trkpt lat="40.703804735094309" lon="13.913477305322886">
        <ele>125.11</ele>
        <time>2018-09-25T11:14:31Z</time>
      </trkpt>
      <trkpt lat="40.703799370676279" lon="13.913481747731566">
        <ele>126.06999999999999</ele>
        <time>2018-09-25T11:14:42Z</time>
      </trkpt>
      <trkpt lat="40.703798113390803" lon="13.91345894895494">
        <ele>125.59</ele>
        <time>2018-09-25T11:15:13Z</time>
      </trkpt>
      <trkpt lat="40.703803561627865" lon="13.913486609235406">
        <ele>125.11</ele>
        <time>2018-09-25T11:15:46Z</time>
      </trkpt>
      <trkpt lat="40.703791826963425" lon="13.91348535194993">
        <ele>126.06999999999999</ele>
        <time>2018-09-25T11:15:55Z</time>
      </trkpt>
      <trkpt lat="40.703811105340719" lon="13.913511168211699">
        <ele>125.59</ele>
        <time>2018-09-25T11:16:03Z</time>
      </trkpt>
      <trkpt lat="40.703831138089299" lon="13.913514940068126">
        <ele>126.55</ele>
        <time>2018-09-25T11:16:12Z</time>
      </trkpt>
      <trkpt lat="40.703818313777447" lon="13.913543103262782">
        <ele>126.06999999999999</ele>
        <time>2018-09-25T11:16:21Z</time>
      </trkpt>
      <trkpt lat="40.70379551500082" lon="13.913520807400346">
        <ele>125.11</ele>
        <time>2018-09-25T11:16:25Z</time>
      </trkpt>
      <trkpt lat="40.703732315450907" lon="13.913458529859781">
        <ele>124.15000000000001</ele>
        <time>2018-09-25T11:16:39Z</time>
      </trkpt>
      <trkpt lat="40.703687891364098" lon="13.913415782153606">
        <ele>121.26000000000001</ele>
        <time>2018-09-25T11:16:46Z</time>
      </trkpt>
      <trkpt lat="40.703642293810844" lon="13.913371190428734">
        <ele>119.81999999999999</ele>
        <time>2018-09-25T11:16:55Z</time>
      </trkpt>
      <trkpt lat="40.703628463670611" lon="13.913361551240087">
        <ele>118.38</ele>
        <time>2018-09-25T11:17:05Z</time>
      </trkpt>
      <trkpt lat="40.703612789511681" lon="13.913364904001355">
        <ele>117.90000000000001</ele>
        <time>2018-09-25T11:17:16Z</time>
      </trkpt>
      <trkpt lat="40.703573729842901" lon="13.913335064426064">
        <ele>116.94</ele>
        <time>2018-09-25T11:17:24Z</time>
      </trkpt>
      <trkpt lat="40.703503992408514" lon="13.913250658661127">
        <ele>113.56999999999999</ele>
        <time>2018-09-25T11:17:36Z</time>
      </trkpt>
      <trkpt lat="40.70342805236578" lon="13.913180166855454">
        <ele>111.65000000000001</ele>
        <time>2018-09-25T11:17:47Z</time>
      </trkpt>
      <trkpt lat="40.703356051817536" lon="13.913119733333588">
        <ele>108.29000000000001</ele>
        <time>2018-09-25T11:18:00Z</time>
      </trkpt>
      <trkpt lat="40.703287739306688" lon="13.913047816604376">
        <ele>105.40000000000001</ele>
        <time>2018-09-25T11:18:12Z</time>
      </trkpt>
      <trkpt lat="40.703233508393168" lon="13.912975313141942">
        <ele>101.56</ele>
        <time>2018-09-25T11:18:22Z</time>
      </trkpt>
      <trkpt lat="40.703181540593505" lon="13.912871377542615">
        <ele>100.59999999999999</ele>
        <time>2018-09-25T11:18:35Z</time>
      </trkpt>
      <trkpt lat="40.70316812954843" lon="13.912782361730933">
        <ele>98.189999999999998</ele>
        <time>2018-09-25T11:18:47Z</time>
      </trkpt>
      <trkpt lat="40.703159999102354" lon="13.912685215473175">
        <ele>94.829999999999998</ele>
        <time>2018-09-25T11:18:58Z</time>
      </trkpt>
      <trkpt lat="40.703139128163457" lon="13.912601144984365">
        <ele>92.420000000000002</ele>
        <time>2018-09-25T11:19:10Z</time>
      </trkpt>
      <trkpt lat="40.703061847016215" lon="13.912542974576354">
        <ele>89.060000000000002</ele>
        <time>2018-09-25T11:19:22Z</time>
      </trkpt>
      <trkpt lat="40.702965622767806" lon="13.912468543276191">
        <ele>87.140000000000001</ele>
        <time>2018-09-25T11:19:35Z</time>
      </trkpt>
      <trkpt lat="40.702885575592518" lon="13.912423616275191">
        <ele>84.730000000000004</ele>
        <time>2018-09-25T11:19:47Z</time>
      </trkpt>
      <trkpt lat="40.702810892835259" lon="13.912368295714259">
        <ele>81.370000000000005</ele>
        <time>2018-09-25T11:19:59Z</time>
      </trkpt>
      <trkpt lat="40.702759847044945" lon="13.912360165268183">
        <ele>78.480000000000004</ele>
        <time>2018-09-25T11:20:08Z</time>
      </trkpt>
      <trkpt lat="40.702683236449957" lon="13.912333678454161">
        <ele>75.599999999999994</ele>
        <time>2018-09-25T11:20:18Z</time>
      </trkpt>
      <trkpt lat="40.70256806910038" lon="13.912307359278202">
        <ele>72.719999999999999</ele>
        <time>2018-09-25T11:20:30Z</time>
      </trkpt>
      <trkpt lat="40.702538648620248" lon="13.912278944626451">
        <ele>71.269999999999996</ele>
        <time>2018-09-25T11:20:34Z</time>
      </trkpt>
      <trkpt lat="40.7024703361094" lon="13.91221540980041">
        <ele>68.390000000000001</ele>
        <time>2018-09-25T11:20:43Z</time>
      </trkpt>
      <trkpt lat="40.702408896759152" lon="13.912202166393399">
        <ele>66.469999999999999</ele>
        <time>2018-09-25T11:20:50Z</time>
      </trkpt>
      <trkpt lat="40.702360114082694" lon="13.912207027897239">
        <ele>65.030000000000001</ele>
        <time>2018-09-25T11:20:55Z</time>
      </trkpt>
      <trkpt lat="40.702257016673684" lon="13.912177607417107">
        <ele>61.659999999999997</ele>
        <time>2018-09-25T11:21:05Z</time>
      </trkpt>
      <trkpt lat="40.702221896499395" lon="13.912160089239478">
        <ele>60.700000000000003</ele>
        <time>2018-09-25T11:21:08Z</time>
      </trkpt>
      <trkpt lat="40.702188955619931" lon="13.912142906337976">
        <ele>59.259999999999998</ele>
        <time>2018-09-25T11:21:12Z</time>
      </trkpt>
      <trkpt lat="40.702100694179535" lon="13.911999072879553">
        <ele>56.369999999999997</ele>
        <time>2018-09-25T11:21:23Z</time>
      </trkpt>
      <trkpt lat="40.702085271477699" lon="13.911820035427809">
        <ele>53.490000000000002</ele>
        <time>2018-09-25T11:21:35Z</time>
      </trkpt>
      <trkpt lat="40.702109076082706" lon="13.911743341013789">
        <ele>54.450000000000003</ele>
        <time>2018-09-25T11:21:41Z</time>
      </trkpt>
      <trkpt lat="40.702212760224938" lon="13.911643261089921">
        <ele>52.530000000000001</ele>
        <time>2018-09-25T11:21:53Z</time>
      </trkpt>
      <trkpt lat="40.702245365828276" lon="13.911602608859539">
        <ele>50.609999999999999</ele>
        <time>2018-09-25T11:21:57Z</time>
      </trkpt>
      <trkpt lat="40.702269673347473" lon="13.911518789827824">
        <ele>48.68</ele>
        <time>2018-09-25T11:22:04Z</time>
      </trkpt>
      <trkpt lat="40.702237067744136" lon="13.911454165354371">
        <ele>47.719999999999999</ele>
        <time>2018-09-25T11:22:09Z</time>
      </trkpt>
      <trkpt lat="40.702146627008915" lon="13.911331286653876">
        <ele>44.359999999999999</ele>
        <time>2018-09-25T11:22:21Z</time>
      </trkpt>
      <trkpt lat="40.702116452157497" lon="13.911261884495616">
        <ele>41.950000000000003</ele>
        <time>2018-09-25T11:22:31Z</time>
      </trkpt>
      <trkpt lat="40.702079990878701" lon="13.911134647205472">
        <ele>38.590000000000003</ele>
        <time>2018-09-25T11:22:43Z</time>
      </trkpt>
      <trkpt lat="40.702077811583877" lon="13.911021240055561">
        <ele>36.189999999999998</ele>
        <time>2018-09-25T11:22:52Z</time>
      </trkpt>
      <trkpt lat="40.702103460207582" lon="13.910969523712993">
        <ele>34.740000000000002</ele>
        <time>2018-09-25T11:22:57Z</time>
      </trkpt>
      <trkpt lat="40.702056773006916" lon="13.910930883139372">
        <ele>33.299999999999997</ele>
        <time>2018-09-25T11:23:04Z</time>
      </trkpt>
      <trkpt lat="40.701951161026955" lon="13.910855194553733">
        <ele>30.899999999999999</ele>
        <time>2018-09-25T11:23:17Z</time>
      </trkpt>
      <trkpt lat="40.701946131885052" lon="13.910843040794134">
        <ele>30.420000000000002</ele>
        <time>2018-09-25T11:23:18Z</time>
      </trkpt>
      <trkpt lat="40.701927524060011" lon="13.91077782958746">
        <ele>29.940000000000001</ele>
        <time>2018-09-25T11:23:23Z</time>
      </trkpt>
      <trkpt lat="40.70186834782362" lon="13.910575741901994">
        <ele>28.02</ele>
        <time>2018-09-25T11:23:37Z</time>
      </trkpt>
      <trkpt lat="40.701802046969533" lon="13.910405673086643">
        <ele>26.09</ele>
        <time>2018-09-25T11:23:50Z</time>
      </trkpt>
      <trkpt lat="40.701764998957515" lon="13.91032487154007">
        <ele>25.129999999999999</ele>
        <time>2018-09-25T11:24:00Z</time>
      </trkpt>
      <trkpt lat="40.701769776642323" lon="13.910346580669284">
        <ele>25.129999999999999</ele>
        <time>2018-09-25T11:24:10Z</time>
      </trkpt>
      <trkpt lat="40.701766004785895" lon="13.910349765792489">
        <ele>26.09</ele>
        <time>2018-09-25T11:24:24Z</time>
      </trkpt>
      <trkpt lat="40.701762568205595" lon="13.910359153524041">
        <ele>25.609999999999999</ele>
        <time>2018-09-25T11:24:35Z</time>
      </trkpt>
      <trkpt lat="40.701796347275376" lon="13.910292349755764">
        <ele>26.09</ele>
        <time>2018-09-25T11:24:47Z</time>
      </trkpt>
      <trkpt lat="40.701788887381554" lon="13.910274161025882">
        <ele>26.57</ele>
        <time>2018-09-25T11:24:56Z</time>
      </trkpt>
      <trkpt lat="40.701764412224293" lon="13.910292433574796">
        <ele>28.5</ele>
        <time>2018-09-25T11:25:03Z</time>
      </trkpt>
      <trkpt lat="40.701728872954845" lon="13.910361332818866">
        <ele>28.98</ele>
        <time>2018-09-25T11:25:12Z</time>
      </trkpt>
      <trkpt lat="40.701723676174879" lon="13.910367954522371">
        <ele>28.5</ele>
        <time>2018-09-25T11:25:13Z</time>
      </trkpt>
      <trkpt lat="40.701674977317452" lon="13.910420089960098">
        <ele>28.5</ele>
        <time>2018-09-25T11:25:20Z</time>
      </trkpt>
      <trkpt lat="40.701655866578221" lon="13.910449678078294">
        <ele>28.5</ele>
        <time>2018-09-25T11:25:23Z</time>
      </trkpt>
      <trkpt lat="40.70162158459425" lon="13.910578843206167">
        <ele>28.02</ele>
        <time>2018-09-25T11:25:33Z</time>
      </trkpt>
      <trkpt lat="40.701569952070713" lon="13.910758132115006">
        <ele>28.02</ele>
        <time>2018-09-25T11:25:47Z</time>
      </trkpt>
      <trkpt lat="40.701556541025639" lon="13.910828959196806">
        <ele>27.530000000000001</ele>
        <time>2018-09-25T11:25:52Z</time>
      </trkpt>
      <trkpt lat="40.701545896008611" lon="13.910880843177438">
        <ele>28.02</ele>
        <time>2018-09-25T11:25:56Z</time>
      </trkpt>
      <trkpt lat="40.701506836339831" lon="13.91100749373436">
        <ele>27.530000000000001</ele>
        <time>2018-09-25T11:26:05Z</time>
      </trkpt>
      <trkpt lat="40.701466016471386" lon="13.911151913926005">
        <ele>27.530000000000001</ele>
        <time>2018-09-25T11:26:19Z</time>
      </trkpt>
      <trkpt lat="40.701459813863039" lon="13.911178149282932">
        <ele>27.530000000000001</ele>
        <time>2018-09-25T11:26:21Z</time>
      </trkpt>
      <trkpt lat="40.701413797214627" lon="13.911230284720659">
        <ele>28.02</ele>
        <time>2018-09-25T11:26:27Z</time>
      </trkpt>
      <trkpt lat="40.701392674818635" lon="13.911236487329006">
        <ele>28.02</ele>
        <time>2018-09-25T11:26:30Z</time>
      </trkpt>
      <trkpt lat="40.701424358412623" lon="13.911236487329006">
        <ele>28.02</ele>
        <time>2018-09-25T11:26:34Z</time>
      </trkpt>
      <trkpt lat="40.70142955519259" lon="13.911290634423494">
        <ele>28.5</ele>
        <time>2018-09-25T11:26:38Z</time>
      </trkpt>
      <trkpt lat="40.701368032023311" lon="13.911396749317646">
        <ele>28.02</ele>
        <time>2018-09-25T11:26:49Z</time>
      </trkpt>
      <trkpt lat="40.701374318450689" lon="13.911477718502283">
        <ele>28.5</ele>
        <time>2018-09-25T11:26:58Z</time>
      </trkpt>
      <trkpt lat="40.701334839686751" lon="13.911466486752033">
        <ele>28.5</ele>
        <time>2018-09-25T11:27:11Z</time>
      </trkpt>
      <trkpt lat="40.701346071437001" lon="13.91145022585988">
        <ele>28.5</ele>
        <time>2018-09-25T11:27:22Z</time>
      </trkpt>
      <trkpt lat="40.701345233246684" lon="13.911451902240515">
        <ele>28.5</ele>
        <time>2018-09-25T11:27:33Z</time>
      </trkpt>
      <trkpt lat="40.701334672048688" lon="13.911450393497944">
        <ele>27.530000000000001</ele>
        <time>2018-09-25T11:27:48Z</time>
      </trkpt>
      <trkpt lat="40.701331906020641" lon="13.911452991887927">
        <ele>28.02</ele>
        <time>2018-09-25T11:28:05Z</time>
      </trkpt>
      <trkpt lat="40.701336935162544" lon="13.911453410983086">
        <ele>27.050000000000001</ele>
        <time>2018-09-25T11:28:26Z</time>
      </trkpt>
    </trkseg>
  </trk>

  <trk>
    <name>2018-09-26 15:26:54</name>
    <extensions>
      <gpxx:TrackExtension>
        <gpxx:DisplayColor>Yellow</gpxx:DisplayColor>
      </gpxx:TrackExtension>
      <gpxtrkx:TrackStatsExtension xmlns:gpxtrkx="http://www.garmin.com/xmlschemas/TrackStatsExtension/v1">
        <gpxtrkx:Distance>12336</gpxtrkx:Distance>
        <gpxtrkx:TotalElapsedTime>19689</gpxtrkx:TotalElapsedTime>
        <gpxtrkx:MovingTime>13187</gpxtrkx:MovingTime>
        <gpxtrkx:StoppedTime>6263</gpxtrkx:StoppedTime>
        <gpxtrkx:MovingSpeed>1</gpxtrkx:MovingSpeed>
        <gpxtrkx:MaxSpeed>2</gpxtrkx:MaxSpeed>
        <gpxtrkx:MaxElevation>794</gpxtrkx:MaxElevation>
        <gpxtrkx:MinElevation>8</gpxtrkx:MinElevation>
        <gpxtrkx:Ascent>621</gpxtrkx:Ascent>
        <gpxtrkx:Descent>1197</gpxtrkx:Descent>
        <gpxtrkx:AvgAscentRate>0</gpxtrkx:AvgAscentRate>
        <gpxtrkx:MaxAscentRate>1</gpxtrkx:MaxAscentRate>
        <gpxtrkx:AvgDescentRate>0</gpxtrkx:AvgDescentRate>
        <gpxtrkx:MaxDescentRate>-2</gpxtrkx:MaxDescentRate>
      </gpxtrkx:TrackStatsExtension>
    </extensions>
    <trkseg>
      <trkpt lat="40.726970136165619" lon="13.899971125647426">
        <ele>576.45000000000005</ele>
        <time>2018-09-26T07:58:47Z</time>
      </trkpt>
      <trkpt lat="40.726970722898841" lon="13.899969616904855">
        <ele>576.45000000000005</ele>
        <time>2018-09-26T07:58:48Z</time>
      </trkpt>
      <trkpt lat="40.726970471441746" lon="13.899970119819045">
        <ele>587.5</ele>
        <time>2018-09-26T07:58:53Z</time>
      </trkpt>
      <trkpt lat="40.726971058174968" lon="13.899971880018711">
        <ele>587.5</ele>
        <time>2018-09-26T07:58:54Z</time>
      </trkpt>
      <trkpt lat="40.726969884708524" lon="13.899972550570965">
        <ele>583.17999999999995</ele>
        <time>2018-09-26T07:59:01Z</time>
      </trkpt>
      <trkpt lat="40.72696384973824" lon="13.899963414296508">
        <ele>585.10000000000002</ele>
        <time>2018-09-26T07:59:10Z</time>
      </trkpt>
      <trkpt lat="40.726956054568291" lon="13.899964420124888">
        <ele>581.73000000000002</ele>
        <time>2018-09-26T07:59:15Z</time>
      </trkpt>
      <trkpt lat="40.726954462006688" lon="13.899966012686491">
        <ele>581.73000000000002</ele>
        <time>2018-09-26T07:59:16Z</time>
      </trkpt>
      <trkpt lat="40.726948929950595" lon="13.899964252486825">
        <ele>583.65999999999997</ele>
        <time>2018-09-26T07:59:19Z</time>
      </trkpt>
      <trkpt lat="40.726942140609026" lon="13.899957546964288">
        <ele>579.80999999999995</ele>
        <time>2018-09-26T07:59:28Z</time>
      </trkpt>
      <trkpt lat="40.726939709857106" lon="13.899957127869129">
        <ele>578.85000000000002</ele>
        <time>2018-09-26T07:59:30Z</time>
      </trkpt>
      <trkpt lat="40.726929064840078" lon="13.899949081242085">
        <ele>582.22000000000003</ele>
        <time>2018-09-26T07:59:34Z</time>
      </trkpt>
      <trkpt lat="40.726926801726222" lon="13.899946566671133">
        <ele>583.17999999999995</ele>
        <time>2018-09-26T07:59:36Z</time>
      </trkpt>
      <trkpt lat="40.726915067061782" lon="13.899939944967628">
        <ele>579.33000000000004</ele>
        <time>2018-09-26T07:59:46Z</time>
      </trkpt>
      <trkpt lat="40.726913474500179" lon="13.899939442053437">
        <ele>581.73000000000002</ele>
        <time>2018-09-26T07:59:50Z</time>
      </trkpt>
      <trkpt lat="40.726910289376974" lon="13.899939944967628">
        <ele>578.37</ele>
        <time>2018-09-26T07:59:57Z</time>
      </trkpt>
      <trkpt lat="40.72691204957664" lon="13.899936676025391">
        <ele>577.40999999999997</ele>
        <time>2018-09-26T07:59:59Z</time>
      </trkpt>
      <trkpt lat="40.726914564147592" lon="13.899939358234406">
        <ele>581.73000000000002</ele>
        <time>2018-09-26T08:00:02Z</time>
      </trkpt>
      <trkpt lat="40.726915150880814" lon="13.899939442053437">
        <ele>581.73000000000002</ele>
        <time>2018-09-26T08:00:03Z</time>
      </trkpt>
      <trkpt lat="40.726916575804353" lon="13.89994103461504">
        <ele>584.13999999999999</ele>
        <time>2018-09-26T08:00:09Z</time>
      </trkpt>
      <trkpt lat="40.726919258013368" lon="13.899942962452769">
        <ele>580.76999999999998</ele>
        <time>2018-09-26T08:00:12Z</time>
      </trkpt>
      <trkpt lat="40.726917581632733" lon="13.899944135919213">
        <ele>583.65999999999997</ele>
        <time>2018-09-26T08:00:14Z</time>
      </trkpt>
      <trkpt lat="40.726926466450095" lon="13.899951260536909">
        <ele>580.28999999999996</ele>
        <time>2018-09-26T08:00:25Z</time>
      </trkpt>
      <trkpt lat="40.726942978799343" lon="13.899962911382318">
        <ele>582.22000000000003</ele>
        <time>2018-09-26T08:00:30Z</time>
      </trkpt>
      <trkpt lat="40.726987402886152" lon="13.899994594976306">
        <ele>585.58000000000004</ele>
        <time>2018-09-26T08:00:35Z</time>
      </trkpt>
      <trkpt lat="40.727052530273795" lon="13.900002725422382">
        <ele>584.62</ele>
        <time>2018-09-26T08:00:44Z</time>
      </trkpt>
      <trkpt lat="40.727051189169288" lon="13.900018651038408">
        <ele>587.5</ele>
        <time>2018-09-26T08:00:50Z</time>
      </trkpt>
      <trkpt lat="40.727057307958603" lon="13.899994343519211">
        <ele>586.05999999999995</ele>
        <time>2018-09-26T08:00:52Z</time>
      </trkpt>
      <trkpt lat="40.727100307121873" lon="13.899898119270802">
        <ele>588.95000000000005</ele>
        <time>2018-09-26T08:01:03Z</time>
      </trkpt>
      <trkpt lat="40.727173732593656" lon="13.899821927770972">
        <ele>592.30999999999995</ele>
        <time>2018-09-26T08:01:13Z</time>
      </trkpt>
      <trkpt lat="40.727180019021034" lon="13.899816563352942">
        <ele>592.30999999999995</ele>
        <time>2018-09-26T08:01:14Z</time>
      </trkpt>
      <trkpt lat="40.727277332916856" lon="13.899840787053108">
        <ele>592.78999999999996</ele>
        <time>2018-09-26T08:01:26Z</time>
      </trkpt>
      <trkpt lat="40.727368528023362" lon="13.89989024028182">
        <ele>593.75</ele>
        <time>2018-09-26T08:01:39Z</time>
      </trkpt>
      <trkpt lat="40.727438600733876" lon="13.899908931925893">
        <ele>596.63999999999999</ele>
        <time>2018-09-26T08:01:49Z</time>
      </trkpt>
      <trkpt lat="40.7274598069489" lon="13.899915805086493">
        <ele>599.51999999999998</ele>
        <time>2018-09-26T08:01:53Z</time>
      </trkpt>
      <trkpt lat="40.727518144994974" lon="13.899926533922553">
        <ele>600.48000000000002</ele>
        <time>2018-09-26T08:02:02Z</time>
      </trkpt>
      <trkpt lat="40.72761713527143" lon="13.899919744580984">
        <ele>600.48000000000002</ele>
        <time>2018-09-26T08:02:14Z</time>
      </trkpt>
      <trkpt lat="40.727669354528189" lon="13.899923348799348">
        <ele>603.85000000000002</ele>
        <time>2018-09-26T08:02:20Z</time>
      </trkpt>
      <trkpt lat="40.727744540199637" lon="13.899918654933572">
        <ele>606.25</ele>
        <time>2018-09-26T08:02:32Z</time>
      </trkpt>
      <trkpt lat="40.727843614295125" lon="13.899881104007363">
        <ele>608.16999999999996</ele>
        <time>2018-09-26T08:02:46Z</time>
      </trkpt>
      <trkpt lat="40.727936401963234" lon="13.899864004924893">
        <ele>610.09000000000003</ele>
        <time>2018-09-26T08:02:58Z</time>
      </trkpt>
      <trkpt lat="40.727995662018657" lon="13.899848582223058">
        <ele>613.46000000000004</ele>
        <time>2018-09-26T08:03:06Z</time>
      </trkpt>
      <trkpt lat="40.728076631203294" lon="13.899828968569636">
        <ele>612.5</ele>
        <time>2018-09-26T08:03:18Z</time>
      </trkpt>
      <trkpt lat="40.728156175464392" lon="13.89981547370553">
        <ele>614.41999999999996</ele>
        <time>2018-09-26T08:03:30Z</time>
      </trkpt>
      <trkpt lat="40.728245275095105" lon="13.899806002154946">
        <ele>617.29999999999995</ele>
        <time>2018-09-26T08:03:43Z</time>
      </trkpt>
      <trkpt lat="40.728330099955201" lon="13.899793345481157">
        <ele>618.25999999999999</ele>
        <time>2018-09-26T08:03:55Z</time>
      </trkpt>
      <trkpt lat="40.72841065004468" lon="13.899775994941592">
        <ele>620.66999999999996</ele>
        <time>2018-09-26T08:04:06Z</time>
      </trkpt>
      <trkpt lat="40.728503856807947" lon="13.899761997163296">
        <ele>622.59000000000003</ele>
        <time>2018-09-26T08:04:19Z</time>
      </trkpt>
      <trkpt lat="40.728523219004273" lon="13.899745903909206">
        <ele>623.07000000000005</ele>
        <time>2018-09-26T08:04:33Z</time>
      </trkpt>
      <trkpt lat="40.728553393855691" lon="13.899692008271813">
        <ele>624.50999999999999</ele>
        <time>2018-09-26T08:04:45Z</time>
      </trkpt>
      <trkpt lat="40.728580383583903" lon="13.899685302749276">
        <ele>624.99000000000001</ele>
        <time>2018-09-26T08:04:53Z</time>
      </trkpt>
      <trkpt lat="40.728562446311116" lon="13.899664096534252">
        <ele>624.99000000000001</ele>
        <time>2018-09-26T08:04:59Z</time>
      </trkpt>
      <trkpt lat="40.728565044701099" lon="13.899671891704202">
        <ele>624.02999999999997</ele>
        <time>2018-09-26T08:05:14Z</time>
      </trkpt>
      <trkpt lat="40.728565799072385" lon="13.899689074605703">
        <ele>622.59000000000003</ele>
        <time>2018-09-26T08:05:24Z</time>
      </trkpt>
      <trkpt lat="40.728657329455018" lon="13.899635514244437">
        <ele>624.99000000000001</ele>
        <time>2018-09-26T08:05:36Z</time>
      </trkpt>
      <trkpt lat="40.728737208992243" lon="13.899567956104875">
        <ele>626.91999999999996</ele>
        <time>2018-09-26T08:05:49Z</time>
      </trkpt>
      <trkpt lat="40.728805940598249" lon="13.899517497047782">
        <ele>630.27999999999997</ele>
        <time>2018-09-26T08:06:00Z</time>
      </trkpt>
      <trkpt lat="40.728831421583891" lon="13.899483298882842">
        <ele>633.64999999999998</ele>
        <time>2018-09-26T08:06:04Z</time>
      </trkpt>
      <trkpt lat="40.728843910619617" lon="13.899471061304212">
        <ele>634.13</ele>
        <time>2018-09-26T08:06:06Z</time>
      </trkpt>
      <trkpt lat="40.728904092684388" lon="13.899382967501879">
        <ele>634.13</ele>
        <time>2018-09-26T08:06:18Z</time>
      </trkpt>
      <trkpt lat="40.728997047990561" lon="13.899306021630764">
        <ele>636.52999999999997</ele>
        <time>2018-09-26T08:06:32Z</time>
      </trkpt>
      <trkpt lat="40.729063851758838" lon="13.899214155972004">
        <ele>637.97000000000003</ele>
        <time>2018-09-26T08:06:45Z</time>
      </trkpt>
      <trkpt lat="40.729119842872024" lon="13.899159170687199">
        <ele>638.45000000000005</ele>
        <time>2018-09-26T08:06:56Z</time>
      </trkpt>
      <trkpt lat="40.729184970259666" lon="13.899093791842461">
        <ele>641.34000000000003</ele>
        <time>2018-09-26T08:07:07Z</time>
      </trkpt>
      <trkpt lat="40.729286139830947" lon="13.898999076336622">
        <ele>642.77999999999997</ele>
        <time>2018-09-26T08:07:23Z</time>
      </trkpt>
      <trkpt lat="40.729351853951812" lon="13.898921962827444">
        <ele>644.70000000000005</ele>
        <time>2018-09-26T08:07:35Z</time>
      </trkpt>
      <trkpt lat="40.729430811479688" lon="13.89891249127686">
        <ele>647.59000000000003</ele>
        <time>2018-09-26T08:07:49Z</time>
      </trkpt>
      <trkpt lat="40.729493508115411" lon="13.89888072386384">
        <ele>650.95000000000005</ele>
        <time>2018-09-26T08:07:58Z</time>
      </trkpt>
      <trkpt lat="40.729545643553138" lon="13.898779051378369">
        <ele>652.87</ele>
        <time>2018-09-26T08:08:14Z</time>
      </trkpt>
      <trkpt lat="40.729545475915074" lon="13.89871065504849">
        <ele>651.42999999999995</ele>
        <time>2018-09-26T08:08:32Z</time>
      </trkpt>
      <trkpt lat="40.729545392096043" lon="13.898692214861512">
        <ele>652.87</ele>
        <time>2018-09-26T08:08:41Z</time>
      </trkpt>
      <trkpt lat="40.729531645774841" lon="13.898742254823446">
        <ele>652.38999999999999</ele>
        <time>2018-09-26T08:08:55Z</time>
      </trkpt>
      <trkpt lat="40.729479007422924" lon="13.898745607584715">
        <ele>650.95000000000005</ele>
        <time>2018-09-26T08:09:08Z</time>
      </trkpt>
      <trkpt lat="40.729474229738116" lon="13.898736136034131">
        <ele>650.95000000000005</ele>
        <time>2018-09-26T08:09:29Z</time>
      </trkpt>
      <trkpt lat="40.729469116777182" lon="13.898730436339974">
        <ele>650.47000000000003</ele>
        <time>2018-09-26T08:09:44Z</time>
      </trkpt>
      <trkpt lat="40.729487640783191" lon="13.898730520159006">
        <ele>653.35000000000002</ele>
        <time>2018-09-26T08:09:53Z</time>
      </trkpt>
      <trkpt lat="40.7295096013695" lon="13.898728592321277">
        <ele>653.35000000000002</ele>
        <time>2018-09-26T08:10:07Z</time>
      </trkpt>
      <trkpt lat="40.729517983272672" lon="13.898734040558338">
        <ele>654.79999999999995</ele>
        <time>2018-09-26T08:10:20Z</time>
      </trkpt>
      <trkpt lat="40.729516893625259" lon="13.898733118548989">
        <ele>650.95000000000005</ele>
        <time>2018-09-26T08:10:22Z</time>
      </trkpt>
      <trkpt lat="40.729516223073006" lon="13.898731442168355">
        <ele>650.95000000000005</ele>
        <time>2018-09-26T08:10:23Z</time>
      </trkpt>
      <trkpt lat="40.729497196152806" lon="13.898722138255835">
        <ele>651.90999999999997</ele>
        <time>2018-09-26T08:10:40Z</time>
      </trkpt>
      <trkpt lat="40.729485126212239" lon="13.898733370006084">
        <ele>651.42999999999995</ele>
        <time>2018-09-26T08:10:52Z</time>
      </trkpt>
      <trkpt lat="40.729487640783191" lon="13.898727083578706">
        <ele>651.90999999999997</ele>
        <time>2018-09-26T08:11:05Z</time>
      </trkpt>
      <trkpt lat="40.729488814249635" lon="13.898674612864852">
        <ele>652.87</ele>
        <time>2018-09-26T08:11:20Z</time>
      </trkpt>
      <trkpt lat="40.729483785107732" lon="13.898593476042151">
        <ele>653.83000000000004</ele>
        <time>2018-09-26T08:11:32Z</time>
      </trkpt>
      <trkpt lat="40.729452520608902" lon="13.898495826870203">
        <ele>655.27999999999997</ele>
        <time>2018-09-26T08:11:43Z</time>
      </trkpt>
      <trkpt lat="40.729409940540791" lon="13.898418042808771">
        <ele>656.24000000000001</ele>
        <time>2018-09-26T08:11:53Z</time>
      </trkpt>
      <trkpt lat="40.729394014924765" lon="13.898354424163699">
        <ele>657.20000000000005</ele>
        <time>2018-09-26T08:12:08Z</time>
      </trkpt>
      <trkpt lat="40.729340622201562" lon="13.898270856589079">
        <ele>656.72000000000003</ele>
        <time>2018-09-26T08:12:21Z</time>
      </trkpt>
      <trkpt lat="40.729293264448643" lon="13.898150743916631">
        <ele>658.15999999999997</ele>
        <time>2018-09-26T08:12:34Z</time>
      </trkpt>
      <trkpt lat="40.729246744886041" lon="13.898026021197438">
        <ele>658.63999999999999</ele>
        <time>2018-09-26T08:12:46Z</time>
      </trkpt>
      <trkpt lat="40.729229645803571" lon="13.897926863282919">
        <ele>661.03999999999996</ele>
        <time>2018-09-26T08:12:56Z</time>
      </trkpt>
      <trkpt lat="40.729180192574859" lon="13.897813288494945">
        <ele>661.03999999999996</ele>
        <time>2018-09-26T08:13:08Z</time>
      </trkpt>
      <trkpt lat="40.72910743765533" lon="13.897713040933013">
        <ele>661.51999999999998</ele>
        <time>2018-09-26T08:13:20Z</time>
      </trkpt>
      <trkpt lat="40.729086818173528" lon="13.897596700116992">
        <ele>661.51999999999998</ele>
        <time>2018-09-26T08:13:31Z</time>
      </trkpt>
      <trkpt lat="40.729088662192225" lon="13.897497290745378">
        <ele>662.97000000000003</ele>
        <time>2018-09-26T08:13:40Z</time>
      </trkpt>
      <trkpt lat="40.72907323949039" lon="13.89740408398211">
        <ele>663.92999999999995</ele>
        <time>2018-09-26T08:13:50Z</time>
      </trkpt>
      <trkpt lat="40.729072317481041" lon="13.897377764806151">
        <ele>664.88999999999999</ele>
        <time>2018-09-26T08:13:53Z</time>
      </trkpt>
      <trkpt lat="40.729072485119104" lon="13.897296041250229">
        <ele>664.40999999999997</ele>
        <time>2018-09-26T08:14:04Z</time>
      </trkpt>
      <trkpt lat="40.729094110429287" lon="13.897207276895642">
        <ele>668.25</ele>
        <time>2018-09-26T08:14:14Z</time>
      </trkpt>
      <trkpt lat="40.729079190641642" lon="13.89718372374773">
        <ele>671.13999999999999</ele>
        <time>2018-09-26T08:14:20Z</time>
      </trkpt>
      <trkpt lat="40.729047507047653" lon="13.897083811461926">
        <ele>673.05999999999995</ele>
        <time>2018-09-26T08:14:30Z</time>
      </trkpt>
      <trkpt lat="40.729008615016937" lon="13.89701122418046">
        <ele>674.01999999999998</ele>
        <time>2018-09-26T08:14:38Z</time>
      </trkpt>
      <trkpt lat="40.728968633338809" lon="13.89688859693706">
        <ele>674.01999999999998</ele>
        <time>2018-09-26T08:14:53Z</time>
      </trkpt>
      <trkpt lat="40.728924209252" lon="13.896806789562106">
        <ele>672.58000000000004</ele>
        <time>2018-09-26T08:15:04Z</time>
      </trkpt>
      <trkpt lat="40.728871067985892" lon="13.896729256957769">
        <ele>673.05999999999995</ele>
        <time>2018-09-26T08:15:14Z</time>
      </trkpt>
      <trkpt lat="40.72884458117187" lon="13.896639822050929">
        <ele>674.98000000000002</ele>
        <time>2018-09-26T08:15:25Z</time>
      </trkpt>
      <trkpt lat="40.728813735768199" lon="13.896549800410867">
        <ele>676.90999999999997</ele>
        <time>2018-09-26T08:15:34Z</time>
      </trkpt>
      <trkpt lat="40.728775933384895" lon="13.896491378545761">
        <ele>678.35000000000002</ele>
        <time>2018-09-26T08:15:44Z</time>
      </trkpt>
      <trkpt lat="40.728723043575883" lon="13.896417617797852">
        <ele>679.78999999999996</ele>
        <time>2018-09-26T08:15:55Z</time>
      </trkpt>
      <trkpt lat="40.728680631145835" lon="13.896328685805202">
        <ele>682.19000000000005</ele>
        <time>2018-09-26T08:16:08Z</time>
      </trkpt>
      <trkpt lat="40.728669315576553" lon="13.896226678043604">
        <ele>683.63</ele>
        <time>2018-09-26T08:16:20Z</time>
      </trkpt>
      <trkpt lat="40.728650204837322" lon="13.896135566756129">
        <ele>684.12</ele>
        <time>2018-09-26T08:16:31Z</time>
      </trkpt>
      <trkpt lat="40.728661688044667" lon="13.896048814058304">
        <ele>687</ele>
        <time>2018-09-26T08:16:42Z</time>
      </trkpt>
      <trkpt lat="40.728675937280059" lon="13.895965749397874">
        <ele>689.88</ele>
        <time>2018-09-26T08:16:53Z</time>
      </trkpt>
      <trkpt lat="40.728657748550177" lon="13.895880840718746">
        <ele>690.36000000000001</ele>
        <time>2018-09-26T08:17:07Z</time>
      </trkpt>
      <trkpt lat="40.72861148044467" lon="13.895796267315745">
        <ele>691.33000000000004</ele>
        <time>2018-09-26T08:17:18Z</time>
      </trkpt>
      <trkpt lat="40.72860854677856" lon="13.895696606487036">
        <ele>693.25</ele>
        <time>2018-09-26T08:17:30Z</time>
      </trkpt>
      <trkpt lat="40.728619191795588" lon="13.895639525726438">
        <ele>696.61000000000001</ele>
        <time>2018-09-26T08:17:39Z</time>
      </trkpt>
      <trkpt lat="40.728623801842332" lon="13.895631143823266">
        <ele>696.61000000000001</ele>
        <time>2018-09-26T08:17:40Z</time>
      </trkpt>
      <trkpt lat="40.728660095483065" lon="13.895573560148478">
        <ele>699.5</ele>
        <time>2018-09-26T08:17:53Z</time>
      </trkpt>
      <trkpt lat="40.728676943108439" lon="13.895539529621601">
        <ele>699.01999999999998</ele>
        <time>2018-09-26T08:18:02Z</time>
      </trkpt>
      <trkpt lat="40.728679792955518" lon="13.895446993410587">
        <ele>702.38</ele>
        <time>2018-09-26T08:18:14Z</time>
      </trkpt>
      <trkpt lat="40.728708123788238" lon="13.895361330360174">
        <ele>704.29999999999995</ele>
        <time>2018-09-26T08:18:25Z</time>
      </trkpt>
      <trkpt lat="40.728703429922462" lon="13.895328221842647">
        <ele>705.25999999999999</ele>
        <time>2018-09-26T08:18:35Z</time>
      </trkpt>
      <trkpt lat="40.728673925623298" lon="13.895357474684715">
        <ele>705.25999999999999</ele>
        <time>2018-09-26T08:18:45Z</time>
      </trkpt>
      <trkpt lat="40.728685073554516" lon="13.895344063639641">
        <ele>706.23000000000002</ele>
        <time>2018-09-26T08:18:58Z</time>
      </trkpt>
      <trkpt lat="40.728712985292077" lon="13.895289329811931">
        <ele>703.82000000000005</ele>
        <time>2018-09-26T08:19:09Z</time>
      </trkpt>
      <trkpt lat="40.728725222870708" lon="13.895195033401251">
        <ele>703.82000000000005</ele>
        <time>2018-09-26T08:19:22Z</time>
      </trkpt>
      <trkpt lat="40.72873855009675" lon="13.895094031468034">
        <ele>706.23000000000002</ele>
        <time>2018-09-26T08:19:33Z</time>
      </trkpt>
      <trkpt lat="40.728749027475715" lon="13.894999483600259">
        <ele>707.66999999999996</ele>
        <time>2018-09-26T08:19:43Z</time>
      </trkpt>
      <trkpt lat="40.728757157921791" lon="13.894922453910112">
        <ele>709.59000000000003</ele>
        <time>2018-09-26T08:19:53Z</time>
      </trkpt>
      <trkpt lat="40.728735281154513" lon="13.894828157499433">
        <ele>711.02999999999997</ele>
        <time>2018-09-26T08:20:04Z</time>
      </trkpt>
      <trkpt lat="40.728710973635316" lon="13.894730005413294">
        <ele>713.44000000000005</ele>
        <time>2018-09-26T08:20:15Z</time>
      </trkpt>
      <trkpt lat="40.728708542883396" lon="13.894724054262042">
        <ele>713.44000000000005</ele>
        <time>2018-09-26T08:20:16Z</time>
      </trkpt>
      <trkpt lat="40.728687588125467" lon="13.89468289911747">
        <ele>714.88</ele>
        <time>2018-09-26T08:20:26Z</time>
      </trkpt>
      <trkpt lat="40.728688007220626" lon="13.894676528871059">
        <ele>711.02999999999997</ele>
        <time>2018-09-26T08:20:39Z</time>
      </trkpt>
      <trkpt lat="40.728671327233315" lon="13.894668901339173">
        <ele>712.47000000000003</ele>
        <time>2018-09-26T08:20:54Z</time>
      </trkpt>
      <trkpt lat="40.728660430759192" lon="13.894662447273731">
        <ele>717.27999999999997</ele>
        <time>2018-09-26T08:20:58Z</time>
      </trkpt>
      <trkpt lat="40.728656491264701" lon="13.894672421738505">
        <ele>716.79999999999995</ele>
        <time>2018-09-26T08:21:16Z</time>
      </trkpt>
      <trkpt lat="40.728645846247673" lon="13.894608803093433">
        <ele>713.91999999999996</ele>
        <time>2018-09-26T08:21:24Z</time>
      </trkpt>
      <trkpt lat="40.72864425368607" lon="13.894489947706461">
        <ele>713.91999999999996</ele>
        <time>2018-09-26T08:21:33Z</time>
      </trkpt>
      <trkpt lat="40.728655066341162" lon="13.89443177729845">
        <ele>714.39999999999998</ele>
        <time>2018-09-26T08:21:38Z</time>
      </trkpt>
      <trkpt lat="40.728675853461027" lon="13.894416270777583">
        <ele>714.88</ele>
        <time>2018-09-26T08:21:40Z</time>
      </trkpt>
      <trkpt lat="40.728715667501092" lon="13.894366566091776">
        <ele>715.84000000000003</ele>
        <time>2018-09-26T08:21:45Z</time>
      </trkpt>
      <trkpt lat="40.728736622259021" lon="13.894357094541192">
        <ele>716.32000000000005</ele>
        <time>2018-09-26T08:21:48Z</time>
      </trkpt>
      <trkpt lat="40.728779872879386" lon="13.894290458410978">
        <ele>719.67999999999995</ele>
        <time>2018-09-26T08:21:56Z</time>
      </trkpt>
      <trkpt lat="40.728788003325462" lon="13.894283417612314">
        <ele>721.13</ele>
        <time>2018-09-26T08:21:58Z</time>
      </trkpt>
      <trkpt lat="40.728810550644994" lon="13.894319208338857">
        <ele>724.49000000000001</ele>
        <time>2018-09-26T08:22:04Z</time>
      </trkpt>
      <trkpt lat="40.728790517896414" lon="13.894312586635351">
        <ele>724.97000000000003</ele>
        <time>2018-09-26T08:22:15Z</time>
      </trkpt>
      <trkpt lat="40.728811640292406" lon="13.894320549443364">
        <ele>724.00999999999999</ele>
        <time>2018-09-26T08:22:21Z</time>
      </trkpt>
      <trkpt lat="40.728828236460686" lon="13.894315855577588">
        <ele>724.00999999999999</ele>
        <time>2018-09-26T08:22:29Z</time>
      </trkpt>
      <trkpt lat="40.72881868109107" lon="13.894319711253047">
        <ele>723.52999999999997</ele>
        <time>2018-09-26T08:22:55Z</time>
      </trkpt>
      <trkpt lat="40.728817926719785" lon="13.8943135086447">
        <ele>724.00999999999999</ele>
        <time>2018-09-26T08:23:00Z</time>
      </trkpt>
      <trkpt lat="40.728806778788567" lon="13.894324488937855">
        <ele>724.00999999999999</ele>
        <time>2018-09-26T08:23:09Z</time>
      </trkpt>
      <trkpt lat="40.728817926719785" lon="13.894326081499457">
        <ele>724.00999999999999</ele>
        <time>2018-09-26T08:23:21Z</time>
      </trkpt>
      <trkpt lat="40.728812394663692" lon="13.894309485331178">
        <ele>724.00999999999999</ele>
        <time>2018-09-26T08:23:34Z</time>
      </trkpt>
      <trkpt lat="40.728815579786897" lon="13.894313760101795">
        <ele>722.57000000000005</ele>
        <time>2018-09-26T08:23:58Z</time>
      </trkpt>
      <trkpt lat="40.728851538151503" lon="13.894305881112814">
        <ele>723.04999999999995</ele>
        <time>2018-09-26T08:24:17Z</time>
      </trkpt>
      <trkpt lat="40.728879701346159" lon="13.894312502816319">
        <ele>724.49000000000001</ele>
        <time>2018-09-26T08:24:28Z</time>
      </trkpt>
      <trkpt lat="40.728903925046325" lon="13.89431300573051">
        <ele>726.40999999999997</ele>
        <time>2018-09-26T08:24:33Z</time>
      </trkpt>
      <trkpt lat="40.728913899511099" lon="13.894299259409308">
        <ele>729.29999999999995</ele>
        <time>2018-09-26T08:24:37Z</time>
      </trkpt>
      <trkpt lat="40.728945080190897" lon="13.894281322136521">
        <ele>731.70000000000005</ele>
        <time>2018-09-26T08:24:47Z</time>
      </trkpt>
      <trkpt lat="40.728990342468023" lon="13.894301606342196">
        <ele>731.22000000000003</ele>
        <time>2018-09-26T08:24:56Z</time>
      </trkpt>
      <trkpt lat="40.728986151516438" lon="13.894304791465402">
        <ele>732.65999999999997</ele>
        <time>2018-09-26T08:24:59Z</time>
      </trkpt>
      <trkpt lat="40.729008028283715" lon="13.894293140619993">
        <ele>732.65999999999997</ele>
        <time>2018-09-26T08:25:10Z</time>
      </trkpt>
      <trkpt lat="40.72908740490675" lon="13.894359776750207">
        <ele>731.22000000000003</ele>
        <time>2018-09-26T08:25:20Z</time>
      </trkpt>
      <trkpt lat="40.729141887277365" lon="13.894401686266065">
        <ele>732.17999999999995</ele>
        <time>2018-09-26T08:25:30Z</time>
      </trkpt>
      <trkpt lat="40.729167452082038" lon="13.894444433972239">
        <ele>733.13999999999999</ele>
        <time>2018-09-26T08:25:41Z</time>
      </trkpt>
      <trkpt lat="40.729210367426276" lon="13.894477291032672">
        <ele>732.65999999999997</ele>
        <time>2018-09-26T08:25:48Z</time>
      </trkpt>
      <trkpt lat="40.729286810383201" lon="13.894529845565557">
        <ele>735.54999999999995</ele>
        <time>2018-09-26T08:26:00Z</time>
      </trkpt>
      <trkpt lat="40.729352021589875" lon="13.894593212753534">
        <ele>736.99000000000001</ele>
        <time>2018-09-26T08:26:11Z</time>
      </trkpt>
      <trkpt lat="40.729403402656317" lon="13.894632356241345">
        <ele>739.87</ele>
        <time>2018-09-26T08:26:22Z</time>
      </trkpt>
      <trkpt lat="40.72946710512042" lon="13.894674433395267">
        <ele>739.87</ele>
        <time>2018-09-26T08:26:33Z</time>
      </trkpt>
      <trkpt lat="40.729518150910735" lon="13.894752888008952">
        <ele>742.75999999999999</ele>
        <time>2018-09-26T08:26:45Z</time>
      </trkpt>
      <trkpt lat="40.729577578604221" lon="13.894801335409284">
        <ele>744.67999999999995</ele>
        <time>2018-09-26T08:26:56Z</time>
      </trkpt>
      <trkpt lat="40.729621080681682" lon="13.894805442541838">
        <ele>747.55999999999995</ele>
        <time>2018-09-26T08:27:05Z</time>
      </trkpt>
      <trkpt lat="40.729625355452299" lon="13.894803933799267">
        <ele>747.08000000000004</ele>
        <time>2018-09-26T08:27:06Z</time>
      </trkpt>
      <trkpt lat="40.729672377929091" lon="13.894840814173222">
        <ele>748.51999999999998</ele>
        <time>2018-09-26T08:27:15Z</time>
      </trkpt>
      <trkpt lat="40.729680508375168" lon="13.894879790022969">
        <ele>749</ele>
        <time>2018-09-26T08:27:24Z</time>
      </trkpt>
      <trkpt lat="40.72971629910171" lon="13.894888423383236">
        <ele>750.45000000000005</ele>
        <time>2018-09-26T08:27:36Z</time>
      </trkpt>
      <trkpt lat="40.729756699874997" lon="13.894934942945838">
        <ele>751.40999999999997</ele>
        <time>2018-09-26T08:27:49Z</time>
      </trkpt>
      <trkpt lat="40.729764327406883" lon="13.894953383132815">
        <ele>752.85000000000002</ele>
        <time>2018-09-26T08:27:57Z</time>
      </trkpt>
      <trkpt lat="40.729780672118068" lon="13.894991856068373">
        <ele>750.45000000000005</ele>
        <time>2018-09-26T08:28:13Z</time>
      </trkpt>
      <trkpt lat="40.729783102869987" lon="13.895010044798255">
        <ele>751.88999999999999</ele>
        <time>2018-09-26T08:28:27Z</time>
      </trkpt>
      <trkpt lat="40.729784527793527" lon="13.89499269425869">
        <ele>751.40999999999997</ele>
        <time>2018-09-26T08:28:38Z</time>
      </trkpt>
      <trkpt lat="40.729742031544447" lon="13.894958831369877">
        <ele>752.37</ele>
        <time>2018-09-26T08:28:55Z</time>
      </trkpt>
      <trkpt lat="40.729756029322743" lon="13.894984647631645">
        <ele>752.85000000000002</ele>
        <time>2018-09-26T08:29:10Z</time>
      </trkpt>
      <trkpt lat="40.729792406782508" lon="13.894999315962195">
        <ele>753.33000000000004</ele>
        <time>2018-09-26T08:29:24Z</time>
      </trkpt>
      <trkpt lat="40.729810511693358" lon="13.895034184679389">
        <ele>752.37</ele>
        <time>2018-09-26T08:29:34Z</time>
      </trkpt>
      <trkpt lat="40.72985116392374" lon="13.895097132772207">
        <ele>755.73000000000002</ele>
        <time>2018-09-26T08:29:46Z</time>
      </trkpt>
      <trkpt lat="40.72988829575479" lon="13.89515639282763">
        <ele>756.69000000000005</ele>
        <time>2018-09-26T08:29:56Z</time>
      </trkpt>
      <trkpt lat="40.72991956025362" lon="13.895241469144821">
        <ele>759.10000000000002</ele>
        <time>2018-09-26T08:30:05Z</time>
      </trkpt>
      <trkpt lat="40.729948561638594" lon="13.8952477555722">
        <ele>759.10000000000002</ele>
        <time>2018-09-26T08:30:17Z</time>
      </trkpt>
      <trkpt lat="40.729959290474653" lon="13.895182544365525">
        <ele>760.53999999999996</ele>
        <time>2018-09-26T08:30:27Z</time>
      </trkpt>
      <trkpt lat="40.729940347373486" lon="13.895132085308433">
        <ele>762.46000000000004</ele>
        <time>2018-09-26T08:30:35Z</time>
      </trkpt>
      <trkpt lat="40.729927523061633" lon="13.895049439743161">
        <ele>762.94000000000005</ele>
        <time>2018-09-26T08:30:48Z</time>
      </trkpt>
      <trkpt lat="40.729898354038596" lon="13.894944749772549">
        <ele>763.41999999999996</ele>
        <time>2018-09-26T08:31:00Z</time>
      </trkpt>
      <trkpt lat="40.729914447292686" lon="13.894889764487743">
        <ele>762.46000000000004</ele>
        <time>2018-09-26T08:31:14Z</time>
      </trkpt>
      <trkpt lat="40.729938419535756" lon="13.894836707040668">
        <ele>765.83000000000004</ele>
        <time>2018-09-26T08:31:23Z</time>
      </trkpt>
      <trkpt lat="40.729957614094019" lon="13.894818350672722">
        <ele>766.30999999999995</ele>
        <time>2018-09-26T08:31:33Z</time>
      </trkpt>
      <trkpt lat="40.729974796995521" lon="13.894734112545848">
        <ele>766.30999999999995</ele>
        <time>2018-09-26T08:31:42Z</time>
      </trkpt>
      <trkpt lat="40.729980999603868" lon="13.894709218293428">
        <ele>766.78999999999996</ele>
        <time>2018-09-26T08:31:44Z</time>
      </trkpt>
      <trkpt lat="40.729990806430578" lon="13.894659597426653">
        <ele>765.83000000000004</ele>
        <time>2018-09-26T08:31:55Z</time>
      </trkpt>
      <trkpt lat="40.730014443397522" lon="13.894653562456369">
        <ele>768.23000000000002</ele>
        <time>2018-09-26T08:32:08Z</time>
      </trkpt>
      <trkpt lat="40.730015700682998" lon="13.894653730094433">
        <ele>771.11000000000001</ele>
        <time>2018-09-26T08:32:12Z</time>
      </trkpt>
      <trkpt lat="40.729975802823901" lon="13.89461500570178">
        <ele>771.60000000000002</ele>
        <time>2018-09-26T08:32:30Z</time>
      </trkpt>
      <trkpt lat="40.729989046230912" lon="13.894532779231668">
        <ele>769.66999999999996</ele>
        <time>2018-09-26T08:32:41Z</time>
      </trkpt>
      <trkpt lat="40.729978820309043" lon="13.894592626020312">
        <ele>769.19000000000005</ele>
        <time>2018-09-26T08:32:51Z</time>
      </trkpt>
      <trkpt lat="40.729976305738091" lon="13.894598828628659">
        <ele>770.14999999999998</ele>
        <time>2018-09-26T08:32:53Z</time>
      </trkpt>
      <trkpt lat="40.729984017089009" lon="13.894591787829995">
        <ele>771.11000000000001</ele>
        <time>2018-09-26T08:32:58Z</time>
      </trkpt>
      <trkpt lat="40.730003798380494" lon="13.894588015973568">
        <ele>767.75</ele>
        <time>2018-09-26T08:33:02Z</time>
      </trkpt>
      <trkpt lat="40.730004888027906" lon="13.894601343199611">
        <ele>769.19000000000005</ele>
        <time>2018-09-26T08:33:06Z</time>
      </trkpt>
      <trkpt lat="40.729992063716054" lon="13.89460913836956">
        <ele>768.23000000000002</ele>
        <time>2018-09-26T08:33:18Z</time>
      </trkpt>
      <trkpt lat="40.729997679591179" lon="13.894651383161545">
        <ele>768.71000000000004</ele>
        <time>2018-09-26T08:33:27Z</time>
      </trkpt>
      <trkpt lat="40.730005139485002" lon="13.894681055098772">
        <ele>766.30999999999995</ele>
        <time>2018-09-26T08:33:40Z</time>
      </trkpt>
      <trkpt lat="40.730014694854617" lon="13.894772250205278">
        <ele>765.35000000000002</ele>
        <time>2018-09-26T08:33:52Z</time>
      </trkpt>
      <trkpt lat="40.729984939098358" lon="13.894786583259702">
        <ele>767.26999999999998</ele>
        <time>2018-09-26T08:34:02Z</time>
      </trkpt>
      <trkpt lat="40.72998502291739" lon="13.894775183871388">
        <ele>765.83000000000004</ele>
        <time>2018-09-26T08:34:17Z</time>
      </trkpt>
      <trkpt lat="40.729984436184168" lon="13.894742242991924">
        <ele>768.23000000000002</ele>
        <time>2018-09-26T08:34:35Z</time>
      </trkpt>
      <trkpt lat="40.729978485032916" lon="13.894728664308786">
        <ele>766.30999999999995</ele>
        <time>2018-09-26T08:34:51Z</time>
      </trkpt>
      <trkpt lat="40.72999089024961" lon="13.894722461700439">
        <ele>767.26999999999998</ele>
        <time>2018-09-26T08:35:04Z</time>
      </trkpt>
      <trkpt lat="40.729990219697356" lon="13.894728245213628">
        <ele>764.87</ele>
        <time>2018-09-26T08:35:06Z</time>
      </trkpt>
      <trkpt lat="40.729985190555453" lon="13.894735956564546">
        <ele>768.23000000000002</ele>
        <time>2018-09-26T08:35:10Z</time>
      </trkpt>
      <trkpt lat="40.729974629357457" lon="13.894739644601941">
        <ele>770.63</ele>
        <time>2018-09-26T08:35:29Z</time>
      </trkpt>
      <trkpt lat="40.729956440627575" lon="13.894705614075065">
        <ele>768.71000000000004</ele>
        <time>2018-09-26T08:35:54Z</time>
      </trkpt>
      <trkpt lat="40.729980496689677" lon="13.894720282405615">
        <ele>767.26999999999998</ele>
        <time>2018-09-26T08:36:16Z</time>
      </trkpt>
      <trkpt lat="40.730020143091679" lon="13.894821451976895">
        <ele>768.71000000000004</ele>
        <time>2018-09-26T08:36:26Z</time>
      </trkpt>
      <trkpt lat="40.730067752301693" lon="13.894897308200598">
        <ele>770.14999999999998</ele>
        <time>2018-09-26T08:36:38Z</time>
      </trkpt>
      <trkpt lat="40.73008275590837" lon="13.894918514415622">
        <ele>772.55999999999995</ele>
        <time>2018-09-26T08:36:41Z</time>
      </trkpt>
      <trkpt lat="40.730134220793843" lon="13.894998645409942">
        <ele>773.03999999999996</ele>
        <time>2018-09-26T08:36:52Z</time>
      </trkpt>
      <trkpt lat="40.730179734528065" lon="13.894988168030977">
        <ele>776.39999999999998</ele>
        <time>2018-09-26T08:37:02Z</time>
      </trkpt>
      <trkpt lat="40.730154672637582" lon="13.894931506365538">
        <ele>775.44000000000005</ele>
        <time>2018-09-26T08:37:12Z</time>
      </trkpt>
      <trkpt lat="40.730122737586498" lon="13.89484466984868">
        <ele>778.80999999999995</ele>
        <time>2018-09-26T08:37:23Z</time>
      </trkpt>
      <trkpt lat="40.730106560513377" lon="13.89479580335319">
        <ele>780.25</ele>
        <time>2018-09-26T08:37:31Z</time>
      </trkpt>
      <trkpt lat="40.730093065649271" lon="13.894761186093092">
        <ele>781.21000000000004</ele>
        <time>2018-09-26T08:37:38Z</time>
      </trkpt>
      <trkpt lat="40.730130532756448" lon="13.894700584933162">
        <ele>782.16999999999996</ele>
        <time>2018-09-26T08:37:47Z</time>
      </trkpt>
      <trkpt lat="40.730148050934076" lon="13.894701842218637">
        <ele>782.64999999999998</ele>
        <time>2018-09-26T08:37:57Z</time>
      </trkpt>
      <trkpt lat="40.730143692344427" lon="13.894696729257703">
        <ele>786.5</ele>
        <time>2018-09-26T08:38:00Z</time>
      </trkpt>
      <trkpt lat="40.730120223015547" lon="13.89467703178525">
        <ele>783.13</ele>
        <time>2018-09-26T08:38:05Z</time>
      </trkpt>
      <trkpt lat="40.730108320713043" lon="13.894624561071396">
        <ele>781.69000000000005</ele>
        <time>2018-09-26T08:38:10Z</time>
      </trkpt>
      <trkpt lat="40.730101615190506" lon="13.894600421190262">
        <ele>780.25</ele>
        <time>2018-09-26T08:38:13Z</time>
      </trkpt>
      <trkpt lat="40.730098010972142" lon="13.894579717889428">
        <ele>784.57000000000005</ele>
        <time>2018-09-26T08:38:17Z</time>
      </trkpt>
      <trkpt lat="40.73011351749301" lon="13.894562367349863">
        <ele>785.04999999999995</ele>
        <time>2018-09-26T08:38:22Z</time>
      </trkpt>
      <trkpt lat="40.73011351749301" lon="13.894569911062717">
        <ele>784.09000000000003</ele>
        <time>2018-09-26T08:38:24Z</time>
      </trkpt>
      <trkpt lat="40.730125503614545" lon="13.89457494020462">
        <ele>786.5</ele>
        <time>2018-09-26T08:38:28Z</time>
      </trkpt>
      <trkpt lat="40.730110080912709" lon="13.894586507230997">
        <ele>783.13</ele>
        <time>2018-09-26T08:38:42Z</time>
      </trkpt>
      <trkpt lat="40.730121061205864" lon="13.894543424248695">
        <ele>786.5</ele>
        <time>2018-09-26T08:38:49Z</time>
      </trkpt>
      <trkpt lat="40.730134304612875" lon="13.894532108679414">
        <ele>790.34000000000003</ele>
        <time>2018-09-26T08:38:51Z</time>
      </trkpt>
      <trkpt lat="40.730142015963793" lon="13.89452557079494">
        <ele>790.34000000000003</ele>
        <time>2018-09-26T08:38:52Z</time>
      </trkpt>
      <trkpt lat="40.730193732306361" lon="13.894484164193273">
        <ele>789.86000000000001</ele>
        <time>2018-09-26T08:39:02Z</time>
      </trkpt>
      <trkpt lat="40.730195492506027" lon="13.894494054839015">
        <ele>793.22000000000003</ele>
        <time>2018-09-26T08:39:09Z</time>
      </trkpt>
      <trkpt lat="40.730195241048932" lon="13.894495060667396">
        <ele>789.38</ele>
        <time>2018-09-26T08:39:10Z</time>
      </trkpt>
      <trkpt lat="40.730194486677647" lon="13.894496066495776">
        <ele>789.38</ele>
        <time>2018-09-26T08:39:11Z</time>
      </trkpt>
      <trkpt lat="40.730198174715042" lon="13.894532695412636">
        <ele>785.04999999999995</ele>
        <time>2018-09-26T08:39:20Z</time>
      </trkpt>
      <trkpt lat="40.730175292119384" lon="13.894531354308128">
        <ele>788.41999999999996</ele>
        <time>2018-09-26T08:39:22Z</time>
      </trkpt>
      <trkpt lat="40.730178141966462" lon="13.894495647400618">
        <ele>785.04999999999995</ele>
        <time>2018-09-26T08:39:28Z</time>
      </trkpt>
      <trkpt lat="40.730169508606195" lon="13.894482152536511">
        <ele>787.94000000000005</ele>
        <time>2018-09-26T08:39:32Z</time>
      </trkpt>
      <trkpt lat="40.730172945186496" lon="13.894484918564558">
        <ele>792.74000000000001</ele>
        <time>2018-09-26T08:39:37Z</time>
      </trkpt>
      <trkpt lat="40.730170598253608" lon="13.894484499469399">
        <ele>788.41999999999996</ele>
        <time>2018-09-26T08:39:38Z</time>
      </trkpt>
      <trkpt lat="40.730170849710703" lon="13.894484750926495">
        <ele>791.29999999999995</ele>
        <time>2018-09-26T08:39:40Z</time>
      </trkpt>
      <trkpt lat="40.730175208300352" lon="13.894497407600284">
        <ele>787.94000000000005</ele>
        <time>2018-09-26T08:39:43Z</time>
      </trkpt>
      <trkpt lat="40.730186188593507" lon="13.894516937434673">
        <ele>784.57000000000005</ele>
        <time>2018-09-26T08:39:51Z</time>
      </trkpt>
      <trkpt lat="40.730179315432906" lon="13.89453336596489">
        <ele>787.94000000000005</ele>
        <time>2018-09-26T08:39:53Z</time>
      </trkpt>
      <trkpt lat="40.730167748406529" lon="13.894548201933503">
        <ele>788.89999999999998</ele>
        <time>2018-09-26T08:39:55Z</time>
      </trkpt>
      <trkpt lat="40.73014629073441" lon="13.894572174176574">
        <ele>787.46000000000004</ele>
        <time>2018-09-26T08:39:58Z</time>
      </trkpt>
      <trkpt lat="40.730133801698685" lon="13.894557170569897">
        <ele>785.52999999999997</ele>
        <time>2018-09-26T08:40:07Z</time>
      </trkpt>
      <trkpt lat="40.730131203308702" lon="13.894551387056708">
        <ele>783.13</ele>
        <time>2018-09-26T08:40:18Z</time>
      </trkpt>
      <trkpt lat="40.730110500007868" lon="13.894571084529161">
        <ele>782.64999999999998</ele>
        <time>2018-09-26T08:40:31Z</time>
      </trkpt>
      <trkpt lat="40.730117624625564" lon="13.894565468654037">
        <ele>781.69000000000005</ele>
        <time>2018-09-26T08:40:46Z</time>
      </trkpt>
      <trkpt lat="40.730115110054612" lon="13.894566223025322">
        <ele>786.01999999999998</ele>
        <time>2018-09-26T08:40:51Z</time>
      </trkpt>
      <trkpt lat="40.730110248550773" lon="13.894567228853703">
        <ele>789.86000000000001</ele>
        <time>2018-09-26T08:40:53Z</time>
      </trkpt>
      <trkpt lat="40.730108739808202" lon="13.894568150863051">
        <ele>788.89999999999998</ele>
        <time>2018-09-26T08:40:54Z</time>
      </trkpt>
      <trkpt lat="40.730107314884663" lon="13.894573347643018">
        <ele>784.57000000000005</ele>
        <time>2018-09-26T08:40:56Z</time>
      </trkpt>
      <trkpt lat="40.7301105838269" lon="13.894574604928493">
        <ele>789.38</ele>
        <time>2018-09-26T08:40:59Z</time>
      </trkpt>
      <trkpt lat="40.730113182216883" lon="13.894571587443352">
        <ele>785.04999999999995</ele>
        <time>2018-09-26T08:41:04Z</time>
      </trkpt>
      <trkpt lat="40.730112260207534" lon="13.894570749253035">
        <ele>786.01999999999998</ele>
        <time>2018-09-26T08:41:05Z</time>
      </trkpt>
      <trkpt lat="40.730111170560122" lon="13.894567145034671">
        <ele>787.94000000000005</ele>
        <time>2018-09-26T08:41:07Z</time>
      </trkpt>
      <trkpt lat="40.730114355683327" lon="13.894568821415305">
        <ele>788.89999999999998</ele>
        <time>2018-09-26T08:41:11Z</time>
      </trkpt>
      <trkpt lat="40.730110164731741" lon="13.894561445340514">
        <ele>786.01999999999998</ele>
        <time>2018-09-26T08:41:18Z</time>
      </trkpt>
      <trkpt lat="40.730109075084329" lon="13.894560020416975">
        <ele>786.01999999999998</ele>
        <time>2018-09-26T08:41:19Z</time>
      </trkpt>
      <trkpt lat="40.7301140204072" lon="13.894554991275072">
        <ele>784.09000000000003</ele>
        <time>2018-09-26T08:41:22Z</time>
      </trkpt>
      <trkpt lat="40.730108823627234" lon="13.894567564129829">
        <ele>783.13</ele>
        <time>2018-09-26T08:41:29Z</time>
      </trkpt>
      <trkpt lat="40.730104297399521" lon="13.894573515281081">
        <ele>782.64999999999998</ele>
        <time>2018-09-26T08:41:44Z</time>
      </trkpt>
      <trkpt lat="40.730099687352777" lon="13.894551219418645">
        <ele>786.98000000000002</ele>
        <time>2018-09-26T08:41:51Z</time>
      </trkpt>
      <trkpt lat="40.730099603533745" lon="13.894553566351533">
        <ele>793.71000000000004</ele>
        <time>2018-09-26T08:41:54Z</time>
      </trkpt>
      <trkpt lat="40.730098932981491" lon="13.89455683529377">
        <ele>792.25999999999999</ele>
        <time>2018-09-26T08:41:55Z</time>
      </trkpt>
      <trkpt lat="40.730094993487" lon="13.894558595493436">
        <ele>791.29999999999995</ele>
        <time>2018-09-26T08:41:57Z</time>
      </trkpt>
      <trkpt lat="40.730092562735081" lon="13.894557422026992">
        <ele>787.94000000000005</ele>
        <time>2018-09-26T08:41:59Z</time>
      </trkpt>
      <trkpt lat="40.730091808363795" lon="13.894561864435673">
        <ele>792.25999999999999</ele>
        <time>2018-09-26T08:42:01Z</time>
      </trkpt>
      <trkpt lat="40.730091221630573" lon="13.894559852778912">
        <ele>791.29999999999995</ele>
        <time>2018-09-26T08:42:02Z</time>
      </trkpt>
      <trkpt lat="40.730090048164129" lon="13.894559852778912">
        <ele>786.98000000000002</ele>
        <time>2018-09-26T08:42:04Z</time>
      </trkpt>
      <trkpt lat="40.730091976001859" lon="13.894556667655706">
        <ele>791.29999999999995</ele>
        <time>2018-09-26T08:42:09Z</time>
      </trkpt>
      <trkpt lat="40.730093065649271" lon="13.89455633237958">
        <ele>792.74000000000001</ele>
        <time>2018-09-26T08:42:12Z</time>
      </trkpt>
      <trkpt lat="40.730090634897351" lon="13.894558511674404">
        <ele>789.38</ele>
        <time>2018-09-26T08:42:15Z</time>
      </trkpt>
      <trkpt lat="40.730082588270307" lon="13.894550632685423">
        <ele>785.52999999999997</ele>
        <time>2018-09-26T08:42:20Z</time>
      </trkpt>
      <trkpt lat="40.730084851384163" lon="13.894550465047359">
        <ele>785.52999999999997</ele>
        <time>2018-09-26T08:42:21Z</time>
      </trkpt>
      <trkpt lat="40.730086443945765" lon="13.894550465047359">
        <ele>784.09000000000003</ele>
        <time>2018-09-26T08:42:23Z</time>
      </trkpt>
      <trkpt lat="40.730084348469973" lon="13.894556248560548">
        <ele>787.46000000000004</ele>
        <time>2018-09-26T08:42:27Z</time>
      </trkpt>
      <trkpt lat="40.730081330984831" lon="13.894555242732167">
        <ele>786.01999999999998</ele>
        <time>2018-09-26T08:42:28Z</time>
      </trkpt>
      <trkpt lat="40.730073871091008" lon="13.894566306844354">
        <ele>780.25</ele>
        <time>2018-09-26T08:42:32Z</time>
      </trkpt>
      <trkpt lat="40.730091724544764" lon="13.894579717889428">
        <ele>784.09000000000003</ele>
        <time>2018-09-26T08:42:33Z</time>
      </trkpt>
      <trkpt lat="40.730107650160789" lon="13.894583489745855">
        <ele>785.04999999999995</ele>
        <time>2018-09-26T08:42:35Z</time>
      </trkpt>
      <trkpt lat="40.730120642110705" lon="13.894575107842684">
        <ele>786.98000000000002</ele>
        <time>2018-09-26T08:42:39Z</time>
      </trkpt>
      <trkpt lat="40.730130365118384" lon="13.894568821415305">
        <ele>788.41999999999996</ele>
        <time>2018-09-26T08:42:41Z</time>
      </trkpt>
      <trkpt lat="40.730131454765797" lon="13.894557170569897">
        <ele>783.61000000000001</ele>
        <time>2018-09-26T08:42:45Z</time>
      </trkpt>
      <trkpt lat="40.730125503614545" lon="13.894549626857042">
        <ele>786.98000000000002</ele>
        <time>2018-09-26T08:42:49Z</time>
      </trkpt>
      <trkpt lat="40.730107398703694" lon="13.894543005153537">
        <ele>787.94000000000005</ele>
        <time>2018-09-26T08:43:00Z</time>
      </trkpt>
      <trkpt lat="40.730103878304362" lon="13.894541328772902">
        <ele>786.01999999999998</ele>
        <time>2018-09-26T08:43:04Z</time>
      </trkpt>
      <trkpt lat="40.730108739808202" lon="13.894551554694772">
        <ele>787.94000000000005</ele>
        <time>2018-09-26T08:43:09Z</time>
      </trkpt>
      <trkpt lat="40.730112260207534" lon="13.894559014588594">
        <ele>789.86000000000001</ele>
        <time>2018-09-26T08:43:23Z</time>
      </trkpt>
      <trkpt lat="40.730106728151441" lon="13.894549123942852">
        <ele>789.38</ele>
        <time>2018-09-26T08:43:31Z</time>
      </trkpt>
      <trkpt lat="40.730102704837918" lon="13.894539065659046">
        <ele>787.46000000000004</ele>
        <time>2018-09-26T08:43:51Z</time>
      </trkpt>
      <trkpt lat="40.730101028457284" lon="13.894537221640348">
        <ele>786.98000000000002</ele>
        <time>2018-09-26T08:43:56Z</time>
      </trkpt>
      <trkpt lat="40.730095915496349" lon="13.894534120336175">
        <ele>788.41999999999996</ele>
        <time>2018-09-26T08:43:59Z</time>
      </trkpt>
      <trkpt lat="40.730083929374814" lon="13.894569324329495">
        <ele>784.09000000000003</ele>
        <time>2018-09-26T08:44:04Z</time>
      </trkpt>
      <trkpt lat="40.73007739149034" lon="13.894568318501115">
        <ele>784.09000000000003</ele>
        <time>2018-09-26T08:44:05Z</time>
      </trkpt>
      <trkpt lat="40.730110080912709" lon="13.894576113671064">
        <ele>784.57000000000005</ele>
        <time>2018-09-26T08:44:18Z</time>
      </trkpt>
      <trkpt lat="40.730120223015547" lon="13.894631937146187">
        <ele>783.13</ele>
        <time>2018-09-26T08:44:24Z</time>
      </trkpt>
      <trkpt lat="40.73012282140553" lon="13.894656496122479">
        <ele>781.21000000000004</ele>
        <time>2018-09-26T08:44:26Z</time>
      </trkpt>
      <trkpt lat="40.730126174166799" lon="13.894713241606951">
        <ele>780.25</ele>
        <time>2018-09-26T08:44:30Z</time>
      </trkpt>
      <trkpt lat="40.730131538584828" lon="13.894752888008952">
        <ele>779.76999999999998</ele>
        <time>2018-09-26T08:44:40Z</time>
      </trkpt>
      <trkpt lat="40.730115529149771" lon="13.894731011241674">
        <ele>781.21000000000004</ele>
        <time>2018-09-26T08:44:48Z</time>
      </trkpt>
      <trkpt lat="40.730109075084329" lon="13.894735286012292">
        <ele>783.61000000000001</ele>
        <time>2018-09-26T08:45:01Z</time>
      </trkpt>
      <trkpt lat="40.730117624625564" lon="13.894736543297768">
        <ele>780.25</ele>
        <time>2018-09-26T08:45:06Z</time>
      </trkpt>
      <trkpt lat="40.730126509442925" lon="13.894739393144846">
        <ele>783.61000000000001</ele>
        <time>2018-09-26T08:45:14Z</time>
      </trkpt>
      <trkpt lat="40.73012625798583" lon="13.894741740077734">
        <ele>785.04999999999995</ele>
        <time>2018-09-26T08:45:16Z</time>
      </trkpt>
      <trkpt lat="40.730103878304362" lon="13.89473419636488">
        <ele>786.5</ele>
        <time>2018-09-26T08:45:32Z</time>
      </trkpt>
      <trkpt lat="40.730105387046933" lon="13.894744087010622">
        <ele>786.98000000000002</ele>
        <time>2018-09-26T08:45:36Z</time>
      </trkpt>
      <trkpt lat="40.730124497786164" lon="13.894802089780569">
        <ele>785.04999999999995</ele>
        <time>2018-09-26T08:45:48Z</time>
      </trkpt>
      <trkpt lat="40.730135478079319" lon="13.894801922142506">
        <ele>784.09000000000003</ele>
        <time>2018-09-26T08:46:01Z</time>
      </trkpt>
      <trkpt lat="40.730140004307032" lon="13.894836204126477">
        <ele>781.21000000000004</ele>
        <time>2018-09-26T08:46:08Z</time>
      </trkpt>
      <trkpt lat="40.730146709829569" lon="13.89485782943666">
        <ele>780.73000000000002</ele>
        <time>2018-09-26T08:46:18Z</time>
      </trkpt>
      <trkpt lat="40.730156432837248" lon="13.894894625991583">
        <ele>777.36000000000001</ele>
        <time>2018-09-26T08:46:22Z</time>
      </trkpt>
      <trkpt lat="40.730171268805861" lon="13.894978864118457">
        <ele>776.39999999999998</ele>
        <time>2018-09-26T08:46:31Z</time>
      </trkpt>
      <trkpt lat="40.730178477242589" lon="13.894994873553514">
        <ele>774.96000000000004</ele>
        <time>2018-09-26T08:46:33Z</time>
      </trkpt>
      <trkpt lat="40.730165485292673" lon="13.895038794726133">
        <ele>774</ele>
        <time>2018-09-26T08:46:43Z</time>
      </trkpt>
      <trkpt lat="40.730153080075979" lon="13.895089253783226">
        <ele>774.48000000000002</ele>
        <time>2018-09-26T08:46:53Z</time>
      </trkpt>
      <trkpt lat="40.730182249099016" lon="13.895101323723793">
        <ele>777.36000000000001</ele>
        <time>2018-09-26T08:47:05Z</time>
      </trkpt>
      <trkpt lat="40.73030898347497" lon="13.895087912678719">
        <ele>776.39999999999998</ele>
        <time>2018-09-26T08:47:26Z</time>
      </trkpt>
      <trkpt lat="40.730223068967462" lon="13.895123451948166">
        <ele>774.96000000000004</ele>
        <time>2018-09-26T08:51:33Z</time>
      </trkpt>
      <trkpt lat="40.730258943513036" lon="13.894957406446338">
        <ele>774.48000000000002</ele>
        <time>2018-09-26T08:51:48Z</time>
      </trkpt>
      <trkpt lat="40.730296578258276" lon="13.894898230209947">
        <ele>776.88</ele>
        <time>2018-09-26T08:52:04Z</time>
      </trkpt>
      <trkpt lat="40.730245867744088" lon="13.894926141947508">
        <ele>774.96000000000004</ele>
        <time>2018-09-26T08:52:20Z</time>
      </trkpt>
      <trkpt lat="40.730211921036243" lon="13.894915664568543">
        <ele>772.08000000000004</ele>
        <time>2018-09-26T08:52:34Z</time>
      </trkpt>
      <trkpt lat="40.730189206078649" lon="13.894882891327143">
        <ele>775.44000000000005</ele>
        <time>2018-09-26T08:52:44Z</time>
      </trkpt>
      <trkpt lat="40.730238826945424" lon="13.894806113094091">
        <ele>773.51999999999998</ele>
        <time>2018-09-26T08:53:00Z</time>
      </trkpt>
      <trkpt lat="40.730316108092666" lon="13.895064443349838">
        <ele>774</ele>
        <time>2018-09-26T08:53:13Z</time>
      </trkpt>
      <trkpt lat="40.730357598513365" lon="13.895080201327801">
        <ele>776.88</ele>
        <time>2018-09-26T08:53:17Z</time>
      </trkpt>
      <trkpt lat="40.730434712022543" lon="13.895225543528795">
        <ele>779.28999999999996</ele>
        <time>2018-09-26T08:53:27Z</time>
      </trkpt>
      <trkpt lat="40.730436723679304" lon="13.895239541307092">
        <ele>778.80999999999995</ele>
        <time>2018-09-26T08:53:28Z</time>
      </trkpt>
      <trkpt lat="40.730447117239237" lon="13.895289916545153">
        <ele>779.76999999999998</ele>
        <time>2018-09-26T08:53:32Z</time>
      </trkpt>
      <trkpt lat="40.730456672608852" lon="13.895327467471361">
        <ele>781.21000000000004</ele>
        <time>2018-09-26T08:53:36Z</time>
      </trkpt>
      <trkpt lat="40.730496570467949" lon="13.895381614565849">
        <ele>781.21000000000004</ele>
        <time>2018-09-26T08:53:43Z</time>
      </trkpt>
      <trkpt lat="40.730515262112021" lon="13.895402569323778">
        <ele>782.16999999999996</ele>
        <time>2018-09-26T08:53:45Z</time>
      </trkpt>
      <trkpt lat="40.730564463883638" lon="13.895389996469021">
        <ele>782.64999999999998</ele>
        <time>2018-09-26T08:53:52Z</time>
      </trkpt>
      <trkpt lat="40.730585167184472" lon="13.895374573767185">
        <ele>778.32000000000005</ele>
        <time>2018-09-26T08:53:55Z</time>
      </trkpt>
      <trkpt lat="40.730600422248244" lon="13.895372562110424">
        <ele>780.73000000000002</ele>
        <time>2018-09-26T08:53:57Z</time>
      </trkpt>
      <trkpt lat="40.730654988437891" lon="13.895401060581207">
        <ele>782.16999999999996</ele>
        <time>2018-09-26T08:54:08Z</time>
      </trkpt>
      <trkpt lat="40.730662364512682" lon="13.895398043096066">
        <ele>779.76999999999998</ele>
        <time>2018-09-26T08:54:09Z</time>
      </trkpt>
      <trkpt lat="40.730733275413513" lon="13.895318247377872">
        <ele>778.32000000000005</ele>
        <time>2018-09-26T08:54:19Z</time>
      </trkpt>
      <trkpt lat="40.730738723650575" lon="13.895293772220612">
        <ele>781.69000000000005</ele>
        <time>2018-09-26T08:54:29Z</time>
      </trkpt>
      <trkpt lat="40.730733945965767" lon="13.895293269306421">
        <ele>779.76999999999998</ele>
        <time>2018-09-26T08:54:33Z</time>
      </trkpt>
      <trkpt lat="40.730729922652245" lon="13.895289413630962">
        <ele>783.61000000000001</ele>
        <time>2018-09-26T08:54:36Z</time>
      </trkpt>
      <trkpt lat="40.7307253126055" lon="13.895289497449994">
        <ele>780.25</ele>
        <time>2018-09-26T08:54:37Z</time>
      </trkpt>
      <trkpt lat="40.730719109997153" lon="13.895294275134802">
        <ele>780.73000000000002</ele>
        <time>2018-09-26T08:54:38Z</time>
      </trkpt>
      <trkpt lat="40.730713913217187" lon="13.895294945687056">
        <ele>776.88</ele>
        <time>2018-09-26T08:54:40Z</time>
      </trkpt>
      <trkpt lat="40.730721959844232" lon="13.895296454429626">
        <ele>777.36000000000001</ele>
        <time>2018-09-26T08:54:41Z</time>
      </trkpt>
      <trkpt lat="40.730743166059256" lon="13.89528539031744">
        <ele>778.32000000000005</ele>
        <time>2018-09-26T08:54:51Z</time>
      </trkpt>
      <trkpt lat="40.730741489678621" lon="13.895285977050662">
        <ele>779.76999999999998</ele>
        <time>2018-09-26T08:54:58Z</time>
      </trkpt>
      <trkpt lat="40.730720786377788" lon="13.895283462479711">
        <ele>780.25</ele>
        <time>2018-09-26T08:55:04Z</time>
      </trkpt>
      <trkpt lat="40.730736209079623" lon="13.89531422406435">
        <ele>776.88</ele>
        <time>2018-09-26T08:55:06Z</time>
      </trkpt>
      <trkpt lat="40.730743752792478" lon="13.895324869081378">
        <ele>779.28999999999996</ele>
        <time>2018-09-26T08:55:16Z</time>
      </trkpt>
      <trkpt lat="40.730734197422862" lon="13.895329898223281">
        <ele>778.80999999999995</ele>
        <time>2018-09-26T08:55:23Z</time>
      </trkpt>
      <trkpt lat="40.730720032006502" lon="13.895367868244648">
        <ele>777.36000000000001</ele>
        <time>2018-09-26T08:55:30Z</time>
      </trkpt>
      <trkpt lat="40.730731766670942" lon="13.895357139408588">
        <ele>779.76999999999998</ele>
        <time>2018-09-26T08:55:33Z</time>
      </trkpt>
      <trkpt lat="40.730751380324364" lon="13.895346242934465">
        <ele>783.61000000000001</ele>
        <time>2018-09-26T08:55:39Z</time>
      </trkpt>
      <trkpt lat="40.730756660923362" lon="13.895347332581878">
        <ele>779.76999999999998</ele>
        <time>2018-09-26T08:55:41Z</time>
      </trkpt>
      <trkpt lat="40.730758337303996" lon="13.895347500219941">
        <ele>779.76999999999998</ele>
        <time>2018-09-26T08:55:42Z</time>
      </trkpt>
      <trkpt lat="40.730768227949739" lon="13.895349344238639">
        <ele>783.61000000000001</ele>
        <time>2018-09-26T08:55:47Z</time>
      </trkpt>
      <trkpt lat="40.730750542134047" lon="13.895367868244648">
        <ele>779.28999999999996</ele>
        <time>2018-09-26T08:55:51Z</time>
      </trkpt>
      <trkpt lat="40.730692958459258" lon="13.895369963720441">
        <ele>778.32000000000005</ele>
        <time>2018-09-26T08:55:58Z</time>
      </trkpt>
      <trkpt lat="40.730664879083633" lon="13.895404748618603">
        <ele>779.28999999999996</ele>
        <time>2018-09-26T08:56:04Z</time>
      </trkpt>
      <trkpt lat="40.730678206309676" lon="13.895392091944814">
        <ele>778.80999999999995</ele>
        <time>2018-09-26T08:56:09Z</time>
      </trkpt>
      <trkpt lat="40.730637051165104" lon="13.895408604294062">
        <ele>781.21000000000004</ele>
        <time>2018-09-26T08:56:19Z</time>
      </trkpt>
      <trkpt lat="40.730610564351082" lon="13.895414303988218">
        <ele>780.25</ele>
        <time>2018-09-26T08:56:22Z</time>
      </trkpt>
      <trkpt lat="40.730587597936392" lon="13.895405670627952">
        <ele>777.84000000000003</ele>
        <time>2018-09-26T08:56:24Z</time>
      </trkpt>
      <trkpt lat="40.730570163577795" lon="13.895401647314429">
        <ele>778.32000000000005</ele>
        <time>2018-09-26T08:56:27Z</time>
      </trkpt>
      <trkpt lat="40.730539737269282" lon="13.895420841872692">
        <ele>780.25</ele>
        <time>2018-09-26T08:56:30Z</time>
      </trkpt>
      <trkpt lat="40.730523644015193" lon="13.895431822165847">
        <ele>778.80999999999995</ele>
        <time>2018-09-26T08:56:32Z</time>
      </trkpt>
      <trkpt lat="40.730477375909686" lon="13.895426793023944">
        <ele>780.73000000000002</ele>
        <time>2018-09-26T08:56:37Z</time>
      </trkpt>
      <trkpt lat="40.730420965701342" lon="13.895443137735128">
        <ele>782.16999999999996</ele>
        <time>2018-09-26T08:56:46Z</time>
      </trkpt>
      <trkpt lat="40.730459354817867" lon="13.895401563495398">
        <ele>781.21000000000004</ele>
        <time>2018-09-26T08:56:55Z</time>
      </trkpt>
      <trkpt lat="40.730500761419535" lon="13.895394606515765">
        <ele>780.73000000000002</ele>
        <time>2018-09-26T08:57:05Z</time>
      </trkpt>
      <trkpt lat="40.730463126674294" lon="13.895366527140141">
        <ele>779.76999999999998</ele>
        <time>2018-09-26T08:57:17Z</time>
      </trkpt>
      <trkpt lat="40.730442339554429" lon="13.895335681736469">
        <ele>778.32000000000005</ele>
        <time>2018-09-26T08:57:20Z</time>
      </trkpt>
      <trkpt lat="40.730432281270623" lon="13.895313050597906">
        <ele>778.80999999999995</ele>
        <time>2018-09-26T08:57:22Z</time>
      </trkpt>
      <trkpt lat="40.730411745607853" lon="13.895178521052003">
        <ele>777.84000000000003</ele>
        <time>2018-09-26T08:57:34Z</time>
      </trkpt>
      <trkpt lat="40.730406465008855" lon="13.895166451111436">
        <ele>777.36000000000001</ele>
        <time>2018-09-26T08:57:35Z</time>
      </trkpt>
      <trkpt lat="40.730343433097005" lon="13.895099982619286">
        <ele>776.88</ele>
        <time>2018-09-26T08:57:44Z</time>
      </trkpt>
      <trkpt lat="40.730306133627892" lon="13.895102748647332">
        <ele>774.96000000000004</ele>
        <time>2018-09-26T08:57:55Z</time>
      </trkpt>
      <trkpt lat="40.730207730084658" lon="13.895131414756179">
        <ele>775.91999999999996</ele>
        <time>2018-09-26T08:58:11Z</time>
      </trkpt>
      <trkpt lat="40.730162803083658" lon="13.895150274038315">
        <ele>773.03999999999996</ele>
        <time>2018-09-26T08:58:31Z</time>
      </trkpt>
      <trkpt lat="40.730166742578149" lon="13.895138120278716">
        <ele>775.44000000000005</ele>
        <time>2018-09-26T08:58:44Z</time>
      </trkpt>
      <trkpt lat="40.730162551626563" lon="13.895133761689067">
        <ele>775.91999999999996</ele>
        <time>2018-09-26T08:59:00Z</time>
      </trkpt>
      <trkpt lat="40.730162803083658" lon="13.895131163299084">
        <ele>774.48000000000002</ele>
        <time>2018-09-26T08:59:04Z</time>
      </trkpt>
      <trkpt lat="40.730162216350436" lon="13.895128900185227">
        <ele>775.91999999999996</ele>
        <time>2018-09-26T08:59:11Z</time>
      </trkpt>
      <trkpt lat="40.730115864425898" lon="13.895188914611936">
        <ele>776.88</ele>
        <time>2018-09-26T08:59:21Z</time>
      </trkpt>
      <trkpt lat="40.730096837505698" lon="13.895204337313771">
        <ele>778.80999999999995</ele>
        <time>2018-09-26T08:59:24Z</time>
      </trkpt>
      <trkpt lat="40.730107063427567" lon="13.895201738923788">
        <ele>777.36000000000001</ele>
        <time>2018-09-26T08:59:39Z</time>
      </trkpt>
      <trkpt lat="40.730117373168468" lon="13.89519402757287">
        <ele>775.44000000000005</ele>
        <time>2018-09-26T08:59:58Z</time>
      </trkpt>
      <trkpt lat="40.730105806142092" lon="13.895191848278046">
        <ele>774.96000000000004</ele>
        <time>2018-09-26T09:00:12Z</time>
      </trkpt>
      <trkpt lat="40.730114271864295" lon="13.895183801651001">
        <ele>775.91999999999996</ele>
        <time>2018-09-26T09:00:27Z</time>
      </trkpt>
      <trkpt lat="40.730104800313711" lon="13.895193440839648">
        <ele>775.91999999999996</ele>
        <time>2018-09-26T09:00:36Z</time>
      </trkpt>
      <trkpt lat="40.730100777000189" lon="13.895194698125124">
        <ele>774.96000000000004</ele>
        <time>2018-09-26T09:00:53Z</time>
      </trkpt>
      <trkpt lat="40.730130197480321" lon="13.895162176340818">
        <ele>775.91999999999996</ele>
        <time>2018-09-26T09:01:04Z</time>
      </trkpt>
      <trkpt lat="40.730144111439586" lon="13.895149771124125">
        <ele>775.44000000000005</ele>
        <time>2018-09-26T09:01:17Z</time>
      </trkpt>
      <trkpt lat="40.730141429230571" lon="13.895127391442657">
        <ele>778.80999999999995</ele>
        <time>2018-09-26T09:01:36Z</time>
      </trkpt>
      <trkpt lat="40.730125587433577" lon="13.895143149420619">
        <ele>777.36000000000001</ele>
        <time>2018-09-26T09:01:50Z</time>
      </trkpt>
      <trkpt lat="40.730127599090338" lon="13.895136946812272">
        <ele>775.91999999999996</ele>
        <time>2018-09-26T09:02:05Z</time>
      </trkpt>
      <trkpt lat="40.730128604918718" lon="13.895135354250669">
        <ele>779.28999999999996</ele>
        <time>2018-09-26T09:02:19Z</time>
      </trkpt>
      <trkpt lat="40.730133298784494" lon="13.895153375342488">
        <ele>777.84000000000003</ele>
        <time>2018-09-26T09:02:34Z</time>
      </trkpt>
      <trkpt lat="40.730131454765797" lon="13.895163768902421">
        <ele>774.96000000000004</ele>
        <time>2018-09-26T09:02:42Z</time>
      </trkpt>
      <trkpt lat="40.73013748973608" lon="13.89513879083097">
        <ele>776.88</ele>
        <time>2018-09-26T09:03:01Z</time>
      </trkpt>
      <trkpt lat="40.730137908831239" lon="13.895133007317781">
        <ele>777.36000000000001</ele>
        <time>2018-09-26T09:03:23Z</time>
      </trkpt>
      <trkpt lat="40.730139082297683" lon="13.895145077258348">
        <ele>778.80999999999995</ele>
        <time>2018-09-26T09:03:33Z</time>
      </trkpt>
      <trkpt lat="40.730137741193175" lon="13.895135773345828">
        <ele>778.80999999999995</ele>
        <time>2018-09-26T09:03:40Z</time>
      </trkpt>
      <trkpt lat="40.730139920488" lon="13.895143400877714">
        <ele>779.76999999999998</ele>
        <time>2018-09-26T09:03:59Z</time>
      </trkpt>
      <trkpt lat="40.730137154459953" lon="13.89514273032546">
        <ele>777.84000000000003</ele>
        <time>2018-09-26T09:04:03Z</time>
      </trkpt>
      <trkpt lat="40.730139249935746" lon="13.895146166905761">
        <ele>777.84000000000003</ele>
        <time>2018-09-26T09:04:11Z</time>
      </trkpt>
      <trkpt lat="40.730141680687666" lon="13.89513879083097">
        <ele>774.96000000000004</ele>
        <time>2018-09-26T09:04:16Z</time>
      </trkpt>
      <trkpt lat="40.73014922440052" lon="13.895142395049334">
        <ele>776.88</ele>
        <time>2018-09-26T09:04:32Z</time>
      </trkpt>
      <trkpt lat="40.730153750628233" lon="13.895157733932137">
        <ele>776.39999999999998</ele>
        <time>2018-09-26T09:04:48Z</time>
      </trkpt>
      <trkpt lat="40.730156265199184" lon="13.895163098350167">
        <ele>776.88</ele>
        <time>2018-09-26T09:04:50Z</time>
      </trkpt>
      <trkpt lat="40.730158109217882" lon="13.895163517445326">
        <ele>779.76999999999998</ele>
        <time>2018-09-26T09:05:06Z</time>
      </trkpt>
      <trkpt lat="40.730149056762457" lon="13.895161841064692">
        <ele>776.88</ele>
        <time>2018-09-26T09:05:22Z</time>
      </trkpt>
      <trkpt lat="40.730150230228901" lon="13.895168881863356">
        <ele>778.80999999999995</ele>
        <time>2018-09-26T09:05:37Z</time>
      </trkpt>
      <trkpt lat="40.730150984600186" lon="13.895160835236311">
        <ele>777.36000000000001</ele>
        <time>2018-09-26T09:05:46Z</time>
      </trkpt>
      <trkpt lat="40.730144781991839" lon="13.895157566294074">
        <ele>777.36000000000001</ele>
        <time>2018-09-26T09:06:10Z</time>
      </trkpt>
      <trkpt lat="40.730170095339417" lon="13.895175252109766">
        <ele>775.44000000000005</ele>
        <time>2018-09-26T09:06:17Z</time>
      </trkpt>
      <trkpt lat="40.730159785598516" lon="13.895189082249999">
        <ele>778.32000000000005</ele>
        <time>2018-09-26T09:06:25Z</time>
      </trkpt>
      <trkpt lat="40.730140507221222" lon="13.895178101956844">
        <ele>777.36000000000001</ele>
        <time>2018-09-26T09:06:39Z</time>
      </trkpt>
      <trkpt lat="40.730139920488" lon="13.895179694518447">
        <ele>778.80999999999995</ele>
        <time>2018-09-26T09:06:53Z</time>
      </trkpt>
      <trkpt lat="40.730148302391171" lon="13.895152872428298">
        <ele>777.84000000000003</ele>
        <time>2018-09-26T09:07:07Z</time>
      </trkpt>
      <trkpt lat="40.730148386210203" lon="13.8951510284096">
        <ele>777.84000000000003</ele>
        <time>2018-09-26T09:07:08Z</time>
      </trkpt>
      <trkpt lat="40.730155594646931" lon="13.895156644284725">
        <ele>777.36000000000001</ele>
        <time>2018-09-26T09:07:18Z</time>
      </trkpt>
      <trkpt lat="40.730156600475311" lon="13.895170222967863">
        <ele>774.96000000000004</ele>
        <time>2018-09-26T09:07:27Z</time>
      </trkpt>
      <trkpt lat="40.730148470029235" lon="13.895163601264358">
        <ele>774.48000000000002</ele>
        <time>2018-09-26T09:07:37Z</time>
      </trkpt>
      <trkpt lat="40.730148134753108" lon="13.89516569674015">
        <ele>774.48000000000002</ele>
        <time>2018-09-26T09:07:45Z</time>
      </trkpt>
      <trkpt lat="40.730144362896681" lon="13.895160080865026">
        <ele>774.96000000000004</ele>
        <time>2018-09-26T09:08:02Z</time>
      </trkpt>
      <trkpt lat="40.730146626010537" lon="13.895157817751169">
        <ele>776.88</ele>
        <time>2018-09-26T09:08:20Z</time>
      </trkpt>
      <trkpt lat="40.730143524706364" lon="13.895158991217613">
        <ele>775.91999999999996</ele>
        <time>2018-09-26T09:08:32Z</time>
      </trkpt>
      <trkpt lat="40.73014285415411" lon="13.895166032016277">
        <ele>775.91999999999996</ele>
        <time>2018-09-26T09:08:45Z</time>
      </trkpt>
      <trkpt lat="40.730145117267966" lon="13.895183131098747">
        <ele>775.91999999999996</ele>
        <time>2018-09-26T09:09:05Z</time>
      </trkpt>
      <trkpt lat="40.730136735364795" lon="13.895107777789235">
        <ele>775.44000000000005</ele>
        <time>2018-09-26T09:09:16Z</time>
      </trkpt>
      <trkpt lat="40.73013111948967" lon="13.895111465826631">
        <ele>774.96000000000004</ele>
        <time>2018-09-26T09:09:25Z</time>
      </trkpt>
      <trkpt lat="40.730132209137082" lon="13.89511289075017">
        <ele>774.96000000000004</ele>
        <time>2018-09-26T09:09:26Z</time>
      </trkpt>
      <trkpt lat="40.7301433570683" lon="13.895118422806263">
        <ele>774.96000000000004</ele>
        <time>2018-09-26T09:09:36Z</time>
      </trkpt>
      <trkpt lat="40.730150314047933" lon="13.895120434463024">
        <ele>778.32000000000005</ele>
        <time>2018-09-26T09:09:46Z</time>
      </trkpt>
      <trkpt lat="40.730163641273975" lon="13.895103503018618">
        <ele>775.91999999999996</ele>
        <time>2018-09-26T09:09:58Z</time>
      </trkpt>
      <trkpt lat="40.730163725093007" lon="13.895102245733142">
        <ele>775.44000000000005</ele>
        <time>2018-09-26T09:09:59Z</time>
      </trkpt>
      <trkpt lat="40.730157103389502" lon="13.895098641514778">
        <ele>777.84000000000003</ele>
        <time>2018-09-26T09:10:03Z</time>
      </trkpt>
      <trkpt lat="40.73015752248466" lon="13.895108364522457">
        <ele>774.48000000000002</ele>
        <time>2018-09-26T09:10:12Z</time>
      </trkpt>
      <trkpt lat="40.730155510827899" lon="13.895106269046664">
        <ele>774</ele>
        <time>2018-09-26T09:10:13Z</time>
      </trkpt>
      <trkpt lat="40.730163305997849" lon="13.895103000104427">
        <ele>777.84000000000003</ele>
        <time>2018-09-26T09:10:19Z</time>
      </trkpt>
      <trkpt lat="40.730156600475311" lon="13.895107945427299">
        <ele>779.76999999999998</ele>
        <time>2018-09-26T09:10:21Z</time>
      </trkpt>
      <trkpt lat="40.730152074247599" lon="13.895114483311772">
        <ele>776.39999999999998</ele>
        <time>2018-09-26T09:10:24Z</time>
      </trkpt>
      <trkpt lat="40.73015509173274" lon="13.895119931548834">
        <ele>775.44000000000005</ele>
        <time>2018-09-26T09:10:37Z</time>
      </trkpt>
      <trkpt lat="40.730135980993509" lon="13.895114399492741">
        <ele>774.48000000000002</ele>
        <time>2018-09-26T09:10:48Z</time>
      </trkpt>
      <trkpt lat="40.730148302391171" lon="13.895118171349168">
        <ele>778.80999999999995</ele>
        <time>2018-09-26T09:11:01Z</time>
      </trkpt>
      <trkpt lat="40.730148805305362" lon="13.895118674263358">
        <ele>778.80999999999995</ele>
        <time>2018-09-26T09:11:02Z</time>
      </trkpt>
      <trkpt lat="40.730137825012207" lon="13.895123535767198">
        <ele>775.44000000000005</ele>
        <time>2018-09-26T09:11:12Z</time>
      </trkpt>
      <trkpt lat="40.730119301006198" lon="13.895127139985561">
        <ele>777.84000000000003</ele>
        <time>2018-09-26T09:11:22Z</time>
      </trkpt>
      <trkpt lat="40.730086695402861" lon="13.895146669819951">
        <ele>776.39999999999998</ele>
        <time>2018-09-26T09:11:34Z</time>
      </trkpt>
      <trkpt lat="40.730117373168468" lon="13.895120015367866">
        <ele>774</ele>
        <time>2018-09-26T09:11:51Z</time>
      </trkpt>
      <trkpt lat="40.730082085356116" lon="13.895117249339819">
        <ele>772.08000000000004</ele>
        <time>2018-09-26T09:12:01Z</time>
      </trkpt>
      <trkpt lat="40.730088036507368" lon="13.895097635686398">
        <ele>774.48000000000002</ele>
        <time>2018-09-26T09:12:20Z</time>
      </trkpt>
      <trkpt lat="40.730088204145432" lon="13.895091516897082">
        <ele>775.44000000000005</ele>
        <time>2018-09-26T09:12:39Z</time>
      </trkpt>
      <trkpt lat="40.730097675696015" lon="13.895106101408601">
        <ele>776.39999999999998</ele>
        <time>2018-09-26T09:12:59Z</time>
      </trkpt>
      <trkpt lat="40.730098765343428" lon="13.895102078095078">
        <ele>774.96000000000004</ele>
        <time>2018-09-26T09:13:20Z</time>
      </trkpt>
      <trkpt lat="40.730100525543094" lon="13.895099312067032">
        <ele>774.48000000000002</ele>
        <time>2018-09-26T09:13:21Z</time>
      </trkpt>
      <trkpt lat="40.730081247165799" lon="13.895082883536816">
        <ele>774.48000000000002</ele>
        <time>2018-09-26T09:13:41Z</time>
      </trkpt>
      <trkpt lat="40.730086863040924" lon="13.895084476098418">
        <ele>774.96000000000004</ele>
        <time>2018-09-26T09:14:00Z</time>
      </trkpt>
      <trkpt lat="40.730084097012877" lon="13.895095121115446">
        <ele>778.32000000000005</ele>
        <time>2018-09-26T09:14:20Z</time>
      </trkpt>
      <trkpt lat="40.730084348469973" lon="13.895093947649002">
        <ele>778.32000000000005</ele>
        <time>2018-09-26T09:14:21Z</time>
      </trkpt>
      <trkpt lat="40.730081498622894" lon="13.895087745040655">
        <ele>776.88</ele>
        <time>2018-09-26T09:14:33Z</time>
      </trkpt>
      <trkpt lat="40.7300690934062" lon="13.895073914900422">
        <ele>776.39999999999998</ele>
        <time>2018-09-26T09:14:45Z</time>
      </trkpt>
      <trkpt lat="40.730064567178488" lon="13.89506159350276">
        <ele>775.91999999999996</ele>
        <time>2018-09-26T09:14:57Z</time>
      </trkpt>
      <trkpt lat="40.730063142254949" lon="13.895061928778887">
        <ele>776.39999999999998</ele>
        <time>2018-09-26T09:14:59Z</time>
      </trkpt>
      <trkpt lat="40.730000697076321" lon="13.895026305690408">
        <ele>773.51999999999998</ele>
        <time>2018-09-26T09:15:06Z</time>
      </trkpt>
      <trkpt lat="40.729975132271647" lon="13.894954305142164">
        <ele>774.48000000000002</ele>
        <time>2018-09-26T09:15:15Z</time>
      </trkpt>
      <trkpt lat="40.729983430355787" lon="13.894940726459026">
        <ele>773.03999999999996</ele>
        <time>2018-09-26T09:15:27Z</time>
      </trkpt>
      <trkpt lat="40.729984184727073" lon="13.894944917410612">
        <ele>773.51999999999998</ele>
        <time>2018-09-26T09:15:29Z</time>
      </trkpt>
      <trkpt lat="40.729967840015888" lon="13.894912814721465">
        <ele>772.08000000000004</ele>
        <time>2018-09-26T09:15:39Z</time>
      </trkpt>
      <trkpt lat="40.729948813095689" lon="13.894851543009281">
        <ele>770.63</ele>
        <time>2018-09-26T09:15:51Z</time>
      </trkpt>
      <trkpt lat="40.729953506961465" lon="13.894823798909783">
        <ele>770.14999999999998</ele>
        <time>2018-09-26T09:16:01Z</time>
      </trkpt>
      <trkpt lat="40.729946801438928" lon="13.894833521917462">
        <ele>771.11000000000001</ele>
        <time>2018-09-26T09:16:05Z</time>
      </trkpt>
      <trkpt lat="40.729919644072652" lon="13.894860427826643">
        <ele>769.66999999999996</ele>
        <time>2018-09-26T09:16:09Z</time>
      </trkpt>
      <trkpt lat="40.7299171295017" lon="13.894902924075723">
        <ele>769.66999999999996</ele>
        <time>2018-09-26T09:16:14Z</time>
      </trkpt>
      <trkpt lat="40.729946298524737" lon="13.894993867725134">
        <ele>770.14999999999998</ele>
        <time>2018-09-26T09:16:23Z</time>
      </trkpt>
      <trkpt lat="40.729974713176489" lon="13.895073160529137">
        <ele>768.23000000000002</ele>
        <time>2018-09-26T09:16:35Z</time>
      </trkpt>
      <trkpt lat="40.729978736490011" lon="13.895155303180218">
        <ele>766.78999999999996</ele>
        <time>2018-09-26T09:16:48Z</time>
      </trkpt>
      <trkpt lat="40.729958703741431" lon="13.89523308724165">
        <ele>764.87</ele>
        <time>2018-09-26T09:17:01Z</time>
      </trkpt>
      <trkpt lat="40.729909334331751" lon="13.895253706723452">
        <ele>765.83000000000004</ele>
        <time>2018-09-26T09:17:13Z</time>
      </trkpt>
      <trkpt lat="40.729906065389514" lon="13.895243732258677">
        <ele>765.35000000000002</ele>
        <time>2018-09-26T09:17:14Z</time>
      </trkpt>
      <trkpt lat="40.729871448129416" lon="13.895141640678048">
        <ele>763.89999999999998</ele>
        <time>2018-09-26T09:17:25Z</time>
      </trkpt>
      <trkpt lat="40.729809757322073" lon="13.895054049789906">
        <ele>760.53999999999996</ele>
        <time>2018-09-26T09:17:37Z</time>
      </trkpt>
      <trkpt lat="40.729791484773159" lon="13.895022450014949">
        <ele>759.58000000000004</ele>
        <time>2018-09-26T09:17:49Z</time>
      </trkpt>
      <trkpt lat="40.729786874726415" lon="13.895006775856018">
        <ele>758.13999999999999</ele>
        <time>2018-09-26T09:17:59Z</time>
      </trkpt>
      <trkpt lat="40.729748653247952" lon="13.894957490265369">
        <ele>758.62</ele>
        <time>2018-09-26T09:18:09Z</time>
      </trkpt>
      <trkpt lat="40.729700122028589" lon="13.894921448081732">
        <ele>758.13999999999999</ele>
        <time>2018-09-26T09:18:22Z</time>
      </trkpt>
      <trkpt lat="40.729672042652965" lon="13.894906947389245">
        <ele>757.65999999999997</ele>
        <time>2018-09-26T09:18:35Z</time>
      </trkpt>
      <trkpt lat="40.729655614122748" lon="13.894873755052686">
        <ele>757.17999999999995</ele>
        <time>2018-09-26T09:18:48Z</time>
      </trkpt>
      <trkpt lat="40.729653518646955" lon="13.894836036488414">
        <ele>753.80999999999995</ele>
        <time>2018-09-26T09:18:57Z</time>
      </trkpt>
      <trkpt lat="40.729614039883018" lon="13.894836204126477">
        <ele>752.85000000000002</ele>
        <time>2018-09-26T09:19:06Z</time>
      </trkpt>
      <trkpt lat="40.729580009356141" lon="13.894839724525809">
        <ele>752.85000000000002</ele>
        <time>2018-09-26T09:19:13Z</time>
      </trkpt>
      <trkpt lat="40.729525862261653" lon="13.894819440320134">
        <ele>751.88999999999999</ele>
        <time>2018-09-26T09:19:19Z</time>
      </trkpt>
      <trkpt lat="40.729497950524092" lon="13.894763281568885">
        <ele>749.49000000000001</ele>
        <time>2018-09-26T09:19:23Z</time>
      </trkpt>
      <trkpt lat="40.729441288858652" lon="13.894694969058037">
        <ele>746.60000000000002</ele>
        <time>2018-09-26T09:19:33Z</time>
      </trkpt>
      <trkpt lat="40.729419831186533" lon="13.894680803641677">
        <ele>745.15999999999997</ele>
        <time>2018-09-26T09:19:37Z</time>
      </trkpt>
      <trkpt lat="40.729370545595884" lon="13.894644593819976">
        <ele>742.27999999999997</ele>
        <time>2018-09-26T09:19:47Z</time>
      </trkpt>
      <trkpt lat="40.729330480098724" lon="13.894595978781581">
        <ele>741.30999999999995</ele>
        <time>2018-09-26T09:19:54Z</time>
      </trkpt>
      <trkpt lat="40.729228723794222" lon="13.894529175013304">
        <ele>737.47000000000003</ele>
        <time>2018-09-26T09:20:04Z</time>
      </trkpt>
      <trkpt lat="40.72922277264297" lon="13.894522385671735">
        <ele>737.47000000000003</ele>
        <time>2018-09-26T09:20:05Z</time>
      </trkpt>
      <trkpt lat="40.729216653853655" lon="13.89448843896389">
        <ele>738.42999999999995</ele>
        <time>2018-09-26T09:20:12Z</time>
      </trkpt>
      <trkpt lat="40.729179019108415" lon="13.894465891644359">
        <ele>738.42999999999995</ele>
        <time>2018-09-26T09:20:22Z</time>
      </trkpt>
      <trkpt lat="40.729159070178866" lon="13.894457761198282">
        <ele>738.90999999999997</ele>
        <time>2018-09-26T09:20:32Z</time>
      </trkpt>
      <trkpt lat="40.729128895327449" lon="13.894415181130171">
        <ele>737.47000000000003</ele>
        <time>2018-09-26T09:20:42Z</time>
      </trkpt>
      <trkpt lat="40.729146162047982" lon="13.894330272451043">
        <ele>735.54999999999995</ele>
        <time>2018-09-26T09:20:54Z</time>
      </trkpt>
      <trkpt lat="40.729142893105745" lon="13.894316358491778">
        <ele>736.02999999999997</ele>
        <time>2018-09-26T09:21:06Z</time>
      </trkpt>
      <trkpt lat="40.729156052693725" lon="13.894325662404299">
        <ele>735.07000000000005</ele>
        <time>2018-09-26T09:21:17Z</time>
      </trkpt>
      <trkpt lat="40.729214055463672" lon="13.894291631877422">
        <ele>733.62</ele>
        <time>2018-09-26T09:21:31Z</time>
      </trkpt>
      <trkpt lat="40.729325953871012" lon="13.894269671291113">
        <ele>731.22000000000003</ele>
        <time>2018-09-26T09:21:40Z</time>
      </trkpt>
      <trkpt lat="40.729359984397888" lon="13.894210159778595">
        <ele>730.25999999999999</ele>
        <time>2018-09-26T09:21:51Z</time>
      </trkpt>
      <trkpt lat="40.729374401271343" lon="13.894166238605976">
        <ele>730.74000000000001</ele>
        <time>2018-09-26T09:22:00Z</time>
      </trkpt>
      <trkpt lat="40.729366103187203" lon="13.894164059311152">
        <ele>730.74000000000001</ele>
        <time>2018-09-26T09:22:10Z</time>
      </trkpt>
      <trkpt lat="40.729380268603563" lon="13.894104715436697">
        <ele>729.77999999999997</ele>
        <time>2018-09-26T09:22:20Z</time>
      </trkpt>
      <trkpt lat="40.7293835375458" lon="13.894050484523177">
        <ele>730.25999999999999</ele>
        <time>2018-09-26T09:22:31Z</time>
      </trkpt>
      <trkpt lat="40.729357721284032" lon="13.893945124000311">
        <ele>727.86000000000001</ele>
        <time>2018-09-26T09:22:43Z</time>
      </trkpt>
      <trkpt lat="40.729324277490377" lon="13.893855018541217">
        <ele>724.49000000000001</ele>
        <time>2018-09-26T09:22:56Z</time>
      </trkpt>
      <trkpt lat="40.729319918900728" lon="13.893791316077113">
        <ele>721.61000000000001</ele>
        <time>2018-09-26T09:23:04Z</time>
      </trkpt>
      <trkpt lat="40.72931757196784" lon="13.893782179802656">
        <ele>721.13</ele>
        <time>2018-09-26T09:23:05Z</time>
      </trkpt>
      <trkpt lat="40.729302987456322" lon="13.893699701875448">
        <ele>720.64999999999998</ele>
        <time>2018-09-26T09:23:17Z</time>
      </trkpt>
      <trkpt lat="40.729247163981199" lon="13.893644884228706">
        <ele>717.27999999999997</ele>
        <time>2018-09-26T09:23:28Z</time>
      </trkpt>
      <trkpt lat="40.729222102090716" lon="13.893610266968608">
        <ele>716.32000000000005</ele>
        <time>2018-09-26T09:23:35Z</time>
      </trkpt>
      <trkpt lat="40.729186814278364" lon="13.893562741577625">
        <ele>715.84000000000003</ele>
        <time>2018-09-26T09:23:46Z</time>
      </trkpt>
      <trkpt lat="40.729161500930786" lon="13.893467606976628">
        <ele>713.44000000000005</ele>
        <time>2018-09-26T09:23:58Z</time>
      </trkpt>
      <trkpt lat="40.729148592799902" lon="13.893425781279802">
        <ele>712.47000000000003</ele>
        <time>2018-09-26T09:24:09Z</time>
      </trkpt>
      <trkpt lat="40.729100480675697" lon="13.893317906185985">
        <ele>709.59000000000003</ele>
        <time>2018-09-26T09:24:23Z</time>
      </trkpt>
      <trkpt lat="40.729105677455664" lon="13.893197709694505">
        <ele>706.71000000000004</ele>
        <time>2018-09-26T09:24:34Z</time>
      </trkpt>
      <trkpt lat="40.729052536189556" lon="13.89315739274025">
        <ele>703.34000000000003</ele>
        <time>2018-09-26T09:24:47Z</time>
      </trkpt>
      <trkpt lat="40.728981792926788" lon="13.893107017502189">
        <ele>699.98000000000002</ele>
        <time>2018-09-26T09:25:00Z</time>
      </trkpt>
      <trkpt lat="40.728951366618276" lon="13.893058821558952">
        <ele>698.04999999999995</ele>
        <time>2018-09-26T09:25:08Z</time>
      </trkpt>
      <trkpt lat="40.728905014693737" lon="13.893007105216384">
        <ele>696.61000000000001</ele>
        <time>2018-09-26T09:25:20Z</time>
      </trkpt>
      <trkpt lat="40.728851370513439" lon="13.892962597310543">
        <ele>695.64999999999998</ele>
        <time>2018-09-26T09:25:33Z</time>
      </trkpt>
      <trkpt lat="40.728814657777548" lon="13.892907612025738">
        <ele>692.28999999999996</ele>
        <time>2018-09-26T09:25:44Z</time>
      </trkpt>
      <trkpt lat="40.728764366358519" lon="13.892804849892855">
        <ele>689.39999999999998</ele>
        <time>2018-09-26T09:25:57Z</time>
      </trkpt>
      <trkpt lat="40.728760091587901" lon="13.892729496583343">
        <ele>688.44000000000005</ele>
        <time>2018-09-26T09:26:07Z</time>
      </trkpt>
      <trkpt lat="40.728748273104429" lon="13.892654562368989">
        <ele>687.96000000000004</ele>
        <time>2018-09-26T09:26:19Z</time>
      </trkpt>
      <trkpt lat="40.728745842352509" lon="13.89263360761106">
        <ele>689.39999999999998</ele>
        <time>2018-09-26T09:26:38Z</time>
      </trkpt>
      <trkpt lat="40.728733018040657" lon="13.892627069726586">
        <ele>688.91999999999996</ele>
        <time>2018-09-26T09:26:53Z</time>
      </trkpt>
      <trkpt lat="40.728703429922462" lon="13.892594799399376">
        <ele>685.55999999999995</ele>
        <time>2018-09-26T09:27:01Z</time>
      </trkpt>
      <trkpt lat="40.728682391345501" lon="13.892567977309227">
        <ele>684.60000000000002</ele>
        <time>2018-09-26T09:27:05Z</time>
      </trkpt>
      <trkpt lat="40.728638470172882" lon="13.892525564879179">
        <ele>683.63</ele>
        <time>2018-09-26T09:27:10Z</time>
      </trkpt>
      <trkpt lat="40.728545179590583" lon="13.892394220456481">
        <ele>682.19000000000005</ele>
        <time>2018-09-26T09:27:24Z</time>
      </trkpt>
      <trkpt lat="40.728477956727147" lon="13.892282238230109">
        <ele>682.19000000000005</ele>
        <time>2018-09-26T09:27:37Z</time>
      </trkpt>
      <trkpt lat="40.728430012241006" lon="13.892240412533283">
        <ele>684.60000000000002</ele>
        <time>2018-09-26T09:27:47Z</time>
      </trkpt>
      <trkpt lat="40.728346863761544" lon="13.892151648178697">
        <ele>686.51999999999998</ele>
        <time>2018-09-26T09:28:00Z</time>
      </trkpt>
      <trkpt lat="40.728309312835336" lon="13.89211418107152">
        <ele>687.96000000000004</ele>
        <time>2018-09-26T09:28:10Z</time>
      </trkpt>
      <trkpt lat="40.728262709453702" lon="13.892047293484211">
        <ele>688.44000000000005</ele>
        <time>2018-09-26T09:28:21Z</time>
      </trkpt>
      <trkpt lat="40.728237731382251" lon="13.891973700374365">
        <ele>690.84000000000003</ele>
        <time>2018-09-26T09:28:32Z</time>
      </trkpt>
      <trkpt lat="40.72824158705771" lon="13.891980070620775">
        <ele>690.36000000000001</ele>
        <time>2018-09-26T09:28:49Z</time>
      </trkpt>
      <trkpt lat="40.72822985239327" lon="13.891949560493231">
        <ele>690.84000000000003</ele>
        <time>2018-09-26T09:29:01Z</time>
      </trkpt>
      <trkpt lat="40.72823035530746" lon="13.89184495434165">
        <ele>692.28999999999996</ele>
        <time>2018-09-26T09:29:10Z</time>
      </trkpt>
      <trkpt lat="40.728230020031333" lon="13.891819138079882">
        <ele>693.25</ele>
        <time>2018-09-26T09:29:12Z</time>
      </trkpt>
      <trkpt lat="40.728238318115473" lon="13.891684859991074">
        <ele>693.73000000000002</ele>
        <time>2018-09-26T09:29:24Z</time>
      </trkpt>
      <trkpt lat="40.728252064436674" lon="13.891572710126638">
        <ele>695.64999999999998</ele>
        <time>2018-09-26T09:29:36Z</time>
      </trkpt>
      <trkpt lat="40.728254662826657" lon="13.891510516405106">
        <ele>695.64999999999998</ele>
        <time>2018-09-26T09:29:42Z</time>
      </trkpt>
      <trkpt lat="40.72825281880796" lon="13.891394007951021">
        <ele>695.16999999999996</ele>
        <time>2018-09-26T09:29:54Z</time>
      </trkpt>
      <trkpt lat="40.728222727775574" lon="13.891265848651528">
        <ele>693.73000000000002</ele>
        <time>2018-09-26T09:30:06Z</time>
      </trkpt>
      <trkpt lat="40.728168496862054" lon="13.891136515885592">
        <ele>691.80999999999995</ele>
        <time>2018-09-26T09:30:17Z</time>
      </trkpt>
      <trkpt lat="40.728131951764226" lon="13.891097037121654">
        <ele>692.76999999999998</ele>
        <time>2018-09-26T09:30:27Z</time>
      </trkpt>
      <trkpt lat="40.72807939723134" lon="13.891000896692276">
        <ele>694.21000000000004</ele>
        <time>2018-09-26T09:30:38Z</time>
      </trkpt>
      <trkpt lat="40.728017622604966" lon="13.890837533399463">
        <ele>692.76999999999998</ele>
        <time>2018-09-26T09:30:51Z</time>
      </trkpt>
      <trkpt lat="40.72796112857759" lon="13.890648186206818">
        <ele>694.21000000000004</ele>
        <time>2018-09-26T09:31:06Z</time>
      </trkpt>
      <trkpt lat="40.727912848815322" lon="13.890522792935371">
        <ele>693.73000000000002</ele>
        <time>2018-09-26T09:31:17Z</time>
      </trkpt>
      <trkpt lat="40.72780572809279" lon="13.890379713848233">
        <ele>695.16999999999996</ele>
        <time>2018-09-26T09:31:30Z</time>
      </trkpt>
      <trkpt lat="40.727707576006651" lon="13.890257589519024">
        <ele>694.21000000000004</ele>
        <time>2018-09-26T09:31:41Z</time>
      </trkpt>
      <trkpt lat="40.727648986503482" lon="13.890138985589147">
        <ele>694.21000000000004</ele>
        <time>2018-09-26T09:31:52Z</time>
      </trkpt>
      <trkpt lat="40.727581344544888" lon="13.890018370002508">
        <ele>693.25</ele>
        <time>2018-09-26T09:32:03Z</time>
      </trkpt>
      <trkpt lat="40.727516720071435" lon="13.889934299513698">
        <ele>691.80999999999995</ele>
        <time>2018-09-26T09:32:13Z</time>
      </trkpt>
      <trkpt lat="40.727453352883458" lon="13.889842852950096">
        <ele>692.28999999999996</ele>
        <time>2018-09-26T09:32:24Z</time>
      </trkpt>
      <trkpt lat="40.727374982088804" lon="13.889769176021218">
        <ele>691.80999999999995</ele>
        <time>2018-09-26T09:32:36Z</time>
      </trkpt>
      <trkpt lat="40.727282110601664" lon="13.889754926785827">
        <ele>692.28999999999996</ele>
        <time>2018-09-26T09:32:46Z</time>
      </trkpt>
      <trkpt lat="40.727240703999996" lon="13.889743443578482">
        <ele>692.76999999999998</ele>
        <time>2018-09-26T09:32:57Z</time>
      </trkpt>
      <trkpt lat="40.727239195257425" lon="13.889744784682989">
        <ele>691.33000000000004</ele>
        <time>2018-09-26T09:33:14Z</time>
      </trkpt>
      <trkpt lat="40.727198710665107" lon="13.889730786904693">
        <ele>693.25</ele>
        <time>2018-09-26T09:33:22Z</time>
      </trkpt>
      <trkpt lat="40.72712411172688" lon="13.889657948166132">
        <ele>690.36000000000001</ele>
        <time>2018-09-26T09:33:34Z</time>
      </trkpt>
      <trkpt lat="40.727078849449754" lon="13.889593910425901">
        <ele>688.91999999999996</ele>
        <time>2018-09-26T09:33:43Z</time>
      </trkpt>
      <trkpt lat="40.727016823366284" lon="13.889507995918393">
        <ele>686.03999999999996</ele>
        <time>2018-09-26T09:33:52Z</time>
      </trkpt>
      <trkpt lat="40.726931327953935" lon="13.889330551028252">
        <ele>686.03999999999996</ele>
        <time>2018-09-26T09:34:07Z</time>
      </trkpt>
      <trkpt lat="40.726896123960614" lon="13.889276906847954">
        <ele>686.51999999999998</ele>
        <time>2018-09-26T09:34:17Z</time>
      </trkpt>
      <trkpt lat="40.726862428709865" lon="13.889229968190193">
        <ele>689.88</ele>
        <time>2018-09-26T09:34:24Z</time>
      </trkpt>
      <trkpt lat="40.726827811449766" lon="13.88918437063694">
        <ele>688.44000000000005</ele>
        <time>2018-09-26T09:34:32Z</time>
      </trkpt>
      <trkpt lat="40.726735107600689" lon="13.889120165258646">
        <ele>688.91999999999996</ele>
        <time>2018-09-26T09:34:43Z</time>
      </trkpt>
      <trkpt lat="40.726624215021729" lon="13.889048583805561">
        <ele>691.33000000000004</ele>
        <time>2018-09-26T09:34:55Z</time>
      </trkpt>
      <trkpt lat="40.726567972451448" lon="13.888977589085698">
        <ele>694.21000000000004</ele>
        <time>2018-09-26T09:35:03Z</time>
      </trkpt>
      <trkpt lat="40.726563530042768" lon="13.888966524973512">
        <ele>694.69000000000005</ele>
        <time>2018-09-26T09:35:04Z</time>
      </trkpt>
      <trkpt lat="40.726538049057126" lon="13.888864098116755">
        <ele>696.13</ele>
        <time>2018-09-26T09:35:13Z</time>
      </trkpt>
      <trkpt lat="40.726526733487844" lon="13.888821518048644">
        <ele>694.69000000000005</ele>
        <time>2018-09-26T09:35:17Z</time>
      </trkpt>
      <trkpt lat="40.72649328969419" lon="13.888714900240302">
        <ele>695.64999999999998</ele>
        <time>2018-09-26T09:35:27Z</time>
      </trkpt>
      <trkpt lat="40.726444255560637" lon="13.888568552210927">
        <ele>694.21000000000004</ele>
        <time>2018-09-26T09:35:39Z</time>
      </trkpt>
      <trkpt lat="40.726402094587684" lon="13.888392951339483">
        <ele>694.21000000000004</ele>
        <time>2018-09-26T09:35:53Z</time>
      </trkpt>
      <trkpt lat="40.726353647187352" lon="13.888288009911776">
        <ele>695.64999999999998</ele>
        <time>2018-09-26T09:36:02Z</time>
      </trkpt>
      <trkpt lat="40.726289274170995" lon="13.888168819248676">
        <ele>696.13</ele>
        <time>2018-09-26T09:36:12Z</time>
      </trkpt>
      <trkpt lat="40.726217105984688" lon="13.888057256117463">
        <ele>696.13</ele>
        <time>2018-09-26T09:36:24Z</time>
      </trkpt>
      <trkpt lat="40.726207466796041" lon="13.888038145378232">
        <ele>695.16999999999996</ele>
        <time>2018-09-26T09:36:26Z</time>
      </trkpt>
      <trkpt lat="40.726145189255476" lon="13.88792029581964">
        <ele>693.25</ele>
        <time>2018-09-26T09:36:38Z</time>
      </trkpt>
      <trkpt lat="40.726061705499887" lon="13.88781376183033">
        <ele>694.69000000000005</ele>
        <time>2018-09-26T09:36:50Z</time>
      </trkpt>
      <trkpt lat="40.726031111553311" lon="13.887802697718143">
        <ele>696.13</ele>
        <time>2018-09-26T09:36:53Z</time>
      </trkpt>
      <trkpt lat="40.725919045507908" lon="13.887834884226322">
        <ele>696.13</ele>
        <time>2018-09-26T09:37:04Z</time>
      </trkpt>
      <trkpt lat="40.725790299475193" lon="13.887825915589929">
        <ele>695.64999999999998</ele>
        <time>2018-09-26T09:37:16Z</time>
      </trkpt>
      <trkpt lat="40.725725758820772" lon="13.887813426554203">
        <ele>695.16999999999996</ele>
        <time>2018-09-26T09:37:23Z</time>
      </trkpt>
      <trkpt lat="40.725597096607089" lon="13.887769505381584">
        <ele>692.76999999999998</ele>
        <time>2018-09-26T09:37:36Z</time>
      </trkpt>
      <trkpt lat="40.725498273968697" lon="13.887729523703456">
        <ele>694.21000000000004</ele>
        <time>2018-09-26T09:37:48Z</time>
      </trkpt>
      <trkpt lat="40.725389393046498" lon="13.887714603915811">
        <ele>692.28999999999996</ele>
        <time>2018-09-26T09:38:01Z</time>
      </trkpt>
      <trkpt lat="40.725380089133978" lon="13.887705383822322">
        <ele>691.80999999999995</ele>
        <time>2018-09-26T09:38:10Z</time>
      </trkpt>
      <trkpt lat="40.725374054163694" lon="13.887681746855378">
        <ele>693.25</ele>
        <time>2018-09-26T09:38:26Z</time>
      </trkpt>
      <trkpt lat="40.725370533764362" lon="13.887683842331171">
        <ele>693.25</ele>
        <time>2018-09-26T09:38:45Z</time>
      </trkpt>
      <trkpt lat="40.725374054163694" lon="13.887672023847699">
        <ele>694.21000000000004</ele>
        <time>2018-09-26T09:39:03Z</time>
      </trkpt>
      <trkpt lat="40.725392242893577" lon="13.887697756290436">
        <ele>695.16999999999996</ele>
        <time>2018-09-26T09:39:23Z</time>
      </trkpt>
      <trkpt lat="40.725281853228807" lon="13.887740168720484">
        <ele>696.61000000000001</ele>
        <time>2018-09-26T09:39:34Z</time>
      </trkpt>
      <trkpt lat="40.725253606215119" lon="13.887761542573571">
        <ele>694.69000000000005</ele>
        <time>2018-09-26T09:39:37Z</time>
      </trkpt>
      <trkpt lat="40.725132068619132" lon="13.887783251702785">
        <ele>692.76999999999998</ele>
        <time>2018-09-26T09:39:48Z</time>
      </trkpt>
      <trkpt lat="40.72496878914535" lon="13.887806134298444">
        <ele>691.33000000000004</ele>
        <time>2018-09-26T09:40:02Z</time>
      </trkpt>
      <trkpt lat="40.72486175224185" lon="13.887841757386923">
        <ele>690.84000000000003</ele>
        <time>2018-09-26T09:40:14Z</time>
      </trkpt>
      <trkpt lat="40.724797630682588" lon="13.887846199795604">
        <ele>692.76999999999998</ele>
        <time>2018-09-26T09:40:23Z</time>
      </trkpt>
      <trkpt lat="40.724794864654541" lon="13.887827591970563">
        <ele>691.80999999999995</ele>
        <time>2018-09-26T09:40:32Z</time>
      </trkpt>
      <trkpt lat="40.724759493023157" lon="13.887870088219643">
        <ele>697.57000000000005</ele>
        <time>2018-09-26T09:40:38Z</time>
      </trkpt>
      <trkpt lat="40.724752703681588" lon="13.88787193223834">
        <ele>697.09000000000003</ele>
        <time>2018-09-26T09:40:39Z</time>
      </trkpt>
      <trkpt lat="40.724745076149702" lon="13.88787335716188">
        <ele>693.25</ele>
        <time>2018-09-26T09:40:40Z</time>
      </trkpt>
      <trkpt lat="40.724729401990771" lon="13.887870674952865">
        <ele>691.80999999999995</ele>
        <time>2018-09-26T09:40:42Z</time>
      </trkpt>
      <trkpt lat="40.724697802215815" lon="13.887870758771896">
        <ele>694.69000000000005</ele>
        <time>2018-09-26T09:40:52Z</time>
      </trkpt>
      <trkpt lat="40.724694784730673" lon="13.887867908924818">
        <ele>695.64999999999998</ele>
        <time>2018-09-26T09:40:54Z</time>
      </trkpt>
      <trkpt lat="40.724657904356718" lon="13.887863550335169">
        <ele>696.13</ele>
        <time>2018-09-26T09:41:04Z</time>
      </trkpt>
      <trkpt lat="40.724663184955716" lon="13.887860113754869">
        <ele>692.76999999999998</ele>
        <time>2018-09-26T09:41:19Z</time>
      </trkpt>
      <trkpt lat="40.724691096693277" lon="13.887884002178907">
        <ele>690.84000000000003</ele>
        <time>2018-09-26T09:41:24Z</time>
      </trkpt>
      <trkpt lat="40.72468489408493" lon="13.887877212837338">
        <ele>687</ele>
        <time>2018-09-26T09:41:28Z</time>
      </trkpt>
      <trkpt lat="40.724684726446867" lon="13.887877380475402">
        <ele>687.48000000000002</ele>
        <time>2018-09-26T09:41:29Z</time>
      </trkpt>
      <trkpt lat="40.724685313180089" lon="13.88787486590445">
        <ele>690.84000000000003</ele>
        <time>2018-09-26T09:41:31Z</time>
      </trkpt>
      <trkpt lat="40.724662598222494" lon="13.88785139657557">
        <ele>694.21000000000004</ele>
        <time>2018-09-26T09:41:36Z</time>
      </trkpt>
      <trkpt lat="40.724602919071913" lon="13.887904286384583">
        <ele>692.28999999999996</ele>
        <time>2018-09-26T09:41:45Z</time>
      </trkpt>
      <trkpt lat="40.724521782249212" lon="13.887998415157199">
        <ele>694.21000000000004</ele>
        <time>2018-09-26T09:41:56Z</time>
      </trkpt>
      <trkpt lat="40.724416589364409" lon="13.887982573360205">
        <ele>696.13</ele>
        <time>2018-09-26T09:42:08Z</time>
      </trkpt>
      <trkpt lat="40.724437795579433" lon="13.887962037697434">
        <ele>696.13</ele>
        <time>2018-09-26T09:42:16Z</time>
      </trkpt>
      <trkpt lat="40.724448272958398" lon="13.887963881716132">
        <ele>698.04999999999995</ele>
        <time>2018-09-26T09:42:18Z</time>
      </trkpt>
      <trkpt lat="40.724478447809815" lon="13.88793395832181">
        <ele>696.13</ele>
        <time>2018-09-26T09:42:28Z</time>
      </trkpt>
      <trkpt lat="40.724469227716327" lon="13.887963714078069">
        <ele>693.73000000000002</ele>
        <time>2018-09-26T09:42:37Z</time>
      </trkpt>
      <trkpt lat="40.724462438374758" lon="13.887968324124813">
        <ele>696.61000000000001</ele>
        <time>2018-09-26T09:42:40Z</time>
      </trkpt>
      <trkpt lat="40.724460342898965" lon="13.887972179800272">
        <ele>699.01999999999998</ele>
        <time>2018-09-26T09:42:45Z</time>
      </trkpt>
      <trkpt lat="40.724447267130017" lon="13.887964468449354">
        <ele>694.69000000000005</ele>
        <time>2018-09-26T09:42:51Z</time>
      </trkpt>
      <trkpt lat="40.724442657083273" lon="13.887964049354196">
        <ele>696.61000000000001</ele>
        <time>2018-09-26T09:42:52Z</time>
      </trkpt>
      <trkpt lat="40.724314833059907" lon="13.887965893372893">
        <ele>696.61000000000001</ele>
        <time>2018-09-26T09:43:03Z</time>
      </trkpt>
      <trkpt lat="40.724177118390799" lon="13.887909483164549">
        <ele>695.64999999999998</ele>
        <time>2018-09-26T09:43:14Z</time>
      </trkpt>
      <trkpt lat="40.724121211096644" lon="13.887879643589258">
        <ele>692.28999999999996</ele>
        <time>2018-09-26T09:43:19Z</time>
      </trkpt>
      <trkpt lat="40.724015766754746" lon="13.887720806524158">
        <ele>692.76999999999998</ele>
        <time>2018-09-26T09:43:32Z</time>
      </trkpt>
      <trkpt lat="40.723950639367104" lon="13.88762466609478">
        <ele>692.28999999999996</ele>
        <time>2018-09-26T09:43:40Z</time>
      </trkpt>
      <trkpt lat="40.723929097875953" lon="13.887607399374247">
        <ele>693.25</ele>
        <time>2018-09-26T09:43:42Z</time>
      </trkpt>
      <trkpt lat="40.72389816865325" lon="13.887574039399624">
        <ele>688.44000000000005</ele>
        <time>2018-09-26T09:43:46Z</time>
      </trkpt>
      <trkpt lat="40.723890122026205" lon="13.887568842619658">
        <ele>691.33000000000004</ele>
        <time>2018-09-26T09:43:47Z</time>
      </trkpt>
      <trkpt lat="40.723769925534725" lon="13.887427104637027">
        <ele>694.21000000000004</ele>
        <time>2018-09-26T09:44:02Z</time>
      </trkpt>
      <trkpt lat="40.72369834408164" lon="13.887357953935862">
        <ele>696.13</ele>
        <time>2018-09-26T09:44:11Z</time>
      </trkpt>
      <trkpt lat="40.723673030734062" lon="13.88730313628912">
        <ele>694.21000000000004</ele>
        <time>2018-09-26T09:44:17Z</time>
      </trkpt>
      <trkpt lat="40.72364310733974" lon="13.887238847091794">
        <ele>698.04999999999995</ele>
        <time>2018-09-26T09:44:24Z</time>
      </trkpt>
      <trkpt lat="40.723590636625886" lon="13.887207331135869">
        <ele>694.21000000000004</ele>
        <time>2018-09-26T09:44:33Z</time>
      </trkpt>
      <trkpt lat="40.723576638847589" lon="13.887209929525852">
        <ele>697.09000000000003</ele>
        <time>2018-09-26T09:44:35Z</time>
      </trkpt>
      <trkpt lat="40.723543111234903" lon="13.887260891497135">
        <ele>688.44000000000005</ele>
        <time>2018-09-26T09:44:42Z</time>
      </trkpt>
      <trkpt lat="40.72354000993073" lon="13.887271033599973">
        <ele>691.80999999999995</ele>
        <time>2018-09-26T09:44:43Z</time>
      </trkpt>
      <trkpt lat="40.7235346455127" lon="13.887285869568586">
        <ele>693.73000000000002</ele>
        <time>2018-09-26T09:44:45Z</time>
      </trkpt>
      <trkpt lat="40.723481588065624" lon="13.887333311140537">
        <ele>690.36000000000001</ele>
        <time>2018-09-26T09:44:54Z</time>
      </trkpt>
      <trkpt lat="40.723474798724055" lon="13.887338088825345">
        <ele>691.33000000000004</ele>
        <time>2018-09-26T09:44:55Z</time>
      </trkpt>
      <trkpt lat="40.723372036591172" lon="13.887320486828685">
        <ele>689.88</ele>
        <time>2018-09-26T09:45:10Z</time>
      </trkpt>
      <trkpt lat="40.723367007449269" lon="13.887311099097133">
        <ele>689.39999999999998</ele>
        <time>2018-09-26T09:45:11Z</time>
      </trkpt>
      <trkpt lat="40.723354769870639" lon="13.887286623939872">
        <ele>688.91999999999996</ele>
        <time>2018-09-26T09:45:13Z</time>
      </trkpt>
      <trkpt lat="40.723269190639257" lon="13.887211941182613">
        <ele>691.80999999999995</ele>
        <time>2018-09-26T09:45:27Z</time>
      </trkpt>
      <trkpt lat="40.723269525915384" lon="13.887211019173265">
        <ele>691.33000000000004</ele>
        <time>2018-09-26T09:45:32Z</time>
      </trkpt>
      <trkpt lat="40.723269190639257" lon="13.88720691204071">
        <ele>692.76999999999998</ele>
        <time>2018-09-26T09:45:34Z</time>
      </trkpt>
      <trkpt lat="40.723269190639257" lon="13.887205738574266">
        <ele>691.80999999999995</ele>
        <time>2018-09-26T09:45:36Z</time>
      </trkpt>
      <trkpt lat="40.723271789029241" lon="13.887204397469759">
        <ele>688.91999999999996</ele>
        <time>2018-09-26T09:45:43Z</time>
      </trkpt>
      <trkpt lat="40.723272794857621" lon="13.887203391641378">
        <ele>690.84000000000003</ele>
        <time>2018-09-26T09:45:46Z</time>
      </trkpt>
      <trkpt lat="40.723266173154116" lon="13.887183107435703">
        <ele>688.44000000000005</ele>
        <time>2018-09-26T09:45:56Z</time>
      </trkpt>
      <trkpt lat="40.723252929747105" lon="13.887185202911496">
        <ele>692.28999999999996</ele>
        <time>2018-09-26T09:45:59Z</time>
      </trkpt>
      <trkpt lat="40.723251421004534" lon="13.887188052758574">
        <ele>693.25</ele>
        <time>2018-09-26T09:46:01Z</time>
      </trkpt>
      <trkpt lat="40.723268100991845" lon="13.887210600078106">
        <ele>695.16999999999996</ele>
        <time>2018-09-26T09:46:04Z</time>
      </trkpt>
      <trkpt lat="40.723282350227237" lon="13.887203810736537">
        <ele>693.25</ele>
        <time>2018-09-26T09:46:07Z</time>
      </trkpt>
      <trkpt lat="40.723315961658955" lon="13.887216718867421">
        <ele>696.61000000000001</ele>
        <time>2018-09-26T09:46:12Z</time>
      </trkpt>
      <trkpt lat="40.723321996629238" lon="13.887226190418005">
        <ele>693.25</ele>
        <time>2018-09-26T09:46:14Z</time>
      </trkpt>
      <trkpt lat="40.723324930295348" lon="13.887230465188622">
        <ele>693.73000000000002</ele>
        <time>2018-09-26T09:46:15Z</time>
      </trkpt>
      <trkpt lat="40.723373712971807" lon="13.887285701930523">
        <ele>693.25</ele>
        <time>2018-09-26T09:46:26Z</time>
      </trkpt>
      <trkpt lat="40.723390728235245" lon="13.88731587678194">
        <ele>693.25</ele>
        <time>2018-09-26T09:46:36Z</time>
      </trkpt>
      <trkpt lat="40.723382262513041" lon="13.887328784912825">
        <ele>691.33000000000004</ele>
        <time>2018-09-26T09:46:40Z</time>
      </trkpt>
      <trkpt lat="40.72334848344326" lon="13.887336580082774">
        <ele>690.36000000000001</ele>
        <time>2018-09-26T09:46:49Z</time>
      </trkpt>
      <trkpt lat="40.72334161028266" lon="13.887339429929852">
        <ele>690.36000000000001</ele>
        <time>2018-09-26T09:46:51Z</time>
      </trkpt>
      <trkpt lat="40.723241865634918" lon="13.887305231764913">
        <ele>687.48000000000002</ele>
        <time>2018-09-26T09:47:00Z</time>
      </trkpt>
      <trkpt lat="40.723200123757124" lon="13.887295676395297">
        <ele>686.03999999999996</ele>
        <time>2018-09-26T09:47:04Z</time>
      </trkpt>
      <trkpt lat="40.723123094066978" lon="13.887285450473428">
        <ele>687</ele>
        <time>2018-09-26T09:47:16Z</time>
      </trkpt>
      <trkpt lat="40.723117394372821" lon="13.887283941730857">
        <ele>687</ele>
        <time>2018-09-26T09:47:17Z</time>
      </trkpt>
      <trkpt lat="40.72310465388" lon="13.887283271178603">
        <ele>687</ele>
        <time>2018-09-26T09:47:19Z</time>
      </trkpt>
      <trkpt lat="40.723067438229918" lon="13.887297101318836">
        <ele>684.60000000000002</ele>
        <time>2018-09-26T09:47:23Z</time>
      </trkpt>
      <trkpt lat="40.722977835685015" lon="13.887196937575936">
        <ele>681.71000000000004</ele>
        <time>2018-09-26T09:47:36Z</time>
      </trkpt>
      <trkpt lat="40.722960066050291" lon="13.887180676683784">
        <ele>682.66999999999996</ele>
        <time>2018-09-26T09:47:40Z</time>
      </trkpt>
      <trkpt lat="40.722860489040613" lon="13.887090403586626">
        <ele>681.71000000000004</ele>
        <time>2018-09-26T09:47:55Z</time>
      </trkpt>
      <trkpt lat="40.722794774919748" lon="13.887010272592306">
        <ele>678.83000000000004</ele>
        <time>2018-09-26T09:48:05Z</time>
      </trkpt>
      <trkpt lat="40.722707351669669" lon="13.886916227638721">
        <ele>677.87</ele>
        <time>2018-09-26T09:48:19Z</time>
      </trkpt>
      <trkpt lat="40.722660664469004" lon="13.886934919282794">
        <ele>677.38999999999999</ele>
        <time>2018-09-26T09:48:30Z</time>
      </trkpt>
      <trkpt lat="40.722592435777187" lon="13.886940702795982">
        <ele>675.94000000000005</ele>
        <time>2018-09-26T09:48:41Z</time>
      </trkpt>
      <trkpt lat="40.722567290067673" lon="13.886927291750908">
        <ele>677.38999999999999</ele>
        <time>2018-09-26T09:48:44Z</time>
      </trkpt>
      <trkpt lat="40.722561590373516" lon="13.88691371306777">
        <ele>675.46000000000004</ele>
        <time>2018-09-26T09:48:46Z</time>
      </trkpt>
      <trkpt lat="40.722496965900064" lon="13.886860404163599">
        <ele>672.10000000000002</ele>
        <time>2018-09-26T09:48:55Z</time>
      </trkpt>
      <trkpt lat="40.722409542649984" lon="13.886826960369945">
        <ele>671.62</ele>
        <time>2018-09-26T09:49:08Z</time>
      </trkpt>
      <trkpt lat="40.722370315343142" lon="13.886826038360596">
        <ele>672.10000000000002</ele>
        <time>2018-09-26T09:49:13Z</time>
      </trkpt>
      <trkpt lat="40.722268056124449" lon="13.886838192120194">
        <ele>670.17999999999995</ele>
        <time>2018-09-26T09:49:26Z</time>
      </trkpt>
      <trkpt lat="40.722226900979877" lon="13.886851686984301">
        <ele>670.65999999999997</ele>
        <time>2018-09-26T09:49:31Z</time>
      </trkpt>
      <trkpt lat="40.722171328961849" lon="13.886888399720192">
        <ele>667.76999999999998</ele>
        <time>2018-09-26T09:49:41Z</time>
      </trkpt>
      <trkpt lat="40.722155570983887" lon="13.886897535994649">
        <ele>667.28999999999996</ele>
        <time>2018-09-26T09:49:43Z</time>
      </trkpt>
      <trkpt lat="40.722059765830636" lon="13.886961992830038">
        <ele>663.92999999999995</ele>
        <time>2018-09-26T09:49:54Z</time>
      </trkpt>
      <trkpt lat="40.722028417512774" lon="13.88697037473321">
        <ele>662.97000000000003</ele>
        <time>2018-09-26T09:49:57Z</time>
      </trkpt>
      <trkpt lat="40.72193437255919" lon="13.886946402490139">
        <ele>665.85000000000002</ele>
        <time>2018-09-26T09:50:11Z</time>
      </trkpt>
      <trkpt lat="40.721927331760526" lon="13.886930560693145">
        <ele>664.88999999999999</ele>
        <time>2018-09-26T09:50:20Z</time>
      </trkpt>
      <trkpt lat="40.721907801926136" lon="13.886922765523195">
        <ele>663.92999999999995</ele>
        <time>2018-09-26T09:50:22Z</time>
      </trkpt>
      <trkpt lat="40.72187427431345" lon="13.886893345043063">
        <ele>669.70000000000005</ele>
        <time>2018-09-26T09:50:26Z</time>
      </trkpt>
      <trkpt lat="40.721876118332148" lon="13.886892003938556">
        <ele>666.80999999999995</ele>
        <time>2018-09-26T09:50:27Z</time>
      </trkpt>
      <trkpt lat="40.721875783056021" lon="13.886889908462763">
        <ele>663.92999999999995</ele>
        <time>2018-09-26T09:50:28Z</time>
      </trkpt>
      <trkpt lat="40.7219114061445" lon="13.886923938989639">
        <ele>665.37</ele>
        <time>2018-09-26T09:50:32Z</time>
      </trkpt>
      <trkpt lat="40.721950298175216" lon="13.886891501024365">
        <ele>665.85000000000002</ele>
        <time>2018-09-26T09:50:44Z</time>
      </trkpt>
      <trkpt lat="40.721944430842996" lon="13.886846909299493">
        <ele>665.85000000000002</ele>
        <time>2018-09-26T09:50:54Z</time>
      </trkpt>
      <trkpt lat="40.721926912665367" lon="13.886789325624704">
        <ele>663.45000000000005</ele>
        <time>2018-09-26T09:51:04Z</time>
      </trkpt>
      <trkpt lat="40.721944514662027" lon="13.88673534616828">
        <ele>660.55999999999995</ele>
        <time>2018-09-26T09:51:11Z</time>
      </trkpt>
      <trkpt lat="40.721978629007936" lon="13.886674577370286">
        <ele>658.15999999999997</ele>
        <time>2018-09-26T09:51:17Z</time>
      </trkpt>
      <trkpt lat="40.722007546573877" lon="13.88660978525877">
        <ele>656.72000000000003</ele>
        <time>2018-09-26T09:51:27Z</time>
      </trkpt>
      <trkpt lat="40.722003690898418" lon="13.886619005352259">
        <ele>656.24000000000001</ele>
        <time>2018-09-26T09:51:33Z</time>
      </trkpt>
      <trkpt lat="40.722001176327467" lon="13.88662638142705">
        <ele>657.20000000000005</ele>
        <time>2018-09-26T09:51:35Z</time>
      </trkpt>
      <trkpt lat="40.72199983522296" lon="13.886639708653092">
        <ele>657.20000000000005</ele>
        <time>2018-09-26T09:51:45Z</time>
      </trkpt>
      <trkpt lat="40.722005367279053" lon="13.886562930420041">
        <ele>656.24000000000001</ele>
        <time>2018-09-26T09:51:55Z</time>
      </trkpt>
      <trkpt lat="40.722019365057349" lon="13.886496126651764">
        <ele>653.83000000000004</ele>
        <time>2018-09-26T09:51:59Z</time>
      </trkpt>
      <trkpt lat="40.722037889063358" lon="13.886400489136577">
        <ele>650.47000000000003</ele>
        <time>2018-09-26T09:52:06Z</time>
      </trkpt>
      <trkpt lat="40.722041577100754" lon="13.886390179395676">
        <ele>650.47000000000003</ele>
        <time>2018-09-26T09:52:07Z</time>
      </trkpt>
      <trkpt lat="40.722080804407597" lon="13.886328740045428">
        <ele>648.07000000000005</ele>
        <time>2018-09-26T09:52:17Z</time>
      </trkpt>
      <trkpt lat="40.722082648426294" lon="13.886320190504193">
        <ele>648.07000000000005</ele>
        <time>2018-09-26T09:52:19Z</time>
      </trkpt>
      <trkpt lat="40.722086504101753" lon="13.886282807216048">
        <ele>647.10000000000002</ele>
        <time>2018-09-26T09:52:23Z</time>
      </trkpt>
      <trkpt lat="40.722088599577546" lon="13.886225391179323">
        <ele>650.47000000000003</ele>
        <time>2018-09-26T09:52:29Z</time>
      </trkpt>
      <trkpt lat="40.722091114148498" lon="13.88621399179101">
        <ele>649.50999999999999</ele>
        <time>2018-09-26T09:52:30Z</time>
      </trkpt>
      <trkpt lat="40.722094299271703" lon="13.886198149994016">
        <ele>646.13999999999999</ele>
        <time>2018-09-26T09:52:32Z</time>
      </trkpt>
      <trkpt lat="40.722096897661686" lon="13.88618809171021">
        <ele>646.13999999999999</ele>
        <time>2018-09-26T09:52:33Z</time>
      </trkpt>
      <trkpt lat="40.722098657861352" lon="13.886165376752615">
        <ele>644.70000000000005</ele>
        <time>2018-09-26T09:52:36Z</time>
      </trkpt>
      <trkpt lat="40.722096646204591" lon="13.886071499437094">
        <ele>642.77999999999997</ele>
        <time>2018-09-26T09:52:41Z</time>
      </trkpt>
      <trkpt lat="40.722081726416945" lon="13.885969826951623">
        <ele>642.29999999999995</ele>
        <time>2018-09-26T09:52:48Z</time>
      </trkpt>
      <trkpt lat="40.722084240987897" lon="13.885940322652459">
        <ele>637.00999999999999</ele>
        <time>2018-09-26T09:52:50Z</time>
      </trkpt>
      <trkpt lat="40.7220858335495" lon="13.88592816889286">
        <ele>637.00999999999999</ele>
        <time>2018-09-26T09:52:51Z</time>
      </trkpt>
      <trkpt lat="40.722091617062688" lon="13.885874105617404">
        <ele>637.49000000000001</ele>
        <time>2018-09-26T09:52:58Z</time>
      </trkpt>
      <trkpt lat="40.722091365605593" lon="13.885805960744619">
        <ele>640.38</ele>
        <time>2018-09-26T09:53:09Z</time>
      </trkpt>
      <trkpt lat="40.72208633646369" lon="13.885810906067491">
        <ele>641.34000000000003</ele>
        <time>2018-09-26T09:53:11Z</time>
      </trkpt>
      <trkpt lat="40.722083318978548" lon="13.885802691802382">
        <ele>640.86000000000001</ele>
        <time>2018-09-26T09:53:12Z</time>
      </trkpt>
      <trkpt lat="40.722075859084725" lon="13.885756004601717">
        <ele>636.52999999999997</ele>
        <time>2018-09-26T09:53:15Z</time>
      </trkpt>
      <trkpt lat="40.722079630941153" lon="13.885674197226763">
        <ele>635.09000000000003</ele>
        <time>2018-09-26T09:53:21Z</time>
      </trkpt>
      <trkpt lat="40.72207166813314" lon="13.885594988241792">
        <ele>638.92999999999995</ele>
        <time>2018-09-26T09:53:27Z</time>
      </trkpt>
      <trkpt lat="40.722059765830636" lon="13.885570932179689">
        <ele>636.52999999999997</ele>
        <time>2018-09-26T09:53:29Z</time>
      </trkpt>
      <trkpt lat="40.722038811072707" lon="13.885554084554315">
        <ele>635.57000000000005</ele>
        <time>2018-09-26T09:53:31Z</time>
      </trkpt>
      <trkpt lat="40.72200721129775" lon="13.88551527634263">
        <ele>634.13</ele>
        <time>2018-09-26T09:53:35Z</time>
      </trkpt>
      <trkpt lat="40.722003439441323" lon="13.885502032935619">
        <ele>637.97000000000003</ele>
        <time>2018-09-26T09:53:36Z</time>
      </trkpt>
      <trkpt lat="40.722001260146499" lon="13.885489208623767">
        <ele>637.49000000000001</ele>
        <time>2018-09-26T09:53:37Z</time>
      </trkpt>
      <trkpt lat="40.721980640664697" lon="13.885364234447479">
        <ele>636.52999999999997</ele>
        <time>2018-09-26T09:53:46Z</time>
      </trkpt>
      <trkpt lat="40.721968235448003" lon="13.885329365730286">
        <ele>633.64999999999998</ele>
        <time>2018-09-26T09:53:49Z</time>
      </trkpt>
      <trkpt lat="40.721946023404598" lon="13.885307824239135">
        <ele>637.49000000000001</ele>
        <time>2018-09-26T09:53:53Z</time>
      </trkpt>
      <trkpt lat="40.721933785825968" lon="13.88529340736568">
        <ele>638.92999999999995</ele>
        <time>2018-09-26T09:53:55Z</time>
      </trkpt>
      <trkpt lat="40.721897659823298" lon="13.885233895853162">
        <ele>636.52999999999997</ele>
        <time>2018-09-26T09:54:01Z</time>
      </trkpt>
      <trkpt lat="40.72187427431345" lon="13.885187963023782">
        <ele>638.45000000000005</ele>
        <time>2018-09-26T09:54:05Z</time>
      </trkpt>
      <trkpt lat="40.721862707287073" lon="13.885086877271533">
        <ele>636.04999999999995</ele>
        <time>2018-09-26T09:54:12Z</time>
      </trkpt>
      <trkpt lat="40.721852229908109" lon="13.885042620822787">
        <ele>638.45000000000005</ele>
        <time>2018-09-26T09:54:15Z</time>
      </trkpt>
      <trkpt lat="40.721848625689745" lon="13.885033065453172">
        <ele>637.97000000000003</ele>
        <time>2018-09-26T09:54:16Z</time>
      </trkpt>
      <trkpt lat="40.721849715337157" lon="13.885029461234808">
        <ele>634.13</ele>
        <time>2018-09-26T09:54:23Z</time>
      </trkpt>
      <trkpt lat="40.72184644639492" lon="13.885025354102254">
        <ele>636.04999999999995</ele>
        <time>2018-09-26T09:54:27Z</time>
      </trkpt>
      <trkpt lat="40.721830353140831" lon="13.885000878944993">
        <ele>634.13</ele>
        <time>2018-09-26T09:54:30Z</time>
      </trkpt>
      <trkpt lat="40.721801184117794" lon="13.884909683838487">
        <ele>637.97000000000003</ele>
        <time>2018-09-26T09:54:37Z</time>
      </trkpt>
      <trkpt lat="40.721794813871384" lon="13.884894512593746">
        <ele>637.49000000000001</ele>
        <time>2018-09-26T09:54:38Z</time>
      </trkpt>
      <trkpt lat="40.721712755039334" lon="13.884830977767706">
        <ele>636.04999999999995</ele>
        <time>2018-09-26T09:54:47Z</time>
      </trkpt>
      <trkpt lat="40.721697583794594" lon="13.884799377992749">
        <ele>640.38</ele>
        <time>2018-09-26T09:54:51Z</time>
      </trkpt>
      <trkpt lat="40.721659194678068" lon="13.884782111272216">
        <ele>640.38</ele>
        <time>2018-09-26T09:54:55Z</time>
      </trkpt>
      <trkpt lat="40.721634216606617" lon="13.88476861640811">
        <ele>637.97000000000003</ele>
        <time>2018-09-26T09:54:58Z</time>
      </trkpt>
      <trkpt lat="40.721628265455365" lon="13.88476132415235">
        <ele>635.09000000000003</ele>
        <time>2018-09-26T09:55:00Z</time>
      </trkpt>
      <trkpt lat="40.721617201343179" lon="13.884756043553352">
        <ele>636.52999999999997</ele>
        <time>2018-09-26T09:55:02Z</time>
      </trkpt>
      <trkpt lat="40.721582667902112" lon="13.884725281968713">
        <ele>635.57000000000005</ele>
        <time>2018-09-26T09:55:12Z</time>
      </trkpt>
      <trkpt lat="40.721580404788256" lon="13.884714134037495">
        <ele>638.92999999999995</ele>
        <time>2018-09-26T09:55:16Z</time>
      </trkpt>
      <trkpt lat="40.721577471122146" lon="13.88471832498908">
        <ele>641.34000000000003</ele>
        <time>2018-09-26T09:55:19Z</time>
      </trkpt>
      <trkpt lat="40.721554588526487" lon="13.884715642780066">
        <ele>634.61000000000001</ele>
        <time>2018-09-26T09:55:21Z</time>
      </trkpt>
      <trkpt lat="40.721547128632665" lon="13.88471832498908">
        <ele>635.57000000000005</ele>
        <time>2018-09-26T09:55:22Z</time>
      </trkpt>
      <trkpt lat="40.721537154167891" lon="13.884716900065541">
        <ele>629.32000000000005</ele>
        <time>2018-09-26T09:55:23Z</time>
      </trkpt>
      <trkpt lat="40.721528604626656" lon="13.884716145694256">
        <ele>633.16999999999996</ele>
        <time>2018-09-26T09:55:24Z</time>
      </trkpt>
      <trkpt lat="40.721480241045356" lon="13.884735675528646">
        <ele>634.13</ele>
        <time>2018-09-26T09:55:29Z</time>
      </trkpt>
      <trkpt lat="40.721442690119147" lon="13.884764425456524">
        <ele>635.09000000000003</ele>
        <time>2018-09-26T09:55:33Z</time>
      </trkpt>
      <trkpt lat="40.721433721482754" lon="13.884773058816791">
        <ele>638.45000000000005</ele>
        <time>2018-09-26T09:55:34Z</time>
      </trkpt>
      <trkpt lat="40.721424333751202" lon="13.884781524538994">
        <ele>637.49000000000001</ele>
        <time>2018-09-26T09:55:35Z</time>
      </trkpt>
      <trkpt lat="40.721415113657713" lon="13.884793259203434">
        <ele>633.16999999999996</ele>
        <time>2018-09-26T09:55:36Z</time>
      </trkpt>
      <trkpt lat="40.721406061202288" lon="13.884802060201764">
        <ele>635.09000000000003</ele>
        <time>2018-09-26T09:55:37Z</time>
      </trkpt>
      <trkpt lat="40.721372282132506" lon="13.884811280295253">
        <ele>642.77999999999997</ele>
        <time>2018-09-26T09:55:40Z</time>
      </trkpt>
      <trkpt lat="40.721364067867398" lon="13.884811531752348">
        <ele>639.40999999999997</ele>
        <time>2018-09-26T09:55:41Z</time>
      </trkpt>
      <trkpt lat="40.721366833895445" lon="13.884812872856855">
        <ele>639.40999999999997</ele>
        <time>2018-09-26T09:55:42Z</time>
      </trkpt>
      <trkpt lat="40.721361888572574" lon="13.884810023009777">
        <ele>645.65999999999997</ele>
        <time>2018-09-26T09:55:44Z</time>
      </trkpt>
      <trkpt lat="40.721338167786598" lon="13.884782111272216">
        <ele>644.22000000000003</ele>
        <time>2018-09-26T09:55:47Z</time>
      </trkpt>
      <trkpt lat="40.72132165543735" lon="13.884727461263537">
        <ele>650.47000000000003</ele>
        <time>2018-09-26T09:55:52Z</time>
      </trkpt>
      <trkpt lat="40.721319057047367" lon="13.884716397151351">
        <ele>649.99000000000001</ele>
        <time>2018-09-26T09:55:53Z</time>
      </trkpt>
      <trkpt lat="40.721316710114479" lon="13.884708937257528">
        <ele>654.79999999999995</ele>
        <time>2018-09-26T09:55:54Z</time>
      </trkpt>
      <trkpt lat="40.721316207200289" lon="13.884703740477562">
        <ele>659.12</ele>
        <time>2018-09-26T09:55:55Z</time>
      </trkpt>
      <trkpt lat="40.721317296847701" lon="13.884703740477562">
        <ele>658.63999999999999</ele>
        <time>2018-09-26T09:55:56Z</time>
      </trkpt>
      <trkpt lat="40.721318135038018" lon="13.884697537869215">
        <ele>662.00999999999999</ele>
        <time>2018-09-26T09:56:00Z</time>
      </trkpt>
      <trkpt lat="40.721319811418653" lon="13.884696951135993">
        <ele>662.00999999999999</ele>
        <time>2018-09-26T09:56:01Z</time>
      </trkpt>
      <trkpt lat="40.721322325989604" lon="13.884696699678898">
        <ele>665.85000000000002</ele>
        <time>2018-09-26T09:56:02Z</time>
      </trkpt>
      <trkpt lat="40.721325511112809" lon="13.884694017469883">
        <ele>660.55999999999995</ele>
        <time>2018-09-26T09:56:03Z</time>
      </trkpt>
      <trkpt lat="40.721334312111139" lon="13.884718157351017">
        <ele>656.72000000000003</ele>
        <time>2018-09-26T09:56:06Z</time>
      </trkpt>
      <trkpt lat="40.721354261040688" lon="13.884727377444506">
        <ele>646.62</ele>
        <time>2018-09-26T09:56:08Z</time>
      </trkpt>
      <trkpt lat="40.72136121802032" lon="13.884729472920299">
        <ele>651.42999999999995</ele>
        <time>2018-09-26T09:56:09Z</time>
      </trkpt>
      <trkpt lat="40.721365995705128" lon="13.884727545082569">
        <ele>646.13999999999999</ele>
        <time>2018-09-26T09:56:10Z</time>
      </trkpt>
      <trkpt lat="40.721377059817314" lon="13.884726539254189">
        <ele>646.13999999999999</ele>
        <time>2018-09-26T09:56:14Z</time>
      </trkpt>
      <trkpt lat="40.721368929371238" lon="13.88473835773766">
        <ele>640.38</ele>
        <time>2018-09-26T09:56:17Z</time>
      </trkpt>
      <trkpt lat="40.721373036503792" lon="13.884742045775056">
        <ele>642.77999999999997</ele>
        <time>2018-09-26T09:56:18Z</time>
      </trkpt>
      <trkpt lat="40.721369683742523" lon="13.884745314717293">
        <ele>639.40999999999997</ele>
        <time>2018-09-26T09:56:19Z</time>
      </trkpt>
      <trkpt lat="40.721364486962557" lon="13.88474908657372">
        <ele>644.70000000000005</ele>
        <time>2018-09-26T09:56:21Z</time>
      </trkpt>
      <trkpt lat="40.721360798925161" lon="13.884749757125974">
        <ele>636.52999999999997</ele>
        <time>2018-09-26T09:56:22Z</time>
      </trkpt>
      <trkpt lat="40.721356607973576" lon="13.884754534810781">
        <ele>640.38</ele>
        <time>2018-09-26T09:56:23Z</time>
      </trkpt>
      <trkpt lat="40.7213519141078" lon="13.884762581437826">
        <ele>643.74000000000001</ele>
        <time>2018-09-26T09:56:24Z</time>
      </trkpt>
      <trkpt lat="40.721345711499453" lon="13.884765179827809">
        <ele>648.54999999999995</ele>
        <time>2018-09-26T09:56:25Z</time>
      </trkpt>
      <trkpt lat="40.721343951299787" lon="13.884765934199095">
        <ele>647.10000000000002</ele>
        <time>2018-09-26T09:56:29Z</time>
      </trkpt>
      <trkpt lat="40.721341101452708" lon="13.88477155007422">
        <ele>648.07000000000005</ele>
        <time>2018-09-26T09:56:36Z</time>
      </trkpt>
      <trkpt lat="40.721337916329503" lon="13.884772974997759">
        <ele>642.77999999999997</ele>
        <time>2018-09-26T09:56:39Z</time>
      </trkpt>
      <trkpt lat="40.721334563568234" lon="13.884777082130313">
        <ele>647.10000000000002</ele>
        <time>2018-09-26T09:56:43Z</time>
      </trkpt>
      <trkpt lat="40.72133481502533" lon="13.884779093787074">
        <ele>645.65999999999997</ele>
        <time>2018-09-26T09:56:47Z</time>
      </trkpt>
      <trkpt lat="40.721335234120488" lon="13.884777668863535">
        <ele>643.74000000000001</ele>
        <time>2018-09-26T09:56:50Z</time>
      </trkpt>
      <trkpt lat="40.721333054825664" lon="13.884779680520296">
        <ele>638.45000000000005</ele>
        <time>2018-09-26T09:56:56Z</time>
      </trkpt>
      <trkpt lat="40.721333893015981" lon="13.884780602529645">
        <ele>639.88999999999999</ele>
        <time>2018-09-26T09:56:57Z</time>
      </trkpt>
      <trkpt lat="40.721339257434011" lon="13.884774902835488">
        <ele>643.74000000000001</ele>
        <time>2018-09-26T09:57:02Z</time>
      </trkpt>
      <trkpt lat="40.721339089795947" lon="13.884773897007108">
        <ele>642.77999999999997</ele>
        <time>2018-09-26T09:57:06Z</time>
      </trkpt>
      <trkpt lat="40.721338586881757" lon="13.884777165949345">
        <ele>646.13999999999999</ele>
        <time>2018-09-26T09:57:07Z</time>
      </trkpt>
      <trkpt lat="40.721340011805296" lon="13.884780183434486">
        <ele>634.13</ele>
        <time>2018-09-26T09:57:08Z</time>
      </trkpt>
      <trkpt lat="40.721342526376247" lon="13.884781273081899">
        <ele>637.49000000000001</ele>
        <time>2018-09-26T09:57:09Z</time>
      </trkpt>
      <trkpt lat="40.72134755551815" lon="13.884783452376723">
        <ele>632.20000000000005</ele>
        <time>2018-09-26T09:57:10Z</time>
      </trkpt>
      <trkpt lat="40.721357362344861" lon="13.884795187041163">
        <ele>635.57000000000005</ele>
        <time>2018-09-26T09:57:14Z</time>
      </trkpt>
      <trkpt lat="40.721364738419652" lon="13.8847984559834">
        <ele>646.62</ele>
        <time>2018-09-26T09:57:16Z</time>
      </trkpt>
      <trkpt lat="40.721372282132506" lon="13.884806418791413">
        <ele>643.25999999999999</ele>
        <time>2018-09-26T09:57:18Z</time>
      </trkpt>
      <trkpt lat="40.721376724541187" lon="13.884805580601096">
        <ele>643.25999999999999</ele>
        <time>2018-09-26T09:57:19Z</time>
      </trkpt>
      <trkpt lat="40.721383513882756" lon="13.884787475690246">
        <ele>639.88999999999999</ele>
        <time>2018-09-26T09:57:21Z</time>
      </trkpt>
      <trkpt lat="40.721388207748532" lon="13.88477205298841">
        <ele>636.04999999999995</ele>
        <time>2018-09-26T09:57:23Z</time>
      </trkpt>
      <trkpt lat="40.721387453377247" lon="13.884768532589078">
        <ele>637.49000000000001</ele>
        <time>2018-09-26T09:57:24Z</time>
      </trkpt>
      <trkpt lat="40.721386363729835" lon="13.884759563952684">
        <ele>642.29999999999995</ele>
        <time>2018-09-26T09:57:27Z</time>
      </trkpt>
      <trkpt lat="40.721403630450368" lon="13.884746488183737">
        <ele>642.77999999999997</ele>
        <time>2018-09-26T09:57:29Z</time>
      </trkpt>
      <trkpt lat="40.721441935747862" lon="13.884719498455524">
        <ele>637.97000000000003</ele>
        <time>2018-09-26T09:57:32Z</time>
      </trkpt>
      <trkpt lat="40.721454173326492" lon="13.88471245765686">
        <ele>638.45000000000005</ele>
        <time>2018-09-26T09:57:33Z</time>
      </trkpt>
      <trkpt lat="40.721521228551865" lon="13.884692592546344">
        <ele>639.88999999999999</ele>
        <time>2018-09-26T09:57:39Z</time>
      </trkpt>
      <trkpt lat="40.721578309312463" lon="13.884682198986411">
        <ele>635.09000000000003</ele>
        <time>2018-09-26T09:57:46Z</time>
      </trkpt>
      <trkpt lat="40.721581745892763" lon="13.884691251441836">
        <ele>636.04999999999995</ele>
        <time>2018-09-26T09:57:47Z</time>
      </trkpt>
      <trkpt lat="40.721586188301444" lon="13.884704075753689">
        <ele>639.40999999999997</ele>
        <time>2018-09-26T09:57:49Z</time>
      </trkpt>
      <trkpt lat="40.721601946279407" lon="13.88472368940711">
        <ele>635.57000000000005</ele>
        <time>2018-09-26T09:57:53Z</time>
      </trkpt>
      <trkpt lat="40.721607226878405" lon="13.884728802368045">
        <ele>635.09000000000003</ele>
        <time>2018-09-26T09:57:54Z</time>
      </trkpt>
      <trkpt lat="40.721649639308453" lon="13.88473735190928">
        <ele>636.04999999999995</ele>
        <time>2018-09-26T09:58:01Z</time>
      </trkpt>
      <trkpt lat="40.721667911857367" lon="13.884753696620464">
        <ele>632.67999999999995</ele>
        <time>2018-09-26T09:58:03Z</time>
      </trkpt>
      <trkpt lat="40.721714347600937" lon="13.884780518710613">
        <ele>636.04999999999995</ele>
        <time>2018-09-26T09:58:07Z</time>
      </trkpt>
      <trkpt lat="40.721727507188916" lon="13.884787810966372">
        <ele>636.04999999999995</ele>
        <time>2018-09-26T09:58:08Z</time>
      </trkpt>
      <trkpt lat="40.721755586564541" lon="13.884822009131312">
        <ele>630.75999999999999</ele>
        <time>2018-09-26T09:58:11Z</time>
      </trkpt>
      <trkpt lat="40.721762795001268" lon="13.884833324700594">
        <ele>631.72000000000003</ele>
        <time>2018-09-26T09:58:12Z</time>
      </trkpt>
      <trkpt lat="40.721771344542503" lon="13.884852100163698">
        <ele>636.52999999999997</ele>
        <time>2018-09-26T09:58:14Z</time>
      </trkpt>
      <trkpt lat="40.721777211874723" lon="13.884858218953013">
        <ele>635.57000000000005</ele>
        <time>2018-09-26T09:58:15Z</time>
      </trkpt>
      <trkpt lat="40.721806799992919" lon="13.884876240044832">
        <ele>633.16999999999996</ele>
        <time>2018-09-26T09:58:18Z</time>
      </trkpt>
      <trkpt lat="40.721820211037993" lon="13.884910857304931">
        <ele>631.72000000000003</ele>
        <time>2018-09-26T09:58:23Z</time>
      </trkpt>
      <trkpt lat="40.72178291156888" lon="13.884872635826468">
        <ele>632.67999999999995</ele>
        <time>2018-09-26T09:58:28Z</time>
      </trkpt>
      <trkpt lat="40.721780816093087" lon="13.884869534522295">
        <ele>631.72000000000003</ele>
        <time>2018-09-26T09:58:30Z</time>
      </trkpt>
      <trkpt lat="40.721785509958863" lon="13.884889567270875">
        <ele>629.79999999999995</ele>
        <time>2018-09-26T09:58:35Z</time>
      </trkpt>
      <trkpt lat="40.72178777307272" lon="13.884899625554681">
        <ele>625.47000000000003</ele>
        <time>2018-09-26T09:58:39Z</time>
      </trkpt>
      <trkpt lat="40.721788359805942" lon="13.884907839819789">
        <ele>629.32000000000005</ele>
        <time>2018-09-26T09:58:41Z</time>
      </trkpt>
      <trkpt lat="40.72178777307272" lon="13.884911695495248">
        <ele>632.67999999999995</ele>
        <time>2018-09-26T09:58:43Z</time>
      </trkpt>
      <trkpt lat="40.721788108348846" lon="13.88491177931428">
        <ele>629.32000000000005</ele>
        <time>2018-09-26T09:58:44Z</time>
      </trkpt>
      <trkpt lat="40.721784001216292" lon="13.884908342733979">
        <ele>626.44000000000005</ele>
        <time>2018-09-26T09:58:49Z</time>
      </trkpt>
      <trkpt lat="40.721787018701434" lon="13.884910102933645">
        <ele>630.27999999999997</ele>
        <time>2018-09-26T09:58:53Z</time>
      </trkpt>
      <trkpt lat="40.721781319007277" lon="13.884909013286233">
        <ele>628.84000000000003</ele>
        <time>2018-09-26T09:58:59Z</time>
      </trkpt>
      <trkpt lat="40.721781486645341" lon="13.884909600019455">
        <ele>633.16999999999996</ele>
        <time>2018-09-26T09:59:00Z</time>
      </trkpt>
      <trkpt lat="40.721790287643671" lon="13.884905995801091">
        <ele>629.79999999999995</ele>
        <time>2018-09-26T09:59:04Z</time>
      </trkpt>
      <trkpt lat="40.721793305128813" lon="13.884908761829138">
        <ele>628.84000000000003</ele>
        <time>2018-09-26T09:59:06Z</time>
      </trkpt>
      <trkpt lat="40.721795316785574" lon="13.884906331077218">
        <ele>630.27999999999997</ele>
        <time>2018-09-26T09:59:11Z</time>
      </trkpt>
      <trkpt lat="40.721796741709113" lon="13.884907169267535">
        <ele>634.13</ele>
        <time>2018-09-26T09:59:25Z</time>
      </trkpt>
      <trkpt lat="40.721797496080399" lon="13.884905073791742">
        <ele>631.72000000000003</ele>
        <time>2018-09-26T09:59:26Z</time>
      </trkpt>
      <trkpt lat="40.72178777307272" lon="13.884905325248837">
        <ele>628.84000000000003</ele>
        <time>2018-09-26T09:59:37Z</time>
      </trkpt>
      <trkpt lat="40.721785677596927" lon="13.884908175095916">
        <ele>628.84000000000003</ele>
        <time>2018-09-26T09:59:44Z</time>
      </trkpt>
      <trkpt lat="40.721786264330149" lon="13.884909432381392">
        <ele>632.20000000000005</ele>
        <time>2018-09-26T09:59:45Z</time>
      </trkpt>
      <trkpt lat="40.721785007044673" lon="13.884910186752677">
        <ele>632.20000000000005</ele>
        <time>2018-09-26T09:59:46Z</time>
      </trkpt>
      <trkpt lat="40.721785509958863" lon="13.884917981922626">
        <ele>631.72000000000003</ele>
        <time>2018-09-26T10:00:00Z</time>
      </trkpt>
      <trkpt lat="40.721785090863705" lon="13.884917059913278">
        <ele>628.36000000000001</ele>
        <time>2018-09-26T10:00:01Z</time>
      </trkpt>
      <trkpt lat="40.721780816093087" lon="13.884916473180056">
        <ele>632.67999999999995</ele>
        <time>2018-09-26T10:00:04Z</time>
      </trkpt>
      <trkpt lat="40.721780983731151" lon="13.884915383532643">
        <ele>632.67999999999995</ele>
        <time>2018-09-26T10:00:05Z</time>
      </trkpt>
      <trkpt lat="40.721780816093087" lon="13.884914210066199">
        <ele>628.84000000000003</ele>
        <time>2018-09-26T10:00:06Z</time>
      </trkpt>
      <trkpt lat="40.721780313178897" lon="13.88491328805685">
        <ele>629.32000000000005</ele>
        <time>2018-09-26T10:00:07Z</time>
      </trkpt>
      <trkpt lat="40.721777630969882" lon="13.884909516200423">
        <ele>631.24000000000001</ele>
        <time>2018-09-26T10:00:10Z</time>
      </trkpt>
      <trkpt lat="40.721780983731151" lon="13.884909683838487">
        <ele>635.57000000000005</ele>
        <time>2018-09-26T10:00:24Z</time>
      </trkpt>
      <trkpt lat="40.721781319007277" lon="13.884910605847836">
        <ele>634.61000000000001</ele>
        <time>2018-09-26T10:00:25Z</time>
      </trkpt>
      <trkpt lat="40.72178240865469" lon="13.884912366047502">
        <ele>637.97000000000003</ele>
        <time>2018-09-26T10:00:28Z</time>
      </trkpt>
      <trkpt lat="40.721789197996259" lon="13.884908929467201">
        <ele>634.61000000000001</ele>
        <time>2018-09-26T10:00:30Z</time>
      </trkpt>
      <trkpt lat="40.721784671768546" lon="13.884905660524964">
        <ele>635.09000000000003</ele>
        <time>2018-09-26T10:00:36Z</time>
      </trkpt>
      <trkpt lat="40.721781402826309" lon="13.884913958609104">
        <ele>637.97000000000003</ele>
        <time>2018-09-26T10:00:55Z</time>
      </trkpt>
      <trkpt lat="40.72178048081696" lon="13.884914964437485">
        <ele>635.09000000000003</ele>
        <time>2018-09-26T10:00:58Z</time>
      </trkpt>
      <trkpt lat="40.721781151369214" lon="13.884915802627802">
        <ele>638.45000000000005</ele>
        <time>2018-09-26T10:01:09Z</time>
      </trkpt>
      <trkpt lat="40.721781486645341" lon="13.884913958609104">
        <ele>637.97000000000003</ele>
        <time>2018-09-26T10:01:10Z</time>
      </trkpt>
      <trkpt lat="40.721782492473722" lon="13.884918568655849">
        <ele>635.09000000000003</ele>
        <time>2018-09-26T10:01:13Z</time>
      </trkpt>
      <trkpt lat="40.721779391169548" lon="13.884911946952343">
        <ele>635.09000000000003</ele>
        <time>2018-09-26T10:01:18Z</time>
      </trkpt>
      <trkpt lat="40.721776289865375" lon="13.88490742072463">
        <ele>633.64999999999998</ele>
        <time>2018-09-26T10:01:22Z</time>
      </trkpt>
      <trkpt lat="40.721773942932487" lon="13.884907504543662">
        <ele>629.79999999999995</ele>
        <time>2018-09-26T10:01:25Z</time>
      </trkpt>
      <trkpt lat="40.721772769466043" lon="13.884906247258186">
        <ele>633.64999999999998</ele>
        <time>2018-09-26T10:01:38Z</time>
      </trkpt>
      <trkpt lat="40.721785593777895" lon="13.884892584756017">
        <ele>633.64999999999998</ele>
        <time>2018-09-26T10:01:47Z</time>
      </trkpt>
      <trkpt lat="40.7217887789011" lon="13.884890070185065">
        <ele>633.64999999999998</ele>
        <time>2018-09-26T10:01:48Z</time>
      </trkpt>
      <trkpt lat="40.72179171256721" lon="13.884887890890241">
        <ele>629.79999999999995</ele>
        <time>2018-09-26T10:01:49Z</time>
      </trkpt>
      <trkpt lat="40.721794310957193" lon="13.884880682453513">
        <ele>629.32000000000005</ele>
        <time>2018-09-26T10:01:51Z</time>
      </trkpt>
      <trkpt lat="40.721790455281734" lon="13.884878922253847">
        <ele>634.13</ele>
        <time>2018-09-26T10:01:53Z</time>
      </trkpt>
      <trkpt lat="40.721785677596927" lon="13.884884789586067">
        <ele>637.97000000000003</ele>
        <time>2018-09-26T10:01:55Z</time>
      </trkpt>
      <trkpt lat="40.721779810264707" lon="13.884890573099256">
        <ele>633.64999999999998</ele>
        <time>2018-09-26T10:01:57Z</time>
      </trkpt>
      <trkpt lat="40.721779894083738" lon="13.884890070185065">
        <ele>632.67999999999995</ele>
        <time>2018-09-26T10:01:59Z</time>
      </trkpt>
      <trkpt lat="40.721785593777895" lon="13.884885627776384">
        <ele>634.13</ele>
        <time>2018-09-26T10:02:02Z</time>
      </trkpt>
      <trkpt lat="40.721772098913789" lon="13.884886968880892">
        <ele>638.45000000000005</ele>
        <time>2018-09-26T10:02:08Z</time>
      </trkpt>
      <trkpt lat="40.721772518008947" lon="13.884886214509606">
        <ele>636.04999999999995</ele>
        <time>2018-09-26T10:02:09Z</time>
      </trkpt>
      <trkpt lat="40.721770338714123" lon="13.88489032164216">
        <ele>630.75999999999999</ele>
        <time>2018-09-26T10:02:13Z</time>
      </trkpt>
      <trkpt lat="40.721772015094757" lon="13.884887974709272">
        <ele>633.16999999999996</ele>
        <time>2018-09-26T10:02:14Z</time>
      </trkpt>
      <trkpt lat="40.72177360765636" lon="13.884868947789073">
        <ele>637.49000000000001</ele>
        <time>2018-09-26T10:02:19Z</time>
      </trkpt>
      <trkpt lat="40.721804369240999" lon="13.884891914203763">
        <ele>637.00999999999999</ele>
        <time>2018-09-26T10:02:23Z</time>
      </trkpt>
      <trkpt lat="40.721831945702434" lon="13.884938517585397">
        <ele>632.67999999999995</ele>
        <time>2018-09-26T10:02:27Z</time>
      </trkpt>
      <trkpt lat="40.721834544092417" lon="13.884951258078218">
        <ele>634.13</ele>
        <time>2018-09-26T10:02:28Z</time>
      </trkpt>
      <trkpt lat="40.721888691186905" lon="13.885097941383719">
        <ele>637.49000000000001</ele>
        <time>2018-09-26T10:02:40Z</time>
      </trkpt>
      <trkpt lat="40.721891038119793" lon="13.885109256953001">
        <ele>636.52999999999997</ele>
        <time>2018-09-26T10:02:41Z</time>
      </trkpt>
      <trkpt lat="40.721889780834317" lon="13.885148232802749">
        <ele>637.97000000000003</ele>
        <time>2018-09-26T10:02:44Z</time>
      </trkpt>
      <trkpt lat="40.721887852996588" lon="13.885177820920944">
        <ele>636.04999999999995</ele>
        <time>2018-09-26T10:02:46Z</time>
      </trkpt>
      <trkpt lat="40.721940910443664" lon="13.885274967178702">
        <ele>632.67999999999995</ele>
        <time>2018-09-26T10:02:56Z</time>
      </trkpt>
      <trkpt lat="40.721950298175216" lon="13.885284438729286">
        <ele>633.16999999999996</ele>
        <time>2018-09-26T10:02:57Z</time>
      </trkpt>
      <trkpt lat="40.722021711990237" lon="13.885386446490884">
        <ele>633.64999999999998</ele>
        <time>2018-09-26T10:03:07Z</time>
      </trkpt>
      <trkpt lat="40.722020119428635" lon="13.885446628555655">
        <ele>636.52999999999997</ele>
        <time>2018-09-26T10:03:11Z</time>
      </trkpt>
      <trkpt lat="40.722019197419286" lon="13.885476719588041">
        <ele>637.49000000000001</ele>
        <time>2018-09-26T10:03:13Z</time>
      </trkpt>
      <trkpt lat="40.722020789980888" lon="13.885489292442799">
        <ele>634.13</ele>
        <time>2018-09-26T10:03:14Z</time>
      </trkpt>
      <trkpt lat="40.722024729475379" lon="13.885505720973015">
        <ele>630.75999999999999</ele>
        <time>2018-09-26T10:03:15Z</time>
      </trkpt>
      <trkpt lat="40.722051383927464" lon="13.885565148666501">
        <ele>634.13</ele>
        <time>2018-09-26T10:03:20Z</time>
      </trkpt>
      <trkpt lat="40.722110727801919" lon="13.885690039023757">
        <ele>632.20000000000005</ele>
        <time>2018-09-26T10:03:32Z</time>
      </trkpt>
      <trkpt lat="40.722108297049999" lon="13.885724237188697">
        <ele>634.61000000000001</ele>
        <time>2018-09-26T10:03:34Z</time>
      </trkpt>
      <trkpt lat="40.722107123583555" lon="13.885811325162649">
        <ele>633.16999999999996</ele>
        <time>2018-09-26T10:03:44Z</time>
      </trkpt>
      <trkpt lat="40.722119109705091" lon="13.885810989886522">
        <ele>628.36000000000001</ele>
        <time>2018-09-26T10:03:49Z</time>
      </trkpt>
      <trkpt lat="40.722133191302419" lon="13.885802356526256">
        <ele>626.91999999999996</ele>
        <time>2018-09-26T10:03:51Z</time>
      </trkpt>
      <trkpt lat="40.722133694216609" lon="13.885798081755638">
        <ele>627.88</ele>
        <time>2018-09-26T10:03:53Z</time>
      </trkpt>
      <trkpt lat="40.722143668681383" lon="13.885771427303553">
        <ele>628.84000000000003</ele>
        <time>2018-09-26T10:03:56Z</time>
      </trkpt>
      <trkpt lat="40.722156912088394" lon="13.885685261338949">
        <ele>631.72000000000003</ele>
        <time>2018-09-26T10:04:04Z</time>
      </trkpt>
      <trkpt lat="40.722166132181883" lon="13.885633796453476">
        <ele>627.39999999999998</ele>
        <time>2018-09-26T10:04:15Z</time>
      </trkpt>
      <trkpt lat="40.722180800512433" lon="13.885622480884194">
        <ele>631.24000000000001</ele>
        <time>2018-09-26T10:04:18Z</time>
      </trkpt>
      <trkpt lat="40.722189350053668" lon="13.885633628815413">
        <ele>634.61000000000001</ele>
        <time>2018-09-26T10:04:20Z</time>
      </trkpt>
      <trkpt lat="40.722196809947491" lon="13.885653745383024">
        <ele>631.72000000000003</ele>
        <time>2018-09-26T10:04:22Z</time>
      </trkpt>
      <trkpt lat="40.722198486328125" lon="13.885664390400052">
        <ele>631.72000000000003</ele>
        <time>2018-09-26T10:04:23Z</time>
      </trkpt>
      <trkpt lat="40.722204353660345" lon="13.88567847199738">
        <ele>629.79999999999995</ele>
        <time>2018-09-26T10:04:25Z</time>
      </trkpt>
      <trkpt lat="40.722235534340143" lon="13.885686015710235">
        <ele>626.91999999999996</ele>
        <time>2018-09-26T10:04:33Z</time>
      </trkpt>
      <trkpt lat="40.722243580967188" lon="13.885684926062822">
        <ele>626.44000000000005</ele>
        <time>2018-09-26T10:04:34Z</time>
      </trkpt>
      <trkpt lat="40.722270486876369" lon="13.885678974911571">
        <ele>623.07000000000005</ele>
        <time>2018-09-26T10:04:38Z</time>
      </trkpt>
      <trkpt lat="40.722274091094732" lon="13.8856809027493">
        <ele>623.07000000000005</ele>
        <time>2018-09-26T10:04:39Z</time>
      </trkpt>
      <trkpt lat="40.722322622314095" lon="13.885677633807063">
        <ele>625.96000000000004</ele>
        <time>2018-09-26T10:04:49Z</time>
      </trkpt>
      <trkpt lat="40.722375847399235" lon="13.88566137291491">
        <ele>627.39999999999998</ele>
        <time>2018-09-26T10:04:59Z</time>
      </trkpt>
      <trkpt lat="40.722395880147815" lon="13.885642429813743">
        <ele>624.02999999999997</ele>
        <time>2018-09-26T10:05:06Z</time>
      </trkpt>
      <trkpt lat="40.722395041957498" lon="13.885649722069502">
        <ele>624.99000000000001</ele>
        <time>2018-09-26T10:05:07Z</time>
      </trkpt>
      <trkpt lat="40.722394036129117" lon="13.885652907192707">
        <ele>625.96000000000004</ele>
        <time>2018-09-26T10:05:09Z</time>
      </trkpt>
      <trkpt lat="40.722370147705078" lon="13.885683417320251">
        <ele>624.02999999999997</ele>
        <time>2018-09-26T10:05:23Z</time>
      </trkpt>
      <trkpt lat="40.722401412203908" lon="13.885642597451806">
        <ele>624.99000000000001</ele>
        <time>2018-09-26T10:05:36Z</time>
      </trkpt>
      <trkpt lat="40.722393533214927" lon="13.885640669614077">
        <ele>623.07000000000005</ele>
        <time>2018-09-26T10:05:41Z</time>
      </trkpt>
      <trkpt lat="40.72237852960825" lon="13.885587276890874">
        <ele>620.66999999999996</ele>
        <time>2018-09-26T10:05:52Z</time>
      </trkpt>
      <trkpt lat="40.722364699468017" lon="13.885507900267839">
        <ele>618.75</ele>
        <time>2018-09-26T10:06:05Z</time>
      </trkpt>
      <trkpt lat="40.722350617870688" lon="13.885441683232784">
        <ele>617.77999999999997</ele>
        <time>2018-09-26T10:06:15Z</time>
      </trkpt>
      <trkpt lat="40.722350869327784" lon="13.88538477011025">
        <ele>616.82000000000005</ele>
        <time>2018-09-26T10:06:25Z</time>
      </trkpt>
      <trkpt lat="40.722384648397565" lon="13.8853061478585">
        <ele>613.94000000000005</ele>
        <time>2018-09-26T10:06:33Z</time>
      </trkpt>
      <trkpt lat="40.722394119948149" lon="13.885247306898236">
        <ele>611.53999999999996</ele>
        <time>2018-09-26T10:06:39Z</time>
      </trkpt>
      <trkpt lat="40.722383894026279" lon="13.885187292471528">
        <ele>610.09000000000003</ele>
        <time>2018-09-26T10:06:52Z</time>
      </trkpt>
      <trkpt lat="40.722390096634626" lon="13.885172456502914">
        <ele>608.64999999999998</ele>
        <time>2018-09-26T10:06:55Z</time>
      </trkpt>
      <trkpt lat="40.722420606762171" lon="13.885076818987727">
        <ele>606.73000000000002</ele>
        <time>2018-09-26T10:07:09Z</time>
      </trkpt>
      <trkpt lat="40.722429743036628" lon="13.885001633316278">
        <ele>606.25</ele>
        <time>2018-09-26T10:07:20Z</time>
      </trkpt>
      <trkpt lat="40.722463605925441" lon="13.884908678010106">
        <ele>604.80999999999995</ele>
        <time>2018-09-26T10:07:31Z</time>
      </trkpt>
      <trkpt lat="40.7224743347615" lon="13.884825026616454">
        <ele>601.91999999999996</ele>
        <time>2018-09-26T10:07:41Z</time>
      </trkpt>
      <trkpt lat="40.722481710836291" lon="13.884721929207444">
        <ele>600.48000000000002</ele>
        <time>2018-09-26T10:07:51Z</time>
      </trkpt>
      <trkpt lat="40.722461929544806" lon="13.884642468765378">
        <ele>599.51999999999998</ele>
        <time>2018-09-26T10:08:00Z</time>
      </trkpt>
      <trkpt lat="40.722455056384206" lon="13.884580610319972">
        <ele>597.60000000000002</ele>
        <time>2018-09-26T10:08:10Z</time>
      </trkpt>
      <trkpt lat="40.722452960908413" lon="13.884547920897603">
        <ele>595.19000000000005</ele>
        <time>2018-09-26T10:08:20Z</time>
      </trkpt>
      <trkpt lat="40.722448015585542" lon="13.884461587294936">
        <ele>594.23000000000002</ele>
        <time>2018-09-26T10:08:31Z</time>
      </trkpt>
      <trkpt lat="40.72246016934514" lon="13.884396040812135">
        <ele>593.26999999999998</ele>
        <time>2018-09-26T10:08:39Z</time>
      </trkpt>
      <trkpt lat="40.722430245950818" lon="13.884311970323324">
        <ele>592.30999999999995</ele>
        <time>2018-09-26T10:08:50Z</time>
      </trkpt>
      <trkpt lat="40.722402920946479" lon="13.884208872914314">
        <ele>590.38999999999999</ele>
        <time>2018-09-26T10:09:01Z</time>
      </trkpt>
      <trkpt lat="40.722377356141806" lon="13.88414659537375">
        <ele>588.95000000000005</ele>
        <time>2018-09-26T10:09:10Z</time>
      </trkpt>
      <trkpt lat="40.722398227080703" lon="13.884113822132349">
        <ele>587.01999999999998</ele>
        <time>2018-09-26T10:09:19Z</time>
      </trkpt>
      <trkpt lat="40.722412979230285" lon="13.884113319218159">
        <ele>586.05999999999995</ele>
        <time>2018-09-26T10:09:29Z</time>
      </trkpt>
      <trkpt lat="40.722427479922771" lon="13.884088592603803">
        <ele>586.05999999999995</ele>
        <time>2018-09-26T10:09:35Z</time>
      </trkpt>
      <trkpt lat="40.722469054162502" lon="13.884031847119331">
        <ele>584.13999999999999</ele>
        <time>2018-09-26T10:09:45Z</time>
      </trkpt>
      <trkpt lat="40.722517836838961" lon="13.88402740471065">
        <ele>585.10000000000002</ele>
        <time>2018-09-26T10:09:55Z</time>
      </trkpt>
      <trkpt lat="40.72254323400557" lon="13.884089682251215">
        <ele>586.53999999999996</ele>
        <time>2018-09-26T10:10:04Z</time>
      </trkpt>
      <trkpt lat="40.722563937306404" lon="13.884169058874249">
        <ele>584.13999999999999</ele>
        <time>2018-09-26T10:10:11Z</time>
      </trkpt>
      <trkpt lat="40.722601655870676" lon="13.884277688339353">
        <ele>583.17999999999995</ele>
        <time>2018-09-26T10:10:23Z</time>
      </trkpt>
      <trkpt lat="40.72265462949872" lon="13.884388161823153">
        <ele>580.28999999999996</ele>
        <time>2018-09-26T10:10:34Z</time>
      </trkpt>
      <trkpt lat="40.72269662283361" lon="13.884429819881916">
        <ele>578.85000000000002</ele>
        <time>2018-09-26T10:10:42Z</time>
      </trkpt>
      <trkpt lat="40.722784381359816" lon="13.884474076330662">
        <ele>578.37</ele>
        <time>2018-09-26T10:10:54Z</time>
      </trkpt>
      <trkpt lat="40.722822938114405" lon="13.884440967813134">
        <ele>577.40999999999997</ele>
        <time>2018-09-26T10:11:07Z</time>
      </trkpt>
      <trkpt lat="40.722776753827929" lon="13.884402913972735">
        <ele>574.52999999999997</ele>
        <time>2018-09-26T10:11:19Z</time>
      </trkpt>
      <trkpt lat="40.722763258963823" lon="13.8843166641891">
        <ele>572.12</ele>
        <time>2018-09-26T10:11:30Z</time>
      </trkpt>
      <trkpt lat="40.722787566483021" lon="13.884250866249204">
        <ele>570.67999999999995</ele>
        <time>2018-09-26T10:11:42Z</time>
      </trkpt>
      <trkpt lat="40.722812125459313" lon="13.884203843772411">
        <ele>568.75999999999999</ele>
        <time>2018-09-26T10:11:52Z</time>
      </trkpt>
      <trkpt lat="40.722859818488359" lon="13.884216165170074">
        <ele>568.27999999999997</ele>
        <time>2018-09-26T10:12:03Z</time>
      </trkpt>
      <trkpt lat="40.722890244796872" lon="13.884146763011813">
        <ele>566.35000000000002</ele>
        <time>2018-09-26T10:12:15Z</time>
      </trkpt>
      <trkpt lat="40.722940117120743" lon="13.884104350581765">
        <ele>566.35000000000002</ele>
        <time>2018-09-26T10:12:26Z</time>
      </trkpt>
      <trkpt lat="40.722919916734099" lon="13.884111642837524">
        <ele>564.90999999999997</ele>
        <time>2018-09-26T10:12:37Z</time>
      </trkpt>
      <trkpt lat="40.722927963361144" lon="13.884098650887609">
        <ele>565.87</ele>
        <time>2018-09-26T10:12:55Z</time>
      </trkpt>
      <trkpt lat="40.722925700247288" lon="13.884086329489946">
        <ele>566.35000000000002</ele>
        <time>2018-09-26T10:13:08Z</time>
      </trkpt>
      <trkpt lat="40.722925784066319" lon="13.884083228185773">
        <ele>565.87</ele>
        <time>2018-09-26T10:13:26Z</time>
      </trkpt>
      <trkpt lat="40.722913797944784" lon="13.884074511006474">
        <ele>564.42999999999995</ele>
        <time>2018-09-26T10:13:34Z</time>
      </trkpt>
      <trkpt lat="40.722917150706053" lon="13.884047605097294">
        <ele>562.99000000000001</ele>
        <time>2018-09-26T10:13:37Z</time>
      </trkpt>
      <trkpt lat="40.722925364971161" lon="13.883929336443543">
        <ele>563.47000000000003</ele>
        <time>2018-09-26T10:13:50Z</time>
      </trkpt>
      <trkpt lat="40.722932992503047" lon="13.883864711970091">
        <ele>562.99000000000001</ele>
        <time>2018-09-26T10:14:00Z</time>
      </trkpt>
      <trkpt lat="40.722904913127422" lon="13.883829172700644">
        <ele>562.99000000000001</ele>
        <time>2018-09-26T10:14:11Z</time>
      </trkpt>
      <trkpt lat="40.722916731610894" lon="13.883741749450564">
        <ele>564.90999999999997</ele>
        <time>2018-09-26T10:14:21Z</time>
      </trkpt>
      <trkpt lat="40.722956210374832" lon="13.883713753893971">
        <ele>562.50999999999999</ele>
        <time>2018-09-26T10:14:30Z</time>
      </trkpt>
      <trkpt lat="40.723000634461641" lon="13.883691960945725">
        <ele>561.07000000000005</ele>
        <time>2018-09-26T10:14:42Z</time>
      </trkpt>
      <trkpt lat="40.723067354410887" lon="13.883696151897311">
        <ele>557.70000000000005</ele>
        <time>2018-09-26T10:14:51Z</time>
      </trkpt>
      <trkpt lat="40.723138432949781" lon="13.883666479960084">
        <ele>555.29999999999995</ele>
        <time>2018-09-26T10:15:04Z</time>
      </trkpt>
      <trkpt lat="40.723180007189512" lon="13.883661283180118">
        <ele>555.29999999999995</ele>
        <time>2018-09-26T10:15:13Z</time>
      </trkpt>
      <trkpt lat="40.723203979432583" lon="13.883603950962424">
        <ele>554.34000000000003</ele>
        <time>2018-09-26T10:15:23Z</time>
      </trkpt>
      <trkpt lat="40.723187802359462" lon="13.883515270426869">
        <ele>551.92999999999995</ele>
        <time>2018-09-26T10:15:33Z</time>
      </trkpt>
      <trkpt lat="40.723195178434253" lon="13.883499763906002">
        <ele>550.97000000000003</ele>
        <time>2018-09-26T10:15:35Z</time>
      </trkpt>
      <trkpt lat="40.723205404356122" lon="13.883443102240562">
        <ele>548.57000000000005</ele>
        <time>2018-09-26T10:15:43Z</time>
      </trkpt>
      <trkpt lat="40.723246224224567" lon="13.883448047563434">
        <ele>547.13</ele>
        <time>2018-09-26T10:15:50Z</time>
      </trkpt>
      <trkpt lat="40.723292157053947" lon="13.883503871038556">
        <ele>543.75999999999999</ele>
        <time>2018-09-26T10:15:59Z</time>
      </trkpt>
      <trkpt lat="40.723368264734745" lon="13.883556509390473">
        <ele>542.32000000000005</ele>
        <time>2018-09-26T10:16:11Z</time>
      </trkpt>
      <trkpt lat="40.723381927236915" lon="13.883570842444897">
        <ele>542.32000000000005</ele>
        <time>2018-09-26T10:16:13Z</time>
      </trkpt>
      <trkpt lat="40.723485108464956" lon="13.88359984382987">
        <ele>541.84000000000003</ele>
        <time>2018-09-26T10:16:25Z</time>
      </trkpt>
      <trkpt lat="40.723546966910362" lon="13.88359003700316">
        <ele>541.36000000000001</ele>
        <time>2018-09-26T10:16:35Z</time>
      </trkpt>
      <trkpt lat="40.723614105954766" lon="13.883583834394813">
        <ele>538.96000000000004</ele>
        <time>2018-09-26T10:16:45Z</time>
      </trkpt>
      <trkpt lat="40.723705468699336" lon="13.883558018133044">
        <ele>536.54999999999995</ele>
        <time>2018-09-26T10:16:57Z</time>
      </trkpt>
      <trkpt lat="40.723769003525376" lon="13.883560365065932">
        <ele>536.07000000000005</ele>
        <time>2018-09-26T10:17:09Z</time>
      </trkpt>
      <trkpt lat="40.723795825615525" lon="13.883567741140723">
        <ele>534.63</ele>
        <time>2018-09-26T10:17:24Z</time>
      </trkpt>
      <trkpt lat="40.723853912204504" lon="13.883554581552744">
        <ele>533.19000000000005</ele>
        <time>2018-09-26T10:17:33Z</time>
      </trkpt>
      <trkpt lat="40.723973270505667" lon="13.883563047274947">
        <ele>533.66999999999996</ele>
        <time>2018-09-26T10:17:47Z</time>
      </trkpt>
      <trkpt lat="40.724036134779453" lon="13.883565310388803">
        <ele>534.63</ele>
        <time>2018-09-26T10:17:58Z</time>
      </trkpt>
      <trkpt lat="40.724035296589136" lon="13.883565310388803">
        <ele>534.14999999999998</ele>
        <time>2018-09-26T10:18:00Z</time>
      </trkpt>
      <trkpt lat="40.724095059558749" lon="13.883560448884964">
        <ele>533.66999999999996</ele>
        <time>2018-09-26T10:18:12Z</time>
      </trkpt>
      <trkpt lat="40.724195726215839" lon="13.883525244891644">
        <ele>531.26999999999998</ele>
        <time>2018-09-26T10:18:26Z</time>
      </trkpt>
      <trkpt lat="40.724241910502315" lon="13.883469169959426">
        <ele>527.89999999999998</ele>
        <time>2018-09-26T10:18:38Z</time>
      </trkpt>
      <trkpt lat="40.724263619631529" lon="13.883422231301665">
        <ele>525.01999999999998</ele>
        <time>2018-09-26T10:18:49Z</time>
      </trkpt>
      <trkpt lat="40.724223302677274" lon="13.883380405604839">
        <ele>524.05999999999995</ele>
        <time>2018-09-26T10:19:00Z</time>
      </trkpt>
      <trkpt lat="40.724190529435873" lon="13.883333383128047">
        <ele>521.64999999999998</ele>
        <time>2018-09-26T10:19:10Z</time>
      </trkpt>
      <trkpt lat="40.724183572456241" lon="13.88326414860785">
        <ele>520.21000000000004</ele>
        <time>2018-09-26T10:19:20Z</time>
      </trkpt>
      <trkpt lat="40.724241910502315" lon="13.883206397294998">
        <ele>519.25</ele>
        <time>2018-09-26T10:19:29Z</time>
      </trkpt>
      <trkpt lat="40.724205784499645" lon="13.883228609338403">
        <ele>517.33000000000004</ele>
        <time>2018-09-26T10:19:39Z</time>
      </trkpt>
      <trkpt lat="40.724215758964419" lon="13.883219221606851">
        <ele>517.33000000000004</ele>
        <time>2018-09-26T10:19:49Z</time>
      </trkpt>
      <trkpt lat="40.724239898845553" lon="13.88318695127964">
        <ele>517.33000000000004</ele>
        <time>2018-09-26T10:20:04Z</time>
      </trkpt>
      <trkpt lat="40.724236126989126" lon="13.883194997906685">
        <ele>518.76999999999998</ele>
        <time>2018-09-26T10:20:08Z</time>
      </trkpt>
      <trkpt lat="40.72423042729497" lon="13.883240846917033">
        <ele>518.28999999999996</ele>
        <time>2018-09-26T10:20:30Z</time>
      </trkpt>
      <trkpt lat="40.72423336096108" lon="13.883245205506682">
        <ele>519.25</ele>
        <time>2018-09-26T10:20:49Z</time>
      </trkpt>
      <trkpt lat="40.724231768399477" lon="13.883248390629888">
        <ele>517.80999999999995</ele>
        <time>2018-09-26T10:21:11Z</time>
      </trkpt>
      <trkpt lat="40.724252220243216" lon="13.883190806955099">
        <ele>519.25</ele>
        <time>2018-09-26T10:21:29Z</time>
      </trkpt>
      <trkpt lat="40.724260015413165" lon="13.883185861632228">
        <ele>520.69000000000005</ele>
        <time>2018-09-26T10:21:44Z</time>
      </trkpt>
      <trkpt lat="40.724277449771762" lon="13.883172366768122">
        <ele>522.13</ele>
        <time>2018-09-26T10:22:04Z</time>
      </trkpt>
      <trkpt lat="40.724267559126019" lon="13.883181167766452">
        <ele>520.69000000000005</ele>
        <time>2018-09-26T10:22:08Z</time>
      </trkpt>
      <trkpt lat="40.724307289347053" lon="13.883171277120709">
        <ele>518.76999999999998</ele>
        <time>2018-09-26T10:22:16Z</time>
      </trkpt>
      <trkpt lat="40.72443519718945" lon="13.883133055642247">
        <ele>517.80999999999995</ele>
        <time>2018-09-26T10:22:31Z</time>
      </trkpt>
      <trkpt lat="40.724444249644876" lon="13.883129032328725">
        <ele>517.80999999999995</ele>
        <time>2018-09-26T10:22:32Z</time>
      </trkpt>
      <trkpt lat="40.724546676501632" lon="13.883101958781481">
        <ele>517.80999999999995</ele>
        <time>2018-09-26T10:22:44Z</time>
      </trkpt>
      <trkpt lat="40.724635776132345" lon="13.883094834163785">
        <ele>514.44000000000005</ele>
        <time>2018-09-26T10:22:56Z</time>
      </trkpt>
      <trkpt lat="40.72473568841815" lon="13.883084775879979">
        <ele>512.03999999999996</ele>
        <time>2018-09-26T10:23:07Z</time>
      </trkpt>
      <trkpt lat="40.724823949858546" lon="13.883071951568127">
        <ele>513.96000000000004</ele>
        <time>2018-09-26T10:23:17Z</time>
      </trkpt>
      <trkpt lat="40.724935596808791" lon="13.883099863305688">
        <ele>513</ele>
        <time>2018-09-26T10:23:29Z</time>
      </trkpt>
      <trkpt lat="40.725050093606114" lon="13.883113944903016">
        <ele>511.56</ele>
        <time>2018-09-26T10:23:41Z</time>
      </trkpt>
      <trkpt lat="40.72513441555202" lon="13.883135402575135">
        <ele>513</ele>
        <time>2018-09-26T10:23:50Z</time>
      </trkpt>
      <trkpt lat="40.725214965641499" lon="13.883197093382478">
        <ele>512.51999999999998</ele>
        <time>2018-09-26T10:24:01Z</time>
      </trkpt>
      <trkpt lat="40.725357793271542" lon="13.883220981806517">
        <ele>513</ele>
        <time>2018-09-26T10:24:15Z</time>
      </trkpt>
      <trkpt lat="40.725455274805427" lon="13.883225927129388">
        <ele>513.48000000000002</ele>
        <time>2018-09-26T10:24:29Z</time>
      </trkpt>
      <trkpt lat="40.725561305880547" lon="13.883261885493994">
        <ele>513</ele>
        <time>2018-09-26T10:24:40Z</time>
      </trkpt>
      <trkpt lat="40.72562106885016" lon="13.883304549381137">
        <ele>514.44000000000005</ele>
        <time>2018-09-26T10:24:51Z</time>
      </trkpt>
      <trkpt lat="40.725673539564013" lon="13.883358612656593">
        <ele>516.85000000000002</ele>
        <time>2018-09-26T10:25:02Z</time>
      </trkpt>
      <trkpt lat="40.725717125460505" lon="13.883414436131716">
        <ele>518.28999999999996</ele>
        <time>2018-09-26T10:25:13Z</time>
      </trkpt>
      <trkpt lat="40.725731709972024" lon="13.883421057835221">
        <ele>519.25</ele>
        <time>2018-09-26T10:25:16Z</time>
      </trkpt>
      <trkpt lat="40.7257847674191" lon="13.883474031463265">
        <ele>521.16999999999996</ele>
        <time>2018-09-26T10:25:26Z</time>
      </trkpt>
      <trkpt lat="40.725818043574691" lon="13.88349280692637">
        <ele>521.64999999999998</ele>
        <time>2018-09-26T10:25:38Z</time>
      </trkpt>
      <trkpt lat="40.725824246183038" lon="13.88349280692637">
        <ele>522.13</ele>
        <time>2018-09-26T10:25:50Z</time>
      </trkpt>
      <trkpt lat="40.725876884534955" lon="13.883516024798155">
        <ele>523.58000000000004</ele>
        <time>2018-09-26T10:26:00Z</time>
      </trkpt>
      <trkpt lat="40.725909238681197" lon="13.883527088910341">
        <ele>522.61000000000001</ele>
        <time>2018-09-26T10:26:05Z</time>
      </trkpt>
      <trkpt lat="40.725951734930277" lon="13.883543685078621">
        <ele>525.98000000000002</ele>
        <time>2018-09-26T10:26:11Z</time>
      </trkpt>
      <trkpt lat="40.726011916995049" lon="13.883548714220524">
        <ele>526.46000000000004</ele>
        <time>2018-09-26T10:26:19Z</time>
      </trkpt>
      <trkpt lat="40.726068075746298" lon="13.883567238226533">
        <ele>526.94000000000005</ele>
        <time>2018-09-26T10:26:29Z</time>
      </trkpt>
      <trkpt lat="40.726084923371673" lon="13.883564807474613">
        <ele>526.46000000000004</ele>
        <time>2018-09-26T10:26:37Z</time>
      </trkpt>
      <trkpt lat="40.726070171222091" lon="13.883552234619856">
        <ele>528.86000000000001</ele>
        <time>2018-09-26T10:26:47Z</time>
      </trkpt>
      <trkpt lat="40.726076625287533" lon="13.883553994819522">
        <ele>527.89999999999998</ele>
        <time>2018-09-26T10:27:04Z</time>
      </trkpt>
      <trkpt lat="40.726065980270505" lon="13.883557682856917">
        <ele>526.94000000000005</ele>
        <time>2018-09-26T10:27:16Z</time>
      </trkpt>
      <trkpt lat="40.726076290011406" lon="13.88355877250433">
        <ele>524.53999999999996</ele>
        <time>2018-09-26T10:27:30Z</time>
      </trkpt>
      <trkpt lat="40.726083246991038" lon="13.883563634008169">
        <ele>524.05999999999995</ele>
        <time>2018-09-26T10:27:41Z</time>
      </trkpt>
      <trkpt lat="40.726082660257816" lon="13.883566986769438">
        <ele>528.86000000000001</ele>
        <time>2018-09-26T10:27:49Z</time>
      </trkpt>
      <trkpt lat="40.726076625287533" lon="13.883563214913011">
        <ele>527.41999999999996</ele>
        <time>2018-09-26T10:28:01Z</time>
      </trkpt>
      <trkpt lat="40.726095903664827" lon="13.883586097508669">
        <ele>527.89999999999998</ele>
        <time>2018-09-26T10:28:15Z</time>
      </trkpt>
      <trkpt lat="40.72608333081007" lon="13.883572099730372">
        <ele>528.38</ele>
        <time>2018-09-26T10:28:30Z</time>
      </trkpt>
      <trkpt lat="40.726070590317249" lon="13.883574195206165">
        <ele>525.98000000000002</ele>
        <time>2018-09-26T10:28:45Z</time>
      </trkpt>
      <trkpt lat="40.726055167615414" lon="13.883556509390473">
        <ele>525.5</ele>
        <time>2018-09-26T10:29:04Z</time>
      </trkpt>
      <trkpt lat="40.726061621680856" lon="13.883553743362427">
        <ele>525.01999999999998</ele>
        <time>2018-09-26T10:29:14Z</time>
      </trkpt>
      <trkpt lat="40.72606866247952" lon="13.883549971506">
        <ele>528.38</ele>
        <time>2018-09-26T10:29:23Z</time>
      </trkpt>
      <trkpt lat="40.726079139858484" lon="13.883565561845899">
        <ele>527.41999999999996</ele>
        <time>2018-09-26T10:29:38Z</time>
      </trkpt>
      <trkpt lat="40.726074445992708" lon="13.883571848273277">
        <ele>527.41999999999996</ele>
        <time>2018-09-26T10:29:58Z</time>
      </trkpt>
      <trkpt lat="40.726076625287533" lon="13.883569249883294">
        <ele>525.98000000000002</ele>
        <time>2018-09-26T10:30:15Z</time>
      </trkpt>
      <trkpt lat="40.726089617237449" lon="13.88359154574573">
        <ele>525.5</ele>
        <time>2018-09-26T10:30:37Z</time>
      </trkpt>
      <trkpt lat="40.726100262254477" lon="13.88357394374907">
        <ele>528.38</ele>
        <time>2018-09-26T10:31:06Z</time>
      </trkpt>
      <trkpt lat="40.726087940856814" lon="13.883585091680288">
        <ele>526.94000000000005</ele>
        <time>2018-09-26T10:31:18Z</time>
      </trkpt>
      <trkpt lat="40.726107051596045" lon="13.883585762232542">
        <ele>525.5</ele>
        <time>2018-09-26T10:31:31Z</time>
      </trkpt>
      <trkpt lat="40.726129850372672" lon="13.883605124428868">
        <ele>525.01999999999998</ele>
        <time>2018-09-26T10:31:39Z</time>
      </trkpt>
      <trkpt lat="40.726189278066158" lon="13.883616859093308">
        <ele>526.46000000000004</ele>
        <time>2018-09-26T10:31:48Z</time>
      </trkpt>
      <trkpt lat="40.726237222552299" lon="13.883625324815512">
        <ele>527.41999999999996</ele>
        <time>2018-09-26T10:31:56Z</time>
      </trkpt>
      <trkpt lat="40.72624602355063" lon="13.88362574391067">
        <ele>527.41999999999996</ele>
        <time>2018-09-26T10:31:57Z</time>
      </trkpt>
      <trkpt lat="40.72631886228919" lon="13.883623732253909">
        <ele>527.41999999999996</ele>
        <time>2018-09-26T10:32:09Z</time>
      </trkpt>
      <trkpt lat="40.726348031312227" lon="13.883608309552073">
        <ele>524.53999999999996</ele>
        <time>2018-09-26T10:32:23Z</time>
      </trkpt>
      <trkpt lat="40.726316096261144" lon="13.883633874356747">
        <ele>526.46000000000004</ele>
        <time>2018-09-26T10:32:34Z</time>
      </trkpt>
      <trkpt lat="40.726325483992696" lon="13.883624486625195">
        <ele>527.89999999999998</ele>
        <time>2018-09-26T10:32:46Z</time>
      </trkpt>
      <trkpt lat="40.726321628317237" lon="13.883620128035545">
        <ele>528.86000000000001</ele>
        <time>2018-09-26T10:32:59Z</time>
      </trkpt>
      <trkpt lat="40.726351970806718" lon="13.88362817466259">
        <ele>527.41999999999996</ele>
        <time>2018-09-26T10:33:09Z</time>
      </trkpt>
      <trkpt lat="40.726344007998705" lon="13.883642172440886">
        <ele>526.46000000000004</ele>
        <time>2018-09-26T10:33:22Z</time>
      </trkpt>
      <trkpt lat="40.726341577246785" lon="13.88363747857511">
        <ele>526.46000000000004</ele>
        <time>2018-09-26T10:33:31Z</time>
      </trkpt>
      <trkpt lat="40.726351384073496" lon="13.883612668141723">
        <ele>526.46000000000004</ele>
        <time>2018-09-26T10:33:45Z</time>
      </trkpt>
      <trkpt lat="40.726377116516232" lon="13.883615769445896">
        <ele>526.46000000000004</ele>
        <time>2018-09-26T10:33:50Z</time>
      </trkpt>
      <trkpt lat="40.726432856172323" lon="13.88360227458179">
        <ele>524.53999999999996</ele>
        <time>2018-09-26T10:33:55Z</time>
      </trkpt>
      <trkpt lat="40.726515166461468" lon="13.883616859093308">
        <ele>521.16999999999996</ele>
        <time>2018-09-26T10:34:05Z</time>
      </trkpt>
      <trkpt lat="40.726506197825074" lon="13.883625324815512">
        <ele>521.64999999999998</ele>
        <time>2018-09-26T10:34:14Z</time>
      </trkpt>
      <trkpt lat="40.726520279422402" lon="13.883639657869935">
        <ele>520.69000000000005</ele>
        <time>2018-09-26T10:34:34Z</time>
      </trkpt>
      <trkpt lat="40.726566547527909" lon="13.883656254038215">
        <ele>521.16999999999996</ele>
        <time>2018-09-26T10:34:42Z</time>
      </trkpt>
      <trkpt lat="40.726595381274819" lon="13.883682321757078">
        <ele>521.64999999999998</ele>
        <time>2018-09-26T10:34:55Z</time>
      </trkpt>
      <trkpt lat="40.726625388488173" lon="13.883707970380783">
        <ele>520.21000000000004</ele>
        <time>2018-09-26T10:35:06Z</time>
      </trkpt>
      <trkpt lat="40.726665118709207" lon="13.883713334798813">
        <ele>516.85000000000002</ele>
        <time>2018-09-26T10:35:16Z</time>
      </trkpt>
      <trkpt lat="40.726698394864798" lon="13.883778462186456">
        <ele>513.48000000000002</ele>
        <time>2018-09-26T10:35:25Z</time>
      </trkpt>
      <trkpt lat="40.726691856980324" lon="13.883804529905319">
        <ele>512.03999999999996</ele>
        <time>2018-09-26T10:35:27Z</time>
      </trkpt>
      <trkpt lat="40.726676266640425" lon="13.883957080543041">
        <ele>513.48000000000002</ele>
        <time>2018-09-26T10:35:39Z</time>
      </trkpt>
      <trkpt lat="40.72671951726079" lon="13.88406990095973">
        <ele>512.03999999999996</ele>
        <time>2018-09-26T10:35:49Z</time>
      </trkpt>
      <trkpt lat="40.726764528080821" lon="13.884147349745035">
        <ele>510.60000000000002</ele>
        <time>2018-09-26T10:36:00Z</time>
      </trkpt>
      <trkpt lat="40.72684315033257" lon="13.884215159341693">
        <ele>509.63999999999999</ele>
        <time>2018-09-26T10:36:12Z</time>
      </trkpt>
      <trkpt lat="40.726913223043084" lon="13.884244076907635">
        <ele>508.67000000000002</ele>
        <time>2018-09-26T10:36:22Z</time>
      </trkpt>
      <trkpt lat="40.726966867223382" lon="13.884261092171073">
        <ele>504.82999999999998</ele>
        <time>2018-09-26T10:36:28Z</time>
      </trkpt>
      <trkpt lat="40.727079687640071" lon="13.884261092171073">
        <ele>506.75</ele>
        <time>2018-09-26T10:36:40Z</time>
      </trkpt>
      <trkpt lat="40.727187395095825" lon="13.884262684732676">
        <ele>505.79000000000002</ele>
        <time>2018-09-26T10:36:51Z</time>
      </trkpt>
      <trkpt lat="40.727311111986637" lon="13.884303169324994">
        <ele>508.19</ele>
        <time>2018-09-26T10:37:02Z</time>
      </trkpt>
      <trkpt lat="40.727321421727538" lon="13.8843097910285">
        <ele>508.67000000000002</ele>
        <time>2018-09-26T10:37:03Z</time>
      </trkpt>
      <trkpt lat="40.727380262687802" lon="13.884354047477245">
        <ele>511.56</ele>
        <time>2018-09-26T10:37:09Z</time>
      </trkpt>
      <trkpt lat="40.727500459179282" lon="13.884456139057875">
        <ele>511.07999999999998</ele>
        <time>2018-09-26T10:37:21Z</time>
      </trkpt>
      <trkpt lat="40.72760003618896" lon="13.884571390226483">
        <ele>509.16000000000003</ele>
        <time>2018-09-26T10:37:33Z</time>
      </trkpt>
      <trkpt lat="40.727612944319844" lon="13.884603409096599">
        <ele>508.19</ele>
        <time>2018-09-26T10:37:36Z</time>
      </trkpt>
      <trkpt lat="40.727563239634037" lon="13.884749338030815">
        <ele>507.23000000000002</ele>
        <time>2018-09-26T10:37:48Z</time>
      </trkpt>
      <trkpt lat="40.727556701749563" lon="13.884800802916288">
        <ele>506.75</ele>
        <time>2018-09-26T10:37:51Z</time>
      </trkpt>
      <trkpt lat="40.727491155266762" lon="13.884938769042492">
        <ele>508.67000000000002</ele>
        <time>2018-09-26T10:38:04Z</time>
      </trkpt>
      <trkpt lat="40.727454023435712" lon="13.885083273053169">
        <ele>509.63999999999999</ele>
        <time>2018-09-26T10:38:17Z</time>
      </trkpt>
      <trkpt lat="40.727438349276781" lon="13.8852215744555">
        <ele>509.16000000000003</ele>
        <time>2018-09-26T10:38:29Z</time>
      </trkpt>
      <trkpt lat="40.727396104484797" lon="13.885287959128618">
        <ele>508.19</ele>
        <time>2018-09-26T10:38:40Z</time>
      </trkpt>
      <trkpt lat="40.727369366213679" lon="13.885374711826444">
        <ele>511.07999999999998</ele>
        <time>2018-09-26T10:38:51Z</time>
      </trkpt>
      <trkpt lat="40.727384956553578" lon="13.885420812293887">
        <ele>508.67000000000002</ele>
        <time>2018-09-26T10:39:07Z</time>
      </trkpt>
      <trkpt lat="40.727400379255414" lon="13.885431541129947">
        <ele>510.12</ele>
        <time>2018-09-26T10:39:16Z</time>
      </trkpt>
      <trkpt lat="40.727417645975947" lon="13.885448137298226">
        <ele>511.56</ele>
        <time>2018-09-26T10:39:28Z</time>
      </trkpt>
      <trkpt lat="40.727402223274112" lon="13.885426092892885">
        <ele>509.16000000000003</ele>
        <time>2018-09-26T10:39:42Z</time>
      </trkpt>
      <trkpt lat="40.72743977420032" lon="13.885469008237123">
        <ele>509.63999999999999</ele>
        <time>2018-09-26T10:39:54Z</time>
      </trkpt>
      <trkpt lat="40.727478079497814" lon="13.885453920811415">
        <ele>508.19</ele>
        <time>2018-09-26T10:40:07Z</time>
      </trkpt>
      <trkpt lat="40.727416640147567" lon="13.885451490059495">
        <ele>509.16000000000003</ele>
        <time>2018-09-26T10:40:16Z</time>
      </trkpt>
      <trkpt lat="40.727383615449071" lon="13.885437408462167">
        <ele>510.12</ele>
        <time>2018-09-26T10:40:26Z</time>
      </trkpt>
      <trkpt lat="40.727385124191642" lon="13.885495159775019">
        <ele>511.56</ele>
        <time>2018-09-26T10:40:41Z</time>
      </trkpt>
      <trkpt lat="40.727399876341224" lon="13.885453334078193">
        <ele>508.67000000000002</ele>
        <time>2018-09-26T10:41:00Z</time>
      </trkpt>
      <trkpt lat="40.727419657632709" lon="13.885319894179702">
        <ele>510.12</ele>
        <time>2018-09-26T10:41:09Z</time>
      </trkpt>
      <trkpt lat="40.727476822212338" lon="13.885368006303906">
        <ele>508.19</ele>
        <time>2018-09-26T10:41:19Z</time>
      </trkpt>
      <trkpt lat="40.727468691766262" lon="13.88542927801609">
        <ele>508.19</ele>
        <time>2018-09-26T10:41:29Z</time>
      </trkpt>
      <trkpt lat="40.727423178032041" lon="13.885474037379026">
        <ele>506.75</ele>
        <time>2018-09-26T10:41:40Z</time>
      </trkpt>
      <trkpt lat="40.727456118911505" lon="13.885391978546977">
        <ele>502.91000000000003</ele>
        <time>2018-09-26T10:42:57Z</time>
      </trkpt>
      <trkpt lat="40.727484365925193" lon="13.885501697659492">
        <ele>506.26999999999998</ele>
        <time>2018-09-26T10:43:01Z</time>
      </trkpt>
      <trkpt lat="40.727543961256742" lon="13.885532040148973">
        <ele>508.19</ele>
        <time>2018-09-26T10:43:14Z</time>
      </trkpt>
      <trkpt lat="40.727530382573605" lon="13.885585181415081">
        <ele>508.67000000000002</ele>
        <time>2018-09-26T10:43:30Z</time>
      </trkpt>
      <trkpt lat="40.727536082267761" lon="13.885600352659822">
        <ele>508.19</ele>
        <time>2018-09-26T10:43:41Z</time>
      </trkpt>
      <trkpt lat="40.72751060128212" lon="13.885525586083531">
        <ele>505.31</ele>
        <time>2018-09-26T10:43:53Z</time>
      </trkpt>
      <trkpt lat="40.727453688159585" lon="13.885495830327272">
        <ele>508.67000000000002</ele>
        <time>2018-09-26T10:43:59Z</time>
      </trkpt>
      <trkpt lat="40.727387135848403" lon="13.885461464524269">
        <ele>511.07999999999998</ele>
        <time>2018-09-26T10:44:09Z</time>
      </trkpt>
      <trkpt lat="40.727371126413345" lon="13.885527681559324">
        <ele>507.70999999999998</ele>
        <time>2018-09-26T10:44:14Z</time>
      </trkpt>
      <trkpt lat="40.727310525253415" lon="13.885688865557313">
        <ele>508.19</ele>
        <time>2018-09-26T10:44:25Z</time>
      </trkpt>
      <trkpt lat="40.727253863587976" lon="13.885854743421078">
        <ele>509.16000000000003</ele>
        <time>2018-09-26T10:44:37Z</time>
      </trkpt>
      <trkpt lat="40.727287055924535" lon="13.886025231331587">
        <ele>509.16000000000003</ele>
        <time>2018-09-26T10:44:48Z</time>
      </trkpt>
      <trkpt lat="40.727323768660426" lon="13.886158671230078">
        <ele>508.67000000000002</ele>
        <time>2018-09-26T10:44:58Z</time>
      </trkpt>
      <trkpt lat="40.727378837764263" lon="13.886313904076815">
        <ele>509.63999999999999</ele>
        <time>2018-09-26T10:45:08Z</time>
      </trkpt>
      <trkpt lat="40.727431057021022" lon="13.886470813304186">
        <ele>507.70999999999998</ele>
        <time>2018-09-26T10:45:19Z</time>
      </trkpt>
      <trkpt lat="40.727498196065426" lon="13.886570641770959">
        <ele>506.75</ele>
        <time>2018-09-26T10:45:28Z</time>
      </trkpt>
      <trkpt lat="40.727630881592631" lon="13.886690838262439">
        <ele>508.67000000000002</ele>
        <time>2018-09-26T10:45:41Z</time>
      </trkpt>
      <trkpt lat="40.727742779999971" lon="13.886850010603666">
        <ele>508.19</ele>
        <time>2018-09-26T10:45:52Z</time>
      </trkpt>
      <trkpt lat="40.727796256542206" lon="13.886975403875113">
        <ele>510.12</ele>
        <time>2018-09-26T10:46:01Z</time>
      </trkpt>
      <trkpt lat="40.72784042917192" lon="13.887098198756576">
        <ele>507.70999999999998</ele>
        <time>2018-09-26T10:46:10Z</time>
      </trkpt>
      <trkpt lat="40.727864233776927" lon="13.887185705825686">
        <ele>509.63999999999999</ele>
        <time>2018-09-26T10:46:22Z</time>
      </trkpt>
      <trkpt lat="40.727865574881434" lon="13.887277320027351">
        <ele>509.63999999999999</ele>
        <time>2018-09-26T10:46:34Z</time>
      </trkpt>
      <trkpt lat="40.727901365607977" lon="13.887430541217327">
        <ele>508.19</ele>
        <time>2018-09-26T10:46:44Z</time>
      </trkpt>
      <trkpt lat="40.727914106100798" lon="13.887508576735854">
        <ele>508.19</ele>
        <time>2018-09-26T10:46:49Z</time>
      </trkpt>
      <trkpt lat="40.727927600964904" lon="13.88759826309979">
        <ele>508.19</ele>
        <time>2018-09-26T10:46:57Z</time>
      </trkpt>
      <trkpt lat="40.727960038930178" lon="13.887690715491772">
        <ele>509.63999999999999</ele>
        <time>2018-09-26T10:47:06Z</time>
      </trkpt>
      <trkpt lat="40.727998930960894" lon="13.887730529531837">
        <ele>510.12</ele>
        <time>2018-09-26T10:47:10Z</time>
      </trkpt>
      <trkpt lat="40.728121222928166" lon="13.887826418504119">
        <ele>512.03999999999996</ele>
        <time>2018-09-26T10:47:23Z</time>
      </trkpt>
      <trkpt lat="40.728219877928495" lon="13.887884924188256">
        <ele>509.63999999999999</ele>
        <time>2018-09-26T10:47:34Z</time>
      </trkpt>
      <trkpt lat="40.728340409696102" lon="13.887955415993929">
        <ele>509.63999999999999</ele>
        <time>2018-09-26T10:47:46Z</time>
      </trkpt>
      <trkpt lat="40.728435209020972" lon="13.887999253347516">
        <ele>509.16000000000003</ele>
        <time>2018-09-26T10:47:54Z</time>
      </trkpt>
      <trkpt lat="40.728478962555528" lon="13.888027165085077">
        <ele>508.19</ele>
        <time>2018-09-26T10:48:04Z</time>
      </trkpt>
      <trkpt lat="40.728551466017962" lon="13.88802976347506">
        <ele>507.23000000000002</ele>
        <time>2018-09-26T10:48:15Z</time>
      </trkpt>
      <trkpt lat="40.728565128520131" lon="13.888010820373893">
        <ele>507.23000000000002</ele>
        <time>2018-09-26T10:48:32Z</time>
      </trkpt>
      <trkpt lat="40.728540988638997" lon="13.887982740998268">
        <ele>506.26999999999998</ele>
        <time>2018-09-26T10:48:44Z</time>
      </trkpt>
      <trkpt lat="40.728656742721796" lon="13.887986009940505">
        <ele>505.79000000000002</ele>
        <time>2018-09-26T10:48:57Z</time>
      </trkpt>
      <trkpt lat="40.728764366358519" lon="13.887958349660039">
        <ele>505.31</ele>
        <time>2018-09-26T10:49:10Z</time>
      </trkpt>
      <trkpt lat="40.72885480709374" lon="13.887940412387252">
        <ele>504.82999999999998</ele>
        <time>2018-09-26T10:49:20Z</time>
      </trkpt>
      <trkpt lat="40.728910882025957" lon="13.887916021049023">
        <ele>505.31</ele>
        <time>2018-09-26T10:49:30Z</time>
      </trkpt>
      <trkpt lat="40.728837372735143" lon="13.887951225042343">
        <ele>502.43000000000001</ele>
        <time>2018-09-26T10:49:55Z</time>
      </trkpt>
      <trkpt lat="40.728792864829302" lon="13.887981399893761">
        <ele>502.91000000000003</ele>
        <time>2018-09-26T10:50:01Z</time>
      </trkpt>
      <trkpt lat="40.728800911456347" lon="13.88801802881062">
        <ele>504.35000000000002</ele>
        <time>2018-09-26T10:50:15Z</time>
      </trkpt>
      <trkpt lat="40.728830834850669" lon="13.887973520904779">
        <ele>504.82999999999998</ele>
        <time>2018-09-26T10:50:24Z</time>
      </trkpt>
      <trkpt lat="40.728845419362187" lon="13.88796815648675">
        <ele>504.35000000000002</ele>
        <time>2018-09-26T10:50:36Z</time>
      </trkpt>
      <trkpt lat="40.728883976116776" lon="13.887967569753528">
        <ele>504.35000000000002</ele>
        <time>2018-09-26T10:50:59Z</time>
      </trkpt>
      <trkpt lat="40.728866960853338" lon="13.887946112081409">
        <ele>504.82999999999998</ele>
        <time>2018-09-26T10:51:22Z</time>
      </trkpt>
      <trkpt lat="40.728867379948497" lon="13.887974359095097">
        <ele>504.82999999999998</ele>
        <time>2018-09-26T10:51:41Z</time>
      </trkpt>
      <trkpt lat="40.728829577565193" lon="13.887996738776565">
        <ele>504.82999999999998</ele>
        <time>2018-09-26T10:52:04Z</time>
      </trkpt>
      <trkpt lat="40.728852963075042" lon="13.887975197285414">
        <ele>505.31</ele>
        <time>2018-09-26T10:52:28Z</time>
      </trkpt>
      <trkpt lat="40.728870145976543" lon="13.887952985242009">
        <ele>501.94999999999999</ele>
        <time>2018-09-26T10:52:41Z</time>
      </trkpt>
      <trkpt lat="40.728865033015609" lon="13.887958768755198">
        <ele>504.35000000000002</ele>
        <time>2018-09-26T10:53:03Z</time>
      </trkpt>
      <trkpt lat="40.728871235623956" lon="13.887973017990589">
        <ele>504.35000000000002</ele>
        <time>2018-09-26T10:53:24Z</time>
      </trkpt>
      <trkpt lat="40.728889005258679" lon="13.887989614158869">
        <ele>503.87</ele>
        <time>2018-09-26T10:53:49Z</time>
      </trkpt>
      <trkpt lat="40.728882048279047" lon="13.887981567531824">
        <ele>504.35000000000002</ele>
        <time>2018-09-26T10:54:07Z</time>
      </trkpt>
      <trkpt lat="40.728885484859347" lon="13.888004533946514">
        <ele>504.35000000000002</ele>
        <time>2018-09-26T10:54:32Z</time>
      </trkpt>
      <trkpt lat="40.728897470980883" lon="13.888021046295762">
        <ele>505.79000000000002</ele>
        <time>2018-09-26T10:54:56Z</time>
      </trkpt>
      <trkpt lat="40.728882383555174" lon="13.888021465390921">
        <ele>505.31</ele>
        <time>2018-09-26T10:55:18Z</time>
      </trkpt>
      <trkpt lat="40.728889005258679" lon="13.888025488704443">
        <ele>504.82999999999998</ele>
        <time>2018-09-26T10:55:38Z</time>
      </trkpt>
      <trkpt lat="40.728913145139813" lon="13.888016520068049">
        <ele>506.26999999999998</ele>
        <time>2018-09-26T10:56:02Z</time>
      </trkpt>
      <trkpt lat="40.72888414375484" lon="13.887984752655029">
        <ele>505.79000000000002</ele>
        <time>2018-09-26T10:56:25Z</time>
      </trkpt>
      <trkpt lat="40.728854555636644" lon="13.887981064617634">
        <ele>507.23000000000002</ele>
        <time>2018-09-26T10:56:49Z</time>
      </trkpt>
      <trkpt lat="40.728857321664691" lon="13.887967066839337">
        <ele>506.26999999999998</ele>
        <time>2018-09-26T10:57:12Z</time>
      </trkpt>
      <trkpt lat="40.728826392441988" lon="13.887947620823979">
        <ele>505.79000000000002</ele>
        <time>2018-09-26T10:57:40Z</time>
      </trkpt>
      <trkpt lat="40.728789512068033" lon="13.887928929179907">
        <ele>505.79000000000002</ele>
        <time>2018-09-26T10:58:01Z</time>
      </trkpt>
      <trkpt lat="40.728811975568533" lon="13.887959187850356">
        <ele>505.31</ele>
        <time>2018-09-26T10:58:25Z</time>
      </trkpt>
      <trkpt lat="40.728808538988233" lon="13.88797695748508">
        <ele>506.75</ele>
        <time>2018-09-26T10:58:53Z</time>
      </trkpt>
      <trkpt lat="40.728810047730803" lon="13.887962456792593">
        <ele>507.23000000000002</ele>
        <time>2018-09-26T10:59:23Z</time>
      </trkpt>
      <trkpt lat="40.728808958083391" lon="13.887949883937836">
        <ele>507.70999999999998</ele>
        <time>2018-09-26T10:59:50Z</time>
      </trkpt>
      <trkpt lat="40.728811388835311" lon="13.887982573360205">
        <ele>508.19</ele>
        <time>2018-09-26T11:00:12Z</time>
      </trkpt>
      <trkpt lat="40.728814825415611" lon="13.887963546440005">
        <ele>505.79000000000002</ele>
        <time>2018-09-26T11:00:35Z</time>
      </trkpt>
      <trkpt lat="40.728784315288067" lon="13.88795935548842">
        <ele>507.70999999999998</ele>
        <time>2018-09-26T11:00:58Z</time>
      </trkpt>
      <trkpt lat="40.728781130164862" lon="13.887946782633662">
        <ele>506.75</ele>
        <time>2018-09-26T11:01:22Z</time>
      </trkpt>
      <trkpt lat="40.728801917284727" lon="13.887957679107785">
        <ele>507.23000000000002</ele>
        <time>2018-09-26T11:01:48Z</time>
      </trkpt>
      <trkpt lat="40.72880988009274" lon="13.887949548661709">
        <ele>507.70999999999998</ele>
        <time>2018-09-26T11:02:10Z</time>
      </trkpt>
      <trkpt lat="40.728821279481053" lon="13.887978382408619">
        <ele>509.16000000000003</ele>
        <time>2018-09-26T11:02:30Z</time>
      </trkpt>
      <trkpt lat="40.728840390220284" lon="13.887946866452694">
        <ele>509.63999999999999</ele>
        <time>2018-09-26T11:02:55Z</time>
      </trkpt>
      <trkpt lat="40.728842485696077" lon="13.887928258627653">
        <ele>509.63999999999999</ele>
        <time>2018-09-26T11:03:14Z</time>
      </trkpt>
      <trkpt lat="40.728869726881385" lon="13.88796865940094">
        <ele>510.12</ele>
        <time>2018-09-26T11:03:36Z</time>
      </trkpt>
      <trkpt lat="40.728853549808264" lon="13.887970671057701">
        <ele>509.63999999999999</ele>
        <time>2018-09-26T11:03:57Z</time>
      </trkpt>
      <trkpt lat="40.728847263380885" lon="13.887964384630322">
        <ele>509.16000000000003</ele>
        <time>2018-09-26T11:04:20Z</time>
      </trkpt>
      <trkpt lat="40.728835528716445" lon="13.887990368530154">
        <ele>511.56</ele>
        <time>2018-09-26T11:04:41Z</time>
      </trkpt>
      <trkpt lat="40.72885237634182" lon="13.888031356036663">
        <ele>510.60000000000002</ele>
        <time>2018-09-26T11:05:05Z</time>
      </trkpt>
      <trkpt lat="40.72883628308773" lon="13.888021800667048">
        <ele>511.56</ele>
        <time>2018-09-26T11:05:25Z</time>
      </trkpt>
      <trkpt lat="40.728864362463355" lon="13.888016520068049">
        <ele>512.03999999999996</ele>
        <time>2018-09-26T11:05:53Z</time>
      </trkpt>
      <trkpt lat="40.728871403262019" lon="13.888021046295762">
        <ele>512.03999999999996</ele>
        <time>2018-09-26T11:06:16Z</time>
      </trkpt>
      <trkpt lat="40.728876432403922" lon="13.88801509514451">
        <ele>512.03999999999996</ele>
        <time>2018-09-26T11:06:38Z</time>
      </trkpt>
      <trkpt lat="40.728889675810933" lon="13.888008557260036">
        <ele>512.03999999999996</ele>
        <time>2018-09-26T11:06:55Z</time>
      </trkpt>
      <trkpt lat="40.728877354413271" lon="13.888055076822639">
        <ele>511.56</ele>
        <time>2018-09-26T11:07:19Z</time>
      </trkpt>
      <trkpt lat="40.728859752416611" lon="13.888065470382571">
        <ele>513.48000000000002</ele>
        <time>2018-09-26T11:07:42Z</time>
      </trkpt>
      <trkpt lat="40.728858411312103" lon="13.888033283874393">
        <ele>513</ele>
        <time>2018-09-26T11:08:04Z</time>
      </trkpt>
      <trkpt lat="40.728848688304424" lon="13.888034373521805">
        <ele>513.48000000000002</ele>
        <time>2018-09-26T11:08:36Z</time>
      </trkpt>
      <trkpt lat="40.728882132098079" lon="13.888032110407948">
        <ele>513.96000000000004</ele>
        <time>2018-09-26T11:09:00Z</time>
      </trkpt>
      <trkpt lat="40.728902500122786" lon="13.88799112290144">
        <ele>513.48000000000002</ele>
        <time>2018-09-26T11:09:25Z</time>
      </trkpt>
      <trkpt lat="40.728874420747161" lon="13.887961367145181">
        <ele>513.96000000000004</ele>
        <time>2018-09-26T11:09:43Z</time>
      </trkpt>
      <trkpt lat="40.728860925883055" lon="13.887985590845346">
        <ele>515.88</ele>
        <time>2018-09-26T11:10:11Z</time>
      </trkpt>
      <trkpt lat="40.728878863155842" lon="13.887984501197934">
        <ele>515.39999999999998</ele>
        <time>2018-09-26T11:10:39Z</time>
      </trkpt>
      <trkpt lat="40.728898476809263" lon="13.887992631644011">
        <ele>513.48000000000002</ele>
        <time>2018-09-26T11:11:13Z</time>
      </trkpt>
      <trkpt lat="40.728871151804924" lon="13.887946447357535">
        <ele>513.48000000000002</ele>
        <time>2018-09-26T11:11:40Z</time>
      </trkpt>
      <trkpt lat="40.728797977790236" lon="13.887964133173227">
        <ele>513.96000000000004</ele>
        <time>2018-09-26T11:12:06Z</time>
      </trkpt>
      <trkpt lat="40.728806527331471" lon="13.887957260012627">
        <ele>514.91999999999996</ele>
        <time>2018-09-26T11:12:30Z</time>
      </trkpt>
      <trkpt lat="40.728850029408932" lon="13.887972515076399">
        <ele>515.88</ele>
        <time>2018-09-26T11:12:55Z</time>
      </trkpt>
      <trkpt lat="40.728866374120116" lon="13.887985926121473">
        <ele>515.39999999999998</ele>
        <time>2018-09-26T11:13:17Z</time>
      </trkpt>
      <trkpt lat="40.728865368291736" lon="13.88799506239593">
        <ele>516.37</ele>
        <time>2018-09-26T11:13:33Z</time>
      </trkpt>
      <trkpt lat="40.728877019137144" lon="13.887967821210623">
        <ele>516.37</ele>
        <time>2018-09-26T11:13:44Z</time>
      </trkpt>
      <trkpt lat="40.728860758244991" lon="13.887968240305781">
        <ele>516.85000000000002</ele>
        <time>2018-09-26T11:14:01Z</time>
      </trkpt>
      <trkpt lat="40.728834941983223" lon="13.887952985242009">
        <ele>517.80999999999995</ele>
        <time>2018-09-26T11:14:22Z</time>
      </trkpt>
      <trkpt lat="40.728807197883725" lon="13.887905878946185">
        <ele>516.37</ele>
        <time>2018-09-26T11:14:38Z</time>
      </trkpt>
      <trkpt lat="40.728821950033307" lon="13.887944854795933">
        <ele>517.33000000000004</ele>
        <time>2018-09-26T11:14:52Z</time>
      </trkpt>
      <trkpt lat="40.728845587000251" lon="13.887991374358535">
        <ele>517.80999999999995</ele>
        <time>2018-09-26T11:15:02Z</time>
      </trkpt>
      <trkpt lat="40.728889843448997" lon="13.888069409877062">
        <ele>517.80999999999995</ele>
        <time>2018-09-26T11:15:13Z</time>
      </trkpt>
      <trkpt lat="40.728948265314102" lon="13.88803998939693">
        <ele>519.25</ele>
        <time>2018-09-26T11:15:26Z</time>
      </trkpt>
      <trkpt lat="40.728980535641313" lon="13.888027667999268">
        <ele>519.73000000000002</ele>
        <time>2018-09-26T11:15:38Z</time>
      </trkpt>
      <trkpt lat="40.729019930586219" lon="13.888021213933825">
        <ele>519.25</ele>
        <time>2018-09-26T11:15:51Z</time>
      </trkpt>
      <trkpt lat="40.729054296389222" lon="13.88800336048007">
        <ele>518.76999999999998</ele>
        <time>2018-09-26T11:16:00Z</time>
      </trkpt>
      <trkpt lat="40.72909913957119" lon="13.88807812705636">
        <ele>518.28999999999996</ele>
        <time>2018-09-26T11:16:10Z</time>
      </trkpt>
      <trkpt lat="40.729078352451324" lon="13.888024818152189">
        <ele>517.80999999999995</ele>
        <time>2018-09-26T11:16:22Z</time>
      </trkpt>
      <trkpt lat="40.729000400751829" lon="13.887868160381913">
        <ele>516.85000000000002</ele>
        <time>2018-09-26T11:16:38Z</time>
      </trkpt>
      <trkpt lat="40.728943990543485" lon="13.887796411290765">
        <ele>516.85000000000002</ele>
        <time>2018-09-26T11:16:51Z</time>
      </trkpt>
      <trkpt lat="40.728874672204256" lon="13.887784592807293">
        <ele>517.33000000000004</ele>
        <time>2018-09-26T11:17:05Z</time>
      </trkpt>
      <trkpt lat="40.728828487917781" lon="13.887923397123814">
        <ele>517.80999999999995</ele>
        <time>2018-09-26T11:17:19Z</time>
      </trkpt>
      <trkpt lat="40.728838630020618" lon="13.887939490377903">
        <ele>516.85000000000002</ele>
        <time>2018-09-26T11:17:30Z</time>
      </trkpt>
      <trkpt lat="40.728833181783557" lon="13.887960948050022">
        <ele>517.33000000000004</ele>
        <time>2018-09-26T11:17:44Z</time>
      </trkpt>
      <trkpt lat="40.728788673877716" lon="13.888013921678066">
        <ele>518.76999999999998</ele>
        <time>2018-09-26T11:17:57Z</time>
      </trkpt>
      <trkpt lat="40.728711392730474" lon="13.888042168691754">
        <ele>519.73000000000002</ele>
        <time>2018-09-26T11:18:08Z</time>
      </trkpt>
      <trkpt lat="40.728627489879727" lon="13.888094471767545">
        <ele>521.16999999999996</ele>
        <time>2018-09-26T11:18:20Z</time>
      </trkpt>
      <trkpt lat="40.728662107139826" lon="13.888185331597924">
        <ele>520.69000000000005</ele>
        <time>2018-09-26T11:18:31Z</time>
      </trkpt>
      <trkpt lat="40.728686330839992" lon="13.888313909992576">
        <ele>518.76999999999998</ele>
        <time>2018-09-26T11:18:44Z</time>
      </trkpt>
      <trkpt lat="40.728725390508771" lon="13.888407032936811">
        <ele>520.21000000000004</ele>
        <time>2018-09-26T11:18:57Z</time>
      </trkpt>
      <trkpt lat="40.728732347488403" lon="13.888457827270031">
        <ele>518.28999999999996</ele>
        <time>2018-09-26T11:19:09Z</time>
      </trkpt>
      <trkpt lat="40.728748859837651" lon="13.888457491993904">
        <ele>519.73000000000002</ele>
        <time>2018-09-26T11:19:15Z</time>
      </trkpt>
      <trkpt lat="40.728780459612608" lon="13.888473752886057">
        <ele>522.61000000000001</ele>
        <time>2018-09-26T11:19:26Z</time>
      </trkpt>
      <trkpt lat="40.728866374120116" lon="13.888492528349161">
        <ele>522.61000000000001</ele>
        <time>2018-09-26T11:19:35Z</time>
      </trkpt>
      <trkpt lat="40.728951785713434" lon="13.888493869453669">
        <ele>522.13</ele>
        <time>2018-09-26T11:19:45Z</time>
      </trkpt>
      <trkpt lat="40.729030072689056" lon="13.88841575011611">
        <ele>523.09000000000003</ele>
        <time>2018-09-26T11:19:55Z</time>
      </trkpt>
      <trkpt lat="40.729142893105745" lon="13.888404350727797">
        <ele>523.09000000000003</ele>
        <time>2018-09-26T11:20:06Z</time>
      </trkpt>
      <trkpt lat="40.72922620922327" lon="13.888420695438981">
        <ele>523.09000000000003</ele>
        <time>2018-09-26T11:20:17Z</time>
      </trkpt>
      <trkpt lat="40.729274237528443" lon="13.888478614389896">
        <ele>523.58000000000004</ele>
        <time>2018-09-26T11:20:26Z</time>
      </trkpt>
      <trkpt lat="40.729316063225269" lon="13.888510465621948">
        <ele>525.5</ele>
        <time>2018-09-26T11:20:36Z</time>
      </trkpt>
      <trkpt lat="40.729391667991877" lon="13.888526642695069">
        <ele>522.61000000000001</ele>
        <time>2018-09-26T11:20:46Z</time>
      </trkpt>
      <trkpt lat="40.729425698518753" lon="13.888535108417273">
        <ele>522.61000000000001</ele>
        <time>2018-09-26T11:20:50Z</time>
      </trkpt>
      <trkpt lat="40.729521084576845" lon="13.888563523069024">
        <ele>524.05999999999995</ele>
        <time>2018-09-26T11:21:00Z</time>
      </trkpt>
      <trkpt lat="40.729606663808227" lon="13.888579197227955">
        <ele>524.05999999999995</ele>
        <time>2018-09-26T11:21:10Z</time>
      </trkpt>
      <trkpt lat="40.729693500325084" lon="13.888586992397904">
        <ele>525.01999999999998</ele>
        <time>2018-09-26T11:21:21Z</time>
      </trkpt>
      <trkpt lat="40.729781175032258" lon="13.888557320460677">
        <ele>525.01999999999998</ele>
        <time>2018-09-26T11:21:32Z</time>
      </trkpt>
      <trkpt lat="40.729820402339101" lon="13.888517674058676">
        <ele>525.98000000000002</ele>
        <time>2018-09-26T11:21:43Z</time>
      </trkpt>
      <trkpt lat="40.729842027649283" lon="13.888495797291398">
        <ele>527.41999999999996</ele>
        <time>2018-09-26T11:21:52Z</time>
      </trkpt>
      <trkpt lat="40.729856695979834" lon="13.88847635127604">
        <ele>527.89999999999998</ele>
        <time>2018-09-26T11:22:06Z</time>
      </trkpt>
      <trkpt lat="40.729893911629915" lon="13.888434777036309">
        <ele>529.82000000000005</ele>
        <time>2018-09-26T11:22:17Z</time>
      </trkpt>
      <trkpt lat="40.729906735941768" lon="13.888479536399245">
        <ele>530.78999999999996</ele>
        <time>2018-09-26T11:22:26Z</time>
      </trkpt>
      <trkpt lat="40.72988142259419" lon="13.888420192524791">
        <ele>529.82000000000005</ele>
        <time>2018-09-26T11:22:41Z</time>
      </trkpt>
      <trkpt lat="40.729934563860297" lon="13.888345174491405">
        <ele>530.78999999999996</ele>
        <time>2018-09-26T11:22:52Z</time>
      </trkpt>
      <trkpt lat="40.73000606149435" lon="13.888379959389567">
        <ele>532.71000000000004</ele>
        <time>2018-09-26T11:23:03Z</time>
      </trkpt>
      <trkpt lat="40.730061214417219" lon="13.888417761772871">
        <ele>535.11000000000001</ele>
        <time>2018-09-26T11:23:15Z</time>
      </trkpt>
      <trkpt lat="40.730094406753778" lon="13.88841382227838">
        <ele>535.59000000000003</ele>
        <time>2018-09-26T11:23:25Z</time>
      </trkpt>
      <trkpt lat="40.730131203308702" lon="13.888425473123789">
        <ele>537.50999999999999</ele>
        <time>2018-09-26T11:23:36Z</time>
      </trkpt>
      <trkpt lat="40.730169089511037" lon="13.888473585247993">
        <ele>539.91999999999996</ele>
        <time>2018-09-26T11:23:48Z</time>
      </trkpt>
      <trkpt lat="40.730227092280984" lon="13.888474255800247">
        <ele>540.39999999999998</ele>
        <time>2018-09-26T11:23:58Z</time>
      </trkpt>
      <trkpt lat="40.730285681784153" lon="13.888483224436641">
        <ele>541.36000000000001</ele>
        <time>2018-09-26T11:24:09Z</time>
      </trkpt>
      <trkpt lat="40.730331111699343" lon="13.888474758714437">
        <ele>541.84000000000003</ele>
        <time>2018-09-26T11:24:20Z</time>
      </trkpt>
      <trkpt lat="40.730381067842245" lon="13.888530749827623">
        <ele>541.84000000000003</ele>
        <time>2018-09-26T11:24:32Z</time>
      </trkpt>
      <trkpt lat="40.73045457713306" lon="13.88855648227036">
        <ele>544.24000000000001</ele>
        <time>2018-09-26T11:24:44Z</time>
      </trkpt>
      <trkpt lat="40.730490703135729" lon="13.888485487550497">
        <ele>545.69000000000005</ele>
        <time>2018-09-26T11:24:56Z</time>
      </trkpt>
      <trkpt lat="40.730497576296329" lon="13.888407787308097">
        <ele>545.20000000000005</ele>
        <time>2018-09-26T11:25:08Z</time>
      </trkpt>
      <trkpt lat="40.730561781674623" lon="13.888318771496415">
        <ele>547.13</ele>
        <time>2018-09-26T11:25:19Z</time>
      </trkpt>
      <trkpt lat="40.73061877861619" lon="13.888361938297749">
        <ele>548.57000000000005</ele>
        <time>2018-09-26T11:25:31Z</time>
      </trkpt>
      <trkpt lat="40.730670746415854" lon="13.888430502265692">
        <ele>549.04999999999995</ele>
        <time>2018-09-26T11:25:42Z</time>
      </trkpt>
      <trkpt lat="40.73071994818747" lon="13.888405691832304">
        <ele>549.52999999999997</ele>
        <time>2018-09-26T11:25:54Z</time>
      </trkpt>
      <trkpt lat="40.730708716437221" lon="13.888416588306427">
        <ele>550.97000000000003</ele>
        <time>2018-09-26T11:26:12Z</time>
      </trkpt>
      <trkpt lat="40.730701088905334" lon="13.888539802283049">
        <ele>551.45000000000005</ele>
        <time>2018-09-26T11:26:23Z</time>
      </trkpt>
      <trkpt lat="40.7307961396873" lon="13.888677852228284">
        <ele>551.45000000000005</ele>
        <time>2018-09-26T11:26:37Z</time>
      </trkpt>
      <trkpt lat="40.730833020061255" lon="13.888686988502741">
        <ele>551.92999999999995</ele>
        <time>2018-09-26T11:26:41Z</time>
      </trkpt>
      <trkpt lat="40.730921952053905" lon="13.888765778392553">
        <ele>552.89999999999998</ele>
        <time>2018-09-26T11:26:52Z</time>
      </trkpt>
      <trkpt lat="40.731018679216504" lon="13.888782793655992">
        <ele>553.86000000000001</ele>
        <time>2018-09-26T11:27:05Z</time>
      </trkpt>
      <trkpt lat="40.731096798554063" lon="13.888796623796225">
        <ele>555.29999999999995</ele>
        <time>2018-09-26T11:27:16Z</time>
      </trkpt>
      <trkpt lat="40.731114149093628" lon="13.888795198872685">
        <ele>555.77999999999997</ele>
        <time>2018-09-26T11:27:26Z</time>
      </trkpt>
      <trkpt lat="40.731140384450555" lon="13.888708027079701">
        <ele>555.29999999999995</ele>
        <time>2018-09-26T11:27:36Z</time>
      </trkpt>
      <trkpt lat="40.731142144650221" lon="13.888695538043976">
        <ele>555.29999999999995</ele>
        <time>2018-09-26T11:27:37Z</time>
      </trkpt>
      <trkpt lat="40.731141474097967" lon="13.888525804504752">
        <ele>551.92999999999995</ele>
        <time>2018-09-26T11:27:50Z</time>
      </trkpt>
      <trkpt lat="40.731138288974762" lon="13.888460844755173">
        <ele>552.40999999999997</ele>
        <time>2018-09-26T11:28:01Z</time>
      </trkpt>
      <trkpt lat="40.731142982840538" lon="13.888318771496415">
        <ele>551.92999999999995</ele>
        <time>2018-09-26T11:28:10Z</time>
      </trkpt>
      <trkpt lat="40.73116117157042" lon="13.888245681300759">
        <ele>550.00999999999999</ele>
        <time>2018-09-26T11:28:19Z</time>
      </trkpt>
      <trkpt lat="40.731159746646881" lon="13.888242999091744">
        <ele>549.52999999999997</ele>
        <time>2018-09-26T11:28:20Z</time>
      </trkpt>
      <trkpt lat="40.731226298958063" lon="13.88807712122798">
        <ele>549.04999999999995</ele>
        <time>2018-09-26T11:28:32Z</time>
      </trkpt>
      <trkpt lat="40.731241554021835" lon="13.888038480654359">
        <ele>550.49000000000001</ele>
        <time>2018-09-26T11:28:35Z</time>
      </trkpt>
      <trkpt lat="40.731291174888611" lon="13.887914596125484">
        <ele>548.57000000000005</ele>
        <time>2018-09-26T11:28:45Z</time>
      </trkpt>
      <trkpt lat="40.731324031949043" lon="13.887867657467723">
        <ele>547.61000000000001</ele>
        <time>2018-09-26T11:28:54Z</time>
      </trkpt>
      <trkpt lat="40.731368456035852" lon="13.887823233380914">
        <ele>545.20000000000005</ele>
        <time>2018-09-26T11:29:03Z</time>
      </trkpt>
      <trkpt lat="40.731410784646869" lon="13.887791130691767">
        <ele>544.72000000000003</ele>
        <time>2018-09-26T11:29:14Z</time>
      </trkpt>
      <trkpt lat="40.731429224833846" lon="13.887782078236341">
        <ele>545.20000000000005</ele>
        <time>2018-09-26T11:29:18Z</time>
      </trkpt>
      <trkpt lat="40.731476582586765" lon="13.887706389650702">
        <ele>545.20000000000005</ele>
        <time>2018-09-26T11:29:27Z</time>
      </trkpt>
      <trkpt lat="40.731525029987097" lon="13.887710748240352">
        <ele>544.72000000000003</ele>
        <time>2018-09-26T11:29:37Z</time>
      </trkpt>
      <trkpt lat="40.731568029150367" lon="13.887640256434679">
        <ele>541.36000000000001</ele>
        <time>2018-09-26T11:29:46Z</time>
      </trkpt>
      <trkpt lat="40.73157993145287" lon="13.887608740478754">
        <ele>539.91999999999996</ele>
        <time>2018-09-26T11:29:49Z</time>
      </trkpt>
      <trkpt lat="40.731593761593103" lon="13.887513102963567">
        <ele>539.91999999999996</ele>
        <time>2018-09-26T11:29:58Z</time>
      </trkpt>
      <trkpt lat="40.731618572026491" lon="13.887491142377257">
        <ele>539.91999999999996</ele>
        <time>2018-09-26T11:30:01Z</time>
      </trkpt>
      <trkpt lat="40.731717059388757" lon="13.887491896748543">
        <ele>539.91999999999996</ele>
        <time>2018-09-26T11:30:13Z</time>
      </trkpt>
      <trkpt lat="40.731780510395765" lon="13.887503044679761">
        <ele>538.96000000000004</ele>
        <time>2018-09-26T11:30:25Z</time>
      </trkpt>
      <trkpt lat="40.731855696067214" lon="13.887558784335852">
        <ele>536.54999999999995</ele>
        <time>2018-09-26T11:30:37Z</time>
      </trkpt>
      <trkpt lat="40.731916967779398" lon="13.887588204815984">
        <ele>535.11000000000001</ele>
        <time>2018-09-26T11:30:49Z</time>
      </trkpt>
      <trkpt lat="40.731993159279227" lon="13.887649895623326">
        <ele>535.11000000000001</ele>
        <time>2018-09-26T11:31:00Z</time>
      </trkpt>
      <trkpt lat="40.732042696326971" lon="13.887682417407632">
        <ele>531.75</ele>
        <time>2018-09-26T11:31:10Z</time>
      </trkpt>
      <trkpt lat="40.732097011059523" lon="13.887708401307464">
        <ele>529.82000000000005</ele>
        <time>2018-09-26T11:31:22Z</time>
      </trkpt>
      <trkpt lat="40.732157528400421" lon="13.887734804302454">
        <ele>526.46000000000004</ele>
        <time>2018-09-26T11:31:31Z</time>
      </trkpt>
      <trkpt lat="40.73216775432229" lon="13.8877531606704">
        <ele>528.86000000000001</ele>
        <time>2018-09-26T11:31:35Z</time>
      </trkpt>
      <trkpt lat="40.732181835919619" lon="13.887790963053703">
        <ele>527.89999999999998</ele>
        <time>2018-09-26T11:31:53Z</time>
      </trkpt>
      <trkpt lat="40.732211172580719" lon="13.887748382985592">
        <ele>527.41999999999996</ele>
        <time>2018-09-26T11:32:10Z</time>
      </trkpt>
      <trkpt lat="40.732306726276875" lon="13.887759614735842">
        <ele>525.01999999999998</ele>
        <time>2018-09-26T11:32:20Z</time>
      </trkpt>
      <trkpt lat="40.732379984110594" lon="13.887810409069061">
        <ele>523.09000000000003</ele>
        <time>2018-09-26T11:32:28Z</time>
      </trkpt>
      <trkpt lat="40.732472604140639" lon="13.887852150946856">
        <ele>521.16999999999996</ele>
        <time>2018-09-26T11:32:37Z</time>
      </trkpt>
      <trkpt lat="40.732514597475529" lon="13.887867908924818">
        <ele>519.25</ele>
        <time>2018-09-26T11:32:41Z</time>
      </trkpt>
      <trkpt lat="40.732536977156997" lon="13.887866316363215">
        <ele>518.76999999999998</ele>
        <time>2018-09-26T11:32:43Z</time>
      </trkpt>
      <trkpt lat="40.732630435377359" lon="13.887823903933167">
        <ele>516.85000000000002</ele>
        <time>2018-09-26T11:32:53Z</time>
      </trkpt>
      <trkpt lat="40.73267393745482" lon="13.887780820950866">
        <ele>514.91999999999996</ele>
        <time>2018-09-26T11:33:00Z</time>
      </trkpt>
      <trkpt lat="40.732713164761662" lon="13.887771517038345">
        <ele>516.37</ele>
        <time>2018-09-26T11:33:05Z</time>
      </trkpt>
      <trkpt lat="40.732745435088873" lon="13.887754753232002">
        <ele>513</ele>
        <time>2018-09-26T11:33:09Z</time>
      </trkpt>
      <trkpt lat="40.732814082875848" lon="13.887746538966894">
        <ele>513</ele>
        <time>2018-09-26T11:33:20Z</time>
      </trkpt>
      <trkpt lat="40.732892956584692" lon="13.887769505381584">
        <ele>510.60000000000002</ele>
        <time>2018-09-26T11:33:30Z</time>
      </trkpt>
      <trkpt lat="40.732962023466825" lon="13.887787191197276">
        <ele>511.56</ele>
        <time>2018-09-26T11:33:41Z</time>
      </trkpt>
      <trkpt lat="40.73298079892993" lon="13.887795824557543">
        <ele>509.16000000000003</ele>
        <time>2018-09-26T11:33:44Z</time>
      </trkpt>
      <trkpt lat="40.73300426825881" lon="13.887795573100448">
        <ele>506.26999999999998</ele>
        <time>2018-09-26T11:33:49Z</time>
      </trkpt>
      <trkpt lat="40.733053972944617" lon="13.88780789449811">
        <ele>506.75</ele>
        <time>2018-09-26T11:34:01Z</time>
      </trkpt>
      <trkpt lat="40.733085656538606" lon="13.887788616120815">
        <ele>503.87</ele>
        <time>2018-09-26T11:34:08Z</time>
      </trkpt>
      <trkpt lat="40.73308146558702" lon="13.887750897556543">
        <ele>504.35000000000002</ele>
        <time>2018-09-26T11:34:20Z</time>
      </trkpt>
      <trkpt lat="40.733048608526587" lon="13.88768476434052">
        <ele>502.43000000000001</ele>
        <time>2018-09-26T11:34:32Z</time>
      </trkpt>
      <trkpt lat="40.73301893658936" lon="13.887607231736183">
        <ele>499.54000000000002</ele>
        <time>2018-09-26T11:34:41Z</time>
      </trkpt>
      <trkpt lat="40.733009800314903" lon="13.887563394382596">
        <ele>498.57999999999998</ele>
        <time>2018-09-26T11:34:48Z</time>
      </trkpt>
      <trkpt lat="40.732987001538277" lon="13.887516623362899">
        <ele>497.13999999999999</ele>
        <time>2018-09-26T11:34:58Z</time>
      </trkpt>
      <trkpt lat="40.732934279367328" lon="13.887474797666073">
        <ele>496.18000000000001</ele>
        <time>2018-09-26T11:35:09Z</time>
      </trkpt>
      <trkpt lat="40.732871666550636" lon="13.887420734390616">
        <ele>494.25999999999999</ele>
        <time>2018-09-26T11:35:22Z</time>
      </trkpt>
      <trkpt lat="40.732833109796047" lon="13.887348985299468">
        <ele>493.29000000000002</ele>
        <time>2018-09-26T11:35:34Z</time>
      </trkpt>
      <trkpt lat="40.73276630602777" lon="13.88726307079196">
        <ele>493.76999999999998</ele>
        <time>2018-09-26T11:35:45Z</time>
      </trkpt>
      <trkpt lat="40.732723558321595" lon="13.887160392478108">
        <ele>491.37</ele>
        <time>2018-09-26T11:35:54Z</time>
      </trkpt>
      <trkpt lat="40.732676032930613" lon="13.887104652822018">
        <ele>491.85000000000002</ele>
        <time>2018-09-26T11:36:04Z</time>
      </trkpt>
      <trkpt lat="40.732634039595723" lon="13.887036927044392">
        <ele>489.93000000000001</ele>
        <time>2018-09-26T11:36:14Z</time>
      </trkpt>
      <trkpt lat="40.732593890279531" lon="13.886956293135881">
        <ele>489.93000000000001</ele>
        <time>2018-09-26T11:36:26Z</time>
      </trkpt>
      <trkpt lat="40.732523901388049" lon="13.886880353093147">
        <ele>488.00999999999999</ele>
        <time>2018-09-26T11:36:38Z</time>
      </trkpt>
      <trkpt lat="40.732507556676865" lon="13.886804832145572">
        <ele>488.49000000000001</ele>
        <time>2018-09-26T11:36:47Z</time>
      </trkpt>
      <trkpt lat="40.732466569170356" lon="13.886704500764608">
        <ele>488.49000000000001</ele>
        <time>2018-09-26T11:36:58Z</time>
      </trkpt>
      <trkpt lat="40.732447793707252" lon="13.886661669239402">
        <ele>488.49000000000001</ele>
        <time>2018-09-26T11:37:05Z</time>
      </trkpt>
      <trkpt lat="40.732446787878871" lon="13.886643815785646">
        <ele>488.49000000000001</ele>
        <time>2018-09-26T11:37:07Z</time>
      </trkpt>
      <trkpt lat="40.732421055436134" lon="13.886559158563614">
        <ele>484.63999999999999</ele>
        <time>2018-09-26T11:37:18Z</time>
      </trkpt>
      <trkpt lat="40.732419630512595" lon="13.88655262067914">
        <ele>484.63999999999999</ele>
        <time>2018-09-26T11:37:19Z</time>
      </trkpt>
      <trkpt lat="40.732407979667187" lon="13.886504508554935">
        <ele>486.07999999999998</ele>
        <time>2018-09-26T11:37:25Z</time>
      </trkpt>
      <trkpt lat="40.732391551136971" lon="13.886461844667792">
        <ele>484.16000000000003</ele>
        <time>2018-09-26T11:37:30Z</time>
      </trkpt>
      <trkpt lat="40.732364980503917" lon="13.886404428631067">
        <ele>483.68000000000001</ele>
        <time>2018-09-26T11:37:40Z</time>
      </trkpt>
      <trkpt lat="40.732315946370363" lon="13.886297307908535">
        <ele>482.24000000000001</ele>
        <time>2018-09-26T11:37:51Z</time>
      </trkpt>
      <trkpt lat="40.732273366302252" lon="13.886232767254114">
        <ele>481.75999999999999</ele>
        <time>2018-09-26T11:38:00Z</time>
      </trkpt>
      <trkpt lat="40.732246460393071" lon="13.886136040091515">
        <ele>481.75999999999999</ele>
        <time>2018-09-26T11:38:10Z</time>
      </trkpt>
      <trkpt lat="40.73222491890192" lon="13.886042749509215">
        <ele>481.75999999999999</ele>
        <time>2018-09-26T11:38:19Z</time>
      </trkpt>
      <trkpt lat="40.732219470664859" lon="13.88597410172224">
        <ele>479.35000000000002</ele>
        <time>2018-09-26T11:38:30Z</time>
      </trkpt>
      <trkpt lat="40.732212932780385" lon="13.885945603251457">
        <ele>481.75999999999999</ele>
        <time>2018-09-26T11:38:33Z</time>
      </trkpt>
      <trkpt lat="40.73220195248723" lon="13.885885002091527">
        <ele>480.31999999999999</ele>
        <time>2018-09-26T11:38:41Z</time>
      </trkpt>
      <trkpt lat="40.732177393510938" lon="13.885831944644451">
        <ele>479.35000000000002</ele>
        <time>2018-09-26T11:38:50Z</time>
      </trkpt>
      <trkpt lat="40.732133975252509" lon="13.885757848620415">
        <ele>477.91000000000003</ele>
        <time>2018-09-26T11:39:03Z</time>
      </trkpt>
      <trkpt lat="40.732117714360356" lon="13.885696576908231">
        <ele>477.91000000000003</ele>
        <time>2018-09-26T11:39:13Z</time>
      </trkpt>
      <trkpt lat="40.732082091271877" lon="13.885611752048135">
        <ele>475.99000000000001</ele>
        <time>2018-09-26T11:39:23Z</time>
      </trkpt>
      <trkpt lat="40.732045378535986" lon="13.885557185858488">
        <ele>476.47000000000003</ele>
        <time>2018-09-26T11:39:33Z</time>
      </trkpt>
      <trkpt lat="40.732011264190078" lon="13.885495662689209">
        <ele>474.06999999999999</ele>
        <time>2018-09-26T11:39:43Z</time>
      </trkpt>
      <trkpt lat="40.73198058642447" lon="13.88543657027185">
        <ele>474.06999999999999</ele>
        <time>2018-09-26T11:39:54Z</time>
      </trkpt>
      <trkpt lat="40.731948735192418" lon="13.88540580868721">
        <ele>472.13999999999999</ele>
        <time>2018-09-26T11:40:03Z</time>
      </trkpt>
      <trkpt lat="40.731921745464206" lon="13.885370269417763">
        <ele>472.13999999999999</ele>
        <time>2018-09-26T11:40:13Z</time>
      </trkpt>
      <trkpt lat="40.731908837333322" lon="13.885331377387047">
        <ele>471.18000000000001</ele>
        <time>2018-09-26T11:40:18Z</time>
      </trkpt>
      <trkpt lat="40.731901712715626" lon="13.885263232514262">
        <ele>468.77999999999997</ele>
        <time>2018-09-26T11:40:27Z</time>
      </trkpt>
      <trkpt lat="40.731899533420801" lon="13.88520204462111">
        <ele>467.33999999999997</ele>
        <time>2018-09-26T11:40:35Z</time>
      </trkpt>
      <trkpt lat="40.731856618076563" lon="13.885122248902917">
        <ele>466.86000000000001</ele>
        <time>2018-09-26T11:40:45Z</time>
      </trkpt>
      <trkpt lat="40.731842368841171" lon="13.885059049353004">
        <ele>467.33999999999997</ele>
        <time>2018-09-26T11:40:54Z</time>
      </trkpt>
      <trkpt lat="40.731842871755362" lon="13.885050667449832">
        <ele>467.33999999999997</ele>
        <time>2018-09-26T11:40:55Z</time>
      </trkpt>
      <trkpt lat="40.731843039393425" lon="13.884914461523294">
        <ele>464.44999999999999</ele>
        <time>2018-09-26T11:41:08Z</time>
      </trkpt>
      <trkpt lat="40.731842033565044" lon="13.884787391871214">
        <ele>463.97000000000003</ele>
        <time>2018-09-26T11:41:19Z</time>
      </trkpt>
      <trkpt lat="40.731839938089252" lon="13.884699381887913">
        <ele>463.00999999999999</ele>
        <time>2018-09-26T11:41:29Z</time>
      </trkpt>
      <trkpt lat="40.731854941695929" lon="13.884573234245181">
        <ele>462.05000000000001</ele>
        <time>2018-09-26T11:41:41Z</time>
      </trkpt>
      <trkpt lat="40.731854857876897" lon="13.884500479325652">
        <ele>463.00999999999999</ele>
        <time>2018-09-26T11:41:51Z</time>
      </trkpt>
      <trkpt lat="40.731841698288918" lon="13.884469801560044">
        <ele>460.13</ele>
        <time>2018-09-26T11:41:58Z</time>
      </trkpt>
      <trkpt lat="40.731845637783408" lon="13.884394112974405">
        <ele>459.64999999999998</ele>
        <time>2018-09-26T11:42:07Z</time>
      </trkpt>
      <trkpt lat="40.731844129040837" lon="13.88429906219244">
        <ele>461.56999999999999</ele>
        <time>2018-09-26T11:42:17Z</time>
      </trkpt>
      <trkpt lat="40.731832562014461" lon="13.884158246219158">
        <ele>459.17000000000002</ele>
        <time>2018-09-26T11:42:28Z</time>
      </trkpt>
      <trkpt lat="40.731848403811455" lon="13.884040396660566">
        <ele>458.69</ele>
        <time>2018-09-26T11:42:38Z</time>
      </trkpt>
      <trkpt lat="40.731844296678901" lon="13.883873345330358">
        <ele>458.69</ele>
        <time>2018-09-26T11:42:49Z</time>
      </trkpt>
      <trkpt lat="40.731833567842841" lon="13.883758094161749">
        <ele>457.72000000000003</ele>
        <time>2018-09-26T11:42:58Z</time>
      </trkpt>
      <trkpt lat="40.731829041615129" lon="13.883744096383452">
        <ele>457.24000000000001</ele>
        <time>2018-09-26T11:42:59Z</time>
      </trkpt>
      <trkpt lat="40.731821749359369" lon="13.883695313706994">
        <ele>456.75999999999999</ele>
        <time>2018-09-26T11:43:02Z</time>
      </trkpt>
      <trkpt lat="40.731812445446849" lon="13.883561873808503">
        <ele>456.27999999999997</ele>
        <time>2018-09-26T11:43:14Z</time>
      </trkpt>
      <trkpt lat="40.731830969452858" lon="13.883498841896653">
        <ele>459.17000000000002</ele>
        <time>2018-09-26T11:43:27Z</time>
      </trkpt>
      <trkpt lat="40.731835747137666" lon="13.883471600711346">
        <ele>457.24000000000001</ele>
        <time>2018-09-26T11:43:34Z</time>
      </trkpt>
      <trkpt lat="40.731830131262541" lon="13.883422650396824">
        <ele>456.27999999999997</ele>
        <time>2018-09-26T11:43:42Z</time>
      </trkpt>
      <trkpt lat="40.731835663318634" lon="13.883370012044907">
        <ele>456.75999999999999</ele>
        <time>2018-09-26T11:43:50Z</time>
      </trkpt>
      <trkpt lat="40.731836250051856" lon="13.883346207439899">
        <ele>457.24000000000001</ele>
        <time>2018-09-26T11:43:59Z</time>
      </trkpt>
      <trkpt lat="40.731818145141006" lon="13.883296418935061">
        <ele>455.80000000000001</ele>
        <time>2018-09-26T11:44:09Z</time>
      </trkpt>
      <trkpt lat="40.731807667762041" lon="13.883275547996163">
        <ele>454.36000000000001</ele>
        <time>2018-09-26T11:44:20Z</time>
      </trkpt>
      <trkpt lat="40.731739941984415" lon="13.883217796683311">
        <ele>454.83999999999997</ele>
        <time>2018-09-26T11:44:31Z</time>
      </trkpt>
      <trkpt lat="40.731700295582414" lon="13.8831786531955">
        <ele>451.48000000000002</ele>
        <time>2018-09-26T11:44:39Z</time>
      </trkpt>
      <trkpt lat="40.731667019426823" lon="13.883108915761113">
        <ele>448.58999999999997</ele>
        <time>2018-09-26T11:44:50Z</time>
      </trkpt>
      <trkpt lat="40.731660816818476" lon="13.883087541908026">
        <ele>446.67000000000002</ele>
        <time>2018-09-26T11:44:53Z</time>
      </trkpt>
      <trkpt lat="40.731606921181083" lon="13.883005315437913">
        <ele>446.67000000000002</ele>
        <time>2018-09-26T11:45:04Z</time>
      </trkpt>
      <trkpt lat="40.731520419940352" lon="13.883022079244256">
        <ele>445.70999999999998</ele>
        <time>2018-09-26T11:45:16Z</time>
      </trkpt>
      <trkpt lat="40.731471637263894" lon="13.883041273802519">
        <ele>448.11000000000001</ele>
        <time>2018-09-26T11:45:28Z</time>
      </trkpt>
      <trkpt lat="40.73143232613802" lon="13.883021492511034">
        <ele>445.23000000000002</ele>
        <time>2018-09-26T11:45:35Z</time>
      </trkpt>
      <trkpt lat="40.731374658644199" lon="13.882998777553439">
        <ele>444.75</ele>
        <time>2018-09-26T11:45:45Z</time>
      </trkpt>
      <trkpt lat="40.731358481571078" lon="13.882972709834576">
        <ele>443.31</ele>
        <time>2018-09-26T11:45:48Z</time>
      </trkpt>
      <trkpt lat="40.731314392760396" lon="13.882929375395179">
        <ele>444.26999999999998</ele>
        <time>2018-09-26T11:46:00Z</time>
      </trkpt>
      <trkpt lat="40.731302825734019" lon="13.882926609367132">
        <ele>441.38</ele>
        <time>2018-09-26T11:46:02Z</time>
      </trkpt>
      <trkpt lat="40.731232920661569" lon="13.882931051775813">
        <ele>438.5</ele>
        <time>2018-09-26T11:46:13Z</time>
      </trkpt>
      <trkpt lat="40.73116997256875" lon="13.88283315114677">
        <ele>443.31</ele>
        <time>2018-09-26T11:46:25Z</time>
      </trkpt>
      <trkpt lat="40.731199225410819" lon="13.882769448682666">
        <ele>443.79000000000002</ele>
        <time>2018-09-26T11:46:30Z</time>
      </trkpt>
      <trkpt lat="40.731234094128013" lon="13.882714379578829">
        <ele>440.42000000000002</ele>
        <time>2018-09-26T11:46:39Z</time>
      </trkpt>
      <trkpt lat="40.731271225959063" lon="13.882631147280335">
        <ele>437.06</ele>
        <time>2018-09-26T11:46:49Z</time>
      </trkpt>
      <trkpt lat="40.731276925653219" lon="13.882613377645612">
        <ele>436.10000000000002</ele>
        <time>2018-09-26T11:46:51Z</time>
      </trkpt>
      <trkpt lat="40.731318248435855" lon="13.882550345733762">
        <ele>434.17000000000002</ele>
        <time>2018-09-26T11:47:01Z</time>
      </trkpt>
      <trkpt lat="40.731320176273584" lon="13.882550345733762">
        <ele>435.13</ele>
        <time>2018-09-26T11:47:08Z</time>
      </trkpt>
      <trkpt lat="40.731327049434185" lon="13.88252779841423">
        <ele>434.17000000000002</ele>
        <time>2018-09-26T11:47:10Z</time>
      </trkpt>
      <trkpt lat="40.731365354731679" lon="13.882482619956136">
        <ele>433.69</ele>
        <time>2018-09-26T11:47:16Z</time>
      </trkpt>
      <trkpt lat="40.73143869638443" lon="13.882445236667991">
        <ele>430.81</ele>
        <time>2018-09-26T11:47:28Z</time>
      </trkpt>
      <trkpt lat="40.731427129358053" lon="13.882429478690028">
        <ele>428.88999999999999</ele>
        <time>2018-09-26T11:47:41Z</time>
      </trkpt>
      <trkpt lat="40.731462584808469" lon="13.882428640499711">
        <ele>428.88999999999999</ele>
        <time>2018-09-26T11:47:53Z</time>
      </trkpt>
      <trkpt lat="40.73148806579411" lon="13.882437357679009">
        <ele>428.88999999999999</ele>
        <time>2018-09-26T11:48:14Z</time>
      </trkpt>
      <trkpt lat="40.731479851529002" lon="13.882451606914401">
        <ele>429.85000000000002</ele>
        <time>2018-09-26T11:48:27Z</time>
      </trkpt>
      <trkpt lat="40.731482701376081" lon="13.882436938583851">
        <ele>428.88999999999999</ele>
        <time>2018-09-26T11:48:45Z</time>
      </trkpt>
      <trkpt lat="40.731475912034512" lon="13.882423946633935">
        <ele>427.92000000000002</ele>
        <time>2018-09-26T11:48:59Z</time>
      </trkpt>
      <trkpt lat="40.731480438262224" lon="13.882424114271998">
        <ele>428.88999999999999</ele>
        <time>2018-09-26T11:49:15Z</time>
      </trkpt>
      <trkpt lat="40.731476247310638" lon="13.882434759289026">
        <ele>430.32999999999998</ele>
        <time>2018-09-26T11:49:30Z</time>
      </trkpt>
      <trkpt lat="40.731482785195112" lon="13.882430233061314">
        <ele>428.39999999999998</ele>
        <time>2018-09-26T11:49:46Z</time>
      </trkpt>
      <trkpt lat="40.731482114642859" lon="13.882432160899043">
        <ele>427.92000000000002</ele>
        <time>2018-09-26T11:50:00Z</time>
      </trkpt>
      <trkpt lat="40.731478929519653" lon="13.882422689348459">
        <ele>427.92000000000002</ele>
        <time>2018-09-26T11:50:20Z</time>
      </trkpt>
      <trkpt lat="40.731464764103293" lon="13.882433418184519">
        <ele>429.85000000000002</ele>
        <time>2018-09-26T11:50:39Z</time>
      </trkpt>
      <trkpt lat="40.731456968933344" lon="13.882431155070662">
        <ele>428.39999999999998</ele>
        <time>2018-09-26T11:50:58Z</time>
      </trkpt>
      <trkpt lat="40.731470715254545" lon="13.882430987432599">
        <ele>426.95999999999998</ele>
        <time>2018-09-26T11:51:11Z</time>
      </trkpt>
      <trkpt lat="40.73147683404386" lon="13.882426796481013">
        <ele>427.44</ele>
        <time>2018-09-26T11:51:33Z</time>
      </trkpt>
      <trkpt lat="40.73153056204319" lon="13.882402824237943">
        <ele>426.48000000000002</ele>
        <time>2018-09-26T11:51:44Z</time>
      </trkpt>
      <trkpt lat="40.731580937281251" lon="13.882351526990533">
        <ele>425.51999999999998</ele>
        <time>2018-09-26T11:51:53Z</time>
      </trkpt>
      <trkpt lat="40.731626115739346" lon="13.882303079590201">
        <ele>425.04000000000002</ele>
        <time>2018-09-26T11:52:02Z</time>
      </trkpt>
      <trkpt lat="40.731689650565386" lon="13.882178273051977">
        <ele>423.12</ele>
        <time>2018-09-26T11:52:18Z</time>
      </trkpt>
      <trkpt lat="40.73168596252799" lon="13.882165113463998">
        <ele>421.19</ele>
        <time>2018-09-26T11:52:27Z</time>
      </trkpt>
      <trkpt lat="40.731684872880578" lon="13.882158491760492">
        <ele>421.19</ele>
        <time>2018-09-26T11:52:30Z</time>
      </trkpt>
      <trkpt lat="40.73160138912499" lon="13.882107026875019">
        <ele>417.82999999999998</ele>
        <time>2018-09-26T11:52:41Z</time>
      </trkpt>
      <trkpt lat="40.731551265344024" lon="13.881994038820267">
        <ele>414.47000000000003</ele>
        <time>2018-09-26T11:52:53Z</time>
      </trkpt>
      <trkpt lat="40.731549588963389" lon="13.881951794028282">
        <ele>414.94999999999999</ele>
        <time>2018-09-26T11:52:59Z</time>
      </trkpt>
      <trkpt lat="40.731543386355042" lon="13.881932096555829">
        <ele>413.98000000000002</ele>
        <time>2018-09-26T11:53:04Z</time>
      </trkpt>
      <trkpt lat="40.731558809056878" lon="13.881904352456331">
        <ele>413.5</ele>
        <time>2018-09-26T11:53:14Z</time>
      </trkpt>
      <trkpt lat="40.731541039422154" lon="13.881920361891389">
        <ele>413.01999999999998</ele>
        <time>2018-09-26T11:53:28Z</time>
      </trkpt>
      <trkpt lat="40.731528047472239" lon="13.881935952231288">
        <ele>413.01999999999998</ele>
        <time>2018-09-26T11:53:39Z</time>
      </trkpt>
      <trkpt lat="40.731526119634509" lon="13.881942741572857">
        <ele>413.01999999999998</ele>
        <time>2018-09-26T11:54:02Z</time>
      </trkpt>
      <trkpt lat="40.731536177918315" lon="13.881959421560168">
        <ele>410.62</ele>
        <time>2018-09-26T11:54:23Z</time>
      </trkpt>
      <trkpt lat="40.731533830985427" lon="13.881939304992557">
        <ele>410.62</ele>
        <time>2018-09-26T11:54:38Z</time>
      </trkpt>
      <trkpt lat="40.731532825157046" lon="13.881929414346814">
        <ele>410.62</ele>
        <time>2018-09-26T11:54:56Z</time>
      </trkpt>
      <trkpt lat="40.731514133512974" lon="13.88188767246902">
        <ele>410.13999999999999</ele>
        <time>2018-09-26T11:55:25Z</time>
      </trkpt>
      <trkpt lat="40.731526622548699" lon="13.881931090727448">
        <ele>410.62</ele>
        <time>2018-09-26T11:55:51Z</time>
      </trkpt>
      <trkpt lat="40.731531316414475" lon="13.881931593641639">
        <ele>410.62</ele>
        <time>2018-09-26T11:56:12Z</time>
      </trkpt>
      <trkpt lat="40.731538273394108" lon="13.881937377154827">
        <ele>412.06</ele>
        <time>2018-09-26T11:56:33Z</time>
      </trkpt>
      <trkpt lat="40.731539698317647" lon="13.881949279457331">
        <ele>409.18000000000001</ele>
        <time>2018-09-26T11:56:48Z</time>
      </trkpt>
      <trkpt lat="40.731524275615811" lon="13.881939556449652">
        <ele>409.66000000000003</ele>
        <time>2018-09-26T11:57:12Z</time>
      </trkpt>
      <trkpt lat="40.731514133512974" lon="13.881938802078366">
        <ele>409.66000000000003</ele>
        <time>2018-09-26T11:57:27Z</time>
      </trkpt>
      <trkpt lat="40.731526371091604" lon="13.881941400468349">
        <ele>411.10000000000002</ele>
        <time>2018-09-26T11:57:46Z</time>
      </trkpt>
      <trkpt lat="40.731515558436513" lon="13.881935281679034">
        <ele>407.74000000000001</ele>
        <time>2018-09-26T11:58:01Z</time>
      </trkpt>
      <trkpt lat="40.731533411890268" lon="13.881940813735127">
        <ele>409.18000000000001</ele>
        <time>2018-09-26T11:58:19Z</time>
      </trkpt>
      <trkpt lat="40.731556545943022" lon="13.881981382146478">
        <ele>408.22000000000003</ele>
        <time>2018-09-26T11:58:30Z</time>
      </trkpt>
      <trkpt lat="40.731569537892938" lon="13.882015328854322">
        <ele>408.69999999999999</ele>
        <time>2018-09-26T11:58:40Z</time>
      </trkpt>
      <trkpt lat="40.731590744107962" lon="13.882072158157825">
        <ele>410.62</ele>
        <time>2018-09-26T11:58:51Z</time>
      </trkpt>
      <trkpt lat="40.731624187901616" lon="13.882112810388207">
        <ele>411.57999999999998</ele>
        <time>2018-09-26T11:59:00Z</time>
      </trkpt>
      <trkpt lat="40.731679005548358" lon="13.882157653570175">
        <ele>414.47000000000003</ele>
        <time>2018-09-26T11:59:09Z</time>
      </trkpt>
      <trkpt lat="40.731726950034499" lon="13.882150612771511">
        <ele>414.94999999999999</ele>
        <time>2018-09-26T11:59:18Z</time>
      </trkpt>
      <trkpt lat="40.731759890913963" lon="13.882062518969178">
        <ele>414.94999999999999</ele>
        <time>2018-09-26T11:59:31Z</time>
      </trkpt>
      <trkpt lat="40.731807248666883" lon="13.882017089053988">
        <ele>413.98000000000002</ele>
        <time>2018-09-26T11:59:44Z</time>
      </trkpt>
      <trkpt lat="40.731803812086582" lon="13.882003761827946">
        <ele>412.54000000000002</ele>
        <time>2018-09-26T12:00:01Z</time>
      </trkpt>
      <trkpt lat="40.731797106564045" lon="13.882021363824606">
        <ele>412.06</ele>
        <time>2018-09-26T12:00:11Z</time>
      </trkpt>
      <trkpt lat="40.731830215081573" lon="13.88201423920691">
        <ele>411.57999999999998</ele>
        <time>2018-09-26T12:00:19Z</time>
      </trkpt>
      <trkpt lat="40.731901712715626" lon="13.881961768493056">
        <ele>409.66000000000003</ele>
        <time>2018-09-26T12:00:31Z</time>
      </trkpt>
      <trkpt lat="40.731986621394753" lon="13.881903262808919">
        <ele>408.22000000000003</ele>
        <time>2018-09-26T12:00:43Z</time>
      </trkpt>
      <trkpt lat="40.732013275846839" lon="13.881887253373861">
        <ele>407.74000000000001</ele>
        <time>2018-09-26T12:00:55Z</time>
      </trkpt>
      <trkpt lat="40.732052754610777" lon="13.88186470605433">
        <ele>407.74000000000001</ele>
        <time>2018-09-26T12:01:10Z</time>
      </trkpt>
      <trkpt lat="40.732115283608437" lon="13.881827490404248">
        <ele>407.25999999999999</ele>
        <time>2018-09-26T12:01:20Z</time>
      </trkpt>
      <trkpt lat="40.732140429317951" lon="13.881802009418607">
        <ele>406.76999999999998</ele>
        <time>2018-09-26T12:01:31Z</time>
      </trkpt>
      <trkpt lat="40.732190134003758" lon="13.881758004426956">
        <ele>406.76999999999998</ele>
        <time>2018-09-26T12:01:43Z</time>
      </trkpt>
      <trkpt lat="40.732263056561351" lon="13.881678627803922">
        <ele>406.76999999999998</ele>
        <time>2018-09-26T12:01:54Z</time>
      </trkpt>
      <trkpt lat="40.73234754614532" lon="13.88150118291378">
        <ele>405.81</ele>
        <time>2018-09-26T12:02:07Z</time>
      </trkpt>
      <trkpt lat="40.732361963018775" lon="13.881455166265368">
        <ele>405.32999999999998</ele>
        <time>2018-09-26T12:02:17Z</time>
      </trkpt>
      <trkpt lat="40.732374535873532" lon="13.881413508206606">
        <ele>404.85000000000002</ele>
        <time>2018-09-26T12:02:28Z</time>
      </trkpt>
      <trkpt lat="40.732396747916937" lon="13.881315775215626">
        <ele>404.85000000000002</ele>
        <time>2018-09-26T12:02:38Z</time>
      </trkpt>
      <trkpt lat="40.732401441782713" lon="13.881269004195929">
        <ele>404.37</ele>
        <time>2018-09-26T12:02:48Z</time>
      </trkpt>
      <trkpt lat="40.732402615249157" lon="13.881194572895765">
        <ele>404.37</ele>
        <time>2018-09-26T12:02:57Z</time>
      </trkpt>
      <trkpt lat="40.732411248609424" lon="13.881174623966217">
        <ele>404.37</ele>
        <time>2018-09-26T12:03:06Z</time>
      </trkpt>
      <trkpt lat="40.732434885576367" lon="13.881192812696099">
        <ele>405.32999999999998</ele>
        <time>2018-09-26T12:03:25Z</time>
      </trkpt>
      <trkpt lat="40.732413092628121" lon="13.881191974505782">
        <ele>405.32999999999998</ele>
        <time>2018-09-26T12:03:43Z</time>
      </trkpt>
      <trkpt lat="40.732391551136971" lon="13.881158027797937">
        <ele>405.81</ele>
        <time>2018-09-26T12:03:54Z</time>
      </trkpt>
      <trkpt lat="40.732373362407088" lon="13.881166577339172">
        <ele>406.76999999999998</ele>
        <time>2018-09-26T12:04:16Z</time>
      </trkpt>
      <trkpt lat="40.732399094849825" lon="13.881149142980576">
        <ele>405.81</ele>
        <time>2018-09-26T12:04:30Z</time>
      </trkpt>
      <trkpt lat="40.732401441782713" lon="13.88113715685904">
        <ele>405.81</ele>
        <time>2018-09-26T12:04:41Z</time>
      </trkpt>
      <trkpt lat="40.732417702674866" lon="13.881095498800278">
        <ele>405.81</ele>
        <time>2018-09-26T12:04:51Z</time>
      </trkpt>
      <trkpt lat="40.73242180980742" lon="13.881084937602282">
        <ele>406.76999999999998</ele>
        <time>2018-09-26T12:05:05Z</time>
      </trkpt>
      <trkpt lat="40.732431029900908" lon="13.881089380010962">
        <ele>406.76999999999998</ele>
        <time>2018-09-26T12:05:18Z</time>
      </trkpt>
      <trkpt lat="40.732469419017434" lon="13.880996005609632">
        <ele>405.32999999999998</ele>
        <time>2018-09-26T12:05:28Z</time>
      </trkpt>
      <trkpt lat="40.732512753456831" lon="13.8808923214674">
        <ele>404.37</ele>
        <time>2018-09-26T12:05:38Z</time>
      </trkpt>
      <trkpt lat="40.732549298554659" lon="13.880712362006307">
        <ele>406.29000000000002</ele>
        <time>2018-09-26T12:05:51Z</time>
      </trkpt>
      <trkpt lat="40.732606630772352" lon="13.88058889657259">
        <ele>407.25999999999999</ele>
        <time>2018-09-26T12:06:02Z</time>
      </trkpt>
      <trkpt lat="40.732721127569675" lon="13.880420252680779">
        <ele>405.32999999999998</ele>
        <time>2018-09-26T12:06:17Z</time>
      </trkpt>
      <trkpt lat="40.732801426202059" lon="13.88028547167778">
        <ele>404.85000000000002</ele>
        <time>2018-09-26T12:06:30Z</time>
      </trkpt>
      <trkpt lat="40.732805952429771" lon="13.8802879024297">
        <ele>405.81</ele>
        <time>2018-09-26T12:06:38Z</time>
      </trkpt>
      <trkpt lat="40.732955569401383" lon="13.880176171660423">
        <ele>404.85000000000002</ele>
        <time>2018-09-26T12:06:52Z</time>
      </trkpt>
      <trkpt lat="40.733091691508889" lon="13.880117414519191">
        <ele>403.41000000000003</ele>
        <time>2018-09-26T12:07:05Z</time>
      </trkpt>
      <trkpt lat="40.733207697048783" lon="13.880113307386637">
        <ele>405.81</ele>
        <time>2018-09-26T12:07:16Z</time>
      </trkpt>
      <trkpt lat="40.733319763094187" lon="13.880071649327874">
        <ele>404.85000000000002</ele>
        <time>2018-09-26T12:07:28Z</time>
      </trkpt>
      <trkpt lat="40.733440378680825" lon="13.879981795325875">
        <ele>407.25999999999999</ele>
        <time>2018-09-26T12:07:39Z</time>
      </trkpt>
      <trkpt lat="40.73348505422473" lon="13.879885990172625">
        <ele>405.32999999999998</ele>
        <time>2018-09-26T12:07:50Z</time>
      </trkpt>
      <trkpt lat="40.733487568795681" lon="13.879839973524213">
        <ele>403.41000000000003</ele>
        <time>2018-09-26T12:08:00Z</time>
      </trkpt>
      <trkpt lat="40.733475331217051" lon="13.879850618541241">
        <ele>404.85000000000002</ele>
        <time>2018-09-26T12:08:17Z</time>
      </trkpt>
      <trkpt lat="40.733420262113214" lon="13.879879619926214">
        <ele>403.41000000000003</ele>
        <time>2018-09-26T12:08:24Z</time>
      </trkpt>
      <trkpt lat="40.733307776972651" lon="13.879841063171625">
        <ele>401.00999999999999</ele>
        <time>2018-09-26T12:08:38Z</time>
      </trkpt>
      <trkpt lat="40.7333018258214" lon="13.879835279658437">
        <ele>401.00999999999999</ele>
        <time>2018-09-26T12:08:39Z</time>
      </trkpt>
      <trkpt lat="40.733227226883173" lon="13.879812983796">
        <ele>398.60000000000002</ele>
        <time>2018-09-26T12:08:48Z</time>
      </trkpt>
      <trkpt lat="40.733082219958305" lon="13.879900490865111">
        <ele>395.24000000000001</ele>
        <time>2018-09-26T12:09:03Z</time>
      </trkpt>
      <trkpt lat="40.732951546087861" lon="13.879967546090484">
        <ele>393.31999999999999</ele>
        <time>2018-09-26T12:09:15Z</time>
      </trkpt>
      <trkpt lat="40.732828499749303" lon="13.880042480304837">
        <ele>393.31999999999999</ele>
        <time>2018-09-26T12:09:27Z</time>
      </trkpt>
      <trkpt lat="40.732712913304567" lon="13.880110122263432">
        <ele>390.43000000000001</ele>
        <time>2018-09-26T12:09:40Z</time>
      </trkpt>
      <trkpt lat="40.732653569430113" lon="13.880140548571944">
        <ele>389.47000000000003</ele>
        <time>2018-09-26T12:09:51Z</time>
      </trkpt>
      <trkpt lat="40.732619371265173" lon="13.880187151953578">
        <ele>389.94999999999999</ele>
        <time>2018-09-26T12:09:58Z</time>
      </trkpt>
      <trkpt lat="40.732521470636129" lon="13.88031966984272">
        <ele>388.99000000000001</ele>
        <time>2018-09-26T12:10:11Z</time>
      </trkpt>
      <trkpt lat="40.732504623010755" lon="13.880265522748232">
        <ele>388.50999999999999</ele>
        <time>2018-09-26T12:10:17Z</time>
      </trkpt>
      <trkpt lat="40.732567068189383" lon="13.880111631006002">
        <ele>385.14999999999998</ele>
        <time>2018-09-26T12:10:28Z</time>
      </trkpt>
      <trkpt lat="40.732598835602403" lon="13.880065027624369">
        <ele>384.18000000000001</ele>
        <time>2018-09-26T12:10:32Z</time>
      </trkpt>
      <trkpt lat="40.732698161154985" lon="13.879883894696832">
        <ele>383.22000000000003</ele>
        <time>2018-09-26T12:10:47Z</time>
      </trkpt>
      <trkpt lat="40.732722468674183" lon="13.879733774811029">
        <ele>383.69999999999999</ele>
        <time>2018-09-26T12:10:59Z</time>
      </trkpt>
      <trkpt lat="40.732720959931612" lon="13.879717094823718">
        <ele>383.22000000000003</ele>
        <time>2018-09-26T12:11:00Z</time>
      </trkpt>
      <trkpt lat="40.732725318521261" lon="13.879636880010366">
        <ele>380.81999999999999</ele>
        <time>2018-09-26T12:11:07Z</time>
      </trkpt>
      <trkpt lat="40.732640996575356" lon="13.8795315194875">
        <ele>377.44999999999999</ele>
        <time>2018-09-26T12:11:22Z</time>
      </trkpt>
      <trkpt lat="40.732618700712919" lon="13.879466727375984">
        <ele>375.52999999999997</ele>
        <time>2018-09-26T12:11:29Z</time>
      </trkpt>
      <trkpt lat="40.732583329081535" lon="13.879381315782666">
        <ele>374.08999999999997</ele>
        <time>2018-09-26T12:11:39Z</time>
      </trkpt>
      <trkpt lat="40.732547705993056" lon="13.879231447353959">
        <ele>375.05000000000001</ele>
        <time>2018-09-26T12:11:51Z</time>
      </trkpt>
      <trkpt lat="40.732562877237797" lon="13.879168247804046">
        <ele>374.56999999999999</ele>
        <time>2018-09-26T12:12:01Z</time>
      </trkpt>
      <trkpt lat="40.732612330466509" lon="13.879118962213397">
        <ele>370.73000000000002</ele>
        <time>2018-09-26T12:12:08Z</time>
      </trkpt>
      <trkpt lat="40.732637895271182" lon="13.879100773483515">
        <ele>370.24000000000001</ele>
        <time>2018-09-26T12:12:10Z</time>
      </trkpt>
      <trkpt lat="40.732676619663835" lon="13.879088116809726">
        <ele>368.80000000000001</ele>
        <time>2018-09-26T12:12:13Z</time>
      </trkpt>
      <trkpt lat="40.73272867128253" lon="13.879071353003383">
        <ele>366.39999999999998</ele>
        <time>2018-09-26T12:12:20Z</time>
      </trkpt>
      <trkpt lat="40.732749961316586" lon="13.879072275012732">
        <ele>365.92000000000002</ele>
        <time>2018-09-26T12:12:22Z</time>
      </trkpt>
      <trkpt lat="40.732825063169003" lon="13.87906389310956">
        <ele>362.55000000000001</ele>
        <time>2018-09-26T12:12:27Z</time>
      </trkpt>
      <trkpt lat="40.732884323224425" lon="13.879059283062816">
        <ele>364.48000000000002</ele>
        <time>2018-09-26T12:12:33Z</time>
      </trkpt>
      <trkpt lat="40.732893040403724" lon="13.879054002463818">
        <ele>364.95999999999998</ele>
        <time>2018-09-26T12:12:34Z</time>
      </trkpt>
      <trkpt lat="40.732913995161653" lon="13.878984684124589">
        <ele>364.95999999999998</ele>
        <time>2018-09-26T12:12:40Z</time>
      </trkpt>
      <trkpt lat="40.732910307124257" lon="13.878939170390368">
        <ele>363.51999999999998</ele>
        <time>2018-09-26T12:12:48Z</time>
      </trkpt>
      <trkpt lat="40.732925394549966" lon="13.878943109884858">
        <ele>362.06999999999999</ele>
        <time>2018-09-26T12:13:03Z</time>
      </trkpt>
      <trkpt lat="40.732932267710567" lon="13.878939086571336">
        <ele>362.06999999999999</ele>
        <time>2018-09-26T12:13:04Z</time>
      </trkpt>
      <trkpt lat="40.732926484197378" lon="13.87895492836833">
        <ele>363.04000000000002</ele>
        <time>2018-09-26T12:13:12Z</time>
      </trkpt>
      <trkpt lat="40.732919946312904" lon="13.879041597247124">
        <ele>367.83999999999997</ele>
        <time>2018-09-26T12:13:21Z</time>
      </trkpt>
      <trkpt lat="40.732919611036777" lon="13.879039753228426">
        <ele>366.88</ele>
        <time>2018-09-26T12:13:27Z</time>
      </trkpt>
      <trkpt lat="40.73290754109621" lon="13.879041345790029">
        <ele>366.39999999999998</ele>
        <time>2018-09-26T12:13:31Z</time>
      </trkpt>
      <trkpt lat="40.732908127829432" lon="13.879042603075504">
        <ele>364.48000000000002</ele>
        <time>2018-09-26T12:13:34Z</time>
      </trkpt>
      <trkpt lat="40.732919527217746" lon="13.879018798470497">
        <ele>362.06999999999999</ele>
        <time>2018-09-26T12:13:47Z</time>
      </trkpt>
      <trkpt lat="40.732926316559315" lon="13.879014356061816">
        <ele>362.06999999999999</ele>
        <time>2018-09-26T12:14:12Z</time>
      </trkpt>
      <trkpt lat="40.732921538874507" lon="13.878991641104221">
        <ele>360.63</ele>
        <time>2018-09-26T12:14:41Z</time>
      </trkpt>
      <trkpt lat="40.732916006818414" lon="13.879003040492535">
        <ele>362.06999999999999</ele>
        <time>2018-09-26T12:15:08Z</time>
      </trkpt>
      <trkpt lat="40.732923466712236" lon="13.879003124311566">
        <ele>363.04000000000002</ele>
        <time>2018-09-26T12:15:30Z</time>
      </trkpt>
      <trkpt lat="40.732929166406393" lon="13.879021480679512">
        <ele>363.51999999999998</ele>
        <time>2018-09-26T12:15:34Z</time>
      </trkpt>
      <trkpt lat="40.732928579673171" lon="13.879027683287859">
        <ele>365.44</ele>
        <time>2018-09-26T12:15:41Z</time>
      </trkpt>
      <trkpt lat="40.732887424528599" lon="13.878959706053138">
        <ele>365.92000000000002</ele>
        <time>2018-09-26T12:15:51Z</time>
      </trkpt>
      <trkpt lat="40.732876192778349" lon="13.87894562445581">
        <ele>363.04000000000002</ele>
        <time>2018-09-26T12:15:55Z</time>
      </trkpt>
      <trkpt lat="40.732804611325264" lon="13.878888627514243">
        <ele>358.70999999999998</ele>
        <time>2018-09-26T12:16:06Z</time>
      </trkpt>
      <trkpt lat="40.732745938003063" lon="13.878848645836115">
        <ele>356.79000000000002</ele>
        <time>2018-09-26T12:16:16Z</time>
      </trkpt>
      <trkpt lat="40.732694054022431" lon="13.878843365237117">
        <ele>354.86000000000001</ele>
        <time>2018-09-26T12:16:24Z</time>
      </trkpt>
      <trkpt lat="40.732624987140298" lon="13.87884646654129">
        <ele>352.94</ele>
        <time>2018-09-26T12:16:37Z</time>
      </trkpt>
      <trkpt lat="40.732662286609411" lon="13.878829702734947">
        <ele>353.42000000000002</ele>
        <time>2018-09-26T12:16:46Z</time>
      </trkpt>
      <trkpt lat="40.732580060139298" lon="13.878843365237117">
        <ele>353.42000000000002</ele>
        <time>2018-09-26T12:17:00Z</time>
      </trkpt>
      <trkpt lat="40.732517950236797" lon="13.878852501511574">
        <ele>352.45999999999998</ele>
        <time>2018-09-26T12:17:09Z</time>
      </trkpt>
      <trkpt lat="40.73238417506218" lon="13.878850489854813">
        <ele>349.57999999999998</ele>
        <time>2018-09-26T12:17:24Z</time>
      </trkpt>
      <trkpt lat="40.732415607199073" lon="13.878808664157987">
        <ele>349.10000000000002</ele>
        <time>2018-09-26T12:17:39Z</time>
      </trkpt>
      <trkpt lat="40.732417870312929" lon="13.878812100738287">
        <ele>349.57999999999998</ele>
        <time>2018-09-26T12:17:40Z</time>
      </trkpt>
      <trkpt lat="40.732424156740308" lon="13.87880346737802">
        <ele>347.17000000000002</ele>
        <time>2018-09-26T12:17:51Z</time>
      </trkpt>
      <trkpt lat="40.732419798150659" lon="13.878818051889539">
        <ele>347.64999999999998</ele>
        <time>2018-09-26T12:18:15Z</time>
      </trkpt>
      <trkpt lat="40.7324193790555" lon="13.878820734098554">
        <ele>348.62</ele>
        <time>2018-09-26T12:18:38Z</time>
      </trkpt>
      <trkpt lat="40.732421558350325" lon="13.878822410479188">
        <ele>348.62</ele>
        <time>2018-09-26T12:18:57Z</time>
      </trkpt>
      <trkpt lat="40.732423737645149" lon="13.878821237012744">
        <ele>350.54000000000002</ele>
        <time>2018-09-26T12:19:02Z</time>
      </trkpt>
      <trkpt lat="40.732416529208422" lon="13.878820650279522">
        <ele>355.33999999999997</ele>
        <time>2018-09-26T12:19:09Z</time>
      </trkpt>
      <trkpt lat="40.732422145083547" lon="13.878818554803729">
        <ele>356.79000000000002</ele>
        <time>2018-09-26T12:19:11Z</time>
      </trkpt>
      <trkpt lat="40.732420971617103" lon="13.878818973898888">
        <ele>350.54000000000002</ele>
        <time>2018-09-26T12:19:13Z</time>
      </trkpt>
      <trkpt lat="40.732421139255166" lon="13.878819895908237">
        <ele>351.01999999999998</ele>
        <time>2018-09-26T12:19:14Z</time>
      </trkpt>
      <trkpt lat="40.732412254437804" lon="13.878831211477518">
        <ele>350.06</ele>
        <time>2018-09-26T12:19:31Z</time>
      </trkpt>
      <trkpt lat="40.732418121770024" lon="13.878833642229438">
        <ele>349.10000000000002</ele>
        <time>2018-09-26T12:19:36Z</time>
      </trkpt>
      <trkpt lat="40.732373781502247" lon="13.878839425742626">
        <ele>348.13</ele>
        <time>2018-09-26T12:19:43Z</time>
      </trkpt>
      <trkpt lat="40.732327597215772" lon="13.878836156800389">
        <ele>348.13</ele>
        <time>2018-09-26T12:19:46Z</time>
      </trkpt>
      <trkpt lat="40.732278730720282" lon="13.878856943920255">
        <ele>346.69</ele>
        <time>2018-09-26T12:19:50Z</time>
      </trkpt>
      <trkpt lat="40.732192900031805" lon="13.878998933359981">
        <ele>347.17000000000002</ele>
        <time>2018-09-26T12:20:02Z</time>
      </trkpt>
      <trkpt lat="40.732145542278886" lon="13.87912642210722">
        <ele>346.20999999999998</ele>
        <time>2018-09-26T12:20:11Z</time>
      </trkpt>
      <trkpt lat="40.73202895000577" lon="13.879277715459466">
        <ele>344.76999999999998</ele>
        <time>2018-09-26T12:20:23Z</time>
      </trkpt>
      <trkpt lat="40.731889642775059" lon="13.879464128986001">
        <ele>342.85000000000002</ele>
        <time>2018-09-26T12:20:37Z</time>
      </trkpt>
      <trkpt lat="40.731823006644845" lon="13.879641070961952">
        <ele>343.32999999999998</ele>
        <time>2018-09-26T12:20:49Z</time>
      </trkpt>
      <trkpt lat="40.731693925336003" lon="13.87983150780201">
        <ele>342.37</ele>
        <time>2018-09-26T12:21:02Z</time>
      </trkpt>
      <trkpt lat="40.731563335284591" lon="13.879988584667444">
        <ele>339.48000000000002</ele>
        <time>2018-09-26T12:21:15Z</time>
      </trkpt>
      <trkpt lat="40.731426123529673" lon="13.880163682624698">
        <ele>337.56</ele>
        <time>2018-09-26T12:21:29Z</time>
      </trkpt>
      <trkpt lat="40.73134632781148" lon="13.880424443632364">
        <ele>335.16000000000003</ele>
        <time>2018-09-26T12:21:44Z</time>
      </trkpt>
      <trkpt lat="40.731164608150721" lon="13.880550758913159">
        <ele>334.68000000000001</ele>
        <time>2018-09-26T12:21:57Z</time>
      </trkpt>
      <trkpt lat="40.731005435809493" lon="13.880601972341537">
        <ele>334.68000000000001</ele>
        <time>2018-09-26T12:22:09Z</time>
      </trkpt>
      <trkpt lat="40.730816591531038" lon="13.880598787218332">
        <ele>334.68000000000001</ele>
        <time>2018-09-26T12:22:23Z</time>
      </trkpt>
      <trkpt lat="40.730665633454919" lon="13.880568528547883">
        <ele>333.23000000000002</ele>
        <time>2018-09-26T12:22:34Z</time>
      </trkpt>
      <trkpt lat="40.730584496632218" lon="13.880518237128854">
        <ele>330.82999999999998</ele>
        <time>2018-09-26T12:22:42Z</time>
      </trkpt>
      <trkpt lat="40.730523308739066" lon="13.880438609048724">
        <ele>328.43000000000001</ele>
        <time>2018-09-26T12:22:51Z</time>
      </trkpt>
      <trkpt lat="40.730493133887649" lon="13.880411200225353">
        <ele>326.99000000000001</ele>
        <time>2018-09-26T12:22:54Z</time>
      </trkpt>
      <trkpt lat="40.730474609881639" lon="13.880391167476773">
        <ele>326.99000000000001</ele>
        <time>2018-09-26T12:22:56Z</time>
      </trkpt>
      <trkpt lat="40.730436556041241" lon="13.880376918241382">
        <ele>326.01999999999998</ele>
        <time>2018-09-26T12:23:00Z</time>
      </trkpt>
      <trkpt lat="40.730418115854263" lon="13.880369290709496">
        <ele>324.57999999999998</ele>
        <time>2018-09-26T12:23:02Z</time>
      </trkpt>
      <trkpt lat="40.730297332629561" lon="13.88028253801167">
        <ele>320.25999999999999</ele>
        <time>2018-09-26T12:23:15Z</time>
      </trkpt>
      <trkpt lat="40.730285597965121" lon="13.880276503041387">
        <ele>320.74000000000001</ele>
        <time>2018-09-26T12:23:16Z</time>
      </trkpt>
      <trkpt lat="40.730186272412539" lon="13.880219925194979">
        <ele>318.32999999999998</ele>
        <time>2018-09-26T12:23:28Z</time>
      </trkpt>
      <trkpt lat="40.730161629617214" lon="13.880215315148234">
        <ele>316.88999999999999</ele>
        <time>2018-09-26T12:23:38Z</time>
      </trkpt>
      <trkpt lat="40.730143440887332" lon="13.880222020670772">
        <ele>318.32999999999998</ele>
        <time>2018-09-26T12:23:50Z</time>
      </trkpt>
      <trkpt lat="40.730131957679987" lon="13.880215734243393">
        <ele>319.77999999999997</ele>
        <time>2018-09-26T12:24:14Z</time>
      </trkpt>
      <trkpt lat="40.730149140581489" lon="13.880194192752242">
        <ele>319.77999999999997</ele>
        <time>2018-09-26T12:24:18Z</time>
      </trkpt>
      <trkpt lat="40.730146961286664" lon="13.880124455317855">
        <ele>319.30000000000001</ele>
        <time>2018-09-26T12:24:24Z</time>
      </trkpt>
      <trkpt lat="40.730160539969802" lon="13.880002833902836">
        <ele>317.85000000000002</ele>
        <time>2018-09-26T12:24:36Z</time>
      </trkpt>
      <trkpt lat="40.730174034833908" lon="13.880013143643737">
        <ele>318.32999999999998</ele>
        <time>2018-09-26T12:24:53Z</time>
      </trkpt>
      <trkpt lat="40.730193732306361" lon="13.879993613809347">
        <ele>316.41000000000003</ele>
        <time>2018-09-26T12:25:15Z</time>
      </trkpt>
      <trkpt lat="40.730194989591837" lon="13.879918763414025">
        <ele>314.49000000000001</ele>
        <time>2018-09-26T12:25:26Z</time>
      </trkpt>
      <trkpt lat="40.730236480012536" lon="13.879788257181644">
        <ele>315.44999999999999</ele>
        <time>2018-09-26T12:25:39Z</time>
      </trkpt>
      <trkpt lat="40.730239162221551" lon="13.879647692665458">
        <ele>316.41000000000003</ele>
        <time>2018-09-26T12:25:51Z</time>
      </trkpt>
      <trkpt lat="40.73017512448132" lon="13.879489274695516">
        <ele>313.52999999999997</ele>
        <time>2018-09-26T12:26:05Z</time>
      </trkpt>
      <trkpt lat="40.73014235123992" lon="13.879329767078161">
        <ele>310.63999999999999</ele>
        <time>2018-09-26T12:26:17Z</time>
      </trkpt>
      <trkpt lat="40.730133382603526" lon="13.879260700196028">
        <ele>308.72000000000003</ele>
        <time>2018-09-26T12:26:23Z</time>
      </trkpt>
      <trkpt lat="40.730084935203195" lon="13.879194818437099">
        <ele>311.12</ele>
        <time>2018-09-26T12:26:29Z</time>
      </trkpt>
      <trkpt lat="40.729981418699026" lon="13.879122314974666">
        <ele>312.08999999999997</ele>
        <time>2018-09-26T12:26:42Z</time>
      </trkpt>
      <trkpt lat="40.729889804497361" lon="13.879041932523251">
        <ele>311.12</ele>
        <time>2018-09-26T12:26:54Z</time>
      </trkpt>
      <trkpt lat="40.7298843562603" lon="13.879072945564985">
        <ele>310.63999999999999</ele>
        <time>2018-09-26T12:27:04Z</time>
      </trkpt>
      <trkpt lat="40.729842530563474" lon="13.879056265577674">
        <ele>310.63999999999999</ele>
        <time>2018-09-26T12:27:16Z</time>
      </trkpt>
      <trkpt lat="40.72983356192708" lon="13.878942271694541">
        <ele>311.60000000000002</ele>
        <time>2018-09-26T12:27:23Z</time>
      </trkpt>
      <trkpt lat="40.729824090376496" lon="13.878843868151307">
        <ele>309.68000000000001</ele>
        <time>2018-09-26T12:27:30Z</time>
      </trkpt>
      <trkpt lat="40.729830041527748" lon="13.878818806260824">
        <ele>309.19999999999999</ele>
        <time>2018-09-26T12:27:33Z</time>
      </trkpt>
      <trkpt lat="40.729779498651624" lon="13.878662902861834">
        <ele>306.80000000000001</ele>
        <time>2018-09-26T12:27:45Z</time>
      </trkpt>
      <trkpt lat="40.729764830321074" lon="13.878620658069849">
        <ele>308.24000000000001</ele>
        <time>2018-09-26T12:27:49Z</time>
      </trkpt>
      <trkpt lat="40.729744797572494" lon="13.878596434369683">
        <ele>308.24000000000001</ele>
        <time>2018-09-26T12:27:52Z</time>
      </trkpt>
      <trkpt lat="40.729682184755802" lon="13.878557961434126">
        <ele>308.24000000000001</ele>
        <time>2018-09-26T12:27:58Z</time>
      </trkpt>
      <trkpt lat="40.729538099840283" lon="13.878580927848816">
        <ele>308.72000000000003</ele>
        <time>2018-09-26T12:28:12Z</time>
      </trkpt>
      <trkpt lat="40.729411449283361" lon="13.878640942275524">
        <ele>307.75999999999999</ele>
        <time>2018-09-26T12:28:24Z</time>
      </trkpt>
      <trkpt lat="40.729269376024604" lon="13.87870179489255">
        <ele>308.24000000000001</ele>
        <time>2018-09-26T12:28:38Z</time>
      </trkpt>
      <trkpt lat="40.729135349392891" lon="13.87875460088253">
        <ele>306.31999999999999</ele>
        <time>2018-09-26T12:28:49Z</time>
      </trkpt>
      <trkpt lat="40.729113472625613" lon="13.87876926921308">
        <ele>307.27999999999997</ele>
        <time>2018-09-26T12:28:51Z</time>
      </trkpt>
      <trkpt lat="40.729043819010258" lon="13.878833977505565">
        <ele>305.83999999999997</ele>
        <time>2018-09-26T12:29:02Z</time>
      </trkpt>
      <trkpt lat="40.729021187871695" lon="13.878838503733277">
        <ele>305.83999999999997</ele>
        <time>2018-09-26T12:29:04Z</time>
      </trkpt>
      <trkpt lat="40.728993443772197" lon="13.878859542310238">
        <ele>306.31999999999999</ele>
        <time>2018-09-26T12:29:11Z</time>
      </trkpt>
      <trkpt lat="40.728975255042315" lon="13.878878401592374">
        <ele>307.75999999999999</ele>
        <time>2018-09-26T12:29:29Z</time>
      </trkpt>
      <trkpt lat="40.728929070755839" lon="13.878900278359652">
        <ele>305.83999999999997</ele>
        <time>2018-09-26T12:29:34Z</time>
      </trkpt>
      <trkpt lat="40.728775598108768" lon="13.879005806520581">
        <ele>304.38999999999999</ele>
        <time>2018-09-26T12:29:49Z</time>
      </trkpt>
      <trkpt lat="40.728743495419621" lon="13.879009494557977">
        <ele>303.91000000000003</ele>
        <time>2018-09-26T12:30:02Z</time>
      </trkpt>
      <trkpt lat="40.728715835139155" lon="13.879016786813736">
        <ele>305.36000000000001</ele>
        <time>2018-09-26T12:30:11Z</time>
      </trkpt>
      <trkpt lat="40.728673506528139" lon="13.879045033827424">
        <ele>306.80000000000001</ele>
        <time>2018-09-26T12:30:17Z</time>
      </trkpt>
      <trkpt lat="40.728613659739494" lon="13.879051068797708">
        <ele>303.43000000000001</ele>
        <time>2018-09-26T12:30:22Z</time>
      </trkpt>
      <trkpt lat="40.728593794628978" lon="13.879057355225086">
        <ele>301.99000000000001</ele>
        <time>2018-09-26T12:30:24Z</time>
      </trkpt>
      <trkpt lat="40.728462198749185" lon="13.879037322476506">
        <ele>300.55000000000001</ele>
        <time>2018-09-26T12:30:36Z</time>
      </trkpt>
      <trkpt lat="40.728328507393599" lon="13.878927603363991">
        <ele>299.58999999999997</ele>
        <time>2018-09-26T12:30:50Z</time>
      </trkpt>
      <trkpt lat="40.728294225409627" lon="13.878907905891538">
        <ele>298.14999999999998</ele>
        <time>2018-09-26T12:30:54Z</time>
      </trkpt>
      <trkpt lat="40.728217614814639" lon="13.878856357187033">
        <ele>295.25999999999999</ele>
        <time>2018-09-26T12:31:02Z</time>
      </trkpt>
      <trkpt lat="40.728166569024324" lon="13.878798019140959">
        <ele>292.86000000000001</ele>
        <time>2018-09-26T12:31:08Z</time>
      </trkpt>
      <trkpt lat="40.727987783029675" lon="13.878763988614082">
        <ele>294.30000000000001</ele>
        <time>2018-09-26T12:31:23Z</time>
      </trkpt>
      <trkpt lat="40.727851912379265" lon="13.878716798499227">
        <ele>294.30000000000001</ele>
        <time>2018-09-26T12:31:36Z</time>
      </trkpt>
      <trkpt lat="40.727718640118837" lon="13.878584280610085">
        <ele>295.74000000000001</ele>
        <time>2018-09-26T12:31:50Z</time>
      </trkpt>
      <trkpt lat="40.727608250454068" lon="13.878438519313931">
        <ele>294.77999999999997</ele>
        <time>2018-09-26T12:32:03Z</time>
      </trkpt>
      <trkpt lat="40.727495178580284" lon="13.878334667533636">
        <ele>294.77999999999997</ele>
        <time>2018-09-26T12:32:14Z</time>
      </trkpt>
      <trkpt lat="40.727320667356253" lon="13.878272389993072">
        <ele>295.25999999999999</ele>
        <time>2018-09-26T12:32:30Z</time>
      </trkpt>
      <trkpt lat="40.727297617122531" lon="13.878289740532637">
        <ele>293.81999999999999</ele>
        <time>2018-09-26T12:32:34Z</time>
      </trkpt>
      <trkpt lat="40.727293342351913" lon="13.878354700282216">
        <ele>296.69999999999999</ele>
        <time>2018-09-26T12:32:38Z</time>
      </trkpt>
      <trkpt lat="40.727305915206671" lon="13.878574138507247">
        <ele>297.18000000000001</ele>
        <time>2018-09-26T12:32:53Z</time>
      </trkpt>
      <trkpt lat="40.727237183600664" lon="13.878736915066838">
        <ele>297.67000000000002</ele>
        <time>2018-09-26T12:33:06Z</time>
      </trkpt>
      <trkpt lat="40.727201560512185" lon="13.878757786005735">
        <ele>298.14999999999998</ele>
        <time>2018-09-26T12:33:17Z</time>
      </trkpt>
      <trkpt lat="40.72721840813756" lon="13.878766251727939">
        <ele>297.18000000000001</ele>
        <time>2018-09-26T12:33:32Z</time>
      </trkpt>
      <trkpt lat="40.727210948243737" lon="13.878755858168006">
        <ele>295.25999999999999</ele>
        <time>2018-09-26T12:33:39Z</time>
      </trkpt>
      <trkpt lat="40.727204913273454" lon="13.878756193444133">
        <ele>296.69999999999999</ele>
        <time>2018-09-26T12:33:54Z</time>
      </trkpt>
      <trkpt lat="40.727212624624372" lon="13.878761641681194">
        <ele>296.69999999999999</ele>
        <time>2018-09-26T12:34:09Z</time>
      </trkpt>
      <trkpt lat="40.727225532755256" lon="13.878738256171346">
        <ele>295.25999999999999</ele>
        <time>2018-09-26T12:34:30Z</time>
      </trkpt>
      <trkpt lat="40.72721790522337" lon="13.878749571740627">
        <ele>296.69999999999999</ele>
        <time>2018-09-26T12:34:36Z</time>
      </trkpt>
      <trkpt lat="40.727202482521534" lon="13.878804724663496">
        <ele>295.74000000000001</ele>
        <time>2018-09-26T12:34:46Z</time>
      </trkpt>
      <trkpt lat="40.727117154747248" lon="13.878929195925593">
        <ele>294.77999999999997</ele>
        <time>2018-09-26T12:34:59Z</time>
      </trkpt>
      <trkpt lat="40.727039538323879" lon="13.879092391580343">
        <ele>292.38</ele>
        <time>2018-09-26T12:35:14Z</time>
      </trkpt>
      <trkpt lat="40.727005004882812" lon="13.87918216176331">
        <ele>290.94</ele>
        <time>2018-09-26T12:35:26Z</time>
      </trkpt>
      <trkpt lat="40.726978098973632" lon="13.879210827872157">
        <ele>289.97000000000003</ele>
        <time>2018-09-26T12:35:39Z</time>
      </trkpt>
      <trkpt lat="40.726970890536904" lon="13.879228597506881">
        <ele>289.00999999999999</ele>
        <time>2018-09-26T12:35:56Z</time>
      </trkpt>
      <trkpt lat="40.72692034766078" lon="13.879272602498531">
        <ele>289.49000000000001</ele>
        <time>2018-09-26T12:36:08Z</time>
      </trkpt>
      <trkpt lat="40.726872403174639" lon="13.879353571683168">
        <ele>287.56999999999999</ele>
        <time>2018-09-26T12:36:20Z</time>
      </trkpt>
      <trkpt lat="40.72676838375628" lon="13.879443258047104">
        <ele>283.73000000000002</ele>
        <time>2018-09-26T12:36:33Z</time>
      </trkpt>
      <trkpt lat="40.726727563887835" lon="13.879485502839088">
        <ele>284.20999999999998</ele>
        <time>2018-09-26T12:36:39Z</time>
      </trkpt>
      <trkpt lat="40.726702501997352" lon="13.879521964117885">
        <ele>281.80000000000001</ele>
        <time>2018-09-26T12:36:43Z</time>
      </trkpt>
      <trkpt lat="40.72664282284677" lon="13.879610560834408">
        <ele>281.80000000000001</ele>
        <time>2018-09-26T12:36:54Z</time>
      </trkpt>
      <trkpt lat="40.726526733487844" lon="13.879741318523884">
        <ele>281.80000000000001</ele>
        <time>2018-09-26T12:37:09Z</time>
      </trkpt>
      <trkpt lat="40.726504772901535" lon="13.879795214161277">
        <ele>281.31999999999999</ele>
        <time>2018-09-26T12:37:13Z</time>
      </trkpt>
      <trkpt lat="40.726494044065475" lon="13.879740731790662">
        <ele>279.88</ele>
        <time>2018-09-26T12:37:17Z</time>
      </trkpt>
      <trkpt lat="40.726617258042097" lon="13.879525484517217">
        <ele>276.04000000000002</ele>
        <time>2018-09-26T12:37:33Z</time>
      </trkpt>
      <trkpt lat="40.72668774984777" lon="13.879355080425739">
        <ele>274.11000000000001</ele>
        <time>2018-09-26T12:37:46Z</time>
      </trkpt>
      <trkpt lat="40.726760253310204" lon="13.87919875793159">
        <ele>271.23000000000002</ele>
        <time>2018-09-26T12:38:01Z</time>
      </trkpt>
      <trkpt lat="40.726814232766628" lon="13.879033802077174">
        <ele>270.26999999999998</ele>
        <time>2018-09-26T12:38:14Z</time>
      </trkpt>
      <trkpt lat="40.726851699873805" lon="13.878904469311237">
        <ele>267.86000000000001</ele>
        <time>2018-09-26T12:38:25Z</time>
      </trkpt>
      <trkpt lat="40.726870391517878" lon="13.878854094073176">
        <ele>266.89999999999998</ele>
        <time>2018-09-26T12:38:29Z</time>
      </trkpt>
      <trkpt lat="40.726907942444086" lon="13.878666255623102">
        <ele>264.01999999999998</ele>
        <time>2018-09-26T12:38:44Z</time>
      </trkpt>
      <trkpt lat="40.726908361539245" lon="13.878570115193725">
        <ele>261.13999999999999</ele>
        <time>2018-09-26T12:38:52Z</time>
      </trkpt>
      <trkpt lat="40.726915234699845" lon="13.878494091331959">
        <ele>257.76999999999998</ele>
        <time>2018-09-26T12:38:59Z</time>
      </trkpt>
      <trkpt lat="40.726917665451765" lon="13.878463665023446">
        <ele>256.32999999999998</ele>
        <time>2018-09-26T12:39:02Z</time>
      </trkpt>
      <trkpt lat="40.726910876110196" lon="13.878401387482882">
        <ele>254.41</ele>
        <time>2018-09-26T12:39:08Z</time>
      </trkpt>
      <trkpt lat="40.726898470893502" lon="13.878311617299914">
        <ele>254.41</ele>
        <time>2018-09-26T12:39:17Z</time>
      </trkpt>
      <trkpt lat="40.726856393739581" lon="13.878182619810104">
        <ele>252.47999999999999</ele>
        <time>2018-09-26T12:39:27Z</time>
      </trkpt>
      <trkpt lat="40.726832421496511" lon="13.878141548484564">
        <ele>251.03999999999999</ele>
        <time>2018-09-26T12:39:31Z</time>
      </trkpt>
      <trkpt lat="40.726803420111537" lon="13.878069631755352">
        <ele>249.12</ele>
        <time>2018-09-26T12:39:43Z</time>
      </trkpt>
      <trkpt lat="40.726767377927899" lon="13.878009701147676">
        <ele>248.16</ele>
        <time>2018-09-26T12:39:49Z</time>
      </trkpt>
      <trkpt lat="40.726695796474814" lon="13.877905765548348">
        <ele>246.22999999999999</ele>
        <time>2018-09-26T12:40:00Z</time>
      </trkpt>
      <trkpt lat="40.726621029898524" lon="13.877882799133658">
        <ele>244.31</ele>
        <time>2018-09-26T12:40:09Z</time>
      </trkpt>
      <trkpt lat="40.726533019915223" lon="13.878031829372048">
        <ele>240.47</ele>
        <time>2018-09-26T12:40:22Z</time>
      </trkpt>
      <trkpt lat="40.726362867280841" lon="13.878128724172711">
        <ele>239.50999999999999</ele>
        <time>2018-09-26T12:40:37Z</time>
      </trkpt>
      <trkpt lat="40.726225236430764" lon="13.878199886530638">
        <ele>238.53999999999999</ele>
        <time>2018-09-26T12:40:50Z</time>
      </trkpt>
      <trkpt lat="40.726050725206733" lon="13.878278341144323">
        <ele>238.06</ele>
        <time>2018-09-26T12:41:05Z</time>
      </trkpt>
      <trkpt lat="40.726017197594047" lon="13.878273647278547">
        <ele>237.58000000000001</ele>
        <time>2018-09-26T12:41:08Z</time>
      </trkpt>
      <trkpt lat="40.725884763523936" lon="13.878140626475215">
        <ele>237.58000000000001</ele>
        <time>2018-09-26T12:41:26Z</time>
      </trkpt>
      <trkpt lat="40.725892139598727" lon="13.878148086369038">
        <ele>238.53999999999999</ele>
        <time>2018-09-26T12:41:43Z</time>
      </trkpt>
      <trkpt lat="40.725897001102567" lon="13.878145823255181">
        <ele>238.53999999999999</ele>
        <time>2018-09-26T12:42:08Z</time>
      </trkpt>
      <trkpt lat="40.725856181234121" lon="13.87803828343749">
        <ele>237.58000000000001</ele>
        <time>2018-09-26T12:42:22Z</time>
      </trkpt>
      <trkpt lat="40.725824078544974" lon="13.877953542396426">
        <ele>234.69999999999999</ele>
        <time>2018-09-26T12:42:33Z</time>
      </trkpt>
      <trkpt lat="40.725819049403071" lon="13.87781691737473">
        <ele>231.33000000000001</ele>
        <time>2018-09-26T12:42:47Z</time>
      </trkpt>
      <trkpt lat="40.72584243491292" lon="13.877670988440514">
        <ele>228.44999999999999</ele>
        <time>2018-09-26T12:43:01Z</time>
      </trkpt>
      <trkpt lat="40.72587319649756" lon="13.877583732828498">
        <ele>225.09</ele>
        <time>2018-09-26T12:43:09Z</time>
      </trkpt>
      <trkpt lat="40.725863138213754" lon="13.877503937110305">
        <ele>225.56999999999999</ele>
        <time>2018-09-26T12:43:19Z</time>
      </trkpt>
      <trkpt lat="40.725872525945306" lon="13.877510139718652">
        <ele>226.53</ele>
        <time>2018-09-26T12:43:39Z</time>
      </trkpt>
      <trkpt lat="40.725890882313251" lon="13.87750368565321">
        <ele>225.56999999999999</ele>
        <time>2018-09-26T12:44:00Z</time>
      </trkpt>
      <trkpt lat="40.725900353863835" lon="13.877495303750038">
        <ele>225.56999999999999</ele>
        <time>2018-09-26T12:44:01Z</time>
      </trkpt>
      <trkpt lat="40.725914100185037" lon="13.877428416162729">
        <ele>224.61000000000001</ele>
        <time>2018-09-26T12:44:06Z</time>
      </trkpt>
      <trkpt lat="40.725916782394052" lon="13.877327833324671">
        <ele>222.19999999999999</ele>
        <time>2018-09-26T12:44:13Z</time>
      </trkpt>
      <trkpt lat="40.725821983069181" lon="13.877154663205147">
        <ele>219.31999999999999</ele>
        <time>2018-09-26T12:44:25Z</time>
      </trkpt>
      <trkpt lat="40.725813182070851" lon="13.877141503617167">
        <ele>219.31999999999999</ele>
        <time>2018-09-26T12:44:26Z</time>
      </trkpt>
      <trkpt lat="40.725902784615755" lon="13.877159859985113">
        <ele>217.40000000000001</ele>
        <time>2018-09-26T12:44:35Z</time>
      </trkpt>
      <trkpt lat="40.726002864539623" lon="13.877198332920671">
        <ele>214.99000000000001</ele>
        <time>2018-09-26T12:44:44Z</time>
      </trkpt>
      <trkpt lat="40.726050473749638" lon="13.877034466713667">
        <ele>212.59</ele>
        <time>2018-09-26T12:44:55Z</time>
      </trkpt>
      <trkpt lat="40.726103028282523" lon="13.876857273280621">
        <ele>209.22</ele>
        <time>2018-09-26T12:45:07Z</time>
      </trkpt>
      <trkpt lat="40.726143512874842" lon="13.876713691279292">
        <ele>205.86000000000001</ele>
        <time>2018-09-26T12:45:19Z</time>
      </trkpt>
      <trkpt lat="40.726179638877511" lon="13.876568432897329">
        <ele>204.90000000000001</ele>
        <time>2018-09-26T12:45:32Z</time>
      </trkpt>
      <trkpt lat="40.726189278066158" lon="13.876435495913029">
        <ele>202.00999999999999</ele>
        <time>2018-09-26T12:45:42Z</time>
      </trkpt>
      <trkpt lat="40.726161198690534" lon="13.876275653019547">
        <ele>198.65000000000001</ele>
        <time>2018-09-26T12:45:55Z</time>
      </trkpt>
      <trkpt lat="40.726134376600385" lon="13.876143554225564">
        <ele>195.77000000000001</ele>
        <time>2018-09-26T12:46:05Z</time>
      </trkpt>
      <trkpt lat="40.726101770997047" lon="13.875991590321064">
        <ele>192.40000000000001</ele>
        <time>2018-09-26T12:46:15Z</time>
      </trkpt>
      <trkpt lat="40.726127168163657" lon="13.875823616981506">
        <ele>189.03999999999999</ele>
        <time>2018-09-26T12:46:25Z</time>
      </trkpt>
      <trkpt lat="40.726146027445793" lon="13.875714736059308">
        <ele>187.11000000000001</ele>
        <time>2018-09-26T12:46:34Z</time>
      </trkpt>
      <trkpt lat="40.72603396140039" lon="13.875849265605211">
        <ele>183.75</ele>
        <time>2018-09-26T12:46:45Z</time>
      </trkpt>
      <trkpt lat="40.725914351642132" lon="13.875937359407544">
        <ele>181.83000000000001</ele>
        <time>2018-09-26T12:46:55Z</time>
      </trkpt>
      <trkpt lat="40.725777139887214" lon="13.87587608769536">
        <ele>179.90000000000001</ele>
        <time>2018-09-26T12:47:07Z</time>
      </trkpt>
      <trkpt lat="40.725726094096899" lon="13.875689674168825">
        <ele>177.97999999999999</ele>
        <time>2018-09-26T12:47:18Z</time>
      </trkpt>
      <trkpt lat="40.725743276998401" lon="13.875581631436944">
        <ele>175.58000000000001</ele>
        <time>2018-09-26T12:47:24Z</time>
      </trkpt>
      <trkpt lat="40.725749731063843" lon="13.875502506271005">
        <ele>174.13999999999999</ele>
        <time>2018-09-26T12:47:30Z</time>
      </trkpt>
      <trkpt lat="40.725772026926279" lon="13.875347524881363">
        <ele>171.72999999999999</ele>
        <time>2018-09-26T12:47:42Z</time>
      </trkpt>
      <trkpt lat="40.725756185129285" lon="13.875205367803574">
        <ele>169.33000000000001</ele>
        <time>2018-09-26T12:47:53Z</time>
      </trkpt>
      <trkpt lat="40.725753586739302" lon="13.875160608440638">
        <ele>168.37</ele>
        <time>2018-09-26T12:47:56Z</time>
      </trkpt>
      <trkpt lat="40.725765321403742" lon="13.875109646469355">
        <ele>166.93000000000001</ele>
        <time>2018-09-26T12:48:00Z</time>
      </trkpt>
      <trkpt lat="40.725783091038465" lon="13.875060109421611">
        <ele>165.47999999999999</ele>
        <time>2018-09-26T12:48:04Z</time>
      </trkpt>
      <trkpt lat="40.725813936442137" lon="13.874813010916114">
        <ele>165</ele>
        <time>2018-09-26T12:48:20Z</time>
      </trkpt>
      <trkpt lat="40.725772865116596" lon="13.874568343162537">
        <ele>166.44999999999999</ele>
        <time>2018-09-26T12:48:35Z</time>
      </trkpt>
      <trkpt lat="40.725709330290556" lon="13.874347228556871">
        <ele>166.44999999999999</ele>
        <time>2018-09-26T12:48:50Z</time>
      </trkpt>
      <trkpt lat="40.725571280345321" lon="13.874158216640353">
        <ele>165.47999999999999</ele>
        <time>2018-09-26T12:49:06Z</time>
      </trkpt>
      <trkpt lat="40.725493328645825" lon="13.873940873891115">
        <ele>165</ele>
        <time>2018-09-26T12:49:21Z</time>
      </trkpt>
      <trkpt lat="40.725439013913274" lon="13.87379796244204">
        <ele>163.08000000000001</ele>
        <time>2018-09-26T12:49:31Z</time>
      </trkpt>
      <trkpt lat="40.725424764677882" lon="13.873626049607992">
        <ele>161.16</ele>
        <time>2018-09-26T12:49:43Z</time>
      </trkpt>
      <trkpt lat="40.725424345582724" lon="13.873615823686123">
        <ele>161.16</ele>
        <time>2018-09-26T12:49:44Z</time>
      </trkpt>
      <trkpt lat="40.725463908165693" lon="13.873556647449732">
        <ele>161.63999999999999</ele>
        <time>2018-09-26T12:49:49Z</time>
      </trkpt>
      <trkpt lat="40.72558980435133" lon="13.873504679650068">
        <ele>159.72</ele>
        <time>2018-09-26T12:50:00Z</time>
      </trkpt>
      <trkpt lat="40.725597934797406" lon="13.873494621366262">
        <ele>159.24000000000001</ele>
        <time>2018-09-26T12:50:01Z</time>
      </trkpt>
      <trkpt lat="40.725632132962346" lon="13.873424297198653">
        <ele>155.87</ele>
        <time>2018-09-26T12:50:07Z</time>
      </trkpt>
      <trkpt lat="40.725672449916601" lon="13.873234866186976">
        <ele>154.91</ele>
        <time>2018-09-26T12:50:21Z</time>
      </trkpt>
      <trkpt lat="40.725672701373696" lon="13.873170660808682">
        <ele>154.43000000000001</ele>
        <time>2018-09-26T12:50:25Z</time>
      </trkpt>
      <trkpt lat="40.725661218166351" lon="13.873069826513529">
        <ele>152.99000000000001</ele>
        <time>2018-09-26T12:50:36Z</time>
      </trkpt>
      <trkpt lat="40.725696170702577" lon="13.872822057455778">
        <ele>151.53999999999999</ele>
        <time>2018-09-26T12:50:51Z</time>
      </trkpt>
      <trkpt lat="40.725694159045815" lon="13.872617455199361">
        <ele>152.50999999999999</ele>
        <time>2018-09-26T12:51:05Z</time>
      </trkpt>
      <trkpt lat="40.725677730515599" lon="13.872452415525913">
        <ele>152.50999999999999</ele>
        <time>2018-09-26T12:51:16Z</time>
      </trkpt>
      <trkpt lat="40.725687621161342" lon="13.872237587347627">
        <ele>152.50999999999999</ele>
        <time>2018-09-26T12:51:30Z</time>
      </trkpt>
      <trkpt lat="40.725691309198737" lon="13.87213465757668">
        <ele>150.58000000000001</ele>
        <time>2018-09-26T12:51:37Z</time>
      </trkpt>
      <trkpt lat="40.72569633834064" lon="13.871981436386704">
        <ele>148.18000000000001</ele>
        <time>2018-09-26T12:51:48Z</time>
      </trkpt>
      <trkpt lat="40.725720226764679" lon="13.871802482753992">
        <ele>144.81999999999999</ele>
        <time>2018-09-26T12:52:01Z</time>
      </trkpt>
      <trkpt lat="40.72583707049489" lon="13.871640879660845">
        <ele>142.88999999999999</ele>
        <time>2018-09-26T12:52:16Z</time>
      </trkpt>
      <trkpt lat="40.725992135703564" lon="13.871498135849833">
        <ele>140.00999999999999</ele>
        <time>2018-09-26T12:52:31Z</time>
      </trkpt>
      <trkpt lat="40.726072182878852" lon="13.871347261592746">
        <ele>138.09</ele>
        <time>2018-09-26T12:52:45Z</time>
      </trkpt>
      <trkpt lat="40.726027758792043" lon="13.871226813644171">
        <ele>137.61000000000001</ele>
        <time>2018-09-26T12:52:57Z</time>
      </trkpt>
      <trkpt lat="40.726044187322259" lon="13.871250282973051">
        <ele>138.09</ele>
        <time>2018-09-26T12:53:09Z</time>
      </trkpt>
      <trkpt lat="40.726037062704563" lon="13.87124927714467">
        <ele>136.63999999999999</ele>
        <time>2018-09-26T12:53:21Z</time>
      </trkpt>
      <trkpt lat="40.726032117381692" lon="13.871252546086907">
        <ele>137.13</ele>
        <time>2018-09-26T12:53:36Z</time>
      </trkpt>
      <trkpt lat="40.726040918380022" lon="13.87125707231462">
        <ele>138.56999999999999</ele>
        <time>2018-09-26T12:53:56Z</time>
      </trkpt>
      <trkpt lat="40.726022897288203" lon="13.871265789493918">
        <ele>137.61000000000001</ele>
        <time>2018-09-26T12:54:17Z</time>
      </trkpt>
      <trkpt lat="40.726023400202394" lon="13.871265454217792">
        <ele>136.63999999999999</ele>
        <time>2018-09-26T12:54:29Z</time>
      </trkpt>
      <trkpt lat="40.725886607542634" lon="13.871234022080898">
        <ele>137.13</ele>
        <time>2018-09-26T12:54:42Z</time>
      </trkpt>
      <trkpt lat="40.725883925333619" lon="13.871002094820142">
        <ele>135.68000000000001</ele>
        <time>2018-09-26T12:54:57Z</time>
      </trkpt>
      <trkpt lat="40.725878812372684" lon="13.870811155065894">
        <ele>135.19999999999999</ele>
        <time>2018-09-26T12:55:11Z</time>
      </trkpt>
      <trkpt lat="40.725862886756659" lon="13.870600601658225">
        <ele>132.80000000000001</ele>
        <time>2018-09-26T12:55:25Z</time>
      </trkpt>
      <trkpt lat="40.725824581459165" lon="13.870502868667245">
        <ele>130.88</ele>
        <time>2018-09-26T12:55:33Z</time>
      </trkpt>
      <trkpt lat="40.725764483213425" lon="13.870448218658566">
        <ele>128.94999999999999</ele>
        <time>2018-09-26T12:55:39Z</time>
      </trkpt>
      <trkpt lat="40.725699020549655" lon="13.870398681610823">
        <ele>133.28</ele>
        <time>2018-09-26T12:55:45Z</time>
      </trkpt>
      <trkpt lat="40.725584691390395" lon="13.870290135964751">
        <ele>130.88</ele>
        <time>2018-09-26T12:55:58Z</time>
      </trkpt>
      <trkpt lat="40.725516714155674" lon="13.870238084346056">
        <ele>130.40000000000001</ele>
        <time>2018-09-26T12:56:06Z</time>
      </trkpt>
      <trkpt lat="40.725448653101921" lon="13.870244203135371">
        <ele>128.94999999999999</ele>
        <time>2018-09-26T12:56:12Z</time>
      </trkpt>
      <trkpt lat="40.725302724167705" lon="13.870287705212831">
        <ele>126.06999999999999</ele>
        <time>2018-09-26T12:56:26Z</time>
      </trkpt>
      <trkpt lat="40.725181354209781" lon="13.870304049924016">
        <ele>122.70999999999999</ele>
        <time>2018-09-26T12:56:38Z</time>
      </trkpt>
      <trkpt lat="40.725106755271554" lon="13.870320226997137">
        <ele>121.26000000000001</ele>
        <time>2018-09-26T12:56:45Z</time>
      </trkpt>
      <trkpt lat="40.725061409175396" lon="13.870309079065919">
        <ele>120.78</ele>
        <time>2018-09-26T12:56:49Z</time>
      </trkpt>
      <trkpt lat="40.72488128207624" lon="13.870331207290292">
        <ele>119.34</ele>
        <time>2018-09-26T12:57:05Z</time>
      </trkpt>
      <trkpt lat="40.724769048392773" lon="13.870246717706323">
        <ele>116.94</ele>
        <time>2018-09-26T12:57:17Z</time>
      </trkpt>
      <trkpt lat="40.724707692861557" lon="13.870038092136383">
        <ele>115.98</ele>
        <time>2018-09-26T12:57:31Z</time>
      </trkpt>
      <trkpt lat="40.724650360643864" lon="13.86983709409833">
        <ele>115.5</ele>
        <time>2018-09-26T12:57:45Z</time>
      </trkpt>
      <trkpt lat="40.72458079084754" lon="13.869605753570795">
        <ele>114.53</ele>
        <time>2018-09-26T12:58:01Z</time>
      </trkpt>
      <trkpt lat="40.724526476114988" lon="13.86941883713007">
        <ele>115.5</ele>
        <time>2018-09-26T12:58:15Z</time>
      </trkpt>
      <trkpt lat="40.724519938230515" lon="13.869226472452283">
        <ele>114.53</ele>
        <time>2018-09-26T12:58:27Z</time>
      </trkpt>
      <trkpt lat="40.724478783085942" lon="13.86903234757483">
        <ele>112.13</ele>
        <time>2018-09-26T12:58:42Z</time>
      </trkpt>
      <trkpt lat="40.724447937682271" lon="13.868983900174499">
        <ele>113.09</ele>
        <time>2018-09-26T12:58:47Z</time>
      </trkpt>
      <trkpt lat="40.724390605464578" lon="13.868843838572502">
        <ele>112.61</ele>
        <time>2018-09-26T12:58:59Z</time>
      </trkpt>
      <trkpt lat="40.72438239119947" lon="13.86879924684763">
        <ele>114.05</ele>
        <time>2018-09-26T12:59:03Z</time>
      </trkpt>
      <trkpt lat="40.724334781989455" lon="13.86865122243762">
        <ele>111.65000000000001</ele>
        <time>2018-09-26T12:59:15Z</time>
      </trkpt>
      <trkpt lat="40.724313743412495" lon="13.868488278239965">
        <ele>109.73</ele>
        <time>2018-09-26T12:59:27Z</time>
      </trkpt>
      <trkpt lat="40.724344421178102" lon="13.868336565792561">
        <ele>108.29000000000001</ele>
        <time>2018-09-26T12:59:39Z</time>
      </trkpt>
      <trkpt lat="40.724421199411154" lon="13.868176471441984">
        <ele>107.81</ele>
        <time>2018-09-26T12:59:52Z</time>
      </trkpt>
      <trkpt lat="40.724516753107309" lon="13.868074882775545">
        <ele>106.36</ele>
        <time>2018-09-26T13:00:04Z</time>
      </trkpt>
      <trkpt lat="40.724550867453218" lon="13.867944125086069">
        <ele>103.95999999999999</ele>
        <time>2018-09-26T13:00:16Z</time>
      </trkpt>
      <trkpt lat="40.724541060626507" lon="13.867920571938157">
        <ele>103.95999999999999</ele>
        <time>2018-09-26T13:00:19Z</time>
      </trkpt>
      <trkpt lat="40.72444248944521" lon="13.867877656593919">
        <ele>100.11</ele>
        <time>2018-09-26T13:00:31Z</time>
      </trkpt>
      <trkpt lat="40.724421786144376" lon="13.867877153679729">
        <ele>99.150000000000006</ele>
        <time>2018-09-26T13:00:33Z</time>
      </trkpt>
      <trkpt lat="40.724370907992125" lon="13.867857707664371">
        <ele>97.709999999999994</ele>
        <time>2018-09-26T13:00:39Z</time>
      </trkpt>
      <trkpt lat="40.724332015961409" lon="13.867776989936829">
        <ele>96.75</ele>
        <time>2018-09-26T13:00:48Z</time>
      </trkpt>
      <trkpt lat="40.724332015961409" lon="13.867753436788917">
        <ele>96.269999999999996</ele>
        <time>2018-09-26T13:00:50Z</time>
      </trkpt>
      <trkpt lat="40.724340816959739" lon="13.86765344068408">
        <ele>94.829999999999998</ele>
        <time>2018-09-26T13:00:57Z</time>
      </trkpt>
      <trkpt lat="40.72437702678144" lon="13.867433331906796">
        <ele>92.900000000000006</ele>
        <time>2018-09-26T13:01:12Z</time>
      </trkpt>
      <trkpt lat="40.724470736458898" lon="13.867194028571248">
        <ele>91.939999999999998</ele>
        <time>2018-09-26T13:01:29Z</time>
      </trkpt>
      <trkpt lat="40.724625214934349" lon="13.867136361077428">
        <ele>91.459999999999994</ele>
        <time>2018-09-26T13:01:43Z</time>
      </trkpt>
      <trkpt lat="40.724679697304964" lon="13.867110125720501">
        <ele>90.5</ele>
        <time>2018-09-26T13:01:54Z</time>
      </trkpt>
      <trkpt lat="40.724713392555714" lon="13.867106437683105">
        <ele>90.5</ele>
        <time>2018-09-26T13:01:57Z</time>
      </trkpt>
      <trkpt lat="40.724785476922989" lon="13.867040807381272">
        <ele>89.540000000000006</ele>
        <time>2018-09-26T13:02:05Z</time>
      </trkpt>
      <trkpt lat="40.724810538813472" lon="13.866990432143211">
        <ele>89.060000000000002</ele>
        <time>2018-09-26T13:02:16Z</time>
      </trkpt>
      <trkpt lat="40.724807688966393" lon="13.86698498390615">
        <ele>89.060000000000002</ele>
        <time>2018-09-26T13:02:17Z</time>
      </trkpt>
      <trkpt lat="40.724799893796444" lon="13.866854477673769">
        <ele>88.579999999999998</ele>
        <time>2018-09-26T13:02:26Z</time>
      </trkpt>
      <trkpt lat="40.724795954301953" lon="13.866813573986292">
        <ele>87.140000000000001</ele>
        <time>2018-09-26T13:02:34Z</time>
      </trkpt>
      <trkpt lat="40.724834427237511" lon="13.866812065243721">
        <ele>86.180000000000007</ele>
        <time>2018-09-26T13:02:41Z</time>
      </trkpt>
      <trkpt lat="40.724982535466552" lon="13.866710728034377">
        <ele>85.689999999999998</ele>
        <time>2018-09-26T13:02:56Z</time>
      </trkpt>
      <trkpt lat="40.725106587633491" lon="13.866669489070773">
        <ele>85.689999999999998</ele>
        <time>2018-09-26T13:03:07Z</time>
      </trkpt>
      <trkpt lat="40.725225443020463" lon="13.866669991984963">
        <ele>85.689999999999998</ele>
        <time>2018-09-26T13:03:18Z</time>
      </trkpt>
      <trkpt lat="40.725276321172714" lon="13.866701424121857">
        <ele>86.659999999999997</ele>
        <time>2018-09-26T13:03:23Z</time>
      </trkpt>
      <trkpt lat="40.725403893738985" lon="13.866713242605329">
        <ele>85.209999999999994</ele>
        <time>2018-09-26T13:03:35Z</time>
      </trkpt>
      <trkpt lat="40.725466255098581" lon="13.866685498505831">
        <ele>84.730000000000004</ele>
        <time>2018-09-26T13:03:45Z</time>
      </trkpt>
      <trkpt lat="40.725483689457178" lon="13.86668499559164">
        <ele>84.25</ele>
        <time>2018-09-26T13:03:47Z</time>
      </trkpt>
      <trkpt lat="40.725635318085551" lon="13.866645684465766">
        <ele>82.329999999999998</ele>
        <time>2018-09-26T13:04:03Z</time>
      </trkpt>
      <trkpt lat="40.725770853459835" lon="13.866523979231715">
        <ele>81.849999999999994</ele>
        <time>2018-09-26T13:04:18Z</time>
      </trkpt>
      <trkpt lat="40.72580480016768" lon="13.866486931219697">
        <ele>80.890000000000001</ele>
        <time>2018-09-26T13:04:23Z</time>
      </trkpt>
      <trkpt lat="40.725938742980361" lon="13.866433370858431">
        <ele>78.969999999999999</ele>
        <time>2018-09-26T13:04:36Z</time>
      </trkpt>
      <trkpt lat="40.726024657487869" lon="13.866362292319536">
        <ele>77.519999999999996</ele>
        <time>2018-09-26T13:04:45Z</time>
      </trkpt>
      <trkpt lat="40.726049551740289" lon="13.86631652712822">
        <ele>78</ele>
        <time>2018-09-26T13:04:49Z</time>
      </trkpt>
      <trkpt lat="40.726127168163657" lon="13.866212172433734">
        <ele>77.519999999999996</ele>
        <time>2018-09-26T13:05:02Z</time>
      </trkpt>
      <trkpt lat="40.726181650534272" lon="13.866104213520885">
        <ele>76.560000000000002</ele>
        <time>2018-09-26T13:05:13Z</time>
      </trkpt>
      <trkpt lat="40.726190619170666" lon="13.866058783605695">
        <ele>76.079999999999998</ele>
        <time>2018-09-26T13:05:16Z</time>
      </trkpt>
      <trkpt lat="40.726164383813739" lon="13.865845883265138">
        <ele>73.200000000000003</ele>
        <time>2018-09-26T13:05:30Z</time>
      </trkpt>
      <trkpt lat="40.726166814565659" lon="13.865685369819403">
        <ele>72.239999999999995</ele>
        <time>2018-09-26T13:05:42Z</time>
      </trkpt>
      <trkpt lat="40.726142004132271" lon="13.865537596866488">
        <ele>71.760000000000005</ele>
        <time>2018-09-26T13:05:53Z</time>
      </trkpt>
      <trkpt lat="40.726133454591036" lon="13.865345735102892">
        <ele>69.829999999999998</ele>
        <time>2018-09-26T13:06:06Z</time>
      </trkpt>
      <trkpt lat="40.726140411570668" lon="13.865229729562998">
        <ele>69.349999999999994</ele>
        <time>2018-09-26T13:06:13Z</time>
      </trkpt>
      <trkpt lat="40.726180896162987" lon="13.865129817277193">
        <ele>67.430000000000007</ele>
        <time>2018-09-26T13:06:25Z</time>
      </trkpt>
      <trkpt lat="40.72617419064045" lon="13.865133002400398">
        <ele>66.950000000000003</ele>
        <time>2018-09-26T13:06:38Z</time>
      </trkpt>
      <trkpt lat="40.72617569938302" lon="13.865122860297561">
        <ele>67.430000000000007</ele>
        <time>2018-09-26T13:06:54Z</time>
      </trkpt>
      <trkpt lat="40.726187936961651" lon="13.865116154775023">
        <ele>67.909999999999997</ele>
        <time>2018-09-26T13:07:13Z</time>
      </trkpt>
      <trkpt lat="40.726178381592035" lon="13.865083549171686">
        <ele>66.950000000000003</ele>
        <time>2018-09-26T13:07:23Z</time>
      </trkpt>
      <trkpt lat="40.726106464862823" lon="13.865019762888551">
        <ele>68.390000000000001</ele>
        <time>2018-09-26T13:07:32Z</time>
      </trkpt>
      <trkpt lat="40.725956177338958" lon="13.864833014085889">
        <ele>65.989999999999995</ele>
        <time>2018-09-26T13:07:51Z</time>
      </trkpt>
      <trkpt lat="40.725946286693215" lon="13.864809377118945">
        <ele>65.510000000000005</ele>
        <time>2018-09-26T13:07:53Z</time>
      </trkpt>
      <trkpt lat="40.725911082699895" lon="13.864662693813443">
        <ele>65.510000000000005</ele>
        <time>2018-09-26T13:08:06Z</time>
      </trkpt>
      <trkpt lat="40.72587126865983" lon="13.864452643319964">
        <ele>64.549999999999997</ele>
        <time>2018-09-26T13:08:20Z</time>
      </trkpt>
      <trkpt lat="40.725747048854828" lon="13.86429900303483">
        <ele>63.579999999999998</ele>
        <time>2018-09-26T13:08:35Z</time>
      </trkpt>
      <trkpt lat="40.725580416619778" lon="13.864334877580404">
        <ele>63.100000000000001</ele>
        <time>2018-09-26T13:08:50Z</time>
      </trkpt>
      <trkpt lat="40.725446222350001" lon="13.864373853430152">
        <ele>63.100000000000001</ele>
        <time>2018-09-26T13:09:04Z</time>
      </trkpt>
      <trkpt lat="40.725371288135648" lon="13.864384833723307">
        <ele>63.579999999999998</ele>
        <time>2018-09-26T13:09:13Z</time>
      </trkpt>
      <trkpt lat="40.725217228755355" lon="13.86435030028224">
        <ele>61.659999999999997</ele>
        <time>2018-09-26T13:09:28Z</time>
      </trkpt>
      <trkpt lat="40.725059062242508" lon="13.864309312775731">
        <ele>62.140000000000001</ele>
        <time>2018-09-26T13:09:42Z</time>
      </trkpt>
      <trkpt lat="40.72488178499043" lon="13.864326914772391">
        <ele>62.140000000000001</ele>
        <time>2018-09-26T13:09:57Z</time>
      </trkpt>
      <trkpt lat="40.724768294021487" lon="13.864350216463208">
        <ele>61.659999999999997</ele>
        <time>2018-09-26T13:10:08Z</time>
      </trkpt>
      <trkpt lat="40.724658574908972" lon="13.864364800974727">
        <ele>62.619999999999997</ele>
        <time>2018-09-26T13:10:19Z</time>
      </trkpt>
      <trkpt lat="40.72458129376173" lon="13.864346528425813">
        <ele>62.140000000000001</ele>
        <time>2018-09-26T13:10:30Z</time>
      </trkpt>
      <trkpt lat="40.724586071446538" lon="13.864315515384078">
        <ele>61.659999999999997</ele>
        <time>2018-09-26T13:10:32Z</time>
      </trkpt>
      <trkpt lat="40.724530834704638" lon="13.864261452108622">
        <ele>61.18</ele>
        <time>2018-09-26T13:10:40Z</time>
      </trkpt>
      <trkpt lat="40.724408375099301" lon="13.864222560077906">
        <ele>61.659999999999997</ele>
        <time>2018-09-26T13:10:53Z</time>
      </trkpt>
      <trkpt lat="40.724306618794799" lon="13.864188864827156">
        <ele>61.18</ele>
        <time>2018-09-26T13:11:05Z</time>
      </trkpt>
      <trkpt lat="40.724183907732368" lon="13.864109236747026">
        <ele>60.219999999999999</ele>
        <time>2018-09-26T13:11:18Z</time>
      </trkpt>
      <trkpt lat="40.724048959091306" lon="13.864017957821488">
        <ele>60.219999999999999</ele>
        <time>2018-09-26T13:11:32Z</time>
      </trkpt>
      <trkpt lat="40.723973186686635" lon="13.863935898989439">
        <ele>59.740000000000002</ele>
        <time>2018-09-26T13:11:44Z</time>
      </trkpt>
      <trkpt lat="40.72393923997879" lon="13.863858869299293">
        <ele>60.219999999999999</ele>
        <time>2018-09-26T13:11:52Z</time>
      </trkpt>
      <trkpt lat="40.72388936765492" lon="13.863628366962075">
        <ele>59.259999999999998</ele>
        <time>2018-09-26T13:12:08Z</time>
      </trkpt>
      <trkpt lat="40.723888613283634" lon="13.863601377233863">
        <ele>58.780000000000001</ele>
        <time>2018-09-26T13:12:10Z</time>
      </trkpt>
      <trkpt lat="40.723859779536724" lon="13.863572543486953">
        <ele>58.780000000000001</ele>
        <time>2018-09-26T13:12:13Z</time>
      </trkpt>
      <trkpt lat="40.723854331299663" lon="13.863497357815504">
        <ele>58.299999999999997</ele>
        <time>2018-09-26T13:12:19Z</time>
      </trkpt>
      <trkpt lat="40.723861372098327" lon="13.863321337848902">
        <ele>56.369999999999997</ele>
        <time>2018-09-26T13:12:31Z</time>
      </trkpt>
      <trkpt lat="40.723859025165439" lon="13.863282445818186">
        <ele>56.369999999999997</ele>
        <time>2018-09-26T13:12:34Z</time>
      </trkpt>
      <trkpt lat="40.723845195025206" lon="13.863116903230548">
        <ele>55.409999999999997</ele>
        <time>2018-09-26T13:12:45Z</time>
      </trkpt>
      <trkpt lat="40.723837818950415" lon="13.863085135817528">
        <ele>54.93</ele>
        <time>2018-09-26T13:12:47Z</time>
      </trkpt>
      <trkpt lat="40.723836980760098" lon="13.863023361191154">
        <ele>54.93</ele>
        <time>2018-09-26T13:12:51Z</time>
      </trkpt>
      <trkpt lat="40.723832789808512" lon="13.862967453896999">
        <ele>53.009999999999998</ele>
        <time>2018-09-26T13:12:55Z</time>
      </trkpt>
      <trkpt lat="40.723829017952085" lon="13.862912552431226">
        <ele>57.340000000000003</ele>
        <time>2018-09-26T13:12:59Z</time>
      </trkpt>
      <trkpt lat="40.723829939961433" lon="13.862895453348756">
        <ele>56.859999999999999</ele>
        <time>2018-09-26T13:13:00Z</time>
      </trkpt>
      <trkpt lat="40.723836561664939" lon="13.862841222435236">
        <ele>54.450000000000003</ele>
        <time>2018-09-26T13:13:03Z</time>
      </trkpt>
      <trkpt lat="40.723830778151751" lon="13.862773412838578">
        <ele>53.969999999999999</ele>
        <time>2018-09-26T13:13:08Z</time>
      </trkpt>
      <trkpt lat="40.723920883610845" lon="13.86254140175879">
        <ele>52.530000000000001</ele>
        <time>2018-09-26T13:13:25Z</time>
      </trkpt>
      <trkpt lat="40.723979724571109" lon="13.862385079264641">
        <ele>51.57</ele>
        <time>2018-09-26T13:13:37Z</time>
      </trkpt>
      <trkpt lat="40.724079133942723" lon="13.862224314361811">
        <ele>48.68</ele>
        <time>2018-09-26T13:13:51Z</time>
      </trkpt>
      <trkpt lat="40.724124480038881" lon="13.862163294106722">
        <ele>49.649999999999999</ele>
        <time>2018-09-26T13:13:57Z</time>
      </trkpt>
      <trkpt lat="40.724162282422185" lon="13.862129766494036">
        <ele>48.200000000000003</ele>
        <time>2018-09-26T13:14:01Z</time>
      </trkpt>
      <trkpt lat="40.724168149754405" lon="13.862120294943452">
        <ele>48.200000000000003</ele>
        <time>2018-09-26T13:14:02Z</time>
      </trkpt>
      <trkpt lat="40.724272085353732" lon="13.86196187697351">
        <ele>46.280000000000001</ele>
        <time>2018-09-26T13:14:17Z</time>
      </trkpt>
      <trkpt lat="40.724304523319006" lon="13.861879566684365">
        <ele>44.840000000000003</ele>
        <time>2018-09-26T13:14:28Z</time>
      </trkpt>
      <trkpt lat="40.724314749240875" lon="13.861893815919757">
        <ele>45.32</ele>
        <time>2018-09-26T13:14:41Z</time>
      </trkpt>
      <trkpt lat="40.724318604916334" lon="13.861846290528774">
        <ele>44.359999999999999</ele>
        <time>2018-09-26T13:14:52Z</time>
      </trkpt>
      <trkpt lat="40.724309468641877" lon="13.861847380176187">
        <ele>43.880000000000003</ele>
        <time>2018-09-26T13:15:15Z</time>
      </trkpt>
      <trkpt lat="40.724310725927353" lon="13.861836399883032">
        <ele>44.359999999999999</ele>
        <time>2018-09-26T13:15:25Z</time>
      </trkpt>
      <trkpt lat="40.724324472248554" lon="13.861837238073349">
        <ele>43.880000000000003</ele>
        <time>2018-09-26T13:15:35Z</time>
      </trkpt>
      <trkpt lat="40.724364873021841" lon="13.86173514649272">
        <ele>43.399999999999999</ele>
        <time>2018-09-26T13:15:44Z</time>
      </trkpt>
      <trkpt lat="40.724407453089952" lon="13.861590558663011">
        <ele>42.920000000000002</ele>
        <time>2018-09-26T13:15:56Z</time>
      </trkpt>
      <trkpt lat="40.724435448646545" lon="13.861408336088061">
        <ele>42.920000000000002</ele>
        <time>2018-09-26T13:16:09Z</time>
      </trkpt>
      <trkpt lat="40.724439136683941" lon="13.861365169286728">
        <ele>39.549999999999997</ele>
        <time>2018-09-26T13:16:12Z</time>
      </trkpt>
      <trkpt lat="40.724444249644876" lon="13.861180683597922">
        <ele>38.109999999999999</ele>
        <time>2018-09-26T13:16:25Z</time>
      </trkpt>
      <trkpt lat="40.724455900490284" lon="13.861029893159866">
        <ele>35.710000000000001</ele>
        <time>2018-09-26T13:16:38Z</time>
      </trkpt>
      <trkpt lat="40.724453218281269" lon="13.860889999195933">
        <ele>33.780000000000001</ele>
        <time>2018-09-26T13:16:50Z</time>
      </trkpt>
      <trkpt lat="40.724433856084943" lon="13.860847167670727">
        <ele>33.780000000000001</ele>
        <time>2018-09-26T13:17:03Z</time>
      </trkpt>
      <trkpt lat="40.724415834993124" lon="13.860839121043682">
        <ele>32.82</ele>
        <time>2018-09-26T13:17:15Z</time>
      </trkpt>
      <trkpt lat="40.724393622949719" lon="13.860845575109124">
        <ele>32.82</ele>
        <time>2018-09-26T13:17:19Z</time>
      </trkpt>
      <trkpt lat="40.724335117265582" lon="13.860870217904449">
        <ele>32.340000000000003</ele>
        <time>2018-09-26T13:17:24Z</time>
      </trkpt>
      <trkpt lat="40.724318940192461" lon="13.86088983155787">
        <ele>32.340000000000003</ele>
        <time>2018-09-26T13:17:26Z</time>
      </trkpt>
      <trkpt lat="40.724279209971428" lon="13.861072473227978">
        <ele>32.340000000000003</ele>
        <time>2018-09-26T13:17:38Z</time>
      </trkpt>
      <trkpt lat="40.724230511114001" lon="13.861243212595582">
        <ele>28.98</ele>
        <time>2018-09-26T13:17:49Z</time>
      </trkpt>
      <trkpt lat="40.724179968237877" lon="13.86141462251544">
        <ele>29.940000000000001</ele>
        <time>2018-09-26T13:18:02Z</time>
      </trkpt>
      <trkpt lat="40.724074020981789" lon="13.861617129296064">
        <ele>27.530000000000001</ele>
        <time>2018-09-26T13:18:16Z</time>
      </trkpt>
      <trkpt lat="40.723935887217522" lon="13.861737661063671">
        <ele>25.609999999999999</ele>
        <time>2018-09-26T13:18:29Z</time>
      </trkpt>
      <trkpt lat="40.723771769553423" lon="13.861763477325439">
        <ele>24.649999999999999</ele>
        <time>2018-09-26T13:18:42Z</time>
      </trkpt>
      <trkpt lat="40.723625924438238" lon="13.86176691390574">
        <ele>22.25</ele>
        <time>2018-09-26T13:18:54Z</time>
      </trkpt>
      <trkpt lat="40.723463231697679" lon="13.861750066280365">
        <ele>20.32</ele>
        <time>2018-09-26T13:19:08Z</time>
      </trkpt>
      <trkpt lat="40.723444456234574" lon="13.861742857843637">
        <ele>19.84</ele>
        <time>2018-09-26T13:19:10Z</time>
      </trkpt>
      <trkpt lat="40.7233343180269" lon="13.861733386293054">
        <ele>18.879999999999999</ele>
        <time>2018-09-26T13:19:18Z</time>
      </trkpt>
      <trkpt lat="40.723155532032251" lon="13.861671444028616">
        <ele>17.440000000000001</ele>
        <time>2018-09-26T13:19:33Z</time>
      </trkpt>
      <trkpt lat="40.722945565357804" lon="13.861624924466014">
        <ele>16.48</ele>
        <time>2018-09-26T13:19:50Z</time>
      </trkpt>
      <trkpt lat="40.722751943394542" lon="13.861580081284046">
        <ele>14.56</ele>
        <time>2018-09-26T13:20:07Z</time>
      </trkpt>
      <trkpt lat="40.722610875964165" lon="13.861554516479373">
        <ele>13.6</ele>
        <time>2018-09-26T13:20:20Z</time>
      </trkpt>
      <trkpt lat="40.722465785220265" lon="13.861510846763849">
        <ele>12.630000000000001</ele>
        <time>2018-09-26T13:20:32Z</time>
      </trkpt>
      <trkpt lat="40.722282724454999" lon="13.861476732417941">
        <ele>10.23</ele>
        <time>2018-09-26T13:20:47Z</time>
      </trkpt>
      <trkpt lat="40.722165796905756" lon="13.861445719376206">
        <ele>10.23</ele>
        <time>2018-09-26T13:20:58Z</time>
      </trkpt>
      <trkpt lat="40.722116762772202" lon="13.861362570896745">
        <ele>9.27</ele>
        <time>2018-09-26T13:21:05Z</time>
      </trkpt>
      <trkpt lat="40.722081977874041" lon="13.861140869557858">
        <ele>8.789999999999999</ele>
        <time>2018-09-26T13:21:20Z</time>
      </trkpt>
      <trkpt lat="40.722081055864692" lon="13.861125782132149">
        <ele>9.27</ele>
        <time>2018-09-26T13:21:21Z</time>
      </trkpt>
      <trkpt lat="40.722123384475708" lon="13.861067611724138">
        <ele>9.75</ele>
        <time>2018-09-26T13:21:26Z</time>
      </trkpt>
      <trkpt lat="40.722266379743814" lon="13.860975913703442">
        <ele>8.789999999999999</ele>
        <time>2018-09-26T13:21:42Z</time>
      </trkpt>
      <trkpt lat="40.722217513248324" lon="13.860994689166546">
        <ele>9.75</ele>
        <time>2018-09-26T13:21:48Z</time>
      </trkpt>
      <trkpt lat="40.722090359777212" lon="13.861093344166875">
        <ele>10.23</ele>
        <time>2018-09-26T13:22:01Z</time>
      </trkpt>
      <trkpt lat="40.722089605405927" lon="13.861096696928144">
        <ele>9.75</ele>
        <time>2018-09-26T13:22:10Z</time>
      </trkpt>
      <trkpt lat="40.722108967602253" lon="13.861063169315457">
        <ele>10.23</ele>
        <time>2018-09-26T13:22:25Z</time>
      </trkpt>
      <trkpt lat="40.722138807177544" lon="13.860994940623641">
        <ele>9.75</ele>
        <time>2018-09-26T13:22:36Z</time>
      </trkpt>
      <trkpt lat="40.72217920795083" lon="13.860966693609953">
        <ele>9.27</ele>
        <time>2018-09-26T13:22:44Z</time>
      </trkpt>
      <trkpt lat="40.722157582640648" lon="13.860962418839335">
        <ele>9.75</ele>
        <time>2018-09-26T13:22:59Z</time>
      </trkpt>
      <trkpt lat="40.722167138010263" lon="13.860968705266714">
        <ele>10.710000000000001</ele>
        <time>2018-09-26T13:23:17Z</time>
      </trkpt>
      <trkpt lat="40.722185662016273" lon="13.86097532697022">
        <ele>9.75</ele>
        <time>2018-09-26T13:23:28Z</time>
      </trkpt>
      <trkpt lat="40.722183231264353" lon="13.860986810177565">
        <ele>10.23</ele>
        <time>2018-09-26T13:23:43Z</time>
      </trkpt>
      <trkpt lat="40.722185578197241" lon="13.860975662246346">
        <ele>9.75</ele>
        <time>2018-09-26T13:24:01Z</time>
      </trkpt>
      <trkpt lat="40.722182560712099" lon="13.860977422446012">
        <ele>10.23</ele>
        <time>2018-09-26T13:24:21Z</time>
      </trkpt>
      <trkpt lat="40.722161354497075" lon="13.86095873080194">
        <ele>10.23</ele>
        <time>2018-09-26T13:24:35Z</time>
      </trkpt>
      <trkpt lat="40.722126234322786" lon="13.861011452972889">
        <ele>9.75</ele>
        <time>2018-09-26T13:24:44Z</time>
      </trkpt>
      <trkpt lat="40.722104525193572" lon="13.861072054132819">
        <ele>8.789999999999999</ele>
        <time>2018-09-26T13:24:53Z</time>
      </trkpt>
      <trkpt lat="40.722088431939483" lon="13.86109602637589">
        <ele>10.23</ele>
        <time>2018-09-26T13:25:01Z</time>
      </trkpt>
      <trkpt lat="40.722094299271703" lon="13.8611023966223">
        <ele>10.23</ele>
        <time>2018-09-26T13:25:15Z</time>
      </trkpt>
      <trkpt lat="40.722119277343154" lon="13.861083872616291">
        <ele>9.27</ele>
        <time>2018-09-26T13:25:27Z</time>
      </trkpt>
      <trkpt lat="40.722225895151496" lon="13.860992677509785">
        <ele>9.27</ele>
        <time>2018-09-26T13:25:42Z</time>
      </trkpt>
      <trkpt lat="40.722298566251993" lon="13.86094649322331">
        <ele>9.27</ele>
        <time>2018-09-26T13:25:53Z</time>
      </trkpt>
      <trkpt lat="40.722363358363509" lon="13.860879940912127">
        <ele>8.310000000000001</ele>
        <time>2018-09-26T13:26:04Z</time>
      </trkpt>
      <trkpt lat="40.722426893189549" lon="13.860850101336837">
        <ele>8.310000000000001</ele>
        <time>2018-09-26T13:26:14Z</time>
      </trkpt>
      <trkpt lat="40.722448518499732" lon="13.860889580100775">
        <ele>9.27</ele>
        <time>2018-09-26T13:26:25Z</time>
      </trkpt>
      <trkpt lat="40.722462683916092" lon="13.860953785479069">
        <ele>8.789999999999999</ele>
        <time>2018-09-26T13:26:33Z</time>
      </trkpt>
      <trkpt lat="40.722444327548146" lon="13.860949091613293">
        <ele>8.789999999999999</ele>
        <time>2018-09-26T13:26:41Z</time>
      </trkpt>
    </trkseg>
  </trk>

  <trk>
    <name>2018-09-27 08:09:12</name>
    <extensions>
      <gpxx:TrackExtension>
        <gpxx:DisplayColor>Yellow</gpxx:DisplayColor>
      </gpxx:TrackExtension>
      <gpxtrkx:TrackStatsExtension xmlns:gpxtrkx="http://www.garmin.com/xmlschemas/TrackStatsExtension/v1">
        <gpxtrkx:Distance>9130</gpxtrkx:Distance>
        <gpxtrkx:TotalElapsedTime>1329</gpxtrkx:TotalElapsedTime>
        <gpxtrkx:MovingTime>1202</gpxtrkx:MovingTime>
        <gpxtrkx:StoppedTime>127</gpxtrkx:StoppedTime>
        <gpxtrkx:MovingSpeed>8</gpxtrkx:MovingSpeed>
        <gpxtrkx:MaxSpeed>2</gpxtrkx:MaxSpeed>
        <gpxtrkx:MaxElevation>0</gpxtrkx:MaxElevation>
        <gpxtrkx:MinElevation>-17</gpxtrkx:MinElevation>
        <gpxtrkx:Ascent>7</gpxtrkx:Ascent>
        <gpxtrkx:Descent>13</gpxtrkx:Descent>
        <gpxtrkx:AvgAscentRate>0</gpxtrkx:AvgAscentRate>
        <gpxtrkx:MaxAscentRate>0</gpxtrkx:MaxAscentRate>
        <gpxtrkx:AvgDescentRate>0</gpxtrkx:AvgDescentRate>
        <gpxtrkx:MaxDescentRate>-0</gpxtrkx:MaxDescentRate>
      </gpxtrkx:TrackStatsExtension>
    </extensions>
    <trkseg>
      <trkpt lat="40.733728045597672" lon="13.949722163379192">
        <ele>-9.48</ele>
        <time>2018-09-27T05:47:06Z</time>
      </trkpt>
      <trkpt lat="40.733839524909854" lon="13.949489397928119">
        <ele>-9.48</ele>
        <time>2018-09-27T05:47:23Z</time>
      </trkpt>
      <trkpt lat="40.733870789408684" lon="13.949419660493731">
        <ele>-9.48</ele>
        <time>2018-09-27T05:47:41Z</time>
      </trkpt>
      <trkpt lat="40.733874393627048" lon="13.949375571683049">
        <ele>-9</ele>
        <time>2018-09-27T05:47:53Z</time>
      </trkpt>
      <trkpt lat="40.733863161876798" lon="13.949363166466355">
        <ele>-9.48</ele>
        <time>2018-09-27T05:48:01Z</time>
      </trkpt>
      <trkpt lat="40.733912028372288" lon="13.949330728501081">
        <ele>-9.48</ele>
        <time>2018-09-27T05:48:17Z</time>
      </trkpt>
      <trkpt lat="40.734077990055084" lon="13.949532061815262">
        <ele>-9.48</ele>
        <time>2018-09-27T05:48:40Z</time>
      </trkpt>
      <trkpt lat="40.734099950641394" lon="13.949519572779536">
        <ele>-8.51</ele>
        <time>2018-09-27T05:48:48Z</time>
      </trkpt>
      <trkpt lat="40.734120151028037" lon="13.949455032125115">
        <ele>-9</ele>
        <time>2018-09-27T05:48:58Z</time>
      </trkpt>
      <trkpt lat="40.734159294515848" lon="13.949338607490063">
        <ele>-9</ele>
        <time>2018-09-27T05:49:09Z</time>
      </trkpt>
      <trkpt lat="40.734214531257749" lon="13.949229558929801">
        <ele>-9.48</ele>
        <time>2018-09-27T05:49:22Z</time>
      </trkpt>
      <trkpt lat="40.734241772443056" lon="13.949034595862031">
        <ele>-9.48</ele>
        <time>2018-09-27T05:49:38Z</time>
      </trkpt>
      <trkpt lat="40.734262140467763" lon="13.948965445160866">
        <ele>-9.48</ele>
        <time>2018-09-27T05:49:44Z</time>
      </trkpt>
      <trkpt lat="40.734200365841389" lon="13.948823204264045">
        <ele>-9.960000000000001</ele>
        <time>2018-09-27T05:49:57Z</time>
      </trkpt>
      <trkpt lat="40.734274964779615" lon="13.948850110173225">
        <ele>-9.48</ele>
        <time>2018-09-27T05:50:07Z</time>
      </trkpt>
      <trkpt lat="40.734413350000978" lon="13.948934013023973">
        <ele>-9</ele>
        <time>2018-09-27T05:50:20Z</time>
      </trkpt>
      <trkpt lat="40.734548717737198" lon="13.949034092947841">
        <ele>-9</ele>
        <time>2018-09-27T05:50:35Z</time>
      </trkpt>
      <trkpt lat="40.734644858166575" lon="13.949062759056687">
        <ele>-9</ele>
        <time>2018-09-27T05:50:44Z</time>
      </trkpt>
      <trkpt lat="40.734721720218658" lon="13.949010455980897">
        <ele>-9</ele>
        <time>2018-09-27T05:50:50Z</time>
      </trkpt>
      <trkpt lat="40.734793972223997" lon="13.948792526498437">
        <ele>-9</ele>
        <time>2018-09-27T05:51:03Z</time>
      </trkpt>
      <trkpt lat="40.734829679131508" lon="13.948662439361215">
        <ele>-9</ele>
        <time>2018-09-27T05:51:14Z</time>
      </trkpt>
      <trkpt lat="40.734855076298118" lon="13.948622457683086">
        <ele>-9</ele>
        <time>2018-09-27T05:51:18Z</time>
      </trkpt>
      <trkpt lat="40.734918778762221" lon="13.948458591476083">
        <ele>-7.07</ele>
        <time>2018-09-27T05:51:30Z</time>
      </trkpt>
      <trkpt lat="40.734963286668062" lon="13.948327163234353">
        <ele>-7.07</ele>
        <time>2018-09-27T05:51:42Z</time>
      </trkpt>
      <trkpt lat="40.735033191740513" lon="13.948235800489783">
        <ele>-7.07</ele>
        <time>2018-09-27T05:51:54Z</time>
      </trkpt>
      <trkpt lat="40.735174007713795" lon="13.948124572634697">
        <ele>-6.59</ele>
        <time>2018-09-27T05:52:08Z</time>
      </trkpt>
      <trkpt lat="40.735273500904441" lon="13.948001945391297">
        <ele>-6.11</ele>
        <time>2018-09-27T05:52:21Z</time>
      </trkpt>
      <trkpt lat="40.735323876142502" lon="13.947882922366261">
        <ele>-5.15</ele>
        <time>2018-09-27T05:52:31Z</time>
      </trkpt>
      <trkpt lat="40.735377101227641" lon="13.947882503271103">
        <ele>-5.63</ele>
        <time>2018-09-27T05:52:37Z</time>
      </trkpt>
      <trkpt lat="40.735494028776884" lon="13.94767421297729">
        <ele>-4.67</ele>
        <time>2018-09-27T05:52:52Z</time>
      </trkpt>
      <trkpt lat="40.735583212226629" lon="13.947511939331889">
        <ele>-4.19</ele>
        <time>2018-09-27T05:53:05Z</time>
      </trkpt>
      <trkpt lat="40.735737355425954" lon="13.947427701205015">
        <ele>-1.79</ele>
        <time>2018-09-27T05:53:20Z</time>
      </trkpt>
      <trkpt lat="40.735840788111091" lon="13.947366597130895">
        <ele>-3.23</ele>
        <time>2018-09-27T05:53:34Z</time>
      </trkpt>
      <trkpt lat="40.735900467261672" lon="13.947360813617706">
        <ele>-3.71</ele>
        <time>2018-09-27T05:53:47Z</time>
      </trkpt>
      <trkpt lat="40.73597707785666" lon="13.947401884943247">
        <ele>-3.23</ele>
        <time>2018-09-27T05:54:00Z</time>
      </trkpt>
      <trkpt lat="40.736101465299726" lon="13.947509760037065">
        <ele>-3.71</ele>
        <time>2018-09-27T05:54:13Z</time>
      </trkpt>
      <trkpt lat="40.736138680949807" lon="13.947534151375294">
        <ele>-4.19</ele>
        <time>2018-09-27T05:54:16Z</time>
      </trkpt>
      <trkpt lat="40.736222248524427" lon="13.947636829689145">
        <ele>-4.19</ele>
        <time>2018-09-27T05:54:28Z</time>
      </trkpt>
      <trkpt lat="40.736346719786525" lon="13.947702962905169">
        <ele>-4.19</ele>
        <time>2018-09-27T05:54:38Z</time>
      </trkpt>
      <trkpt lat="40.736434562131763" lon="13.947725677862763">
        <ele>-4.19</ele>
        <time>2018-09-27T05:54:48Z</time>
      </trkpt>
      <trkpt lat="40.73652533814311" lon="13.947784183546901">
        <ele>-4.67</ele>
        <time>2018-09-27T05:54:59Z</time>
      </trkpt>
      <trkpt lat="40.736608318984509" lon="13.94786037504673">
        <ele>-5.15</ele>
        <time>2018-09-27T05:55:10Z</time>
      </trkpt>
      <trkpt lat="40.736737735569477" lon="13.947986774146557">
        <ele>-5.63</ele>
        <time>2018-09-27T05:55:24Z</time>
      </trkpt>
      <trkpt lat="40.736904451623559" lon="13.948109736666083">
        <ele>-6.11</ele>
        <time>2018-09-27T05:55:37Z</time>
      </trkpt>
      <trkpt lat="40.737041495740414" lon="13.948247032240033">
        <ele>-6.59</ele>
        <time>2018-09-27T05:55:49Z</time>
      </trkpt>
      <trkpt lat="40.737186670303345" lon="13.948278883472085">
        <ele>-6.59</ele>
        <time>2018-09-27T05:56:03Z</time>
      </trkpt>
      <trkpt lat="40.737332599237561" lon="13.948367647826672">
        <ele>-6.59</ele>
        <time>2018-09-27T05:56:17Z</time>
      </trkpt>
      <trkpt lat="40.737512307241559" lon="13.948502512648702">
        <ele>-7.07</ele>
        <time>2018-09-27T05:56:32Z</time>
      </trkpt>
      <trkpt lat="40.737654129043221" lon="13.948573255911469">
        <ele>-7.55</ele>
        <time>2018-09-27T05:56:43Z</time>
      </trkpt>
      <trkpt lat="40.737728727981448" lon="13.948581386357546">
        <ele>-7.55</ele>
        <time>2018-09-27T05:56:48Z</time>
      </trkpt>
      <trkpt lat="40.73792134411633" lon="13.948536207899451">
        <ele>-7.55</ele>
        <time>2018-09-27T05:57:01Z</time>
      </trkpt>
      <trkpt lat="40.738095017150044" lon="13.948558000847697">
        <ele>-7.55</ele>
        <time>2018-09-27T05:57:14Z</time>
      </trkpt>
      <trkpt lat="40.738201383501291" lon="13.948579877614975">
        <ele>-7.55</ele>
        <time>2018-09-27T05:57:27Z</time>
      </trkpt>
      <trkpt lat="40.738341445103288" lon="13.948543164879084">
        <ele>-7.55</ele>
        <time>2018-09-27T05:57:42Z</time>
      </trkpt>
      <trkpt lat="40.73835183866322" lon="13.948548277840018">
        <ele>-7.55</ele>
        <time>2018-09-27T05:57:43Z</time>
      </trkpt>
      <trkpt lat="40.738518303260207" lon="13.948498740792274">
        <ele>-7.55</ele>
        <time>2018-09-27T05:57:56Z</time>
      </trkpt>
      <trkpt lat="40.738692060112953" lon="13.948437217622995">
        <ele>-8.029999999999999</ele>
        <time>2018-09-27T05:58:12Z</time>
      </trkpt>
      <trkpt lat="40.738848885521293" lon="13.948394134640694">
        <ele>-8.029999999999999</ele>
        <time>2018-09-27T05:58:26Z</time>
      </trkpt>
      <trkpt lat="40.738976206630468" lon="13.948330683633685">
        <ele>-8.029999999999999</ele>
        <time>2018-09-27T05:58:40Z</time>
      </trkpt>
      <trkpt lat="40.739121800288558" lon="13.948215264827013">
        <ele>-8.029999999999999</ele>
        <time>2018-09-27T05:58:54Z</time>
      </trkpt>
      <trkpt lat="40.739143425598741" lon="13.948190454393625">
        <ele>-8.029999999999999</ele>
        <time>2018-09-27T05:58:56Z</time>
      </trkpt>
      <trkpt lat="40.739286756142974" lon="13.948093559592962">
        <ele>-8.029999999999999</ele>
        <time>2018-09-27T05:59:12Z</time>
      </trkpt>
      <trkpt lat="40.739409383386374" lon="13.948042094707489">
        <ele>-7.07</ele>
        <time>2018-09-27T05:59:23Z</time>
      </trkpt>
      <trkpt lat="40.739542823284864" lon="13.9479742012918">
        <ele>-8.51</ele>
        <time>2018-09-27T05:59:34Z</time>
      </trkpt>
      <trkpt lat="40.739618930965662" lon="13.947873869910836">
        <ele>-8.029999999999999</ele>
        <time>2018-09-27T05:59:46Z</time>
      </trkpt>
      <trkpt lat="40.739656230434775" lon="13.947849394753575">
        <ele>-8.029999999999999</ele>
        <time>2018-09-27T05:59:50Z</time>
      </trkpt>
      <trkpt lat="40.739709455519915" lon="13.947807904332876">
        <ele>-8.029999999999999</ele>
        <time>2018-09-27T05:59:56Z</time>
      </trkpt>
      <trkpt lat="40.73972487822175" lon="13.947779657319188">
        <ele>-8.51</ele>
        <time>2018-09-27T05:59:58Z</time>
      </trkpt>
      <trkpt lat="40.739804254844785" lon="13.947669016197324">
        <ele>-8.029999999999999</ele>
        <time>2018-09-27T06:00:10Z</time>
      </trkpt>
      <trkpt lat="40.73989000171423" lon="13.947563990950584">
        <ele>-8.029999999999999</ele>
        <time>2018-09-27T06:00:22Z</time>
      </trkpt>
      <trkpt lat="40.739909447729588" lon="13.947546221315861">
        <ele>-8.029999999999999</ele>
        <time>2018-09-27T06:00:24Z</time>
      </trkpt>
      <trkpt lat="40.740028135478497" lon="13.947434742003679">
        <ele>-8.029999999999999</ele>
        <time>2018-09-27T06:00:38Z</time>
      </trkpt>
      <trkpt lat="40.740143470466137" lon="13.94726081751287">
        <ele>-8.51</ele>
        <time>2018-09-27T06:00:52Z</time>
      </trkpt>
      <trkpt lat="40.740286214277148" lon="13.947135675698519">
        <ele>-8.51</ele>
        <time>2018-09-27T06:01:03Z</time>
      </trkpt>
      <trkpt lat="40.74031563475728" lon="13.947088653221726">
        <ele>-8.51</ele>
        <time>2018-09-27T06:01:08Z</time>
      </trkpt>
      <trkpt lat="40.740353018045425" lon="13.946924619376659">
        <ele>-9</ele>
        <time>2018-09-27T06:01:22Z</time>
      </trkpt>
      <trkpt lat="40.740437675267458" lon="13.946805177256465">
        <ele>-9.48</ele>
        <time>2018-09-27T06:01:33Z</time>
      </trkpt>
      <trkpt lat="40.740500707179308" lon="13.946648519486189">
        <ele>-9.960000000000001</ele>
        <time>2018-09-27T06:01:45Z</time>
      </trkpt>
      <trkpt lat="40.740570947527885" lon="13.946537878364325">
        <ele>-10.44</ele>
        <time>2018-09-27T06:01:57Z</time>
      </trkpt>
      <trkpt lat="40.740645714104176" lon="13.946395050734282">
        <ele>-11.4</ele>
        <time>2018-09-27T06:02:08Z</time>
      </trkpt>
      <trkpt lat="40.740665076300502" lon="13.946296060457826">
        <ele>-11.880000000000001</ele>
        <time>2018-09-27T06:02:17Z</time>
      </trkpt>
      <trkpt lat="40.740689467638731" lon="13.946218360215425">
        <ele>-11.880000000000001</ele>
        <time>2018-09-27T06:02:24Z</time>
      </trkpt>
      <trkpt lat="40.740709332749248" lon="13.946188017725945">
        <ele>-11.880000000000001</ele>
        <time>2018-09-27T06:02:27Z</time>
      </trkpt>
      <trkpt lat="40.74088635854423" lon="13.946091374382377">
        <ele>-12.359999999999999</ele>
        <time>2018-09-27T06:02:40Z</time>
      </trkpt>
      <trkpt lat="40.740986354649067" lon="13.94592490978539">
        <ele>-12.84</ele>
        <time>2018-09-27T06:02:53Z</time>
      </trkpt>
      <trkpt lat="40.741005633026361" lon="13.945886604487896">
        <ele>-13.32</ele>
        <time>2018-09-27T06:02:56Z</time>
      </trkpt>
      <trkpt lat="40.741088530048728" lon="13.945728186517954">
        <ele>-13.32</ele>
        <time>2018-09-27T06:03:09Z</time>
      </trkpt>
      <trkpt lat="40.741134043782949" lon="13.94568351097405">
        <ele>-13.32</ele>
        <time>2018-09-27T06:03:13Z</time>
      </trkpt>
      <trkpt lat="40.741236303001642" lon="13.94552911631763">
        <ele>-12.84</ele>
        <time>2018-09-27T06:03:26Z</time>
      </trkpt>
      <trkpt lat="40.74126647785306" lon="13.945469437167048">
        <ele>-13.800000000000001</ele>
        <time>2018-09-27T06:03:31Z</time>
      </trkpt>
      <trkpt lat="40.741280894726515" lon="13.945451499894261">
        <ele>-13.800000000000001</ele>
        <time>2018-09-27T06:03:33Z</time>
      </trkpt>
      <trkpt lat="40.741380555555224" lon="13.945349575951695">
        <ele>-14.76</ele>
        <time>2018-09-27T06:03:44Z</time>
      </trkpt>
      <trkpt lat="40.741528160870075" lon="13.945220494642854">
        <ele>-14.76</ele>
        <time>2018-09-27T06:03:56Z</time>
      </trkpt>
      <trkpt lat="40.741624552756548" lon="13.945047911256552">
        <ele>-15.24</ele>
        <time>2018-09-27T06:04:08Z</time>
      </trkpt>
      <trkpt lat="40.741643747314811" lon="13.944990998134017">
        <ele>-15.24</ele>
        <time>2018-09-27T06:04:12Z</time>
      </trkpt>
      <trkpt lat="40.741692110896111" lon="13.944855127483606">
        <ele>-15.720000000000001</ele>
        <time>2018-09-27T06:04:27Z</time>
      </trkpt>
      <trkpt lat="40.741798728704453" lon="13.944764183834195">
        <ele>-15.24</ele>
        <time>2018-09-27T06:04:37Z</time>
      </trkpt>
      <trkpt lat="40.741864107549191" lon="13.944624792784452">
        <ele>-15.24</ele>
        <time>2018-09-27T06:04:50Z</time>
      </trkpt>
      <trkpt lat="40.741931330412626" lon="13.944473583251238">
        <ele>-15.24</ele>
        <time>2018-09-27T06:05:04Z</time>
      </trkpt>
      <trkpt lat="40.742005510255694" lon="13.944299994036555">
        <ele>-15.24</ele>
        <time>2018-09-27T06:05:17Z</time>
      </trkpt>
      <trkpt lat="40.742074158042669" lon="13.944130931049585">
        <ele>-15.24</ele>
        <time>2018-09-27T06:05:31Z</time>
      </trkpt>
      <trkpt lat="40.742165688425303" lon="13.944002604112029">
        <ele>-15.24</ele>
        <time>2018-09-27T06:05:44Z</time>
      </trkpt>
      <trkpt lat="40.742297368124127" lon="13.943859357386827">
        <ele>-15.24</ele>
        <time>2018-09-27T06:05:59Z</time>
      </trkpt>
      <trkpt lat="40.742410020902753" lon="13.943662634119391">
        <ele>-15.24</ele>
        <time>2018-09-27T06:06:15Z</time>
      </trkpt>
      <trkpt lat="40.742470286786556" lon="13.94353112205863">
        <ele>-15.24</ele>
        <time>2018-09-27T06:06:26Z</time>
      </trkpt>
      <trkpt lat="40.742547484114766" lon="13.943441016599536">
        <ele>-15.24</ele>
        <time>2018-09-27T06:06:40Z</time>
      </trkpt>
      <trkpt lat="40.742575395852327" lon="13.943396089598536">
        <ele>-15.24</ele>
        <time>2018-09-27T06:06:51Z</time>
      </trkpt>
      <trkpt lat="40.742655694484711" lon="13.943321071565151">
        <ele>-15.24</ele>
        <time>2018-09-27T06:07:06Z</time>
      </trkpt>
      <trkpt lat="40.742676313966513" lon="13.943254100158811">
        <ele>-15.24</ele>
        <time>2018-09-27T06:07:16Z</time>
      </trkpt>
      <trkpt lat="40.742715792730451" lon="13.943178495392203">
        <ele>-14.76</ele>
        <time>2018-09-27T06:07:27Z</time>
      </trkpt>
      <trkpt lat="40.742764072492719" lon="13.943016305565834">
        <ele>-14.279999999999999</ele>
        <time>2018-09-27T06:07:40Z</time>
      </trkpt>
      <trkpt lat="40.742799108847976" lon="13.942927792668343">
        <ele>-13.800000000000001</ele>
        <time>2018-09-27T06:07:51Z</time>
      </trkpt>
      <trkpt lat="40.742828361690044" lon="13.942780522629619">
        <ele>-14.279999999999999</ele>
        <time>2018-09-27T06:08:01Z</time>
      </trkpt>
      <trkpt lat="40.742899607867002" lon="13.942647418007255">
        <ele>-14.76</ele>
        <time>2018-09-27T06:08:12Z</time>
      </trkpt>
      <trkpt lat="40.742911342531443" lon="13.942643310874701">
        <ele>-15.24</ele>
        <time>2018-09-27T06:08:13Z</time>
      </trkpt>
      <trkpt lat="40.743032628670335" lon="13.942572986707091">
        <ele>-15.24</ele>
        <time>2018-09-27T06:08:24Z</time>
      </trkpt>
      <trkpt lat="40.743160117417574" lon="13.942538788542151">
        <ele>-15.24</ele>
        <time>2018-09-27T06:08:35Z</time>
      </trkpt>
      <trkpt lat="40.743208480998874" lon="13.942450946196914">
        <ele>-15.720000000000001</ele>
        <time>2018-09-27T06:08:46Z</time>
      </trkpt>
      <trkpt lat="40.743312332779169" lon="13.9423100464046">
        <ele>-15.24</ele>
        <time>2018-09-27T06:08:59Z</time>
      </trkpt>
    </trkseg>
  </trk>

  <trk>
    <name>2018-09-27 15:35:13</name>
    <extensions>
      <gpxx:TrackExtension>
        <gpxx:DisplayColor>Yellow</gpxx:DisplayColor>
      </gpxx:TrackExtension>
      <gpxtrkx:TrackStatsExtension xmlns:gpxtrkx="http://www.garmin.com/xmlschemas/TrackStatsExtension/v1">
        <gpxtrkx:Distance>10587</gpxtrkx:Distance>
        <gpxtrkx:TotalElapsedTime>18532</gpxtrkx:TotalElapsedTime>
        <gpxtrkx:MovingTime>12541</gpxtrkx:MovingTime>
        <gpxtrkx:StoppedTime>5984</gpxtrkx:StoppedTime>
        <gpxtrkx:MovingSpeed>1</gpxtrkx:MovingSpeed>
        <gpxtrkx:MaxSpeed>2</gpxtrkx:MaxSpeed>
        <gpxtrkx:MaxElevation>601</gpxtrkx:MaxElevation>
        <gpxtrkx:MinElevation>-22</gpxtrkx:MinElevation>
        <gpxtrkx:Ascent>630</gpxtrkx:Ascent>
        <gpxtrkx:Descent>630</gpxtrkx:Descent>
        <gpxtrkx:AvgAscentRate>0</gpxtrkx:AvgAscentRate>
        <gpxtrkx:MaxAscentRate>0</gpxtrkx:MaxAscentRate>
        <gpxtrkx:AvgDescentRate>0</gpxtrkx:AvgDescentRate>
        <gpxtrkx:MaxDescentRate>-0</gpxtrkx:MaxDescentRate>
      </gpxtrkx:TrackStatsExtension>
    </extensions>
    <trkseg>
      <trkpt lat="40.555664738640189" lon="14.240448893979192">
        <ele>-21.489999999999998</ele>
        <time>2018-09-27T08:26:24Z</time>
      </trkpt>
      <trkpt lat="40.555664738640189" lon="14.24044881016016">
        <ele>-21.489999999999998</ele>
        <time>2018-09-27T08:26:25Z</time>
      </trkpt>
      <trkpt lat="40.555670773610473" lon="14.240447217598557">
        <ele>13.6</ele>
        <time>2018-09-27T08:26:28Z</time>
      </trkpt>
      <trkpt lat="40.55567161180079" lon="14.240447301417589">
        <ele>13.6</ele>
        <time>2018-09-27T08:26:29Z</time>
      </trkpt>
      <trkpt lat="40.555678149685264" lon="14.240484852343798">
        <ele>14.56</ele>
        <time>2018-09-27T08:26:48Z</time>
      </trkpt>
      <trkpt lat="40.5556779820472" lon="14.240503879263997">
        <ele>14.08</ele>
        <time>2018-09-27T08:26:58Z</time>
      </trkpt>
      <trkpt lat="40.555677227675915" lon="14.240490803495049">
        <ele>14.56</ele>
        <time>2018-09-27T08:27:09Z</time>
      </trkpt>
      <trkpt lat="40.55567504838109" lon="14.240473201498389">
        <ele>14.56</ele>
        <time>2018-09-27T08:27:22Z</time>
      </trkpt>
      <trkpt lat="40.555702205747366" lon="14.240464149042964">
        <ele>14.56</ele>
        <time>2018-09-27T08:27:35Z</time>
      </trkpt>
      <trkpt lat="40.555694745853543" lon="14.240448474884033">
        <ele>14.08</ele>
        <time>2018-09-27T08:27:49Z</time>
      </trkpt>
      <trkpt lat="40.555678987875581" lon="14.240429196506739">
        <ele>14.08</ele>
        <time>2018-09-27T08:28:04Z</time>
      </trkpt>
      <trkpt lat="40.55567555129528" lon="14.240455348044634">
        <ele>14.08</ele>
        <time>2018-09-27T08:28:15Z</time>
      </trkpt>
      <trkpt lat="40.555667001754045" lon="14.240430118516088">
        <ele>14.56</ele>
        <time>2018-09-27T08:28:27Z</time>
      </trkpt>
      <trkpt lat="40.555677646771073" lon="14.240442859008908">
        <ele>14.56</ele>
        <time>2018-09-27T08:28:43Z</time>
      </trkpt>
      <trkpt lat="40.555699858814478" lon="14.240450235083699">
        <ele>14.56</ele>
        <time>2018-09-27T08:28:57Z</time>
      </trkpt>
      <trkpt lat="40.55569457821548" lon="14.240428023040295">
        <ele>14.56</ele>
        <time>2018-09-27T08:29:07Z</time>
      </trkpt>
      <trkpt lat="40.555676054209471" lon="14.24040044657886">
        <ele>14.56</ele>
        <time>2018-09-27T08:29:29Z</time>
      </trkpt>
      <trkpt lat="40.555688207969069" lon="14.240406649187207">
        <ele>14.56</ele>
        <time>2018-09-27T08:29:39Z</time>
      </trkpt>
      <trkpt lat="40.555696003139019" lon="14.240383515134454">
        <ele>15.039999999999999</ele>
        <time>2018-09-27T08:30:00Z</time>
      </trkpt>
      <trkpt lat="40.555742103606462" lon="14.240336576476693">
        <ele>14.56</ele>
        <time>2018-09-27T08:30:09Z</time>
      </trkpt>
      <trkpt lat="40.555765405297279" lon="14.240405894815922">
        <ele>14.56</ele>
        <time>2018-09-27T08:30:23Z</time>
      </trkpt>
      <trkpt lat="40.555757526308298" lon="14.240389047190547">
        <ele>14.56</ele>
        <time>2018-09-27T08:30:41Z</time>
      </trkpt>
      <trkpt lat="40.555759957060218" lon="14.240398015826941">
        <ele>15.039999999999999</ele>
        <time>2018-09-27T08:30:54Z</time>
      </trkpt>
      <trkpt lat="40.555773368105292" lon="14.240390891209245">
        <ele>15.039999999999999</ele>
        <time>2018-09-27T08:31:06Z</time>
      </trkpt>
      <trkpt lat="40.555771021172404" lon="14.240396339446306">
        <ele>14.56</ele>
        <time>2018-09-27T08:31:18Z</time>
      </trkpt>
      <trkpt lat="40.555771691724658" lon="14.240396255627275">
        <ele>14.56</ele>
        <time>2018-09-27T08:31:41Z</time>
      </trkpt>
      <trkpt lat="40.555757777765393" lon="14.240399692207575">
        <ele>15.039999999999999</ele>
        <time>2018-09-27T08:31:57Z</time>
      </trkpt>
      <trkpt lat="40.55573707446456" lon="14.240397596731782">
        <ele>14.56</ele>
        <time>2018-09-27T08:32:14Z</time>
      </trkpt>
      <trkpt lat="40.555761633440852" lon="14.24039214849472">
        <ele>14.56</ele>
        <time>2018-09-27T08:32:26Z</time>
      </trkpt>
      <trkpt lat="40.555736571550369" lon="14.240394914522767">
        <ele>15.039999999999999</ele>
        <time>2018-09-27T08:32:31Z</time>
      </trkpt>
      <trkpt lat="40.555721567943692" lon="14.240374714136124">
        <ele>14.56</ele>
        <time>2018-09-27T08:32:39Z</time>
      </trkpt>
      <trkpt lat="40.555712431669235" lon="14.240347892045975">
        <ele>14.56</ele>
        <time>2018-09-27T08:32:55Z</time>
      </trkpt>
      <trkpt lat="40.555705642327666" lon="14.240383096039295">
        <ele>15.039999999999999</ele>
        <time>2018-09-27T08:33:04Z</time>
      </trkpt>
      <trkpt lat="40.555677898228168" lon="14.240316292271018">
        <ele>15.039999999999999</ele>
        <time>2018-09-27T08:33:13Z</time>
      </trkpt>
      <trkpt lat="40.555648729205132" lon="14.240243788808584">
        <ele>15.039999999999999</ele>
        <time>2018-09-27T08:33:23Z</time>
      </trkpt>
      <trkpt lat="40.555643951520324" lon="14.240240687504411">
        <ele>15.039999999999999</ele>
        <time>2018-09-27T08:33:24Z</time>
      </trkpt>
      <trkpt lat="40.555586032569408" lon="14.240172626450658">
        <ele>15.52</ele>
        <time>2018-09-27T08:33:34Z</time>
      </trkpt>
      <trkpt lat="40.555502632632852" lon="14.240129543468356">
        <ele>16</ele>
        <time>2018-09-27T08:33:44Z</time>
      </trkpt>
      <trkpt lat="40.555425435304642" lon="14.240039773285389">
        <ele>16.960000000000001</ele>
        <time>2018-09-27T08:33:55Z</time>
      </trkpt>
      <trkpt lat="40.555356787517667" lon="14.239988140761852">
        <ele>18.399999999999999</ele>
        <time>2018-09-27T08:34:05Z</time>
      </trkpt>
      <trkpt lat="40.555297359824181" lon="14.239907506853342">
        <ele>19.359999999999999</ele>
        <time>2018-09-27T08:34:15Z</time>
      </trkpt>
      <trkpt lat="40.555294761434197" lon="14.239891665056348">
        <ele>20.32</ele>
        <time>2018-09-27T08:34:26Z</time>
      </trkpt>
      <trkpt lat="40.555292163044214" lon="14.239877164363861">
        <ele>20.32</ele>
        <time>2018-09-27T08:34:36Z</time>
      </trkpt>
      <trkpt lat="40.555289648473263" lon="14.239879008382559">
        <ele>20.32</ele>
        <time>2018-09-27T08:34:50Z</time>
      </trkpt>
      <trkpt lat="40.555305322632194" lon="14.239879343658686">
        <ele>20.32</ele>
        <time>2018-09-27T08:35:09Z</time>
      </trkpt>
      <trkpt lat="40.555310267955065" lon="14.239857047796249">
        <ele>20.32</ele>
        <time>2018-09-27T08:35:20Z</time>
      </trkpt>
      <trkpt lat="40.555316973477602" lon="14.239891329780221">
        <ele>20.809999999999999</ele>
        <time>2018-09-27T08:35:36Z</time>
      </trkpt>
      <trkpt lat="40.555273974314332" lon="14.239872973412275">
        <ele>20.809999999999999</ele>
        <time>2018-09-27T08:35:47Z</time>
      </trkpt>
      <trkpt lat="40.555214378982782" lon="14.239913206547499">
        <ele>23.210000000000001</ele>
        <time>2018-09-27T08:36:02Z</time>
      </trkpt>
      <trkpt lat="40.555177833884954" lon="14.239997193217278">
        <ele>25.129999999999999</ele>
        <time>2018-09-27T08:36:16Z</time>
      </trkpt>
      <trkpt lat="40.555163249373436" lon="14.240025104954839">
        <ele>25.609999999999999</ele>
        <time>2018-09-27T08:36:28Z</time>
      </trkpt>
      <trkpt lat="40.555119412019849" lon="14.24005595035851">
        <ele>27.530000000000001</ele>
        <time>2018-09-27T08:36:41Z</time>
      </trkpt>
      <trkpt lat="40.555095942690969" lon="14.240126525983214">
        <ele>29.460000000000001</ele>
        <time>2018-09-27T08:36:54Z</time>
      </trkpt>
      <trkpt lat="40.555051853880286" lon="14.240202633664012">
        <ele>31.379999999999999</ele>
        <time>2018-09-27T08:37:07Z</time>
      </trkpt>
      <trkpt lat="40.554984379559755" lon="14.24021277576685">
        <ele>33.299999999999997</ele>
        <time>2018-09-27T08:37:18Z</time>
      </trkpt>
      <trkpt lat="40.554933585226536" lon="14.240185115486383">
        <ele>35.229999999999997</ele>
        <time>2018-09-27T08:37:29Z</time>
      </trkpt>
      <trkpt lat="40.554875917732716" lon="14.240269353613257">
        <ele>37.149999999999999</ele>
        <time>2018-09-27T08:37:41Z</time>
      </trkpt>
      <trkpt lat="40.554815819486976" lon="14.240271197631955">
        <ele>38.109999999999999</ele>
        <time>2018-09-27T08:37:49Z</time>
      </trkpt>
      <trkpt lat="40.554747087880969" lon="14.240226186811924">
        <ele>38.590000000000003</ele>
        <time>2018-09-27T08:38:00Z</time>
      </trkpt>
      <trkpt lat="40.55467726662755" lon="14.240206656977534">
        <ele>40.030000000000001</ele>
        <time>2018-09-27T08:38:10Z</time>
      </trkpt>
      <trkpt lat="40.554590094834566" lon="14.240145133808255">
        <ele>40.990000000000002</ele>
        <time>2018-09-27T08:38:21Z</time>
      </trkpt>
      <trkpt lat="40.554557656869292" lon="14.240123843774199">
        <ele>41.469999999999999</ele>
        <time>2018-09-27T08:38:25Z</time>
      </trkpt>
      <trkpt lat="40.554486997425556" lon="14.240106828510761">
        <ele>41.950000000000003</ele>
        <time>2018-09-27T08:38:35Z</time>
      </trkpt>
      <trkpt lat="40.554403178393841" lon="14.240095345303416">
        <ele>42.920000000000002</ele>
        <time>2018-09-27T08:38:46Z</time>
      </trkpt>
      <trkpt lat="40.554324891418219" lon="14.240113701671362">
        <ele>44.359999999999999</ele>
        <time>2018-09-27T08:38:57Z</time>
      </trkpt>
      <trkpt lat="40.554243419319391" lon="14.240053351968527">
        <ele>45.32</ele>
        <time>2018-09-27T08:39:10Z</time>
      </trkpt>
      <trkpt lat="40.55418130941689" lon="14.239999372512102">
        <ele>46.280000000000001</ele>
        <time>2018-09-27T08:39:23Z</time>
      </trkpt>
      <trkpt lat="40.554140321910381" lon="14.239949081093073">
        <ele>47.240000000000002</ele>
        <time>2018-09-27T08:39:36Z</time>
      </trkpt>
      <trkpt lat="40.554076787084341" lon="14.239885630086064">
        <ele>49.159999999999997</ele>
        <time>2018-09-27T08:39:49Z</time>
      </trkpt>
      <trkpt lat="40.553992884233594" lon="14.239822430536151">
        <ele>50.130000000000003</ele>
        <time>2018-09-27T08:40:02Z</time>
      </trkpt>
      <trkpt lat="40.553905377164483" lon="14.239749005064368">
        <ele>52.049999999999997</ele>
        <time>2018-09-27T08:40:16Z</time>
      </trkpt>
      <trkpt lat="40.55381778627634" lon="14.239693600684404">
        <ele>53.490000000000002</ele>
        <time>2018-09-27T08:40:29Z</time>
      </trkpt>
      <trkpt lat="40.553717790171504" lon="14.239590167999268">
        <ele>53.969999999999999</ele>
        <time>2018-09-27T08:40:42Z</time>
      </trkpt>
      <trkpt lat="40.553693315014243" lon="14.239591592922807">
        <ele>54.450000000000003</ele>
        <time>2018-09-27T08:40:45Z</time>
      </trkpt>
      <trkpt lat="40.55365308187902" lon="14.23960885964334">
        <ele>54.93</ele>
        <time>2018-09-27T08:40:49Z</time>
      </trkpt>
      <trkpt lat="40.553530035540462" lon="14.239680105820298">
        <ele>55.890000000000001</ele>
        <time>2018-09-27T08:41:05Z</time>
      </trkpt>
      <trkpt lat="40.553432134911418" lon="14.239738024771214">
        <ele>57.340000000000003</ele>
        <time>2018-09-27T08:41:19Z</time>
      </trkpt>
      <trkpt lat="40.553343957290053" lon="14.23978915438056">
        <ele>58.299999999999997</ele>
        <time>2018-09-27T08:41:31Z</time>
      </trkpt>
      <trkpt lat="40.553304813802242" lon="14.239880768582225">
        <ele>59.740000000000002</ele>
        <time>2018-09-27T08:41:41Z</time>
      </trkpt>
      <trkpt lat="40.55328318849206" lon="14.239920331165195">
        <ele>60.219999999999999</ele>
        <time>2018-09-27T08:41:52Z</time>
      </trkpt>
      <trkpt lat="40.553242871537805" lon="14.239981854334474">
        <ele>61.659999999999997</ele>
        <time>2018-09-27T08:42:02Z</time>
      </trkpt>
      <trkpt lat="40.55321135558188" lon="14.240016303956509">
        <ele>62.619999999999997</ele>
        <time>2018-09-27T08:42:13Z</time>
      </trkpt>
      <trkpt lat="40.553182102739811" lon="14.240082520991564">
        <ele>64.549999999999997</ele>
        <time>2018-09-27T08:42:23Z</time>
      </trkpt>
      <trkpt lat="40.553179420530796" lon="14.240126274526119">
        <ele>65.030000000000001</ele>
        <time>2018-09-27T08:42:27Z</time>
      </trkpt>
      <trkpt lat="40.553196603432298" lon="14.240264324471354">
        <ele>67.430000000000007</ele>
        <time>2018-09-27T08:42:39Z</time>
      </trkpt>
      <trkpt lat="40.553191658109426" lon="14.240323165431619">
        <ele>68.390000000000001</ele>
        <time>2018-09-27T08:42:48Z</time>
      </trkpt>
      <trkpt lat="40.553175313398242" lon="14.240404134616256">
        <ele>69.829999999999998</ele>
        <time>2018-09-27T08:42:59Z</time>
      </trkpt>
      <trkpt lat="40.553150754421949" lon="14.240467501804233">
        <ele>71.269999999999996</ele>
        <time>2018-09-27T08:43:09Z</time>
      </trkpt>
      <trkpt lat="40.553117394447327" lon="14.240543274208903">
        <ele>73.200000000000003</ele>
        <time>2018-09-27T08:43:20Z</time>
      </trkpt>
      <trkpt lat="40.553094260394573" lon="14.240543358027935">
        <ele>73.200000000000003</ele>
        <time>2018-09-27T08:43:23Z</time>
      </trkpt>
      <trkpt lat="40.553032318130136" lon="14.240521816536784">
        <ele>74.159999999999997</ele>
        <time>2018-09-27T08:43:31Z</time>
      </trkpt>
      <trkpt lat="40.552954785525799" lon="14.240483092144132">
        <ele>75.599999999999994</ele>
        <time>2018-09-27T08:43:42Z</time>
      </trkpt>
      <trkpt lat="40.552862584590912" lon="14.240407068282366">
        <ele>76.560000000000002</ele>
        <time>2018-09-27T08:43:54Z</time>
      </trkpt>
      <trkpt lat="40.552744064480066" lon="14.240341270342469">
        <ele>78.480000000000004</ele>
        <time>2018-09-27T08:44:09Z</time>
      </trkpt>
      <trkpt lat="40.552708189934492" lon="14.240342611446977">
        <ele>78.480000000000004</ele>
        <time>2018-09-27T08:44:15Z</time>
      </trkpt>
      <trkpt lat="40.552657395601273" lon="14.240386113524437">
        <ele>79.450000000000003</ele>
        <time>2018-09-27T08:44:26Z</time>
      </trkpt>
      <trkpt lat="40.552606685087085" lon="14.240402039140463">
        <ele>80.409999999999997</ele>
        <time>2018-09-27T08:44:36Z</time>
      </trkpt>
      <trkpt lat="40.55251213721931" lon="14.240374797955155">
        <ele>82.329999999999998</ele>
        <time>2018-09-27T08:44:49Z</time>
      </trkpt>
      <trkpt lat="40.552470060065389" lon="14.240404218435287">
        <ele>83.769999999999996</ele>
        <time>2018-09-27T08:45:02Z</time>
      </trkpt>
      <trkpt lat="40.552456984296441" lon="14.240426933392882">
        <ele>86.659999999999997</ele>
        <time>2018-09-27T08:45:11Z</time>
      </trkpt>
      <trkpt lat="40.552418008446693" lon="14.240542436018586">
        <ele>86.180000000000007</ele>
        <time>2018-09-27T08:45:21Z</time>
      </trkpt>
      <trkpt lat="40.552380289882421" lon="14.240577053278685">
        <ele>87.140000000000001</ele>
        <time>2018-09-27T08:45:30Z</time>
      </trkpt>
      <trkpt lat="40.552320023998618" lon="14.240605719387531">
        <ele>89.540000000000006</ele>
        <time>2018-09-27T08:45:40Z</time>
      </trkpt>
      <trkpt lat="40.552278030663729" lon="14.240673528984189">
        <ele>90.980000000000004</ele>
        <time>2018-09-27T08:45:54Z</time>
      </trkpt>
      <trkpt lat="40.552195888012648" lon="14.240704122930765">
        <ele>92.420000000000002</ele>
        <time>2018-09-27T08:46:04Z</time>
      </trkpt>
      <trkpt lat="40.552138807252049" lon="14.240740835666656">
        <ele>93.870000000000005</ele>
        <time>2018-09-27T08:46:14Z</time>
      </trkpt>
      <trkpt lat="40.552064795047045" lon="14.240752905607224">
        <ele>95.790000000000006</ele>
        <time>2018-09-27T08:46:25Z</time>
      </trkpt>
      <trkpt lat="40.552017102017999" lon="14.240763550624251">
        <ele>97.230000000000004</ele>
        <time>2018-09-27T08:46:36Z</time>
      </trkpt>
      <trkpt lat="40.551885003224015" lon="14.24071753397584">
        <ele>99.150000000000006</ele>
        <time>2018-09-27T08:46:52Z</time>
      </trkpt>
      <trkpt lat="40.55181635543704" lon="14.240665230900049">
        <ele>100.59999999999999</ele>
        <time>2018-09-27T08:47:03Z</time>
      </trkpt>
      <trkpt lat="40.551746198907495" lon="14.240654334425926">
        <ele>102.52</ele>
        <time>2018-09-27T08:47:15Z</time>
      </trkpt>
      <trkpt lat="40.551689872518182" lon="14.240658693015575">
        <ele>103.95999999999999</ele>
        <time>2018-09-27T08:47:28Z</time>
      </trkpt>
      <trkpt lat="40.55165559053421" lon="14.240645952522755">
        <ele>104.44</ele>
        <time>2018-09-27T08:47:40Z</time>
      </trkpt>
      <trkpt lat="40.551620135083795" lon="14.240649724379182">
        <ele>104.92</ele>
        <time>2018-09-27T08:47:52Z</time>
      </trkpt>
      <trkpt lat="40.551557689905167" lon="14.240658525377512">
        <ele>106.84</ele>
        <time>2018-09-27T08:48:06Z</time>
      </trkpt>
      <trkpt lat="40.551559114828706" lon="14.240679144859314">
        <ele>107.31999999999999</ele>
        <time>2018-09-27T08:48:21Z</time>
      </trkpt>
      <trkpt lat="40.55150262080133" lon="14.240749971941113">
        <ele>108.29000000000001</ele>
        <time>2018-09-27T08:48:31Z</time>
      </trkpt>
      <trkpt lat="40.551460040733218" lon="14.240753492340446">
        <ele>109.25</ele>
        <time>2018-09-27T08:48:36Z</time>
      </trkpt>
      <trkpt lat="40.551321404054761" lon="14.240730693563819">
        <ele>111.17</ele>
        <time>2018-09-27T08:48:50Z</time>
      </trkpt>
      <trkpt lat="40.551291145384312" lon="14.240742679685354">
        <ele>111.65000000000001</ele>
        <time>2018-09-27T08:48:56Z</time>
      </trkpt>
      <trkpt lat="40.551246972754598" lon="14.240845944732428">
        <ele>113.09</ele>
        <time>2018-09-27T08:49:07Z</time>
      </trkpt>
      <trkpt lat="40.551190730184317" lon="14.24090813845396">
        <ele>114.53</ele>
        <time>2018-09-27T08:49:17Z</time>
      </trkpt>
      <trkpt lat="40.551145300269127" lon="14.240967314690351">
        <ele>115.5</ele>
        <time>2018-09-27T08:49:26Z</time>
      </trkpt>
      <trkpt lat="40.551087884232402" lon="14.241050966084003">
        <ele>117.42</ele>
        <time>2018-09-27T08:49:37Z</time>
      </trkpt>
      <trkpt lat="40.551013620570302" lon="14.241155572235584">
        <ele>118.86</ele>
        <time>2018-09-27T08:49:51Z</time>
      </trkpt>
      <trkpt lat="40.550953606143594" lon="14.241198906674981">
        <ele>120.3</ele>
        <time>2018-09-27T08:50:01Z</time>
      </trkpt>
      <trkpt lat="40.550868194550276" lon="14.241223968565464">
        <ele>121.73999999999999</ele>
        <time>2018-09-27T08:50:14Z</time>
      </trkpt>
      <trkpt lat="40.550782531499863" lon="14.241240983828902">
        <ele>123.67</ele>
        <time>2018-09-27T08:50:27Z</time>
      </trkpt>
      <trkpt lat="40.550693599507213" lon="14.241259675472975">
        <ele>125.59</ele>
        <time>2018-09-27T08:50:41Z</time>
      </trkpt>
      <trkpt lat="40.550594525411725" lon="14.241283731535077">
        <ele>127.51000000000001</ele>
        <time>2018-09-27T08:50:55Z</time>
      </trkpt>
      <trkpt lat="40.550547586753964" lon="14.241353468969464">
        <ele>128.94999999999999</ele>
        <time>2018-09-27T08:51:07Z</time>
      </trkpt>
      <trkpt lat="40.550517663359642" lon="14.241429828107357">
        <ele>130.40000000000001</ele>
        <time>2018-09-27T08:51:19Z</time>
      </trkpt>
      <trkpt lat="40.55049997754395" lon="14.241470228880644">
        <ele>130.88</ele>
        <time>2018-09-27T08:51:26Z</time>
      </trkpt>
      <trkpt lat="40.550493942573667" lon="14.241389678791165">
        <ele>131.84</ele>
        <time>2018-09-27T08:51:37Z</time>
      </trkpt>
      <trkpt lat="40.550474328920245" lon="14.241264117881656">
        <ele>132.80000000000001</ele>
        <time>2018-09-27T08:51:49Z</time>
      </trkpt>
      <trkpt lat="40.550417667254806" lon="14.241193793714046">
        <ele>133.75999999999999</ele>
        <time>2018-09-27T08:51:59Z</time>
      </trkpt>
      <trkpt lat="40.550351785495877" lon="14.24108549952507">
        <ele>134.72</ele>
        <time>2018-09-27T08:52:11Z</time>
      </trkpt>
      <trkpt lat="40.55032555013895" lon="14.241002015769482">
        <ele>135.19999999999999</ele>
        <time>2018-09-27T08:52:22Z</time>
      </trkpt>
      <trkpt lat="40.550292944535613" lon="14.240884752944112">
        <ele>136.16</ele>
        <time>2018-09-27T08:52:33Z</time>
      </trkpt>
      <trkpt lat="40.550293447449803" lon="14.240785846486688">
        <ele>136.63999999999999</ele>
        <time>2018-09-27T08:52:40Z</time>
      </trkpt>
      <trkpt lat="40.550248771905899" lon="14.240559786558151">
        <ele>136.63999999999999</ele>
        <time>2018-09-27T08:52:56Z</time>
      </trkpt>
      <trkpt lat="40.5502072814852" lon="14.240485187619925">
        <ele>137.61000000000001</ele>
        <time>2018-09-27T08:53:08Z</time>
      </trkpt>
      <trkpt lat="40.550159001722932" lon="14.24040631391108">
        <ele>140.00999999999999</ele>
        <time>2018-09-27T08:53:23Z</time>
      </trkpt>
      <trkpt lat="40.550130000337958" lon="14.24033934250474">
        <ele>140.49000000000001</ele>
        <time>2018-09-27T08:53:34Z</time>
      </trkpt>
      <trkpt lat="40.550122708082199" lon="14.240323333069682">
        <ele>141.44999999999999</ele>
        <time>2018-09-27T08:53:37Z</time>
      </trkpt>
      <trkpt lat="40.550082726404071" lon="14.240182684734464">
        <ele>142.41</ele>
        <time>2018-09-27T08:53:50Z</time>
      </trkpt>
      <trkpt lat="40.550066381692886" lon="14.240103559568524">
        <ele>143.37</ele>
        <time>2018-09-27T08:54:03Z</time>
      </trkpt>
      <trkpt lat="40.550039894878864" lon="14.240043964236975">
        <ele>144.81999999999999</ele>
        <time>2018-09-27T08:54:15Z</time>
      </trkpt>
      <trkpt lat="40.5500294174999" lon="14.239930976182222">
        <ele>146.25999999999999</ele>
        <time>2018-09-27T08:54:27Z</time>
      </trkpt>
      <trkpt lat="40.550014832988381" lon="14.239784711971879">
        <ele>147.69999999999999</ele>
        <time>2018-09-27T08:54:41Z</time>
      </trkpt>
      <trkpt lat="40.550002176314592" lon="14.239733917638659">
        <ele>147.69999999999999</ele>
        <time>2018-09-27T08:54:52Z</time>
      </trkpt>
      <trkpt lat="40.550006870180368" lon="14.239660408347845">
        <ele>148.66</ele>
        <time>2018-09-27T08:55:02Z</time>
      </trkpt>
      <trkpt lat="40.550006031990051" lon="14.239528980106115">
        <ele>148.66</ele>
        <time>2018-09-27T08:55:16Z</time>
      </trkpt>
      <trkpt lat="40.549996644258499" lon="14.23941632732749">
        <ele>148.18000000000001</ele>
        <time>2018-09-27T08:55:28Z</time>
      </trkpt>
      <trkpt lat="40.549979461356997" lon="14.239249778911471">
        <ele>148.18000000000001</ele>
        <time>2018-09-27T08:55:41Z</time>
      </trkpt>
      <trkpt lat="40.549960937350988" lon="14.239212060347199">
        <ele>147.69999999999999</ele>
        <time>2018-09-27T08:55:48Z</time>
      </trkpt>
      <trkpt lat="40.549921961501241" lon="14.239190937951207">
        <ele>147.69999999999999</ele>
        <time>2018-09-27T08:55:52Z</time>
      </trkpt>
      <trkpt lat="40.549885081127286" lon="14.23906403593719">
        <ele>148.18000000000001</ele>
        <time>2018-09-27T08:56:04Z</time>
      </trkpt>
      <trkpt lat="40.549882566556334" lon="14.239053726196289">
        <ele>147.69999999999999</ele>
        <time>2018-09-27T08:56:05Z</time>
      </trkpt>
      <trkpt lat="40.549856834113598" lon="14.238895140588284">
        <ele>147.22</ele>
        <time>2018-09-27T08:56:17Z</time>
      </trkpt>
      <trkpt lat="40.549858845770359" lon="14.238758599385619">
        <ele>146.74000000000001</ele>
        <time>2018-09-27T08:56:29Z</time>
      </trkpt>
      <trkpt lat="40.549868233501911" lon="14.23873764462769">
        <ele>146.74000000000001</ele>
        <time>2018-09-27T08:56:31Z</time>
      </trkpt>
      <trkpt lat="40.549823641777039" lon="14.238570593297482">
        <ele>146.74000000000001</ele>
        <time>2018-09-27T08:56:42Z</time>
      </trkpt>
      <trkpt lat="40.549809643998742" lon="14.238431788980961">
        <ele>145.78</ele>
        <time>2018-09-27T08:56:53Z</time>
      </trkpt>
      <trkpt lat="40.549842668697238" lon="14.238272113725543">
        <ele>145.30000000000001</ele>
        <time>2018-09-27T08:57:06Z</time>
      </trkpt>
      <trkpt lat="40.549784665927291" lon="14.2381258495152">
        <ele>145.78</ele>
        <time>2018-09-27T08:57:14Z</time>
      </trkpt>
      <trkpt lat="40.549785923212767" lon="14.237879253923893">
        <ele>145.30000000000001</ele>
        <time>2018-09-27T08:57:29Z</time>
      </trkpt>
      <trkpt lat="40.549793215468526" lon="14.237689655274153">
        <ele>144.81999999999999</ele>
        <time>2018-09-27T08:57:41Z</time>
      </trkpt>
      <trkpt lat="40.549765471369028" lon="14.237497793510556">
        <ele>144.81999999999999</ele>
        <time>2018-09-27T08:57:55Z</time>
      </trkpt>
      <trkpt lat="40.54976312443614" lon="14.237440377473831">
        <ele>144.81999999999999</ele>
        <time>2018-09-27T08:58:06Z</time>
      </trkpt>
      <trkpt lat="40.549773350358009" lon="14.237399389967322">
        <ele>144.34</ele>
        <time>2018-09-27T08:58:20Z</time>
      </trkpt>
      <trkpt lat="40.549775362014771" lon="14.237349601462483">
        <ele>143.84999999999999</ele>
        <time>2018-09-27T08:58:34Z</time>
      </trkpt>
      <trkpt lat="40.549783995375037" lon="14.237324288114905">
        <ele>143.84999999999999</ele>
        <time>2018-09-27T08:58:38Z</time>
      </trkpt>
      <trkpt lat="40.549807380884886" lon="14.237206103280187">
        <ele>143.84999999999999</ele>
        <time>2018-09-27T08:58:47Z</time>
      </trkpt>
      <trkpt lat="40.54979782551527" lon="14.237135360017419">
        <ele>143.37</ele>
        <time>2018-09-27T08:58:52Z</time>
      </trkpt>
      <trkpt lat="40.549768907949328" lon="14.236978031694889">
        <ele>142.88999999999999</ele>
        <time>2018-09-27T08:59:04Z</time>
      </trkpt>
      <trkpt lat="40.549756838008761" lon="14.23693603836">
        <ele>142.88999999999999</ele>
        <time>2018-09-27T08:59:08Z</time>
      </trkpt>
      <trkpt lat="40.549741834402084" lon="14.236922292038798">
        <ele>142.88999999999999</ele>
        <time>2018-09-27T08:59:10Z</time>
      </trkpt>
      <trkpt lat="40.549694560468197" lon="14.236810896545649">
        <ele>142.88999999999999</ele>
        <time>2018-09-27T08:59:23Z</time>
      </trkpt>
      <trkpt lat="40.54968886077404" lon="14.236711403355002">
        <ele>143.84999999999999</ele>
        <time>2018-09-27T08:59:34Z</time>
      </trkpt>
      <trkpt lat="40.54968492127955" lon="14.236623728647828">
        <ele>144.34</ele>
        <time>2018-09-27T08:59:47Z</time>
      </trkpt>
      <trkpt lat="40.549672599881887" lon="14.236511997878551">
        <ele>144.81999999999999</ele>
        <time>2018-09-27T09:00:01Z</time>
      </trkpt>
      <trkpt lat="40.549649884924293" lon="14.236461455002427">
        <ele>144.81999999999999</ele>
        <time>2018-09-27T09:00:05Z</time>
      </trkpt>
      <trkpt lat="40.549694057554007" lon="14.236310664564371">
        <ele>145.30000000000001</ele>
        <time>2018-09-27T09:00:17Z</time>
      </trkpt>
      <trkpt lat="40.549736972898245" lon="14.236221481114626">
        <ele>146.74000000000001</ele>
        <time>2018-09-27T09:00:29Z</time>
      </trkpt>
      <trkpt lat="40.549749126657844" lon="14.236042192205787">
        <ele>149.13999999999999</ele>
        <time>2018-09-27T09:00:42Z</time>
      </trkpt>
      <trkpt lat="40.549743762239814" lon="14.23593976534903">
        <ele>150.09999999999999</ele>
        <time>2018-09-27T09:00:51Z</time>
      </trkpt>
      <trkpt lat="40.549724148586392" lon="14.235923839733005">
        <ele>150.09999999999999</ele>
        <time>2018-09-27T09:00:53Z</time>
      </trkpt>
      <trkpt lat="40.549700176343322" lon="14.235750669613481">
        <ele>150.58000000000001</ele>
        <time>2018-09-27T09:01:06Z</time>
      </trkpt>
      <trkpt lat="40.549753317609429" lon="14.235707418993115">
        <ele>152.03</ele>
        <time>2018-09-27T09:01:17Z</time>
      </trkpt>
      <trkpt lat="40.549806039780378" lon="14.235690571367741">
        <ele>153.47</ele>
        <time>2018-09-27T09:01:26Z</time>
      </trkpt>
      <trkpt lat="40.54989161901176" lon="14.235622845590115">
        <ele>155.87</ele>
        <time>2018-09-27T09:01:38Z</time>
      </trkpt>
      <trkpt lat="40.549934366717935" lon="14.235561657696962">
        <ele>157.31</ele>
        <time>2018-09-27T09:01:46Z</time>
      </trkpt>
      <trkpt lat="40.549980802461505" lon="14.235481275245547">
        <ele>159.24000000000001</ele>
        <time>2018-09-27T09:01:57Z</time>
      </trkpt>
      <trkpt lat="40.550025226548314" lon="14.23546333797276">
        <ele>160.19999999999999</ele>
        <time>2018-09-27T09:02:11Z</time>
      </trkpt>
      <trkpt lat="40.550075098872185" lon="14.235427631065249">
        <ele>160.68000000000001</ele>
        <time>2018-09-27T09:02:33Z</time>
      </trkpt>
      <trkpt lat="40.550110219046474" lon="14.235367868095636">
        <ele>162.59999999999999</ele>
        <time>2018-09-27T09:02:50Z</time>
      </trkpt>
      <trkpt lat="40.550088342279196" lon="14.235332915559411">
        <ele>163.56</ele>
        <time>2018-09-27T09:02:54Z</time>
      </trkpt>
      <trkpt lat="40.550008965656161" lon="14.235188579186797">
        <ele>165</ele>
        <time>2018-09-27T09:03:08Z</time>
      </trkpt>
      <trkpt lat="40.550006534904242" lon="14.235213808715343">
        <ele>165</ele>
        <time>2018-09-27T09:03:23Z</time>
      </trkpt>
      <trkpt lat="40.549985747784376" lon="14.235186735168099">
        <ele>165</ele>
        <time>2018-09-27T09:03:26Z</time>
      </trkpt>
      <trkpt lat="40.549955237656832" lon="14.23518531024456">
        <ele>165</ele>
        <time>2018-09-27T09:03:29Z</time>
      </trkpt>
      <trkpt lat="40.549903018400073" lon="14.235108280554414">
        <ele>165.47999999999999</ele>
        <time>2018-09-27T09:03:36Z</time>
      </trkpt>
      <trkpt lat="40.549848116934299" lon="14.234951119869947">
        <ele>165.96000000000001</ele>
        <time>2018-09-27T09:03:50Z</time>
      </trkpt>
      <trkpt lat="40.549823055043817" lon="14.23488381318748">
        <ele>167.88999999999999</ele>
        <time>2018-09-27T09:04:01Z</time>
      </trkpt>
      <trkpt lat="40.549804698675871" lon="14.23482371494174">
        <ele>168.84999999999999</ele>
        <time>2018-09-27T09:04:05Z</time>
      </trkpt>
      <trkpt lat="40.549797574058175" lon="14.234715756028891">
        <ele>171.25</ele>
        <time>2018-09-27T09:04:15Z</time>
      </trkpt>
      <trkpt lat="40.549792377278209" lon="14.23466395586729">
        <ele>173.66</ele>
        <time>2018-09-27T09:04:25Z</time>
      </trkpt>
      <trkpt lat="40.549858342856169" lon="14.234710223972797">
        <ele>175.58000000000001</ele>
        <time>2018-09-27T09:04:38Z</time>
      </trkpt>
      <trkpt lat="40.549951381981373" lon="14.234713576734066">
        <ele>178.46000000000001</ele>
        <time>2018-09-27T09:04:55Z</time>
      </trkpt>
      <trkpt lat="40.549976108595729" lon="14.234644342213869">
        <ele>181.83000000000001</ele>
        <time>2018-09-27T09:05:10Z</time>
      </trkpt>
      <trkpt lat="40.549967307597399" lon="14.234602013602853">
        <ele>184.22999999999999</ele>
        <time>2018-09-27T09:05:20Z</time>
      </trkpt>
      <trkpt lat="40.549957919865847" lon="14.234590111300349">
        <ele>185.19</ele>
        <time>2018-09-27T09:05:22Z</time>
      </trkpt>
      <trkpt lat="40.54991994984448" lon="14.234587848186493">
        <ele>186.15000000000001</ele>
        <time>2018-09-27T09:05:27Z</time>
      </trkpt>
      <trkpt lat="40.549822216853499" lon="14.234511237591505">
        <ele>186.63</ele>
        <time>2018-09-27T09:05:36Z</time>
      </trkpt>
      <trkpt lat="40.549773266538978" lon="14.234462203457952">
        <ele>187.59</ele>
        <time>2018-09-27T09:05:48Z</time>
      </trkpt>
      <trkpt lat="40.549789695069194" lon="14.234437728300691">
        <ele>187.11000000000001</ele>
        <time>2018-09-27T09:06:07Z</time>
      </trkpt>
      <trkpt lat="40.549772176891565" lon="14.234434207901359">
        <ele>187.11000000000001</ele>
        <time>2018-09-27T09:06:22Z</time>
      </trkpt>
      <trkpt lat="40.549777457490563" lon="14.234432615339756">
        <ele>187.11000000000001</ele>
        <time>2018-09-27T09:06:44Z</time>
      </trkpt>
      <trkpt lat="40.54975725710392" lon="14.234469747170806">
        <ele>186.63</ele>
        <time>2018-09-27T09:07:12Z</time>
      </trkpt>
      <trkpt lat="40.54975776001811" lon="14.23446605913341">
        <ele>186.63</ele>
        <time>2018-09-27T09:07:36Z</time>
      </trkpt>
      <trkpt lat="40.549756083637476" lon="14.234422389417887">
        <ele>186.63</ele>
        <time>2018-09-27T09:07:58Z</time>
      </trkpt>
      <trkpt lat="40.549718448892236" lon="14.234414426609874">
        <ele>186.63</ele>
        <time>2018-09-27T09:08:23Z</time>
      </trkpt>
      <trkpt lat="40.549673605710268" lon="14.234347036108375">
        <ele>188.56</ele>
        <time>2018-09-27T09:08:34Z</time>
      </trkpt>
      <trkpt lat="40.549653489142656" lon="14.234317699447274">
        <ele>189.52000000000001</ele>
        <time>2018-09-27T09:08:46Z</time>
      </trkpt>
      <trkpt lat="40.549603784456849" lon="14.234271682798862">
        <ele>191.44</ele>
        <time>2018-09-27T09:08:55Z</time>
      </trkpt>
      <trkpt lat="40.54951292462647" lon="14.2341591976583">
        <ele>193.36000000000001</ele>
        <time>2018-09-27T09:09:11Z</time>
      </trkpt>
      <trkpt lat="40.549551816657186" lon="14.234118210151792">
        <ele>196.72999999999999</ele>
        <time>2018-09-27T09:09:23Z</time>
      </trkpt>
      <trkpt lat="40.549546033143997" lon="14.234071774408221">
        <ele>196.25</ele>
        <time>2018-09-27T09:09:33Z</time>
      </trkpt>
      <trkpt lat="40.549578974023461" lon="14.23406146466732">
        <ele>196.25</ele>
        <time>2018-09-27T09:09:44Z</time>
      </trkpt>
      <trkpt lat="40.549561120569706" lon="14.23405023291707">
        <ele>198.65000000000001</ele>
        <time>2018-09-27T09:09:48Z</time>
      </trkpt>
      <trkpt lat="40.54949632845819" lon="14.233931042253971">
        <ele>201.05000000000001</ele>
        <time>2018-09-27T09:10:03Z</time>
      </trkpt>
      <trkpt lat="40.549452491104603" lon="14.233835991472006">
        <ele>202.97999999999999</ele>
        <time>2018-09-27T09:10:14Z</time>
      </trkpt>
      <trkpt lat="40.549462549388409" lon="14.233816042542458">
        <ele>204.41999999999999</ele>
        <time>2018-09-27T09:10:23Z</time>
      </trkpt>
      <trkpt lat="40.549492137506604" lon="14.23379760235548">
        <ele>205.38</ele>
        <time>2018-09-27T09:10:34Z</time>
      </trkpt>
      <trkpt lat="40.549526670947671" lon="14.233799865469337">
        <ele>207.30000000000001</ele>
        <time>2018-09-27T09:10:45Z</time>
      </trkpt>
      <trkpt lat="40.549592804163694" lon="14.233767595142126">
        <ele>209.22</ele>
        <time>2018-09-27T09:10:59Z</time>
      </trkpt>
      <trkpt lat="40.549651142209768" lon="14.233753681182861">
        <ele>211.63</ele>
        <time>2018-09-27T09:11:10Z</time>
      </trkpt>
      <trkpt lat="40.549738984555006" lon="14.233718561008573">
        <ele>212.59</ele>
        <time>2018-09-27T09:11:21Z</time>
      </trkpt>
      <trkpt lat="40.549831269308925" lon="14.233736582100391">
        <ele>214.03</ele>
        <time>2018-09-27T09:11:34Z</time>
      </trkpt>
      <trkpt lat="40.549936126917601" lon="14.233685284852982">
        <ele>214.03</ele>
        <time>2018-09-27T09:11:45Z</time>
      </trkpt>
      <trkpt lat="40.550010139122605" lon="14.233580846339464">
        <ele>214.99000000000001</ele>
        <time>2018-09-27T09:11:59Z</time>
      </trkpt>
      <trkpt lat="40.550038302317262" lon="14.233506163582206">
        <ele>216.43000000000001</ele>
        <time>2018-09-27T09:12:08Z</time>
      </trkpt>
      <trkpt lat="40.55009831674397" lon="14.233449921011925">
        <ele>217.88</ele>
        <time>2018-09-27T09:12:18Z</time>
      </trkpt>
      <trkpt lat="40.550148440524936" lon="14.233418740332127">
        <ele>217.88</ele>
        <time>2018-09-27T09:12:26Z</time>
      </trkpt>
      <trkpt lat="40.55024977773428" lon="14.233410023152828">
        <ele>217.40000000000001</ele>
        <time>2018-09-27T09:12:37Z</time>
      </trkpt>
      <trkpt lat="40.550262769684196" lon="14.233430055901408">
        <ele>217.40000000000001</ele>
        <time>2018-09-27T09:12:47Z</time>
      </trkpt>
      <trkpt lat="40.550290681421757" lon="14.233490070328116">
        <ele>216.91</ele>
        <time>2018-09-27T09:12:58Z</time>
      </trkpt>
      <trkpt lat="40.550292190164328" lon="14.233487891033292">
        <ele>216.91</ele>
        <time>2018-09-27T09:13:16Z</time>
      </trkpt>
      <trkpt lat="40.550249274820089" lon="14.233516557142138">
        <ele>215.94999999999999</ele>
        <time>2018-09-27T09:13:32Z</time>
      </trkpt>
      <trkpt lat="40.550256064161658" lon="14.233508091419935">
        <ele>215.94999999999999</ele>
        <time>2018-09-27T09:13:45Z</time>
      </trkpt>
      <trkpt lat="40.550240306183696" lon="14.233438018709421">
        <ele>216.91</ele>
        <time>2018-09-27T09:13:55Z</time>
      </trkpt>
      <trkpt lat="40.550230583176017" lon="14.23343600705266">
        <ele>217.40000000000001</ele>
        <time>2018-09-27T09:14:09Z</time>
      </trkpt>
      <trkpt lat="40.55023561231792" lon="14.233433827757835">
        <ele>216.43000000000001</ele>
        <time>2018-09-27T09:14:23Z</time>
      </trkpt>
      <trkpt lat="40.550251537933946" lon="14.233410023152828">
        <ele>217.40000000000001</ele>
        <time>2018-09-27T09:14:34Z</time>
      </trkpt>
      <trkpt lat="40.550250951200724" lon="14.233426284044981">
        <ele>217.40000000000001</ele>
        <time>2018-09-27T09:14:54Z</time>
      </trkpt>
      <trkpt lat="40.550257824361324" lon="14.233415890485048">
        <ele>217.88</ele>
        <time>2018-09-27T09:15:09Z</time>
      </trkpt>
      <trkpt lat="40.550251370295882" lon="14.233439778909087">
        <ele>216.91</ele>
        <time>2018-09-27T09:15:24Z</time>
      </trkpt>
      <trkpt lat="40.550247095525265" lon="14.233439611271024">
        <ele>216.91</ele>
        <time>2018-09-27T09:15:39Z</time>
      </trkpt>
      <trkpt lat="40.550258746370673" lon="14.233428128063679">
        <ele>216.91</ele>
        <time>2018-09-27T09:15:54Z</time>
      </trkpt>
      <trkpt lat="40.55026151239872" lon="14.233434246852994">
        <ele>216.91</ele>
        <time>2018-09-27T09:16:07Z</time>
      </trkpt>
      <trkpt lat="40.550246592611074" lon="14.233457716181874">
        <ele>216.91</ele>
        <time>2018-09-27T09:16:24Z</time>
      </trkpt>
      <trkpt lat="40.55024977773428" lon="14.233439192175865">
        <ele>217.40000000000001</ele>
        <time>2018-09-27T09:16:45Z</time>
      </trkpt>
      <trkpt lat="40.550247179344296" lon="14.233451848849654">
        <ele>216.91</ele>
        <time>2018-09-27T09:17:01Z</time>
      </trkpt>
      <trkpt lat="40.55024491623044" lon="14.233459895476699">
        <ele>216.91</ele>
        <time>2018-09-27T09:17:16Z</time>
      </trkpt>
      <trkpt lat="40.550237707793713" lon="14.233475401997566">
        <ele>217.40000000000001</ele>
        <time>2018-09-27T09:17:36Z</time>
      </trkpt>
      <trkpt lat="40.550238210707903" lon="14.233473474159837">
        <ele>217.40000000000001</ele>
        <time>2018-09-27T09:17:53Z</time>
      </trkpt>
      <trkpt lat="40.550245251506567" lon="14.233453776687384">
        <ele>217.40000000000001</ele>
        <time>2018-09-27T09:18:09Z</time>
      </trkpt>
      <trkpt lat="40.550254471600056" lon="14.233437264338136">
        <ele>217.40000000000001</ele>
        <time>2018-09-27T09:18:24Z</time>
      </trkpt>
      <trkpt lat="40.550241060554981" lon="14.23344480805099">
        <ele>217.88</ele>
        <time>2018-09-27T09:18:39Z</time>
      </trkpt>
      <trkpt lat="40.550281209871173" lon="14.233425781130791">
        <ele>217.88</ele>
        <time>2018-09-27T09:18:58Z</time>
      </trkpt>
      <trkpt lat="40.550268972292542" lon="14.233429050073028">
        <ele>217.88</ele>
        <time>2018-09-27T09:19:13Z</time>
      </trkpt>
      <trkpt lat="40.550275091081858" lon="14.233410861343145">
        <ele>217.88</ele>
        <time>2018-09-27T09:19:30Z</time>
      </trkpt>
      <trkpt lat="40.550262685865164" lon="14.23342821188271">
        <ele>217.88</ele>
        <time>2018-09-27T09:19:47Z</time>
      </trkpt>
      <trkpt lat="40.550227481871843" lon="14.233464170247316">
        <ele>218.36000000000001</ele>
        <time>2018-09-27T09:20:05Z</time>
      </trkpt>
      <trkpt lat="40.55021901614964" lon="14.233447825536132">
        <ele>218.36000000000001</ele>
        <time>2018-09-27T09:20:26Z</time>
      </trkpt>
      <trkpt lat="40.550213735550642" lon="14.233434414491057">
        <ele>218.84</ele>
        <time>2018-09-27T09:20:35Z</time>
      </trkpt>
      <trkpt lat="40.550226056948304" lon="14.233440700918436">
        <ele>218.36000000000001</ele>
        <time>2018-09-27T09:21:01Z</time>
      </trkpt>
      <trkpt lat="40.550217339769006" lon="14.233453273773193">
        <ele>218.84</ele>
        <time>2018-09-27T09:21:29Z</time>
      </trkpt>
      <trkpt lat="40.550220608711243" lon="14.233465008437634">
        <ele>218.36000000000001</ele>
        <time>2018-09-27T09:21:55Z</time>
      </trkpt>
      <trkpt lat="40.550182051956654" lon="14.233464505523443">
        <ele>218.36000000000001</ele>
        <time>2018-09-27T09:22:06Z</time>
      </trkpt>
      <trkpt lat="40.550158834084868" lon="14.233461068943143">
        <ele>218.84</ele>
        <time>2018-09-27T09:22:16Z</time>
      </trkpt>
      <trkpt lat="40.550150452181697" lon="14.233426200225949">
        <ele>219.80000000000001</ele>
        <time>2018-09-27T09:22:26Z</time>
      </trkpt>
      <trkpt lat="40.550151374191046" lon="14.233362413942814">
        <ele>221.72</ele>
        <time>2018-09-27T09:22:37Z</time>
      </trkpt>
      <trkpt lat="40.550165623426437" lon="14.233336430042982">
        <ele>222.68000000000001</ele>
        <time>2018-09-27T09:22:46Z</time>
      </trkpt>
      <trkpt lat="40.550177861005068" lon="14.233241127803922">
        <ele>224.12</ele>
        <time>2018-09-27T09:23:00Z</time>
      </trkpt>
      <trkpt lat="40.55019948631525" lon="14.23313744366169">
        <ele>225.09</ele>
        <time>2018-09-27T09:23:13Z</time>
      </trkpt>
      <trkpt lat="40.550205940380692" lon="14.233049182221293">
        <ele>225.09</ele>
        <time>2018-09-27T09:23:24Z</time>
      </trkpt>
      <trkpt lat="40.550222368910909" lon="14.232982378453016">
        <ele>226.05000000000001</ele>
        <time>2018-09-27T09:23:32Z</time>
      </trkpt>
      <trkpt lat="40.55023267865181" lon="14.232884142547846">
        <ele>228.44999999999999</ele>
        <time>2018-09-27T09:23:44Z</time>
      </trkpt>
      <trkpt lat="40.55024491623044" lon="14.232808789238334">
        <ele>230.37</ele>
        <time>2018-09-27T09:23:56Z</time>
      </trkpt>
      <trkpt lat="40.550263859331608" lon="14.232751876115799">
        <ele>231.81</ele>
        <time>2018-09-27T09:24:07Z</time>
      </trkpt>
      <trkpt lat="40.550276767462492" lon="14.232688508927822">
        <ele>233.74000000000001</ele>
        <time>2018-09-27T09:24:19Z</time>
      </trkpt>
      <trkpt lat="40.550289005041122" lon="14.232602175325155">
        <ele>235.18000000000001</ele>
        <time>2018-09-27T09:24:31Z</time>
      </trkpt>
      <trkpt lat="40.550336614251137" lon="14.232509136199951">
        <ele>236.13999999999999</ele>
        <time>2018-09-27T09:24:42Z</time>
      </trkpt>
      <trkpt lat="40.550425378605723" lon="14.232459012418985">
        <ele>236.62</ele>
        <time>2018-09-27T09:24:54Z</time>
      </trkpt>
      <trkpt lat="40.550499726086855" lon="14.232380725443363">
        <ele>237.58000000000001</ele>
        <time>2018-09-27T09:25:05Z</time>
      </trkpt>
      <trkpt lat="40.550587149336934" lon="14.232285423204303">
        <ele>237.58000000000001</ele>
        <time>2018-09-27T09:25:18Z</time>
      </trkpt>
      <trkpt lat="40.55060843937099" lon="14.23222666606307">
        <ele>239.50999999999999</ele>
        <time>2018-09-27T09:25:29Z</time>
      </trkpt>
      <trkpt lat="40.550668034702539" lon="14.232150223106146">
        <ele>238.06</ele>
        <time>2018-09-27T09:25:40Z</time>
      </trkpt>
      <trkpt lat="40.550738107413054" lon="14.23212306573987">
        <ele>239.02000000000001</ele>
        <time>2018-09-27T09:25:51Z</time>
      </trkpt>
      <trkpt lat="40.550796696916223" lon="14.232092555612326">
        <ele>239.99000000000001</ele>
        <time>2018-09-27T09:26:02Z</time>
      </trkpt>
      <trkpt lat="40.550851179286838" lon="14.232066655531526">
        <ele>240.47</ele>
        <time>2018-09-27T09:26:13Z</time>
      </trkpt>
      <trkpt lat="40.550907673314214" lon="14.232006892561913">
        <ele>241.43000000000001</ele>
        <time>2018-09-27T09:26:26Z</time>
      </trkpt>
      <trkpt lat="40.550995515659451" lon="14.231920475140214">
        <ele>242.38999999999999</ele>
        <time>2018-09-27T09:26:37Z</time>
      </trkpt>
      <trkpt lat="40.551095176488161" lon="14.231861717998981">
        <ele>242.38999999999999</ele>
        <time>2018-09-27T09:26:48Z</time>
      </trkpt>
      <trkpt lat="40.551177319139242" lon="14.231792567297816">
        <ele>243.83000000000001</ele>
        <time>2018-09-27T09:27:02Z</time>
      </trkpt>
      <trkpt lat="40.551234651356936" lon="14.231729619204998">
        <ele>245.27000000000001</ele>
        <time>2018-09-27T09:27:14Z</time>
      </trkpt>
      <trkpt lat="40.551267927512527" lon="14.231681423261762">
        <ele>246.72</ele>
        <time>2018-09-27T09:27:27Z</time>
      </trkpt>
      <trkpt lat="40.55133456364274" lon="14.231617888435721">
        <ele>248.16</ele>
        <time>2018-09-27T09:27:41Z</time>
      </trkpt>
      <trkpt lat="40.551404887810349" lon="14.231648147106171">
        <ele>248.16</ele>
        <time>2018-09-27T09:27:50Z</time>
      </trkpt>
      <trkpt lat="40.55144838988781" lon="14.231582432985306">
        <ele>250.08000000000001</ele>
        <time>2018-09-27T09:28:04Z</time>
      </trkpt>
      <trkpt lat="40.551524916663766" lon="14.231524178758264">
        <ele>251.52000000000001</ele>
        <time>2018-09-27T09:28:17Z</time>
      </trkpt>
      <trkpt lat="40.551580153405666" lon="14.231440108269453">
        <ele>252.96000000000001</ele>
        <time>2018-09-27T09:28:30Z</time>
      </trkpt>
      <trkpt lat="40.5516492202878" lon="14.231401802971959">
        <ele>253.93000000000001</ele>
        <time>2018-09-27T09:28:42Z</time>
      </trkpt>
      <trkpt lat="40.55169322527945" lon="14.23134027980268">
        <ele>255.37</ele>
        <time>2018-09-27T09:28:55Z</time>
      </trkpt>
      <trkpt lat="40.551732117310166" lon="14.231305494904518">
        <ele>256.32999999999998</ele>
        <time>2018-09-27T09:29:06Z</time>
      </trkpt>
      <trkpt lat="40.551780480891466" lon="14.231265429407358">
        <ele>257.76999999999998</ele>
        <time>2018-09-27T09:29:18Z</time>
      </trkpt>
      <trkpt lat="40.55183932185173" lon="14.231222178786993">
        <ele>257.29000000000002</ele>
        <time>2018-09-27T09:29:30Z</time>
      </trkpt>
      <trkpt lat="40.551855666562915" lon="14.231238439679146">
        <ele>257.29000000000002</ele>
        <time>2018-09-27T09:29:54Z</time>
      </trkpt>
      <trkpt lat="40.551838399842381" lon="14.231257550418377">
        <ele>256.81</ele>
        <time>2018-09-27T09:30:07Z</time>
      </trkpt>
      <trkpt lat="40.55179581977427" lon="14.231235841289163">
        <ele>258.73000000000002</ele>
        <time>2018-09-27T09:30:19Z</time>
      </trkpt>
      <trkpt lat="40.551832197234035" lon="14.231159901246428">
        <ele>261.62</ele>
        <time>2018-09-27T09:30:30Z</time>
      </trkpt>
      <trkpt lat="40.55186471901834" lon="14.231075076386333">
        <ele>264.5</ele>
        <time>2018-09-27T09:30:41Z</time>
      </trkpt>
      <trkpt lat="40.551885841414332" lon="14.230999974533916">
        <ele>265.45999999999998</ele>
        <time>2018-09-27T09:30:53Z</time>
      </trkpt>
      <trkpt lat="40.551897827535868" lon="14.230971476063132">
        <ele>266.89999999999998</ele>
        <time>2018-09-27T09:31:04Z</time>
      </trkpt>
      <trkpt lat="40.551909813657403" lon="14.230937780812383">
        <ele>268.82999999999998</ele>
        <time>2018-09-27T09:31:16Z</time>
      </trkpt>
      <trkpt lat="40.551903108134866" lon="14.230949264019728">
        <ele>268.82999999999998</ele>
        <time>2018-09-27T09:31:30Z</time>
      </trkpt>
      <trkpt lat="40.551888942718506" lon="14.230966027826071">
        <ele>269.79000000000002</ele>
        <time>2018-09-27T09:31:52Z</time>
      </trkpt>
      <trkpt lat="40.551840914413333" lon="14.231077088043094">
        <ele>271.23000000000002</ele>
        <time>2018-09-27T09:32:06Z</time>
      </trkpt>
      <trkpt lat="40.551815768703818" lon="14.231045739725232">
        <ele>273.14999999999998</ele>
        <time>2018-09-27T09:32:18Z</time>
      </trkpt>
      <trkpt lat="40.55178458802402" lon="14.231056468561292">
        <ele>275.06999999999999</ele>
        <time>2018-09-27T09:32:32Z</time>
      </trkpt>
      <trkpt lat="40.551780313253403" lon="14.230916574597359">
        <ele>277</ele>
        <time>2018-09-27T09:32:48Z</time>
      </trkpt>
      <trkpt lat="40.551785593852401" lon="14.230842813849449">
        <ele>279.88</ele>
        <time>2018-09-27T09:33:07Z</time>
      </trkpt>
      <trkpt lat="40.551756089553237" lon="14.230871228501201">
        <ele>280.83999999999997</ele>
        <time>2018-09-27T09:33:16Z</time>
      </trkpt>
      <trkpt lat="40.551783833652735" lon="14.230772070586681">
        <ele>281.80000000000001</ele>
        <time>2018-09-27T09:33:28Z</time>
      </trkpt>
      <trkpt lat="40.551810404285789" lon="14.230749355629086">
        <ele>283.25</ele>
        <time>2018-09-27T09:33:38Z</time>
      </trkpt>
      <trkpt lat="40.55178701877594" lon="14.230780201032758">
        <ele>284.20999999999998</ele>
        <time>2018-09-27T09:33:51Z</time>
      </trkpt>
      <trkpt lat="40.551744187250733" lon="14.23080375418067">
        <ele>286.13</ele>
        <time>2018-09-27T09:34:05Z</time>
      </trkpt>
      <trkpt lat="40.551750892773271" lon="14.230745583772659">
        <ele>286.61000000000001</ele>
        <time>2018-09-27T09:34:18Z</time>
      </trkpt>
      <trkpt lat="40.551778301596642" lon="14.23075245693326">
        <ele>287.56999999999999</ele>
        <time>2018-09-27T09:34:30Z</time>
      </trkpt>
      <trkpt lat="40.551782660186291" lon="14.230727646499872">
        <ele>288.52999999999997</ele>
        <time>2018-09-27T09:34:41Z</time>
      </trkpt>
      <trkpt lat="40.551789281889796" lon="14.230687161907554">
        <ele>288.52999999999997</ele>
        <time>2018-09-27T09:34:56Z</time>
      </trkpt>
      <trkpt lat="40.551783749833703" lon="14.230688167735934">
        <ele>289.49000000000001</ele>
        <time>2018-09-27T09:35:09Z</time>
      </trkpt>
      <trkpt lat="40.551735134795308" lon="14.230704260990024">
        <ele>290.94</ele>
        <time>2018-09-27T09:35:20Z</time>
      </trkpt>
      <trkpt lat="40.551718035712838" lon="14.230667967349291">
        <ele>294.30000000000001</ele>
        <time>2018-09-27T09:35:34Z</time>
      </trkpt>
      <trkpt lat="40.551740666851401" lon="14.23060979694128">
        <ele>294.77999999999997</ele>
        <time>2018-09-27T09:35:46Z</time>
      </trkpt>
      <trkpt lat="40.551788359880447" lon="14.230591775849462">
        <ele>296.69999999999999</ele>
        <time>2018-09-27T09:35:59Z</time>
      </trkpt>
      <trkpt lat="40.551804536953568" lon="14.230576939880848">
        <ele>298.14999999999998</ele>
        <time>2018-09-27T09:36:10Z</time>
      </trkpt>
      <trkpt lat="40.551819624379277" lon="14.230521535500884">
        <ele>299.11000000000001</ele>
        <time>2018-09-27T09:36:22Z</time>
      </trkpt>
      <trkpt lat="40.551812248304486" lon="14.23050326295197">
        <ele>300.55000000000001</ele>
        <time>2018-09-27T09:36:28Z</time>
      </trkpt>
      <trkpt lat="40.551768830046058" lon="14.230458335950971">
        <ele>301.99000000000001</ele>
        <time>2018-09-27T09:36:41Z</time>
      </trkpt>
      <trkpt lat="40.551761789247394" lon="14.230447271838784">
        <ele>303.43000000000001</ele>
        <time>2018-09-27T09:36:44Z</time>
      </trkpt>
      <trkpt lat="40.551752066239715" lon="14.230427071452141">
        <ele>305.36000000000001</ele>
        <time>2018-09-27T09:37:02Z</time>
      </trkpt>
      <trkpt lat="40.551746198907495" lon="14.230433106422424">
        <ele>307.27999999999997</ele>
        <time>2018-09-27T09:37:15Z</time>
      </trkpt>
      <trkpt lat="40.551740918308496" lon="14.230378037318587">
        <ele>308.72000000000003</ele>
        <time>2018-09-27T09:37:27Z</time>
      </trkpt>
      <trkpt lat="40.551754245534539" lon="14.230317687615752">
        <ele>309.68000000000001</ele>
        <time>2018-09-27T09:37:42Z</time>
      </trkpt>
      <trkpt lat="40.551753742620349" lon="14.230306120589375">
        <ele>311.60000000000002</ele>
        <time>2018-09-27T09:37:54Z</time>
      </trkpt>
      <trkpt lat="40.551787856966257" lon="14.230295056477189">
        <ele>312.56999999999999</ele>
        <time>2018-09-27T09:38:07Z</time>
      </trkpt>
      <trkpt lat="40.551798501983285" lon="14.230256415903568">
        <ele>314.00999999999999</ele>
        <time>2018-09-27T09:38:20Z</time>
      </trkpt>
      <trkpt lat="40.551787270233035" lon="14.230232276022434">
        <ele>316.41000000000003</ele>
        <time>2018-09-27T09:38:34Z</time>
      </trkpt>
      <trkpt lat="40.551807805895805" lon="14.230180140584707">
        <ele>318.32999999999998</ele>
        <time>2018-09-27T09:38:47Z</time>
      </trkpt>
      <trkpt lat="40.551782660186291" lon="14.230208890512586">
        <ele>319.77999999999997</ele>
        <time>2018-09-27T09:38:58Z</time>
      </trkpt>
      <trkpt lat="40.551758520305157" lon="14.230223977938294">
        <ele>320.25999999999999</ele>
        <time>2018-09-27T09:39:09Z</time>
      </trkpt>
      <trkpt lat="40.551711246371269" lon="14.230198413133621">
        <ele>322.66000000000003</ele>
        <time>2018-09-27T09:39:19Z</time>
      </trkpt>
      <trkpt lat="40.551674533635378" lon="14.230205621570349">
        <ele>323.62</ele>
        <time>2018-09-27T09:39:31Z</time>
      </trkpt>
      <trkpt lat="40.551659613847733" lon="14.230187768116593">
        <ele>324.57999999999998</ele>
        <time>2018-09-27T09:39:41Z</time>
      </trkpt>
      <trkpt lat="40.551623320207" lon="14.230142254382372">
        <ele>326.01999999999998</ele>
        <time>2018-09-27T09:39:50Z</time>
      </trkpt>
      <trkpt lat="40.551595240831375" lon="14.230057513341308">
        <ele>328.43000000000001</ele>
        <time>2018-09-27T09:40:04Z</time>
      </trkpt>
      <trkpt lat="40.551585434004664" lon="14.230058938264847">
        <ele>328.91000000000003</ele>
        <time>2018-09-27T09:40:15Z</time>
      </trkpt>
      <trkpt lat="40.551536316052079" lon="14.2300820723176">
        <ele>330.35000000000002</ele>
        <time>2018-09-27T09:40:31Z</time>
      </trkpt>
      <trkpt lat="40.551524246111512" lon="14.230073941871524">
        <ele>332.75</ele>
        <time>2018-09-27T09:40:45Z</time>
      </trkpt>
      <trkpt lat="40.551522737368941" lon="14.230085760354996">
        <ele>333.70999999999998</ele>
        <time>2018-09-27T09:40:57Z</time>
      </trkpt>
      <trkpt lat="40.551514690741897" lon="14.230072852224112">
        <ele>333.23000000000002</ele>
        <time>2018-09-27T09:41:06Z</time>
      </trkpt>
      <trkpt lat="40.551493903622031" lon="14.230058686807752">
        <ele>333.23000000000002</ele>
        <time>2018-09-27T09:41:24Z</time>
      </trkpt>
      <trkpt lat="40.551479822024703" lon="14.230054160580039">
        <ele>335.16000000000003</ele>
        <time>2018-09-27T09:41:36Z</time>
      </trkpt>
      <trkpt lat="40.551456352695823" lon="14.230079473927617">
        <ele>336.60000000000002</ele>
        <time>2018-09-27T09:41:50Z</time>
      </trkpt>
      <trkpt lat="40.551436990499496" lon="14.230113085359335">
        <ele>336.60000000000002</ele>
        <time>2018-09-27T09:42:08Z</time>
      </trkpt>
      <trkpt lat="40.55142835713923" lon="14.23013973981142">
        <ele>337.07999999999998</ele>
        <time>2018-09-27T09:42:21Z</time>
      </trkpt>
      <trkpt lat="40.551435984671116" lon="14.230128340423107">
        <ele>337.56</ele>
        <time>2018-09-27T09:42:37Z</time>
      </trkpt>
      <trkpt lat="40.551410838961601" lon="14.23017100431025">
        <ele>338.04000000000002</ele>
        <time>2018-09-27T09:42:55Z</time>
      </trkpt>
      <trkpt lat="40.551396170631051" lon="14.230178548023105">
        <ele>337.56</ele>
        <time>2018-09-27T09:43:14Z</time>
      </trkpt>
      <trkpt lat="40.551374293863773" lon="14.230192294344306">
        <ele>338.51999999999998</ele>
        <time>2018-09-27T09:43:24Z</time>
      </trkpt>
      <trkpt lat="40.551347639411688" lon="14.230204448103905">
        <ele>339.48000000000002</ele>
        <time>2018-09-27T09:43:37Z</time>
      </trkpt>
      <trkpt lat="40.551316877827048" lon="14.230195730924606">
        <ele>341.88999999999999</ele>
        <time>2018-09-27T09:43:49Z</time>
      </trkpt>
      <trkpt lat="40.551301538944244" lon="14.23017636872828">
        <ele>342.37</ele>
        <time>2018-09-27T09:43:58Z</time>
      </trkpt>
      <trkpt lat="40.551290474832058" lon="14.230187935754657">
        <ele>342.85000000000002</ele>
        <time>2018-09-27T09:44:13Z</time>
      </trkpt>
      <trkpt lat="40.551278572529554" lon="14.230228420346975">
        <ele>345.25</ele>
        <time>2018-09-27T09:44:24Z</time>
      </trkpt>
      <trkpt lat="40.551249822601676" lon="14.230273850262165">
        <ele>347.17000000000002</ele>
        <time>2018-09-27T09:44:33Z</time>
      </trkpt>
      <trkpt lat="40.551209170371294" lon="14.230303606018424">
        <ele>348.13</ele>
        <time>2018-09-27T09:44:46Z</time>
      </trkpt>
      <trkpt lat="40.551171116530895" lon="14.230321124196053">
        <ele>350.06</ele>
        <time>2018-09-27T09:44:59Z</time>
      </trkpt>
      <trkpt lat="40.551146725192666" lon="14.2303307633847">
        <ele>351.01999999999998</ele>
        <time>2018-09-27T09:45:13Z</time>
      </trkpt>
      <trkpt lat="40.551123674958944" lon="14.230334367603064">
        <ele>351.98000000000002</ele>
        <time>2018-09-27T09:45:26Z</time>
      </trkpt>
      <trkpt lat="40.551085537299514" lon="14.230341492220759">
        <ele>354.38</ele>
        <time>2018-09-27T09:45:36Z</time>
      </trkpt>
      <trkpt lat="40.551059804856777" lon="14.230355322360992">
        <ele>355.82999999999998</ele>
        <time>2018-09-27T09:45:44Z</time>
      </trkpt>
      <trkpt lat="40.551066510379314" lon="14.230367979034781">
        <ele>357.75</ele>
        <time>2018-09-27T09:45:53Z</time>
      </trkpt>
      <trkpt lat="40.551057793200016" lon="14.230371080338955">
        <ele>357.26999999999998</ele>
        <time>2018-09-27T09:46:10Z</time>
      </trkpt>
      <trkpt lat="40.551063241437078" lon="14.230417432263494">
        <ele>358.70999999999998</ele>
        <time>2018-09-27T09:46:31Z</time>
      </trkpt>
      <trkpt lat="40.551013788208365" lon="14.230456911027431">
        <ele>360.14999999999998</ele>
        <time>2018-09-27T09:46:43Z</time>
      </trkpt>
      <trkpt lat="40.550993084907532" lon="14.230504520237446">
        <ele>361.58999999999997</ele>
        <time>2018-09-27T09:46:57Z</time>
      </trkpt>
      <trkpt lat="40.551000628620386" lon="14.23050326295197">
        <ele>363.04000000000002</ele>
        <time>2018-09-27T09:47:11Z</time>
      </trkpt>
      <trkpt lat="40.550982691347599" lon="14.230530085042119">
        <ele>365.44</ele>
        <time>2018-09-27T09:47:22Z</time>
      </trkpt>
      <trkpt lat="40.550993923097849" lon="14.230584483593702">
        <ele>367.36000000000001</ele>
        <time>2018-09-27T09:47:34Z</time>
      </trkpt>
      <trkpt lat="40.550973806530237" lon="14.230624968186021">
        <ele>368.31999999999999</ele>
        <time>2018-09-27T09:47:42Z</time>
      </trkpt>
      <trkpt lat="40.550998114049435" lon="14.230659333989024">
        <ele>369.27999999999997</ele>
        <time>2018-09-27T09:47:53Z</time>
      </trkpt>
      <trkpt lat="40.551016638055444" lon="14.23065472394228">
        <ele>369.27999999999997</ele>
        <time>2018-09-27T09:48:08Z</time>
      </trkpt>
      <trkpt lat="40.550960479304194" lon="14.230718342587352">
        <ele>371.69</ele>
        <time>2018-09-27T09:48:20Z</time>
      </trkpt>
      <trkpt lat="40.550918821245432" lon="14.230760084465146">
        <ele>373.13</ele>
        <time>2018-09-27T09:48:31Z</time>
      </trkpt>
      <trkpt lat="40.550917563959956" lon="14.230771064758301">
        <ele>374.56999999999999</ele>
        <time>2018-09-27T09:48:47Z</time>
      </trkpt>
      <trkpt lat="40.550870625302196" lon="14.230839880183339">
        <ele>376.00999999999999</ele>
        <time>2018-09-27T09:49:06Z</time>
      </trkpt>
      <trkpt lat="40.550840282812715" lon="14.230832168832421">
        <ele>377.44999999999999</ele>
        <time>2018-09-27T09:49:18Z</time>
      </trkpt>
      <trkpt lat="40.550829134881496" lon="14.230836946517229">
        <ele>377.44999999999999</ele>
        <time>2018-09-27T09:49:23Z</time>
      </trkpt>
      <trkpt lat="40.550787560641766" lon="14.230854883790016">
        <ele>380.81999999999999</ele>
        <time>2018-09-27T09:49:34Z</time>
      </trkpt>
      <trkpt lat="40.550789320841432" lon="14.230903666466475">
        <ele>382.74000000000001</ele>
        <time>2018-09-27T09:49:45Z</time>
      </trkpt>
      <trkpt lat="40.550788315013051" lon="14.230912048369646">
        <ele>382.74000000000001</ele>
        <time>2018-09-27T09:49:54Z</time>
      </trkpt>
      <trkpt lat="40.550764007493854" lon="14.230911293998361">
        <ele>383.22000000000003</ele>
        <time>2018-09-27T09:50:13Z</time>
      </trkpt>
      <trkpt lat="40.550775825977325" lon="14.230915065854788">
        <ele>383.22000000000003</ele>
        <time>2018-09-27T09:50:37Z</time>
      </trkpt>
      <trkpt lat="40.550778256729245" lon="14.230929231271148">
        <ele>383.22000000000003</ele>
        <time>2018-09-27T09:51:01Z</time>
      </trkpt>
      <trkpt lat="40.550776664167643" lon="14.230914730578661">
        <ele>382.74000000000001</ele>
        <time>2018-09-27T09:51:20Z</time>
      </trkpt>
      <trkpt lat="40.550791248679161" lon="14.230976169928908">
        <ele>383.69999999999999</ele>
        <time>2018-09-27T09:51:44Z</time>
      </trkpt>
      <trkpt lat="40.550743723288178" lon="14.231024282053113">
        <ele>385.63</ele>
        <time>2018-09-27T09:51:53Z</time>
      </trkpt>
      <trkpt lat="40.550715392455459" lon="14.231027299538255">
        <ele>387.55000000000001</ele>
        <time>2018-09-27T09:51:57Z</time>
      </trkpt>
      <trkpt lat="40.550681948661804" lon="14.231016235426068">
        <ele>390.91000000000003</ele>
        <time>2018-09-27T09:52:06Z</time>
      </trkpt>
      <trkpt lat="40.550643475726247" lon="14.231009446084499">
        <ele>391.87</ele>
        <time>2018-09-27T09:52:15Z</time>
      </trkpt>
      <trkpt lat="40.550613133236766" lon="14.231009362265468">
        <ele>392.83999999999997</ele>
        <time>2018-09-27T09:52:26Z</time>
      </trkpt>
      <trkpt lat="40.55060651153326" lon="14.230986144393682">
        <ele>392.83999999999997</ele>
        <time>2018-09-27T09:52:44Z</time>
      </trkpt>
      <trkpt lat="40.55061430670321" lon="14.231025874614716">
        <ele>394.75999999999999</ele>
        <time>2018-09-27T09:53:03Z</time>
      </trkpt>
      <trkpt lat="40.55058061145246" lon="14.231028724461794">
        <ele>396.68000000000001</ele>
        <time>2018-09-27T09:53:09Z</time>
      </trkpt>
      <trkpt lat="40.550553118810058" lon="14.231029814109206">
        <ele>400.05000000000001</ele>
        <time>2018-09-27T09:53:20Z</time>
      </trkpt>
      <trkpt lat="40.55055077187717" lon="14.231055630370975">
        <ele>400.52999999999997</ele>
        <time>2018-09-27T09:53:30Z</time>
      </trkpt>
      <trkpt lat="40.550528895109892" lon="14.231074741110206">
        <ele>401.00999999999999</ele>
        <time>2018-09-27T09:53:41Z</time>
      </trkpt>
      <trkpt lat="40.550501151010394" lon="14.231057558208704">
        <ele>402.44999999999999</ele>
        <time>2018-09-27T09:53:51Z</time>
      </trkpt>
      <trkpt lat="40.550512969493866" lon="14.231051774695516">
        <ele>403.41000000000003</ele>
        <time>2018-09-27T09:53:59Z</time>
      </trkpt>
      <trkpt lat="40.550486650317907" lon="14.231071388348937">
        <ele>405.32999999999998</ele>
        <time>2018-09-27T09:54:10Z</time>
      </trkpt>
      <trkpt lat="40.550490003079176" lon="14.231023360043764">
        <ele>406.76999999999998</ele>
        <time>2018-09-27T09:54:23Z</time>
      </trkpt>
      <trkpt lat="40.550459157675505" lon="14.230965944007039">
        <ele>408.22000000000003</ele>
        <time>2018-09-27T09:54:37Z</time>
      </trkpt>
      <trkpt lat="40.550399143248796" lon="14.230988239869475">
        <ele>408.22000000000003</ele>
        <time>2018-09-27T09:54:54Z</time>
      </trkpt>
      <trkpt lat="40.550412721931934" lon="14.230961836874485">
        <ele>409.66000000000003</ele>
        <time>2018-09-27T09:55:06Z</time>
      </trkpt>
      <trkpt lat="40.550420936197042" lon="14.23098404891789">
        <ele>410.13999999999999</ele>
        <time>2018-09-27T09:55:24Z</time>
      </trkpt>
      <trkpt lat="40.550429569557309" lon="14.230989664793015">
        <ele>412.06</ele>
        <time>2018-09-27T09:55:40Z</time>
      </trkpt>
      <trkpt lat="40.550443567335606" lon="14.23092738725245">
        <ele>413.01999999999998</ele>
        <time>2018-09-27T09:55:53Z</time>
      </trkpt>
      <trkpt lat="40.55037927813828" lon="14.230889668688178">
        <ele>413.98000000000002</ele>
        <time>2018-09-27T09:56:04Z</time>
      </trkpt>
      <trkpt lat="40.550403418019414" lon="14.230896877124906">
        <ele>415.43000000000001</ele>
        <time>2018-09-27T09:56:15Z</time>
      </trkpt>
      <trkpt lat="40.550360921770334" lon="14.230893356725574">
        <ele>415.91000000000003</ele>
        <time>2018-09-27T09:56:28Z</time>
      </trkpt>
      <trkpt lat="40.55035438388586" lon="14.230940211564302">
        <ele>417.35000000000002</ele>
        <time>2018-09-27T09:56:44Z</time>
      </trkpt>
      <trkpt lat="40.550357485190034" lon="14.23092981800437">
        <ele>419.26999999999998</ele>
        <time>2018-09-27T09:56:59Z</time>
      </trkpt>
      <trkpt lat="40.550263607874513" lon="14.230944653972983">
        <ele>420.70999999999998</ele>
        <time>2018-09-27T09:57:13Z</time>
      </trkpt>
      <trkpt lat="40.550265116617084" lon="14.230934511870146">
        <ele>422.16000000000003</ele>
        <time>2018-09-27T09:57:27Z</time>
      </trkpt>
      <trkpt lat="40.550255812704563" lon="14.231000812724233">
        <ele>422.16000000000003</ele>
        <time>2018-09-27T09:57:43Z</time>
      </trkpt>
      <trkpt lat="40.550209628418088" lon="14.231154201552272">
        <ele>423.12</ele>
        <time>2018-09-27T09:57:59Z</time>
      </trkpt>
      <trkpt lat="40.550276851281524" lon="14.231035932898521">
        <ele>424.07999999999998</ele>
        <time>2018-09-27T09:58:13Z</time>
      </trkpt>
      <trkpt lat="40.550277018919587" lon="14.231002321466804">
        <ele>426.48000000000002</ele>
        <time>2018-09-27T09:58:26Z</time>
      </trkpt>
      <trkpt lat="40.550275426357985" lon="14.230907019227743">
        <ele>427.44</ele>
        <time>2018-09-27T09:58:40Z</time>
      </trkpt>
      <trkpt lat="40.550287663936615" lon="14.230940295383334">
        <ele>428.39999999999998</ele>
        <time>2018-09-27T09:58:53Z</time>
      </trkpt>
      <trkpt lat="40.550287747755647" lon="14.230965944007039">
        <ele>429.37</ele>
        <time>2018-09-27T09:59:08Z</time>
      </trkpt>
      <trkpt lat="40.550275761634111" lon="14.230963848531246">
        <ele>430.32999999999998</ele>
        <time>2018-09-27T09:59:22Z</time>
      </trkpt>
      <trkpt lat="40.55022438056767" lon="14.230942307040095">
        <ele>431.29000000000002</ele>
        <time>2018-09-27T09:59:37Z</time>
      </trkpt>
      <trkpt lat="40.550215747207403" lon="14.230943145230412">
        <ele>432.73000000000002</ele>
        <time>2018-09-27T09:59:51Z</time>
      </trkpt>
      <trkpt lat="40.550222368910909" lon="14.231004500761628">
        <ele>434.64999999999998</ele>
        <time>2018-09-27T10:00:02Z</time>
      </trkpt>
      <trkpt lat="40.550201497972012" lon="14.231051355600357">
        <ele>436.57999999999998</ele>
        <time>2018-09-27T10:00:12Z</time>
      </trkpt>
      <trkpt lat="40.550177022814751" lon="14.231060659512877">
        <ele>437.06</ele>
        <time>2018-09-27T10:00:20Z</time>
      </trkpt>
      <trkpt lat="40.5501813814044" lon="14.231086056679487">
        <ele>436.57999999999998</ele>
        <time>2018-09-27T10:00:31Z</time>
      </trkpt>
      <trkpt lat="40.550171658396721" lon="14.231072394177318">
        <ele>437.06</ele>
        <time>2018-09-27T10:00:43Z</time>
      </trkpt>
      <trkpt lat="40.550167970359325" lon="14.231086727231741">
        <ele>437.06</ele>
        <time>2018-09-27T10:00:54Z</time>
      </trkpt>
      <trkpt lat="40.550158498808742" lon="14.231026461347938">
        <ele>437.54000000000002</ele>
        <time>2018-09-27T10:01:09Z</time>
      </trkpt>
      <trkpt lat="40.550151374191046" lon="14.231017408892512">
        <ele>438.5</ele>
        <time>2018-09-27T10:01:21Z</time>
      </trkpt>
      <trkpt lat="40.550136119127274" lon="14.231015732511878">
        <ele>438.5</ele>
        <time>2018-09-27T10:01:23Z</time>
      </trkpt>
      <trkpt lat="40.550118098035455" lon="14.231021096929908">
        <ele>437.06</ele>
        <time>2018-09-27T10:01:28Z</time>
      </trkpt>
      <trkpt lat="40.55013787932694" lon="14.23098798841238">
        <ele>436.57999999999998</ele>
        <time>2018-09-27T10:01:43Z</time>
      </trkpt>
      <trkpt lat="40.550154224038124" lon="14.230963680893183">
        <ele>438.5</ele>
        <time>2018-09-27T10:01:52Z</time>
      </trkpt>
      <trkpt lat="40.550175765529275" lon="14.230952700600028">
        <ele>440.89999999999998</ele>
        <time>2018-09-27T10:02:02Z</time>
      </trkpt>
      <trkpt lat="40.550166377797723" lon="14.230976672843099">
        <ele>440.89999999999998</ele>
        <time>2018-09-27T10:02:23Z</time>
      </trkpt>
      <trkpt lat="40.550168640911579" lon="14.230985725298524">
        <ele>440.89999999999998</ele>
        <time>2018-09-27T10:02:45Z</time>
      </trkpt>
      <trkpt lat="40.550147434696555" lon="14.230995867401361">
        <ele>439.94</ele>
        <time>2018-09-27T10:02:53Z</time>
      </trkpt>
      <trkpt lat="40.550155397504568" lon="14.230993101373315">
        <ele>438.98000000000002</ele>
        <time>2018-09-27T10:03:03Z</time>
      </trkpt>
      <trkpt lat="40.550148356705904" lon="14.230987569317222">
        <ele>438.98000000000002</ele>
        <time>2018-09-27T10:03:14Z</time>
      </trkpt>
      <trkpt lat="40.550161013379693" lon="14.230983881279826">
        <ele>438.98000000000002</ele>
        <time>2018-09-27T10:03:31Z</time>
      </trkpt>
      <trkpt lat="40.550155397504568" lon="14.230994610115886">
        <ele>438.98000000000002</ele>
        <time>2018-09-27T10:03:59Z</time>
      </trkpt>
      <trkpt lat="40.550155900418758" lon="14.230992933735251">
        <ele>439.45999999999998</ele>
        <time>2018-09-27T10:04:28Z</time>
      </trkpt>
      <trkpt lat="40.550151290372014" lon="14.230996957048774">
        <ele>438.98000000000002</ele>
        <time>2018-09-27T10:04:51Z</time>
      </trkpt>
      <trkpt lat="40.550154726952314" lon="14.231005506590009">
        <ele>439.45999999999998</ele>
        <time>2018-09-27T10:05:13Z</time>
      </trkpt>
      <trkpt lat="40.550141902640462" lon="14.23100215382874">
        <ele>439.94</ele>
        <time>2018-09-27T10:05:31Z</time>
      </trkpt>
      <trkpt lat="40.55014081299305" lon="14.230990251526237">
        <ele>439.45999999999998</ele>
        <time>2018-09-27T10:05:46Z</time>
      </trkpt>
      <trkpt lat="40.550134191289544" lon="14.230985641479492">
        <ele>438.98000000000002</ele>
        <time>2018-09-27T10:06:05Z</time>
      </trkpt>
      <trkpt lat="40.550153721123934" lon="14.230985892936587">
        <ele>439.45999999999998</ele>
        <time>2018-09-27T10:06:26Z</time>
      </trkpt>
      <trkpt lat="40.550169982016087" lon="14.230993604287505">
        <ele>439.45999999999998</ele>
        <time>2018-09-27T10:06:40Z</time>
      </trkpt>
      <trkpt lat="40.550165539607406" lon="14.231000812724233">
        <ele>439.45999999999998</ele>
        <time>2018-09-27T10:06:58Z</time>
      </trkpt>
      <trkpt lat="40.550159923732281" lon="14.230996118858457">
        <ele>439.94</ele>
        <time>2018-09-27T10:07:12Z</time>
      </trkpt>
      <trkpt lat="40.550154810771346" lon="14.231011038646102">
        <ele>439.45999999999998</ele>
        <time>2018-09-27T10:07:27Z</time>
      </trkpt>
      <trkpt lat="40.550148440524936" lon="14.2310163192451">
        <ele>439.45999999999998</ele>
        <time>2018-09-27T10:07:42Z</time>
      </trkpt>
      <trkpt lat="40.550143914297223" lon="14.231004919856787">
        <ele>439.45999999999998</ele>
        <time>2018-09-27T10:07:53Z</time>
      </trkpt>
      <trkpt lat="40.550142657011747" lon="14.231010871008039">
        <ele>439.45999999999998</ele>
        <time>2018-09-27T10:08:15Z</time>
      </trkpt>
      <trkpt lat="40.550161516293883" lon="14.231007266789675">
        <ele>439.45999999999998</ele>
        <time>2018-09-27T10:08:33Z</time>
      </trkpt>
      <trkpt lat="40.550151877105236" lon="14.230996621772647">
        <ele>438.98000000000002</ele>
        <time>2018-09-27T10:08:59Z</time>
      </trkpt>
      <trkpt lat="40.550150787457824" lon="14.2309904191643">
        <ele>438.98000000000002</ele>
        <time>2018-09-27T10:09:22Z</time>
      </trkpt>
      <trkpt lat="40.550158331170678" lon="14.231015732511878">
        <ele>438.98000000000002</ele>
        <time>2018-09-27T10:09:37Z</time>
      </trkpt>
      <trkpt lat="40.550155397504568" lon="14.231000896543264">
        <ele>438.98000000000002</ele>
        <time>2018-09-27T10:09:57Z</time>
      </trkpt>
      <trkpt lat="40.550140729174018" lon="14.231011373922229">
        <ele>438.5</ele>
        <time>2018-09-27T10:10:13Z</time>
      </trkpt>
      <trkpt lat="40.550135113298893" lon="14.231031909584999">
        <ele>439.45999999999998</ele>
        <time>2018-09-27T10:10:39Z</time>
      </trkpt>
      <trkpt lat="40.550146596506238" lon="14.231019085273147">
        <ele>439.45999999999998</ele>
        <time>2018-09-27T10:10:57Z</time>
      </trkpt>
      <trkpt lat="40.550146009773016" lon="14.231024365872145">
        <ele>438.98000000000002</ele>
        <time>2018-09-27T10:11:13Z</time>
      </trkpt>
      <trkpt lat="40.550149278715253" lon="14.231023192405701">
        <ele>439.94</ele>
        <time>2018-09-27T10:11:32Z</time>
      </trkpt>
      <trkpt lat="40.550136286765337" lon="14.231025287881494">
        <ele>439.94</ele>
        <time>2018-09-27T10:11:44Z</time>
      </trkpt>
      <trkpt lat="40.550132682546973" lon="14.23102755099535">
        <ele>440.42000000000002</ele>
        <time>2018-09-27T10:12:03Z</time>
      </trkpt>
      <trkpt lat="40.550132598727942" lon="14.230985976755619">
        <ele>440.89999999999998</ele>
        <time>2018-09-27T10:12:18Z</time>
      </trkpt>
      <trkpt lat="40.550116086378694" lon="14.230961166322231">
        <ele>439.94</ele>
        <time>2018-09-27T10:12:41Z</time>
      </trkpt>
      <trkpt lat="40.550099741667509" lon="14.230978600680828">
        <ele>439.94</ele>
        <time>2018-09-27T10:13:03Z</time>
      </trkpt>
      <trkpt lat="40.55009345524013" lon="14.230984216555953">
        <ele>439.94</ele>
        <time>2018-09-27T10:13:15Z</time>
      </trkpt>
      <trkpt lat="40.550106531009078" lon="14.230954544618726">
        <ele>439.94</ele>
        <time>2018-09-27T10:13:35Z</time>
      </trkpt>
      <trkpt lat="40.550136370584369" lon="14.230989580973983">
        <ele>440.42000000000002</ele>
        <time>2018-09-27T10:13:50Z</time>
      </trkpt>
      <trkpt lat="40.550150368362665" lon="14.230980444699526">
        <ele>442.33999999999997</ele>
        <time>2018-09-27T10:13:59Z</time>
      </trkpt>
      <trkpt lat="40.550132263451815" lon="14.230928644537926">
        <ele>442.81999999999999</ele>
        <time>2018-09-27T10:14:11Z</time>
      </trkpt>
      <trkpt lat="40.550121450796723" lon="14.230899475514889">
        <ele>442.81999999999999</ele>
        <time>2018-09-27T10:14:28Z</time>
      </trkpt>
      <trkpt lat="40.550111476331949" lon="14.23088145442307">
        <ele>443.31</ele>
        <time>2018-09-27T10:14:37Z</time>
      </trkpt>
      <trkpt lat="40.55008658207953" lon="14.230863098055124">
        <ele>442.81999999999999</ele>
        <time>2018-09-27T10:14:55Z</time>
      </trkpt>
      <trkpt lat="40.550086330622435" lon="14.230820182710886">
        <ele>443.79000000000002</ele>
        <time>2018-09-27T10:15:03Z</time>
      </trkpt>
      <trkpt lat="40.550124803557992" lon="14.230806436389685">
        <ele>445.70999999999998</ele>
        <time>2018-09-27T10:15:13Z</time>
      </trkpt>
      <trkpt lat="40.550152212381363" lon="14.230819595977664">
        <ele>446.67000000000002</ele>
        <time>2018-09-27T10:15:26Z</time>
      </trkpt>
      <trkpt lat="40.55015355348587" lon="14.230834180489182">
        <ele>445.23000000000002</ele>
        <time>2018-09-27T10:15:39Z</time>
      </trkpt>
      <trkpt lat="40.550162605941296" lon="14.230850022286177">
        <ele>444.75</ele>
        <time>2018-09-27T10:15:52Z</time>
      </trkpt>
      <trkpt lat="40.550171993672848" lon="14.230833845213056">
        <ele>446.67000000000002</ele>
        <time>2018-09-27T10:16:03Z</time>
      </trkpt>
      <trkpt lat="40.550184650346637" lon="14.230791684240103">
        <ele>449.55000000000001</ele>
        <time>2018-09-27T10:16:14Z</time>
      </trkpt>
      <trkpt lat="40.550199067220092" lon="14.230710379779339">
        <ele>452.44</ele>
        <time>2018-09-27T10:16:30Z</time>
      </trkpt>
      <trkpt lat="40.550176352262497" lon="14.230618933215737">
        <ele>455.80000000000001</ele>
        <time>2018-09-27T10:16:47Z</time>
      </trkpt>
      <trkpt lat="40.550244161859155" lon="14.230610216036439">
        <ele>458.20999999999998</ele>
        <time>2018-09-27T10:17:02Z</time>
      </trkpt>
      <trkpt lat="40.550262853503227" lon="14.230566546320915">
        <ele>461.08999999999997</ele>
        <time>2018-09-27T10:17:18Z</time>
      </trkpt>
      <trkpt lat="40.550278527662158" lon="14.230607701465487">
        <ele>462.52999999999997</ele>
        <time>2018-09-27T10:17:25Z</time>
      </trkpt>
      <trkpt lat="40.550301242619753" lon="14.230610383674502">
        <ele>463.00999999999999</ele>
        <time>2018-09-27T10:17:34Z</time>
      </trkpt>
      <trkpt lat="40.550330327823758" lon="14.2306415643543">
        <ele>463.49000000000001</ele>
        <time>2018-09-27T10:17:45Z</time>
      </trkpt>
      <trkpt lat="40.550317922607064" lon="14.230584232136607">
        <ele>465.42000000000002</ele>
        <time>2018-09-27T10:17:56Z</time>
      </trkpt>
      <trkpt lat="40.550349270924926" lon="14.23058683052659">
        <ele>466.86000000000001</ele>
        <time>2018-09-27T10:18:06Z</time>
      </trkpt>
      <trkpt lat="40.550336195155978" lon="14.230555146932602">
        <ele>468.77999999999997</ele>
        <time>2018-09-27T10:18:15Z</time>
      </trkpt>
      <trkpt lat="40.55032747797668" lon="14.230551710352302">
        <ele>469.74000000000001</ele>
        <time>2018-09-27T10:18:26Z</time>
      </trkpt>
      <trkpt lat="40.55031037889421" lon="14.230482475832105">
        <ele>470.22000000000003</ele>
        <time>2018-09-27T10:18:38Z</time>
      </trkpt>
      <trkpt lat="40.550326136872172" lon="14.230451798066497">
        <ele>472.13999999999999</ele>
        <time>2018-09-27T10:18:47Z</time>
      </trkpt>
      <trkpt lat="40.550325466319919" lon="14.230446433648467">
        <ele>472.13999999999999</ele>
        <time>2018-09-27T10:18:58Z</time>
      </trkpt>
      <trkpt lat="40.55031968280673" lon="14.230403853580356">
        <ele>474.06999999999999</ele>
        <time>2018-09-27T10:19:09Z</time>
      </trkpt>
      <trkpt lat="40.550297135487199" lon="14.230357417836785">
        <ele>475.02999999999997</ele>
        <time>2018-09-27T10:19:20Z</time>
      </trkpt>
      <trkpt lat="40.550286406651139" lon="14.23031366430223">
        <ele>475.99000000000001</ele>
        <time>2018-09-27T10:19:33Z</time>
      </trkpt>
      <trkpt lat="40.5503143183887" lon="14.230364207178354">
        <ele>475.99000000000001</ele>
        <time>2018-09-27T10:19:46Z</time>
      </trkpt>
      <trkpt lat="40.550314234569669" lon="14.230339312925935">
        <ele>475.99000000000001</ele>
        <time>2018-09-27T10:20:02Z</time>
      </trkpt>
      <trkpt lat="40.550321275368333" lon="14.230289272964001">
        <ele>476.94999999999999</ele>
        <time>2018-09-27T10:20:12Z</time>
      </trkpt>
      <trkpt lat="40.550352623686194" lon="14.230270916596055">
        <ele>478.87</ele>
        <time>2018-09-27T10:20:24Z</time>
      </trkpt>
      <trkpt lat="40.550403082743287" lon="14.230281142517924">
        <ele>480.80000000000001</ele>
        <time>2018-09-27T10:20:35Z</time>
      </trkpt>
      <trkpt lat="40.550426803529263" lon="14.23028483055532">
        <ele>481.75999999999999</ele>
        <time>2018-09-27T10:20:43Z</time>
      </trkpt>
      <trkpt lat="40.550437951460481" lon="14.230290614068508">
        <ele>483.19999999999999</ele>
        <time>2018-09-27T10:20:52Z</time>
      </trkpt>
      <trkpt lat="40.550443148240447" lon="14.230282148346305">
        <ele>484.16000000000003</ele>
        <time>2018-09-27T10:21:01Z</time>
      </trkpt>
      <trkpt lat="40.550429904833436" lon="14.230238478630781">
        <ele>485.60000000000002</ele>
        <time>2018-09-27T10:21:10Z</time>
      </trkpt>
      <trkpt lat="40.550415152683854" lon="14.230211824178696">
        <ele>486.56</ele>
        <time>2018-09-27T10:21:17Z</time>
      </trkpt>
      <trkpt lat="40.550416242331266" lon="14.230172429233789">
        <ele>488.00999999999999</ele>
        <time>2018-09-27T10:21:26Z</time>
      </trkpt>
      <trkpt lat="40.550418924540281" lon="14.230118030682206">
        <ele>488.97000000000003</ele>
        <time>2018-09-27T10:21:38Z</time>
      </trkpt>
      <trkpt lat="40.550396544858813" lon="14.230106798931956">
        <ele>488.97000000000003</ele>
        <time>2018-09-27T10:21:50Z</time>
      </trkpt>
      <trkpt lat="40.550387492403388" lon="14.230059524998069">
        <ele>489.93000000000001</ele>
        <time>2018-09-27T10:22:02Z</time>
      </trkpt>
      <trkpt lat="40.550384223461151" lon="14.230019794777036">
        <ele>490.88999999999999</ele>
        <time>2018-09-27T10:22:14Z</time>
      </trkpt>
      <trkpt lat="40.550385816022754" lon="14.229968329891562">
        <ele>494.25999999999999</ele>
        <time>2018-09-27T10:22:26Z</time>
      </trkpt>
      <trkpt lat="40.55038564838469" lon="14.229964977130294">
        <ele>493.29000000000002</ele>
        <time>2018-09-27T10:22:27Z</time>
      </trkpt>
      <trkpt lat="40.550383217632771" lon="14.229923402890563">
        <ele>494.25999999999999</ele>
        <time>2018-09-27T10:22:40Z</time>
      </trkpt>
      <trkpt lat="40.550392521545291" lon="14.229891216382384">
        <ele>494.25999999999999</ele>
        <time>2018-09-27T10:22:50Z</time>
      </trkpt>
      <trkpt lat="40.550418086349964" lon="14.229889372363687">
        <ele>494.74000000000001</ele>
        <time>2018-09-27T10:23:00Z</time>
      </trkpt>
      <trkpt lat="40.550397550687194" lon="14.229927593842149">
        <ele>495.69999999999999</ele>
        <time>2018-09-27T10:23:13Z</time>
      </trkpt>
      <trkpt lat="40.550375506281853" lon="14.229915691539645">
        <ele>494.74000000000001</ele>
        <time>2018-09-27T10:23:16Z</time>
      </trkpt>
      <trkpt lat="40.550409704446793" lon="14.229894485324621">
        <ele>495.22000000000003</ele>
        <time>2018-09-27T10:23:24Z</time>
      </trkpt>
      <trkpt lat="40.550437197089195" lon="14.229902867227793">
        <ele>495.22000000000003</ele>
        <time>2018-09-27T10:23:27Z</time>
      </trkpt>
      <trkpt lat="40.550438035279512" lon="14.229947878047824">
        <ele>495.69999999999999</ele>
        <time>2018-09-27T10:23:37Z</time>
      </trkpt>
      <trkpt lat="40.55042864754796" lon="14.229953913018107">
        <ele>495.69999999999999</ele>
        <time>2018-09-27T10:23:57Z</time>
      </trkpt>
      <trkpt lat="40.550389504060149" lon="14.229898508638144">
        <ele>495.22000000000003</ele>
        <time>2018-09-27T10:24:05Z</time>
      </trkpt>
      <trkpt lat="40.550310965627432" lon="14.229793231934309">
        <ele>493.29000000000002</ele>
        <time>2018-09-27T10:24:17Z</time>
      </trkpt>
      <trkpt lat="40.550291184335947" lon="14.229783425107598">
        <ele>493.29000000000002</ele>
        <time>2018-09-27T10:24:19Z</time>
      </trkpt>
      <trkpt lat="40.550248436629772" lon="14.229723997414112">
        <ele>492.81</ele>
        <time>2018-09-27T10:24:29Z</time>
      </trkpt>
      <trkpt lat="40.55021658539772" lon="14.229719471186399">
        <ele>492.32999999999998</ele>
        <time>2018-09-27T10:24:47Z</time>
      </trkpt>
      <trkpt lat="40.550167132169008" lon="14.229727350175381">
        <ele>494.25999999999999</ele>
        <time>2018-09-27T10:24:53Z</time>
      </trkpt>
      <trkpt lat="40.550080882385373" lon="14.229681082069874">
        <ele>494.25999999999999</ele>
        <time>2018-09-27T10:25:04Z</time>
      </trkpt>
      <trkpt lat="40.55005338974297" lon="14.229671861976385">
        <ele>493.76999999999998</ele>
        <time>2018-09-27T10:25:15Z</time>
      </trkpt>
      <trkpt lat="40.550030255690217" lon="14.229657277464867">
        <ele>493.76999999999998</ele>
        <time>2018-09-27T10:25:26Z</time>
      </trkpt>
      <trkpt lat="40.550009217113256" lon="14.229647303000093">
        <ele>493.29000000000002</ele>
        <time>2018-09-27T10:25:36Z</time>
      </trkpt>
      <trkpt lat="40.549974264577031" lon="14.229628862813115">
        <ele>492.81</ele>
        <time>2018-09-27T10:25:47Z</time>
      </trkpt>
      <trkpt lat="40.549944676458836" lon="14.229614613577724">
        <ele>492.32999999999998</ele>
        <time>2018-09-27T10:25:57Z</time>
      </trkpt>
      <trkpt lat="40.54988625459373" lon="14.229576056823134">
        <ele>493.76999999999998</ele>
        <time>2018-09-27T10:26:07Z</time>
      </trkpt>
      <trkpt lat="40.54983546026051" lon="14.229608830064535">
        <ele>495.69999999999999</ele>
        <time>2018-09-27T10:26:18Z</time>
      </trkpt>
      <trkpt lat="40.549758095294237" lon="14.229585863649845">
        <ele>496.66000000000003</ele>
        <time>2018-09-27T10:26:30Z</time>
      </trkpt>
      <trkpt lat="40.549706630408764" lon="14.229616709053516">
        <ele>498.57999999999998</ele>
        <time>2018-09-27T10:26:39Z</time>
      </trkpt>
      <trkpt lat="40.549660278484225" lon="14.229612434282899">
        <ele>499.06</ele>
        <time>2018-09-27T10:26:50Z</time>
      </trkpt>
      <trkpt lat="40.549635300412774" lon="14.229601873084903">
        <ele>500.01999999999998</ele>
        <time>2018-09-27T10:27:02Z</time>
      </trkpt>
      <trkpt lat="40.549579728394747" lon="14.229592401534319">
        <ele>499.54000000000002</ele>
        <time>2018-09-27T10:27:15Z</time>
      </trkpt>
      <trkpt lat="40.549543183296919" lon="14.22956507652998">
        <ele>500.01999999999998</ele>
        <time>2018-09-27T10:27:26Z</time>
      </trkpt>
      <trkpt lat="40.549460621550679" lon="14.229541271924973">
        <ele>499.54000000000002</ele>
        <time>2018-09-27T10:27:37Z</time>
      </trkpt>
      <trkpt lat="40.549358194693923" lon="14.229520065709949">
        <ele>499.54000000000002</ele>
        <time>2018-09-27T10:27:51Z</time>
      </trkpt>
      <trkpt lat="40.549296084791422" lon="14.229499530047178">
        <ele>498.10000000000002</ele>
        <time>2018-09-27T10:28:01Z</time>
      </trkpt>
      <trkpt lat="40.549261551350355" lon="14.22950891777873">
        <ele>498.57999999999998</ele>
        <time>2018-09-27T10:28:06Z</time>
      </trkpt>
      <trkpt lat="40.549146216362715" lon="14.229455441236496">
        <ele>497.13999999999999</ele>
        <time>2018-09-27T10:28:18Z</time>
      </trkpt>
      <trkpt lat="40.549050746485591" lon="14.229423841461539">
        <ele>496.18000000000001</ele>
        <time>2018-09-27T10:28:29Z</time>
      </trkpt>
      <trkpt lat="40.548967346549034" lon="14.229410849511623">
        <ele>496.18000000000001</ele>
        <time>2018-09-27T10:28:41Z</time>
      </trkpt>
      <trkpt lat="40.548850335180759" lon="14.229380674660206">
        <ele>495.69999999999999</ele>
        <time>2018-09-27T10:28:53Z</time>
      </trkpt>
      <trkpt lat="40.548767857253551" lon="14.229316050186753">
        <ele>495.22000000000003</ele>
        <time>2018-09-27T10:29:04Z</time>
      </trkpt>
      <trkpt lat="40.548673141747713" lon="14.22926408238709">
        <ele>494.25999999999999</ele>
        <time>2018-09-27T10:29:15Z</time>
      </trkpt>
      <trkpt lat="40.54861974902451" lon="14.229262070730329">
        <ele>495.69999999999999</ele>
        <time>2018-09-27T10:29:24Z</time>
      </trkpt>
      <trkpt lat="40.54855914786458" lon="14.229248240590096">
        <ele>495.22000000000003</ele>
        <time>2018-09-27T10:29:35Z</time>
      </trkpt>
      <trkpt lat="40.548501564189792" lon="14.229229632765055">
        <ele>495.69999999999999</ele>
        <time>2018-09-27T10:29:45Z</time>
      </trkpt>
      <trkpt lat="40.548469545319676" lon="14.229225777089596">
        <ele>495.69999999999999</ele>
        <time>2018-09-27T10:29:48Z</time>
      </trkpt>
      <trkpt lat="40.548391677439213" lon="14.229212617501616">
        <ele>495.22000000000003</ele>
        <time>2018-09-27T10:29:58Z</time>
      </trkpt>
      <trkpt lat="40.548303499817848" lon="14.229168444871902">
        <ele>494.25999999999999</ele>
        <time>2018-09-27T10:30:10Z</time>
      </trkpt>
      <trkpt lat="40.548242311924696" lon="14.229177413508296">
        <ele>494.74000000000001</ele>
        <time>2018-09-27T10:30:20Z</time>
      </trkpt>
      <trkpt lat="40.548207191750407" lon="14.229153273627162">
        <ele>494.74000000000001</ele>
        <time>2018-09-27T10:30:29Z</time>
      </trkpt>
      <trkpt lat="40.548167712986469" lon="14.229145478457212">
        <ele>494.74000000000001</ele>
        <time>2018-09-27T10:30:38Z</time>
      </trkpt>
      <trkpt lat="40.548096382990479" lon="14.229148412123322">
        <ele>494.74000000000001</ele>
        <time>2018-09-27T10:30:48Z</time>
      </trkpt>
      <trkpt lat="40.548015749081969" lon="14.229130642488599">
        <ele>494.25999999999999</ele>
        <time>2018-09-27T10:31:00Z</time>
      </trkpt>
      <trkpt lat="40.547900749370456" lon="14.229112789034843">
        <ele>494.25999999999999</ele>
        <time>2018-09-27T10:31:12Z</time>
      </trkpt>
      <trkpt lat="40.547826988622546" lon="14.229094767943025">
        <ele>494.25999999999999</ele>
        <time>2018-09-27T10:31:21Z</time>
      </trkpt>
      <trkpt lat="40.547819025814533" lon="14.229086469858885">
        <ele>494.25999999999999</ele>
        <time>2018-09-27T10:31:22Z</time>
      </trkpt>
      <trkpt lat="40.547736547887325" lon="14.229072472080588">
        <ele>494.25999999999999</ele>
        <time>2018-09-27T10:31:33Z</time>
      </trkpt>
      <trkpt lat="40.547622302547097" lon="14.229036681354046">
        <ele>495.22000000000003</ele>
        <time>2018-09-27T10:31:46Z</time>
      </trkpt>
      <trkpt lat="40.547527587041259" lon="14.229016480967402">
        <ele>494.25999999999999</ele>
        <time>2018-09-27T10:31:59Z</time>
      </trkpt>
      <trkpt lat="40.547473607584834" lon="14.228993514552712">
        <ele>493.76999999999998</ele>
        <time>2018-09-27T10:32:09Z</time>
      </trkpt>
      <trkpt lat="40.547423986718059" lon="14.228970631957054">
        <ele>493.29000000000002</ele>
        <time>2018-09-27T10:32:18Z</time>
      </trkpt>
      <trkpt lat="40.547354081645608" lon="14.228906678035855">
        <ele>492.32999999999998</ele>
        <time>2018-09-27T10:32:29Z</time>
      </trkpt>
      <trkpt lat="40.5473009403795" lon="14.228829732164741">
        <ele>490.88999999999999</ele>
        <time>2018-09-27T10:32:41Z</time>
      </trkpt>
      <trkpt lat="40.547218378633261" lon="14.228752115741372">
        <ele>488.49000000000001</ele>
        <time>2018-09-27T10:32:54Z</time>
      </trkpt>
      <trkpt lat="40.547179821878672" lon="14.228750271722674">
        <ele>488.49000000000001</ele>
        <time>2018-09-27T10:33:04Z</time>
      </trkpt>
      <trkpt lat="40.547148557379842" lon="14.228791929781437">
        <ele>488.00999999999999</ele>
        <time>2018-09-27T10:33:18Z</time>
      </trkpt>
      <trkpt lat="40.547102456912398" lon="14.22877499833703">
        <ele>488.97000000000003</ele>
        <time>2018-09-27T10:33:27Z</time>
      </trkpt>
      <trkpt lat="40.54713623598218" lon="14.228774914517999">
        <ele>488.49000000000001</ele>
        <time>2018-09-27T10:33:39Z</time>
      </trkpt>
      <trkpt lat="40.547100780531764" lon="14.228742644190788">
        <ele>488.49000000000001</ele>
        <time>2018-09-27T10:33:50Z</time>
      </trkpt>
      <trkpt lat="40.547100529074669" lon="14.228766364976764">
        <ele>488.49000000000001</ele>
        <time>2018-09-27T10:34:07Z</time>
      </trkpt>
      <trkpt lat="40.547111677005887" lon="14.228752618655562">
        <ele>488.49000000000001</ele>
        <time>2018-09-27T10:34:19Z</time>
      </trkpt>
      <trkpt lat="40.547107066959143" lon="14.228744572028518">
        <ele>488.97000000000003</ele>
        <time>2018-09-27T10:34:34Z</time>
      </trkpt>
      <trkpt lat="40.547086447477341" lon="14.228780614212155">
        <ele>488.97000000000003</ele>
        <time>2018-09-27T10:34:45Z</time>
      </trkpt>
      <trkpt lat="40.547069264575839" lon="14.228791259229183">
        <ele>488.97000000000003</ele>
        <time>2018-09-27T10:34:50Z</time>
      </trkpt>
      <trkpt lat="40.547014530748129" lon="14.228789582848549">
        <ele>488.49000000000001</ele>
        <time>2018-09-27T10:35:02Z</time>
      </trkpt>
      <trkpt lat="40.547008076682687" lon="14.228788409382105">
        <ele>488.49000000000001</ele>
        <time>2018-09-27T10:35:13Z</time>
      </trkpt>
      <trkpt lat="40.547079239040613" lon="14.228763766586781">
        <ele>488.97000000000003</ele>
        <time>2018-09-27T10:35:30Z</time>
      </trkpt>
      <trkpt lat="40.547091895714402" lon="14.228792432695627">
        <ele>488.49000000000001</ele>
        <time>2018-09-27T10:35:38Z</time>
      </trkpt>
      <trkpt lat="40.547134224325418" lon="14.228752618655562">
        <ele>488.49000000000001</ele>
        <time>2018-09-27T10:35:47Z</time>
      </trkpt>
      <trkpt lat="40.547142438590527" lon="14.228614149615169">
        <ele>487.05000000000001</ele>
        <time>2018-09-27T10:35:59Z</time>
      </trkpt>
      <trkpt lat="40.54712894372642" lon="14.228522032499313">
        <ele>484.63999999999999</ele>
        <time>2018-09-27T10:36:10Z</time>
      </trkpt>
      <trkpt lat="40.547111006453633" lon="14.228509208187461">
        <ele>484.16000000000003</ele>
        <time>2018-09-27T10:36:12Z</time>
      </trkpt>
      <trkpt lat="40.547030456364155" lon="14.228456653654575">
        <ele>482.72000000000003</ele>
        <time>2018-09-27T10:36:20Z</time>
      </trkpt>
      <trkpt lat="40.546980751678348" lon="14.228435531258583">
        <ele>482.24000000000001</ele>
        <time>2018-09-27T10:36:25Z</time>
      </trkpt>
      <trkpt lat="40.546839516609907" lon="14.228472411632538">
        <ele>481.75999999999999</ele>
        <time>2018-09-27T10:36:37Z</time>
      </trkpt>
      <trkpt lat="40.546730132773519" lon="14.22848716378212">
        <ele>482.24000000000001</ele>
        <time>2018-09-27T10:36:48Z</time>
      </trkpt>
      <trkpt lat="40.546667687594891" lon="14.228520020842552">
        <ele>482.72000000000003</ele>
        <time>2018-09-27T10:36:55Z</time>
      </trkpt>
      <trkpt lat="40.546624604612589" lon="14.228479536250234">
        <ele>482.72000000000003</ele>
        <time>2018-09-27T10:37:00Z</time>
      </trkpt>
      <trkpt lat="40.546656707301736" lon="14.228382725268602">
        <ele>482.72000000000003</ele>
        <time>2018-09-27T10:37:10Z</time>
      </trkpt>
      <trkpt lat="40.546653857454658" lon="14.228308042511344">
        <ele>481.75999999999999</ele>
        <time>2018-09-27T10:37:18Z</time>
      </trkpt>
      <trkpt lat="40.546669028699398" lon="14.228248111903667">
        <ele>480.80000000000001</ele>
        <time>2018-09-27T10:37:23Z</time>
      </trkpt>
      <trkpt lat="40.546624520793557" lon="14.228153815492988">
        <ele>480.31999999999999</ele>
        <time>2018-09-27T10:37:34Z</time>
      </trkpt>
      <trkpt lat="40.546558136120439" lon="14.228126658126712">
        <ele>480.80000000000001</ele>
        <time>2018-09-27T10:37:46Z</time>
      </trkpt>
      <trkpt lat="40.546525698155165" lon="14.228116180747747">
        <ele>481.27999999999997</ele>
        <time>2018-09-27T10:37:56Z</time>
      </trkpt>
      <trkpt lat="40.546518238261342" lon="14.228120790794492">
        <ele>480.80000000000001</ele>
        <time>2018-09-27T10:38:09Z</time>
      </trkpt>
      <trkpt lat="40.546484207734466" lon="14.228088101372123">
        <ele>481.27999999999997</ele>
        <time>2018-09-27T10:38:22Z</time>
      </trkpt>
      <trkpt lat="40.546453446149826" lon="14.228016519919038">
        <ele>482.24000000000001</ele>
        <time>2018-09-27T10:38:33Z</time>
      </trkpt>
      <trkpt lat="40.546412626281381" lon="14.227942004799843">
        <ele>482.72000000000003</ele>
        <time>2018-09-27T10:38:44Z</time>
      </trkpt>
      <trkpt lat="40.546402484178543" lon="14.227934628725052">
        <ele>483.19999999999999</ele>
        <time>2018-09-27T10:38:58Z</time>
      </trkpt>
      <trkpt lat="40.546421930193901" lon="14.227949799969792">
        <ele>483.68000000000001</ele>
        <time>2018-09-27T10:39:09Z</time>
      </trkpt>
      <trkpt lat="40.546422684565187" lon="14.227960277348757">
        <ele>483.68000000000001</ele>
        <time>2018-09-27T10:39:26Z</time>
      </trkpt>
      <trkpt lat="40.546422433108091" lon="14.227896155789495">
        <ele>483.68000000000001</ele>
        <time>2018-09-27T10:39:40Z</time>
      </trkpt>
      <trkpt lat="40.546428970992565" lon="14.227890037000179">
        <ele>484.16000000000003</ele>
        <time>2018-09-27T10:39:53Z</time>
      </trkpt>
      <trkpt lat="40.546425199136138" lon="14.227891629561782">
        <ele>483.68000000000001</ele>
        <time>2018-09-27T10:40:04Z</time>
      </trkpt>
      <trkpt lat="40.546396365389228" lon="14.227861035615206">
        <ele>484.16000000000003</ele>
        <time>2018-09-27T10:40:19Z</time>
      </trkpt>
      <trkpt lat="40.546393180266023" lon="14.227876039221883">
        <ele>485.12</ele>
        <time>2018-09-27T10:40:29Z</time>
      </trkpt>
      <trkpt lat="40.546398796141148" lon="14.227882828563452">
        <ele>486.07999999999998</ele>
        <time>2018-09-27T10:40:49Z</time>
      </trkpt>
      <trkpt lat="40.546401478350163" lon="14.227891881018877">
        <ele>484.63999999999999</ele>
        <time>2018-09-27T10:41:10Z</time>
      </trkpt>
      <trkpt lat="40.546391000971198" lon="14.22779724933207">
        <ele>485.12</ele>
        <time>2018-09-27T10:41:20Z</time>
      </trkpt>
      <trkpt lat="40.546395443379879" lon="14.22772441059351">
        <ele>486.07999999999998</ele>
        <time>2018-09-27T10:41:32Z</time>
      </trkpt>
      <trkpt lat="40.546374320983887" lon="14.227637154981494">
        <ele>488.00999999999999</ele>
        <time>2018-09-27T10:41:43Z</time>
      </trkpt>
      <trkpt lat="40.546344397589564" lon="14.227565489709377">
        <ele>489.44999999999999</ele>
        <time>2018-09-27T10:41:52Z</time>
      </trkpt>
      <trkpt lat="40.546327466145158" lon="14.227493070065975">
        <ele>490.41000000000003</ele>
        <time>2018-09-27T10:42:01Z</time>
      </trkpt>
      <trkpt lat="40.546333165839314" lon="14.22743758186698">
        <ele>491.37</ele>
        <time>2018-09-27T10:42:11Z</time>
      </trkpt>
      <trkpt lat="40.546320509165525" lon="14.227444287389517">
        <ele>491.37</ele>
        <time>2018-09-27T10:42:13Z</time>
      </trkpt>
      <trkpt lat="40.546271642670035" lon="14.227453926578164">
        <ele>491.85000000000002</ele>
        <time>2018-09-27T10:42:18Z</time>
      </trkpt>
      <trkpt lat="40.546225877478719" lon="14.227409921586514">
        <ele>492.32999999999998</ele>
        <time>2018-09-27T10:42:25Z</time>
      </trkpt>
      <trkpt lat="40.546170556917787" lon="14.227370610460639">
        <ele>492.81</ele>
        <time>2018-09-27T10:42:31Z</time>
      </trkpt>
      <trkpt lat="40.546094868332148" lon="14.227279415354133">
        <ele>493.29000000000002</ele>
        <time>2018-09-27T10:42:43Z</time>
      </trkpt>
      <trkpt lat="40.546061005443335" lon="14.227229375392199">
        <ele>496.66000000000003</ele>
        <time>2018-09-27T10:42:49Z</time>
      </trkpt>
      <trkpt lat="40.546056982129812" lon="14.227220406755805">
        <ele>492.32999999999998</ele>
        <time>2018-09-27T10:42:50Z</time>
      </trkpt>
      <trkpt lat="40.546060251072049" lon="14.227195680141449">
        <ele>494.25999999999999</ele>
        <time>2018-09-27T10:42:53Z</time>
      </trkpt>
      <trkpt lat="40.546054886654019" lon="14.227141616865993">
        <ele>495.69999999999999</ele>
        <time>2018-09-27T10:43:00Z</time>
      </trkpt>
      <trkpt lat="40.545993698760867" lon="14.22706475481391">
        <ele>496.66000000000003</ele>
        <time>2018-09-27T10:43:12Z</time>
      </trkpt>
      <trkpt lat="40.545919435098767" lon="14.226996693760157">
        <ele>498.10000000000002</ele>
        <time>2018-09-27T10:43:25Z</time>
      </trkpt>
      <trkpt lat="40.545880543068051" lon="14.226937098428607">
        <ele>499.54000000000002</ele>
        <time>2018-09-27T10:43:35Z</time>
      </trkpt>
      <trkpt lat="40.54583259858191" lon="14.226899296045303">
        <ele>500.5</ele>
        <time>2018-09-27T10:43:47Z</time>
      </trkpt>
      <trkpt lat="40.545781971886754" lon="14.22685956582427">
        <ele>500.98000000000002</ele>
        <time>2018-09-27T10:43:57Z</time>
      </trkpt>
      <trkpt lat="40.545707540586591" lon="14.226841125637293">
        <ele>500.01999999999998</ele>
        <time>2018-09-27T10:44:09Z</time>
      </trkpt>
      <trkpt lat="40.545658841729164" lon="14.226786224171519">
        <ele>501.94999999999999</ele>
        <time>2018-09-27T10:44:19Z</time>
      </trkpt>
      <trkpt lat="40.545602263882756" lon="14.22678530216217">
        <ele>502.43000000000001</ele>
        <time>2018-09-27T10:44:28Z</time>
      </trkpt>
      <trkpt lat="40.545546943321824" lon="14.226758647710085">
        <ele>502.91000000000003</ele>
        <time>2018-09-27T10:44:37Z</time>
      </trkpt>
      <trkpt lat="40.545502854511142" lon="14.226720510050654">
        <ele>504.35000000000002</ele>
        <time>2018-09-27T10:44:46Z</time>
      </trkpt>
      <trkpt lat="40.545461783185601" lon="14.226711876690388">
        <ele>504.35000000000002</ele>
        <time>2018-09-27T10:44:51Z</time>
      </trkpt>
      <trkpt lat="40.545420292764902" lon="14.226729813963175">
        <ele>504.35000000000002</ele>
        <time>2018-09-27T10:44:56Z</time>
      </trkpt>
      <trkpt lat="40.545329097658396" lon="14.226740123704076">
        <ele>504.35000000000002</ele>
        <time>2018-09-27T10:45:07Z</time>
      </trkpt>
      <trkpt lat="40.545236561447382" lon="14.226760575547814">
        <ele>504.82999999999998</ele>
        <time>2018-09-27T10:45:18Z</time>
      </trkpt>
      <trkpt lat="40.545168248936534" lon="14.226761665195227">
        <ele>505.31</ele>
        <time>2018-09-27T10:45:28Z</time>
      </trkpt>
      <trkpt lat="40.545138157904148" lon="14.226705674082041">
        <ele>504.82999999999998</ele>
        <time>2018-09-27T10:45:36Z</time>
      </trkpt>
      <trkpt lat="40.545117203146219" lon="14.226679690182209">
        <ele>506.26999999999998</ele>
        <time>2018-09-27T10:45:46Z</time>
      </trkpt>
      <trkpt lat="40.545072611421347" lon="14.226640462875366">
        <ele>507.23000000000002</ele>
        <time>2018-09-27T10:45:54Z</time>
      </trkpt>
      <trkpt lat="40.545041682198644" lon="14.226579023525119">
        <ele>508.19</ele>
        <time>2018-09-27T10:46:03Z</time>
      </trkpt>
      <trkpt lat="40.545006897300482" lon="14.226485062390566">
        <ele>509.63999999999999</ele>
        <time>2018-09-27T10:46:16Z</time>
      </trkpt>
      <trkpt lat="40.544967921450734" lon="14.226439213380218">
        <ele>510.60000000000002</ele>
        <time>2018-09-27T10:46:26Z</time>
      </trkpt>
      <trkpt lat="40.544921653345227" lon="14.226441560313106">
        <ele>511.07999999999998</ele>
        <time>2018-09-27T10:46:35Z</time>
      </trkpt>
      <trkpt lat="40.544896339997649" lon="14.226390011608601">
        <ele>511.56</ele>
        <time>2018-09-27T10:46:43Z</time>
      </trkpt>
      <trkpt lat="40.544872535392642" lon="14.226350700482726">
        <ele>513</ele>
        <time>2018-09-27T10:46:52Z</time>
      </trkpt>
      <trkpt lat="40.544857028871775" lon="14.226309210062027">
        <ele>513</ele>
        <time>2018-09-27T10:47:04Z</time>
      </trkpt>
      <trkpt lat="40.544850993901491" lon="14.226257912814617">
        <ele>513.96000000000004</ele>
        <time>2018-09-27T10:47:14Z</time>
      </trkpt>
      <trkpt lat="40.54483825340867" lon="14.226227905601263">
        <ele>515.39999999999998</ele>
        <time>2018-09-27T10:47:26Z</time>
      </trkpt>
      <trkpt lat="40.544831966981292" lon="14.226179039105773">
        <ele>516.37</ele>
        <time>2018-09-27T10:47:38Z</time>
      </trkpt>
      <trkpt lat="40.544843785464764" lon="14.226138386875391">
        <ele>517.33000000000004</ele>
        <time>2018-09-27T10:47:47Z</time>
      </trkpt>
      <trkpt lat="40.544828278943896" lon="14.226141823455691">
        <ele>518.28999999999996</ele>
        <time>2018-09-27T10:47:56Z</time>
      </trkpt>
      <trkpt lat="40.544825764372945" lon="14.226140063256025">
        <ele>518.76999999999998</ele>
        <time>2018-09-27T10:48:06Z</time>
      </trkpt>
      <trkpt lat="40.544792572036386" lon="14.226081809028983">
        <ele>519.73000000000002</ele>
        <time>2018-09-27T10:48:21Z</time>
      </trkpt>
      <trkpt lat="40.544778574258089" lon="14.22606747597456">
        <ele>520.21000000000004</ele>
        <time>2018-09-27T10:48:31Z</time>
      </trkpt>
      <trkpt lat="40.544782346114516" lon="14.226049538701773">
        <ele>520.69000000000005</ele>
        <time>2018-09-27T10:48:42Z</time>
      </trkpt>
      <trkpt lat="40.544780753552914" lon="14.226043755188584">
        <ele>519.73000000000002</ele>
        <time>2018-09-27T10:49:04Z</time>
      </trkpt>
      <trkpt lat="40.544770946726203" lon="14.226032691076398">
        <ele>520.69000000000005</ele>
        <time>2018-09-27T10:49:13Z</time>
      </trkpt>
      <trkpt lat="40.544771198183298" lon="14.225986003875732">
        <ele>521.16999999999996</ele>
        <time>2018-09-27T10:49:27Z</time>
      </trkpt>
      <trkpt lat="40.54478251375258" lon="14.225950632244349">
        <ele>522.13</ele>
        <time>2018-09-27T10:49:36Z</time>
      </trkpt>
      <trkpt lat="40.544811179861426" lon="14.225936634466052">
        <ele>523.09000000000003</ele>
        <time>2018-09-27T10:49:45Z</time>
      </trkpt>
      <trkpt lat="40.544815538451076" lon="14.225913500413299">
        <ele>523.58000000000004</ele>
        <time>2018-09-27T10:50:04Z</time>
      </trkpt>
      <trkpt lat="40.544823249801993" lon="14.22588181681931">
        <ele>524.53999999999996</ele>
        <time>2018-09-27T10:50:13Z</time>
      </trkpt>
      <trkpt lat="40.544837834313512" lon="14.225855581462383">
        <ele>525.01999999999998</ele>
        <time>2018-09-27T10:50:34Z</time>
      </trkpt>
      <trkpt lat="40.544871194288135" lon="14.225796405225992">
        <ele>525.5</ele>
        <time>2018-09-27T10:50:44Z</time>
      </trkpt>
      <trkpt lat="40.544868679717183" lon="14.225766733288765">
        <ele>527.41999999999996</ele>
        <time>2018-09-27T10:50:48Z</time>
      </trkpt>
      <trkpt lat="40.544890556484461" lon="14.225718872621655">
        <ele>529.34000000000003</ele>
        <time>2018-09-27T10:50:58Z</time>
      </trkpt>
      <trkpt lat="40.544933890923858" lon="14.225681824609637">
        <ele>530.78999999999996</ele>
        <time>2018-09-27T10:51:07Z</time>
      </trkpt>
      <trkpt lat="40.544910002499819" lon="14.225627174600959">
        <ele>532.23000000000002</ele>
        <time>2018-09-27T10:51:16Z</time>
      </trkpt>
      <trkpt lat="40.544933388009667" lon="14.22561845742166">
        <ele>533.19000000000005</ele>
        <time>2018-09-27T10:51:25Z</time>
      </trkpt>
      <trkpt lat="40.544964903965592" lon="14.225587528198957">
        <ele>534.63</ele>
        <time>2018-09-27T10:51:35Z</time>
      </trkpt>
      <trkpt lat="40.544964065775275" lon="14.22556372359395">
        <ele>535.11000000000001</ele>
        <time>2018-09-27T10:51:42Z</time>
      </trkpt>
      <trkpt lat="40.545006226748228" lon="14.225548971444368">
        <ele>536.07000000000005</ele>
        <time>2018-09-27T10:51:58Z</time>
      </trkpt>
      <trkpt lat="40.545047298073769" lon="14.225515862926841">
        <ele>537.02999999999997</ele>
        <time>2018-09-27T10:52:07Z</time>
      </trkpt>
      <trkpt lat="40.545075125992298" lon="14.225530447438359">
        <ele>537.50999999999999</ele>
        <time>2018-09-27T10:52:19Z</time>
      </trkpt>
      <trkpt lat="40.545063391327858" lon="14.225449729710817">
        <ele>539.44000000000005</ele>
        <time>2018-09-27T10:52:30Z</time>
      </trkpt>
      <trkpt lat="40.545071437954903" lon="14.225394325330853">
        <ele>541.36000000000001</ele>
        <time>2018-09-27T10:52:38Z</time>
      </trkpt>
      <trkpt lat="40.545063558965921" lon="14.225364904850721">
        <ele>542.32000000000005</ele>
        <time>2018-09-27T10:52:45Z</time>
      </trkpt>
      <trkpt lat="40.545072192326188" lon="14.225336825475097">
        <ele>543.27999999999997</ele>
        <time>2018-09-27T10:52:56Z</time>
      </trkpt>
      <trkpt lat="40.54509473964572" lon="14.225337747484446">
        <ele>544.24000000000001</ele>
        <time>2018-09-27T10:53:05Z</time>
      </trkpt>
      <trkpt lat="40.545085771009326" lon="14.225325174629688">
        <ele>543.75999999999999</ele>
        <time>2018-09-27T10:53:29Z</time>
      </trkpt>
      <trkpt lat="40.545096332207322" lon="14.225235152989626">
        <ele>545.69000000000005</ele>
        <time>2018-09-27T10:53:41Z</time>
      </trkpt>
      <trkpt lat="40.545094907283783" lon="14.225152675062418">
        <ele>548.57000000000005</ele>
        <time>2018-09-27T10:53:50Z</time>
      </trkpt>
      <trkpt lat="40.545080741867423" lon="14.22510732896626">
        <ele>550.00999999999999</ele>
        <time>2018-09-27T10:53:58Z</time>
      </trkpt>
      <trkpt lat="40.545078730210662" lon="14.225103557109833">
        <ele>550.49000000000001</ele>
        <time>2018-09-27T10:53:59Z</time>
      </trkpt>
      <trkpt lat="40.545074874535203" lon="14.225087380036712">
        <ele>551.45000000000005</ele>
        <time>2018-09-27T10:54:07Z</time>
      </trkpt>
      <trkpt lat="40.545064145699143" lon="14.225083943456411">
        <ele>551.45000000000005</ele>
        <time>2018-09-27T10:54:17Z</time>
      </trkpt>
      <trkpt lat="40.545106390491128" lon="14.225048068910837">
        <ele>552.40999999999997</ele>
        <time>2018-09-27T10:54:25Z</time>
      </trkpt>
      <trkpt lat="40.545149389654398" lon="14.225020492449403">
        <ele>553.38</ele>
        <time>2018-09-27T10:54:35Z</time>
      </trkpt>
      <trkpt lat="40.545160621404648" lon="14.224994676187634">
        <ele>554.34000000000003</ele>
        <time>2018-09-27T10:54:43Z</time>
      </trkpt>
      <trkpt lat="40.545155173167586" lon="14.224924184381962">
        <ele>555.77999999999997</ele>
        <time>2018-09-27T10:54:52Z</time>
      </trkpt>
      <trkpt lat="40.545180821791291" lon="14.224849501624703">
        <ele>558.17999999999995</ele>
        <time>2018-09-27T10:55:04Z</time>
      </trkpt>
      <trkpt lat="40.545169003307819" lon="14.224792756140232">
        <ele>559.62</ele>
        <time>2018-09-27T10:55:13Z</time>
      </trkpt>
      <trkpt lat="40.545160789042711" lon="14.224756630137563">
        <ele>561.54999999999995</ele>
        <time>2018-09-27T10:55:21Z</time>
      </trkpt>
      <trkpt lat="40.545179983600974" lon="14.224710529670119">
        <ele>562.02999999999997</ele>
        <time>2018-09-27T10:55:30Z</time>
      </trkpt>
      <trkpt lat="40.545190460979939" lon="14.224664429202676">
        <ele>563.95000000000005</ele>
        <time>2018-09-27T10:55:40Z</time>
      </trkpt>
      <trkpt lat="40.545199848711491" lon="14.224615059792995">
        <ele>564.90999999999997</ele>
        <time>2018-09-27T10:55:49Z</time>
      </trkpt>
      <trkpt lat="40.545233879238367" lon="14.224573234096169">
        <ele>566.35000000000002</ele>
        <time>2018-09-27T10:55:58Z</time>
      </trkpt>
      <trkpt lat="40.545286852866411" lon="14.224541131407022">
        <ele>566.83000000000004</ele>
        <time>2018-09-27T10:56:08Z</time>
      </trkpt>
      <trkpt lat="40.545332869514823" lon="14.22452587634325">
        <ele>567.79999999999995</ele>
        <time>2018-09-27T10:56:17Z</time>
      </trkpt>
      <trkpt lat="40.54538743570447" lon="14.224495030939579">
        <ele>568.27999999999997</ele>
        <time>2018-09-27T10:56:27Z</time>
      </trkpt>
      <trkpt lat="40.54546270519495" lon="14.224498383700848">
        <ele>568.75999999999999</ele>
        <time>2018-09-27T10:56:39Z</time>
      </trkpt>
      <trkpt lat="40.54549053311348" lon="14.224458402022719">
        <ele>569.24000000000001</ele>
        <time>2018-09-27T10:56:49Z</time>
      </trkpt>
      <trkpt lat="40.545527329668403" lon="14.224436273798347">
        <ele>570.67999999999995</ele>
        <time>2018-09-27T10:56:58Z</time>
      </trkpt>
      <trkpt lat="40.545544093474746" lon="14.22443644143641">
        <ele>570.67999999999995</ele>
        <time>2018-09-27T10:57:09Z</time>
      </trkpt>
      <trkpt lat="40.545563204213977" lon="14.224411882460117">
        <ele>571.15999999999997</ele>
        <time>2018-09-27T10:57:18Z</time>
      </trkpt>
      <trkpt lat="40.545576028525829" lon="14.224388413131237">
        <ele>572.60000000000002</ele>
        <time>2018-09-27T10:57:23Z</time>
      </trkpt>
      <trkpt lat="40.545571586117148" lon="14.224331583827734">
        <ele>573.08000000000004</ele>
        <time>2018-09-27T10:57:33Z</time>
      </trkpt>
      <trkpt lat="40.545592624694109" lon="14.22428447753191">
        <ele>574.52999999999997</ele>
        <time>2018-09-27T10:57:41Z</time>
      </trkpt>
      <trkpt lat="40.545603940263391" lon="14.224212476983666">
        <ele>575.49000000000001</ele>
        <time>2018-09-27T10:57:51Z</time>
      </trkpt>
      <trkpt lat="40.545612657442689" lon="14.224169058725238">
        <ele>576.45000000000005</ele>
        <time>2018-09-27T10:57:59Z</time>
      </trkpt>
      <trkpt lat="40.545620955526829" lon="14.224115833640099">
        <ele>577.88999999999999</ele>
        <time>2018-09-27T10:58:09Z</time>
      </trkpt>
      <trkpt lat="40.545621709898114" lon="14.224081635475159">
        <ele>578.85000000000002</ele>
        <time>2018-09-27T10:58:19Z</time>
      </trkpt>
      <trkpt lat="40.545634031295776" lon="14.224008210003376">
        <ele>580.28999999999996</ele>
        <time>2018-09-27T10:58:29Z</time>
      </trkpt>
      <trkpt lat="40.54564107209444" lon="14.22393461689353">
        <ele>581.25</ele>
        <time>2018-09-27T10:58:40Z</time>
      </trkpt>
      <trkpt lat="40.545590948313475" lon="14.223913410678506">
        <ele>582.22000000000003</ele>
        <time>2018-09-27T10:58:51Z</time>
      </trkpt>
      <trkpt lat="40.545561779290438" lon="14.223915254697204">
        <ele>582.70000000000005</ele>
        <time>2018-09-27T10:59:01Z</time>
      </trkpt>
      <trkpt lat="40.545527916401625" lon="14.223891198635101">
        <ele>584.13999999999999</ele>
        <time>2018-09-27T10:59:11Z</time>
      </trkpt>
      <trkpt lat="40.545561108738184" lon="14.223818359896541">
        <ele>584.62</ele>
        <time>2018-09-27T10:59:19Z</time>
      </trkpt>
      <trkpt lat="40.545497741550207" lon="14.223791873082519">
        <ele>585.58000000000004</ele>
        <time>2018-09-27T10:59:30Z</time>
      </trkpt>
      <trkpt lat="40.545479636639357" lon="14.223781982436776">
        <ele>586.05999999999995</ele>
        <time>2018-09-27T10:59:42Z</time>
      </trkpt>
      <trkpt lat="40.545490952208638" lon="14.223728673532605">
        <ele>586.05999999999995</ele>
        <time>2018-09-27T10:59:53Z</time>
      </trkpt>
      <trkpt lat="40.545476535335183" lon="14.2237030249089">
        <ele>585.58000000000004</ele>
        <time>2018-09-27T11:00:04Z</time>
      </trkpt>
      <trkpt lat="40.545456167310476" lon="14.22368542291224">
        <ele>586.05999999999995</ele>
        <time>2018-09-27T11:00:16Z</time>
      </trkpt>
      <trkpt lat="40.545416017994285" lon="14.223693553358316">
        <ele>587.01999999999998</ele>
        <time>2018-09-27T11:00:25Z</time>
      </trkpt>
      <trkpt lat="40.545382909476757" lon="14.223644938319921">
        <ele>587.98000000000002</ele>
        <time>2018-09-27T11:00:35Z</time>
      </trkpt>
      <trkpt lat="40.54535960778594" lon="14.223593641072512">
        <ele>589.42999999999995</ele>
        <time>2018-09-27T11:00:46Z</time>
      </trkpt>
      <trkpt lat="40.545329600572586" lon="14.22359406016767">
        <ele>591.35000000000002</ele>
        <time>2018-09-27T11:00:57Z</time>
      </trkpt>
      <trkpt lat="40.545318368822336" lon="14.223600681871176">
        <ele>591.83000000000004</ele>
        <time>2018-09-27T11:00:59Z</time>
      </trkpt>
      <trkpt lat="40.545295318588614" lon="14.223614763468504">
        <ele>591.83000000000004</ele>
        <time>2018-09-27T11:01:02Z</time>
      </trkpt>
      <trkpt lat="40.54520471021533" lon="14.223655499517918">
        <ele>591.83000000000004</ele>
        <time>2018-09-27T11:01:15Z</time>
      </trkpt>
      <trkpt lat="40.545158023014665" lon="14.223593976348639">
        <ele>591.83000000000004</ele>
        <time>2018-09-27T11:01:25Z</time>
      </trkpt>
      <trkpt lat="40.545116532593966" lon="14.223538739606738">
        <ele>594.71000000000004</ele>
        <time>2018-09-27T11:01:36Z</time>
      </trkpt>
      <trkpt lat="40.545107899233699" lon="14.22348408959806">
        <ele>595.66999999999996</ele>
        <time>2018-09-27T11:01:44Z</time>
      </trkpt>
      <trkpt lat="40.545118795707822" lon="14.223461877554655">
        <ele>595.66999999999996</ele>
        <time>2018-09-27T11:01:46Z</time>
      </trkpt>
      <trkpt lat="40.545214936137199" lon="14.223472690209746">
        <ele>595.19000000000005</ele>
        <time>2018-09-27T11:01:58Z</time>
      </trkpt>
      <trkpt lat="40.545264389365911" lon="14.223448969423771">
        <ele>595.19000000000005</ele>
        <time>2018-09-27T11:02:10Z</time>
      </trkpt>
      <trkpt lat="40.54526824504137" lon="14.223448550328612">
        <ele>594.71000000000004</ele>
        <time>2018-09-27T11:02:22Z</time>
      </trkpt>
      <trkpt lat="40.545272184535861" lon="14.223456596955657">
        <ele>595.19000000000005</ele>
        <time>2018-09-27T11:02:38Z</time>
      </trkpt>
      <trkpt lat="40.545271849259734" lon="14.223487609997392">
        <ele>595.66999999999996</ele>
        <time>2018-09-27T11:02:49Z</time>
      </trkpt>
      <trkpt lat="40.545205632224679" lon="14.223485933616757">
        <ele>595.19000000000005</ele>
        <time>2018-09-27T11:02:58Z</time>
      </trkpt>
      <trkpt lat="40.545195573940873" lon="14.223476210609078">
        <ele>595.19000000000005</ele>
        <time>2018-09-27T11:02:59Z</time>
      </trkpt>
      <trkpt lat="40.545150814577937" lon="14.223318044096231">
        <ele>596.14999999999998</ele>
        <time>2018-09-27T11:03:11Z</time>
      </trkpt>
      <trkpt lat="40.545117370784283" lon="14.223262555897236">
        <ele>596.14999999999998</ele>
        <time>2018-09-27T11:03:16Z</time>
      </trkpt>
      <trkpt lat="40.545106725767255" lon="14.223239086568356">
        <ele>596.14999999999998</ele>
        <time>2018-09-27T11:03:18Z</time>
      </trkpt>
      <trkpt lat="40.545080741867423" lon="14.223184939473867">
        <ele>595.66999999999996</ele>
        <time>2018-09-27T11:03:29Z</time>
      </trkpt>
      <trkpt lat="40.54509767331183" lon="14.223235063254833">
        <ele>596.14999999999998</ele>
        <time>2018-09-27T11:03:45Z</time>
      </trkpt>
      <trkpt lat="40.545134972780943" lon="14.223218970000744">
        <ele>595.66999999999996</ele>
        <time>2018-09-27T11:03:55Z</time>
      </trkpt>
      <trkpt lat="40.545132458209991" lon="14.22318996861577">
        <ele>596.14999999999998</ele>
        <time>2018-09-27T11:04:08Z</time>
      </trkpt>
      <trkpt lat="40.545128434896469" lon="14.223229279741645">
        <ele>595.66999999999996</ele>
        <time>2018-09-27T11:04:11Z</time>
      </trkpt>
      <trkpt lat="40.545132122933865" lon="14.223258448764682">
        <ele>595.66999999999996</ele>
        <time>2018-09-27T11:04:13Z</time>
      </trkpt>
      <trkpt lat="40.545167746022344" lon="14.223329275846481">
        <ele>595.66999999999996</ele>
        <time>2018-09-27T11:04:19Z</time>
      </trkpt>
      <trkpt lat="40.54519641213119" lon="14.22335903160274">
        <ele>595.66999999999996</ele>
        <time>2018-09-27T11:04:31Z</time>
      </trkpt>
      <trkpt lat="40.545151904225349" lon="14.223332712426782">
        <ele>595.19000000000005</ele>
        <time>2018-09-27T11:04:43Z</time>
      </trkpt>
      <trkpt lat="40.545112676918507" lon="14.223312176764011">
        <ele>595.19000000000005</ele>
        <time>2018-09-27T11:04:55Z</time>
      </trkpt>
      <trkpt lat="40.545115359127522" lon="14.223294574767351">
        <ele>595.19000000000005</ele>
        <time>2018-09-27T11:05:04Z</time>
      </trkpt>
      <trkpt lat="40.54509473964572" lon="14.223265741020441">
        <ele>595.66999999999996</ele>
        <time>2018-09-27T11:05:13Z</time>
      </trkpt>
      <trkpt lat="40.54509867914021" lon="14.223271356895566">
        <ele>595.66999999999996</ele>
        <time>2018-09-27T11:05:14Z</time>
      </trkpt>
      <trkpt lat="40.545071186497808" lon="14.223252749070525">
        <ele>595.66999999999996</ele>
        <time>2018-09-27T11:05:18Z</time>
      </trkpt>
      <trkpt lat="40.545025924220681" lon="14.223184855654836">
        <ele>594.23000000000002</ele>
        <time>2018-09-27T11:05:28Z</time>
      </trkpt>
      <trkpt lat="40.545036904513836" lon="14.223194997757673">
        <ele>594.23000000000002</ele>
        <time>2018-09-27T11:05:44Z</time>
      </trkpt>
      <trkpt lat="40.545058948919177" lon="14.223192650824785">
        <ele>594.23000000000002</ele>
        <time>2018-09-27T11:06:19Z</time>
      </trkpt>
      <trkpt lat="40.545059451833367" lon="14.223204301670194">
        <ele>594.23000000000002</ele>
        <time>2018-09-27T11:06:42Z</time>
      </trkpt>
      <trkpt lat="40.545048639178276" lon="14.223203882575035">
        <ele>594.23000000000002</ele>
        <time>2018-09-27T11:07:08Z</time>
      </trkpt>
      <trkpt lat="40.545057440176606" lon="14.223203295841813">
        <ele>594.71000000000004</ele>
        <time>2018-09-27T11:07:31Z</time>
      </trkpt>
      <trkpt lat="40.545058026909828" lon="14.223209749907255">
        <ele>594.71000000000004</ele>
        <time>2018-09-27T11:07:58Z</time>
      </trkpt>
      <trkpt lat="40.545058697462082" lon="14.223220478743315">
        <ele>594.71000000000004</ele>
        <time>2018-09-27T11:08:27Z</time>
      </trkpt>
      <trkpt lat="40.545063391327858" lon="14.223210336640477">
        <ele>594.71000000000004</ele>
        <time>2018-09-27T11:08:55Z</time>
      </trkpt>
      <trkpt lat="40.545070180669427" lon="14.223218467086554">
        <ele>595.19000000000005</ele>
        <time>2018-09-27T11:09:25Z</time>
      </trkpt>
      <trkpt lat="40.545068755745888" lon="14.223217209801078">
        <ele>595.19000000000005</ele>
        <time>2018-09-27T11:09:49Z</time>
      </trkpt>
      <trkpt lat="40.54506104439497" lon="14.223223580047488">
        <ele>594.71000000000004</ele>
        <time>2018-09-27T11:10:20Z</time>
      </trkpt>
      <trkpt lat="40.545070096850395" lon="14.223210839554667">
        <ele>595.19000000000005</ele>
        <time>2018-09-27T11:10:52Z</time>
      </trkpt>
      <trkpt lat="40.545073868706822" lon="14.22321192920208">
        <ele>595.19000000000005</ele>
        <time>2018-09-27T11:11:26Z</time>
      </trkpt>
      <trkpt lat="40.5450698453933" lon="14.223203212022781">
        <ele>595.19000000000005</ele>
        <time>2018-09-27T11:11:53Z</time>
      </trkpt>
      <trkpt lat="40.545060206204653" lon="14.223209163174033">
        <ele>595.66999999999996</ele>
        <time>2018-09-27T11:12:20Z</time>
      </trkpt>
      <trkpt lat="40.545053416863084" lon="14.223208660259843">
        <ele>595.19000000000005</ele>
        <time>2018-09-27T11:12:46Z</time>
      </trkpt>
      <trkpt lat="40.545055847615004" lon="14.223209163174033">
        <ele>595.66999999999996</ele>
        <time>2018-09-27T11:13:07Z</time>
      </trkpt>
      <trkpt lat="40.545060290023685" lon="14.223207570612431">
        <ele>596.14999999999998</ele>
        <time>2018-09-27T11:13:30Z</time>
      </trkpt>
      <trkpt lat="40.545054003596306" lon="14.223197344690561">
        <ele>596.14999999999998</ele>
        <time>2018-09-27T11:13:58Z</time>
      </trkpt>
      <trkpt lat="40.545057523995638" lon="14.223201116546988">
        <ele>596.14999999999998</ele>
        <time>2018-09-27T11:14:16Z</time>
      </trkpt>
      <trkpt lat="40.545063307508826" lon="14.223195081576705">
        <ele>595.66999999999996</ele>
        <time>2018-09-27T11:14:43Z</time>
      </trkpt>
      <trkpt lat="40.545062134042382" lon="14.223191980272532">
        <ele>595.66999999999996</ele>
        <time>2018-09-27T11:15:05Z</time>
      </trkpt>
      <trkpt lat="40.545057691633701" lon="14.223197428509593">
        <ele>595.66999999999996</ele>
        <time>2018-09-27T11:15:33Z</time>
      </trkpt>
      <trkpt lat="40.545053081586957" lon="14.223193237558007">
        <ele>595.66999999999996</ele>
        <time>2018-09-27T11:15:58Z</time>
      </trkpt>
      <trkpt lat="40.545049477368593" lon="14.223201368004084">
        <ele>595.66999999999996</ele>
        <time>2018-09-27T11:16:19Z</time>
      </trkpt>
      <trkpt lat="40.545057188719511" lon="14.223200948908925">
        <ele>596.14999999999998</ele>
        <time>2018-09-27T11:16:42Z</time>
      </trkpt>
      <trkpt lat="40.545059619471431" lon="14.223198853433132">
        <ele>596.63999999999999</ele>
        <time>2018-09-27T11:17:04Z</time>
      </trkpt>
      <trkpt lat="40.545057188719511" lon="14.223196925595403">
        <ele>596.63999999999999</ele>
        <time>2018-09-27T11:17:27Z</time>
      </trkpt>
      <trkpt lat="40.545068504288793" lon="14.223199104890227">
        <ele>596.14999999999998</ele>
        <time>2018-09-27T11:17:47Z</time>
      </trkpt>
      <trkpt lat="40.545065989717841" lon="14.223199943080544">
        <ele>596.63999999999999</ele>
        <time>2018-09-27T11:18:11Z</time>
      </trkpt>
      <trkpt lat="40.545061212033033" lon="14.223201870918274">
        <ele>596.14999999999998</ele>
        <time>2018-09-27T11:18:32Z</time>
      </trkpt>
      <trkpt lat="40.545063307508826" lon="14.223213521763682">
        <ele>596.14999999999998</ele>
        <time>2018-09-27T11:18:59Z</time>
      </trkpt>
      <trkpt lat="40.545066576451063" lon="14.223209666088223">
        <ele>595.66999999999996</ele>
        <time>2018-09-27T11:19:22Z</time>
      </trkpt>
      <trkpt lat="40.545060373842716" lon="14.223200865089893">
        <ele>595.66999999999996</ele>
        <time>2018-09-27T11:19:46Z</time>
      </trkpt>
      <trkpt lat="40.545065402984619" lon="14.223198685795069">
        <ele>595.66999999999996</ele>
        <time>2018-09-27T11:20:18Z</time>
      </trkpt>
      <trkpt lat="40.545067666098475" lon="14.22319776378572">
        <ele>596.14999999999998</ele>
        <time>2018-09-27T11:20:45Z</time>
      </trkpt>
      <trkpt lat="40.545059451833367" lon="14.223201032727957">
        <ele>595.66999999999996</ele>
        <time>2018-09-27T11:21:08Z</time>
      </trkpt>
      <trkpt lat="40.545060960575938" lon="14.223188543692231">
        <ele>596.14999999999998</ele>
        <time>2018-09-27T11:21:32Z</time>
      </trkpt>
      <trkpt lat="40.545072443783283" lon="14.223195500671864">
        <ele>596.14999999999998</ele>
        <time>2018-09-27T11:21:59Z</time>
      </trkpt>
      <trkpt lat="40.545060709118843" lon="14.223200026899576">
        <ele>596.63999999999999</ele>
        <time>2018-09-27T11:22:26Z</time>
      </trkpt>
      <trkpt lat="40.545058362185955" lon="14.22320069745183">
        <ele>596.63999999999999</ele>
        <time>2018-09-27T11:22:50Z</time>
      </trkpt>
      <trkpt lat="40.545068085193634" lon="14.223207822069526">
        <ele>588.95000000000005</ele>
        <time>2018-09-27T11:22:58Z</time>
      </trkpt>
      <trkpt lat="40.545067749917507" lon="14.223206145688891">
        <ele>593.75</ele>
        <time>2018-09-27T11:22:59Z</time>
      </trkpt>
      <trkpt lat="40.545066241174936" lon="14.223204469308257">
        <ele>598.08000000000004</ele>
        <time>2018-09-27T11:23:00Z</time>
      </trkpt>
      <trkpt lat="40.545064900070429" lon="14.223204469308257">
        <ele>597.12</ele>
        <time>2018-09-27T11:23:01Z</time>
      </trkpt>
      <trkpt lat="40.545061463490129" lon="14.223184520378709">
        <ele>596.63999999999999</ele>
        <time>2018-09-27T11:23:32Z</time>
      </trkpt>
      <trkpt lat="40.545086357742548" lon="14.223198099061847">
        <ele>596.14999999999998</ele>
        <time>2018-09-27T11:23:57Z</time>
      </trkpt>
      <trkpt lat="40.545086022466421" lon="14.223205307498574">
        <ele>601.44000000000005</ele>
        <time>2018-09-27T11:24:01Z</time>
      </trkpt>
      <trkpt lat="40.545086273923516" lon="14.223207402974367">
        <ele>597.12</ele>
        <time>2018-09-27T11:24:02Z</time>
      </trkpt>
      <trkpt lat="40.54508350789547" lon="14.223204217851162">
        <ele>596.63999999999999</ele>
        <time>2018-09-27T11:24:04Z</time>
      </trkpt>
      <trkpt lat="40.545066744089127" lon="14.223197931423783">
        <ele>596.63999999999999</ele>
        <time>2018-09-27T11:24:25Z</time>
      </trkpt>
      <trkpt lat="40.545058026909828" lon="14.223215533420444">
        <ele>596.63999999999999</ele>
        <time>2018-09-27T11:24:48Z</time>
      </trkpt>
      <trkpt lat="40.54505911655724" lon="14.223221652209759">
        <ele>596.14999999999998</ele>
        <time>2018-09-27T11:25:17Z</time>
      </trkpt>
      <trkpt lat="40.545049225911498" lon="14.223210336640477">
        <ele>596.63999999999999</ele>
        <time>2018-09-27T11:25:46Z</time>
      </trkpt>
      <trkpt lat="40.545056853443384" lon="14.223202122375369">
        <ele>596.63999999999999</ele>
        <time>2018-09-27T11:26:05Z</time>
      </trkpt>
      <trkpt lat="40.545040257275105" lon="14.223187537863851">
        <ele>596.63999999999999</ele>
        <time>2018-09-27T11:26:17Z</time>
      </trkpt>
      <trkpt lat="40.545036653056741" lon="14.223195919767022">
        <ele>596.63999999999999</ele>
        <time>2018-09-27T11:26:33Z</time>
      </trkpt>
      <trkpt lat="40.545044280588627" lon="14.223190387710929">
        <ele>596.14999999999998</ele>
        <time>2018-09-27T11:26:49Z</time>
      </trkpt>
      <trkpt lat="40.545064397156239" lon="14.223192147910595">
        <ele>596.14999999999998</ele>
        <time>2018-09-27T11:27:11Z</time>
      </trkpt>
      <trkpt lat="40.545043023303151" lon="14.223181670531631">
        <ele>596.63999999999999</ele>
        <time>2018-09-27T11:27:25Z</time>
      </trkpt>
      <trkpt lat="40.545042268931866" lon="14.223183263093233">
        <ele>597.12</ele>
        <time>2018-09-27T11:27:39Z</time>
      </trkpt>
      <trkpt lat="40.545043107122183" lon="14.223186364397407">
        <ele>597.12</ele>
        <time>2018-09-27T11:28:00Z</time>
      </trkpt>
      <trkpt lat="40.54505031555891" lon="14.223201954737306">
        <ele>597.12</ele>
        <time>2018-09-27T11:28:23Z</time>
      </trkpt>
      <trkpt lat="40.545058948919177" lon="14.223172953352332">
        <ele>597.60000000000002</ele>
        <time>2018-09-27T11:28:45Z</time>
      </trkpt>
      <trkpt lat="40.545036401599646" lon="14.223188376054168">
        <ele>597.60000000000002</ele>
        <time>2018-09-27T11:29:05Z</time>
      </trkpt>
      <trkpt lat="40.545055847615004" lon="14.22319432720542">
        <ele>597.60000000000002</ele>
        <time>2018-09-27T11:29:18Z</time>
      </trkpt>
      <trkpt lat="40.545064145699143" lon="14.22320019453764">
        <ele>597.60000000000002</ele>
        <time>2018-09-27T11:29:36Z</time>
      </trkpt>
      <trkpt lat="40.545062888413668" lon="14.223181838169694">
        <ele>597.60000000000002</ele>
        <time>2018-09-27T11:29:48Z</time>
      </trkpt>
      <trkpt lat="40.545060709118843" lon="14.223185442388058">
        <ele>597.60000000000002</ele>
        <time>2018-09-27T11:30:04Z</time>
      </trkpt>
      <trkpt lat="40.545036401599646" lon="14.22317136079073">
        <ele>597.60000000000002</ele>
        <time>2018-09-27T11:30:19Z</time>
      </trkpt>
      <trkpt lat="40.545046208426356" lon="14.223182173445821">
        <ele>597.12</ele>
        <time>2018-09-27T11:30:30Z</time>
      </trkpt>
      <trkpt lat="40.545040173456073" lon="14.223179910331964">
        <ele>597.12</ele>
        <time>2018-09-27T11:30:48Z</time>
      </trkpt>
      <trkpt lat="40.545041346922517" lon="14.223177563399076">
        <ele>597.12</ele>
        <time>2018-09-27T11:31:11Z</time>
      </trkpt>
      <trkpt lat="40.545037742704153" lon="14.223183346912265">
        <ele>596.63999999999999</ele>
        <time>2018-09-27T11:31:29Z</time>
      </trkpt>
      <trkpt lat="40.545033551752567" lon="14.223192818462849">
        <ele>596.63999999999999</ele>
        <time>2018-09-27T11:31:48Z</time>
      </trkpt>
      <trkpt lat="40.545046962797642" lon="14.223199775442481">
        <ele>597.12</ele>
        <time>2018-09-27T11:32:09Z</time>
      </trkpt>
      <trkpt lat="40.545066576451063" lon="14.223192064091563">
        <ele>597.12</ele>
        <time>2018-09-27T11:32:26Z</time>
      </trkpt>
      <trkpt lat="40.545065319165587" lon="14.223202876746655">
        <ele>597.12</ele>
        <time>2018-09-27T11:32:44Z</time>
      </trkpt>
      <trkpt lat="40.54505911655724" lon="14.223207989707589">
        <ele>597.12</ele>
        <time>2018-09-27T11:33:03Z</time>
      </trkpt>
      <trkpt lat="40.545066324993968" lon="14.223195919767022">
        <ele>597.12</ele>
        <time>2018-09-27T11:33:20Z</time>
      </trkpt>
      <trkpt lat="40.545059870928526" lon="14.223218634724617">
        <ele>597.12</ele>
        <time>2018-09-27T11:33:41Z</time>
      </trkpt>
      <trkpt lat="40.545057691633701" lon="14.22321000136435">
        <ele>597.12</ele>
        <time>2018-09-27T11:34:03Z</time>
      </trkpt>
      <trkpt lat="40.545060373842716" lon="14.223210755735636">
        <ele>597.12</ele>
        <time>2018-09-27T11:34:26Z</time>
      </trkpt>
      <trkpt lat="40.545079736039042" lon="14.223259789869189">
        <ele>597.12</ele>
        <time>2018-09-27T11:34:31Z</time>
      </trkpt>
      <trkpt lat="40.545093230903149" lon="14.223289713263512">
        <ele>597.12</ele>
        <time>2018-09-27T11:34:34Z</time>
      </trkpt>
      <trkpt lat="40.545172356069088" lon="14.223366491496563">
        <ele>597.12</ele>
        <time>2018-09-27T11:34:45Z</time>
      </trkpt>
      <trkpt lat="40.545193562284112" lon="14.223378645256162">
        <ele>596.63999999999999</ele>
        <time>2018-09-27T11:34:48Z</time>
      </trkpt>
      <trkpt lat="40.545210493728518" lon="14.223465649411082">
        <ele>597.12</ele>
        <time>2018-09-27T11:34:59Z</time>
      </trkpt>
      <trkpt lat="40.545231532305479" lon="14.223480401560664">
        <ele>596.63999999999999</ele>
        <time>2018-09-27T11:35:10Z</time>
      </trkpt>
      <trkpt lat="40.545235807076097" lon="14.223481575027108">
        <ele>597.12</ele>
        <time>2018-09-27T11:35:24Z</time>
      </trkpt>
      <trkpt lat="40.545238321647048" lon="14.223481994122267">
        <ele>597.12</ele>
        <time>2018-09-27T11:35:38Z</time>
      </trkpt>
      <trkpt lat="40.545220887288451" lon="14.22348115593195">
        <ele>596.63999999999999</ele>
        <time>2018-09-27T11:35:54Z</time>
      </trkpt>
      <trkpt lat="40.545216612517834" lon="14.223484173417091">
        <ele>596.63999999999999</ele>
        <time>2018-09-27T11:36:07Z</time>
      </trkpt>
      <trkpt lat="40.545145533978939" lon="14.22345919534564">
        <ele>596.63999999999999</ele>
        <time>2018-09-27T11:36:18Z</time>
      </trkpt>
      <trkpt lat="40.545136146247387" lon="14.223450645804405">
        <ele>597.12</ele>
        <time>2018-09-27T11:36:28Z</time>
      </trkpt>
      <trkpt lat="40.545138074085116" lon="14.223437989130616">
        <ele>596.63999999999999</ele>
        <time>2018-09-27T11:36:47Z</time>
      </trkpt>
      <trkpt lat="40.545144444331527" lon="14.223397588357329">
        <ele>596.63999999999999</ele>
        <time>2018-09-27T11:37:02Z</time>
      </trkpt>
      <trkpt lat="40.545191131532192" lon="14.22335316427052">
        <ele>597.12</ele>
        <time>2018-09-27T11:37:12Z</time>
      </trkpt>
      <trkpt lat="40.545225413516164" lon="14.223328437656164">
        <ele>596.63999999999999</ele>
        <time>2018-09-27T11:37:24Z</time>
      </trkpt>
      <trkpt lat="40.545249888673425" lon="14.223307063803077">
        <ele>596.14999999999998</ele>
        <time>2018-09-27T11:37:34Z</time>
      </trkpt>
      <trkpt lat="40.545226167887449" lon="14.223243864253163">
        <ele>594.23000000000002</ele>
        <time>2018-09-27T11:37:48Z</time>
      </trkpt>
      <trkpt lat="40.545258102938533" lon="14.223251743242145">
        <ele>593.26999999999998</ele>
        <time>2018-09-27T11:37:58Z</time>
      </trkpt>
      <trkpt lat="40.545314010232687" lon="14.223332712426782">
        <ele>593.26999999999998</ele>
        <time>2018-09-27T11:38:12Z</time>
      </trkpt>
      <trkpt lat="40.545372935011983" lon="14.223383087664843">
        <ele>591.83000000000004</ele>
        <time>2018-09-27T11:38:26Z</time>
      </trkpt>
      <trkpt lat="40.545397829264402" lon="14.223419465124607">
        <ele>590.38999999999999</ele>
        <time>2018-09-27T11:38:35Z</time>
      </trkpt>
      <trkpt lat="40.54543630219996" lon="14.223457686603069">
        <ele>588.95000000000005</ele>
        <time>2018-09-27T11:38:46Z</time>
      </trkpt>
      <trkpt lat="40.545515511184931" lon="14.223438827320933">
        <ele>586.53999999999996</ele>
        <time>2018-09-27T11:39:01Z</time>
      </trkpt>
      <trkpt lat="40.545543171465397" lon="14.2233956605196">
        <ele>585.10000000000002</ele>
        <time>2018-09-27T11:39:07Z</time>
      </trkpt>
      <trkpt lat="40.545550966635346" lon="14.223352745175362">
        <ele>583.65999999999997</ele>
        <time>2018-09-27T11:39:11Z</time>
      </trkpt>
      <trkpt lat="40.545546859502792" lon="14.223286025226116">
        <ele>581.73000000000002</ele>
        <time>2018-09-27T11:39:16Z</time>
      </trkpt>
      <trkpt lat="40.545584410429001" lon="14.223201284185052">
        <ele>578.37</ele>
        <time>2018-09-27T11:39:27Z</time>
      </trkpt>
      <trkpt lat="40.545647861436009" lon="14.223213773220778">
        <ele>576.92999999999995</ele>
        <time>2018-09-27T11:39:37Z</time>
      </trkpt>
      <trkpt lat="40.545691531151533" lon="14.223247636109591">
        <ele>575.97000000000003</ele>
        <time>2018-09-27T11:39:47Z</time>
      </trkpt>
      <trkpt lat="40.545743918046355" lon="14.22327890060842">
        <ele>575.49000000000001</ele>
        <time>2018-09-27T11:39:57Z</time>
      </trkpt>
      <trkpt lat="40.545794796198606" lon="14.223276805132627">
        <ele>574.03999999999996</ele>
        <time>2018-09-27T11:40:11Z</time>
      </trkpt>
      <trkpt lat="40.545838046818972" lon="14.223285019397736">
        <ele>573.08000000000004</ele>
        <time>2018-09-27T11:40:21Z</time>
      </trkpt>
      <trkpt lat="40.545881213620305" lon="14.223290886729956">
        <ele>571.15999999999997</ele>
        <time>2018-09-27T11:40:32Z</time>
      </trkpt>
      <trkpt lat="40.545941730961204" lon="14.223314104601741">
        <ele>568.27999999999997</ele>
        <time>2018-09-27T11:40:43Z</time>
      </trkpt>
      <trkpt lat="40.545994285494089" lon="14.223342770710588">
        <ele>565.38999999999999</ele>
        <time>2018-09-27T11:40:56Z</time>
      </trkpt>
      <trkpt lat="40.546055976301432" lon="14.223364563658834">
        <ele>563.47000000000003</ele>
        <time>2018-09-27T11:41:06Z</time>
      </trkpt>
      <trkpt lat="40.546138873323798" lon="14.223374370485544">
        <ele>561.07000000000005</ele>
        <time>2018-09-27T11:41:19Z</time>
      </trkpt>
      <trkpt lat="40.54619855247438" lon="14.223383842036128">
        <ele>559.62</ele>
        <time>2018-09-27T11:41:28Z</time>
      </trkpt>
      <trkpt lat="40.546242641285062" lon="14.223399348556995">
        <ele>558.65999999999997</ele>
        <time>2018-09-27T11:41:35Z</time>
      </trkpt>
      <trkpt lat="40.546346576884389" lon="14.223432373255491">
        <ele>557.22000000000003</ele>
        <time>2018-09-27T11:41:47Z</time>
      </trkpt>
      <trkpt lat="40.546421594917774" lon="14.2234699241817">
        <ele>555.29999999999995</ele>
        <time>2018-09-27T11:41:57Z</time>
      </trkpt>
      <trkpt lat="40.54649124853313" lon="14.2234958242625">
        <ele>554.34000000000003</ele>
        <time>2018-09-27T11:42:08Z</time>
      </trkpt>
      <trkpt lat="40.54655721411109" lon="14.223507810384035">
        <ele>551.92999999999995</ele>
        <time>2018-09-27T11:42:18Z</time>
      </trkpt>
      <trkpt lat="40.546622090041637" lon="14.223511414602399">
        <ele>550.00999999999999</ele>
        <time>2018-09-27T11:42:28Z</time>
      </trkpt>
      <trkpt lat="40.546686882153153" lon="14.22353295609355">
        <ele>548.57000000000005</ele>
        <time>2018-09-27T11:42:38Z</time>
      </trkpt>
      <trkpt lat="40.546751255169511" lon="14.223523819819093">
        <ele>546.64999999999998</ele>
        <time>2018-09-27T11:42:49Z</time>
      </trkpt>
      <trkpt lat="40.546815376728773" lon="14.22352465800941">
        <ele>545.20000000000005</ele>
        <time>2018-09-27T11:43:00Z</time>
      </trkpt>
      <trkpt lat="40.546895004808903" lon="14.223541840910912">
        <ele>544.72000000000003</ele>
        <time>2018-09-27T11:43:10Z</time>
      </trkpt>
      <trkpt lat="40.546991648152471" lon="14.223608477041125">
        <ele>541.84000000000003</ele>
        <time>2018-09-27T11:43:21Z</time>
      </trkpt>
      <trkpt lat="40.547045292332768" lon="14.223630102351308">
        <ele>540.39999999999998</ele>
        <time>2018-09-27T11:43:32Z</time>
      </trkpt>
      <trkpt lat="40.547131625935435" lon="14.223681567236781">
        <ele>537.99000000000001</ele>
        <time>2018-09-27T11:43:45Z</time>
      </trkpt>
      <trkpt lat="40.547198932617903" lon="14.223769493401051">
        <ele>536.07000000000005</ele>
        <time>2018-09-27T11:43:55Z</time>
      </trkpt>
      <trkpt lat="40.547276884317398" lon="14.223833195865154">
        <ele>533.66999999999996</ele>
        <time>2018-09-27T11:44:07Z</time>
      </trkpt>
      <trkpt lat="40.547331953421235" lon="14.223879044875503">
        <ele>531.75</ele>
        <time>2018-09-27T11:44:18Z</time>
      </trkpt>
      <trkpt lat="40.547346537932754" lon="14.223887510597706">
        <ele>531.26999999999998</ele>
        <time>2018-09-27T11:44:20Z</time>
      </trkpt>
      <trkpt lat="40.547374114394188" lon="14.224015502259135">
        <ele>528.86000000000001</ele>
        <time>2018-09-27T11:44:31Z</time>
      </trkpt>
      <trkpt lat="40.547437984496355" lon="14.224134609103203">
        <ele>526.94000000000005</ele>
        <time>2018-09-27T11:44:43Z</time>
      </trkpt>
      <trkpt lat="40.547508643940091" lon="14.224223122000694">
        <ele>523.58000000000004</ele>
        <time>2018-09-27T11:44:55Z</time>
      </trkpt>
      <trkpt lat="40.547582404688001" lon="14.224283723160625">
        <ele>521.16999999999996</ele>
        <time>2018-09-27T11:45:06Z</time>
      </trkpt>
      <trkpt lat="40.547678964212537" lon="14.224295541644096">
        <ele>518.76999999999998</ele>
        <time>2018-09-27T11:45:19Z</time>
      </trkpt>
      <trkpt lat="40.547794215381145" lon="14.224303169175982">
        <ele>516.37</ele>
        <time>2018-09-27T11:45:34Z</time>
      </trkpt>
      <trkpt lat="40.547882141545415" lon="14.224345749244094">
        <ele>514.44000000000005</ele>
        <time>2018-09-27T11:45:45Z</time>
      </trkpt>
      <trkpt lat="40.54797375574708" lon="14.22436804510653">
        <ele>512.51999999999998</ele>
        <time>2018-09-27T11:45:57Z</time>
      </trkpt>
      <trkpt lat="40.548043409362435" lon="14.224414313212037">
        <ele>510.60000000000002</ele>
        <time>2018-09-27T11:46:07Z</time>
      </trkpt>
      <trkpt lat="40.548094706609845" lon="14.224475249648094">
        <ele>508.19</ele>
        <time>2018-09-27T11:46:17Z</time>
      </trkpt>
      <trkpt lat="40.548174418509007" lon="14.224498802796006">
        <ele>505.79000000000002</ele>
        <time>2018-09-27T11:46:29Z</time>
      </trkpt>
      <trkpt lat="40.548259411007166" lon="14.224496120586991">
        <ele>503.87</ele>
        <time>2018-09-27T11:46:40Z</time>
      </trkpt>
      <trkpt lat="40.548322526738048" lon="14.224511124193668">
        <ele>501.45999999999998</ele>
        <time>2018-09-27T11:46:50Z</time>
      </trkpt>
      <trkpt lat="40.548415146768093" lon="14.224527133628726">
        <ele>500.5</ele>
        <time>2018-09-27T11:47:03Z</time>
      </trkpt>
      <trkpt lat="40.5484614148736" lon="14.224569881334901">
        <ele>498.57999999999998</ele>
        <time>2018-09-27T11:47:12Z</time>
      </trkpt>
      <trkpt lat="40.548532661050558" lon="14.224563594907522">
        <ele>495.69999999999999</ele>
        <time>2018-09-27T11:47:22Z</time>
      </trkpt>
      <trkpt lat="40.548578258603811" lon="14.224564684554935">
        <ele>494.74000000000001</ele>
        <time>2018-09-27T11:47:27Z</time>
      </trkpt>
      <trkpt lat="40.548657802864909" lon="14.224494276568294">
        <ele>493.29000000000002</ele>
        <time>2018-09-27T11:47:39Z</time>
      </trkpt>
      <trkpt lat="40.548716643825173" lon="14.224439123645425">
        <ele>492.32999999999998</ele>
        <time>2018-09-27T11:47:49Z</time>
      </trkpt>
      <trkpt lat="40.548806749284267" lon="14.224352622404695">
        <ele>491.37</ele>
        <time>2018-09-27T11:48:01Z</time>
      </trkpt>
      <trkpt lat="40.548818735405803" lon="14.224344156682491">
        <ele>490.88999999999999</ele>
        <time>2018-09-27T11:48:02Z</time>
      </trkpt>
      <trkpt lat="40.548925772309303" lon="14.224322279915214">
        <ele>488.49000000000001</ele>
        <time>2018-09-27T11:48:15Z</time>
      </trkpt>
      <trkpt lat="40.549000287428498" lon="14.224287578836083">
        <ele>487.05000000000001</ele>
        <time>2018-09-27T11:48:26Z</time>
      </trkpt>
      <trkpt lat="40.549040604382753" lon="14.224306019023061">
        <ele>486.07999999999998</ele>
        <time>2018-09-27T11:48:38Z</time>
      </trkpt>
      <trkpt lat="40.54903700016439" lon="14.224283471703529">
        <ele>485.60000000000002</ele>
        <time>2018-09-27T11:48:49Z</time>
      </trkpt>
      <trkpt lat="40.549036497250199" lon="14.224295793101192">
        <ele>485.60000000000002</ele>
        <time>2018-09-27T11:49:03Z</time>
      </trkpt>
      <trkpt lat="40.549041274935007" lon="14.224342983216047">
        <ele>487.52999999999997</ele>
        <time>2018-09-27T11:49:14Z</time>
      </trkpt>
      <trkpt lat="40.549026019871235" lon="14.224329655990005">
        <ele>486.56</ele>
        <time>2018-09-27T11:49:30Z</time>
      </trkpt>
      <trkpt lat="40.549028366804123" lon="14.224313059821725">
        <ele>486.07999999999998</ele>
        <time>2018-09-27T11:49:44Z</time>
      </trkpt>
      <trkpt lat="40.549021745100617" lon="14.224291099235415">
        <ele>486.07999999999998</ele>
        <time>2018-09-27T11:50:00Z</time>
      </trkpt>
      <trkpt lat="40.549019817262888" lon="14.224278945475817">
        <ele>486.07999999999998</ele>
        <time>2018-09-27T11:50:14Z</time>
      </trkpt>
      <trkpt lat="40.549025265499949" lon="14.224243406206369">
        <ele>485.60000000000002</ele>
        <time>2018-09-27T11:50:24Z</time>
      </trkpt>
      <trkpt lat="40.549028953537345" lon="14.22423854470253">
        <ele>486.07999999999998</ele>
        <time>2018-09-27T11:50:42Z</time>
      </trkpt>
      <trkpt lat="40.549009507521987" lon="14.224180541932583">
        <ele>485.60000000000002</ele>
        <time>2018-09-27T11:50:56Z</time>
      </trkpt>
      <trkpt lat="40.549047309905291" lon="14.224058333784342">
        <ele>483.19999999999999</ele>
        <time>2018-09-27T11:51:09Z</time>
      </trkpt>
      <trkpt lat="40.549076562747359" lon="14.22403528355062">
        <ele>483.19999999999999</ele>
        <time>2018-09-27T11:51:18Z</time>
      </trkpt>
      <trkpt lat="40.549102630466223" lon="14.224044168367982">
        <ele>482.72000000000003</ele>
        <time>2018-09-27T11:51:37Z</time>
      </trkpt>
      <trkpt lat="40.549219138920307" lon="14.22403478063643">
        <ele>481.27999999999997</ele>
        <time>2018-09-27T11:51:50Z</time>
      </trkpt>
      <trkpt lat="40.549219222739339" lon="14.223998067900538">
        <ele>480.80000000000001</ele>
        <time>2018-09-27T11:51:59Z</time>
      </trkpt>
      <trkpt lat="40.549132889136672" lon="14.223943585529923">
        <ele>478.87</ele>
        <time>2018-09-27T11:52:12Z</time>
      </trkpt>
      <trkpt lat="40.549038341268897" lon="14.223878122866154">
        <ele>476.94999999999999</ele>
        <time>2018-09-27T11:52:25Z</time>
      </trkpt>
      <trkpt lat="40.549015710130334" lon="14.223860939964652">
        <ele>476.94999999999999</ele>
        <time>2018-09-27T11:52:28Z</time>
      </trkpt>
      <trkpt lat="40.548921078443527" lon="14.223765302449465">
        <ele>475.50999999999999</ele>
        <time>2018-09-27T11:52:41Z</time>
      </trkpt>
      <trkpt lat="40.548844132572412" lon="14.223677376285195">
        <ele>474.06999999999999</ele>
        <time>2018-09-27T11:52:54Z</time>
      </trkpt>
      <trkpt lat="40.548760229721665" lon="14.223576877266169">
        <ele>473.11000000000001</ele>
        <time>2018-09-27T11:53:06Z</time>
      </trkpt>
      <trkpt lat="40.548664843663573" lon="14.223472438752651">
        <ele>472.13999999999999</ele>
        <time>2018-09-27T11:53:18Z</time>
      </trkpt>
      <trkpt lat="40.548546323552728" lon="14.223361546173692">
        <ele>471.18000000000001</ele>
        <time>2018-09-27T11:53:33Z</time>
      </trkpt>
      <trkpt lat="40.548462336882949" lon="14.223295580595732">
        <ele>470.22000000000003</ele>
        <time>2018-09-27T11:53:44Z</time>
      </trkpt>
      <trkpt lat="40.548382876440883" lon="14.22318996861577">
        <ele>469.25999999999999</ele>
        <time>2018-09-27T11:53:55Z</time>
      </trkpt>
      <trkpt lat="40.54828891530633" lon="14.223075639456511">
        <ele>467.81999999999999</ele>
        <time>2018-09-27T11:54:08Z</time>
      </trkpt>
      <trkpt lat="40.548305679112673" lon="14.223037166520953">
        <ele>465.89999999999998</ele>
        <time>2018-09-27T11:54:18Z</time>
      </trkpt>
      <trkpt lat="40.548313222825527" lon="14.223038675263524">
        <ele>465.89999999999998</ele>
        <time>2018-09-27T11:54:19Z</time>
      </trkpt>
      <trkpt lat="40.548432916402817" lon="14.223103299736977">
        <ele>463.49000000000001</ele>
        <time>2018-09-27T11:54:32Z</time>
      </trkpt>
      <trkpt lat="40.548522770404816" lon="14.223160045221448">
        <ele>460.61000000000001</ele>
        <time>2018-09-27T11:54:44Z</time>
      </trkpt>
      <trkpt lat="40.548597201704979" lon="14.223202457651496">
        <ele>458.69</ele>
        <time>2018-09-27T11:54:56Z</time>
      </trkpt>
      <trkpt lat="40.54868227802217" lon="14.223233973607421">
        <ele>457.24000000000001</ele>
        <time>2018-09-27T11:55:07Z</time>
      </trkpt>
      <trkpt lat="40.548756793141365" lon="14.223267920315266">
        <ele>457.24000000000001</ele>
        <time>2018-09-27T11:55:18Z</time>
      </trkpt>
      <trkpt lat="40.548841282725334" lon="14.223303124308586">
        <ele>453.88</ele>
        <time>2018-09-27T11:55:28Z</time>
      </trkpt>
      <trkpt lat="40.548940021544695" lon="14.223275715485215">
        <ele>451.48000000000002</ele>
        <time>2018-09-27T11:55:40Z</time>
      </trkpt>
      <trkpt lat="40.549034904688597" lon="14.223271021619439">
        <ele>449.55000000000001</ele>
        <time>2018-09-27T11:55:53Z</time>
      </trkpt>
      <trkpt lat="40.549105983227491" lon="14.223239589482546">
        <ele>447.63</ele>
        <time>2018-09-27T11:56:03Z</time>
      </trkpt>
      <trkpt lat="40.549176810309291" lon="14.223217628896236">
        <ele>445.70999999999998</ele>
        <time>2018-09-27T11:56:14Z</time>
      </trkpt>
      <trkpt lat="40.549242440611124" lon="14.223196506500244">
        <ele>444.26999999999998</ele>
        <time>2018-09-27T11:56:24Z</time>
      </trkpt>
      <trkpt lat="40.549331624060869" lon="14.223164487630129">
        <ele>442.33999999999997</ele>
        <time>2018-09-27T11:56:35Z</time>
      </trkpt>
      <trkpt lat="40.549389375373721" lon="14.223164236173034">
        <ele>441.38</ele>
        <time>2018-09-27T11:56:45Z</time>
      </trkpt>
      <trkpt lat="40.549420304596424" lon="14.223153926432133">
        <ele>440.42000000000002</ele>
        <time>2018-09-27T11:56:54Z</time>
      </trkpt>
      <trkpt lat="40.549437738955021" lon="14.223156608641148">
        <ele>439.94</ele>
        <time>2018-09-27T11:57:04Z</time>
      </trkpt>
      <trkpt lat="40.549494484439492" lon="14.223144287243485">
        <ele>438.98000000000002</ele>
        <time>2018-09-27T11:57:15Z</time>
      </trkpt>
      <trkpt lat="40.549509739503264" lon="14.223156441003084">
        <ele>438.01999999999998</ele>
        <time>2018-09-27T11:57:29Z</time>
      </trkpt>
      <trkpt lat="40.549539662897587" lon="14.223130960017443">
        <ele>438.01999999999998</ele>
        <time>2018-09-27T11:57:47Z</time>
      </trkpt>
      <trkpt lat="40.549539914354682" lon="14.223132720217109">
        <ele>437.54000000000002</ele>
        <time>2018-09-27T11:57:51Z</time>
      </trkpt>
      <trkpt lat="40.549606299027801" lon="14.223111094906926">
        <ele>436.10000000000002</ele>
        <time>2018-09-27T11:58:03Z</time>
      </trkpt>
      <trkpt lat="40.549707720056176" lon="14.223087793216109">
        <ele>433.69</ele>
        <time>2018-09-27T11:58:14Z</time>
      </trkpt>
      <trkpt lat="40.54977972060442" lon="14.223098689690232">
        <ele>432.25</ele>
        <time>2018-09-27T11:58:24Z</time>
      </trkpt>
      <trkpt lat="40.549863958731294" lon="14.223083853721619">
        <ele>430.32999999999998</ele>
        <time>2018-09-27T11:58:36Z</time>
      </trkpt>
      <trkpt lat="40.549919195473194" lon="14.223078908398747">
        <ele>428.88999999999999</ele>
        <time>2018-09-27T11:58:48Z</time>
      </trkpt>
      <trkpt lat="40.549991698935628" lon="14.22305753454566">
        <ele>427.44</ele>
        <time>2018-09-27T11:58:59Z</time>
      </trkpt>
      <trkpt lat="40.550062861293554" lon="14.223063988611102">
        <ele>426.48000000000002</ele>
        <time>2018-09-27T11:59:10Z</time>
      </trkpt>
      <trkpt lat="40.550139220431447" lon="14.223045213147998">
        <ele>424.56</ele>
        <time>2018-09-27T11:59:21Z</time>
      </trkpt>
      <trkpt lat="40.55022387765348" lon="14.223023252561688">
        <ele>422.63999999999999</ele>
        <time>2018-09-27T11:59:31Z</time>
      </trkpt>
      <trkpt lat="40.550277773290873" lon="14.223021827638149">
        <ele>421.68000000000001</ele>
        <time>2018-09-27T11:59:39Z</time>
      </trkpt>
      <trkpt lat="40.550403753295541" lon="14.223010679706931">
        <ele>419.26999999999998</ele>
        <time>2018-09-27T11:59:52Z</time>
      </trkpt>
      <trkpt lat="40.550544736906886" lon="14.223008835688233">
        <ele>417.35000000000002</ele>
        <time>2018-09-27T12:00:04Z</time>
      </trkpt>
      <trkpt lat="40.550598213449121" lon="14.223015876486897">
        <ele>415.91000000000003</ele>
        <time>2018-09-27T12:00:15Z</time>
      </trkpt>
      <trkpt lat="40.550679266452789" lon="14.223010763525963">
        <ele>414.47000000000003</ele>
        <time>2018-09-27T12:00:26Z</time>
      </trkpt>
      <trkpt lat="40.550705753266811" lon="14.223004980012774">
        <ele>413.98000000000002</ele>
        <time>2018-09-27T12:00:30Z</time>
      </trkpt>
      <trkpt lat="40.550795439630747" lon="14.223000789061189">
        <ele>412.06</ele>
        <time>2018-09-27T12:00:40Z</time>
      </trkpt>
      <trkpt lat="40.550851430743933" lon="14.22297983430326">
        <ele>411.10000000000002</ele>
        <time>2018-09-27T12:00:48Z</time>
      </trkpt>
      <trkpt lat="40.550884120166302" lon="14.223013445734978">
        <ele>410.13999999999999</ele>
        <time>2018-09-27T12:00:56Z</time>
      </trkpt>
      <trkpt lat="40.550957713276148" lon="14.223001040518284">
        <ele>408.69999999999999</ele>
        <time>2018-09-27T12:01:07Z</time>
      </trkpt>
      <trkpt lat="40.551034240052104" lon="14.22300674021244">
        <ele>407.25999999999999</ele>
        <time>2018-09-27T12:01:18Z</time>
      </trkpt>
      <trkpt lat="40.551132308319211" lon="14.223009422421455">
        <ele>404.85000000000002</ele>
        <time>2018-09-27T12:01:29Z</time>
      </trkpt>
      <trkpt lat="40.551231969147921" lon="14.223040351644158">
        <ele>403.88999999999999</ele>
        <time>2018-09-27T12:01:39Z</time>
      </trkpt>
      <trkpt lat="40.551347471773624" lon="14.223036076873541">
        <ele>401.97000000000003</ele>
        <time>2018-09-27T12:01:50Z</time>
      </trkpt>
      <trkpt lat="40.551470853388309" lon="14.223044542595744">
        <ele>400.05000000000001</ele>
        <time>2018-09-27T12:02:02Z</time>
      </trkpt>
      <trkpt lat="40.55155442096293" lon="14.223065078258514">
        <ele>399.07999999999998</ele>
        <time>2018-09-27T12:02:12Z</time>
      </trkpt>
      <trkpt lat="40.551623320207" lon="14.223061390221119">
        <ele>397.63999999999999</ele>
        <time>2018-09-27T12:02:22Z</time>
      </trkpt>
      <trkpt lat="40.551705043762922" lon="14.223076980561018">
        <ele>396.68000000000001</ele>
        <time>2018-09-27T12:02:33Z</time>
      </trkpt>
      <trkpt lat="40.551802022382617" lon="14.223096678033471">
        <ele>395.24000000000001</ele>
        <time>2018-09-27T12:02:44Z</time>
      </trkpt>
      <trkpt lat="40.551886511966586" lon="14.223127439618111">
        <ele>394.27999999999997</ele>
        <time>2018-09-27T12:02:56Z</time>
      </trkpt>
      <trkpt lat="40.551999164745212" lon="14.22312350012362">
        <ele>392.36000000000001</ele>
        <time>2018-09-27T12:03:08Z</time>
      </trkpt>
      <trkpt lat="40.552056999877095" lon="14.223118554800749">
        <ele>391.87</ele>
        <time>2018-09-27T12:03:14Z</time>
      </trkpt>
      <trkpt lat="40.552171329036355" lon="14.223136240616441">
        <ele>390.43000000000001</ele>
        <time>2018-09-27T12:03:27Z</time>
      </trkpt>
      <trkpt lat="40.552184069529176" lon="14.223135486245155">
        <ele>390.43000000000001</ele>
        <time>2018-09-27T12:03:28Z</time>
      </trkpt>
      <trkpt lat="40.552283981814981" lon="14.223159207031131">
        <ele>388.99000000000001</ele>
        <time>2018-09-27T12:03:41Z</time>
      </trkpt>
      <trkpt lat="40.552362017333508" lon="14.223170438781381">
        <ele>387.55000000000001</ele>
        <time>2018-09-27T12:03:51Z</time>
      </trkpt>
      <trkpt lat="40.552413733676076" lon="14.223168091848493">
        <ele>387.06999999999999</ele>
        <time>2018-09-27T12:03:59Z</time>
      </trkpt>
      <trkpt lat="40.552523117512465" lon="14.223165325820446">
        <ele>385.63</ele>
        <time>2018-09-27T12:04:12Z</time>
      </trkpt>
      <trkpt lat="40.552647085860372" lon="14.223177563399076">
        <ele>384.18000000000001</ele>
        <time>2018-09-27T12:04:25Z</time>
      </trkpt>
      <trkpt lat="40.552733838558197" lon="14.223180077970028">
        <ele>382.74000000000001</ele>
        <time>2018-09-27T12:04:35Z</time>
      </trkpt>
      <trkpt lat="40.55282536894083" lon="14.223184352740645">
        <ele>380.81999999999999</ele>
        <time>2018-09-27T12:04:47Z</time>
      </trkpt>
      <trkpt lat="40.552912959828973" lon="14.22319583594799">
        <ele>378.89999999999998</ele>
        <time>2018-09-27T12:04:59Z</time>
      </trkpt>
      <trkpt lat="40.553032150492072" lon="14.223204804584384">
        <ele>376.97000000000003</ele>
        <time>2018-09-27T12:05:13Z</time>
      </trkpt>
      <trkpt lat="40.553118567913771" lon="14.223209582269192">
        <ele>375.05000000000001</ele>
        <time>2018-09-27T12:05:24Z</time>
      </trkpt>
      <trkpt lat="40.553218899294734" lon="14.223230788484216">
        <ele>374.08999999999997</ele>
        <time>2018-09-27T12:05:36Z</time>
      </trkpt>
      <trkpt lat="40.553313279524446" lon="14.223235314711928">
        <ele>372.17000000000002</ele>
        <time>2018-09-27T12:05:48Z</time>
      </trkpt>
      <trkpt lat="40.553391231223941" lon="14.223241014406085">
        <ele>371.20999999999998</ele>
        <time>2018-09-27T12:05:58Z</time>
      </trkpt>
      <trkpt lat="40.553487036377192" lon="14.223237661644816">
        <ele>369.27999999999997</ele>
        <time>2018-09-27T12:06:09Z</time>
      </trkpt>
      <trkpt lat="40.553563898429275" lon="14.223253503441811">
        <ele>368.31999999999999</ele>
        <time>2018-09-27T12:06:19Z</time>
      </trkpt>
      <trkpt lat="40.553575465455651" lon="14.223261466249824">
        <ele>368.31999999999999</ele>
        <time>2018-09-27T12:06:33Z</time>
      </trkpt>
      <trkpt lat="40.553645621985197" lon="14.223270183429122">
        <ele>367.83999999999997</ele>
        <time>2018-09-27T12:06:47Z</time>
      </trkpt>
      <trkpt lat="40.553696667775512" lon="14.223295077681541">
        <ele>367.36000000000001</ele>
        <time>2018-09-27T12:06:57Z</time>
      </trkpt>
      <trkpt lat="40.553696751594543" lon="14.22332676127553">
        <ele>367.36000000000001</ele>
        <time>2018-09-27T12:07:14Z</time>
      </trkpt>
      <trkpt lat="40.553687615320086" lon="14.223333299160004">
        <ele>367.36000000000001</ele>
        <time>2018-09-27T12:07:30Z</time>
      </trkpt>
      <trkpt lat="40.553715862333775" lon="14.223357858136296">
        <ele>366.88</ele>
        <time>2018-09-27T12:07:48Z</time>
      </trkpt>
      <trkpt lat="40.553755508735776" lon="14.223341094329953">
        <ele>366.88</ele>
        <time>2018-09-27T12:07:57Z</time>
      </trkpt>
      <trkpt lat="40.553715694695711" lon="14.223295329138637">
        <ele>365.92000000000002</ele>
        <time>2018-09-27T12:08:08Z</time>
      </trkpt>
      <trkpt lat="40.553680239245296" lon="14.223233386874199">
        <ele>363.51999999999998</ele>
        <time>2018-09-27T12:08:22Z</time>
      </trkpt>
      <trkpt lat="40.553612681105733" lon="14.223135067149997">
        <ele>361.11000000000001</ele>
        <time>2018-09-27T12:08:35Z</time>
      </trkpt>
      <trkpt lat="40.553564233705401" lon="14.223044794052839">
        <ele>359.67000000000002</ele>
        <time>2018-09-27T12:08:48Z</time>
      </trkpt>
      <trkpt lat="40.553536238148808" lon="14.222955862060189">
        <ele>357.26999999999998</ele>
        <time>2018-09-27T12:09:00Z</time>
      </trkpt>
      <trkpt lat="40.553480330854654" lon="14.222883274778724">
        <ele>356.31</ele>
        <time>2018-09-27T12:09:09Z</time>
      </trkpt>
      <trkpt lat="40.553322164341807" lon="14.2228171415627">
        <ele>355.33999999999997</ele>
        <time>2018-09-27T12:09:24Z</time>
      </trkpt>
      <trkpt lat="40.553219318389893" lon="14.222751427441835">
        <ele>354.38</ele>
        <time>2018-09-27T12:09:36Z</time>
      </trkpt>
      <trkpt lat="40.553160393610597" lon="14.222637685015798">
        <ele>351.01999999999998</ele>
        <time>2018-09-27T12:09:48Z</time>
      </trkpt>
      <trkpt lat="40.553239937871695" lon="14.222588147968054">
        <ele>349.10000000000002</ele>
        <time>2018-09-27T12:10:00Z</time>
      </trkpt>
      <trkpt lat="40.553257204592228" lon="14.222590159624815">
        <ele>348.62</ele>
        <time>2018-09-27T12:10:02Z</time>
      </trkpt>
      <trkpt lat="40.553372958675027" lon="14.222566271200776">
        <ele>346.20999999999998</ele>
        <time>2018-09-27T12:10:15Z</time>
      </trkpt>
      <trkpt lat="40.553485192358494" lon="14.222557051107287">
        <ele>343.81</ele>
        <time>2018-09-27T12:10:27Z</time>
      </trkpt>
      <trkpt lat="40.553572112694383" lon="14.222566606476903">
        <ele>341.88999999999999</ele>
        <time>2018-09-27T12:10:39Z</time>
      </trkpt>
      <trkpt lat="40.553654674440622" lon="14.222578005865216">
        <ele>339.48000000000002</ele>
        <time>2018-09-27T12:10:53Z</time>
      </trkpt>
      <trkpt lat="40.553725250065327" lon="14.222539030015469">
        <ele>336.60000000000002</ele>
        <time>2018-09-27T12:11:05Z</time>
      </trkpt>
      <trkpt lat="40.553793143481016" lon="14.222469376400113">
        <ele>333.23000000000002</ele>
        <time>2018-09-27T12:11:18Z</time>
      </trkpt>
      <trkpt lat="40.553833125159144" lon="14.222389161586761">
        <ele>330.35000000000002</ele>
        <time>2018-09-27T12:11:30Z</time>
      </trkpt>
      <trkpt lat="40.553894564509392" lon="14.222305091097951">
        <ele>327.94999999999999</ele>
        <time>2018-09-27T12:11:44Z</time>
      </trkpt>
      <trkpt lat="40.553902527317405" lon="14.222289081662893">
        <ele>325.54000000000002</ele>
        <time>2018-09-27T12:11:47Z</time>
      </trkpt>
      <trkpt lat="40.553910406306386" lon="14.222213979810476">
        <ele>323.62</ele>
        <time>2018-09-27T12:11:58Z</time>
      </trkpt>
      <trkpt lat="40.553909903392196" lon="14.22218631953001">
        <ele>322.66000000000003</ele>
        <time>2018-09-27T12:12:14Z</time>
      </trkpt>
      <trkpt lat="40.55390520952642" lon="14.222147427499294">
        <ele>321.69999999999999</ele>
        <time>2018-09-27T12:12:25Z</time>
      </trkpt>
      <trkpt lat="40.553918536752462" lon="14.22216041944921">
        <ele>321.69999999999999</ele>
        <time>2018-09-27T12:12:39Z</time>
      </trkpt>
      <trkpt lat="40.553897665813565" lon="14.222149858251214">
        <ele>321.69999999999999</ele>
        <time>2018-09-27T12:12:59Z</time>
      </trkpt>
      <trkpt lat="40.553898168727756" lon="14.222106356173754">
        <ele>320.74000000000001</ele>
        <time>2018-09-27T12:13:12Z</time>
      </trkpt>
      <trkpt lat="40.55389448069036" lon="14.222024884074926">
        <ele>317.85000000000002</ele>
        <time>2018-09-27T12:13:24Z</time>
      </trkpt>
      <trkpt lat="40.553904455155134" lon="14.22198012471199">
        <ele>316.41000000000003</ele>
        <time>2018-09-27T12:13:31Z</time>
      </trkpt>
      <trkpt lat="40.553922476246953" lon="14.221932180225849">
        <ele>314.97000000000003</ele>
        <time>2018-09-27T12:13:41Z</time>
      </trkpt>
      <trkpt lat="40.553929349407554" lon="14.221863197162747">
        <ele>313.05000000000001</ele>
        <time>2018-09-27T12:13:53Z</time>
      </trkpt>
      <trkpt lat="40.553937815129757" lon="14.221798069775105">
        <ele>311.12</ele>
        <time>2018-09-27T12:14:04Z</time>
      </trkpt>
      <trkpt lat="40.553939742967486" lon="14.221711149439216">
        <ele>309.19999999999999</ele>
        <time>2018-09-27T12:14:14Z</time>
      </trkpt>
      <trkpt lat="40.553942592814565" lon="14.221636969596148">
        <ele>307.75999999999999</ele>
        <time>2018-09-27T12:14:23Z</time>
      </trkpt>
      <trkpt lat="40.553978299722075" lon="14.221490873023868">
        <ele>304.88</ele>
        <time>2018-09-27T12:14:35Z</time>
      </trkpt>
      <trkpt lat="40.554016688838601" lon="14.221391966566443">
        <ele>302.47000000000003</ele>
        <time>2018-09-27T12:14:46Z</time>
      </trkpt>
      <trkpt lat="40.554047785699368" lon="14.221232710406184">
        <ele>300.55000000000001</ele>
        <time>2018-09-27T12:14:59Z</time>
      </trkpt>
      <trkpt lat="40.554068489000201" lon="14.221093403175473">
        <ele>299.58999999999997</ele>
        <time>2018-09-27T12:15:13Z</time>
      </trkpt>
      <trkpt lat="40.554056419059634" lon="14.221086194738746">
        <ele>299.58999999999997</ele>
        <time>2018-09-27T12:15:25Z</time>
      </trkpt>
      <trkpt lat="40.554070919752121" lon="14.221077645197511">
        <ele>299.58999999999997</ele>
        <time>2018-09-27T12:15:38Z</time>
      </trkpt>
      <trkpt lat="40.554084666073322" lon="14.221101617440581">
        <ele>300.06999999999999</ele>
        <time>2018-09-27T12:15:54Z</time>
      </trkpt>
      <trkpt lat="40.55416613817215" lon="14.221119051799178">
        <ele>300.55000000000001</ele>
        <time>2018-09-27T12:16:09Z</time>
      </trkpt>
      <trkpt lat="40.5542550701648" lon="14.221157357096672">
        <ele>301.50999999999999</ele>
        <time>2018-09-27T12:16:21Z</time>
      </trkpt>
      <trkpt lat="40.554331345483661" lon="14.221189543604851">
        <ele>301.99000000000001</ele>
        <time>2018-09-27T12:16:31Z</time>
      </trkpt>
      <trkpt lat="40.554396891966462" lon="14.221203709021211">
        <ele>302.47000000000003</ele>
        <time>2018-09-27T12:16:42Z</time>
      </trkpt>
      <trkpt lat="40.554466042667627" lon="14.221234554424882">
        <ele>302.94999999999999</ele>
        <time>2018-09-27T12:16:54Z</time>
      </trkpt>
      <trkpt lat="40.554504515603185" lon="14.221245534718037">
        <ele>303.43000000000001</ele>
        <time>2018-09-27T12:17:00Z</time>
      </trkpt>
      <trkpt lat="40.554635608568788" lon="14.221314350143075">
        <ele>304.38999999999999</ele>
        <time>2018-09-27T12:17:12Z</time>
      </trkpt>
      <trkpt lat="40.554767875000834" lon="14.221400180831552">
        <ele>304.88</ele>
        <time>2018-09-27T12:17:25Z</time>
      </trkpt>
      <trkpt lat="40.554916653782129" lon="14.221450723707676">
        <ele>304.88</ele>
        <time>2018-09-27T12:17:39Z</time>
      </trkpt>
      <trkpt lat="40.555027043446898" lon="14.221489448100328">
        <ele>304.38999999999999</ele>
        <time>2018-09-27T12:17:51Z</time>
      </trkpt>
      <trkpt lat="40.555124022066593" lon="14.221521634608507">
        <ele>303.91000000000003</ele>
        <time>2018-09-27T12:18:03Z</time>
      </trkpt>
      <trkpt lat="40.55524162016809" lon="14.221571423113346">
        <ele>303.43000000000001</ele>
        <time>2018-09-27T12:18:16Z</time>
      </trkpt>
      <trkpt lat="40.55534178391099" lon="14.22162439674139">
        <ele>302.94999999999999</ele>
        <time>2018-09-27T12:18:27Z</time>
      </trkpt>
      <trkpt lat="40.555432308465242" lon="14.221651470288634">
        <ele>302.47000000000003</ele>
        <time>2018-09-27T12:18:38Z</time>
      </trkpt>
      <trkpt lat="40.555559881031513" lon="14.221650632098317">
        <ele>301.50999999999999</ele>
        <time>2018-09-27T12:18:52Z</time>
      </trkpt>
      <trkpt lat="40.555602964013815" lon="14.221637304872274">
        <ele>301.02999999999997</ele>
        <time>2018-09-27T12:19:02Z</time>
      </trkpt>
      <trkpt lat="40.555656189098954" lon="14.221669072285295">
        <ele>301.02999999999997</ele>
        <time>2018-09-27T12:19:13Z</time>
      </trkpt>
      <trkpt lat="40.555733721703291" lon="14.22170989215374">
        <ele>301.02999999999997</ele>
        <time>2018-09-27T12:19:26Z</time>
      </trkpt>
      <trkpt lat="40.555841261520982" lon="14.221804104745388">
        <ele>301.02999999999997</ele>
        <time>2018-09-27T12:19:39Z</time>
      </trkpt>
      <trkpt lat="40.555826341733336" lon="14.221841655671597">
        <ele>301.02999999999997</ele>
        <time>2018-09-27T12:19:47Z</time>
      </trkpt>
      <trkpt lat="40.555877890437841" lon="14.221858838573098">
        <ele>301.50999999999999</ele>
        <time>2018-09-27T12:19:58Z</time>
      </trkpt>
      <trkpt lat="40.555876633152366" lon="14.221888845786452">
        <ele>301.50999999999999</ele>
        <time>2018-09-27T12:20:11Z</time>
      </trkpt>
      <trkpt lat="40.555801196023822" lon="14.221827993169427">
        <ele>301.02999999999997</ele>
        <time>2018-09-27T12:20:24Z</time>
      </trkpt>
      <trkpt lat="40.555874370038509" lon="14.221860682591796">
        <ele>300.55000000000001</ele>
        <time>2018-09-27T12:20:32Z</time>
      </trkpt>
      <trkpt lat="40.556008899584413" lon="14.221995631232858">
        <ele>300.06999999999999</ele>
        <time>2018-09-27T12:20:47Z</time>
      </trkpt>
      <trkpt lat="40.556072853505611" lon="14.222087329253554">
        <ele>300.06999999999999</ele>
        <time>2018-09-27T12:20:56Z</time>
      </trkpt>
      <trkpt lat="40.556136388331652" lon="14.222222780808806">
        <ele>300.55000000000001</ele>
        <time>2018-09-27T12:21:08Z</time>
      </trkpt>
      <trkpt lat="40.55614996701479" lon="14.222262678667903">
        <ele>300.55000000000001</ele>
        <time>2018-09-27T12:21:11Z</time>
      </trkpt>
      <trkpt lat="40.55624476633966" lon="14.222420174628496">
        <ele>300.55000000000001</ele>
        <time>2018-09-27T12:21:24Z</time>
      </trkpt>
      <trkpt lat="40.5563083011657" lon="14.222508268430829">
        <ele>300.55000000000001</ele>
        <time>2018-09-27T12:21:34Z</time>
      </trkpt>
      <trkpt lat="40.556351635605097" lon="14.222606671974063">
        <ele>300.55000000000001</ele>
        <time>2018-09-27T12:21:45Z</time>
      </trkpt>
      <trkpt lat="40.55639966391027" lon="14.222681438550353">
        <ele>300.55000000000001</ele>
        <time>2018-09-27T12:21:58Z</time>
      </trkpt>
      <trkpt lat="40.556441405788064" lon="14.222771041095257">
        <ele>300.55000000000001</ele>
        <time>2018-09-27T12:22:08Z</time>
      </trkpt>
      <trkpt lat="40.556459845975041" lon="14.222815800458193">
        <ele>300.55000000000001</ele>
        <time>2018-09-27T12:22:12Z</time>
      </trkpt>
      <trkpt lat="40.556522710248828" lon="14.223028533160686">
        <ele>300.55000000000001</ele>
        <time>2018-09-27T12:22:27Z</time>
      </trkpt>
      <trkpt lat="40.556532852351665" lon="14.223055774345994">
        <ele>300.55000000000001</ele>
        <time>2018-09-27T12:22:29Z</time>
      </trkpt>
      <trkpt lat="40.556564200669527" lon="14.223292646929622">
        <ele>301.02999999999997</ele>
        <time>2018-09-27T12:22:42Z</time>
      </trkpt>
      <trkpt lat="40.556597057729959" lon="14.223405886441469">
        <ele>301.02999999999997</ele>
        <time>2018-09-27T12:22:54Z</time>
      </trkpt>
      <trkpt lat="40.556620778515935" lon="14.223449556156993">
        <ele>301.02999999999997</ele>
        <time>2018-09-27T12:23:05Z</time>
      </trkpt>
      <trkpt lat="40.556658413261175" lon="14.223531447350979">
        <ele>301.02999999999997</ele>
        <time>2018-09-27T12:23:17Z</time>
      </trkpt>
      <trkpt lat="40.556664783507586" lon="14.223566483706236">
        <ele>300.55000000000001</ele>
        <time>2018-09-27T12:23:20Z</time>
      </trkpt>
      <trkpt lat="40.556734940037131" lon="14.223673939704895">
        <ele>301.02999999999997</ele>
        <time>2018-09-27T12:23:34Z</time>
      </trkpt>
      <trkpt lat="40.556776179000735" lon="14.223766895011067">
        <ele>301.02999999999997</ele>
        <time>2018-09-27T12:23:44Z</time>
      </trkpt>
      <trkpt lat="40.556799564510584" lon="14.223831603303552">
        <ele>300.55000000000001</ele>
        <time>2018-09-27T12:23:53Z</time>
      </trkpt>
      <trkpt lat="40.556838037446141" lon="14.2239258158952">
        <ele>300.55000000000001</ele>
        <time>2018-09-27T12:24:04Z</time>
      </trkpt>
      <trkpt lat="40.556857232004404" lon="14.223970910534263">
        <ele>300.55000000000001</ele>
        <time>2018-09-27T12:24:08Z</time>
      </trkpt>
      <trkpt lat="40.556904003024101" lon="14.22406462021172">
        <ele>300.55000000000001</ele>
        <time>2018-09-27T12:24:20Z</time>
      </trkpt>
      <trkpt lat="40.556947002187371" lon="14.224164448678493">
        <ele>300.55000000000001</ele>
        <time>2018-09-27T12:24:32Z</time>
      </trkpt>
      <trkpt lat="40.556997712701559" lon="14.224265618249774">
        <ele>300.55000000000001</ele>
        <time>2018-09-27T12:24:43Z</time>
      </trkpt>
      <trkpt lat="40.557048339396715" lon="14.224389670416713">
        <ele>301.02999999999997</ele>
        <time>2018-09-27T12:24:56Z</time>
      </trkpt>
      <trkpt lat="40.557084884494543" lon="14.224489666521549">
        <ele>301.02999999999997</ele>
        <time>2018-09-27T12:25:07Z</time>
      </trkpt>
      <trkpt lat="40.557120172306895" lon="14.224577592685819">
        <ele>301.02999999999997</ele>
        <time>2018-09-27T12:25:17Z</time>
      </trkpt>
      <trkpt lat="40.557174235582352" lon="14.224633416160941">
        <ele>301.50999999999999</ele>
        <time>2018-09-27T12:25:26Z</time>
      </trkpt>
      <trkpt lat="40.557213546708226" lon="14.224677672609687">
        <ele>301.99000000000001</ele>
        <time>2018-09-27T12:25:34Z</time>
      </trkpt>
      <trkpt lat="40.557247828692198" lon="14.224750678986311">
        <ele>302.47000000000003</ele>
        <time>2018-09-27T12:25:44Z</time>
      </trkpt>
      <trkpt lat="40.557302981615067" lon="14.224848328158259">
        <ele>302.94999999999999</ele>
        <time>2018-09-27T12:25:55Z</time>
      </trkpt>
      <trkpt lat="40.557327121496201" lon="14.224898032844067">
        <ele>303.43000000000001</ele>
        <time>2018-09-27T12:26:03Z</time>
      </trkpt>
      <trkpt lat="40.557355117052794" lon="14.224912030622363">
        <ele>303.43000000000001</ele>
        <time>2018-09-27T12:26:13Z</time>
      </trkpt>
      <trkpt lat="40.557373389601707" lon="14.224943295121193">
        <ele>303.43000000000001</ele>
        <time>2018-09-27T12:26:26Z</time>
      </trkpt>
      <trkpt lat="40.557374060153961" lon="14.2249895632267">
        <ele>303.43000000000001</ele>
        <time>2018-09-27T12:26:43Z</time>
      </trkpt>
      <trkpt lat="40.557417562231421" lon="14.225095426663756">
        <ele>303.43000000000001</ele>
        <time>2018-09-27T12:26:56Z</time>
      </trkpt>
      <trkpt lat="40.557451089844108" lon="14.225218640640378">
        <ele>303.43000000000001</ele>
        <time>2018-09-27T12:27:07Z</time>
      </trkpt>
      <trkpt lat="40.557457376271486" lon="14.225235572084785">
        <ele>303.43000000000001</ele>
        <time>2018-09-27T12:27:08Z</time>
      </trkpt>
      <trkpt lat="40.557505320757627" lon="14.225390302017331">
        <ele>303.43000000000001</ele>
        <time>2018-09-27T12:27:21Z</time>
      </trkpt>
      <trkpt lat="40.557521414011717" lon="14.225498428568244">
        <ele>303.43000000000001</ele>
        <time>2018-09-27T12:27:32Z</time>
      </trkpt>
      <trkpt lat="40.557528287172318" lon="14.225641507655382">
        <ele>302.94999999999999</ele>
        <time>2018-09-27T12:27:47Z</time>
      </trkpt>
      <trkpt lat="40.55755284614861" lon="14.225711664184928">
        <ele>302.94999999999999</ele>
        <time>2018-09-27T12:27:58Z</time>
      </trkpt>
      <trkpt lat="40.557562569156289" lon="14.225716944783926">
        <ele>302.94999999999999</ele>
        <time>2018-09-27T12:28:13Z</time>
      </trkpt>
      <trkpt lat="40.557554522529244" lon="14.225724237039685">
        <ele>302.94999999999999</ele>
        <time>2018-09-27T12:28:28Z</time>
      </trkpt>
      <trkpt lat="40.557521749287844" lon="14.225803110748529">
        <ele>302.94999999999999</ele>
        <time>2018-09-27T12:28:39Z</time>
      </trkpt>
      <trkpt lat="40.557491825893521" lon="14.225818198174238">
        <ele>302.94999999999999</ele>
        <time>2018-09-27T12:28:57Z</time>
      </trkpt>
      <trkpt lat="40.557503728196025" lon="14.225837895646691">
        <ele>302.94999999999999</ele>
        <time>2018-09-27T12:29:10Z</time>
      </trkpt>
      <trkpt lat="40.557495262473822" lon="14.225838230922818">
        <ele>302.94999999999999</ele>
        <time>2018-09-27T12:29:24Z</time>
      </trkpt>
      <trkpt lat="40.557510517537594" lon="14.225849378854036">
        <ele>302.94999999999999</ele>
        <time>2018-09-27T12:29:36Z</time>
      </trkpt>
      <trkpt lat="40.557496519759297" lon="14.225847786292434">
        <ele>302.94999999999999</ele>
        <time>2018-09-27T12:29:57Z</time>
      </trkpt>
      <trkpt lat="40.557483360171318" lon="14.225846277549863">
        <ele>302.94999999999999</ele>
        <time>2018-09-27T12:30:08Z</time>
      </trkpt>
      <trkpt lat="40.557507332414389" lon="14.225846696645021">
        <ele>302.47000000000003</ele>
        <time>2018-09-27T12:30:28Z</time>
      </trkpt>
      <trkpt lat="40.557480258867145" lon="14.225840494036674">
        <ele>302.47000000000003</ele>
        <time>2018-09-27T12:30:42Z</time>
      </trkpt>
      <trkpt lat="40.557466093450785" lon="14.225882487371564">
        <ele>302.47000000000003</ele>
        <time>2018-09-27T12:31:00Z</time>
      </trkpt>
      <trkpt lat="40.55740968324244" lon="14.225931102409959">
        <ele>301.99000000000001</ele>
        <time>2018-09-27T12:31:11Z</time>
      </trkpt>
      <trkpt lat="40.557333575561643" lon="14.225989188998938">
        <ele>301.50999999999999</ele>
        <time>2018-09-27T12:31:24Z</time>
      </trkpt>
      <trkpt lat="40.557282529771328" lon="14.226054232567549">
        <ele>302.47000000000003</ele>
        <time>2018-09-27T12:31:36Z</time>
      </trkpt>
      <trkpt lat="40.557222180068493" lon="14.226057166233659">
        <ele>301.50999999999999</ele>
        <time>2018-09-27T12:31:58Z</time>
      </trkpt>
      <trkpt lat="40.55721128359437" lon="14.22607434913516">
        <ele>301.50999999999999</ele>
        <time>2018-09-27T12:32:20Z</time>
      </trkpt>
      <trkpt lat="40.557233160361648" lon="14.226084155961871">
        <ele>301.50999999999999</ele>
        <time>2018-09-27T12:32:32Z</time>
      </trkpt>
      <trkpt lat="40.557212121784687" lon="14.226124808192253">
        <ele>301.50999999999999</ele>
        <time>2018-09-27T12:32:50Z</time>
      </trkpt>
      <trkpt lat="40.557192508131266" lon="14.2261275742203">
        <ele>301.99000000000001</ele>
        <time>2018-09-27T12:32:53Z</time>
      </trkpt>
      <trkpt lat="40.557164009660482" lon="14.226131094619632">
        <ele>301.99000000000001</ele>
        <time>2018-09-27T12:33:04Z</time>
      </trkpt>
      <trkpt lat="40.557138780131936" lon="14.226147271692753">
        <ele>302.47000000000003</ele>
        <time>2018-09-27T12:33:13Z</time>
      </trkpt>
      <trkpt lat="40.557093098759651" lon="14.226167723536491">
        <ele>302.94999999999999</ele>
        <time>2018-09-27T12:33:23Z</time>
      </trkpt>
      <trkpt lat="40.557035766541958" lon="14.226280795410275">
        <ele>303.43000000000001</ele>
        <time>2018-09-27T12:33:36Z</time>
      </trkpt>
      <trkpt lat="40.557027887552977" lon="14.226306276395917">
        <ele>301.02999999999997</ele>
        <time>2018-09-27T12:33:42Z</time>
      </trkpt>
      <trkpt lat="40.556992599740624" lon="14.226367045193911">
        <ele>299.11000000000001</ele>
        <time>2018-09-27T12:33:55Z</time>
      </trkpt>
      <trkpt lat="40.556953623890877" lon="14.226427143439651">
        <ele>297.18000000000001</ele>
        <time>2018-09-27T12:34:02Z</time>
      </trkpt>
      <trkpt lat="40.556933842599392" lon="14.226470394060016">
        <ele>294.77999999999997</ele>
        <time>2018-09-27T12:34:12Z</time>
      </trkpt>
      <trkpt lat="40.556934932246804" lon="14.226519260555506">
        <ele>292.38</ele>
        <time>2018-09-27T12:34:22Z</time>
      </trkpt>
      <trkpt lat="40.556936021894217" lon="14.226571563631296">
        <ele>291.42000000000002</ele>
        <time>2018-09-27T12:34:32Z</time>
      </trkpt>
      <trkpt lat="40.556937111541629" lon="14.22660106793046">
        <ele>290.45999999999998</ele>
        <time>2018-09-27T12:34:44Z</time>
      </trkpt>
      <trkpt lat="40.5569386202842" lon="14.226639540866017">
        <ele>289.00999999999999</ele>
        <time>2018-09-27T12:34:57Z</time>
      </trkpt>
      <trkpt lat="40.556934010237455" lon="14.226670721545815">
        <ele>287.56999999999999</ele>
        <time>2018-09-27T12:35:10Z</time>
      </trkpt>
      <trkpt lat="40.556939039379358" lon="14.226711373776197">
        <ele>285.64999999999998</ele>
        <time>2018-09-27T12:35:20Z</time>
      </trkpt>
      <trkpt lat="40.556920180097222" lon="14.226753283292055">
        <ele>283.25</ele>
        <time>2018-09-27T12:35:28Z</time>
      </trkpt>
      <trkpt lat="40.556906433776021" lon="14.226785972714424">
        <ele>282.27999999999997</ele>
        <time>2018-09-27T12:35:37Z</time>
      </trkpt>
      <trkpt lat="40.556891597807407" lon="14.226828971877694">
        <ele>278.92000000000002</ele>
        <time>2018-09-27T12:35:45Z</time>
      </trkpt>
      <trkpt lat="40.556875756010413" lon="14.22688253223896">
        <ele>277</ele>
        <time>2018-09-27T12:35:56Z</time>
      </trkpt>
      <trkpt lat="40.55684088729322" lon="14.226969368755817">
        <ele>275.06999999999999</ele>
        <time>2018-09-27T12:36:06Z</time>
      </trkpt>
      <trkpt lat="40.556779112666845" lon="14.227012954652309">
        <ele>273.14999999999998</ele>
        <time>2018-09-27T12:36:16Z</time>
      </trkpt>
      <trkpt lat="40.556743908673525" lon="14.227073891088367">
        <ele>271.23000000000002</ele>
        <time>2018-09-27T12:36:28Z</time>
      </trkpt>
      <trkpt lat="40.556721528992057" lon="14.227116135880351">
        <ele>268.82999999999998</ele>
        <time>2018-09-27T12:36:38Z</time>
      </trkpt>
      <trkpt lat="40.556704010814428" lon="14.2271722946316">
        <ele>266.89999999999998</ele>
        <time>2018-09-27T12:36:49Z</time>
      </trkpt>
      <trkpt lat="40.556690935045481" lon="14.227220825850964">
        <ele>265.45999999999998</ele>
        <time>2018-09-27T12:36:59Z</time>
      </trkpt>
      <trkpt lat="40.55668062530458" lon="14.227251503616571">
        <ele>264.5</ele>
        <time>2018-09-27T12:37:08Z</time>
      </trkpt>
      <trkpt lat="40.556673835963011" lon="14.227288216352463">
        <ele>263.06</ele>
        <time>2018-09-27T12:37:16Z</time>
      </trkpt>
      <trkpt lat="40.556670986115932" lon="14.227311350405216">
        <ele>261.13999999999999</ele>
        <time>2018-09-27T12:37:26Z</time>
      </trkpt>
      <trkpt lat="40.556666543707252" lon="14.227342782542109">
        <ele>259.69</ele>
        <time>2018-09-27T12:37:35Z</time>
      </trkpt>
      <trkpt lat="40.556663274765015" lon="14.227368431165814">
        <ele>258.25</ele>
        <time>2018-09-27T12:37:44Z</time>
      </trkpt>
      <trkpt lat="40.556676182895899" lon="14.227300705388188">
        <ele>258.25</ele>
        <time>2018-09-27T12:38:02Z</time>
      </trkpt>
      <trkpt lat="40.556671991944313" lon="14.227322414517403">
        <ele>258.25</ele>
        <time>2018-09-27T12:38:10Z</time>
      </trkpt>
      <trkpt lat="40.556666208431125" lon="14.227311434224248">
        <ele>258.25</ele>
        <time>2018-09-27T12:38:20Z</time>
      </trkpt>
      <trkpt lat="40.556664280593395" lon="14.227315206080675">
        <ele>257.76999999999998</ele>
        <time>2018-09-27T12:38:39Z</time>
      </trkpt>
      <trkpt lat="40.556654892861843" lon="14.227342782542109">
        <ele>257.76999999999998</ele>
        <time>2018-09-27T12:38:55Z</time>
      </trkpt>
      <trkpt lat="40.556653551757336" lon="14.22731202095747">
        <ele>257.76999999999998</ele>
        <time>2018-09-27T12:39:14Z</time>
      </trkpt>
      <trkpt lat="40.556661011651158" lon="14.227343369275331">
        <ele>257.76999999999998</ele>
        <time>2018-09-27T12:39:27Z</time>
      </trkpt>
      <trkpt lat="40.556658916175365" lon="14.227324007079005">
        <ele>257.76999999999998</ele>
        <time>2018-09-27T12:39:37Z</time>
      </trkpt>
      <trkpt lat="40.556665286421776" lon="14.22733012586832">
        <ele>257.76999999999998</ele>
        <time>2018-09-27T12:39:48Z</time>
      </trkpt>
      <trkpt lat="40.556664615869522" lon="14.227343872189522">
        <ele>257.76999999999998</ele>
        <time>2018-09-27T12:39:50Z</time>
      </trkpt>
      <trkpt lat="40.556656401604414" lon="14.227465661242604">
        <ele>257.76999999999998</ele>
        <time>2018-09-27T12:40:00Z</time>
      </trkpt>
      <trkpt lat="40.5566415656358" lon="14.227483849972486">
        <ele>257.29000000000002</ele>
        <time>2018-09-27T12:40:02Z</time>
      </trkpt>
      <trkpt lat="40.556554142385721" lon="14.227632377296686">
        <ele>256.81</ele>
        <time>2018-09-27T12:40:15Z</time>
      </trkpt>
      <trkpt lat="40.556530086323619" lon="14.22767948359251">
        <ele>256.81</ele>
        <time>2018-09-27T12:40:22Z</time>
      </trkpt>
      <trkpt lat="40.556416511535645" lon="14.227748131379485">
        <ele>256.81</ele>
        <time>2018-09-27T12:40:35Z</time>
      </trkpt>
      <trkpt lat="40.556276198476553" lon="14.227839829400182">
        <ele>255.84999999999999</ele>
        <time>2018-09-27T12:40:48Z</time>
      </trkpt>
      <trkpt lat="40.556218111887574" lon="14.227855252102017">
        <ele>255.37</ele>
        <time>2018-09-27T12:40:53Z</time>
      </trkpt>
      <trkpt lat="40.556072182953358" lon="14.227908477187157">
        <ele>254.41</ele>
        <time>2018-09-27T12:41:07Z</time>
      </trkpt>
      <trkpt lat="40.555999763309956" lon="14.227992380037904">
        <ele>253.93000000000001</ele>
        <time>2018-09-27T12:41:16Z</time>
      </trkpt>
      <trkpt lat="40.555873280391097" lon="14.228003192692995">
        <ele>252.47999999999999</ele>
        <time>2018-09-27T12:41:29Z</time>
      </trkpt>
      <trkpt lat="40.555865401402116" lon="14.227998582646251">
        <ele>252.47999999999999</ele>
        <time>2018-09-27T12:41:30Z</time>
      </trkpt>
      <trkpt lat="40.555733805522323" lon="14.227934796363115">
        <ele>251.03999999999999</ele>
        <time>2018-09-27T12:41:43Z</time>
      </trkpt>
      <trkpt lat="40.555596929043531" lon="14.227898335084319">
        <ele>250.08000000000001</ele>
        <time>2018-09-27T12:41:57Z</time>
      </trkpt>
      <trkpt lat="40.555539429187775" lon="14.227863382548094">
        <ele>249.59999999999999</ele>
        <time>2018-09-27T12:42:10Z</time>
      </trkpt>
      <trkpt lat="40.555489556863904" lon="14.227837650105357">
        <ele>249.12</ele>
        <time>2018-09-27T12:42:15Z</time>
      </trkpt>
      <trkpt lat="40.555381597951055" lon="14.22784804366529">
        <ele>247.68000000000001</ele>
        <time>2018-09-27T12:42:27Z</time>
      </trkpt>
      <trkpt lat="40.555256037041545" lon="14.227927839383483">
        <ele>246.22999999999999</ele>
        <time>2018-09-27T12:42:39Z</time>
      </trkpt>
      <trkpt lat="40.555171296000481" lon="14.228061363101006">
        <ele>244.78999999999999</ele>
        <time>2018-09-27T12:42:53Z</time>
      </trkpt>
      <trkpt lat="40.555072808638215" lon="14.228144846856594">
        <ele>243.83000000000001</ele>
        <time>2018-09-27T12:43:05Z</time>
      </trkpt>
      <trkpt lat="40.554956803098321" lon="14.228228665888309">
        <ele>241.91</ele>
        <time>2018-09-27T12:43:20Z</time>
      </trkpt>
      <trkpt lat="40.554830739274621" lon="14.22831860370934">
        <ele>240.47</ele>
        <time>2018-09-27T12:43:32Z</time>
      </trkpt>
      <trkpt lat="40.554741472005844" lon="14.228440057486296">
        <ele>239.02000000000001</ele>
        <time>2018-09-27T12:43:44Z</time>
      </trkpt>
      <trkpt lat="40.554735688492656" lon="14.228450702503324">
        <ele>239.02000000000001</ele>
        <time>2018-09-27T12:43:45Z</time>
      </trkpt>
      <trkpt lat="40.554606858640909" lon="14.228590345010161">
        <ele>237.58000000000001</ele>
        <time>2018-09-27T12:43:59Z</time>
      </trkpt>
      <trkpt lat="40.554467383772135" lon="14.228709284216166">
        <ele>235.66</ele>
        <time>2018-09-27T12:44:14Z</time>
      </trkpt>
      <trkpt lat="40.554342912510037" lon="14.228790840134025">
        <ele>234.69999999999999</ele>
        <time>2018-09-27T12:44:26Z</time>
      </trkpt>
      <trkpt lat="40.554217603057623" lon="14.228875497356057">
        <ele>233.74000000000001</ele>
        <time>2018-09-27T12:44:39Z</time>
      </trkpt>
      <trkpt lat="40.554122300818563" lon="14.228910198435187">
        <ele>232.78</ele>
        <time>2018-09-27T12:44:48Z</time>
      </trkpt>
      <trkpt lat="40.554064800962806" lon="14.228909108787775">
        <ele>232.78</ele>
        <time>2018-09-27T12:44:59Z</time>
      </trkpt>
      <trkpt lat="40.554005289450288" lon="14.228934673592448">
        <ele>232.30000000000001</ele>
        <time>2018-09-27T12:45:06Z</time>
      </trkpt>
      <trkpt lat="40.553925996646285" lon="14.229020169004798">
        <ele>231.81</ele>
        <time>2018-09-27T12:45:15Z</time>
      </trkpt>
      <trkpt lat="40.553920129314065" lon="14.229063838720322">
        <ele>230.84999999999999</ele>
        <time>2018-09-27T12:45:25Z</time>
      </trkpt>
      <trkpt lat="40.553901437669992" lon="14.229137348011136">
        <ele>228.44999999999999</ele>
        <time>2018-09-27T12:45:36Z</time>
      </trkpt>
      <trkpt lat="40.553860701620579" lon="14.229220915585756">
        <ele>226.05000000000001</ele>
        <time>2018-09-27T12:45:45Z</time>
      </trkpt>
      <trkpt lat="40.553813427686691" lon="14.229312529787421">
        <ele>223.16</ele>
        <time>2018-09-27T12:45:55Z</time>
      </trkpt>
      <trkpt lat="40.553842009976506" lon="14.22933692112565">
        <ele>220.28</ele>
        <time>2018-09-27T12:46:04Z</time>
      </trkpt>
      <trkpt lat="40.55387637577951" lon="14.229240277782083">
        <ele>217.40000000000001</ele>
        <time>2018-09-27T12:46:16Z</time>
      </trkpt>
      <trkpt lat="40.553978634998202" lon="14.229218233376741">
        <ele>214.99000000000001</ele>
        <time>2018-09-27T12:46:27Z</time>
      </trkpt>
      <trkpt lat="40.554050970822573" lon="14.229208678007126">
        <ele>213.06999999999999</ele>
        <time>2018-09-27T12:46:38Z</time>
      </trkpt>
      <trkpt lat="40.55406840518117" lon="14.229260897263885">
        <ele>211.63</ele>
        <time>2018-09-27T12:46:54Z</time>
      </trkpt>
      <trkpt lat="40.554068069905043" lon="14.229283109307289">
        <ele>211.63</ele>
        <time>2018-09-27T12:46:55Z</time>
      </trkpt>
      <trkpt lat="40.554068153724074" lon="14.229302303865552">
        <ele>211.63</ele>
        <time>2018-09-27T12:46:56Z</time>
      </trkpt>
      <trkpt lat="40.554064130410552" lon="14.229316469281912">
        <ele>211.63</ele>
        <time>2018-09-27T12:46:57Z</time>
      </trkpt>
      <trkpt lat="40.554042337462306" lon="14.229306159541011">
        <ele>211.15000000000001</ele>
        <time>2018-09-27T12:47:08Z</time>
      </trkpt>
      <trkpt lat="40.553987268358469" lon="14.229377070441842">
        <ele>211.15000000000001</ele>
        <time>2018-09-27T12:47:22Z</time>
      </trkpt>
      <trkpt lat="40.553998500108719" lon="14.229403557255864">
        <ele>211.15000000000001</ele>
        <time>2018-09-27T12:47:36Z</time>
      </trkpt>
      <trkpt lat="40.553972013294697" lon="14.229432893916965">
        <ele>210.66999999999999</ele>
        <time>2018-09-27T12:47:50Z</time>
      </trkpt>
      <trkpt lat="40.553963212296367" lon="14.229458877816796">
        <ele>210.66999999999999</ele>
        <time>2018-09-27T12:48:07Z</time>
      </trkpt>
      <trkpt lat="40.553893474861979" lon="14.229550659656525">
        <ele>210.19</ele>
        <time>2018-09-27T12:48:18Z</time>
      </trkpt>
      <trkpt lat="40.55388324894011" lon="14.22966624610126">
        <ele>209.69999999999999</ele>
        <time>2018-09-27T12:48:28Z</time>
      </trkpt>
      <trkpt lat="40.553922643885016" lon="14.229820892214775">
        <ele>209.22</ele>
        <time>2018-09-27T12:48:39Z</time>
      </trkpt>
      <trkpt lat="40.553922057151794" lon="14.229913847520947">
        <ele>208.74000000000001</ele>
        <time>2018-09-27T12:48:45Z</time>
      </trkpt>
      <trkpt lat="40.553908394649625" lon="14.230038654059172">
        <ele>207.78</ele>
        <time>2018-09-27T12:48:55Z</time>
      </trkpt>
      <trkpt lat="40.553875034675002" lon="14.2302081361413">
        <ele>206.81999999999999</ele>
        <time>2018-09-27T12:49:08Z</time>
      </trkpt>
      <trkpt lat="40.553883500397205" lon="14.230281226336956">
        <ele>205.38</ele>
        <time>2018-09-27T12:49:19Z</time>
      </trkpt>
      <trkpt lat="40.553911412134767" lon="14.230338390916586">
        <ele>202.97999999999999</ele>
        <time>2018-09-27T12:49:30Z</time>
      </trkpt>
      <trkpt lat="40.553919039666653" lon="14.230422964319587">
        <ele>201.05000000000001</ele>
        <time>2018-09-27T12:49:42Z</time>
      </trkpt>
      <trkpt lat="40.553913675248623" lon="14.230452217161655">
        <ele>199.61000000000001</ele>
        <time>2018-09-27T12:49:47Z</time>
      </trkpt>
      <trkpt lat="40.553922140970826" lon="14.230511309579015">
        <ele>196.72999999999999</ele>
        <time>2018-09-27T12:49:58Z</time>
      </trkpt>
      <trkpt lat="40.553953573107719" lon="14.230501670390368">
        <ele>194.80000000000001</ele>
        <time>2018-09-27T12:50:08Z</time>
      </trkpt>
      <trkpt lat="40.553980143740773" lon="14.230496389791369">
        <ele>193.84</ele>
        <time>2018-09-27T12:50:16Z</time>
      </trkpt>
      <trkpt lat="40.553991543129086" lon="14.230464790016413">
        <ele>192.88</ele>
        <time>2018-09-27T12:50:28Z</time>
      </trkpt>
      <trkpt lat="40.553978970274329" lon="14.230452133342624">
        <ele>193.36000000000001</ele>
        <time>2018-09-27T12:50:42Z</time>
      </trkpt>
      <trkpt lat="40.553996236994863" lon="14.230426400899887">
        <ele>192.40000000000001</ele>
        <time>2018-09-27T12:50:54Z</time>
      </trkpt>
      <trkpt lat="40.554006546735764" lon="14.230424640700221">
        <ele>191.44</ele>
        <time>2018-09-27T12:51:03Z</time>
      </trkpt>
      <trkpt lat="40.553999338299036" lon="14.230471663177013">
        <ele>190</ele>
        <time>2018-09-27T12:51:14Z</time>
      </trkpt>
      <trkpt lat="40.553998835384846" lon="14.230458084493876">
        <ele>190</ele>
        <time>2018-09-27T12:51:28Z</time>
      </trkpt>
      <trkpt lat="40.553988609462976" lon="14.230498820543289">
        <ele>190</ele>
        <time>2018-09-27T12:51:41Z</time>
      </trkpt>
      <trkpt lat="40.553990118205547" lon="14.230511141940951">
        <ele>190</ele>
        <time>2018-09-27T12:52:03Z</time>
      </trkpt>
      <trkpt lat="40.554023142904043" lon="14.230595715343952">
        <ele>187.59</ele>
        <time>2018-09-27T12:52:15Z</time>
      </trkpt>
      <trkpt lat="40.554022053256631" lon="14.230694621801376">
        <ele>186.63</ele>
        <time>2018-09-27T12:52:25Z</time>
      </trkpt>
      <trkpt lat="40.554001936689019" lon="14.230786571279168">
        <ele>186.15000000000001</ele>
        <time>2018-09-27T12:52:33Z</time>
      </trkpt>
      <trkpt lat="40.553976958617568" lon="14.230953706428409">
        <ele>185.19</ele>
        <time>2018-09-27T12:52:45Z</time>
      </trkpt>
      <trkpt lat="40.553974779322743" lon="14.23097918741405">
        <ele>185.19</ele>
        <time>2018-09-27T12:52:47Z</time>
      </trkpt>
      <trkpt lat="40.553974695503712" lon="14.230991676449776">
        <ele>185.19</ele>
        <time>2018-09-27T12:52:48Z</time>
      </trkpt>
      <trkpt lat="40.553974192589521" lon="14.231006260961294">
        <ele>185.19</ele>
        <time>2018-09-27T12:52:49Z</time>
      </trkpt>
      <trkpt lat="40.553973354399204" lon="14.231020510196686">
        <ele>185.19</ele>
        <time>2018-09-27T12:52:50Z</time>
      </trkpt>
      <trkpt lat="40.553971007466316" lon="14.23103584907949">
        <ele>185.19</ele>
        <time>2018-09-27T12:52:51Z</time>
      </trkpt>
      <trkpt lat="40.553927086293697" lon="14.231189237907529">
        <ele>184.22999999999999</ele>
        <time>2018-09-27T12:53:04Z</time>
      </trkpt>
      <trkpt lat="40.553871849551797" lon="14.231385877355933">
        <ele>183.27000000000001</ele>
        <time>2018-09-27T12:53:18Z</time>
      </trkpt>
      <trkpt lat="40.553843518719077" lon="14.231482855975628">
        <ele>182.78999999999999</ele>
        <time>2018-09-27T12:53:28Z</time>
      </trkpt>
      <trkpt lat="40.55383731611073" lon="14.231495596468449">
        <ele>182.31</ele>
        <time>2018-09-27T12:53:29Z</time>
      </trkpt>
      <trkpt lat="40.553794065490365" lon="14.231652086600661">
        <ele>181.83000000000001</ele>
        <time>2018-09-27T12:53:41Z</time>
      </trkpt>
      <trkpt lat="40.553789958357811" lon="14.231669018045068">
        <ele>181.83000000000001</ele>
        <time>2018-09-27T12:53:42Z</time>
      </trkpt>
      <trkpt lat="40.553754167631269" lon="14.231728948652744">
        <ele>181.34999999999999</ele>
        <time>2018-09-27T12:53:47Z</time>
      </trkpt>
      <trkpt lat="40.553646711632609" lon="14.23187873326242">
        <ele>180.38</ele>
        <time>2018-09-27T12:53:59Z</time>
      </trkpt>
      <trkpt lat="40.553549900650978" lon="14.232013765722513">
        <ele>178.94</ele>
        <time>2018-09-27T12:54:11Z</time>
      </trkpt>
      <trkpt lat="40.553459962829947" lon="14.232115773484111">
        <ele>178.46000000000001</ele>
        <time>2018-09-27T12:54:21Z</time>
      </trkpt>
      <trkpt lat="40.55335451848805" lon="14.232240915298462">
        <ele>177.02000000000001</ele>
        <time>2018-09-27T12:54:33Z</time>
      </trkpt>
      <trkpt lat="40.553249241784215" lon="14.232363542541862">
        <ele>176.06</ele>
        <time>2018-09-27T12:54:44Z</time>
      </trkpt>
      <trkpt lat="40.553127285093069" lon="14.232486840337515">
        <ele>175.09999999999999</ele>
        <time>2018-09-27T12:54:56Z</time>
      </trkpt>
      <trkpt lat="40.553050925955176" lon="14.232558254152536">
        <ele>174.62</ele>
        <time>2018-09-27T12:55:04Z</time>
      </trkpt>
      <trkpt lat="40.553039778023958" lon="14.232567055150867">
        <ele>174.62</ele>
        <time>2018-09-27T12:55:05Z</time>
      </trkpt>
      <trkpt lat="40.552867613732815" lon="14.232610808685422">
        <ele>173.16999999999999</ele>
        <time>2018-09-27T12:55:19Z</time>
      </trkpt>
      <trkpt lat="40.552717661485076" lon="14.23265615478158">
        <ele>172.69</ele>
        <time>2018-09-27T12:55:31Z</time>
      </trkpt>
      <trkpt lat="40.552531667053699" lon="14.232710972428322">
        <ele>172.69</ele>
        <time>2018-09-27T12:55:47Z</time>
      </trkpt>
      <trkpt lat="40.552405016496778" lon="14.232810465618968">
        <ele>170.28999999999999</ele>
        <time>2018-09-27T12:56:00Z</time>
      </trkpt>
      <trkpt lat="40.552270403131843" lon="14.232924375683069">
        <ele>169.33000000000001</ele>
        <time>2018-09-27T12:56:13Z</time>
      </trkpt>
      <trkpt lat="40.55215640924871" lon="14.233027556911111">
        <ele>168.37</ele>
        <time>2018-09-27T12:56:25Z</time>
      </trkpt>
      <trkpt lat="40.55197418667376" lon="14.23319318331778">
        <ele>166.93000000000001</ele>
        <time>2018-09-27T12:56:43Z</time>
      </trkpt>
      <trkpt lat="40.551814176142216" lon="14.233327293768525">
        <ele>165.47999999999999</ele>
        <time>2018-09-27T12:56:58Z</time>
      </trkpt>
      <trkpt lat="40.551692638546228" lon="14.233407760038972">
        <ele>164.52000000000001</ele>
        <time>2018-09-27T12:57:10Z</time>
      </trkpt>
      <trkpt lat="40.551550649106503" lon="14.233477497473359">
        <ele>163.56</ele>
        <time>2018-09-27T12:57:22Z</time>
      </trkpt>
      <trkpt lat="40.551412682980299" lon="14.23356793820858">
        <ele>162.59999999999999</ele>
        <time>2018-09-27T12:57:35Z</time>
      </trkpt>
      <trkpt lat="40.551294749602675" lon="14.233713783323765">
        <ele>161.63999999999999</ele>
        <time>2018-09-27T12:57:47Z</time>
      </trkpt>
      <trkpt lat="40.551154604181647" lon="14.23386842943728">
        <ele>160.68000000000001</ele>
        <time>2018-09-27T12:58:01Z</time>
      </trkpt>
      <trkpt lat="40.551043376326561" lon="14.234043527394533">
        <ele>159.72</ele>
        <time>2018-09-27T12:58:14Z</time>
      </trkpt>
      <trkpt lat="40.550965676084161" lon="14.234278220683336">
        <ele>159.24000000000001</ele>
        <time>2018-09-27T12:58:29Z</time>
      </trkpt>
      <trkpt lat="40.550931310281157" lon="14.234463963657618">
        <ele>158.27000000000001</ele>
        <time>2018-09-27T12:58:42Z</time>
      </trkpt>
      <trkpt lat="40.550886215642095" lon="14.234772585332394">
        <ele>156.83000000000001</ele>
        <time>2018-09-27T12:59:01Z</time>
      </trkpt>
      <trkpt lat="40.550864590331912" lon="14.234937373548746">
        <ele>155.87</ele>
        <time>2018-09-27T12:59:11Z</time>
      </trkpt>
      <trkpt lat="40.550862243399024" lon="14.234968973323703">
        <ele>155.87</ele>
        <time>2018-09-27T12:59:13Z</time>
      </trkpt>
      <trkpt lat="40.550858303904533" lon="14.234984731301665">
        <ele>155.87</ele>
        <time>2018-09-27T12:59:14Z</time>
      </trkpt>
      <trkpt lat="40.550789153203368" lon="14.235228979960084">
        <ele>154.43000000000001</ele>
        <time>2018-09-27T12:59:29Z</time>
      </trkpt>
      <trkpt lat="40.550724528729916" lon="14.235444059595466">
        <ele>153.47</ele>
        <time>2018-09-27T12:59:43Z</time>
      </trkpt>
      <trkpt lat="40.55069787427783" lon="14.235512120649219">
        <ele>152.99000000000001</ele>
        <time>2018-09-27T12:59:54Z</time>
      </trkpt>
      <trkpt lat="40.550693850964308" lon="14.235516730695963">
        <ele>153.47</ele>
        <time>2018-09-27T13:00:13Z</time>
      </trkpt>
      <trkpt lat="40.55070667527616" lon="14.235529806464911">
        <ele>152.99000000000001</ele>
        <time>2018-09-27T13:00:29Z</time>
      </trkpt>
      <trkpt lat="40.550660407170653" lon="14.235654026269913">
        <ele>152.50999999999999</ele>
        <time>2018-09-27T13:00:40Z</time>
      </trkpt>
      <trkpt lat="40.550627298653126" lon="14.235752010717988">
        <ele>152.03</ele>
        <time>2018-09-27T13:00:51Z</time>
      </trkpt>
      <trkpt lat="40.550581114366651" lon="14.235795931890607">
        <ele>151.53999999999999</ele>
        <time>2018-09-27T13:01:02Z</time>
      </trkpt>
      <trkpt lat="40.550566194579005" lon="14.235854186117649">
        <ele>151.06</ele>
        <time>2018-09-27T13:01:14Z</time>
      </trkpt>
      <trkpt lat="40.550509952008724" lon="14.235965413972735">
        <ele>150.58000000000001</ele>
        <time>2018-09-27T13:01:25Z</time>
      </trkpt>
      <trkpt lat="40.550404759123921" lon="14.236147720366716">
        <ele>150.09999999999999</ele>
        <time>2018-09-27T13:01:39Z</time>
      </trkpt>
      <trkpt lat="40.550331166014075" lon="14.23634578473866">
        <ele>149.13999999999999</ele>
        <time>2018-09-27T13:01:53Z</time>
      </trkpt>
      <trkpt lat="40.550217423588037" lon="14.236510656774044">
        <ele>148.18000000000001</ele>
        <time>2018-09-27T13:02:09Z</time>
      </trkpt>
      <trkpt lat="40.550100663676858" lon="14.236745936796069">
        <ele>147.22</ele>
        <time>2018-09-27T13:02:25Z</time>
      </trkpt>
      <trkpt lat="40.550050539895892" lon="14.236857583746314">
        <ele>146.74000000000001</ele>
        <time>2018-09-27T13:02:35Z</time>
      </trkpt>
      <trkpt lat="40.550038637593389" lon="14.236861523240805">
        <ele>146.74000000000001</ele>
        <time>2018-09-27T13:02:36Z</time>
      </trkpt>
      <trkpt lat="40.549996644258499" lon="14.236897984519601">
        <ele>146.74000000000001</ele>
        <time>2018-09-27T13:02:40Z</time>
      </trkpt>
      <trkpt lat="40.54994735866785" lon="14.237034358084202">
        <ele>146.25999999999999</ele>
        <time>2018-09-27T13:02:51Z</time>
      </trkpt>
      <trkpt lat="40.549929337576032" lon="14.237102754414082">
        <ele>146.25999999999999</ele>
        <time>2018-09-27T13:02:57Z</time>
      </trkpt>
      <trkpt lat="40.549930678680539" lon="14.237116668373346">
        <ele>146.25999999999999</ele>
        <time>2018-09-27T13:02:58Z</time>
      </trkpt>
      <trkpt lat="40.549923134967685" lon="14.237164948135614">
        <ele>145.30000000000001</ele>
        <time>2018-09-27T13:03:02Z</time>
      </trkpt>
      <trkpt lat="40.549921039491892" lon="14.237180789932609">
        <ele>145.30000000000001</ele>
        <time>2018-09-27T13:03:03Z</time>
      </trkpt>
      <trkpt lat="40.549919279292226" lon="14.237197386100888">
        <ele>145.30000000000001</ele>
        <time>2018-09-27T13:03:04Z</time>
      </trkpt>
      <trkpt lat="40.549888182431459" lon="14.237300986424088">
        <ele>144.81999999999999</ele>
        <time>2018-09-27T13:03:11Z</time>
      </trkpt>
      <trkpt lat="40.549870496615767" lon="14.237303165718913">
        <ele>144.81999999999999</ele>
        <time>2018-09-27T13:03:12Z</time>
      </trkpt>
      <trkpt lat="40.549837136641145" lon="14.237305428832769">
        <ele>144.34</ele>
        <time>2018-09-27T13:03:14Z</time>
      </trkpt>
      <trkpt lat="40.549825401976705" lon="14.237311882898211">
        <ele>144.81999999999999</ele>
        <time>2018-09-27T13:03:15Z</time>
      </trkpt>
      <trkpt lat="40.549813248217106" lon="14.237320013344288">
        <ele>144.81999999999999</ele>
        <time>2018-09-27T13:03:16Z</time>
      </trkpt>
      <trkpt lat="40.549792042002082" lon="14.237363766878843">
        <ele>144.81999999999999</ele>
        <time>2018-09-27T13:03:20Z</time>
      </trkpt>
      <trkpt lat="40.549791706725955" lon="14.237378686666489">
        <ele>144.81999999999999</ele>
        <time>2018-09-27T13:03:21Z</time>
      </trkpt>
      <trkpt lat="40.549799250438809" lon="14.237568369135261">
        <ele>145.30000000000001</ele>
        <time>2018-09-27T13:03:35Z</time>
      </trkpt>
      <trkpt lat="40.549821127206087" lon="14.237731229513884">
        <ele>145.30000000000001</ele>
        <time>2018-09-27T13:03:48Z</time>
      </trkpt>
      <trkpt lat="40.54981098510325" lon="14.237955780699849">
        <ele>145.78</ele>
        <time>2018-09-27T13:04:02Z</time>
      </trkpt>
      <trkpt lat="40.549793718382716" lon="14.238216374069452">
        <ele>146.25999999999999</ele>
        <time>2018-09-27T13:04:19Z</time>
      </trkpt>
      <trkpt lat="40.549804950132966" lon="14.238405050709844">
        <ele>146.25999999999999</ele>
        <time>2018-09-27T13:04:33Z</time>
      </trkpt>
      <trkpt lat="40.549837974831462" lon="14.2385368142277">
        <ele>146.74000000000001</ele>
        <time>2018-09-27T13:04:44Z</time>
      </trkpt>
      <trkpt lat="40.549850044772029" lon="14.238644521683455">
        <ele>147.22</ele>
        <time>2018-09-27T13:04:53Z</time>
      </trkpt>
      <trkpt lat="40.549865048378706" lon="14.238825654610991">
        <ele>147.22</ele>
        <time>2018-09-27T13:05:05Z</time>
      </trkpt>
      <trkpt lat="40.549907712265849" lon="14.239017264917493">
        <ele>147.69999999999999</ele>
        <time>2018-09-27T13:05:18Z</time>
      </trkpt>
      <trkpt lat="40.54992045275867" lon="14.239161517471075">
        <ele>148.18000000000001</ele>
        <time>2018-09-27T13:05:28Z</time>
      </trkpt>
      <trkpt lat="40.549922212958336" lon="14.239227985963225">
        <ele>148.18000000000001</ele>
        <time>2018-09-27T13:05:39Z</time>
      </trkpt>
      <trkpt lat="40.549930343404412" lon="14.239364610984921">
        <ele>150.09999999999999</ele>
        <time>2018-09-27T13:05:52Z</time>
      </trkpt>
      <trkpt lat="40.54993562400341" lon="14.239484053105116">
        <ele>149.13999999999999</ele>
        <time>2018-09-27T13:06:04Z</time>
      </trkpt>
      <trkpt lat="40.549933696165681" lon="14.239590503275394">
        <ele>148.66</ele>
        <time>2018-09-27T13:06:15Z</time>
      </trkpt>
      <trkpt lat="40.549950627610087" lon="14.239615397527814">
        <ele>148.66</ele>
        <time>2018-09-27T13:06:27Z</time>
      </trkpt>
      <trkpt lat="40.549967307597399" lon="14.239656468853354">
        <ele>148.66</ele>
        <time>2018-09-27T13:06:34Z</time>
      </trkpt>
      <trkpt lat="40.550010306760669" lon="14.239809606224298">
        <ele>149.62</ele>
        <time>2018-09-27T13:06:47Z</time>
      </trkpt>
      <trkpt lat="40.550014162436128" lon="14.239817736670375">
        <ele>149.62</ele>
        <time>2018-09-27T13:06:48Z</time>
      </trkpt>
      <trkpt lat="40.550008630380034" lon="14.239809438586235">
        <ele>149.13999999999999</ele>
        <time>2018-09-27T13:06:55Z</time>
      </trkpt>
      <trkpt lat="40.550005529075861" lon="14.239788232371211">
        <ele>149.13999999999999</ele>
        <time>2018-09-27T13:07:17Z</time>
      </trkpt>
      <trkpt lat="40.550007792189717" lon="14.239785969257355">
        <ele>149.13999999999999</ele>
        <time>2018-09-27T13:07:38Z</time>
      </trkpt>
      <trkpt lat="40.550008378922939" lon="14.239832907915115">
        <ele>150.09999999999999</ele>
        <time>2018-09-27T13:07:45Z</time>
      </trkpt>
      <trkpt lat="40.550016844645143" lon="14.239840703085065">
        <ele>151.06</ele>
        <time>2018-09-27T13:07:53Z</time>
      </trkpt>
      <trkpt lat="40.550022628158331" lon="14.239858137443662">
        <ele>149.62</ele>
        <time>2018-09-27T13:08:04Z</time>
      </trkpt>
      <trkpt lat="40.550008462741971" lon="14.239862244576216">
        <ele>150.09999999999999</ele>
        <time>2018-09-27T13:08:14Z</time>
      </trkpt>
      <trkpt lat="40.550000416114926" lon="14.239861993119121">
        <ele>149.13999999999999</ele>
        <time>2018-09-27T13:08:34Z</time>
      </trkpt>
      <trkpt lat="40.549999661743641" lon="14.239853108301759">
        <ele>149.62</ele>
        <time>2018-09-27T13:08:48Z</time>
      </trkpt>
      <trkpt lat="40.550004607066512" lon="14.239788064733148">
        <ele>149.62</ele>
        <time>2018-09-27T13:08:56Z</time>
      </trkpt>
      <trkpt lat="40.550015587359667" lon="14.239803487434983">
        <ele>149.62</ele>
        <time>2018-09-27T13:09:17Z</time>
      </trkpt>
      <trkpt lat="40.550020867958665" lon="14.239857215434313">
        <ele>149.13999999999999</ele>
        <time>2018-09-27T13:09:30Z</time>
      </trkpt>
      <trkpt lat="40.550018018111587" lon="14.239863334223628">
        <ele>149.62</ele>
        <time>2018-09-27T13:09:43Z</time>
      </trkpt>
      <trkpt lat="40.550025729462504" lon="14.239862579852343">
        <ele>149.62</ele>
        <time>2018-09-27T13:09:58Z</time>
      </trkpt>
      <trkpt lat="40.550027405843139" lon="14.239853862673044">
        <ele>149.62</ele>
        <time>2018-09-27T13:10:15Z</time>
      </trkpt>
      <trkpt lat="40.550027824938297" lon="14.239866603165865">
        <ele>149.13999999999999</ele>
        <time>2018-09-27T13:10:27Z</time>
      </trkpt>
      <trkpt lat="40.55000938475132" lon="14.239853359758854">
        <ele>148.66</ele>
        <time>2018-09-27T13:10:44Z</time>
      </trkpt>
      <trkpt lat="40.550016006454825" lon="14.23990742303431">
        <ele>149.62</ele>
        <time>2018-09-27T13:10:56Z</time>
      </trkpt>
      <trkpt lat="40.550005612894893" lon="14.240023177117109">
        <ele>149.62</ele>
        <time>2018-09-27T13:11:08Z</time>
      </trkpt>
      <trkpt lat="40.550012150779366" lon="14.240112444385886">
        <ele>149.62</ele>
        <time>2018-09-27T13:11:19Z</time>
      </trkpt>
      <trkpt lat="40.550018437206745" lon="14.240205734968185">
        <ele>150.09999999999999</ele>
        <time>2018-09-27T13:11:29Z</time>
      </trkpt>
      <trkpt lat="40.550016090273857" lon="14.240315034985542">
        <ele>149.13999999999999</ele>
        <time>2018-09-27T13:11:41Z</time>
      </trkpt>
      <trkpt lat="40.550018940120935" lon="14.240469681099057">
        <ele>149.13999999999999</ele>
        <time>2018-09-27T13:11:55Z</time>
      </trkpt>
      <trkpt lat="40.550024136900902" lon="14.240555679425597">
        <ele>149.13999999999999</ele>
        <time>2018-09-27T13:12:02Z</time>
      </trkpt>
      <trkpt lat="40.550027573481202" lon="14.240580908954144">
        <ele>150.58000000000001</ele>
        <time>2018-09-27T13:12:04Z</time>
      </trkpt>
      <trkpt lat="40.550025394186378" lon="14.240643857046962">
        <ele>150.09999999999999</ele>
        <time>2018-09-27T13:12:09Z</time>
      </trkpt>
      <trkpt lat="40.550035871565342" lon="14.240760449320078">
        <ele>150.09999999999999</ele>
        <time>2018-09-27T13:12:20Z</time>
      </trkpt>
      <trkpt lat="40.55004458874464" lon="14.240836640819907">
        <ele>151.06</ele>
        <time>2018-09-27T13:12:31Z</time>
      </trkpt>
      <trkpt lat="40.55005481466651" lon="14.24098189920187">
        <ele>151.53999999999999</ele>
        <time>2018-09-27T13:12:44Z</time>
      </trkpt>
      <trkpt lat="40.550077697262168" lon="14.241121457889676">
        <ele>152.03</ele>
        <time>2018-09-27T13:12:55Z</time>
      </trkpt>
      <trkpt lat="40.550109464675188" lon="14.241258166730404">
        <ele>152.50999999999999</ele>
        <time>2018-09-27T13:13:05Z</time>
      </trkpt>
      <trkpt lat="40.550128491595387" lon="14.241390516981483">
        <ele>152.50999999999999</ele>
        <time>2018-09-27T13:13:19Z</time>
      </trkpt>
      <trkpt lat="40.550118936225772" lon="14.241443825885653">
        <ele>152.99000000000001</ele>
        <time>2018-09-27T13:13:28Z</time>
      </trkpt>
      <trkpt lat="40.550127821043134" lon="14.241564776748419">
        <ele>153.47</ele>
        <time>2018-09-27T13:13:39Z</time>
      </trkpt>
      <trkpt lat="40.550132682546973" lon="14.241672735661268">
        <ele>153.47</ele>
        <time>2018-09-27T13:13:53Z</time>
      </trkpt>
      <trkpt lat="40.550164617598057" lon="14.241865016520023">
        <ele>153.47</ele>
        <time>2018-09-27T13:14:09Z</time>
      </trkpt>
      <trkpt lat="40.550250364467502" lon="14.242017231881618">
        <ele>153.94999999999999</ele>
        <time>2018-09-27T13:14:23Z</time>
      </trkpt>
      <trkpt lat="40.550282131880522" lon="14.24205687828362">
        <ele>153.94999999999999</ele>
        <time>2018-09-27T13:14:28Z</time>
      </trkpt>
      <trkpt lat="40.550331333652139" lon="14.242176990956068">
        <ele>153.94999999999999</ele>
        <time>2018-09-27T13:14:39Z</time>
      </trkpt>
      <trkpt lat="40.550360837951303" lon="14.242281764745712">
        <ele>153.47</ele>
        <time>2018-09-27T13:14:49Z</time>
      </trkpt>
      <trkpt lat="40.550387073308229" lon="14.24236424267292">
        <ele>153.47</ele>
        <time>2018-09-27T13:15:00Z</time>
      </trkpt>
      <trkpt lat="40.550409452989697" lon="14.242437668144703">
        <ele>153.94999999999999</ele>
        <time>2018-09-27T13:15:16Z</time>
      </trkpt>
      <trkpt lat="40.550504419952631" lon="14.242526767775416">
        <ele>153.94999999999999</ele>
        <time>2018-09-27T13:15:30Z</time>
      </trkpt>
      <trkpt lat="40.550567451864481" lon="14.242496006190777">
        <ele>153.94999999999999</ele>
        <time>2018-09-27T13:15:43Z</time>
      </trkpt>
      <trkpt lat="40.550604416057467" lon="14.24251276999712">
        <ele>153.94999999999999</ele>
        <time>2018-09-27T13:15:54Z</time>
      </trkpt>
      <trkpt lat="40.550653450191021" lon="14.242579489946365">
        <ele>154.43000000000001</ele>
        <time>2018-09-27T13:16:04Z</time>
      </trkpt>
      <trkpt lat="40.55073450319469" lon="14.242582088336349">
        <ele>154.43000000000001</ele>
        <time>2018-09-27T13:16:15Z</time>
      </trkpt>
      <trkpt lat="40.550757553428411" lon="14.242605222389102">
        <ele>154.43000000000001</ele>
        <time>2018-09-27T13:16:25Z</time>
      </trkpt>
      <trkpt lat="40.55077507160604" lon="14.242646126076579">
        <ele>154.43000000000001</ele>
        <time>2018-09-27T13:16:38Z</time>
      </trkpt>
      <trkpt lat="40.550778340548277" lon="14.242613604292274">
        <ele>154.43000000000001</ele>
        <time>2018-09-27T13:17:07Z</time>
      </trkpt>
      <trkpt lat="40.550780687481165" lon="14.242605054751039">
        <ele>154.43000000000001</ele>
        <time>2018-09-27T13:17:32Z</time>
      </trkpt>
      <trkpt lat="40.550771718844771" lon="14.242634139955044">
        <ele>154.43000000000001</ele>
        <time>2018-09-27T13:17:58Z</time>
      </trkpt>
      <trkpt lat="40.550769874826074" lon="14.242644617334008">
        <ele>154.43000000000001</ele>
        <time>2018-09-27T13:18:15Z</time>
      </trkpt>
      <trkpt lat="40.550768114626408" lon="14.242640510201454">
        <ele>154.43000000000001</ele>
        <time>2018-09-27T13:18:33Z</time>
      </trkpt>
      <trkpt lat="40.550751686096191" lon="14.242640426382422">
        <ele>154.43000000000001</ele>
        <time>2018-09-27T13:18:51Z</time>
      </trkpt>
      <trkpt lat="40.550758643075824" lon="14.242621902376413">
        <ele>154.43000000000001</ele>
        <time>2018-09-27T13:19:12Z</time>
      </trkpt>
      <trkpt lat="40.550807090476155" lon="14.242555433884263">
        <ele>154.43000000000001</ele>
        <time>2018-09-27T13:19:25Z</time>
      </trkpt>
      <trkpt lat="40.550823267549276" lon="14.242559038102627">
        <ele>154.43000000000001</ele>
        <time>2018-09-27T13:19:39Z</time>
      </trkpt>
      <trkpt lat="40.550835002213717" lon="14.24258217215538">
        <ele>154.43000000000001</ele>
        <time>2018-09-27T13:19:48Z</time>
      </trkpt>
      <trkpt lat="40.550820250064135" lon="14.242620561271906">
        <ele>154.43000000000001</ele>
        <time>2018-09-27T13:19:58Z</time>
      </trkpt>
      <trkpt lat="40.550806252285838" lon="14.242638917639852">
        <ele>154.43000000000001</ele>
        <time>2018-09-27T13:20:03Z</time>
      </trkpt>
      <trkpt lat="40.550780352205038" lon="14.24270287156105">
        <ele>154.91</ele>
        <time>2018-09-27T13:20:17Z</time>
      </trkpt>
      <trkpt lat="40.550776915624738" lon="14.242639085277915">
        <ele>154.91</ele>
        <time>2018-09-27T13:20:27Z</time>
      </trkpt>
      <trkpt lat="40.550770377740264" lon="14.242653753608465">
        <ele>154.91</ele>
        <time>2018-09-27T13:20:42Z</time>
      </trkpt>
      <trkpt lat="40.550743052735925" lon="14.242721060290933">
        <ele>154.91</ele>
        <time>2018-09-27T13:20:54Z</time>
      </trkpt>
      <trkpt lat="40.550763253122568" lon="14.242778560146689">
        <ele>155.38999999999999</ele>
        <time>2018-09-27T13:21:05Z</time>
      </trkpt>
      <trkpt lat="40.550784124061465" lon="14.242700943723321">
        <ele>155.38999999999999</ele>
        <time>2018-09-27T13:21:18Z</time>
      </trkpt>
      <trkpt lat="40.550776077434421" lon="14.242670768871903">
        <ele>154.91</ele>
        <time>2018-09-27T13:21:39Z</time>
      </trkpt>
      <trkpt lat="40.550819663330913" lon="14.24266473390162">
        <ele>152.99000000000001</ele>
        <time>2018-09-27T13:21:52Z</time>
      </trkpt>
      <trkpt lat="40.550844054669142" lon="14.24265107139945">
        <ele>151.53999999999999</ele>
        <time>2018-09-27T13:22:03Z</time>
      </trkpt>
      <trkpt lat="40.550842797383666" lon="14.242652915418148">
        <ele>151.53999999999999</ele>
        <time>2018-09-27T13:22:04Z</time>
      </trkpt>
      <trkpt lat="40.550857800990343" lon="14.242731034755707">
        <ele>151.53999999999999</ele>
        <time>2018-09-27T13:22:11Z</time>
      </trkpt>
      <trkpt lat="40.550907170400023" lon="14.242795826867223">
        <ele>151.53999999999999</ele>
        <time>2018-09-27T13:22:16Z</time>
      </trkpt>
      <trkpt lat="40.551089560613036" lon="14.24277663230896">
        <ele>151.06</ele>
        <time>2018-09-27T13:22:25Z</time>
      </trkpt>
      <trkpt lat="40.551097020506859" lon="14.242751654237509">
        <ele>150.58000000000001</ele>
        <time>2018-09-27T13:22:27Z</time>
      </trkpt>
      <trkpt lat="40.551109425723553" lon="14.242715025320649">
        <ele>149.13999999999999</ele>
        <time>2018-09-27T13:22:30Z</time>
      </trkpt>
      <trkpt lat="40.551203889772296" lon="14.242733046412468">
        <ele>145.78</ele>
        <time>2018-09-27T13:22:40Z</time>
      </trkpt>
      <trkpt lat="40.551279662176967" lon="14.242743607610464">
        <ele>142.41</ele>
        <time>2018-09-27T13:22:48Z</time>
      </trkpt>
      <trkpt lat="40.55129986256361" lon="14.242740673944354">
        <ele>141.44999999999999</ele>
        <time>2018-09-27T13:22:50Z</time>
      </trkpt>
      <trkpt lat="40.551391392946243" lon="14.242750816047192">
        <ele>138.56999999999999</ele>
        <time>2018-09-27T13:23:00Z</time>
      </trkpt>
      <trkpt lat="40.551483342424035" lon="14.242789121344686">
        <ele>135.68000000000001</ele>
        <time>2018-09-27T13:23:10Z</time>
      </trkpt>
      <trkpt lat="40.551566490903497" lon="14.242826420813799">
        <ele>133.28</ele>
        <time>2018-09-27T13:23:22Z</time>
      </trkpt>
      <trkpt lat="40.551601443439722" lon="14.242832036688924">
        <ele>132.31999999999999</ele>
        <time>2018-09-27T13:23:34Z</time>
      </trkpt>
      <trkpt lat="40.551616279408336" lon="14.242829438298941">
        <ele>132.31999999999999</ele>
        <time>2018-09-27T13:23:36Z</time>
      </trkpt>
      <trkpt lat="40.551718035712838" lon="14.242858523502946">
        <ele>129.43000000000001</ele>
        <time>2018-09-27T13:23:46Z</time>
      </trkpt>
      <trkpt lat="40.551745276898146" lon="14.242865480482578">
        <ele>127.98999999999999</ele>
        <time>2018-09-27T13:23:49Z</time>
      </trkpt>
      <trkpt lat="40.551825826987624" lon="14.242909820750356">
        <ele>125.11</ele>
        <time>2018-09-27T13:23:58Z</time>
      </trkpt>
      <trkpt lat="40.55190185084939" lon="14.242998585104942">
        <ele>123.19</ele>
        <time>2018-09-27T13:24:06Z</time>
      </trkpt>
      <trkpt lat="40.552023975178599" lon="14.243053402751684">
        <ele>120.78</ele>
        <time>2018-09-27T13:24:18Z</time>
      </trkpt>
      <trkpt lat="40.552105279639363" lon="14.243071172386408">
        <ele>117.42</ele>
        <time>2018-09-27T13:24:27Z</time>
      </trkpt>
      <trkpt lat="40.552217848598957" lon="14.243100676685572">
        <ele>114.53</ele>
        <time>2018-09-27T13:24:38Z</time>
      </trkpt>
      <trkpt lat="40.552306948229671" lon="14.24307469278574">
        <ele>111.17</ele>
        <time>2018-09-27T13:24:48Z</time>
      </trkpt>
      <trkpt lat="40.552390767261386" lon="14.24307519569993">
        <ele>108.29000000000001</ele>
        <time>2018-09-27T13:24:58Z</time>
      </trkpt>
      <trkpt lat="40.552467377856374" lon="14.243059270083904">
        <ele>105.40000000000001</ele>
        <time>2018-09-27T13:25:11Z</time>
      </trkpt>
      <trkpt lat="40.552499396726489" lon="14.243030771613121">
        <ele>103.95999999999999</ele>
        <time>2018-09-27T13:25:16Z</time>
      </trkpt>
      <trkpt lat="40.552563602104783" lon="14.242897666990757">
        <ele>100.59999999999999</ele>
        <time>2018-09-27T13:25:27Z</time>
      </trkpt>
      <trkpt lat="40.552573995664716" lon="14.242897247895598">
        <ele>100.11</ele>
        <time>2018-09-27T13:25:28Z</time>
      </trkpt>
      <trkpt lat="40.552624706178904" lon="14.242902109399438">
        <ele>98.670000000000002</ele>
        <time>2018-09-27T13:25:32Z</time>
      </trkpt>
      <trkpt lat="40.552662508562207" lon="14.242923399433494">
        <ele>97.709999999999994</ele>
        <time>2018-09-27T13:25:36Z</time>
      </trkpt>
      <trkpt lat="40.552760241553187" lon="14.242983749136329">
        <ele>95.310000000000002</ele>
        <time>2018-09-27T13:25:47Z</time>
      </trkpt>
      <trkpt lat="40.552908768877387" lon="14.24305172637105">
        <ele>92.900000000000006</ele>
        <time>2018-09-27T13:26:00Z</time>
      </trkpt>
      <trkpt lat="40.553022511303425" lon="14.243131186813116">
        <ele>90.5</ele>
        <time>2018-09-27T13:26:11Z</time>
      </trkpt>
      <trkpt lat="40.553045812994242" lon="14.243133282288909">
        <ele>90.019999999999996</ele>
        <time>2018-09-27T13:26:14Z</time>
      </trkpt>
      <trkpt lat="40.5530911590904" lon="14.243088774383068">
        <ele>88.579999999999998</ele>
        <time>2018-09-27T13:26:18Z</time>
      </trkpt>
      <trkpt lat="40.553195094689727" lon="14.243012079969049">
        <ele>86.659999999999997</ele>
        <time>2018-09-27T13:26:30Z</time>
      </trkpt>
      <trkpt lat="40.553253600373864" lon="14.242927925661206">
        <ele>84.730000000000004</ele>
        <time>2018-09-27T13:26:41Z</time>
      </trkpt>
      <trkpt lat="40.553275141865015" lon="14.242867492139339">
        <ele>83.769999999999996</ele>
        <time>2018-09-27T13:26:46Z</time>
      </trkpt>
      <trkpt lat="40.55333498865366" lon="14.242847040295601">
        <ele>82.329999999999998</ele>
        <time>2018-09-27T13:26:51Z</time>
      </trkpt>
      <trkpt lat="40.553425429388881" lon="14.242824660614133">
        <ele>81.370000000000005</ele>
        <time>2018-09-27T13:26:59Z</time>
      </trkpt>
      <trkpt lat="40.553611675277352" lon="14.242774369195104">
        <ele>78.969999999999999</ele>
        <time>2018-09-27T13:27:14Z</time>
      </trkpt>
      <trkpt lat="40.553762130439281" lon="14.242788702249527">
        <ele>78</ele>
        <time>2018-09-27T13:27:24Z</time>
      </trkpt>
      <trkpt lat="40.553873525932431" lon="14.24279373139143">
        <ele>76.560000000000002</ele>
        <time>2018-09-27T13:27:35Z</time>
      </trkpt>
      <trkpt lat="40.55394527502358" lon="14.242558619007468">
        <ele>74.640000000000001</ele>
        <time>2018-09-27T13:27:49Z</time>
      </trkpt>
      <trkpt lat="40.554014425724745" lon="14.242492821067572">
        <ele>73.680000000000007</ele>
        <time>2018-09-27T13:27:57Z</time>
      </trkpt>
      <trkpt lat="40.554217519238591" lon="14.242398105561733">
        <ele>71.760000000000005</ele>
        <time>2018-09-27T13:28:14Z</time>
      </trkpt>
      <trkpt lat="40.554374260827899" lon="14.242324763908982">
        <ele>68.390000000000001</ele>
        <time>2018-09-27T13:28:29Z</time>
      </trkpt>
      <trkpt lat="40.554471323266625" lon="14.242278076708317">
        <ele>65.510000000000005</ele>
        <time>2018-09-27T13:28:39Z</time>
      </trkpt>
      <trkpt lat="40.55446763522923" lon="14.242277489975095">
        <ele>65.989999999999995</ele>
        <time>2018-09-27T13:28:52Z</time>
      </trkpt>
      <trkpt lat="40.55450820364058" lon="14.242342030629516">
        <ele>65.510000000000005</ele>
        <time>2018-09-27T13:29:08Z</time>
      </trkpt>
      <trkpt lat="40.554552879184484" lon="14.242426687851548">
        <ele>64.069999999999993</ele>
        <time>2018-09-27T13:29:14Z</time>
      </trkpt>
      <trkpt lat="40.554583640769124" lon="14.242485612630844">
        <ele>62.619999999999997</ele>
        <time>2018-09-27T13:29:19Z</time>
      </trkpt>
      <trkpt lat="40.554653210565448" lon="14.24262274056673">
        <ele>59.740000000000002</ele>
        <time>2018-09-27T13:29:30Z</time>
      </trkpt>
      <trkpt lat="40.5546660348773" lon="14.242640929296613">
        <ele>59.259999999999998</ele>
        <time>2018-09-27T13:29:32Z</time>
      </trkpt>
      <trkpt lat="40.554710039868951" lon="14.242697255685925">
        <ele>57.82</ele>
        <time>2018-09-27T13:29:38Z</time>
      </trkpt>
      <trkpt lat="40.554780783131719" lon="14.24274486489594">
        <ele>55.409999999999997</ele>
        <time>2018-09-27T13:29:51Z</time>
      </trkpt>
      <trkpt lat="40.554797798395157" lon="14.242730783298612">
        <ele>55.409999999999997</ele>
        <time>2018-09-27T13:29:54Z</time>
      </trkpt>
      <trkpt lat="40.554820764809847" lon="14.242672026157379">
        <ele>54.93</ele>
        <time>2018-09-27T13:30:04Z</time>
      </trkpt>
      <trkpt lat="40.554853286594152" lon="14.242689795792103">
        <ele>53.009999999999998</ele>
        <time>2018-09-27T13:30:09Z</time>
      </trkpt>
      <trkpt lat="40.554915480315685" lon="14.242631793022156">
        <ele>49.159999999999997</ele>
        <time>2018-09-27T13:30:17Z</time>
      </trkpt>
      <trkpt lat="40.554928388446569" lon="14.242614610120654">
        <ele>48.200000000000003</ele>
        <time>2018-09-27T13:30:19Z</time>
      </trkpt>
      <trkpt lat="40.554973734542727" lon="14.242567839100957">
        <ele>45.32</ele>
        <time>2018-09-27T13:30:27Z</time>
      </trkpt>
      <trkpt lat="40.554951941594481" lon="14.242421155795455">
        <ele>42.439999999999998</ele>
        <time>2018-09-27T13:30:39Z</time>
      </trkpt>
      <trkpt lat="40.555023439228535" lon="14.242406571283937">
        <ele>39.549999999999997</ele>
        <time>2018-09-27T13:30:49Z</time>
      </trkpt>
      <trkpt lat="40.555061241611838" lon="14.242407996207476">
        <ele>37.630000000000003</ele>
        <time>2018-09-27T13:30:54Z</time>
      </trkpt>
      <trkpt lat="40.555101474747062" lon="14.242270532995462">
        <ele>34.740000000000002</ele>
        <time>2018-09-27T13:31:07Z</time>
      </trkpt>
      <trkpt lat="40.555113544687629" lon="14.242248572409153">
        <ele>33.299999999999997</ele>
        <time>2018-09-27T13:31:10Z</time>
      </trkpt>
      <trkpt lat="40.555100301280618" lon="14.242185289040208">
        <ele>32.82</ele>
        <time>2018-09-27T13:31:16Z</time>
      </trkpt>
      <trkpt lat="40.555156040936708" lon="14.242107672616839">
        <ele>31.859999999999999</ele>
        <time>2018-09-27T13:31:27Z</time>
      </trkpt>
      <trkpt lat="40.555174564942718" lon="14.242030642926693">
        <ele>28.98</ele>
        <time>2018-09-27T13:31:35Z</time>
      </trkpt>
      <trkpt lat="40.555187556892633" lon="14.24189418554306">
        <ele>25.609999999999999</ele>
        <time>2018-09-27T13:31:47Z</time>
      </trkpt>
      <trkpt lat="40.55519862100482" lon="14.241851437836885">
        <ele>24.170000000000002</ele>
        <time>2018-09-27T13:31:53Z</time>
      </trkpt>
      <trkpt lat="40.555224185809493" lon="14.241826375946403">
        <ele>24.170000000000002</ele>
        <time>2018-09-27T13:31:56Z</time>
      </trkpt>
      <trkpt lat="40.555215468630195" lon="14.241690756753087">
        <ele>23.210000000000001</ele>
        <time>2018-09-27T13:32:07Z</time>
      </trkpt>
      <trkpt lat="40.555262323468924" lon="14.241547845304012">
        <ele>21.77</ele>
        <time>2018-09-27T13:32:17Z</time>
      </trkpt>
      <trkpt lat="40.555383190512657" lon="14.241416836157441">
        <ele>18.879999999999999</ele>
        <time>2018-09-27T13:32:31Z</time>
      </trkpt>
      <trkpt lat="40.555453766137362" lon="14.241332681849599">
        <ele>18.399999999999999</ele>
        <time>2018-09-27T13:32:40Z</time>
      </trkpt>
      <trkpt lat="40.555476229637861" lon="14.241130175068974">
        <ele>17.440000000000001</ele>
        <time>2018-09-27T13:32:55Z</time>
      </trkpt>
      <trkpt lat="40.555488718673587" lon="14.241053061559796">
        <ele>16</ele>
        <time>2018-09-27T13:33:04Z</time>
      </trkpt>
      <trkpt lat="40.55553087964654" lon="14.24110310152173">
        <ele>14.56</ele>
        <time>2018-09-27T13:33:14Z</time>
      </trkpt>
      <trkpt lat="40.555521827191114" lon="14.24113679677248">
        <ele>14.56</ele>
        <time>2018-09-27T13:33:24Z</time>
      </trkpt>
      <trkpt lat="40.555540518835187" lon="14.240997573360801">
        <ele>14.56</ele>
        <time>2018-09-27T13:33:35Z</time>
      </trkpt>
      <trkpt lat="40.55556558072567" lon="14.240997908636928">
        <ele>14.56</ele>
        <time>2018-09-27T13:33:45Z</time>
      </trkpt>
      <trkpt lat="40.555690303444862" lon="14.240995645523071">
        <ele>14.56</ele>
        <time>2018-09-27T13:33:58Z</time>
      </trkpt>
      <trkpt lat="40.555709498003125" lon="14.240964045748115">
        <ele>14.56</ele>
        <time>2018-09-27T13:34:08Z</time>
      </trkpt>
      <trkpt lat="40.555717293173075" lon="14.240995310246944">
        <ele>14.56</ele>
        <time>2018-09-27T13:34:27Z</time>
      </trkpt>
      <trkpt lat="40.555689632892609" lon="14.24097703769803">
        <ele>14.56</ele>
        <time>2018-09-27T13:34:38Z</time>
      </trkpt>
      <trkpt lat="40.555694913491607" lon="14.240935295820236">
        <ele>14.56</ele>
        <time>2018-09-27T13:34:49Z</time>
      </trkpt>
      <trkpt lat="40.555642107501626" lon="14.240821301937103">
        <ele>14.56</ele>
        <time>2018-09-27T13:35:01Z</time>
      </trkpt>
      <trkpt lat="40.555634060874581" lon="14.240740751847625">
        <ele>13.6</ele>
        <time>2018-09-27T13:35:14Z</time>
      </trkpt>
    </trkseg>
  </trk>

  <trk>
    <name>2018-09-28 10:04:11</name>
    <extensions>
      <gpxx:TrackExtension>
        <gpxx:DisplayColor>Yellow</gpxx:DisplayColor>
      </gpxx:TrackExtension>
      <gpxtrkx:TrackStatsExtension xmlns:gpxtrkx="http://www.garmin.com/xmlschemas/TrackStatsExtension/v1">
        <gpxtrkx:Distance>2919</gpxtrkx:Distance>
        <gpxtrkx:TotalElapsedTime>3190</gpxtrkx:TotalElapsedTime>
        <gpxtrkx:MovingTime>2869</gpxtrkx:MovingTime>
        <gpxtrkx:StoppedTime>321</gpxtrkx:StoppedTime>
        <gpxtrkx:MovingSpeed>1</gpxtrkx:MovingSpeed>
        <gpxtrkx:MaxSpeed>2</gpxtrkx:MaxSpeed>
        <gpxtrkx:MaxElevation>49</gpxtrkx:MaxElevation>
        <gpxtrkx:MinElevation>22</gpxtrkx:MinElevation>
        <gpxtrkx:Ascent>12</gpxtrkx:Ascent>
        <gpxtrkx:Descent>37</gpxtrkx:Descent>
        <gpxtrkx:AvgAscentRate>0</gpxtrkx:AvgAscentRate>
        <gpxtrkx:MaxAscentRate>0</gpxtrkx:MaxAscentRate>
        <gpxtrkx:AvgDescentRate>0</gpxtrkx:AvgDescentRate>
        <gpxtrkx:MaxDescentRate>-0</gpxtrkx:MaxDescentRate>
      </gpxtrkx:TrackStatsExtension>
    </extensions>
    <trkseg>
      <trkpt lat="40.734007749706507" lon="13.949588723480701">
        <ele>48.68</ele>
        <time>2018-09-28T07:11:03Z</time>
      </trkpt>
      <trkpt lat="40.734020909294486" lon="13.949591070413589">
        <ele>47.719999999999999</ele>
        <time>2018-09-28T07:11:24Z</time>
      </trkpt>
      <trkpt lat="40.734028955921531" lon="13.949582856148481">
        <ele>47.719999999999999</ele>
        <time>2018-09-28T07:11:37Z</time>
      </trkpt>
      <trkpt lat="40.734041696414351" lon="13.949622083455324">
        <ele>47.719999999999999</ele>
        <time>2018-09-28T07:11:55Z</time>
      </trkpt>
      <trkpt lat="40.734020574018359" lon="13.949632812291384">
        <ele>48.200000000000003</ele>
        <time>2018-09-28T07:12:13Z</time>
      </trkpt>
      <trkpt lat="40.734021998941898" lon="13.949606074020267">
        <ele>48.68</ele>
        <time>2018-09-28T07:12:20Z</time>
      </trkpt>
      <trkpt lat="40.734020154923201" lon="13.949614204466343">
        <ele>48.200000000000003</ele>
        <time>2018-09-28T07:12:31Z</time>
      </trkpt>
      <trkpt lat="40.734019819647074" lon="13.949574390426278">
        <ele>48.68</ele>
        <time>2018-09-28T07:12:45Z</time>
      </trkpt>
      <trkpt lat="40.734005067497492" lon="13.949596518650651">
        <ele>48.68</ele>
        <time>2018-09-28T07:12:56Z</time>
      </trkpt>
      <trkpt lat="40.733972629532218" lon="13.949529128149152">
        <ele>48.200000000000003</ele>
        <time>2018-09-28T07:13:11Z</time>
      </trkpt>
      <trkpt lat="40.733972629532218" lon="13.949574809521437">
        <ele>47.240000000000002</ele>
        <time>2018-09-28T07:13:25Z</time>
      </trkpt>
      <trkpt lat="40.733993500471115" lon="13.949552346020937">
        <ele>47.719999999999999</ele>
        <time>2018-09-28T07:13:37Z</time>
      </trkpt>
      <trkpt lat="40.734028704464436" lon="13.949472717940807">
        <ele>47.719999999999999</ele>
        <time>2018-09-28T07:13:47Z</time>
      </trkpt>
      <trkpt lat="40.73405971750617" lon="13.949367189779878">
        <ele>46.759999999999998</ele>
        <time>2018-09-28T07:13:58Z</time>
      </trkpt>
      <trkpt lat="40.734097603708506" lon="13.949295775964856">
        <ele>46.759999999999998</ele>
        <time>2018-09-28T07:14:08Z</time>
      </trkpt>
      <trkpt lat="40.734155019745231" lon="13.949162336066365">
        <ele>46.280000000000001</ele>
        <time>2018-09-28T07:14:21Z</time>
      </trkpt>
      <trkpt lat="40.734172035008669" lon="13.949066279456019">
        <ele>46.280000000000001</ele>
        <time>2018-09-28T07:14:33Z</time>
      </trkpt>
      <trkpt lat="40.73418335057795" lon="13.948865449056029">
        <ele>45.32</ele>
        <time>2018-09-28T07:14:48Z</time>
      </trkpt>
      <trkpt lat="40.7342429459095" lon="13.948802249506116">
        <ele>45.32</ele>
        <time>2018-09-28T07:15:01Z</time>
      </trkpt>
      <trkpt lat="40.734245209023356" lon="13.948797220364213">
        <ele>44.840000000000003</ele>
        <time>2018-09-28T07:15:10Z</time>
      </trkpt>
      <trkpt lat="40.734281502664089" lon="13.948776014149189">
        <ele>45.32</ele>
        <time>2018-09-28T07:15:18Z</time>
      </trkpt>
      <trkpt lat="40.734367752447724" lon="13.948832675814629">
        <ele>44.840000000000003</ele>
        <time>2018-09-28T07:15:31Z</time>
      </trkpt>
      <trkpt lat="40.734432125464082" lon="13.948890008032322">
        <ele>44.840000000000003</ele>
        <time>2018-09-28T07:15:43Z</time>
      </trkpt>
      <trkpt lat="40.734492391347885" lon="13.948982879519463">
        <ele>44.840000000000003</ele>
        <time>2018-09-28T07:15:55Z</time>
      </trkpt>
      <trkpt lat="40.734573863446712" lon="13.949017161503434">
        <ele>44.840000000000003</ele>
        <time>2018-09-28T07:16:06Z</time>
      </trkpt>
      <trkpt lat="40.734671764075756" lon="13.948974581435323">
        <ele>44.359999999999999</ele>
        <time>2018-09-28T07:16:19Z</time>
      </trkpt>
      <trkpt lat="40.734753906726837" lon="13.948826221749187">
        <ele>43.880000000000003</ele>
        <time>2018-09-28T07:16:32Z</time>
      </trkpt>
      <trkpt lat="40.734799839556217" lon="13.948701918125153">
        <ele>43.880000000000003</ele>
        <time>2018-09-28T07:16:45Z</time>
      </trkpt>
      <trkpt lat="40.734815429896116" lon="13.948658164590597">
        <ele>43.880000000000003</ele>
        <time>2018-09-28T07:16:49Z</time>
      </trkpt>
      <trkpt lat="40.734880557283759" lon="13.948518522083759">
        <ele>43.880000000000003</ele>
        <time>2018-09-28T07:17:01Z</time>
      </trkpt>
      <trkpt lat="40.734973680227995" lon="13.948368653655052">
        <ele>43.880000000000003</ele>
        <time>2018-09-28T07:17:16Z</time>
      </trkpt>
      <trkpt lat="40.735058672726154" lon="13.94825960509479">
        <ele>44.359999999999999</ele>
        <time>2018-09-28T07:17:29Z</time>
      </trkpt>
      <trkpt lat="40.735128242522478" lon="13.948144018650055">
        <ele>44.359999999999999</ele>
        <time>2018-09-28T07:17:44Z</time>
      </trkpt>
      <trkpt lat="40.735239470377564" lon="13.948016362264752">
        <ele>44.840000000000003</ele>
        <time>2018-09-28T07:17:59Z</time>
      </trkpt>
      <trkpt lat="40.73533158749342" lon="13.947859285399318">
        <ele>44.840000000000003</ele>
        <time>2018-09-28T07:18:15Z</time>
      </trkpt>
      <trkpt lat="40.73539512231946" lon="13.947752751410007">
        <ele>45.32</ele>
        <time>2018-09-28T07:18:29Z</time>
      </trkpt>
      <trkpt lat="40.735429404303432" lon="13.947746381163597">
        <ele>45.799999999999997</ele>
        <time>2018-09-28T07:18:40Z</time>
      </trkpt>
      <trkpt lat="40.735495956614614" lon="13.947671111673117">
        <ele>45.32</ele>
        <time>2018-09-28T07:18:51Z</time>
      </trkpt>
      <trkpt lat="40.735610453411937" lon="13.947498444467783">
        <ele>45.799999999999997</ele>
        <time>2018-09-28T07:19:06Z</time>
      </trkpt>
      <trkpt lat="40.735709359869361" lon="13.947384199127555">
        <ele>45.799999999999997</ele>
        <time>2018-09-28T07:19:19Z</time>
      </trkpt>
      <trkpt lat="40.735801812261343" lon="13.947324771434069">
        <ele>45.799999999999997</ele>
        <time>2018-09-28T07:19:33Z</time>
      </trkpt>
      <trkpt lat="40.735897533595562" lon="13.947253776714206">
        <ele>45.799999999999997</ele>
        <time>2018-09-28T07:19:48Z</time>
      </trkpt>
      <trkpt lat="40.735906921327114" lon="13.947253189980984">
        <ele>45.32</ele>
        <time>2018-09-28T07:19:49Z</time>
      </trkpt>
      <trkpt lat="40.735998032614589" lon="13.947279676795006">
        <ele>45.32</ele>
        <time>2018-09-28T07:20:01Z</time>
      </trkpt>
      <trkpt lat="40.736073888838291" lon="13.947322089225054">
        <ele>44.840000000000003</ele>
        <time>2018-09-28T07:20:14Z</time>
      </trkpt>
      <trkpt lat="40.736145051196218" lon="13.947346480563283">
        <ele>44.840000000000003</ele>
        <time>2018-09-28T07:20:25Z</time>
      </trkpt>
      <trkpt lat="40.736172124743462" lon="13.947340277954936">
        <ele>44.840000000000003</ele>
        <time>2018-09-28T07:20:28Z</time>
      </trkpt>
      <trkpt lat="40.736248735338449" lon="13.947437340393662">
        <ele>44.359999999999999</ele>
        <time>2018-09-28T07:20:40Z</time>
      </trkpt>
      <trkpt lat="40.736354850232601" lon="13.947526440024376">
        <ele>43.880000000000003</ele>
        <time>2018-09-28T07:20:53Z</time>
      </trkpt>
      <trkpt lat="40.736405728384852" lon="13.947552926838398">
        <ele>43.399999999999999</ele>
        <time>2018-09-28T07:20:57Z</time>
      </trkpt>
      <trkpt lat="40.736445542424917" lon="13.947588047012687">
        <ele>43.399999999999999</ele>
        <time>2018-09-28T07:21:02Z</time>
      </trkpt>
      <trkpt lat="40.736537659540772" lon="13.947635823860765">
        <ele>43.399999999999999</ele>
        <time>2018-09-28T07:21:15Z</time>
      </trkpt>
      <trkpt lat="40.736638661473989" lon="13.947708159685135">
        <ele>42.439999999999998</ele>
        <time>2018-09-28T07:21:29Z</time>
      </trkpt>
      <trkpt lat="40.736685683950782" lon="13.947765827178955">
        <ele>41.950000000000003</ele>
        <time>2018-09-28T07:21:35Z</time>
      </trkpt>
      <trkpt lat="40.736782997846603" lon="13.94783740863204">
        <ele>41.950000000000003</ele>
        <time>2018-09-28T07:21:47Z</time>
      </trkpt>
      <trkpt lat="40.736853573471308" lon="13.94789113663137">
        <ele>41.469999999999999</ele>
        <time>2018-09-28T07:21:57Z</time>
      </trkpt>
      <trkpt lat="40.736934710294008" lon="13.947949390858412">
        <ele>40.990000000000002</ele>
        <time>2018-09-28T07:22:10Z</time>
      </trkpt>
      <trkpt lat="40.736965807154775" lon="13.947973363101482">
        <ele>40.990000000000002</ele>
        <time>2018-09-28T07:22:14Z</time>
      </trkpt>
      <trkpt lat="40.73708918876946" lon="13.948111329227686">
        <ele>40.990000000000002</ele>
        <time>2018-09-28T07:22:29Z</time>
      </trkpt>
      <trkpt lat="40.737212235108018" lon="13.9482038654387">
        <ele>40.509999999999998</ele>
        <time>2018-09-28T07:22:42Z</time>
      </trkpt>
      <trkpt lat="40.737296221777797" lon="13.948277458548546">
        <ele>40.030000000000001</ele>
        <time>2018-09-28T07:22:54Z</time>
      </trkpt>
      <trkpt lat="40.737404264509678" lon="13.948371671140194">
        <ele>39.549999999999997</ele>
        <time>2018-09-28T07:23:07Z</time>
      </trkpt>
      <trkpt lat="40.73753485456109" lon="13.948456328362226">
        <ele>39.07</ele>
        <time>2018-09-28T07:23:21Z</time>
      </trkpt>
      <trkpt lat="40.73762915097177" lon="13.948516007512808">
        <ele>38.590000000000003</ele>
        <time>2018-09-28T07:23:34Z</time>
      </trkpt>
      <trkpt lat="40.737711628898978" lon="13.948591612279415">
        <ele>38.590000000000003</ele>
        <time>2018-09-28T07:23:43Z</time>
      </trkpt>
      <trkpt lat="40.737870968878269" lon="13.9486079569906">
        <ele>37.630000000000003</ele>
        <time>2018-09-28T07:23:59Z</time>
      </trkpt>
      <trkpt lat="40.738004492595792" lon="13.948575686663389">
        <ele>37.630000000000003</ele>
        <time>2018-09-28T07:24:13Z</time>
      </trkpt>
      <trkpt lat="40.738066602498293" lon="13.948551043868065">
        <ele>37.630000000000003</ele>
        <time>2018-09-28T07:24:19Z</time>
      </trkpt>
      <trkpt lat="40.738177159801126" lon="13.94856546074152">
        <ele>37.149999999999999</ele>
        <time>2018-09-28T07:24:32Z</time>
      </trkpt>
      <trkpt lat="40.738280341029167" lon="13.94857082515955">
        <ele>37.149999999999999</ele>
        <time>2018-09-28T07:24:44Z</time>
      </trkpt>
      <trkpt lat="40.738378912210464" lon="13.948575435206294">
        <ele>36.670000000000002</ele>
        <time>2018-09-28T07:24:55Z</time>
      </trkpt>
      <trkpt lat="40.738494247198105" lon="13.948545763269067">
        <ele>36.670000000000002</ele>
        <time>2018-09-28T07:25:08Z</time>
      </trkpt>
      <trkpt lat="40.738589465618134" lon="13.948505111038685">
        <ele>36.189999999999998</ele>
        <time>2018-09-28T07:25:18Z</time>
      </trkpt>
      <trkpt lat="40.738715194165707" lon="13.948422214016318">
        <ele>36.189999999999998</ele>
        <time>2018-09-28T07:25:33Z</time>
      </trkpt>
      <trkpt lat="40.738825667649508" lon="13.948415257036686">
        <ele>35.710000000000001</ele>
        <time>2018-09-28T07:25:45Z</time>
      </trkpt>
      <trkpt lat="40.738936141133308" lon="13.948371503502131">
        <ele>35.229999999999997</ele>
        <time>2018-09-28T07:25:57Z</time>
      </trkpt>
      <trkpt lat="40.739053655415773" lon="13.948303023353219">
        <ele>34.740000000000002</ele>
        <time>2018-09-28T07:26:11Z</time>
      </trkpt>
      <trkpt lat="40.739139402285218" lon="13.948219120502472">
        <ele>34.740000000000002</ele>
        <time>2018-09-28T07:26:22Z</time>
      </trkpt>
      <trkpt lat="40.739231267943978" lon="13.948166398331523">
        <ele>34.740000000000002</ele>
        <time>2018-09-28T07:26:34Z</time>
      </trkpt>
      <trkpt lat="40.739350290969014" lon="13.948094146326184">
        <ele>34.259999999999998</ele>
        <time>2018-09-28T07:26:49Z</time>
      </trkpt>
      <trkpt lat="40.739448191598058" lon="13.948062043637037">
        <ele>34.259999999999998</ele>
        <time>2018-09-28T07:27:02Z</time>
      </trkpt>
      <trkpt lat="40.739531423896551" lon="13.948020720854402">
        <ele>34.259999999999998</ele>
        <time>2018-09-28T07:27:14Z</time>
      </trkpt>
      <trkpt lat="40.739579368382692" lon="13.947972944006324">
        <ele>33.780000000000001</ele>
        <time>2018-09-28T07:27:26Z</time>
      </trkpt>
      <trkpt lat="40.739589175209403" lon="13.947972189635038">
        <ele>33.780000000000001</ele>
        <time>2018-09-28T07:27:28Z</time>
      </trkpt>
      <trkpt lat="40.739665953442454" lon="13.947910834103823">
        <ele>33.780000000000001</ele>
        <time>2018-09-28T07:27:39Z</time>
      </trkpt>
      <trkpt lat="40.739737702533603" lon="13.947805305942893">
        <ele>33.780000000000001</ele>
        <time>2018-09-28T07:27:49Z</time>
      </trkpt>
      <trkpt lat="40.739843985065818" lon="13.947724252939224">
        <ele>33.780000000000001</ele>
        <time>2018-09-28T07:28:01Z</time>
      </trkpt>
      <trkpt lat="40.739912800490856" lon="13.94765610806644">
        <ele>33.780000000000001</ele>
        <time>2018-09-28T07:28:12Z</time>
      </trkpt>
      <trkpt lat="40.739959152415395" lon="13.947646217420697">
        <ele>33.780000000000001</ele>
        <time>2018-09-28T07:28:24Z</time>
      </trkpt>
      <trkpt lat="40.740052526816726" lon="13.947560805827379">
        <ele>33.780000000000001</ele>
        <time>2018-09-28T07:28:36Z</time>
      </trkpt>
      <trkpt lat="40.74012846685946" lon="13.947409093379974">
        <ele>33.780000000000001</ele>
        <time>2018-09-28T07:28:49Z</time>
      </trkpt>
      <trkpt lat="40.740247070789337" lon="13.947220584377646">
        <ele>32.82</ele>
        <time>2018-09-28T07:29:02Z</time>
      </trkpt>
      <trkpt lat="40.740325525403023" lon="13.947105668485165">
        <ele>32.82</ele>
        <time>2018-09-28T07:29:13Z</time>
      </trkpt>
      <trkpt lat="40.740348910912871" lon="13.947027800604701">
        <ele>32.82</ele>
        <time>2018-09-28T07:29:22Z</time>
      </trkpt>
      <trkpt lat="40.740409847348928" lon="13.946951692923903">
        <ele>32.340000000000003</ele>
        <time>2018-09-28T07:29:34Z</time>
      </trkpt>
      <trkpt lat="40.740469191223383" lon="13.946794364601374">
        <ele>32.340000000000003</ele>
        <time>2018-09-28T07:29:45Z</time>
      </trkpt>
      <trkpt lat="40.740520907565951" lon="13.946761339902878">
        <ele>31.859999999999999</ele>
        <time>2018-09-28T07:29:53Z</time>
      </trkpt>
      <trkpt lat="40.740579329431057" lon="13.946675509214401">
        <ele>31.379999999999999</ele>
        <time>2018-09-28T07:30:03Z</time>
      </trkpt>
      <trkpt lat="40.740631464868784" lon="13.946604682132602">
        <ele>30.899999999999999</ele>
        <time>2018-09-28T07:30:13Z</time>
      </trkpt>
      <trkpt lat="40.740658203139901" lon="13.946462441235781">
        <ele>30.899999999999999</ele>
        <time>2018-09-28T07:30:24Z</time>
      </trkpt>
      <trkpt lat="40.740721151232719" lon="13.946378203108907">
        <ele>29.940000000000001</ele>
        <time>2018-09-28T07:30:34Z</time>
      </trkpt>
      <trkpt lat="40.740836067125201" lon="13.946293378248811">
        <ele>29.460000000000001</ele>
        <time>2018-09-28T07:30:45Z</time>
      </trkpt>
      <trkpt lat="40.740917455404997" lon="13.946161782369018">
        <ele>28.5</ele>
        <time>2018-09-28T07:30:56Z</time>
      </trkpt>
      <trkpt lat="40.740989707410336" lon="13.9460055436939">
        <ele>28.02</ele>
        <time>2018-09-28T07:31:08Z</time>
      </trkpt>
      <trkpt lat="40.741052152588964" lon="13.945868918672204">
        <ele>27.530000000000001</ele>
        <time>2018-09-28T07:31:20Z</time>
      </trkpt>
      <trkpt lat="40.741119710728526" lon="13.94575048238039">
        <ele>27.050000000000001</ele>
        <time>2018-09-28T07:31:30Z</time>
      </trkpt>
      <trkpt lat="40.741228256374598" lon="13.945657275617123">
        <ele>26.09</ele>
        <time>2018-09-28T07:31:43Z</time>
      </trkpt>
      <trkpt lat="40.741269243881106" lon="13.945519309490919">
        <ele>26.09</ele>
        <time>2018-09-28T07:31:54Z</time>
      </trkpt>
      <trkpt lat="40.741382734850049" lon="13.945427946746349">
        <ele>25.609999999999999</ele>
        <time>2018-09-28T07:32:06Z</time>
      </trkpt>
      <trkpt lat="40.741439647972584" lon="13.945256788283587">
        <ele>25.129999999999999</ele>
        <time>2018-09-28T07:32:17Z</time>
      </trkpt>
      <trkpt lat="40.741592450067401" lon="13.945094011723995">
        <ele>24.649999999999999</ele>
        <time>2018-09-28T07:32:28Z</time>
      </trkpt>
      <trkpt lat="40.74167157523334" lon="13.944921595975757">
        <ele>24.649999999999999</ele>
        <time>2018-09-28T07:32:43Z</time>
      </trkpt>
      <trkpt lat="40.741749946027994" lon="13.94482989795506">
        <ele>24.170000000000002</ele>
        <time>2018-09-28T07:32:55Z</time>
      </trkpt>
      <trkpt lat="40.741832675412297" lon="13.944687657058239">
        <ele>24.170000000000002</ele>
        <time>2018-09-28T07:33:08Z</time>
      </trkpt>
      <trkpt lat="40.741900485008955" lon="13.944562179967761">
        <ele>24.170000000000002</ele>
        <time>2018-09-28T07:33:20Z</time>
      </trkpt>
      <trkpt lat="40.741963852196932" lon="13.944416251033545">
        <ele>24.170000000000002</ele>
        <time>2018-09-28T07:33:33Z</time>
      </trkpt>
      <trkpt lat="40.742044150829315" lon="13.944308208301663">
        <ele>24.170000000000002</ele>
        <time>2018-09-28T07:33:45Z</time>
      </trkpt>
      <trkpt lat="40.742093101143837" lon="13.944172840565443">
        <ele>24.170000000000002</ele>
        <time>2018-09-28T07:33:55Z</time>
      </trkpt>
      <trkpt lat="40.742128221318126" lon="13.944105617702007">
        <ele>24.170000000000002</ele>
        <time>2018-09-28T07:34:07Z</time>
      </trkpt>
      <trkpt lat="40.742177674546838" lon="13.944055829197168">
        <ele>23.690000000000001</ele>
        <time>2018-09-28T07:34:18Z</time>
      </trkpt>
      <trkpt lat="40.742187984287739" lon="13.944040909409523">
        <ele>23.690000000000001</ele>
        <time>2018-09-28T07:34:22Z</time>
      </trkpt>
      <trkpt lat="40.742206256836653" lon="13.943981314077973">
        <ele>23.690000000000001</ele>
        <time>2018-09-28T07:34:28Z</time>
      </trkpt>
      <trkpt lat="40.742287561297417" lon="13.943879390135407">
        <ele>23.690000000000001</ele>
        <time>2018-09-28T07:34:39Z</time>
      </trkpt>
      <trkpt lat="40.742364255711436" lon="13.943768246099353">
        <ele>23.690000000000001</ele>
        <time>2018-09-28T07:34:50Z</time>
      </trkpt>
      <trkpt lat="40.742445979267359" lon="13.943667076528072">
        <ele>23.690000000000001</ele>
        <time>2018-09-28T07:35:01Z</time>
      </trkpt>
      <trkpt lat="40.74251102283597" lon="13.943529864773154">
        <ele>24.170000000000002</ele>
        <time>2018-09-28T07:35:12Z</time>
      </trkpt>
      <trkpt lat="40.742518231272697" lon="13.943523913621902">
        <ele>23.690000000000001</ele>
        <time>2018-09-28T07:35:13Z</time>
      </trkpt>
      <trkpt lat="40.742570282891393" lon="13.943411847576499">
        <ele>23.690000000000001</ele>
        <time>2018-09-28T07:35:24Z</time>
      </trkpt>
      <trkpt lat="40.742640858516097" lon="13.943350994959474">
        <ele>23.690000000000001</ele>
        <time>2018-09-28T07:35:35Z</time>
      </trkpt>
      <trkpt lat="40.742724342271686" lon="13.943283436819911">
        <ele>23.690000000000001</ele>
        <time>2018-09-28T07:35:45Z</time>
      </trkpt>
      <trkpt lat="40.742710931226611" lon="13.943192241713405">
        <ele>23.690000000000001</ele>
        <time>2018-09-28T07:35:54Z</time>
      </trkpt>
      <trkpt lat="40.742723336443305" lon="13.943139351904392">
        <ele>24.170000000000002</ele>
        <time>2018-09-28T07:36:00Z</time>
      </trkpt>
      <trkpt lat="40.742758791893721" lon="13.943002140149474">
        <ele>24.170000000000002</ele>
        <time>2018-09-28T07:36:13Z</time>
      </trkpt>
      <trkpt lat="40.742788212373853" lon="13.94297163002193">
        <ele>24.649999999999999</ele>
        <time>2018-09-28T07:36:24Z</time>
      </trkpt>
      <trkpt lat="40.742792738601565" lon="13.942839112132788">
        <ele>24.170000000000002</ele>
        <time>2018-09-28T07:36:35Z</time>
      </trkpt>
      <trkpt lat="40.742819728329778" lon="13.942697877064347">
        <ele>24.170000000000002</ele>
        <time>2018-09-28T07:36:47Z</time>
      </trkpt>
      <trkpt lat="40.742830960080028" lon="13.94261690787971">
        <ele>24.649999999999999</ele>
        <time>2018-09-28T07:36:58Z</time>
      </trkpt>
      <trkpt lat="40.742897763848305" lon="13.942637275904417">
        <ele>24.649999999999999</ele>
        <time>2018-09-28T07:37:10Z</time>
      </trkpt>
      <trkpt lat="40.742953922599554" lon="13.942619170993567">
        <ele>24.649999999999999</ele>
        <time>2018-09-28T07:37:19Z</time>
      </trkpt>
      <trkpt lat="40.743000106886029" lon="13.942598551511765">
        <ele>23.690000000000001</ele>
        <time>2018-09-28T07:37:31Z</time>
      </trkpt>
      <trkpt lat="40.743051571771502" lon="13.942540297284722">
        <ele>23.690000000000001</ele>
        <time>2018-09-28T07:37:41Z</time>
      </trkpt>
      <trkpt lat="40.743122650310397" lon="13.942433260381222">
        <ele>23.690000000000001</ele>
        <time>2018-09-28T07:37:53Z</time>
      </trkpt>
      <trkpt lat="40.743133965879679" lon="13.942279201000929">
        <ele>24.170000000000002</ele>
        <time>2018-09-28T07:38:05Z</time>
      </trkpt>
      <trkpt lat="40.743199093267322" lon="13.942104522138834">
        <ele>23.690000000000001</ele>
        <time>2018-09-28T07:38:15Z</time>
      </trkpt>
      <trkpt lat="40.743216527625918" lon="13.941977955400944">
        <ele>23.690000000000001</ele>
        <time>2018-09-28T07:38:28Z</time>
      </trkpt>
      <trkpt lat="40.743194902315736" lon="13.941839402541518">
        <ele>24.170000000000002</ele>
        <time>2018-09-28T07:38:42Z</time>
      </trkpt>
      <trkpt lat="40.743211498484015" lon="13.941710153594613">
        <ele>24.649999999999999</ele>
        <time>2018-09-28T07:38:55Z</time>
      </trkpt>
      <trkpt lat="40.743132121860981" lon="13.94158442504704">
        <ele>24.649999999999999</ele>
        <time>2018-09-28T07:39:08Z</time>
      </trkpt>
      <trkpt lat="40.743015948683023" lon="13.941513262689114">
        <ele>24.649999999999999</ele>
        <time>2018-09-28T07:39:20Z</time>
      </trkpt>
      <trkpt lat="40.742838252335787" lon="13.941385857760906">
        <ele>24.649999999999999</ele>
        <time>2018-09-28T07:39:33Z</time>
      </trkpt>
      <trkpt lat="40.742780668660998" lon="13.941290052607656">
        <ele>24.649999999999999</ele>
        <time>2018-09-28T07:39:43Z</time>
      </trkpt>
      <trkpt lat="40.742761893197894" lon="13.941210927441716">
        <ele>25.129999999999999</ele>
        <time>2018-09-28T07:39:53Z</time>
      </trkpt>
      <trkpt lat="40.742776645347476" lon="13.941140435636044">
        <ele>25.129999999999999</ele>
        <time>2018-09-28T07:40:05Z</time>
      </trkpt>
      <trkpt lat="40.742798522114754" lon="13.941042535007">
        <ele>25.129999999999999</ele>
        <time>2018-09-28T07:40:17Z</time>
      </trkpt>
      <trkpt lat="40.742816207930446" lon="13.940942035987973">
        <ele>25.129999999999999</ele>
        <time>2018-09-28T07:40:28Z</time>
      </trkpt>
      <trkpt lat="40.742850489914417" lon="13.940831311047077">
        <ele>25.609999999999999</ele>
        <time>2018-09-28T07:40:42Z</time>
      </trkpt>
      <trkpt lat="40.742882760241628" lon="13.940753694623709">
        <ele>26.09</ele>
        <time>2018-09-28T07:40:54Z</time>
      </trkpt>
      <trkpt lat="40.742912348359823" lon="13.940607681870461">
        <ele>25.609999999999999</ele>
        <time>2018-09-28T07:41:05Z</time>
      </trkpt>
      <trkpt lat="40.742941433563828" lon="13.940493520349264">
        <ele>26.09</ele>
        <time>2018-09-28T07:41:18Z</time>
      </trkpt>
      <trkpt lat="40.742955431342125" lon="13.940377933904529">
        <ele>26.09</ele>
        <time>2018-09-28T07:41:31Z</time>
      </trkpt>
      <trkpt lat="40.742950486019254" lon="13.940315740182996">
        <ele>26.09</ele>
        <time>2018-09-28T07:41:42Z</time>
      </trkpt>
      <trkpt lat="40.742975631728768" lon="13.940192442387342">
        <ele>26.09</ele>
        <time>2018-09-28T07:41:54Z</time>
      </trkpt>
      <trkpt lat="40.742993401363492" lon="13.940062187612057">
        <ele>26.09</ele>
        <time>2018-09-28T07:42:06Z</time>
      </trkpt>
      <trkpt lat="40.742992479354143" lon="13.94001055508852">
        <ele>26.09</ele>
        <time>2018-09-28T07:42:12Z</time>
      </trkpt>
      <trkpt lat="40.743053667247295" lon="13.939862614497542">
        <ele>26.09</ele>
        <time>2018-09-28T07:42:24Z</time>
      </trkpt>
      <trkpt lat="40.743090799078345" lon="13.93975448794663">
        <ele>26.09</ele>
        <time>2018-09-28T07:42:35Z</time>
      </trkpt>
      <trkpt lat="40.74314528144896" lon="13.939680559560657">
        <ele>25.609999999999999</ele>
        <time>2018-09-28T07:42:45Z</time>
      </trkpt>
      <trkpt lat="40.743195740506053" lon="13.939580395817757">
        <ele>25.609999999999999</ele>
        <time>2018-09-28T07:42:56Z</time>
      </trkpt>
      <trkpt lat="40.743252821266651" lon="13.939536893740296">
        <ele>25.129999999999999</ele>
        <time>2018-09-28T07:43:04Z</time>
      </trkpt>
      <trkpt lat="40.743272434920073" lon="13.939523734152317">
        <ele>25.129999999999999</ele>
        <time>2018-09-28T07:43:07Z</time>
      </trkpt>
      <trkpt lat="40.743329850956798" lon="13.939415523782372">
        <ele>25.129999999999999</ele>
        <time>2018-09-28T07:43:21Z</time>
      </trkpt>
      <trkpt lat="40.743329431861639" lon="13.939393647015095">
        <ele>25.129999999999999</ele>
        <time>2018-09-28T07:43:26Z</time>
      </trkpt>
      <trkpt lat="40.743405120447278" lon="13.939286526292562">
        <ele>25.129999999999999</ele>
        <time>2018-09-28T07:43:38Z</time>
      </trkpt>
      <trkpt lat="40.743489358574152" lon="13.939323574304581">
        <ele>25.129999999999999</ele>
        <time>2018-09-28T07:43:49Z</time>
      </trkpt>
      <trkpt lat="40.743537805974483" lon="13.939397167414427">
        <ele>25.129999999999999</ele>
        <time>2018-09-28T07:44:01Z</time>
      </trkpt>
      <trkpt lat="40.743561778217554" lon="13.939354671165347">
        <ele>25.129999999999999</ele>
        <time>2018-09-28T07:44:16Z</time>
      </trkpt>
      <trkpt lat="40.743616679683328" lon="13.939352743327618">
        <ele>25.609999999999999</ele>
        <time>2018-09-28T07:44:25Z</time>
      </trkpt>
      <trkpt lat="40.743633694946766" lon="13.939333213493228">
        <ele>25.609999999999999</ele>
        <time>2018-09-28T07:44:27Z</time>
      </trkpt>
      <trkpt lat="40.74369153007865" lon="13.939240593463182">
        <ele>25.609999999999999</ele>
        <time>2018-09-28T07:44:38Z</time>
      </trkpt>
      <trkpt lat="40.743737630546093" lon="13.93915836699307">
        <ele>25.129999999999999</ele>
        <time>2018-09-28T07:44:48Z</time>
      </trkpt>
      <trkpt lat="40.743774427101016" lon="13.939059795811772">
        <ele>25.129999999999999</ele>
        <time>2018-09-28T07:44:57Z</time>
      </trkpt>
      <trkpt lat="40.743830418214202" lon="13.938971115276217">
        <ele>25.129999999999999</ele>
        <time>2018-09-28T07:45:07Z</time>
      </trkpt>
      <trkpt lat="40.743887415155768" lon="13.938889810815454">
        <ele>25.129999999999999</ele>
        <time>2018-09-28T07:45:18Z</time>
      </trkpt>
      <trkpt lat="40.743951704353094" lon="13.938796184957027">
        <ele>24.649999999999999</ele>
        <time>2018-09-28T07:45:29Z</time>
      </trkpt>
      <trkpt lat="40.744004845619202" lon="13.938699457794428">
        <ele>24.649999999999999</ele>
        <time>2018-09-28T07:45:41Z</time>
      </trkpt>
      <trkpt lat="40.744068967178464" lon="13.938603233546019">
        <ele>24.170000000000002</ele>
        <time>2018-09-28T07:45:52Z</time>
      </trkpt>
      <trkpt lat="40.74419192969799" lon="13.938485467806458">
        <ele>24.170000000000002</ele>
        <time>2018-09-28T07:46:06Z</time>
      </trkpt>
      <trkpt lat="40.7442915905267" lon="13.938397206366062">
        <ele>24.170000000000002</ele>
        <time>2018-09-28T07:46:19Z</time>
      </trkpt>
      <trkpt lat="40.744375577196479" lon="13.938331073150039">
        <ele>24.170000000000002</ele>
        <time>2018-09-28T07:46:30Z</time>
      </trkpt>
      <trkpt lat="40.744454953819513" lon="13.938262341544032">
        <ele>24.170000000000002</ele>
        <time>2018-09-28T07:46:42Z</time>
      </trkpt>
      <trkpt lat="40.74453885667026" lon="13.938217917457223">
        <ele>24.170000000000002</ele>
        <time>2018-09-28T07:46:53Z</time>
      </trkpt>
      <trkpt lat="40.744627369567752" lon="13.938153209164739">
        <ele>24.170000000000002</ele>
        <time>2018-09-28T07:47:04Z</time>
      </trkpt>
      <trkpt lat="40.744765922427177" lon="13.938054135069251">
        <ele>24.170000000000002</ele>
        <time>2018-09-28T07:47:19Z</time>
      </trkpt>
      <trkpt lat="40.744846137240529" lon="13.938010465353727">
        <ele>24.170000000000002</ele>
        <time>2018-09-28T07:47:28Z</time>
      </trkpt>
      <trkpt lat="40.744986785575747" lon="13.938028905540705">
        <ele>24.170000000000002</ele>
        <time>2018-09-28T07:47:45Z</time>
      </trkpt>
      <trkpt lat="40.745057696476579" lon="13.938052793964744">
        <ele>24.170000000000002</ele>
        <time>2018-09-28T07:47:57Z</time>
      </trkpt>
      <trkpt lat="40.745167918503284" lon="13.938073329627514">
        <ele>24.170000000000002</ele>
        <time>2018-09-28T07:48:10Z</time>
      </trkpt>
      <trkpt lat="40.745275625959039" lon="13.93809218890965">
        <ele>24.170000000000002</ele>
        <time>2018-09-28T07:48:22Z</time>
      </trkpt>
      <trkpt lat="40.745351314544678" lon="13.938113395124674">
        <ele>24.170000000000002</ele>
        <time>2018-09-28T07:48:32Z</time>
      </trkpt>
      <trkpt lat="40.745375202968717" lon="13.938169972971082">
        <ele>23.690000000000001</ele>
        <time>2018-09-28T07:48:44Z</time>
      </trkpt>
      <trkpt lat="40.745435636490583" lon="13.938115993514657">
        <ele>24.170000000000002</ele>
        <time>2018-09-28T07:49:05Z</time>
      </trkpt>
      <trkpt lat="40.745422476902604" lon="13.9381102938205">
        <ele>24.170000000000002</ele>
        <time>2018-09-28T07:49:14Z</time>
      </trkpt>
      <trkpt lat="40.745480982586741" lon="13.938279524445534">
        <ele>24.170000000000002</ele>
        <time>2018-09-28T07:49:27Z</time>
      </trkpt>
      <trkpt lat="40.745515516027808" lon="13.938288828358054">
        <ele>24.170000000000002</ele>
        <time>2018-09-28T07:49:30Z</time>
      </trkpt>
      <trkpt lat="40.745652476325631" lon="13.938341718167067">
        <ele>24.170000000000002</ele>
        <time>2018-09-28T07:49:43Z</time>
      </trkpt>
      <trkpt lat="40.745744593441486" lon="13.938252786174417">
        <ele>24.170000000000002</ele>
        <time>2018-09-28T07:49:56Z</time>
      </trkpt>
      <trkpt lat="40.745835453271866" lon="13.938196711242199">
        <ele>25.129999999999999</ele>
        <time>2018-09-28T07:50:10Z</time>
      </trkpt>
      <trkpt lat="40.745932180434465" lon="13.938192771747708">
        <ele>25.129999999999999</ele>
        <time>2018-09-28T07:50:23Z</time>
      </trkpt>
      <trkpt lat="40.746015496551991" lon="13.938249349594116">
        <ele>25.129999999999999</ele>
        <time>2018-09-28T07:50:37Z</time>
      </trkpt>
      <trkpt lat="40.746114067733288" lon="13.938306011259556">
        <ele>25.609999999999999</ele>
        <time>2018-09-28T07:50:49Z</time>
      </trkpt>
      <trkpt lat="40.746209034696221" lon="13.93830768764019">
        <ele>25.609999999999999</ele>
        <time>2018-09-28T07:51:00Z</time>
      </trkpt>
      <trkpt lat="40.746273407712579" lon="13.938398463651538">
        <ele>26.57</ele>
        <time>2018-09-28T07:51:12Z</time>
      </trkpt>
      <trkpt lat="40.746383797377348" lon="13.938458813354373">
        <ele>27.530000000000001</ele>
        <time>2018-09-28T07:51:25Z</time>
      </trkpt>
      <trkpt lat="40.746502401307225" lon="13.938591666519642">
        <ele>27.530000000000001</ele>
        <time>2018-09-28T07:51:40Z</time>
      </trkpt>
      <trkpt lat="40.74656275101006" lon="13.938634665682912">
        <ele>27.530000000000001</ele>
        <time>2018-09-28T07:51:53Z</time>
      </trkpt>
      <trkpt lat="40.74655445292592" lon="13.938696691766381">
        <ele>27.530000000000001</ele>
        <time>2018-09-28T07:52:04Z</time>
      </trkpt>
      <trkpt lat="40.746592171490192" lon="13.938719909638166">
        <ele>28.5</ele>
        <time>2018-09-28T07:52:15Z</time>
      </trkpt>
      <trkpt lat="40.746658723801374" lon="13.938797861337662">
        <ele>29.460000000000001</ele>
        <time>2018-09-28T07:52:27Z</time>
      </trkpt>
      <trkpt lat="40.746745811775327" lon="13.938880423083901">
        <ele>29.940000000000001</ele>
        <time>2018-09-28T07:52:41Z</time>
      </trkpt>
      <trkpt lat="40.746794510632753" lon="13.938929289579391">
        <ele>29.940000000000001</ele>
        <time>2018-09-28T07:52:55Z</time>
      </trkpt>
      <trkpt lat="40.746822590008378" lon="13.938965834677219">
        <ele>29.940000000000001</ele>
        <time>2018-09-28T07:53:13Z</time>
      </trkpt>
      <trkpt lat="40.746894758194685" lon="13.938998356461525">
        <ele>29.940000000000001</ele>
        <time>2018-09-28T07:53:26Z</time>
      </trkpt>
      <trkpt lat="40.74693800881505" lon="13.939005816355348">
        <ele>29.940000000000001</ele>
        <time>2018-09-28T07:53:41Z</time>
      </trkpt>
      <trkpt lat="40.746949911117554" lon="13.939016629010439">
        <ele>29.460000000000001</ele>
        <time>2018-09-28T07:53:53Z</time>
      </trkpt>
      <trkpt lat="40.74699467048049" lon="13.939042780548334">
        <ele>29.940000000000001</ele>
        <time>2018-09-28T07:54:02Z</time>
      </trkpt>
      <trkpt lat="40.746998777613044" lon="13.939011599868536">
        <ele>30.420000000000002</ele>
        <time>2018-09-28T07:54:18Z</time>
      </trkpt>
      <trkpt lat="40.747002130374312" lon="13.939005397260189">
        <ele>30.899999999999999</ele>
        <time>2018-09-28T07:54:29Z</time>
      </trkpt>
      <trkpt lat="40.74700296856463" lon="13.939005145803094">
        <ele>30.899999999999999</ele>
        <time>2018-09-28T07:54:38Z</time>
      </trkpt>
      <trkpt lat="40.746994419023395" lon="13.9389634039253">
        <ele>31.379999999999999</ele>
        <time>2018-09-28T07:54:47Z</time>
      </trkpt>
      <trkpt lat="40.747030796483159" lon="13.938923925161362">
        <ele>32.340000000000003</ele>
        <time>2018-09-28T07:54:58Z</time>
      </trkpt>
      <trkpt lat="40.747017217800021" lon="13.938871202990413">
        <ele>31.859999999999999</ele>
        <time>2018-09-28T07:55:09Z</time>
      </trkpt>
      <trkpt lat="40.746989138424397" lon="13.938895426690578">
        <ele>31.859999999999999</ele>
        <time>2018-09-28T07:55:19Z</time>
      </trkpt>
      <trkpt lat="40.746981091797352" lon="13.93897857517004">
        <ele>28.98</ele>
        <time>2018-09-28T07:55:32Z</time>
      </trkpt>
      <trkpt lat="40.746962232515216" lon="13.938945215195417">
        <ele>28.98</ele>
        <time>2018-09-28T07:55:40Z</time>
      </trkpt>
      <trkpt lat="40.746915126219392" lon="13.938950160518289">
        <ele>28.98</ele>
        <time>2018-09-28T07:55:51Z</time>
      </trkpt>
      <trkpt lat="40.746821248903871" lon="13.938895761966705">
        <ele>28.98</ele>
        <time>2018-09-28T07:56:03Z</time>
      </trkpt>
      <trkpt lat="40.746749667450786" lon="13.938819570466876">
        <ele>28.98</ele>
        <time>2018-09-28T07:56:14Z</time>
      </trkpt>
      <trkpt lat="40.746657215058804" lon="13.938745055347681">
        <ele>27.530000000000001</ele>
        <time>2018-09-28T07:56:28Z</time>
      </trkpt>
      <trkpt lat="40.746614634990692" lon="13.938689399510622">
        <ele>27.530000000000001</ele>
        <time>2018-09-28T07:56:39Z</time>
      </trkpt>
      <trkpt lat="40.746544394642115" lon="13.938669450581074">
        <ele>27.050000000000001</ele>
        <time>2018-09-28T07:56:51Z</time>
      </trkpt>
      <trkpt lat="40.74656811542809" lon="13.938679592683911">
        <ele>27.050000000000001</ele>
        <time>2018-09-28T07:57:04Z</time>
      </trkpt>
      <trkpt lat="40.746578928083181" lon="13.938678167760372">
        <ele>26.57</ele>
        <time>2018-09-28T07:57:17Z</time>
      </trkpt>
      <trkpt lat="40.746585549786687" lon="13.938679676502943">
        <ele>26.57</ele>
        <time>2018-09-28T07:57:38Z</time>
      </trkpt>
      <trkpt lat="40.746577503159642" lon="13.938607424497604">
        <ele>26.57</ele>
        <time>2018-09-28T07:57:48Z</time>
      </trkpt>
      <trkpt lat="40.746471555903554" lon="13.93846308812499">
        <ele>26.57</ele>
        <time>2018-09-28T07:58:01Z</time>
      </trkpt>
      <trkpt lat="40.746330488473177" lon="13.938375748693943">
        <ele>26.09</ele>
        <time>2018-09-28T07:58:11Z</time>
      </trkpt>
      <trkpt lat="40.746244993060827" lon="13.938297713175416">
        <ele>25.129999999999999</ele>
        <time>2018-09-28T07:58:22Z</time>
      </trkpt>
      <trkpt lat="40.746087329462171" lon="13.938237698748708">
        <ele>25.129999999999999</ele>
        <time>2018-09-28T07:58:35Z</time>
      </trkpt>
      <trkpt lat="40.74595388956368" lon="13.938148263841867">
        <ele>24.649999999999999</ele>
        <time>2018-09-28T07:58:48Z</time>
      </trkpt>
      <trkpt lat="40.745850289240479" lon="13.938135020434856">
        <ele>24.649999999999999</ele>
        <time>2018-09-28T07:58:57Z</time>
      </trkpt>
      <trkpt lat="40.745688267052174" lon="13.938218001276255">
        <ele>24.170000000000002</ele>
        <time>2018-09-28T07:59:11Z</time>
      </trkpt>
      <trkpt lat="40.745553653687239" lon="13.938295198604465">
        <ele>23.690000000000001</ele>
        <time>2018-09-28T07:59:26Z</time>
      </trkpt>
      <trkpt lat="40.745517611503601" lon="13.938283296301961">
        <ele>23.690000000000001</ele>
        <time>2018-09-28T07:59:31Z</time>
      </trkpt>
      <trkpt lat="40.745420465245843" lon="13.938105516135693">
        <ele>23.690000000000001</ele>
        <time>2018-09-28T07:59:46Z</time>
      </trkpt>
      <trkpt lat="40.745386434718966" lon="13.938090847805142">
        <ele>23.210000000000001</ele>
        <time>2018-09-28T07:59:57Z</time>
      </trkpt>
      <trkpt lat="40.745257269591093" lon="13.938057236373425">
        <ele>23.210000000000001</ele>
        <time>2018-09-28T08:00:09Z</time>
      </trkpt>
      <trkpt lat="40.74510564096272" lon="13.938015410676599">
        <ele>23.690000000000001</ele>
        <time>2018-09-28T08:00:23Z</time>
      </trkpt>
      <trkpt lat="40.744970692321658" lon="13.937948103994131">
        <ele>23.690000000000001</ele>
        <time>2018-09-28T08:00:34Z</time>
      </trkpt>
      <trkpt lat="40.74477924965322" lon="13.93790552392602">
        <ele>23.210000000000001</ele>
        <time>2018-09-28T08:00:49Z</time>
      </trkpt>
      <trkpt lat="40.744623094797134" lon="13.938005855306983">
        <ele>23.210000000000001</ele>
        <time>2018-09-28T08:01:03Z</time>
      </trkpt>
      <trkpt lat="40.744552183896303" lon="13.93804868683219">
        <ele>23.210000000000001</ele>
        <time>2018-09-28T08:01:10Z</time>
      </trkpt>
      <trkpt lat="40.744406171143055" lon="13.938159663230181">
        <ele>23.210000000000001</ele>
        <time>2018-09-28T08:01:24Z</time>
      </trkpt>
      <trkpt lat="40.744306929409504" lon="13.938223114237189">
        <ele>23.210000000000001</ele>
        <time>2018-09-28T08:01:34Z</time>
      </trkpt>
      <trkpt lat="40.744238030165434" lon="13.93830232322216">
        <ele>23.210000000000001</ele>
        <time>2018-09-28T08:01:42Z</time>
      </trkpt>
      <trkpt lat="40.744106518104672" lon="13.938424615189433">
        <ele>23.210000000000001</ele>
        <time>2018-09-28T08:01:57Z</time>
      </trkpt>
      <trkpt lat="40.743991686031222" lon="13.938550846651196">
        <ele>22.73</ele>
        <time>2018-09-28T08:02:11Z</time>
      </trkpt>
      <trkpt lat="40.743905017152429" lon="13.938654446974397">
        <ele>23.210000000000001</ele>
        <time>2018-09-28T08:02:22Z</time>
      </trkpt>
      <trkpt lat="40.74384986422956" lon="13.938768273219466">
        <ele>23.690000000000001</ele>
        <time>2018-09-28T08:02:34Z</time>
      </trkpt>
      <trkpt lat="40.74384449981153" lon="13.938834071159363">
        <ele>23.690000000000001</ele>
        <time>2018-09-28T08:02:47Z</time>
      </trkpt>
      <trkpt lat="40.743861263617873" lon="13.938882518559694">
        <ele>23.210000000000001</ele>
        <time>2018-09-28T08:03:02Z</time>
      </trkpt>
      <trkpt lat="40.743867047131062" lon="13.938910011202097">
        <ele>23.690000000000001</ele>
        <time>2018-09-28T08:03:17Z</time>
      </trkpt>
      <trkpt lat="40.743874842301011" lon="13.938870867714286">
        <ele>22.73</ele>
        <time>2018-09-28T08:03:27Z</time>
      </trkpt>
      <trkpt lat="40.743855563923717" lon="13.938877992331982">
        <ele>22.73</ele>
        <time>2018-09-28T08:03:47Z</time>
      </trkpt>
      <trkpt lat="40.743850618600845" lon="13.938890397548676">
        <ele>22.73</ele>
        <time>2018-09-28T08:03:56Z</time>
      </trkpt>
      <trkpt lat="40.743848020210862" lon="13.938867012038827">
        <ele>24.649999999999999</ele>
        <time>2018-09-28T08:04:00Z</time>
      </trkpt>
    </trkseg>
  </trk>

  <trk>
    <name>2018-09-28 13:29:31</name>
    <extensions>
      <gpxx:TrackExtension>
        <gpxx:DisplayColor>Yellow</gpxx:DisplayColor>
      </gpxx:TrackExtension>
      <gpxtrkx:TrackStatsExtension xmlns:gpxtrkx="http://www.garmin.com/xmlschemas/TrackStatsExtension/v1">
        <gpxtrkx:Distance>4099</gpxtrkx:Distance>
        <gpxtrkx:TotalElapsedTime>9364</gpxtrkx:TotalElapsedTime>
        <gpxtrkx:MovingTime>4647</gpxtrkx:MovingTime>
        <gpxtrkx:StoppedTime>4667</gpxtrkx:StoppedTime>
        <gpxtrkx:MovingSpeed>1</gpxtrkx:MovingSpeed>
        <gpxtrkx:MaxSpeed>2</gpxtrkx:MaxSpeed>
        <gpxtrkx:MaxElevation>106</gpxtrkx:MaxElevation>
        <gpxtrkx:MinElevation>9</gpxtrkx:MinElevation>
        <gpxtrkx:Ascent>121</gpxtrkx:Ascent>
        <gpxtrkx:Descent>119</gpxtrkx:Descent>
        <gpxtrkx:AvgAscentRate>0</gpxtrkx:AvgAscentRate>
        <gpxtrkx:MaxAscentRate>0</gpxtrkx:MaxAscentRate>
        <gpxtrkx:AvgDescentRate>0</gpxtrkx:AvgDescentRate>
        <gpxtrkx:MaxDescentRate>-0</gpxtrkx:MaxDescentRate>
      </gpxtrkx:TrackStatsExtension>
    </extensions>
    <trkseg>
      <trkpt lat="40.765629233792424" lon="14.028974398970604">
        <ele>8.789999999999999</ele>
        <time>2018-09-28T08:53:30Z</time>
      </trkpt>
      <trkpt lat="40.765633340924978" lon="14.028969956561923">
        <ele>11.67</ele>
        <time>2018-09-28T08:53:35Z</time>
      </trkpt>
      <trkpt lat="40.765631916001439" lon="14.028974818065763">
        <ele>11.67</ele>
        <time>2018-09-28T08:53:36Z</time>
      </trkpt>
      <trkpt lat="40.765631748363376" lon="14.028990073129535">
        <ele>11.67</ele>
        <time>2018-09-28T08:53:37Z</time>
      </trkpt>
      <trkpt lat="40.765632167458534" lon="14.029004657641053">
        <ele>11.19</ele>
        <time>2018-09-28T08:53:38Z</time>
      </trkpt>
      <trkpt lat="40.765633005648851" lon="14.029020499438047">
        <ele>11.19</ele>
        <time>2018-09-28T08:53:39Z</time>
      </trkpt>
      <trkpt lat="40.765632418915629" lon="14.029036508873105">
        <ele>11.19</ele>
        <time>2018-09-28T08:53:40Z</time>
      </trkpt>
      <trkpt lat="40.765629066154361" lon="14.029050171375275">
        <ele>11.19</ele>
        <time>2018-09-28T08:53:41Z</time>
      </trkpt>
      <trkpt lat="40.765626383945346" lon="14.029063666239381">
        <ele>11.19</ele>
        <time>2018-09-28T08:53:42Z</time>
      </trkpt>
      <trkpt lat="40.765578607097268" lon="14.029140528291464">
        <ele>11.67</ele>
        <time>2018-09-28T08:53:51Z</time>
      </trkpt>
      <trkpt lat="40.765549689531326" lon="14.029156034812331">
        <ele>11.67</ele>
        <time>2018-09-28T08:53:54Z</time>
      </trkpt>
      <trkpt lat="40.765541475266218" lon="14.029166679829359">
        <ele>12.15</ele>
        <time>2018-09-28T08:53:55Z</time>
      </trkpt>
      <trkpt lat="40.765498979017138" lon="14.02927078306675">
        <ele>11.67</ele>
        <time>2018-09-28T08:54:05Z</time>
      </trkpt>
      <trkpt lat="40.765451788902283" lon="14.02942668646574">
        <ele>13.119999999999999</ele>
        <time>2018-09-28T08:54:17Z</time>
      </trkpt>
      <trkpt lat="40.765399318188429" lon="14.029576387256384">
        <ele>12.630000000000001</ele>
        <time>2018-09-28T08:54:28Z</time>
      </trkpt>
      <trkpt lat="40.765338130295277" lon="14.029776798561215">
        <ele>12.630000000000001</ele>
        <time>2018-09-28T08:54:41Z</time>
      </trkpt>
      <trkpt lat="40.765312146395445" lon="14.029855336993933">
        <ele>12.630000000000001</ele>
        <time>2018-09-28T08:54:46Z</time>
      </trkpt>
      <trkpt lat="40.765302842482924" lon="14.029866233468056">
        <ele>12.630000000000001</ele>
        <time>2018-09-28T08:54:47Z</time>
      </trkpt>
      <trkpt lat="40.765286078676581" lon="14.029912501573563">
        <ele>12.630000000000001</ele>
        <time>2018-09-28T08:54:52Z</time>
      </trkpt>
      <trkpt lat="40.765278115868568" lon="14.029923984780908">
        <ele>13.119999999999999</ele>
        <time>2018-09-28T08:54:53Z</time>
      </trkpt>
      <trkpt lat="40.765236038714647" lon="14.029905796051025">
        <ele>13.119999999999999</ele>
        <time>2018-09-28T08:55:02Z</time>
      </trkpt>
      <trkpt lat="40.765213491395116" lon="14.029883248731494">
        <ele>13.119999999999999</ele>
        <time>2018-09-28T08:55:04Z</time>
      </trkpt>
      <trkpt lat="40.765126654878259" lon="14.029826084151864">
        <ele>14.08</ele>
        <time>2018-09-28T08:55:14Z</time>
      </trkpt>
      <trkpt lat="40.765058090910316" lon="14.02978828176856">
        <ele>15.039999999999999</ele>
        <time>2018-09-28T08:55:24Z</time>
      </trkpt>
      <trkpt lat="40.765050463378429" lon="14.029782246798277">
        <ele>15.039999999999999</ele>
        <time>2018-09-28T08:55:25Z</time>
      </trkpt>
      <trkpt lat="40.764956502243876" lon="14.029676550999284">
        <ele>16</ele>
        <time>2018-09-28T08:55:38Z</time>
      </trkpt>
      <trkpt lat="40.764871425926685" lon="14.02957278303802">
        <ele>17.440000000000001</ele>
        <time>2018-09-28T08:55:51Z</time>
      </trkpt>
      <trkpt lat="40.764749301597476" lon="14.029394751414657">
        <ele>18.399999999999999</ele>
        <time>2018-09-28T08:56:05Z</time>
      </trkpt>
      <trkpt lat="40.764686688780785" lon="14.029328618198633">
        <ele>19.359999999999999</ele>
        <time>2018-09-28T08:56:16Z</time>
      </trkpt>
      <trkpt lat="40.764633882790804" lon="14.029298946261406">
        <ele>19.84</ele>
        <time>2018-09-28T08:56:24Z</time>
      </trkpt>
      <trkpt lat="40.764547549188137" lon="14.029197106137872">
        <ele>20.809999999999999</ele>
        <time>2018-09-28T08:56:38Z</time>
      </trkpt>
      <trkpt lat="40.764489294961095" lon="14.029037598520517">
        <ele>21.77</ele>
        <time>2018-09-28T08:56:50Z</time>
      </trkpt>
      <trkpt lat="40.764411510899663" lon="14.029014883562922">
        <ele>22.25</ele>
        <time>2018-09-28T08:57:03Z</time>
      </trkpt>
      <trkpt lat="40.764348562806845" lon="14.029046650975943">
        <ele>22.25</ele>
        <time>2018-09-28T08:57:13Z</time>
      </trkpt>
      <trkpt lat="40.764248985797167" lon="14.02911345474422">
        <ele>22.73</ele>
        <time>2018-09-28T08:57:24Z</time>
      </trkpt>
      <trkpt lat="40.764167346060276" lon="14.02922878973186">
        <ele>23.690000000000001</ele>
        <time>2018-09-28T08:57:36Z</time>
      </trkpt>
      <trkpt lat="40.764160724356771" lon="14.029298778623343">
        <ele>24.170000000000002</ele>
        <time>2018-09-28T08:57:42Z</time>
      </trkpt>
      <trkpt lat="40.764136416837573" lon="14.029376646503806">
        <ele>24.649999999999999</ele>
        <time>2018-09-28T08:57:55Z</time>
      </trkpt>
      <trkpt lat="40.764025943353772" lon="14.029367594048381">
        <ele>24.649999999999999</ele>
        <time>2018-09-28T08:58:05Z</time>
      </trkpt>
      <trkpt lat="40.763894431293011" lon="14.029314033687115">
        <ele>25.129999999999999</ele>
        <time>2018-09-28T08:58:16Z</time>
      </trkpt>
      <trkpt lat="40.763885295018554" lon="14.029319062829018">
        <ele>25.129999999999999</ele>
        <time>2018-09-28T08:58:17Z</time>
      </trkpt>
      <trkpt lat="40.763815641403198" lon="14.029364241287112">
        <ele>26.09</ele>
        <time>2018-09-28T08:58:26Z</time>
      </trkpt>
      <trkpt lat="40.763769708573818" lon="14.029421154409647">
        <ele>27.050000000000001</ele>
        <time>2018-09-28T08:58:35Z</time>
      </trkpt>
      <trkpt lat="40.763647919520736" lon="14.029549984261394">
        <ele>28.02</ele>
        <time>2018-09-28T08:58:49Z</time>
      </trkpt>
      <trkpt lat="40.763576757162809" lon="14.029612932354212">
        <ele>28.5</ele>
        <time>2018-09-28T08:59:02Z</time>
      </trkpt>
      <trkpt lat="40.763535769656301" lon="14.029658613726497">
        <ele>28.98</ele>
        <time>2018-09-28T08:59:09Z</time>
      </trkpt>
      <trkpt lat="40.763477850705385" lon="14.029741678386927">
        <ele>29.940000000000001</ele>
        <time>2018-09-28T08:59:21Z</time>
      </trkpt>
      <trkpt lat="40.763371316716075" lon="14.029806470498443">
        <ele>30.899999999999999</ele>
        <time>2018-09-28T08:59:34Z</time>
      </trkpt>
      <trkpt lat="40.763301914557815" lon="14.029856929555535">
        <ele>30.899999999999999</ele>
        <time>2018-09-28T08:59:44Z</time>
      </trkpt>
      <trkpt lat="40.76316294260323" lon="14.029899090528488">
        <ele>31.859999999999999</ele>
        <time>2018-09-28T09:00:00Z</time>
      </trkpt>
      <trkpt lat="40.763082895427942" lon="14.029921805486083">
        <ele>32.340000000000003</ele>
        <time>2018-09-28T09:00:14Z</time>
      </trkpt>
      <trkpt lat="40.76309253461659" lon="14.030069746077061">
        <ele>32.340000000000003</ele>
        <time>2018-09-28T09:00:27Z</time>
      </trkpt>
      <trkpt lat="40.762972421944141" lon="14.030088521540165">
        <ele>32.82</ele>
        <time>2018-09-28T09:00:40Z</time>
      </trkpt>
      <trkpt lat="40.762928416952491" lon="14.030176028609276">
        <ele>33.299999999999997</ele>
        <time>2018-09-28T09:00:59Z</time>
      </trkpt>
      <trkpt lat="40.762882735580206" lon="14.030181057751179">
        <ele>33.299999999999997</ele>
        <time>2018-09-28T09:01:02Z</time>
      </trkpt>
      <trkpt lat="40.762831019237638" lon="14.030238976702094">
        <ele>33.780000000000001</ele>
        <time>2018-09-28T09:01:09Z</time>
      </trkpt>
      <trkpt lat="40.762737728655338" lon="14.030436286702752">
        <ele>34.740000000000002</ele>
        <time>2018-09-28T09:01:27Z</time>
      </trkpt>
      <trkpt lat="40.762618370354176" lon="14.03053293004632">
        <ele>35.229999999999997</ele>
        <time>2018-09-28T09:01:40Z</time>
      </trkpt>
      <trkpt lat="40.762517703697085" lon="14.030627980828285">
        <ele>36.189999999999998</ele>
        <time>2018-09-28T09:01:54Z</time>
      </trkpt>
      <trkpt lat="40.762499766424298" lon="14.030676679685712">
        <ele>36.189999999999998</ele>
        <time>2018-09-28T09:02:09Z</time>
      </trkpt>
      <trkpt lat="40.762504041194916" lon="14.030737448483706">
        <ele>36.189999999999998</ele>
        <time>2018-09-28T09:02:22Z</time>
      </trkpt>
      <trkpt lat="40.762458443641663" lon="14.030630998313427">
        <ele>36.670000000000002</ele>
        <time>2018-09-28T09:02:32Z</time>
      </trkpt>
      <trkpt lat="40.762374624609947" lon="14.030466796830297">
        <ele>36.189999999999998</ele>
        <time>2018-09-28T09:02:45Z</time>
      </trkpt>
      <trkpt lat="40.76234788633883" lon="14.030503509566188">
        <ele>36.670000000000002</ele>
        <time>2018-09-28T09:02:55Z</time>
      </trkpt>
      <trkpt lat="40.762319387868047" lon="14.030491774901748">
        <ele>36.670000000000002</ele>
        <time>2018-09-28T09:03:10Z</time>
      </trkpt>
      <trkpt lat="40.762276472523808" lon="14.030527314171195">
        <ele>36.670000000000002</ele>
        <time>2018-09-28T09:03:23Z</time>
      </trkpt>
      <trkpt lat="40.762202125042677" lon="14.03053930029273">
        <ele>37.149999999999999</ele>
        <time>2018-09-28T09:03:38Z</time>
      </trkpt>
      <trkpt lat="40.762120569124818" lon="14.030574755743146">
        <ele>36.670000000000002</ele>
        <time>2018-09-28T09:03:50Z</time>
      </trkpt>
      <trkpt lat="40.76208209618926" lon="14.030690509825945">
        <ele>37.149999999999999</ele>
        <time>2018-09-28T09:04:04Z</time>
      </trkpt>
      <trkpt lat="40.762086287140846" lon="14.030758906155825">
        <ele>38.590000000000003</ele>
        <time>2018-09-28T09:04:17Z</time>
      </trkpt>
      <trkpt lat="40.762100787833333" lon="14.030800983309746">
        <ele>38.590000000000003</ele>
        <time>2018-09-28T09:04:26Z</time>
      </trkpt>
      <trkpt lat="40.762082934379578" lon="14.030824285000563">
        <ele>38.590000000000003</ele>
        <time>2018-09-28T09:04:37Z</time>
      </trkpt>
      <trkpt lat="40.762029960751534" lon="14.030874576419592">
        <ele>38.590000000000003</ele>
        <time>2018-09-28T09:04:49Z</time>
      </trkpt>
      <trkpt lat="40.762046976014972" lon="14.03086912818253">
        <ele>38.590000000000003</ele>
        <time>2018-09-28T09:05:03Z</time>
      </trkpt>
      <trkpt lat="40.762028535827994" lon="14.030809784308076">
        <ele>38.590000000000003</ele>
        <time>2018-09-28T09:05:12Z</time>
      </trkpt>
      <trkpt lat="40.762028032913804" lon="14.030805425718427">
        <ele>38.590000000000003</ele>
        <time>2018-09-28T09:05:28Z</time>
      </trkpt>
      <trkpt lat="40.762031301856041" lon="14.030770305544138">
        <ele>38.590000000000003</ele>
        <time>2018-09-28T09:05:40Z</time>
      </trkpt>
      <trkpt lat="40.762015292420983" lon="14.030756726861">
        <ele>38.590000000000003</ele>
        <time>2018-09-28T09:05:54Z</time>
      </trkpt>
      <trkpt lat="40.762049658223987" lon="14.030759576708078">
        <ele>39.07</ele>
        <time>2018-09-28T09:06:09Z</time>
      </trkpt>
      <trkpt lat="40.762062650173903" lon="14.030763600021601">
        <ele>39.07</ele>
        <time>2018-09-28T09:06:25Z</time>
      </trkpt>
      <trkpt lat="40.762056699022651" lon="14.030787823721766">
        <ele>37.630000000000003</ele>
        <time>2018-09-28T09:06:32Z</time>
      </trkpt>
      <trkpt lat="40.762072540819645" lon="14.030812801793218">
        <ele>37.630000000000003</ele>
        <time>2018-09-28T09:07:01Z</time>
      </trkpt>
      <trkpt lat="40.762063320726156" lon="14.030812047421932">
        <ele>37.630000000000003</ele>
        <time>2018-09-28T09:07:11Z</time>
      </trkpt>
      <trkpt lat="40.762050747871399" lon="14.030795032158494">
        <ele>38.590000000000003</ele>
        <time>2018-09-28T09:07:14Z</time>
      </trkpt>
      <trkpt lat="40.762071786448359" lon="14.030873067677021">
        <ele>39.07</ele>
        <time>2018-09-28T09:07:23Z</time>
      </trkpt>
      <trkpt lat="40.762095926329494" lon="14.030922101810575">
        <ele>39.07</ele>
        <time>2018-09-28T09:07:33Z</time>
      </trkpt>
      <trkpt lat="40.762130543589592" lon="14.030932914465666">
        <ele>39.07</ele>
        <time>2018-09-28T09:07:46Z</time>
      </trkpt>
      <trkpt lat="40.76212509535253" lon="14.030986810103059">
        <ele>39.07</ele>
        <time>2018-09-28T09:07:58Z</time>
      </trkpt>
      <trkpt lat="40.762130543589592" lon="14.031026540324092">
        <ele>39.549999999999997</ele>
        <time>2018-09-28T09:08:09Z</time>
      </trkpt>
      <trkpt lat="40.762080168351531" lon="14.031090745702386">
        <ele>39.549999999999997</ele>
        <time>2018-09-28T09:08:21Z</time>
      </trkpt>
      <trkpt lat="40.762101206928492" lon="14.031103318557143">
        <ele>39.549999999999997</ele>
        <time>2018-09-28T09:08:34Z</time>
      </trkpt>
      <trkpt lat="40.762109840288758" lon="14.031181773170829">
        <ele>40.509999999999998</ele>
        <time>2018-09-28T09:08:43Z</time>
      </trkpt>
      <trkpt lat="40.762084107846022" lon="14.031222006306052">
        <ele>40.990000000000002</ele>
        <time>2018-09-28T09:08:53Z</time>
      </trkpt>
      <trkpt lat="40.762130292132497" lon="14.031206332147121">
        <ele>40.990000000000002</ele>
        <time>2018-09-28T09:09:15Z</time>
      </trkpt>
      <trkpt lat="40.762116042897105" lon="14.031225526705384">
        <ele>40.990000000000002</ele>
        <time>2018-09-28T09:09:28Z</time>
      </trkpt>
      <trkpt lat="40.762094417586923" lon="14.031197866424918">
        <ele>40.990000000000002</ele>
        <time>2018-09-28T09:09:41Z</time>
      </trkpt>
      <trkpt lat="40.762136494740844" lon="14.031169535592198">
        <ele>41.469999999999999</ele>
        <time>2018-09-28T09:10:11Z</time>
      </trkpt>
      <trkpt lat="40.762116797268391" lon="14.03114858083427">
        <ele>41.469999999999999</ele>
        <time>2018-09-28T09:10:29Z</time>
      </trkpt>
      <trkpt lat="40.762109002098441" lon="14.031173307448626">
        <ele>41.469999999999999</ele>
        <time>2018-09-28T09:10:43Z</time>
      </trkpt>
      <trkpt lat="40.762095591053367" lon="14.031141791492701">
        <ele>41.469999999999999</ele>
        <time>2018-09-28T09:11:00Z</time>
      </trkpt>
      <trkpt lat="40.762044880539179" lon="14.031119327992201">
        <ele>41.469999999999999</ele>
        <time>2018-09-28T09:11:10Z</time>
      </trkpt>
      <trkpt lat="40.762184606865048" lon="14.031198369339108">
        <ele>40.990000000000002</ele>
        <time>2018-09-28T09:12:24Z</time>
      </trkpt>
      <trkpt lat="40.762111768126488" lon="14.031210606917739">
        <ele>41.469999999999999</ele>
        <time>2018-09-28T09:12:34Z</time>
      </trkpt>
      <trkpt lat="40.762121910229325" lon="14.031319823116064">
        <ele>42.920000000000002</ele>
        <time>2018-09-28T09:12:47Z</time>
      </trkpt>
      <trkpt lat="40.762118473649025" lon="14.031364582479">
        <ele>43.880000000000003</ele>
        <time>2018-09-28T09:13:02Z</time>
      </trkpt>
      <trkpt lat="40.762066254392266" lon="14.031461058184505">
        <ele>44.840000000000003</ele>
        <time>2018-09-28T09:13:13Z</time>
      </trkpt>
      <trkpt lat="40.762050747871399" lon="14.031500788405538">
        <ele>45.32</ele>
        <time>2018-09-28T09:13:17Z</time>
      </trkpt>
      <trkpt lat="40.761983608826995" lon="14.031527526676655">
        <ele>46.280000000000001</ele>
        <time>2018-09-28T09:13:28Z</time>
      </trkpt>
      <trkpt lat="40.761950332671404" lon="14.031598102301359">
        <ele>47.719999999999999</ele>
        <time>2018-09-28T09:13:38Z</time>
      </trkpt>
      <trkpt lat="40.761937173083425" lon="14.031710335984826">
        <ele>49.159999999999997</ele>
        <time>2018-09-28T09:13:50Z</time>
      </trkpt>
      <trkpt lat="40.761916888877749" lon="14.031819552183151">
        <ele>50.130000000000003</ele>
        <time>2018-09-28T09:14:04Z</time>
      </trkpt>
      <trkpt lat="40.761862909421325" lon="14.03194410726428">
        <ele>51.57</ele>
        <time>2018-09-28T09:14:16Z</time>
      </trkpt>
      <trkpt lat="40.761840529739857" lon="14.031960032880306">
        <ele>52.049999999999997</ele>
        <time>2018-09-28T09:14:19Z</time>
      </trkpt>
      <trkpt lat="40.761780263856053" lon="14.032011916860938">
        <ele>53.490000000000002</ele>
        <time>2018-09-28T09:14:29Z</time>
      </trkpt>
      <trkpt lat="40.761746317148209" lon="14.032085090875626">
        <ele>55.409999999999997</ele>
        <time>2018-09-28T09:14:43Z</time>
      </trkpt>
      <trkpt lat="40.761727709323168" lon="14.032149715349078">
        <ele>56.369999999999997</ele>
        <time>2018-09-28T09:14:52Z</time>
      </trkpt>
      <trkpt lat="40.761590832844377" lon="14.032219788059592">
        <ele>57.82</ele>
        <time>2018-09-28T09:15:05Z</time>
      </trkpt>
      <trkpt lat="40.76151723973453" lon="14.03225339949131">
        <ele>58.780000000000001</ele>
        <time>2018-09-28T09:15:16Z</time>
      </trkpt>
      <trkpt lat="40.761420512571931" lon="14.032285753637552">
        <ele>60.219999999999999</ele>
        <time>2018-09-28T09:15:31Z</time>
      </trkpt>
      <trkpt lat="40.761336274445057" lon="14.032321712002158">
        <ele>61.659999999999997</ele>
        <time>2018-09-28T09:15:44Z</time>
      </trkpt>
      <trkpt lat="40.761295119300485" lon="14.032301092520356">
        <ele>62.140000000000001</ele>
        <time>2018-09-28T09:15:55Z</time>
      </trkpt>
      <trkpt lat="40.761294532567263" lon="14.03227393515408">
        <ele>62.619999999999997</ele>
        <time>2018-09-28T09:16:11Z</time>
      </trkpt>
      <trkpt lat="40.761232087388635" lon="14.032310480251908">
        <ele>63.100000000000001</ele>
        <time>2018-09-28T09:16:29Z</time>
      </trkpt>
      <trkpt lat="40.761141143739223" lon="14.032333362847567">
        <ele>64.549999999999997</ele>
        <time>2018-09-28T09:16:40Z</time>
      </trkpt>
      <trkpt lat="40.761020611971617" lon="14.032388096675277">
        <ele>66.469999999999999</ele>
        <time>2018-09-28T09:16:54Z</time>
      </trkpt>
      <trkpt lat="40.760974930599332" lon="14.032421791926026">
        <ele>67.430000000000007</ele>
        <time>2018-09-28T09:17:05Z</time>
      </trkpt>
      <trkpt lat="40.760928494855762" lon="14.032403938472271">
        <ele>67.909999999999997</ele>
        <time>2018-09-28T09:17:15Z</time>
      </trkpt>
      <trkpt lat="40.760906198993325" lon="14.032401675358415">
        <ele>67.430000000000007</ele>
        <time>2018-09-28T09:17:28Z</time>
      </trkpt>
      <trkpt lat="40.760903935879469" lon="14.03239949606359">
        <ele>67.909999999999997</ele>
        <time>2018-09-28T09:17:46Z</time>
      </trkpt>
      <trkpt lat="40.760899744927883" lon="14.032380469143391">
        <ele>68.390000000000001</ele>
        <time>2018-09-28T09:18:06Z</time>
      </trkpt>
      <trkpt lat="40.760903432965279" lon="14.032376948744059">
        <ele>68.390000000000001</ele>
        <time>2018-09-28T09:18:31Z</time>
      </trkpt>
      <trkpt lat="40.760897817090154" lon="14.032352725043893">
        <ele>68.390000000000001</ele>
        <time>2018-09-28T09:18:44Z</time>
      </trkpt>
      <trkpt lat="40.760896559804678" lon="14.032382313162088">
        <ele>68.390000000000001</ele>
        <time>2018-09-28T09:19:13Z</time>
      </trkpt>
      <trkpt lat="40.760904522612691" lon="14.032375775277615">
        <ele>68.390000000000001</ele>
        <time>2018-09-28T09:19:36Z</time>
      </trkpt>
      <trkpt lat="40.760896559804678" lon="14.032392706722021">
        <ele>68.390000000000001</ele>
        <time>2018-09-28T09:20:02Z</time>
      </trkpt>
      <trkpt lat="40.760894799605012" lon="14.032388934865594">
        <ele>68.390000000000001</ele>
        <time>2018-09-28T09:20:16Z</time>
      </trkpt>
      <trkpt lat="40.760895889252424" lon="14.032395556569099">
        <ele>68.870000000000005</ele>
        <time>2018-09-28T09:20:38Z</time>
      </trkpt>
      <trkpt lat="40.760901672765613" lon="14.032392119988799">
        <ele>68.390000000000001</ele>
        <time>2018-09-28T09:21:08Z</time>
      </trkpt>
      <trkpt lat="40.760915670543909" lon="14.032429084181786">
        <ele>68.870000000000005</ele>
        <time>2018-09-28T09:21:29Z</time>
      </trkpt>
      <trkpt lat="40.760896224528551" lon="14.032443584874272">
        <ele>68.870000000000005</ele>
        <time>2018-09-28T09:21:42Z</time>
      </trkpt>
      <trkpt lat="40.760855656117201" lon="14.032465796917677">
        <ele>69.349999999999994</ele>
        <time>2018-09-28T09:21:54Z</time>
      </trkpt>
      <trkpt lat="40.760803185403347" lon="14.032495804131031">
        <ele>69.829999999999998</ele>
        <time>2018-09-28T09:22:03Z</time>
      </trkpt>
      <trkpt lat="40.760729424655437" lon="14.032495804131031">
        <ele>70.310000000000002</ele>
        <time>2018-09-28T09:22:15Z</time>
      </trkpt>
      <trkpt lat="40.760666560381651" lon="14.032516004517674">
        <ele>70.310000000000002</ele>
        <time>2018-09-28T09:22:26Z</time>
      </trkpt>
      <trkpt lat="40.760593051090837" lon="14.032535366714001">
        <ele>71.269999999999996</ele>
        <time>2018-09-28T09:22:37Z</time>
      </trkpt>
      <trkpt lat="40.760582657530904" lon="14.032539892941713">
        <ele>71.760000000000005</ele>
        <time>2018-09-28T09:22:47Z</time>
      </trkpt>
      <trkpt lat="40.760533539578319" lon="14.032592196017504">
        <ele>71.760000000000005</ele>
        <time>2018-09-28T09:22:58Z</time>
      </trkpt>
      <trkpt lat="40.760492803528905" lon="14.032673165202141">
        <ele>72.239999999999995</ele>
        <time>2018-09-28T09:23:10Z</time>
      </trkpt>
      <trkpt lat="40.760474111884832" lon="14.032727144658566">
        <ele>72.719999999999999</ele>
        <time>2018-09-28T09:23:15Z</time>
      </trkpt>
      <trkpt lat="40.760461539030075" lon="14.032859997823834">
        <ele>73.680000000000007</ele>
        <time>2018-09-28T09:23:26Z</time>
      </trkpt>
      <trkpt lat="40.760483583435416" lon="14.03293551877141">
        <ele>74.159999999999997</ele>
        <time>2018-09-28T09:23:36Z</time>
      </trkpt>
      <trkpt lat="40.760561870411038" lon="14.033036353066564">
        <ele>75.599999999999994</ele>
        <time>2018-09-28T09:23:51Z</time>
      </trkpt>
      <trkpt lat="40.760599002242088" lon="14.033051775768399">
        <ele>76.079999999999998</ele>
        <time>2018-09-28T09:23:55Z</time>
      </trkpt>
      <trkpt lat="40.760752810165286" lon="14.033099804073572">
        <ele>76.560000000000002</ele>
        <time>2018-09-28T09:24:04Z</time>
      </trkpt>
      <trkpt lat="40.760714337229729" lon="14.033156549558043">
        <ele>78.480000000000004</ele>
        <time>2018-09-28T09:24:07Z</time>
      </trkpt>
      <trkpt lat="40.760710565373302" lon="14.033201476559043">
        <ele>77.519999999999996</ele>
        <time>2018-09-28T09:24:09Z</time>
      </trkpt>
      <trkpt lat="40.76071098446846" lon="14.033234836533666">
        <ele>78</ele>
        <time>2018-09-28T09:24:12Z</time>
      </trkpt>
      <trkpt lat="40.760746942833066" lon="14.033302897587419">
        <ele>78.480000000000004</ele>
        <time>2018-09-28T09:24:21Z</time>
      </trkpt>
      <trkpt lat="40.760805699974298" lon="14.033352099359035">
        <ele>79.450000000000003</ele>
        <time>2018-09-28T09:24:29Z</time>
      </trkpt>
      <trkpt lat="40.760852219536901" lon="14.033360565081239">
        <ele>80.409999999999997</ele>
        <time>2018-09-28T09:24:38Z</time>
      </trkpt>
      <trkpt lat="40.760910892859101" lon="14.033400798216462">
        <ele>81.370000000000005</ele>
        <time>2018-09-28T09:24:48Z</time>
      </trkpt>
      <trkpt lat="40.760960346087813" lon="14.033420663326979">
        <ele>82.329999999999998</ele>
        <time>2018-09-28T09:24:55Z</time>
      </trkpt>
      <trkpt lat="40.761074842885137" lon="14.03347103856504">
        <ele>83.769999999999996</ele>
        <time>2018-09-28T09:25:06Z</time>
      </trkpt>
      <trkpt lat="40.761086493730545" lon="14.033479504287243">
        <ele>83.769999999999996</ele>
        <time>2018-09-28T09:25:07Z</time>
      </trkpt>
      <trkpt lat="40.761103760451078" lon="14.033497860655189">
        <ele>83.769999999999996</ele>
        <time>2018-09-28T09:25:09Z</time>
      </trkpt>
      <trkpt lat="40.761191435158253" lon="14.033608585596085">
        <ele>84.730000000000004</ele>
        <time>2018-09-28T09:25:19Z</time>
      </trkpt>
      <trkpt lat="40.761275254189968" lon="14.033704893663526">
        <ele>85.209999999999994</ele>
        <time>2018-09-28T09:25:29Z</time>
      </trkpt>
      <trkpt lat="40.761300316080451" lon="14.033709252253175">
        <ele>85.689999999999998</ele>
        <time>2018-09-28T09:25:31Z</time>
      </trkpt>
      <trkpt lat="40.761442389339209" lon="14.033854007720947">
        <ele>86.180000000000007</ele>
        <time>2018-09-28T09:25:47Z</time>
      </trkpt>
      <trkpt lat="40.761461583897471" lon="14.033891223371029">
        <ele>86.180000000000007</ele>
        <time>2018-09-28T09:25:51Z</time>
      </trkpt>
      <trkpt lat="40.761539870873094" lon="14.034008486196399">
        <ele>86.180000000000007</ele>
        <time>2018-09-28T09:26:04Z</time>
      </trkpt>
      <trkpt lat="40.761557221412659" lon="14.034006306901574">
        <ele>86.180000000000007</ele>
        <time>2018-09-28T09:26:14Z</time>
      </trkpt>
      <trkpt lat="40.761560909450054" lon="14.033963978290558">
        <ele>86.180000000000007</ele>
        <time>2018-09-28T09:26:25Z</time>
      </trkpt>
      <trkpt lat="40.76157440431416" lon="14.033961715176702">
        <ele>86.180000000000007</ele>
        <time>2018-09-28T09:26:36Z</time>
      </trkpt>
      <trkpt lat="40.761579181998968" lon="14.033976467326283">
        <ele>86.180000000000007</ele>
        <time>2018-09-28T09:26:52Z</time>
      </trkpt>
      <trkpt lat="40.761570045724511" lon="14.033990046009421">
        <ele>86.180000000000007</ele>
        <time>2018-09-28T09:27:07Z</time>
      </trkpt>
      <trkpt lat="40.761553617194295" lon="14.033971605822444">
        <ele>86.180000000000007</ele>
        <time>2018-09-28T09:27:27Z</time>
      </trkpt>
      <trkpt lat="40.761539787054062" lon="14.033954422920942">
        <ele>86.180000000000007</ele>
        <time>2018-09-28T09:27:45Z</time>
      </trkpt>
      <trkpt lat="40.76153039932251" lon="14.033969761803746">
        <ele>86.180000000000007</ele>
        <time>2018-09-28T09:28:03Z</time>
      </trkpt>
      <trkpt lat="40.761533165350556" lon="14.03394746594131">
        <ele>86.180000000000007</ele>
        <time>2018-09-28T09:28:19Z</time>
      </trkpt>
      <trkpt lat="40.761527549475431" lon="14.033958446234465">
        <ele>86.180000000000007</ele>
        <time>2018-09-28T09:28:36Z</time>
      </trkpt>
      <trkpt lat="40.761535679921508" lon="14.033959787338972">
        <ele>86.659999999999997</ele>
        <time>2018-09-28T09:28:48Z</time>
      </trkpt>
      <trkpt lat="40.761535512283444" lon="14.033941430971026">
        <ele>86.659999999999997</ele>
        <time>2018-09-28T09:29:05Z</time>
      </trkpt>
      <trkpt lat="40.761566776782274" lon="14.033968923613429">
        <ele>86.659999999999997</ele>
        <time>2018-09-28T09:29:20Z</time>
      </trkpt>
      <trkpt lat="40.761582367122173" lon="14.033977640792727">
        <ele>86.180000000000007</ele>
        <time>2018-09-28T09:29:37Z</time>
      </trkpt>
      <trkpt lat="40.761570045724511" lon="14.033981999382377">
        <ele>86.659999999999997</ele>
        <time>2018-09-28T09:29:53Z</time>
      </trkpt>
      <trkpt lat="40.761566273868084" lon="14.033976886421442">
        <ele>86.180000000000007</ele>
        <time>2018-09-28T09:30:08Z</time>
      </trkpt>
      <trkpt lat="40.761581612750888" lon="14.033998595550656">
        <ele>86.659999999999997</ele>
        <time>2018-09-28T09:30:26Z</time>
      </trkpt>
      <trkpt lat="40.761567866429687" lon="14.033983005210757">
        <ele>86.659999999999997</ele>
        <time>2018-09-28T09:30:36Z</time>
      </trkpt>
      <trkpt lat="40.761553449556231" lon="14.033973952755332">
        <ele>86.659999999999997</ele>
        <time>2018-09-28T09:30:50Z</time>
      </trkpt>
      <trkpt lat="40.761547749862075" lon="14.033981245011091">
        <ele>86.180000000000007</ele>
        <time>2018-09-28T09:31:05Z</time>
      </trkpt>
      <trkpt lat="40.761563088744879" lon="14.033996416255832">
        <ele>86.180000000000007</ele>
        <time>2018-09-28T09:31:19Z</time>
      </trkpt>
      <trkpt lat="40.761551940813661" lon="14.033997589722276">
        <ele>85.689999999999998</ele>
        <time>2018-09-28T09:31:41Z</time>
      </trkpt>
      <trkpt lat="40.761552276089787" lon="14.034000188112259">
        <ele>86.180000000000007</ele>
        <time>2018-09-28T09:31:56Z</time>
      </trkpt>
      <trkpt lat="40.76155579648912" lon="14.034075709059834">
        <ele>86.659999999999997</ele>
        <time>2018-09-28T09:32:02Z</time>
      </trkpt>
      <trkpt lat="40.76155629940331" lon="14.034126335754991">
        <ele>87.140000000000001</ele>
        <time>2018-09-28T09:32:06Z</time>
      </trkpt>
      <trkpt lat="40.76160566881299" lon="14.034233959391713">
        <ele>87.620000000000005</ele>
        <time>2018-09-28T09:32:16Z</time>
      </trkpt>
      <trkpt lat="40.761650847271085" lon="14.034307468682528">
        <ele>88.579999999999998</ele>
        <time>2018-09-28T09:32:25Z</time>
      </trkpt>
      <trkpt lat="40.761701557785273" lon="14.034396400675178">
        <ele>90.019999999999996</ele>
        <time>2018-09-28T09:32:34Z</time>
      </trkpt>
      <trkpt lat="40.76174003072083" lon="14.034445602446795">
        <ele>90.5</ele>
        <time>2018-09-28T09:32:44Z</time>
      </trkpt>
      <trkpt lat="40.761746317148209" lon="14.034466305747628">
        <ele>90.5</ele>
        <time>2018-09-28T09:32:53Z</time>
      </trkpt>
      <trkpt lat="40.76171706430614" lon="14.034469742327929">
        <ele>90.019999999999996</ele>
        <time>2018-09-28T09:33:10Z</time>
      </trkpt>
      <trkpt lat="40.761709185317159" lon="14.034479800611734">
        <ele>90.5</ele>
        <time>2018-09-28T09:33:23Z</time>
      </trkpt>
      <trkpt lat="40.761707844212651" lon="14.034491451457143">
        <ele>90.5</ele>
        <time>2018-09-28T09:33:26Z</time>
      </trkpt>
      <trkpt lat="40.761679261922836" lon="14.034536210820079">
        <ele>91.459999999999994</ele>
        <time>2018-09-28T09:33:33Z</time>
      </trkpt>
      <trkpt lat="40.76164573431015" lon="14.034562027081847">
        <ele>91.939999999999998</ele>
        <time>2018-09-28T09:33:50Z</time>
      </trkpt>
      <trkpt lat="40.761594269424677" lon="14.034529589116573">
        <ele>91.459999999999994</ele>
        <time>2018-09-28T09:34:11Z</time>
      </trkpt>
      <trkpt lat="40.761627545580268" lon="14.034545011818409">
        <ele>91.939999999999998</ele>
        <time>2018-09-28T09:34:27Z</time>
      </trkpt>
      <trkpt lat="40.76162276789546" lon="14.034553728997707">
        <ele>92.420000000000002</ele>
        <time>2018-09-28T09:34:51Z</time>
      </trkpt>
      <trkpt lat="40.761561831459403" lon="14.034651713445783">
        <ele>94.349999999999994</ele>
        <time>2018-09-28T09:35:06Z</time>
      </trkpt>
      <trkpt lat="40.761546911671758" lon="14.034693539142609">
        <ele>95.310000000000002</ele>
        <time>2018-09-28T09:35:18Z</time>
      </trkpt>
      <trkpt lat="40.761445155367255" lon="14.034758415073156">
        <ele>97.230000000000004</ele>
        <time>2018-09-28T09:35:35Z</time>
      </trkpt>
      <trkpt lat="40.761474575847387" lon="14.034851118922234">
        <ele>98.189999999999998</ele>
        <time>2018-09-28T09:35:45Z</time>
      </trkpt>
      <trkpt lat="40.761506929993629" lon="14.034949438646436">
        <ele>98.189999999999998</ele>
        <time>2018-09-28T09:35:55Z</time>
      </trkpt>
      <trkpt lat="40.761546408757567" lon="14.035077765583992">
        <ele>98.670000000000002</ele>
        <time>2018-09-28T09:36:08Z</time>
      </trkpt>
      <trkpt lat="40.76154749840498" lon="14.035133505240083">
        <ele>100.11</ele>
        <time>2018-09-28T09:36:13Z</time>
      </trkpt>
      <trkpt lat="40.76151673682034" lon="14.035236854106188">
        <ele>99.629999999999995</ele>
        <time>2018-09-28T09:36:25Z</time>
      </trkpt>
      <trkpt lat="40.761495195329189" lon="14.035301730036736">
        <ele>99.629999999999995</ele>
        <time>2018-09-28T09:36:38Z</time>
      </trkpt>
      <trkpt lat="40.761501649394631" lon="14.035311872139573">
        <ele>99.629999999999995</ele>
        <time>2018-09-28T09:37:00Z</time>
      </trkpt>
      <trkpt lat="40.761495111510158" lon="14.035294521600008">
        <ele>99.629999999999995</ele>
        <time>2018-09-28T09:37:21Z</time>
      </trkpt>
      <trkpt lat="40.761506091803312" lon="14.035213133320212">
        <ele>99.629999999999995</ele>
        <time>2018-09-28T09:37:35Z</time>
      </trkpt>
      <trkpt lat="40.76152503490448" lon="14.035208690911531">
        <ele>100.11</ele>
        <time>2018-09-28T09:37:47Z</time>
      </trkpt>
      <trkpt lat="40.761504918336868" lon="14.03522277250886">
        <ele>99.629999999999995</ele>
        <time>2018-09-28T09:38:07Z</time>
      </trkpt>
      <trkpt lat="40.761504666879773" lon="14.035263508558273">
        <ele>99.629999999999995</ele>
        <time>2018-09-28T09:38:30Z</time>
      </trkpt>
      <trkpt lat="40.761524280533195" lon="14.035258227959275">
        <ele>99.629999999999995</ele>
        <time>2018-09-28T09:38:42Z</time>
      </trkpt>
      <trkpt lat="40.761545989662409" lon="14.035245403647423">
        <ele>100.11</ele>
        <time>2018-09-28T09:38:54Z</time>
      </trkpt>
      <trkpt lat="40.76149377040565" lon="14.035187400877476">
        <ele>100.59999999999999</ele>
        <time>2018-09-28T09:39:04Z</time>
      </trkpt>
      <trkpt lat="40.761484801769257" lon="14.035194274038076">
        <ele>100.11</ele>
        <time>2018-09-28T09:39:15Z</time>
      </trkpt>
      <trkpt lat="40.761457057669759" lon="14.035252779722214">
        <ele>100.11</ele>
        <time>2018-09-28T09:39:28Z</time>
      </trkpt>
      <trkpt lat="40.761487651616335" lon="14.035241799429059">
        <ele>99.150000000000006</ele>
        <time>2018-09-28T09:39:41Z</time>
      </trkpt>
      <trkpt lat="40.761471726000309" lon="14.03522964566946">
        <ele>99.150000000000006</ele>
        <time>2018-09-28T09:39:58Z</time>
      </trkpt>
      <trkpt lat="40.761482790112495" lon="14.035229478031397">
        <ele>100.11</ele>
        <time>2018-09-28T09:40:09Z</time>
      </trkpt>
      <trkpt lat="40.761483041569591" lon="14.035242386162281">
        <ele>100.11</ele>
        <time>2018-09-28T09:40:23Z</time>
      </trkpt>
      <trkpt lat="40.761486394330859" lon="14.035231489688158">
        <ele>100.11</ele>
        <time>2018-09-28T09:40:44Z</time>
      </trkpt>
      <trkpt lat="40.761491004377604" lon="14.03522377833724">
        <ele>99.629999999999995</ele>
        <time>2018-09-28T09:40:56Z</time>
      </trkpt>
      <trkpt lat="40.761501062661409" lon="14.035240458324552">
        <ele>100.11</ele>
        <time>2018-09-28T09:41:07Z</time>
      </trkpt>
      <trkpt lat="40.761496284976602" lon="14.035239368677139">
        <ele>100.11</ele>
        <time>2018-09-28T09:41:24Z</time>
      </trkpt>
      <trkpt lat="40.761492932215333" lon="14.035245906561613">
        <ele>100.11</ele>
        <time>2018-09-28T09:41:41Z</time>
      </trkpt>
      <trkpt lat="40.761488741263747" lon="14.035247331485152">
        <ele>100.59999999999999</ele>
        <time>2018-09-28T09:42:03Z</time>
      </trkpt>
      <trkpt lat="40.761485137045383" lon="14.035241967067122">
        <ele>100.59999999999999</ele>
        <time>2018-09-28T09:42:20Z</time>
      </trkpt>
      <trkpt lat="40.761490752920508" lon="14.03523744083941">
        <ele>100.11</ele>
        <time>2018-09-28T09:42:39Z</time>
      </trkpt>
      <trkpt lat="40.761520676314831" lon="14.035103665664792">
        <ele>100.11</ele>
        <time>2018-09-28T09:42:51Z</time>
      </trkpt>
      <trkpt lat="40.761501314118505" lon="14.035006603226066">
        <ele>99.150000000000006</ele>
        <time>2018-09-28T09:43:01Z</time>
      </trkpt>
      <trkpt lat="40.761476503685117" lon="14.034940050914884">
        <ele>98.670000000000002</ele>
        <time>2018-09-28T09:43:10Z</time>
      </trkpt>
      <trkpt lat="40.761369718238711" lon="14.034790601581335">
        <ele>99.150000000000006</ele>
        <time>2018-09-28T09:43:26Z</time>
      </trkpt>
      <trkpt lat="40.761281121522188" lon="14.034803342074156">
        <ele>99.629999999999995</ele>
        <time>2018-09-28T09:43:34Z</time>
      </trkpt>
      <trkpt lat="40.761203086003661" lon="14.034790266305208">
        <ele>100.11</ele>
        <time>2018-09-28T09:43:48Z</time>
      </trkpt>
      <trkpt lat="40.761129576712847" lon="14.034785237163305">
        <ele>100.11</ele>
        <time>2018-09-28T09:44:00Z</time>
      </trkpt>
      <trkpt lat="40.761090433225036" lon="14.034787667915225">
        <ele>101.08</ele>
        <time>2018-09-28T09:44:11Z</time>
      </trkpt>
      <trkpt lat="40.761002087965608" lon="14.034783393144608">
        <ele>102.04000000000001</ele>
        <time>2018-09-28T09:44:24Z</time>
      </trkpt>
      <trkpt lat="40.761054223403335" lon="14.035196453332901">
        <ele>101.08</ele>
        <time>2018-09-28T09:44:56Z</time>
      </trkpt>
      <trkpt lat="40.761021533980966" lon="14.03501951135695">
        <ele>101.08</ele>
        <time>2018-09-28T09:45:05Z</time>
      </trkpt>
      <trkpt lat="40.760998735204339" lon="14.035025211051106">
        <ele>101.08</ele>
        <time>2018-09-28T09:45:21Z</time>
      </trkpt>
      <trkpt lat="40.760996723547578" lon="14.035060666501522">
        <ele>101.08</ele>
        <time>2018-09-28T09:45:31Z</time>
      </trkpt>
      <trkpt lat="40.761010218411684" lon="14.03502780944109">
        <ele>101.08</ele>
        <time>2018-09-28T09:45:42Z</time>
      </trkpt>
      <trkpt lat="40.761003261432052" lon="14.035033006221056">
        <ele>101.08</ele>
        <time>2018-09-28T09:45:55Z</time>
      </trkpt>
      <trkpt lat="40.76102907769382" lon="14.035061504691839">
        <ele>101.08</ele>
        <time>2018-09-28T09:46:16Z</time>
      </trkpt>
      <trkpt lat="40.761010553687811" lon="14.035052619874477">
        <ele>101.08</ele>
        <time>2018-09-28T09:46:29Z</time>
      </trkpt>
      <trkpt lat="40.760995801538229" lon="14.035058403387666">
        <ele>101.56</ele>
        <time>2018-09-28T09:46:58Z</time>
      </trkpt>
      <trkpt lat="40.76098364777863" lon="14.035068210214376">
        <ele>101.56</ele>
        <time>2018-09-28T09:47:23Z</time>
      </trkpt>
      <trkpt lat="40.760996555909514" lon="14.035067372024059">
        <ele>101.56</ele>
        <time>2018-09-28T09:47:43Z</time>
      </trkpt>
      <trkpt lat="40.760972248390317" lon="14.035058319568634">
        <ele>101.56</ele>
        <time>2018-09-28T09:48:08Z</time>
      </trkpt>
      <trkpt lat="40.760975265875459" lon="14.035050189122558">
        <ele>101.56</ele>
        <time>2018-09-28T09:48:24Z</time>
      </trkpt>
      <trkpt lat="40.760971494019032" lon="14.035055385902524">
        <ele>102.04000000000001</ele>
        <time>2018-09-28T09:48:45Z</time>
      </trkpt>
      <trkpt lat="40.760959088802338" lon="14.035045746713877">
        <ele>102.04000000000001</ele>
        <time>2018-09-28T09:49:08Z</time>
      </trkpt>
      <trkpt lat="40.760974930599332" lon="14.035050189122558">
        <ele>102.52</ele>
        <time>2018-09-28T09:49:30Z</time>
      </trkpt>
      <trkpt lat="40.760983480140567" lon="14.035050692036748">
        <ele>102.52</ele>
        <time>2018-09-28T09:49:56Z</time>
      </trkpt>
      <trkpt lat="40.760985994711518" lon="14.035030994564295">
        <ele>102.52</ele>
        <time>2018-09-28T09:50:11Z</time>
      </trkpt>
      <trkpt lat="40.761021533980966" lon="14.035065192729235">
        <ele>102.52</ele>
        <time>2018-09-28T09:50:29Z</time>
      </trkpt>
      <trkpt lat="40.761048104614019" lon="14.035064522176981">
        <ele>102.04000000000001</ele>
        <time>2018-09-28T09:50:47Z</time>
      </trkpt>
      <trkpt lat="40.761035783216357" lon="14.03504541143775">
        <ele>102.52</ele>
        <time>2018-09-28T09:51:03Z</time>
      </trkpt>
      <trkpt lat="40.760992532595992" lon="14.034634446725249">
        <ele>104.92</ele>
        <time>2018-09-28T10:11:34Z</time>
      </trkpt>
      <trkpt lat="40.761059336364269" lon="14.034687839448452">
        <ele>103.48</ele>
        <time>2018-09-28T10:11:46Z</time>
      </trkpt>
      <trkpt lat="40.761115243658423" lon="14.034716002643108">
        <ele>103.48</ele>
        <time>2018-09-28T10:12:01Z</time>
      </trkpt>
      <trkpt lat="40.761235523968935" lon="14.03482161462307">
        <ele>103.48</ele>
        <time>2018-09-28T10:12:16Z</time>
      </trkpt>
      <trkpt lat="40.76125530526042" lon="14.034857824444771">
        <ele>103</ele>
        <time>2018-09-28T10:12:31Z</time>
      </trkpt>
      <trkpt lat="40.761261004954576" lon="14.034838546067476">
        <ele>103</ele>
        <time>2018-09-28T10:12:47Z</time>
      </trkpt>
      <trkpt lat="40.761325377970934" lon="14.034835612401366">
        <ele>103</ele>
        <time>2018-09-28T10:12:58Z</time>
      </trkpt>
      <trkpt lat="40.76135354116559" lon="14.034836534410715">
        <ele>103</ele>
        <time>2018-09-28T10:13:09Z</time>
      </trkpt>
      <trkpt lat="40.761319091543555" lon="14.034824799746275">
        <ele>103</ele>
        <time>2018-09-28T10:13:23Z</time>
      </trkpt>
      <trkpt lat="40.761333089321852" lon="14.034750619903207">
        <ele>103</ele>
        <time>2018-09-28T10:13:46Z</time>
      </trkpt>
      <trkpt lat="40.761371729895473" lon="14.034623382613063">
        <ele>103.95999999999999</ele>
        <time>2018-09-28T10:13:58Z</time>
      </trkpt>
      <trkpt lat="40.761374495923519" lon="14.034547191113234">
        <ele>104.92</ele>
        <time>2018-09-28T10:14:08Z</time>
      </trkpt>
      <trkpt lat="40.761366533115506" lon="14.034524392336607">
        <ele>104.92</ele>
        <time>2018-09-28T10:14:11Z</time>
      </trkpt>
      <trkpt lat="40.761319007724524" lon="14.034400843083858">
        <ele>104.44</ele>
        <time>2018-09-28T10:14:23Z</time>
      </trkpt>
      <trkpt lat="40.761270560324192" lon="14.034295147284865">
        <ele>104.44</ele>
        <time>2018-09-28T10:14:34Z</time>
      </trkpt>
      <trkpt lat="40.761242480948567" lon="14.034191966056824">
        <ele>104.44</ele>
        <time>2018-09-28T10:14:46Z</time>
      </trkpt>
      <trkpt lat="40.761233596131206" lon="14.034135052934289">
        <ele>103.95999999999999</ele>
        <time>2018-09-28T10:14:58Z</time>
      </trkpt>
      <trkpt lat="40.761174336075783" lon="14.034030446782708">
        <ele>103.95999999999999</ele>
        <time>2018-09-28T10:15:09Z</time>
      </trkpt>
      <trkpt lat="40.761117339134216" lon="14.033936988562346">
        <ele>103.48</ele>
        <time>2018-09-28T10:15:21Z</time>
      </trkpt>
      <trkpt lat="40.761059504002333" lon="14.033876471221447">
        <ele>103</ele>
        <time>2018-09-28T10:15:32Z</time>
      </trkpt>
      <trkpt lat="40.761032095178962" lon="14.033795334398746">
        <ele>102.52</ele>
        <time>2018-09-28T10:15:44Z</time>
      </trkpt>
      <trkpt lat="40.760917598381639" lon="14.033683352172375">
        <ele>102.04000000000001</ele>
        <time>2018-09-28T10:15:56Z</time>
      </trkpt>
      <trkpt lat="40.760828917846084" lon="14.03364161029458">
        <ele>102.04000000000001</ele>
        <time>2018-09-28T10:16:08Z</time>
      </trkpt>
      <trkpt lat="40.760774938389659" lon="14.033625768497586">
        <ele>102.04000000000001</ele>
        <time>2018-09-28T10:16:18Z</time>
      </trkpt>
      <trkpt lat="40.76077594421804" lon="14.03359861113131">
        <ele>101.56</ele>
        <time>2018-09-28T10:16:38Z</time>
      </trkpt>
      <trkpt lat="40.760720036923885" lon="14.03360640630126">
        <ele>101.56</ele>
        <time>2018-09-28T10:16:56Z</time>
      </trkpt>
      <trkpt lat="40.760726407170296" lon="14.033598024398088">
        <ele>101.56</ele>
        <time>2018-09-28T10:17:10Z</time>
      </trkpt>
      <trkpt lat="40.760728418827057" lon="14.033587714657187">
        <ele>101.56</ele>
        <time>2018-09-28T10:17:29Z</time>
      </trkpt>
      <trkpt lat="40.760737052187324" lon="14.033590229228139">
        <ele>101.56</ele>
        <time>2018-09-28T10:17:48Z</time>
      </trkpt>
      <trkpt lat="40.760719114914536" lon="14.033590732142329">
        <ele>101.56</ele>
        <time>2018-09-28T10:18:08Z</time>
      </trkpt>
      <trkpt lat="40.760717187076807" lon="14.03359760530293">
        <ele>101.56</ele>
        <time>2018-09-28T10:18:25Z</time>
      </trkpt>
      <trkpt lat="40.760732777416706" lon="14.033602466806769">
        <ele>101.08</ele>
        <time>2018-09-28T10:18:44Z</time>
      </trkpt>
      <trkpt lat="40.760758090764284" lon="14.033621912822127">
        <ele>101.56</ele>
        <time>2018-09-28T10:18:58Z</time>
      </trkpt>
      <trkpt lat="40.760821374133229" lon="14.033619146794081">
        <ele>101.56</ele>
        <time>2018-09-28T10:19:09Z</time>
      </trkpt>
      <trkpt lat="40.760827241465449" lon="14.0336147043854">
        <ele>101.56</ele>
        <time>2018-09-28T10:19:18Z</time>
      </trkpt>
      <trkpt lat="40.760857500135899" lon="14.033613698557019">
        <ele>101.56</ele>
        <time>2018-09-28T10:19:34Z</time>
      </trkpt>
      <trkpt lat="40.760857248678803" lon="14.033596348017454">
        <ele>101.56</ele>
        <time>2018-09-28T10:19:47Z</time>
      </trkpt>
      <trkpt lat="40.76084828004241" lon="14.033575477078557">
        <ele>100.59999999999999</ele>
        <time>2018-09-28T10:19:58Z</time>
      </trkpt>
      <trkpt lat="40.760788936167955" lon="14.033552343025804">
        <ele>97.709999999999994</ele>
        <time>2018-09-28T10:20:12Z</time>
      </trkpt>
      <trkpt lat="40.760761108249426" lon="14.033516887575388">
        <ele>96.269999999999996</ele>
        <time>2018-09-28T10:20:23Z</time>
      </trkpt>
      <trkpt lat="40.760774603113532" lon="14.033471457660198">
        <ele>95.790000000000006</ele>
        <time>2018-09-28T10:20:32Z</time>
      </trkpt>
      <trkpt lat="40.760826906189322" lon="14.03347103856504">
        <ele>92.900000000000006</ele>
        <time>2018-09-28T10:20:42Z</time>
      </trkpt>
      <trkpt lat="40.760875353589654" lon="14.033448658883572">
        <ele>90.980000000000004</ele>
        <time>2018-09-28T10:20:54Z</time>
      </trkpt>
      <trkpt lat="40.760882226750255" lon="14.03343977406621">
        <ele>90.5</ele>
        <time>2018-09-28T10:21:04Z</time>
      </trkpt>
      <trkpt lat="40.760876275599003" lon="14.033443294465542">
        <ele>90.5</ele>
        <time>2018-09-28T10:21:16Z</time>
      </trkpt>
      <trkpt lat="40.760840568691492" lon="14.033420830965042">
        <ele>89.540000000000006</ele>
        <time>2018-09-28T10:21:30Z</time>
      </trkpt>
      <trkpt lat="40.760799329727888" lon="14.033381184563041">
        <ele>87.620000000000005</ele>
        <time>2018-09-28T10:21:42Z</time>
      </trkpt>
      <trkpt lat="40.760757084935904" lon="14.033328546211123">
        <ele>86.180000000000007</ele>
        <time>2018-09-28T10:21:53Z</time>
      </trkpt>
      <trkpt lat="40.760751217603683" lon="14.033260820433497">
        <ele>83.769999999999996</ele>
        <time>2018-09-28T10:22:05Z</time>
      </trkpt>
      <trkpt lat="40.760710649192333" lon="14.033242966979742">
        <ele>82.329999999999998</ele>
        <time>2018-09-28T10:22:18Z</time>
      </trkpt>
      <trkpt lat="40.76066848821938" lon="14.033219497650862">
        <ele>81.849999999999994</ele>
        <time>2018-09-28T10:22:29Z</time>
      </trkpt>
      <trkpt lat="40.760659519582987" lon="14.033208517357707">
        <ele>81.370000000000005</ele>
        <time>2018-09-28T10:22:31Z</time>
      </trkpt>
      <trkpt lat="40.760475704446435" lon="14.032805934548378">
        <ele>78.969999999999999</ele>
        <time>2018-09-28T10:23:09Z</time>
      </trkpt>
      <trkpt lat="40.76050965115428" lon="14.032865781337023">
        <ele>78.480000000000004</ele>
        <time>2018-09-28T10:23:19Z</time>
      </trkpt>
      <trkpt lat="40.760485427454114" lon="14.032816244289279">
        <ele>78.480000000000004</ele>
        <time>2018-09-28T10:23:24Z</time>
      </trkpt>
      <trkpt lat="40.760490791872144" lon="14.032720774412155">
        <ele>77.519999999999996</ele>
        <time>2018-09-28T10:23:34Z</time>
      </trkpt>
      <trkpt lat="40.760472686961293" lon="14.032662771642208">
        <ele>77.040000000000006</ele>
        <time>2018-09-28T10:23:44Z</time>
      </trkpt>
      <trkpt lat="40.76050772331655" lon="14.032609211280942">
        <ele>76.560000000000002</ele>
        <time>2018-09-28T10:23:54Z</time>
      </trkpt>
      <trkpt lat="40.760492719709873" lon="14.032568307593465">
        <ele>77.040000000000006</ele>
        <time>2018-09-28T10:24:04Z</time>
      </trkpt>
      <trkpt lat="40.760535215958953" lon="14.032530672848225">
        <ele>77.040000000000006</ele>
        <time>2018-09-28T10:24:15Z</time>
      </trkpt>
      <trkpt lat="40.76053655706346" lon="14.032552717253566">
        <ele>77.040000000000006</ele>
        <time>2018-09-28T10:24:29Z</time>
      </trkpt>
      <trkpt lat="40.76050428673625" lon="14.032547771930695">
        <ele>77.519999999999996</ele>
        <time>2018-09-28T10:24:45Z</time>
      </trkpt>
      <trkpt lat="40.760497581213713" lon="14.032567720860243">
        <ele>77.519999999999996</ele>
        <time>2018-09-28T10:25:01Z</time>
      </trkpt>
      <trkpt lat="40.760486014187336" lon="14.032606445252895">
        <ele>77.040000000000006</ele>
        <time>2018-09-28T10:25:09Z</time>
      </trkpt>
      <trkpt lat="40.760476794093847" lon="14.032662017270923">
        <ele>77.519999999999996</ele>
        <time>2018-09-28T10:25:20Z</time>
      </trkpt>
      <trkpt lat="40.760480230674148" lon="14.03263452462852">
        <ele>77.040000000000006</ele>
        <time>2018-09-28T10:25:33Z</time>
      </trkpt>
      <trkpt lat="40.76051602140069" lon="14.032607031986117">
        <ele>76.560000000000002</ele>
        <time>2018-09-28T10:25:43Z</time>
      </trkpt>
      <trkpt lat="40.760524654760957" lon="14.032585993409157">
        <ele>76.560000000000002</ele>
        <time>2018-09-28T10:25:52Z</time>
      </trkpt>
      <trkpt lat="40.760527085512877" lon="14.03261742554605">
        <ele>76.560000000000002</ele>
        <time>2018-09-28T10:26:12Z</time>
      </trkpt>
      <trkpt lat="40.760498251765966" lon="14.032572163268924">
        <ele>76.560000000000002</ele>
        <time>2018-09-28T10:26:23Z</time>
      </trkpt>
      <trkpt lat="40.760515183210373" lon="14.032539473846555">
        <ele>76.560000000000002</ele>
        <time>2018-09-28T10:26:32Z</time>
      </trkpt>
      <trkpt lat="40.760513171553612" lon="14.032518770545721">
        <ele>76.560000000000002</ele>
        <time>2018-09-28T10:26:45Z</time>
      </trkpt>
      <trkpt lat="40.760524151846766" lon="14.032521620392799">
        <ele>76.560000000000002</ele>
        <time>2018-09-28T10:27:16Z</time>
      </trkpt>
      <trkpt lat="40.760535132139921" lon="14.032521368935704">
        <ele>77.040000000000006</ele>
        <time>2018-09-28T10:27:41Z</time>
      </trkpt>
      <trkpt lat="40.760528258979321" lon="14.032517848536372">
        <ele>76.560000000000002</ele>
        <time>2018-09-28T10:27:55Z</time>
      </trkpt>
      <trkpt lat="40.760518116876483" lon="14.032517177984118">
        <ele>76.560000000000002</ele>
        <time>2018-09-28T10:28:17Z</time>
      </trkpt>
      <trkpt lat="40.760527672246099" lon="14.032512232661247">
        <ele>76.560000000000002</ele>
        <time>2018-09-28T10:28:48Z</time>
      </trkpt>
      <trkpt lat="40.760508980602026" lon="14.032541317865252">
        <ele>76.560000000000002</ele>
        <time>2018-09-28T10:29:02Z</time>
      </trkpt>
      <trkpt lat="40.760509818792343" lon="14.032552465796471">
        <ele>76.560000000000002</ele>
        <time>2018-09-28T10:29:14Z</time>
      </trkpt>
      <trkpt lat="40.760505795478821" lon="14.032554142177105">
        <ele>76.560000000000002</ele>
        <time>2018-09-28T10:29:32Z</time>
      </trkpt>
      <trkpt lat="40.760509734973311" lon="14.032557411119342">
        <ele>76.560000000000002</ele>
        <time>2018-09-28T10:29:59Z</time>
      </trkpt>
      <trkpt lat="40.760512249544263" lon="14.032576521858573">
        <ele>76.560000000000002</ele>
        <time>2018-09-28T10:30:25Z</time>
      </trkpt>
      <trkpt lat="40.760507890954614" lon="14.032563446089625">
        <ele>76.560000000000002</ele>
        <time>2018-09-28T10:30:53Z</time>
      </trkpt>
      <trkpt lat="40.760520631447434" lon="14.03257442638278">
        <ele>77.040000000000006</ele>
        <time>2018-09-28T10:31:07Z</time>
      </trkpt>
      <trkpt lat="40.760517027229071" lon="14.032567050307989">
        <ele>76.560000000000002</ele>
        <time>2018-09-28T10:31:18Z</time>
      </trkpt>
      <trkpt lat="40.760420467704535" lon="14.032545676454902">
        <ele>76.560000000000002</ele>
        <time>2018-09-28T10:31:29Z</time>
      </trkpt>
      <trkpt lat="40.760471848770976" lon="14.032571911811829">
        <ele>77.040000000000006</ele>
        <time>2018-09-28T10:31:40Z</time>
      </trkpt>
      <trkpt lat="40.760511830449104" lon="14.032588507980108">
        <ele>76.560000000000002</ele>
        <time>2018-09-28T10:31:50Z</time>
      </trkpt>
      <trkpt lat="40.760586177930236" lon="14.032566295936704">
        <ele>76.079999999999998</ele>
        <time>2018-09-28T10:32:01Z</time>
      </trkpt>
      <trkpt lat="40.760607467964292" lon="14.032529750838876">
        <ele>76.079999999999998</ele>
        <time>2018-09-28T10:32:06Z</time>
      </trkpt>
      <trkpt lat="40.760701093822718" lon="14.032496642321348">
        <ele>75.120000000000005</ele>
        <time>2018-09-28T10:32:19Z</time>
      </trkpt>
      <trkpt lat="40.760786170139909" lon="14.032468730583787">
        <ele>74.640000000000001</ele>
        <time>2018-09-28T10:32:31Z</time>
      </trkpt>
      <trkpt lat="40.760872587561607" lon="14.03243419714272">
        <ele>73.680000000000007</ele>
        <time>2018-09-28T10:32:43Z</time>
      </trkpt>
      <trkpt lat="40.760962776839733" lon="14.03240586631">
        <ele>73.200000000000003</ele>
        <time>2018-09-28T10:32:55Z</time>
      </trkpt>
      <trkpt lat="40.761064700782299" lon="14.032371500506997">
        <ele>71.760000000000005</ele>
        <time>2018-09-28T10:33:09Z</time>
      </trkpt>
      <trkpt lat="40.761142065748572" lon="14.032352054491639">
        <ele>70.310000000000002</ele>
        <time>2018-09-28T10:33:20Z</time>
      </trkpt>
      <trkpt lat="40.761228231713176" lon="14.032309390604496">
        <ele>69.349999999999994</ele>
        <time>2018-09-28T10:33:32Z</time>
      </trkpt>
      <trkpt lat="40.761312888935208" lon="14.032291118055582">
        <ele>67.909999999999997</ele>
        <time>2018-09-28T10:33:44Z</time>
      </trkpt>
      <trkpt lat="40.761397881433368" lon="14.032282819971442">
        <ele>66.469999999999999</ele>
        <time>2018-09-28T10:33:55Z</time>
      </trkpt>
      <trkpt lat="40.761466948315501" lon="14.03228466399014">
        <ele>65.989999999999995</ele>
        <time>2018-09-28T10:34:04Z</time>
      </trkpt>
      <trkpt lat="40.761544816195965" lon="14.032257506623864">
        <ele>64.549999999999997</ele>
        <time>2018-09-28T10:34:15Z</time>
      </trkpt>
      <trkpt lat="40.761582786217332" lon="14.032237054780126">
        <ele>64.069999999999993</ele>
        <time>2018-09-28T10:34:28Z</time>
      </trkpt>
      <trkpt lat="40.761702144518495" lon="14.032208388671279">
        <ele>62.619999999999997</ele>
        <time>2018-09-28T10:34:42Z</time>
      </trkpt>
      <trkpt lat="40.761821670457721" lon="14.032111326232553">
        <ele>60.219999999999999</ele>
        <time>2018-09-28T10:34:57Z</time>
      </trkpt>
      <trkpt lat="40.761779509484768" lon="14.032097747549415">
        <ele>59.740000000000002</ele>
        <time>2018-09-28T10:35:12Z</time>
      </trkpt>
      <trkpt lat="40.761763416230679" lon="14.032074194401503">
        <ele>59.740000000000002</ele>
        <time>2018-09-28T10:35:32Z</time>
      </trkpt>
      <trkpt lat="40.761750927194953" lon="14.032087773084641">
        <ele>59.740000000000002</ele>
        <time>2018-09-28T10:35:49Z</time>
      </trkpt>
      <trkpt lat="40.761747993528843" lon="14.032073356211185">
        <ele>59.740000000000002</ele>
        <time>2018-09-28T10:36:06Z</time>
      </trkpt>
      <trkpt lat="40.76174640096724" lon="14.032065309584141">
        <ele>59.740000000000002</ele>
        <time>2018-09-28T10:36:25Z</time>
      </trkpt>
      <trkpt lat="40.761729720979929" lon="14.03203446418047">
        <ele>59.740000000000002</ele>
        <time>2018-09-28T10:36:37Z</time>
      </trkpt>
      <trkpt lat="40.761716980487108" lon="14.032010827213526">
        <ele>59.740000000000002</ele>
        <time>2018-09-28T10:36:48Z</time>
      </trkpt>
      <trkpt lat="40.761708850041032" lon="14.032004121690989">
        <ele>59.259999999999998</ele>
        <time>2018-09-28T10:36:59Z</time>
      </trkpt>
      <trkpt lat="40.76170633547008" lon="14.031998757272959">
        <ele>58.780000000000001</ele>
        <time>2018-09-28T10:37:12Z</time>
      </trkpt>
      <trkpt lat="40.761682782322168" lon="14.031981825828552">
        <ele>57.82</ele>
        <time>2018-09-28T10:37:23Z</time>
      </trkpt>
      <trkpt lat="40.761675238609314" lon="14.031950980424881">
        <ele>57.340000000000003</ele>
        <time>2018-09-28T10:37:33Z</time>
      </trkpt>
      <trkpt lat="40.761652272194624" lon="14.031953830271959">
        <ele>56.859999999999999</ele>
        <time>2018-09-28T10:37:44Z</time>
      </trkpt>
      <trkpt lat="40.761625869199634" lon="14.032025495544076">
        <ele>53.969999999999999</ele>
        <time>2018-09-28T10:37:57Z</time>
      </trkpt>
      <trkpt lat="40.761629557237029" lon="14.032022058963776">
        <ele>53.009999999999998</ele>
        <time>2018-09-28T10:38:08Z</time>
      </trkpt>
      <trkpt lat="40.761603154242039" lon="14.032019712030888">
        <ele>52.049999999999997</ele>
        <time>2018-09-28T10:38:19Z</time>
      </trkpt>
      <trkpt lat="40.761587982997298" lon="14.032021388411522">
        <ele>50.609999999999999</ele>
        <time>2018-09-28T10:38:39Z</time>
      </trkpt>
      <trkpt lat="40.761581277474761" lon="14.032021053135395">
        <ele>50.130000000000003</ele>
        <time>2018-09-28T10:38:53Z</time>
      </trkpt>
      <trkpt lat="40.761574823409319" lon="14.031998170539737">
        <ele>49.649999999999999</ele>
        <time>2018-09-28T10:39:14Z</time>
      </trkpt>
      <trkpt lat="40.761583372950554" lon="14.032012084499002">
        <ele>49.649999999999999</ele>
        <time>2018-09-28T10:39:34Z</time>
      </trkpt>
      <trkpt lat="40.761579265818" lon="14.031960032880306">
        <ele>48.68</ele>
        <time>2018-09-28T10:39:43Z</time>
      </trkpt>
      <trkpt lat="40.761582786217332" lon="14.031920889392495">
        <ele>47.240000000000002</ele>
        <time>2018-09-28T10:39:54Z</time>
      </trkpt>
      <trkpt lat="40.761589743196964" lon="14.031894821673632">
        <ele>46.759999999999998</ele>
        <time>2018-09-28T10:40:06Z</time>
      </trkpt>
      <trkpt lat="40.761619666591287" lon="14.031824078410864">
        <ele>43.399999999999999</ele>
        <time>2018-09-28T10:40:15Z</time>
      </trkpt>
      <trkpt lat="40.761628719046712" lon="14.031808320432901">
        <ele>41.950000000000003</ele>
        <time>2018-09-28T10:40:26Z</time>
      </trkpt>
      <trkpt lat="40.761637855321169" lon="14.03177990578115">
        <ele>40.509999999999998</ele>
        <time>2018-09-28T10:40:38Z</time>
      </trkpt>
      <trkpt lat="40.761650763452053" lon="14.031781414523721">
        <ele>39.549999999999997</ele>
        <time>2018-09-28T10:40:49Z</time>
      </trkpt>
      <trkpt lat="40.761655373498797" lon="14.031750904396176">
        <ele>39.07</ele>
        <time>2018-09-28T10:41:01Z</time>
      </trkpt>
      <trkpt lat="40.761673310771585" lon="14.031745875254273">
        <ele>37.630000000000003</ele>
        <time>2018-09-28T10:41:12Z</time>
      </trkpt>
      <trkpt lat="40.761672221124172" lon="14.031748725101352">
        <ele>37.630000000000003</ele>
        <time>2018-09-28T10:41:28Z</time>
      </trkpt>
      <trkpt lat="40.761676328256726" lon="14.031774792820215">
        <ele>36.670000000000002</ele>
        <time>2018-09-28T10:41:46Z</time>
      </trkpt>
      <trkpt lat="40.761673646047711" lon="14.031769428402185">
        <ele>33.780000000000001</ele>
        <time>2018-09-28T10:41:50Z</time>
      </trkpt>
      <trkpt lat="40.761555293574929" lon="14.031659541651607">
        <ele>30.899999999999999</ele>
        <time>2018-09-28T10:42:25Z</time>
      </trkpt>
      <trkpt lat="40.761534254997969" lon="14.03163087554276">
        <ele>28.02</ele>
        <time>2018-09-28T10:42:39Z</time>
      </trkpt>
      <trkpt lat="40.76156266964972" lon="14.031649567186832">
        <ele>28.02</ele>
        <time>2018-09-28T10:42:52Z</time>
      </trkpt>
      <trkpt lat="40.761527800932527" lon="14.031632971018553">
        <ele>27.530000000000001</ele>
        <time>2018-09-28T10:43:07Z</time>
      </trkpt>
      <trkpt lat="40.761518329381943" lon="14.031602377071977">
        <ele>27.530000000000001</ele>
        <time>2018-09-28T10:43:26Z</time>
      </trkpt>
      <trkpt lat="40.761551354080439" lon="14.031527610495687">
        <ele>24.170000000000002</ele>
        <time>2018-09-28T10:43:36Z</time>
      </trkpt>
      <trkpt lat="40.761587899178267" lon="14.031494334340096">
        <ele>20.809999999999999</ele>
        <time>2018-09-28T10:43:46Z</time>
      </trkpt>
      <trkpt lat="40.761586390435696" lon="14.031495759263635">
        <ele>20.809999999999999</ele>
        <time>2018-09-28T10:43:59Z</time>
      </trkpt>
      <trkpt lat="40.76161346398294" lon="14.031445384025574">
        <ele>20.32</ele>
        <time>2018-09-28T10:44:15Z</time>
      </trkpt>
      <trkpt lat="40.761603740975261" lon="14.031469943001866">
        <ele>20.32</ele>
        <time>2018-09-28T10:44:29Z</time>
      </trkpt>
      <trkpt lat="40.761606507003307" lon="14.03146717697382">
        <ele>20.32</ele>
        <time>2018-09-28T10:44:43Z</time>
      </trkpt>
      <trkpt lat="40.761646823957562" lon="14.031391991302371">
        <ele>19.359999999999999</ele>
        <time>2018-09-28T10:44:53Z</time>
      </trkpt>
      <trkpt lat="40.761654283851385" lon="14.031307082623243">
        <ele>18.879999999999999</ele>
        <time>2018-09-28T10:45:03Z</time>
      </trkpt>
      <trkpt lat="40.761651517823339" lon="14.031254528090358">
        <ele>18.399999999999999</ele>
        <time>2018-09-28T10:45:08Z</time>
      </trkpt>
      <trkpt lat="40.761650763452053" lon="14.031185461208224">
        <ele>17.920000000000002</ele>
        <time>2018-09-28T10:45:14Z</time>
      </trkpt>
      <trkpt lat="40.761652188375592" lon="14.030990079045296">
        <ele>16.48</ele>
        <time>2018-09-28T10:45:29Z</time>
      </trkpt>
      <trkpt lat="40.76167113147676" lon="14.030838031321764">
        <ele>16</ele>
        <time>2018-09-28T10:45:41Z</time>
      </trkpt>
      <trkpt lat="40.761672724038363" lon="14.03079042211175">
        <ele>16</ele>
        <time>2018-09-28T10:45:45Z</time>
      </trkpt>
      <trkpt lat="40.761676831170917" lon="14.030643068253994">
        <ele>15.52</ele>
        <time>2018-09-28T10:45:57Z</time>
      </trkpt>
      <trkpt lat="40.761679764837027" lon="14.030503090471029">
        <ele>15.52</ele>
        <time>2018-09-28T10:46:10Z</time>
      </trkpt>
      <trkpt lat="40.761667862534523" lon="14.030400412157178">
        <ele>15.52</ele>
        <time>2018-09-28T10:46:22Z</time>
      </trkpt>
      <trkpt lat="40.761697953566909" lon="14.030283987522125">
        <ele>15.52</ele>
        <time>2018-09-28T10:46:34Z</time>
      </trkpt>
      <trkpt lat="40.761684877797961" lon="14.030233109369874">
        <ele>16</ele>
        <time>2018-09-28T10:46:39Z</time>
      </trkpt>
      <trkpt lat="40.761641878634691" lon="14.030143087729812">
        <ele>15.52</ele>
        <time>2018-09-28T10:46:50Z</time>
      </trkpt>
      <trkpt lat="40.761651853099465" lon="14.030039068311453">
        <ele>16</ele>
        <time>2018-09-28T10:46:59Z</time>
      </trkpt>
      <trkpt lat="40.761673478409648" lon="14.029971258714795">
        <ele>16</ele>
        <time>2018-09-28T10:47:05Z</time>
      </trkpt>
      <trkpt lat="40.761683117598295" lon="14.029838992282748">
        <ele>16</ele>
        <time>2018-09-28T10:47:17Z</time>
      </trkpt>
      <trkpt lat="40.761679597198963" lon="14.029794484376907">
        <ele>16</ele>
        <time>2018-09-28T10:47:20Z</time>
      </trkpt>
      <trkpt lat="40.761624276638031" lon="14.029644699767232">
        <ele>15.52</ele>
        <time>2018-09-28T10:47:33Z</time>
      </trkpt>
      <trkpt lat="40.761612877249718" lon="14.029542105272412">
        <ele>16</ele>
        <time>2018-09-28T10:47:42Z</time>
      </trkpt>
      <trkpt lat="40.761599633842707" lon="14.029350243508816">
        <ele>16</ele>
        <time>2018-09-28T10:47:57Z</time>
      </trkpt>
      <trkpt lat="40.761578092351556" lon="14.02921948581934">
        <ele>15.52</ele>
        <time>2018-09-28T10:48:09Z</time>
      </trkpt>
      <trkpt lat="40.761585468426347" lon="14.029121585190296">
        <ele>15.52</ele>
        <time>2018-09-28T10:48:20Z</time>
      </trkpt>
      <trkpt lat="40.761591754853725" lon="14.029082441702485">
        <ele>15.52</ele>
        <time>2018-09-28T10:48:31Z</time>
      </trkpt>
      <trkpt lat="40.761593179777265" lon="14.029069701209664">
        <ele>15.52</ele>
        <time>2018-09-28T10:48:33Z</time>
      </trkpt>
      <trkpt lat="40.761581612750888" lon="14.028980014845729">
        <ele>16</ele>
        <time>2018-09-28T10:48:46Z</time>
      </trkpt>
      <trkpt lat="40.761569878086448" lon="14.028896447271109">
        <ele>16</ele>
        <time>2018-09-28T10:49:00Z</time>
      </trkpt>
      <trkpt lat="40.761532578617334" lon="14.028774909675121">
        <ele>15.52</ele>
        <time>2018-09-28T10:49:13Z</time>
      </trkpt>
      <trkpt lat="40.761511707678437" lon="14.028758145868778">
        <ele>15.52</ele>
        <time>2018-09-28T10:49:21Z</time>
      </trkpt>
      <trkpt lat="40.76151916757226" lon="14.028763091191649">
        <ele>15.52</ele>
        <time>2018-09-28T10:49:36Z</time>
      </trkpt>
      <trkpt lat="40.761510534211993" lon="14.028747752308846">
        <ele>15.52</ele>
        <time>2018-09-28T10:49:50Z</time>
      </trkpt>
      <trkpt lat="40.761508606374264" lon="14.028732664883137">
        <ele>15.52</ele>
        <time>2018-09-28T10:50:08Z</time>
      </trkpt>
      <trkpt lat="40.761501733213663" lon="14.028741884976625">
        <ele>15.52</ele>
        <time>2018-09-28T10:50:29Z</time>
      </trkpt>
      <trkpt lat="40.761506929993629" lon="14.02873819693923">
        <ele>15.52</ele>
        <time>2018-09-28T10:50:46Z</time>
      </trkpt>
      <trkpt lat="40.761503409594297" lon="14.028657479211688">
        <ele>15.52</ele>
        <time>2018-09-28T10:50:58Z</time>
      </trkpt>
      <trkpt lat="40.761482119560242" lon="14.028595788404346">
        <ele>15.52</ele>
        <time>2018-09-28T10:51:10Z</time>
      </trkpt>
      <trkpt lat="40.761458650231361" lon="14.028472909703851">
        <ele>15.52</ele>
        <time>2018-09-28T10:51:24Z</time>
      </trkpt>
      <trkpt lat="40.761463344097137" lon="14.028413062915206">
        <ele>15.52</ele>
        <time>2018-09-28T10:51:34Z</time>
      </trkpt>
      <trkpt lat="40.761447083204985" lon="14.028360927477479">
        <ele>15.52</ele>
        <time>2018-09-28T10:51:45Z</time>
      </trkpt>
      <trkpt lat="40.761409532278776" lon="14.028263613581657">
        <ele>15.52</ele>
        <time>2018-09-28T10:51:56Z</time>
      </trkpt>
      <trkpt lat="40.761369047686458" lon="14.028149703517556">
        <ele>15.52</ele>
        <time>2018-09-28T10:52:08Z</time>
      </trkpt>
      <trkpt lat="40.761321103200316" lon="14.028019281104207">
        <ele>15.52</ele>
        <time>2018-09-28T10:52:21Z</time>
      </trkpt>
      <trkpt lat="40.761278020218015" lon="14.02793244458735">
        <ele>15.039999999999999</ele>
        <time>2018-09-28T10:52:31Z</time>
      </trkpt>
      <trkpt lat="40.761243654415011" lon="14.027893217280507">
        <ele>15.039999999999999</ele>
        <time>2018-09-28T10:52:42Z</time>
      </trkpt>
      <trkpt lat="40.76124751009047" lon="14.027865054085851">
        <ele>15.039999999999999</ele>
        <time>2018-09-28T10:52:56Z</time>
      </trkpt>
      <trkpt lat="40.761237954720855" lon="14.027850301936269">
        <ele>15.039999999999999</ele>
        <time>2018-09-28T10:53:13Z</time>
      </trkpt>
      <trkpt lat="40.761208198964596" lon="14.027781067416072">
        <ele>15.039999999999999</ele>
        <time>2018-09-28T10:53:26Z</time>
      </trkpt>
      <trkpt lat="40.76116930693388" lon="14.0276915486902">
        <ele>15.039999999999999</ele>
        <time>2018-09-28T10:53:36Z</time>
      </trkpt>
      <trkpt lat="40.761179700493813" lon="14.027594989165664">
        <ele>15.52</ele>
        <time>2018-09-28T10:53:48Z</time>
      </trkpt>
      <trkpt lat="40.761185651645064" lon="14.027567831799388">
        <ele>15.039999999999999</ele>
        <time>2018-09-28T10:53:58Z</time>
      </trkpt>
      <trkpt lat="40.761200236156583" lon="14.02755375020206">
        <ele>15.039999999999999</ele>
        <time>2018-09-28T10:54:07Z</time>
      </trkpt>
      <trkpt lat="40.761218089610338" lon="14.027578392997384">
        <ele>15.039999999999999</ele>
        <time>2018-09-28T10:54:23Z</time>
      </trkpt>
      <trkpt lat="40.761229740455747" lon="14.027557941153646">
        <ele>15.039999999999999</ele>
        <time>2018-09-28T10:54:43Z</time>
      </trkpt>
      <trkpt lat="40.761217419058084" lon="14.027550565078855">
        <ele>15.039999999999999</ele>
        <time>2018-09-28T10:54:55Z</time>
      </trkpt>
      <trkpt lat="40.761195458471775" lon="14.02753665111959">
        <ele>15.039999999999999</ele>
        <time>2018-09-28T10:55:13Z</time>
      </trkpt>
      <trkpt lat="40.761185819283128" lon="14.02752298861742">
        <ele>16</ele>
        <time>2018-09-28T10:55:24Z</time>
      </trkpt>
      <trkpt lat="40.761182550340891" lon="14.027487030252814">
        <ele>17.920000000000002</ele>
        <time>2018-09-28T10:55:37Z</time>
      </trkpt>
      <trkpt lat="40.761174419894814" lon="14.027445120736957">
        <ele>19.359999999999999</ele>
        <time>2018-09-28T10:55:48Z</time>
      </trkpt>
      <trkpt lat="40.761149022728205" lon="14.027415616437793">
        <ele>20.809999999999999</ele>
        <time>2018-09-28T10:56:01Z</time>
      </trkpt>
      <trkpt lat="40.761158494278789" lon="14.027373287826777">
        <ele>21.289999999999999</ele>
        <time>2018-09-28T10:56:17Z</time>
      </trkpt>
      <trkpt lat="40.761188250035048" lon="14.027384519577026">
        <ele>22.73</ele>
        <time>2018-09-28T10:56:29Z</time>
      </trkpt>
      <trkpt lat="40.761226806789637" lon="14.027380496263504">
        <ele>24.649999999999999</ele>
        <time>2018-09-28T10:56:44Z</time>
      </trkpt>
      <trkpt lat="40.761239798739552" lon="14.027368929237127">
        <ele>25.609999999999999</ele>
        <time>2018-09-28T10:56:57Z</time>
      </trkpt>
      <trkpt lat="40.761255389079452" lon="14.02735099196434">
        <ele>26.57</ele>
        <time>2018-09-28T10:57:08Z</time>
      </trkpt>
      <trkpt lat="40.761268548667431" lon="14.027331545948982">
        <ele>27.530000000000001</ele>
        <time>2018-09-28T10:57:29Z</time>
      </trkpt>
      <trkpt lat="40.761313308030367" lon="14.027336072176695">
        <ele>29.940000000000001</ele>
        <time>2018-09-28T10:57:43Z</time>
      </trkpt>
      <trkpt lat="40.761350020766258" lon="14.027355685830116">
        <ele>30.899999999999999</ele>
        <time>2018-09-28T10:57:57Z</time>
      </trkpt>
      <trkpt lat="40.761390840634704" lon="14.027389129623771">
        <ele>31.859999999999999</ele>
        <time>2018-09-28T10:58:06Z</time>
      </trkpt>
      <trkpt lat="40.761441383510828" lon="14.027412682771683">
        <ele>34.740000000000002</ele>
        <time>2018-09-28T10:58:19Z</time>
      </trkpt>
      <trkpt lat="40.761408777907491" lon="14.027309166267514">
        <ele>36.670000000000002</ele>
        <time>2018-09-28T10:58:30Z</time>
      </trkpt>
      <trkpt lat="40.761399390175939" lon="14.027217719703913">
        <ele>38.109999999999999</ele>
        <time>2018-09-28T10:58:39Z</time>
      </trkpt>
      <trkpt lat="40.761421183124185" lon="14.027213612571359">
        <ele>38.590000000000003</ele>
        <time>2018-09-28T10:58:41Z</time>
      </trkpt>
      <trkpt lat="40.761500811204314" lon="14.027320817112923">
        <ele>38.590000000000003</ele>
        <time>2018-09-28T10:58:51Z</time>
      </trkpt>
      <trkpt lat="40.761582786217332" lon="14.02748292312026">
        <ele>38.590000000000003</ele>
        <time>2018-09-28T10:59:06Z</time>
      </trkpt>
      <trkpt lat="40.761550683528185" lon="14.027541596442461">
        <ele>37.630000000000003</ele>
        <time>2018-09-28T10:59:15Z</time>
      </trkpt>
      <trkpt lat="40.761575158685446" lon="14.027531035244465">
        <ele>37.630000000000003</ele>
        <time>2018-09-28T10:59:31Z</time>
      </trkpt>
      <trkpt lat="40.76157096773386" lon="14.027528436854482">
        <ele>37.630000000000003</ele>
        <time>2018-09-28T10:59:50Z</time>
      </trkpt>
      <trkpt lat="40.761538781225681" lon="14.027532041072845">
        <ele>38.109999999999999</ele>
        <time>2018-09-28T10:59:59Z</time>
      </trkpt>
      <trkpt lat="40.761543978005648" lon="14.027521060779691">
        <ele>38.109999999999999</ele>
        <time>2018-09-28T11:00:13Z</time>
      </trkpt>
      <trkpt lat="40.761564513668418" lon="14.027539752423763">
        <ele>38.590000000000003</ele>
        <time>2018-09-28T11:00:24Z</time>
      </trkpt>
      <trkpt lat="40.761619918048382" lon="14.027625666931272">
        <ele>38.109999999999999</ele>
        <time>2018-09-28T11:00:35Z</time>
      </trkpt>
      <trkpt lat="40.761655624955893" lon="14.027673276141286">
        <ele>37.630000000000003</ele>
        <time>2018-09-28T11:00:45Z</time>
      </trkpt>
      <trkpt lat="40.761638274416327" lon="14.027660870924592">
        <ele>37.630000000000003</ele>
        <time>2018-09-28T11:00:59Z</time>
      </trkpt>
      <trkpt lat="40.761633412912488" lon="14.02764905244112">
        <ele>37.630000000000003</ele>
        <time>2018-09-28T11:01:11Z</time>
      </trkpt>
      <trkpt lat="40.761640118435025" lon="14.027636311948299">
        <ele>37.630000000000003</ele>
        <time>2018-09-28T11:01:24Z</time>
      </trkpt>
      <trkpt lat="40.761634334921837" lon="14.027635976672173">
        <ele>37.630000000000003</ele>
        <time>2018-09-28T11:01:38Z</time>
      </trkpt>
      <trkpt lat="40.761636849492788" lon="14.027643436565995">
        <ele>37.630000000000003</ele>
        <time>2018-09-28T11:01:48Z</time>
      </trkpt>
      <trkpt lat="40.761640788987279" lon="14.027641257271171">
        <ele>38.109999999999999</ele>
        <time>2018-09-28T11:02:01Z</time>
      </trkpt>
      <trkpt lat="40.761638442054391" lon="14.027609741315246">
        <ele>37.630000000000003</ele>
        <time>2018-09-28T11:02:19Z</time>
      </trkpt>
      <trkpt lat="40.761644309386611" lon="14.02764905244112">
        <ele>38.109999999999999</ele>
        <time>2018-09-28T11:02:31Z</time>
      </trkpt>
      <trkpt lat="40.761635005474091" lon="14.027645867317915">
        <ele>37.630000000000003</ele>
        <time>2018-09-28T11:02:48Z</time>
      </trkpt>
      <trkpt lat="40.761629724875093" lon="14.02764804661274">
        <ele>37.630000000000003</ele>
        <time>2018-09-28T11:03:01Z</time>
      </trkpt>
      <trkpt lat="40.761630814522505" lon="14.027635138481855">
        <ele>38.109999999999999</ele>
        <time>2018-09-28T11:03:16Z</time>
      </trkpt>
      <trkpt lat="40.761637017130852" lon="14.027628600597382">
        <ele>37.630000000000003</ele>
        <time>2018-09-28T11:03:19Z</time>
      </trkpt>
      <trkpt lat="40.761720417067409" lon="14.027571016922593">
        <ele>38.590000000000003</ele>
        <time>2018-09-28T11:03:30Z</time>
      </trkpt>
      <trkpt lat="40.761740114539862" lon="14.027562383562326">
        <ele>38.590000000000003</ele>
        <time>2018-09-28T11:03:32Z</time>
      </trkpt>
      <trkpt lat="40.761763583868742" lon="14.027537824586034">
        <ele>38.590000000000003</ele>
        <time>2018-09-28T11:03:35Z</time>
      </trkpt>
      <trkpt lat="40.761871710419655" lon="14.027464734390378">
        <ele>38.109999999999999</ele>
        <time>2018-09-28T11:03:47Z</time>
      </trkpt>
      <trkpt lat="40.761934826150537" lon="14.027429698035121">
        <ele>38.109999999999999</ele>
        <time>2018-09-28T11:03:57Z</time>
      </trkpt>
      <trkpt lat="40.762006575241685" lon="14.027395583689213">
        <ele>38.109999999999999</ele>
        <time>2018-09-28T11:04:06Z</time>
      </trkpt>
      <trkpt lat="40.762117886915803" lon="14.027342442423105">
        <ele>38.109999999999999</ele>
        <time>2018-09-28T11:04:19Z</time>
      </trkpt>
      <trkpt lat="40.762203801423311" lon="14.027276476845145">
        <ele>37.630000000000003</ele>
        <time>2018-09-28T11:04:32Z</time>
      </trkpt>
      <trkpt lat="40.762231545522809" lon="14.027279410511255">
        <ele>37.630000000000003</ele>
        <time>2018-09-28T11:04:41Z</time>
      </trkpt>
      <trkpt lat="40.76227848418057" lon="14.027241943404078">
        <ele>37.149999999999999</ele>
        <time>2018-09-28T11:04:51Z</time>
      </trkpt>
      <trkpt lat="40.762406559661031" lon="14.027194166556001">
        <ele>37.149999999999999</ele>
        <time>2018-09-28T11:05:05Z</time>
      </trkpt>
      <trkpt lat="40.762532372027636" lon="14.027080256491899">
        <ele>36.189999999999998</ele>
        <time>2018-09-28T11:05:19Z</time>
      </trkpt>
      <trkpt lat="40.76257755048573" lon="14.027025522664189">
        <ele>35.710000000000001</ele>
        <time>2018-09-28T11:05:31Z</time>
      </trkpt>
      <trkpt lat="40.762583836913109" lon="14.027018817141652">
        <ele>36.189999999999998</ele>
        <time>2018-09-28T11:05:32Z</time>
      </trkpt>
      <trkpt lat="40.762686599045992" lon="14.026943380013108">
        <ele>35.710000000000001</ele>
        <time>2018-09-28T11:05:43Z</time>
      </trkpt>
      <trkpt lat="40.762738399207592" lon="14.026919323951006">
        <ele>35.229999999999997</ele>
        <time>2018-09-28T11:05:51Z</time>
      </trkpt>
      <trkpt lat="40.762753235176206" lon="14.026910103857517">
        <ele>35.229999999999997</ele>
        <time>2018-09-28T11:05:53Z</time>
      </trkpt>
      <trkpt lat="40.762892374768853" lon="14.026855537667871">
        <ele>34.740000000000002</ele>
        <time>2018-09-28T11:06:07Z</time>
      </trkpt>
      <trkpt lat="40.762987677007914" lon="14.026749506592751">
        <ele>34.259999999999998</ele>
        <time>2018-09-28T11:06:20Z</time>
      </trkpt>
      <trkpt lat="40.763034867122769" lon="14.026599721983075">
        <ele>33.299999999999997</ele>
        <time>2018-09-28T11:06:33Z</time>
      </trkpt>
      <trkpt lat="40.763064874336123" lon="14.026610367000103">
        <ele>34.259999999999998</ele>
        <time>2018-09-28T11:06:40Z</time>
      </trkpt>
      <trkpt lat="40.763163948431611" lon="14.026733748614788">
        <ele>33.780000000000001</ele>
        <time>2018-09-28T11:06:54Z</time>
      </trkpt>
      <trkpt lat="40.763247348368168" lon="14.02681102976203">
        <ele>33.299999999999997</ele>
        <time>2018-09-28T11:07:09Z</time>
      </trkpt>
      <trkpt lat="40.763335106894374" lon="14.026942206546664">
        <ele>33.299999999999997</ele>
        <time>2018-09-28T11:07:24Z</time>
      </trkpt>
      <trkpt lat="40.763395875692368" lon="14.027010938152671">
        <ele>32.82</ele>
        <time>2018-09-28T11:07:36Z</time>
      </trkpt>
      <trkpt lat="40.763470223173499" lon="14.027113281190395">
        <ele>32.82</ele>
        <time>2018-09-28T11:07:49Z</time>
      </trkpt>
      <trkpt lat="40.76357290148735" lon="14.027208918705583">
        <ele>32.82</ele>
        <time>2018-09-28T11:08:03Z</time>
      </trkpt>
      <trkpt lat="40.763663006946445" lon="14.02736465446651">
        <ele>32.340000000000003</ele>
        <time>2018-09-28T11:08:19Z</time>
      </trkpt>
      <trkpt lat="40.763696366921067" lon="14.027404133230448">
        <ele>32.340000000000003</ele>
        <time>2018-09-28T11:08:29Z</time>
      </trkpt>
      <trkpt lat="40.763789741322398" lon="14.027534304186702">
        <ele>31.859999999999999</ele>
        <time>2018-09-28T11:08:42Z</time>
      </trkpt>
      <trkpt lat="40.763778928667307" lon="14.027583757415414">
        <ele>31.859999999999999</ele>
        <time>2018-09-28T11:08:55Z</time>
      </trkpt>
      <trkpt lat="40.763813881203532" lon="14.027606388553977">
        <ele>31.859999999999999</ele>
        <time>2018-09-28T11:09:09Z</time>
      </trkpt>
      <trkpt lat="40.763878840953112" lon="14.027710575610399">
        <ele>31.379999999999999</ele>
        <time>2018-09-28T11:09:20Z</time>
      </trkpt>
      <trkpt lat="40.763961570337415" lon="14.027843177318573">
        <ele>30.899999999999999</ele>
        <time>2018-09-28T11:09:32Z</time>
      </trkpt>
      <trkpt lat="40.764026697725058" lon="14.027976952493191">
        <ele>30.420000000000002</ele>
        <time>2018-09-28T11:09:47Z</time>
      </trkpt>
      <trkpt lat="40.764089561998844" lon="14.028122797608376">
        <ele>30.420000000000002</ele>
        <time>2018-09-28T11:10:02Z</time>
      </trkpt>
      <trkpt lat="40.764183271676302" lon="14.028263026848435">
        <ele>28.98</ele>
        <time>2018-09-28T11:10:16Z</time>
      </trkpt>
      <trkpt lat="40.764230629429221" lon="14.028379367664456">
        <ele>28.02</ele>
        <time>2018-09-28T11:10:27Z</time>
      </trkpt>
      <trkpt lat="40.764274466782808" lon="14.028510125353932">
        <ele>26.57</ele>
        <time>2018-09-28T11:10:39Z</time>
      </trkpt>
      <trkpt lat="40.764336073771119" lon="14.028616407886147">
        <ele>25.609999999999999</ele>
        <time>2018-09-28T11:10:50Z</time>
      </trkpt>
      <trkpt lat="40.764381252229214" lon="14.028798379004002">
        <ele>24.170000000000002</ele>
        <time>2018-09-28T11:11:06Z</time>
      </trkpt>
      <trkpt lat="40.764378570020199" lon="14.028820004314184">
        <ele>23.690000000000001</ele>
        <time>2018-09-28T11:11:20Z</time>
      </trkpt>
      <trkpt lat="40.764400446787477" lon="14.028888400644064">
        <ele>23.690000000000001</ele>
        <time>2018-09-28T11:11:35Z</time>
      </trkpt>
      <trkpt lat="40.76441234908998" lon="14.028970208019018">
        <ele>23.690000000000001</ele>
        <time>2018-09-28T11:11:42Z</time>
      </trkpt>
      <trkpt lat="40.764439925551414" lon="14.02901136316359">
        <ele>23.210000000000001</ele>
        <time>2018-09-28T11:11:46Z</time>
      </trkpt>
      <trkpt lat="40.764556517824531" lon="14.029131475836039">
        <ele>22.25</ele>
        <time>2018-09-28T11:11:59Z</time>
      </trkpt>
      <trkpt lat="40.764646790921688" lon="14.029219821095467">
        <ele>21.289999999999999</ele>
        <time>2018-09-28T11:12:13Z</time>
      </trkpt>
      <trkpt lat="40.764727843925357" lon="14.02928352355957">
        <ele>19.84</ele>
        <time>2018-09-28T11:12:26Z</time>
      </trkpt>
      <trkpt lat="40.764769501984119" lon="14.029464153572917">
        <ele>18.399999999999999</ele>
        <time>2018-09-28T11:12:39Z</time>
      </trkpt>
      <trkpt lat="40.764828007668257" lon="14.029572363942862">
        <ele>17.920000000000002</ele>
        <time>2018-09-28T11:12:50Z</time>
      </trkpt>
      <trkpt lat="40.764904282987118" lon="14.029685603454709">
        <ele>17.440000000000001</ele>
        <time>2018-09-28T11:13:05Z</time>
      </trkpt>
      <trkpt lat="40.765008805319667" lon="14.029743019491434">
        <ele>16</ele>
        <time>2018-09-28T11:13:18Z</time>
      </trkpt>
      <trkpt lat="40.765069825574756" lon="14.029771769419312">
        <ele>14.56</ele>
        <time>2018-09-28T11:13:31Z</time>
      </trkpt>
      <trkpt lat="40.76521122828126" lon="14.029885847121477">
        <ele>13.6</ele>
        <time>2018-09-28T11:13:44Z</time>
      </trkpt>
      <trkpt lat="40.76531482860446" lon="14.02997394092381">
        <ele>12.630000000000001</ele>
        <time>2018-09-28T11:13:54Z</time>
      </trkpt>
      <trkpt lat="40.765367299318314" lon="14.030071422457695">
        <ele>12.630000000000001</ele>
        <time>2018-09-28T11:14:06Z</time>
      </trkpt>
      <trkpt lat="40.765379117801785" lon="14.030067231506109">
        <ele>12.630000000000001</ele>
        <time>2018-09-28T11:14:14Z</time>
      </trkpt>
      <trkpt lat="40.765425469726324" lon="14.03011224232614">
        <ele>13.119999999999999</ele>
        <time>2018-09-28T11:14:24Z</time>
      </trkpt>
      <trkpt lat="40.765433516353369" lon="14.030119869858027">
        <ele>13.119999999999999</ele>
        <time>2018-09-28T11:14:34Z</time>
      </trkpt>
      <trkpt lat="40.765439048409462" lon="14.03011760674417">
        <ele>12.630000000000001</ele>
        <time>2018-09-28T11:14:43Z</time>
      </trkpt>
      <trkpt lat="40.76542773284018" lon="14.030127581208944">
        <ele>12.630000000000001</ele>
        <time>2018-09-28T11:14:58Z</time>
      </trkpt>
      <trkpt lat="40.765434606000781" lon="14.030129928141832">
        <ele>13.119999999999999</ele>
        <time>2018-09-28T11:15:09Z</time>
      </trkpt>
      <trkpt lat="40.765442401170731" lon="14.030130347236991">
        <ele>12.630000000000001</ele>
        <time>2018-09-28T11:15:26Z</time>
      </trkpt>
      <trkpt lat="40.765426643192768" lon="14.030128503218293">
        <ele>13.119999999999999</ele>
        <time>2018-09-28T11:15:40Z</time>
      </trkpt>
      <trkpt lat="40.765428906306624" lon="14.030141495168209">
        <ele>13.119999999999999</ele>
        <time>2018-09-28T11:15:56Z</time>
      </trkpt>
      <trkpt lat="40.765436114743352" lon="14.030123725533485">
        <ele>13.119999999999999</ele>
        <time>2018-09-28T11:16:13Z</time>
      </trkpt>
      <trkpt lat="40.7654336001724" lon="14.030136968940496">
        <ele>13.119999999999999</ele>
        <time>2018-09-28T11:16:30Z</time>
      </trkpt>
      <trkpt lat="40.765428319573402" lon="14.030124731361866">
        <ele>13.6</ele>
        <time>2018-09-28T11:16:48Z</time>
      </trkpt>
      <trkpt lat="40.765434857457876" lon="14.030117942020297">
        <ele>13.6</ele>
        <time>2018-09-28T11:17:03Z</time>
      </trkpt>
      <trkpt lat="40.76542773284018" lon="14.030129425227642">
        <ele>13.6</ele>
        <time>2018-09-28T11:17:22Z</time>
      </trkpt>
      <trkpt lat="40.765418764203787" lon="14.03012054041028">
        <ele>13.6</ele>
        <time>2018-09-28T11:17:39Z</time>
      </trkpt>
      <trkpt lat="40.76541842892766" lon="14.030122132971883">
        <ele>13.6</ele>
        <time>2018-09-28T11:17:55Z</time>
      </trkpt>
      <trkpt lat="40.765418345108628" lon="14.030133783817291">
        <ele>13.6</ele>
        <time>2018-09-28T11:18:14Z</time>
      </trkpt>
      <trkpt lat="40.765417758375406" lon="14.030124898999929">
        <ele>13.6</ele>
        <time>2018-09-28T11:18:24Z</time>
      </trkpt>
      <trkpt lat="40.765428822487593" lon="14.030133113265038">
        <ele>13.6</ele>
        <time>2018-09-28T11:18:37Z</time>
      </trkpt>
      <trkpt lat="40.76542085967958" lon="14.030127162113786">
        <ele>14.08</ele>
        <time>2018-09-28T11:18:55Z</time>
      </trkpt>
      <trkpt lat="40.765426391735673" lon="14.030132023617625">
        <ele>13.6</ele>
        <time>2018-09-28T11:19:05Z</time>
      </trkpt>
      <trkpt lat="40.765419853851199" lon="14.030127162113786">
        <ele>13.6</ele>
        <time>2018-09-28T11:19:25Z</time>
      </trkpt>
      <trkpt lat="40.765417842194438" lon="14.030123054981232">
        <ele>13.6</ele>
        <time>2018-09-28T11:19:40Z</time>
      </trkpt>
      <trkpt lat="40.765425385907292" lon="14.030153146013618">
        <ele>14.08</ele>
        <time>2018-09-28T11:19:54Z</time>
      </trkpt>
      <trkpt lat="40.765379872173071" lon="14.030185583978891">
        <ele>13.6</ele>
        <time>2018-09-28T11:20:04Z</time>
      </trkpt>
      <trkpt lat="40.765346512198448" lon="14.030263619497418">
        <ele>13.6</ele>
        <time>2018-09-28T11:20:15Z</time>
      </trkpt>
      <trkpt lat="40.765330335125327" lon="14.030293039977551">
        <ele>13.6</ele>
        <time>2018-09-28T11:20:26Z</time>
      </trkpt>
      <trkpt lat="40.765322372317314" lon="14.030304774641991">
        <ele>13.6</ele>
        <time>2018-09-28T11:20:37Z</time>
      </trkpt>
      <trkpt lat="40.765317426994443" lon="14.030302427709103">
        <ele>14.08</ele>
        <time>2018-09-28T11:20:50Z</time>
      </trkpt>
      <trkpt lat="40.765293706208467" lon="14.030289687216282">
        <ele>13.6</ele>
        <time>2018-09-28T11:21:05Z</time>
      </trkpt>
      <trkpt lat="40.765268141403794" lon="14.030284658074379">
        <ele>14.08</ele>
        <time>2018-09-28T11:21:14Z</time>
      </trkpt>
      <trkpt lat="40.765258250758052" lon="14.030303098261356">
        <ele>14.08</ele>
        <time>2018-09-28T11:21:27Z</time>
      </trkpt>
      <trkpt lat="40.765249952673912" lon="14.030304607003927">
        <ele>13.6</ele>
        <time>2018-09-28T11:21:41Z</time>
      </trkpt>
      <trkpt lat="40.765244169160724" lon="14.030310390517116">
        <ele>13.6</ele>
        <time>2018-09-28T11:21:51Z</time>
      </trkpt>
      <trkpt lat="40.765248779207468" lon="14.030305026099086">
        <ele>14.08</ele>
        <time>2018-09-28T11:22:01Z</time>
      </trkpt>
      <trkpt lat="40.765251209959388" lon="14.030305361375213">
        <ele>13.6</ele>
        <time>2018-09-28T11:22:10Z</time>
      </trkpt>
      <trkpt lat="40.765260010957718" lon="14.03030670247972">
        <ele>13.6</ele>
        <time>2018-09-28T11:22:30Z</time>
      </trkpt>
      <trkpt lat="40.765271494165063" lon="14.030294548720121">
        <ele>14.08</ele>
        <time>2018-09-28T11:22:51Z</time>
      </trkpt>
      <trkpt lat="40.765278870239854" lon="14.030278706923127">
        <ele>14.08</ele>
        <time>2018-09-28T11:23:10Z</time>
      </trkpt>
      <trkpt lat="40.765274846926332" lon="14.030291195958853">
        <ele>13.6</ele>
        <time>2018-09-28T11:23:31Z</time>
      </trkpt>
      <trkpt lat="40.765283228829503" lon="14.030283149331808">
        <ele>14.08</ele>
        <time>2018-09-28T11:23:52Z</time>
      </trkpt>
      <trkpt lat="40.76528700068593" lon="14.030321454629302">
        <ele>14.08</ele>
        <time>2018-09-28T11:24:09Z</time>
      </trkpt>
      <trkpt lat="40.765260346233845" lon="14.03029203414917">
        <ele>14.08</ele>
        <time>2018-09-28T11:24:26Z</time>
      </trkpt>
      <trkpt lat="40.765268979594111" lon="14.030298655852675">
        <ele>14.08</ele>
        <time>2018-09-28T11:24:49Z</time>
      </trkpt>
      <trkpt lat="40.765277948230505" lon="14.030303433537483">
        <ele>14.08</ele>
        <time>2018-09-28T11:25:08Z</time>
      </trkpt>
      <trkpt lat="40.765262525528669" lon="14.030320448800921">
        <ele>14.08</ele>
        <time>2018-09-28T11:25:27Z</time>
      </trkpt>
      <trkpt lat="40.765264788642526" lon="14.030308043584228">
        <ele>14.56</ele>
        <time>2018-09-28T11:25:52Z</time>
      </trkpt>
      <trkpt lat="40.765268141403794" lon="14.030293626710773">
        <ele>14.56</ele>
        <time>2018-09-28T11:26:13Z</time>
      </trkpt>
      <trkpt lat="40.765245510265231" lon="14.030297482386231">
        <ele>14.56</ele>
        <time>2018-09-28T11:26:33Z</time>
      </trkpt>
      <trkpt lat="40.765240397304296" lon="14.030296895653009">
        <ele>14.56</ele>
        <time>2018-09-28T11:26:50Z</time>
      </trkpt>
      <trkpt lat="40.765250707045197" lon="14.030296392738819">
        <ele>14.56</ele>
        <time>2018-09-28T11:27:03Z</time>
      </trkpt>
      <trkpt lat="40.76525716111064" lon="14.030297063291073">
        <ele>15.039999999999999</ele>
        <time>2018-09-28T11:27:30Z</time>
      </trkpt>
      <trkpt lat="40.76526889577508" lon="14.030294381082058">
        <ele>14.56</ele>
        <time>2018-09-28T11:27:43Z</time>
      </trkpt>
      <trkpt lat="40.765265543013811" lon="14.030304523184896">
        <ele>15.039999999999999</ele>
        <time>2018-09-28T11:28:07Z</time>
      </trkpt>
      <trkpt lat="40.76526353135705" lon="14.030305948108435">
        <ele>15.039999999999999</ele>
        <time>2018-09-28T11:28:23Z</time>
      </trkpt>
      <trkpt lat="40.765272164717317" lon="14.030304187908769">
        <ele>14.56</ele>
        <time>2018-09-28T11:28:39Z</time>
      </trkpt>
      <trkpt lat="40.765271913260221" lon="14.030302343890071">
        <ele>14.56</ele>
        <time>2018-09-28T11:28:53Z</time>
      </trkpt>
      <trkpt lat="40.765281217172742" lon="14.030305864289403">
        <ele>15.039999999999999</ele>
        <time>2018-09-28T11:29:09Z</time>
      </trkpt>
      <trkpt lat="40.765278534963727" lon="14.030307121574879">
        <ele>15.039999999999999</ele>
        <time>2018-09-28T11:29:30Z</time>
      </trkpt>
    </trkseg>
  </trk>

</gpx>